<?xml version="1.0"?>
<gpx
 version="1.0"
 creator="Satmap Active 10"
 xmlns:xsi="http://www.w3.org/2001/XMLSchema-instance"
 xmlns="http://www.topografix.com/GPX/1/0"
 xsi:schemaLocation="http://www.topografix.com/GPX/1/0 http://www.topografix.com/GPX/1/0/gpx.xsd">
<time>2021-01-07T09:36:41Z</time>
<trk>
<name>User Track</name>
<desc>Track 1</desc>
<number>1</number>
<trkseg>
<trkpt lat="51.693086" lon="03.736262"><ele>0</ele><time>2021-01-07T09:36:41Z</time><cmt>0.0 kmh</cmt></trkpt>
<trkpt lat="51.693087" lon="03.736262"><ele>0</ele><time>2021-01-07T09:36:42Z</time><cmt>0.0 kmh</cmt></trkpt>
<trkpt lat="51.693088" lon="03.736262"><ele>0</ele><time>2021-01-07T09:36:43Z</time><cmt>0.0 kmh</cmt></trkpt>
<trkpt lat="51.693087" lon="03.736262"><ele>0</ele><time>2021-01-07T09:36:44Z</time><cmt>0.0 kmh</cmt></trkpt>
<trkpt lat="51.693086" lon="03.736263"><ele>0</ele><time>2021-01-07T09:36:45Z</time><cmt>0.0 kmh</cmt></trkpt>
<trkpt lat="51.693085" lon="03.736264"><ele>0</ele><time>2021-01-07T09:36:46Z</time><cmt>0.2 kmh</cmt></trkpt>
<trkpt lat="51.693085" lon="03.736267"><ele>0</ele><time>2021-01-07T09:36:47Z</time><cmt>0.8 kmh</cmt></trkpt>
<trkpt lat="51.693123" lon="03.736260"><ele>0</ele><time>2021-01-07T09:37:12Z</time><cmt>5.0 kmh</cmt></trkpt>
<trkpt lat="51.693079" lon="03.736236"><ele>0</ele><time>2021-01-07T09:37:27Z</time><cmt>5.0 kmh</cmt></trkpt>
<trkpt lat="51.693053" lon="03.736216"><ele>0</ele><time>2021-01-07T09:37:30Z</time><cmt>3.6 kmh</cmt></trkpt>
<trkpt lat="51.693027" lon="03.736202"><ele>0</ele><time>2021-01-07T09:37:33Z</time><cmt>3.9 kmh</cmt></trkpt>
<trkpt lat="51.692986" lon="03.736185"><ele>0</ele><time>2021-01-07T09:37:38Z</time><cmt>4.5 kmh</cmt></trkpt>
<trkpt lat="51.692949" lon="03.736173"><ele>0</ele><time>2021-01-07T09:37:43Z</time><cmt>4.7 kmh</cmt></trkpt>
<trkpt lat="51.692915" lon="03.736156"><ele>0</ele><time>2021-01-07T09:37:46Z</time><cmt>5.0 kmh</cmt></trkpt>
<trkpt lat="51.692888" lon="03.736129"><ele>0</ele><time>2021-01-07T09:37:48Z</time><cmt>5.0 kmh</cmt></trkpt>
<trkpt lat="51.692865" lon="03.736107"><ele>0</ele><time>2021-01-07T09:37:50Z</time><cmt>5.0 kmh</cmt></trkpt>
<trkpt lat="51.692842" lon="03.736085"><ele>0</ele><time>2021-01-07T09:37:52Z</time><cmt>5.0 kmh</cmt></trkpt>
<trkpt lat="51.692819" lon="03.736070"><ele>0</ele><time>2021-01-07T09:37:54Z</time><cmt>4.2 kmh</cmt></trkpt>
<trkpt lat="51.692800" lon="03.736056"><ele>0</ele><time>2021-01-07T09:37:56Z</time><cmt>5.0 kmh</cmt></trkpt>
<trkpt lat="51.692777" lon="03.736046"><ele>0</ele><time>2021-01-07T09:37:58Z</time><cmt>4.8 kmh</cmt></trkpt>
<trkpt lat="51.692757" lon="03.736034"><ele>0</ele><time>2021-01-07T09:38:00Z</time><cmt>3.8 kmh</cmt></trkpt>
<trkpt lat="51.692740" lon="03.736020"><ele>0</ele><time>2021-01-07T09:38:02Z</time><cmt>5.0 kmh</cmt></trkpt>
<trkpt lat="51.692721" lon="03.736004"><ele>0</ele><time>2021-01-07T09:38:04Z</time><cmt>4.4 kmh</cmt></trkpt>
<trkpt lat="51.692698" lon="03.735987"><ele>0</ele><time>2021-01-07T09:38:06Z</time><cmt>4.4 kmh</cmt></trkpt>
<trkpt lat="51.692678" lon="03.735965"><ele>0</ele><time>2021-01-07T09:38:08Z</time><cmt>4.8 kmh</cmt></trkpt>
<trkpt lat="51.692655" lon="03.735936"><ele>0</ele><time>2021-01-07T09:38:10Z</time><cmt>5.0 kmh</cmt></trkpt>
<trkpt lat="51.692630" lon="03.735923"><ele>1</ele><time>2021-01-07T09:38:13Z</time><cmt>5.0 kmh</cmt></trkpt>
<trkpt lat="51.692604" lon="03.735913"><ele>1</ele><time>2021-01-07T09:38:14Z</time><cmt>5.0 kmh</cmt></trkpt>
<trkpt lat="51.692571" lon="03.735897"><ele>2</ele><time>2021-01-07T09:38:17Z</time><cmt>4.9 kmh</cmt></trkpt>
<trkpt lat="51.692546" lon="03.735877"><ele>3</ele><time>2021-01-07T09:38:19Z</time><cmt>5.0 kmh</cmt></trkpt>
<trkpt lat="51.692519" lon="03.735849"><ele>3</ele><time>2021-01-07T09:38:21Z</time><cmt>5.0 kmh</cmt></trkpt>
<trkpt lat="51.692494" lon="03.735831"><ele>4</ele><time>2021-01-07T09:38:23Z</time><cmt>5.0 kmh</cmt></trkpt>
<trkpt lat="51.692473" lon="03.735813"><ele>5</ele><time>2021-01-07T09:38:25Z</time><cmt>4.9 kmh</cmt></trkpt>
<trkpt lat="51.692452" lon="03.735800"><ele>5</ele><time>2021-01-07T09:38:27Z</time><cmt>4.5 kmh</cmt></trkpt>
<trkpt lat="51.692433" lon="03.735782"><ele>6</ele><time>2021-01-07T09:38:29Z</time><cmt>4.8 kmh</cmt></trkpt>
<trkpt lat="51.692411" lon="03.735759"><ele>7</ele><time>2021-01-07T09:38:32Z</time><cmt>4.7 kmh</cmt></trkpt>
<trkpt lat="51.692384" lon="03.735731"><ele>7</ele><time>2021-01-07T09:38:33Z</time><cmt>5.8 kmh</cmt></trkpt>
<trkpt lat="51.692356" lon="03.735708"><ele>8</ele><time>2021-01-07T09:38:35Z</time><cmt>5.7 kmh</cmt></trkpt>
<trkpt lat="51.692334" lon="03.735674"><ele>9</ele><time>2021-01-07T09:38:38Z</time><cmt>3.8 kmh</cmt></trkpt>
<trkpt lat="51.692312" lon="03.735635"><ele>9</ele><time>2021-01-07T09:38:41Z</time><cmt>4.6 kmh</cmt></trkpt>
<trkpt lat="51.692294" lon="03.735601"><ele>10</ele><time>2021-01-07T09:38:43Z</time><cmt>5.0 kmh</cmt></trkpt>
<trkpt lat="51.692275" lon="03.735580"><ele>10</ele><time>2021-01-07T09:38:46Z</time><cmt>2.9 kmh</cmt></trkpt>
<trkpt lat="51.692263" lon="03.735572"><ele>10</ele><time>2021-01-07T09:38:47Z</time><cmt>5.0 kmh</cmt></trkpt>
<trkpt lat="51.692256" lon="03.735568"><ele>10</ele><time>2021-01-07T09:38:48Z</time><cmt>4.3 kmh</cmt></trkpt>
<trkpt lat="51.692248" lon="03.735564"><ele>10</ele><time>2021-01-07T09:38:49Z</time><cmt>3.4 kmh</cmt></trkpt>
<trkpt lat="51.692240" lon="03.735559"><ele>10</ele><time>2021-01-07T09:38:51Z</time><cmt>2.9 kmh</cmt></trkpt>
<trkpt lat="51.692231" lon="03.735553"><ele>10</ele><time>2021-01-07T09:38:52Z</time><cmt>3.2 kmh</cmt></trkpt>
<trkpt lat="51.692222" lon="03.735547"><ele>10</ele><time>2021-01-07T09:38:52Z</time><cmt>4.1 kmh</cmt></trkpt>
<trkpt lat="51.692215" lon="03.735542"><ele>10</ele><time>2021-01-07T09:38:53Z</time><cmt>3.8 kmh</cmt></trkpt>
<trkpt lat="51.692186" lon="03.735509"><ele>9</ele><time>2021-01-07T09:39:01Z</time><cmt>3.9 kmh</cmt></trkpt>
<trkpt lat="51.692148" lon="03.735488"><ele>8</ele><time>2021-01-07T09:39:04Z</time><cmt>4.9 kmh</cmt></trkpt>
<trkpt lat="51.692113" lon="03.735478"><ele>7</ele><time>2021-01-07T09:39:06Z</time><cmt>5.0 kmh</cmt></trkpt>
<trkpt lat="51.692087" lon="03.735460"><ele>6</ele><time>2021-01-07T09:39:08Z</time><cmt>5.0 kmh</cmt></trkpt>
<trkpt lat="51.692066" lon="03.735424"><ele>5</ele><time>2021-01-07T09:39:11Z</time><cmt>3.8 kmh</cmt></trkpt>
<trkpt lat="51.692046" lon="03.735381"><ele>5</ele><time>2021-01-07T09:39:15Z</time><cmt>3.6 kmh</cmt></trkpt>
<trkpt lat="51.692031" lon="03.735329"><ele>5</ele><time>2021-01-07T09:39:19Z</time><cmt>5.0 kmh</cmt></trkpt>
<trkpt lat="51.692012" lon="03.735299"><ele>5</ele><time>2021-01-07T09:39:21Z</time><cmt>5.0 kmh</cmt></trkpt>
<trkpt lat="51.691980" lon="03.735269"><ele>5</ele><time>2021-01-07T09:39:24Z</time><cmt>4.6 kmh</cmt></trkpt>
<trkpt lat="51.691940" lon="03.735226"><ele>5</ele><time>2021-01-07T09:39:30Z</time><cmt>5.0 kmh</cmt></trkpt>
<trkpt lat="51.691896" lon="03.735159"><ele>5</ele><time>2021-01-07T09:39:35Z</time><cmt>5.0 kmh</cmt></trkpt>
<trkpt lat="51.691871" lon="03.735117"><ele>5</ele><time>2021-01-07T09:39:38Z</time><cmt>5.1 kmh</cmt></trkpt>
<trkpt lat="51.691832" lon="03.735069"><ele>5</ele><time>2021-01-07T09:39:43Z</time><cmt>5.0 kmh</cmt></trkpt>
<trkpt lat="51.691809" lon="03.735031"><ele>4</ele><time>2021-01-07T09:39:45Z</time><cmt>5.0 kmh</cmt></trkpt>
<trkpt lat="51.691787" lon="03.734996"><ele>4</ele><time>2021-01-07T09:39:47Z</time><cmt>5.0 kmh</cmt></trkpt>
<trkpt lat="51.691761" lon="03.734951"><ele>4</ele><time>2021-01-07T09:39:50Z</time><cmt>4.7 kmh</cmt></trkpt>
<trkpt lat="51.691736" lon="03.734896"><ele>3</ele><time>2021-01-07T09:39:53Z</time><cmt>5.0 kmh</cmt></trkpt>
<trkpt lat="51.691711" lon="03.734853"><ele>3</ele><time>2021-01-07T09:39:56Z</time><cmt>4.4 kmh</cmt></trkpt>
<trkpt lat="51.691672" lon="03.734797"><ele>4</ele><time>2021-01-07T09:40:03Z</time><cmt>5.0 kmh</cmt></trkpt>
<trkpt lat="51.691649" lon="03.734761"><ele>4</ele><time>2021-01-07T09:40:07Z</time><cmt>3.0 kmh</cmt></trkpt>
<trkpt lat="51.691628" lon="03.734720"><ele>5</ele><time>2021-01-07T09:40:10Z</time><cmt>4.8 kmh</cmt></trkpt>
<trkpt lat="51.691598" lon="03.734704"><ele>5</ele><time>2021-01-07T09:40:12Z</time><cmt>5.0 kmh</cmt></trkpt>
<trkpt lat="51.691571" lon="03.734712"><ele>6</ele><time>2021-01-07T09:40:14Z</time><cmt>4.7 kmh</cmt></trkpt>
<trkpt lat="51.691546" lon="03.734739"><ele>6</ele><time>2021-01-07T09:40:16Z</time><cmt>5.4 kmh</cmt></trkpt>
<trkpt lat="51.691514" lon="03.734778"><ele>7</ele><time>2021-01-07T09:40:19Z</time><cmt>5.0 kmh</cmt></trkpt>
<trkpt lat="51.691490" lon="03.734804"><ele>7</ele><time>2021-01-07T09:40:21Z</time><cmt>5.0 kmh</cmt></trkpt>
<trkpt lat="51.691465" lon="03.734822"><ele>7</ele><time>2021-01-07T09:40:23Z</time><cmt>5.0 kmh</cmt></trkpt>
<trkpt lat="51.691428" lon="03.734841"><ele>7</ele><time>2021-01-07T09:40:26Z</time><cmt>5.0 kmh</cmt></trkpt>
<trkpt lat="51.691403" lon="03.734853"><ele>7</ele><time>2021-01-07T09:40:28Z</time><cmt>4.5 kmh</cmt></trkpt>
<trkpt lat="51.691379" lon="03.734872"><ele>7</ele><time>2021-01-07T09:40:30Z</time><cmt>5.0 kmh</cmt></trkpt>
<trkpt lat="51.691352" lon="03.734894"><ele>8</ele><time>2021-01-07T09:40:32Z</time><cmt>5.0 kmh</cmt></trkpt>
<trkpt lat="51.691320" lon="03.734905"><ele>8</ele><time>2021-01-07T09:40:35Z</time><cmt>4.1 kmh</cmt></trkpt>
<trkpt lat="51.691287" lon="03.734925"><ele>8</ele><time>2021-01-07T09:40:38Z</time><cmt>5.0 kmh</cmt></trkpt>
<trkpt lat="51.691255" lon="03.734955"><ele>8</ele><time>2021-01-07T09:40:41Z</time><cmt>4.5 kmh</cmt></trkpt>
<trkpt lat="51.691230" lon="03.734981"><ele>8</ele><time>2021-01-07T09:40:43Z</time><cmt>5.0 kmh</cmt></trkpt>
<trkpt lat="51.691203" lon="03.735005"><ele>8</ele><time>2021-01-07T09:40:45Z</time><cmt>5.0 kmh</cmt></trkpt>
<trkpt lat="51.691174" lon="03.735028"><ele>8</ele><time>2021-01-07T09:40:47Z</time><cmt>5.0 kmh</cmt></trkpt>
<trkpt lat="51.691144" lon="03.735044"><ele>8</ele><time>2021-01-07T09:40:49Z</time><cmt>5.0 kmh</cmt></trkpt>
<trkpt lat="51.691114" lon="03.735061"><ele>9</ele><time>2021-01-07T09:40:51Z</time><cmt>5.0 kmh</cmt></trkpt>
<trkpt lat="51.691090" lon="03.735068"><ele>9</ele><time>2021-01-07T09:40:53Z</time><cmt>5.0 kmh</cmt></trkpt>
<trkpt lat="51.691059" lon="03.735071"><ele>9</ele><time>2021-01-07T09:40:56Z</time><cmt>4.5 kmh</cmt></trkpt>
<trkpt lat="51.691028" lon="03.735074"><ele>8</ele><time>2021-01-07T09:40:59Z</time><cmt>3.8 kmh</cmt></trkpt>
<trkpt lat="51.690993" lon="03.735087"><ele>8</ele><time>2021-01-07T09:41:02Z</time><cmt>5.0 kmh</cmt></trkpt>
<trkpt lat="51.690972" lon="03.735090"><ele>7</ele><time>2021-01-07T09:41:04Z</time><cmt>5.0 kmh</cmt></trkpt>
<trkpt lat="51.690950" lon="03.735091"><ele>7</ele><time>2021-01-07T09:41:06Z</time><cmt>3.7 kmh</cmt></trkpt>
<trkpt lat="51.690926" lon="03.735096"><ele>7</ele><time>2021-01-07T09:41:08Z</time><cmt>5.0 kmh</cmt></trkpt>
<trkpt lat="51.690899" lon="03.735105"><ele>7</ele><time>2021-01-07T09:41:10Z</time><cmt>5.0 kmh</cmt></trkpt>
<trkpt lat="51.690870" lon="03.735114"><ele>7</ele><time>2021-01-07T09:41:12Z</time><cmt>5.0 kmh</cmt></trkpt>
<trkpt lat="51.690842" lon="03.735124"><ele>7</ele><time>2021-01-07T09:41:14Z</time><cmt>5.0 kmh</cmt></trkpt>
<trkpt lat="51.690817" lon="03.735133"><ele>7</ele><time>2021-01-07T09:41:16Z</time><cmt>5.0 kmh</cmt></trkpt>
<trkpt lat="51.690794" lon="03.735142"><ele>7</ele><time>2021-01-07T09:41:18Z</time><cmt>4.1 kmh</cmt></trkpt>
<trkpt lat="51.690767" lon="03.735155"><ele>6</ele><time>2021-01-07T09:41:26Z</time><cmt>4.2 kmh</cmt></trkpt>
<trkpt lat="51.690742" lon="03.735164"><ele>6</ele><time>2021-01-07T09:41:30Z</time><cmt>3.1 kmh</cmt></trkpt>
<trkpt lat="51.690722" lon="03.735172"><ele>5</ele><time>2021-01-07T09:41:31Z</time><cmt>5.0 kmh</cmt></trkpt>
<trkpt lat="51.690693" lon="03.735189"><ele>5</ele><time>2021-01-07T09:41:34Z</time><cmt>4.4 kmh</cmt></trkpt>
<trkpt lat="51.690673" lon="03.735202"><ele>4</ele><time>2021-01-07T09:41:36Z</time><cmt>5.0 kmh</cmt></trkpt>
<trkpt lat="51.690651" lon="03.735218"><ele>4</ele><time>2021-01-07T09:41:38Z</time><cmt>4.1 kmh</cmt></trkpt>
<trkpt lat="51.690624" lon="03.735237"><ele>4</ele><time>2021-01-07T09:41:40Z</time><cmt>5.0 kmh</cmt></trkpt>
<trkpt lat="51.690603" lon="03.735254"><ele>4</ele><time>2021-01-07T09:41:42Z</time><cmt>5.0 kmh</cmt></trkpt>
<trkpt lat="51.690584" lon="03.735269"><ele>4</ele><time>2021-01-07T09:41:44Z</time><cmt>4.4 kmh</cmt></trkpt>
<trkpt lat="51.690566" lon="03.735288"><ele>4</ele><time>2021-01-07T09:41:46Z</time><cmt>4.1 kmh</cmt></trkpt>
<trkpt lat="51.690542" lon="03.735307"><ele>4</ele><time>2021-01-07T09:41:49Z</time><cmt>3.3 kmh</cmt></trkpt>
<trkpt lat="51.690518" lon="03.735318"><ele>4</ele><time>2021-01-07T09:41:51Z</time><cmt>5.0 kmh</cmt></trkpt>
<trkpt lat="51.690497" lon="03.735331"><ele>4</ele><time>2021-01-07T09:41:53Z</time><cmt>5.0 kmh</cmt></trkpt>
<trkpt lat="51.690479" lon="03.735348"><ele>3</ele><time>2021-01-07T09:41:55Z</time><cmt>4.2 kmh</cmt></trkpt>
<trkpt lat="51.690454" lon="03.735369"><ele>3</ele><time>2021-01-07T09:41:58Z</time><cmt>4.0 kmh</cmt></trkpt>
<trkpt lat="51.690433" lon="03.735385"><ele>3</ele><time>2021-01-07T09:42:00Z</time><cmt>5.0 kmh</cmt></trkpt>
<trkpt lat="51.690414" lon="03.735412"><ele>3</ele><time>2021-01-07T09:42:02Z</time><cmt>4.7 kmh</cmt></trkpt>
<trkpt lat="51.690393" lon="03.735439"><ele>3</ele><time>2021-01-07T09:42:04Z</time><cmt>5.0 kmh</cmt></trkpt>
<trkpt lat="51.690373" lon="03.735465"><ele>3</ele><time>2021-01-07T09:42:06Z</time><cmt>5.0 kmh</cmt></trkpt>
<trkpt lat="51.690351" lon="03.735492"><ele>3</ele><time>2021-01-07T09:42:08Z</time><cmt>5.0 kmh</cmt></trkpt>
<trkpt lat="51.690330" lon="03.735519"><ele>3</ele><time>2021-01-07T09:42:10Z</time><cmt>4.7 kmh</cmt></trkpt>
<trkpt lat="51.690311" lon="03.735540"><ele>3</ele><time>2021-01-07T09:42:12Z</time><cmt>5.0 kmh</cmt></trkpt>
<trkpt lat="51.690293" lon="03.735560"><ele>3</ele><time>2021-01-07T09:42:14Z</time><cmt>4.3 kmh</cmt></trkpt>
<trkpt lat="51.690276" lon="03.735580"><ele>3</ele><time>2021-01-07T09:42:16Z</time><cmt>4.1 kmh</cmt></trkpt>
<trkpt lat="51.690261" lon="03.735598"><ele>3</ele><time>2021-01-07T09:42:17Z</time><cmt>5.0 kmh</cmt></trkpt>
<trkpt lat="51.690252" lon="03.735609"><ele>3</ele><time>2021-01-07T09:42:18Z</time><cmt>5.0 kmh</cmt></trkpt>
<trkpt lat="51.690242" lon="03.735620"><ele>3</ele><time>2021-01-07T09:42:19Z</time><cmt>5.0 kmh</cmt></trkpt>
<trkpt lat="51.690233" lon="03.735630"><ele>3</ele><time>2021-01-07T09:42:21Z</time><cmt>3.9 kmh</cmt></trkpt>
<trkpt lat="51.690227" lon="03.735638"><ele>3</ele><time>2021-01-07T09:42:21Z</time><cmt>4.0 kmh</cmt></trkpt>
<trkpt lat="51.690220" lon="03.735648"><ele>3</ele><time>2021-01-07T09:42:22Z</time><cmt>3.7 kmh</cmt></trkpt>
<trkpt lat="51.690212" lon="03.735659"><ele>3</ele><time>2021-01-07T09:42:23Z</time><cmt>3.5 kmh</cmt></trkpt>
<trkpt lat="51.690203" lon="03.735670"><ele>3</ele><time>2021-01-07T09:42:24Z</time><cmt>4.6 kmh</cmt></trkpt>
<trkpt lat="51.690196" lon="03.735679"><ele>3</ele><time>2021-01-07T09:42:25Z</time><cmt>4.3 kmh</cmt></trkpt>
<trkpt lat="51.690188" lon="03.735689"><ele>3</ele><time>2021-01-07T09:42:26Z</time><cmt>4.2 kmh</cmt></trkpt>
<trkpt lat="51.690178" lon="03.735699"><ele>3</ele><time>2021-01-07T09:42:27Z</time><cmt>4.7 kmh</cmt></trkpt>
<trkpt lat="51.690167" lon="03.735713"><ele>3</ele><time>2021-01-07T09:42:28Z</time><cmt>4.5 kmh</cmt></trkpt>
<trkpt lat="51.690156" lon="03.735725"><ele>3</ele><time>2021-01-07T09:42:29Z</time><cmt>4.7 kmh</cmt></trkpt>
<trkpt lat="51.690145" lon="03.735738"><ele>3</ele><time>2021-01-07T09:42:30Z</time><cmt>5.0 kmh</cmt></trkpt>
<trkpt lat="51.690135" lon="03.735750"><ele>3</ele><time>2021-01-07T09:42:31Z</time><cmt>5.0 kmh</cmt></trkpt>
<trkpt lat="51.690124" lon="03.735760"><ele>3</ele><time>2021-01-07T09:42:32Z</time><cmt>5.0 kmh</cmt></trkpt>
<trkpt lat="51.690116" lon="03.735770"><ele>3</ele><time>2021-01-07T09:42:33Z</time><cmt>3.9 kmh</cmt></trkpt>
<trkpt lat="51.690106" lon="03.735780"><ele>3</ele><time>2021-01-07T09:42:34Z</time><cmt>3.8 kmh</cmt></trkpt>
<trkpt lat="51.690095" lon="03.735793"><ele>3</ele><time>2021-01-07T09:42:35Z</time><cmt>5.0 kmh</cmt></trkpt>
<trkpt lat="51.690086" lon="03.735805"><ele>3</ele><time>2021-01-07T09:42:36Z</time><cmt>5.0 kmh</cmt></trkpt>
<trkpt lat="51.690076" lon="03.735817"><ele>3</ele><time>2021-01-07T09:42:37Z</time><cmt>5.0 kmh</cmt></trkpt>
<trkpt lat="51.690067" lon="03.735828"><ele>3</ele><time>2021-01-07T09:42:38Z</time><cmt>5.0 kmh</cmt></trkpt>
<trkpt lat="51.690058" lon="03.735839"><ele>3</ele><time>2021-01-07T09:42:39Z</time><cmt>4.8 kmh</cmt></trkpt>
<trkpt lat="51.690050" lon="03.735849"><ele>3</ele><time>2021-01-07T09:42:40Z</time><cmt>3.7 kmh</cmt></trkpt>
<trkpt lat="51.690041" lon="03.735860"><ele>3</ele><time>2021-01-07T09:42:41Z</time><cmt>3.7 kmh</cmt></trkpt>
<trkpt lat="51.690032" lon="03.735872"><ele>3</ele><time>2021-01-07T09:42:42Z</time><cmt>5.0 kmh</cmt></trkpt>
<trkpt lat="51.690020" lon="03.735885"><ele>3</ele><time>2021-01-07T09:42:43Z</time><cmt>5.0 kmh</cmt></trkpt>
<trkpt lat="51.690007" lon="03.735898"><ele>3</ele><time>2021-01-07T09:42:44Z</time><cmt>5.0 kmh</cmt></trkpt>
<trkpt lat="51.689995" lon="03.735911"><ele>3</ele><time>2021-01-07T09:42:45Z</time><cmt>5.0 kmh</cmt></trkpt>
<trkpt lat="51.689984" lon="03.735924"><ele>4</ele><time>2021-01-07T09:42:46Z</time><cmt>5.0 kmh</cmt></trkpt>
<trkpt lat="51.689972" lon="03.735936"><ele>4</ele><time>2021-01-07T09:42:47Z</time><cmt>4.9 kmh</cmt></trkpt>
<trkpt lat="51.689961" lon="03.735947"><ele>4</ele><time>2021-01-07T09:42:48Z</time><cmt>4.7 kmh</cmt></trkpt>
<trkpt lat="51.689952" lon="03.735958"><ele>4</ele><time>2021-01-07T09:42:49Z</time><cmt>5.0 kmh</cmt></trkpt>
<trkpt lat="51.689942" lon="03.735968"><ele>4</ele><time>2021-01-07T09:42:50Z</time><cmt>4.8 kmh</cmt></trkpt>
<trkpt lat="51.689934" lon="03.735978"><ele>4</ele><time>2021-01-07T09:42:51Z</time><cmt>4.6 kmh</cmt></trkpt>
<trkpt lat="51.689926" lon="03.735988"><ele>4</ele><time>2021-01-07T09:42:52Z</time><cmt>4.5 kmh</cmt></trkpt>
<trkpt lat="51.689915" lon="03.736002"><ele>4</ele><time>2021-01-07T09:42:53Z</time><cmt>4.1 kmh</cmt></trkpt>
<trkpt lat="51.689905" lon="03.736017"><ele>5</ele><time>2021-01-07T09:42:54Z</time><cmt>4.7 kmh</cmt></trkpt>
<trkpt lat="51.689896" lon="03.736032"><ele>5</ele><time>2021-01-07T09:42:55Z</time><cmt>5.0 kmh</cmt></trkpt>
<trkpt lat="51.689890" lon="03.736044"><ele>5</ele><time>2021-01-07T09:42:56Z</time><cmt>4.9 kmh</cmt></trkpt>
<trkpt lat="51.689884" lon="03.736055"><ele>5</ele><time>2021-01-07T09:42:57Z</time><cmt>4.2 kmh</cmt></trkpt>
<trkpt lat="51.689879" lon="03.736065"><ele>5</ele><time>2021-01-07T09:42:58Z</time><cmt>3.6 kmh</cmt></trkpt>
<trkpt lat="51.689873" lon="03.736075"><ele>6</ele><time>2021-01-07T09:42:59Z</time><cmt>3.5 kmh</cmt></trkpt>
<trkpt lat="51.689867" lon="03.736083"><ele>6</ele><time>2021-01-07T09:43:00Z</time><cmt>2.8 kmh</cmt></trkpt>
<trkpt lat="51.689858" lon="03.736095"><ele>6</ele><time>2021-01-07T09:43:01Z</time><cmt>3.4 kmh</cmt></trkpt>
<trkpt lat="51.689848" lon="03.736108"><ele>6</ele><time>2021-01-07T09:43:02Z</time><cmt>5.0 kmh</cmt></trkpt>
<trkpt lat="51.689835" lon="03.736122"><ele>7</ele><time>2021-01-07T09:43:03Z</time><cmt>5.0 kmh</cmt></trkpt>
<trkpt lat="51.689818" lon="03.736140"><ele>7</ele><time>2021-01-07T09:43:04Z</time><cmt>5.0 kmh</cmt></trkpt>
<trkpt lat="51.689806" lon="03.736153"><ele>7</ele><time>2021-01-07T09:43:05Z</time><cmt>5.0 kmh</cmt></trkpt>
<trkpt lat="51.689796" lon="03.736162"><ele>7</ele><time>2021-01-07T09:43:06Z</time><cmt>4.4 kmh</cmt></trkpt>
<trkpt lat="51.689787" lon="03.736171"><ele>7</ele><time>2021-01-07T09:43:07Z</time><cmt>3.7 kmh</cmt></trkpt>
<trkpt lat="51.689777" lon="03.736178"><ele>8</ele><time>2021-01-07T09:43:08Z</time><cmt>4.7 kmh</cmt></trkpt>
<trkpt lat="51.689768" lon="03.736186"><ele>8</ele><time>2021-01-07T09:43:09Z</time><cmt>4.5 kmh</cmt></trkpt>
<trkpt lat="51.689761" lon="03.736194"><ele>8</ele><time>2021-01-07T09:43:10Z</time><cmt>4.1 kmh</cmt></trkpt>
<trkpt lat="51.689754" lon="03.736202"><ele>8</ele><time>2021-01-07T09:43:11Z</time><cmt>3.0 kmh</cmt></trkpt>
<trkpt lat="51.689749" lon="03.736212"><ele>8</ele><time>2021-01-07T09:43:12Z</time><cmt>2.8 kmh</cmt></trkpt>
<trkpt lat="51.689743" lon="03.736226"><ele>8</ele><time>2021-01-07T09:43:13Z</time><cmt>4.0 kmh</cmt></trkpt>
<trkpt lat="51.689740" lon="03.736240"><ele>8</ele><time>2021-01-07T09:43:14Z</time><cmt>4.2 kmh</cmt></trkpt>
<trkpt lat="51.689735" lon="03.736253"><ele>8</ele><time>2021-01-07T09:43:15Z</time><cmt>3.9 kmh</cmt></trkpt>
<trkpt lat="51.689730" lon="03.736271"><ele>8</ele><time>2021-01-07T09:43:16Z</time><cmt>4.7 kmh</cmt></trkpt>
<trkpt lat="51.689722" lon="03.736286"><ele>9</ele><time>2021-01-07T09:43:17Z</time><cmt>5.0 kmh</cmt></trkpt>
<trkpt lat="51.689711" lon="03.736301"><ele>9</ele><time>2021-01-07T09:43:18Z</time><cmt>4.6 kmh</cmt></trkpt>
<trkpt lat="51.689702" lon="03.736314"><ele>9</ele><time>2021-01-07T09:43:19Z</time><cmt>4.6 kmh</cmt></trkpt>
<trkpt lat="51.689692" lon="03.736326"><ele>9</ele><time>2021-01-07T09:43:20Z</time><cmt>5.0 kmh</cmt></trkpt>
<trkpt lat="51.689679" lon="03.736345"><ele>9</ele><time>2021-01-07T09:43:21Z</time><cmt>5.0 kmh</cmt></trkpt>
<trkpt lat="51.689671" lon="03.736360"><ele>9</ele><time>2021-01-07T09:43:22Z</time><cmt>5.0 kmh</cmt></trkpt>
<trkpt lat="51.689665" lon="03.736375"><ele>9</ele><time>2021-01-07T09:43:23Z</time><cmt>5.0 kmh</cmt></trkpt>
<trkpt lat="51.689561" lon="03.736604"><ele>9</ele><time>2021-01-07T09:43:41Z</time><cmt>5.0 kmh</cmt></trkpt>
<trkpt lat="51.689543" lon="03.736676"><ele>8</ele><time>2021-01-07T09:43:45Z</time><cmt>5.0 kmh</cmt></trkpt>
<trkpt lat="51.689528" lon="03.736727"><ele>8</ele><time>2021-01-07T09:43:48Z</time><cmt>5.0 kmh</cmt></trkpt>
<trkpt lat="51.689509" lon="03.736773"><ele>7</ele><time>2021-01-07T09:43:51Z</time><cmt>4.2 kmh</cmt></trkpt>
<trkpt lat="51.689456" lon="03.736930"><ele>7</ele><time>2021-01-07T09:44:04Z</time><cmt>5.0 kmh</cmt></trkpt>
<trkpt lat="51.689421" lon="03.737004"><ele>7</ele><time>2021-01-07T09:44:09Z</time><cmt>5.0 kmh</cmt></trkpt>
<trkpt lat="51.689393" lon="03.737093"><ele>7</ele><time>2021-01-07T09:44:14Z</time><cmt>5.0 kmh</cmt></trkpt>
<trkpt lat="51.689369" lon="03.737144"><ele>7</ele><time>2021-01-07T09:44:17Z</time><cmt>5.0 kmh</cmt></trkpt>
<trkpt lat="51.689345" lon="03.737193"><ele>7</ele><time>2021-01-07T09:44:20Z</time><cmt>5.0 kmh</cmt></trkpt>
<trkpt lat="51.689314" lon="03.737256"><ele>7</ele><time>2021-01-07T09:44:22Z</time><cmt>5.0 kmh</cmt></trkpt>
<trkpt lat="51.689308" lon="03.737272"><ele>7</ele><time>2021-01-07T09:44:23Z</time><cmt>5.0 kmh</cmt></trkpt>
<trkpt lat="51.689303" lon="03.737295"><ele>4</ele><time>2021-01-07T09:44:24Z</time><cmt>5.0 kmh</cmt></trkpt>
<trkpt lat="51.689293" lon="03.737319"><ele>4</ele><time>2021-01-07T09:44:25Z</time><cmt>5.0 kmh</cmt></trkpt>
<trkpt lat="51.689285" lon="03.737340"><ele>4</ele><time>2021-01-07T09:44:26Z</time><cmt>5.0 kmh</cmt></trkpt>
<trkpt lat="51.689280" lon="03.737357"><ele>3</ele><time>2021-01-07T09:44:27Z</time><cmt>5.0 kmh</cmt></trkpt>
<trkpt lat="51.689274" lon="03.737376"><ele>3</ele><time>2021-01-07T09:44:28Z</time><cmt>4.2 kmh</cmt></trkpt>
<trkpt lat="51.689265" lon="03.737396"><ele>3</ele><time>2021-01-07T09:44:29Z</time><cmt>4.9 kmh</cmt></trkpt>
<trkpt lat="51.689261" lon="03.737413"><ele>3</ele><time>2021-01-07T09:44:30Z</time><cmt>5.0 kmh</cmt></trkpt>
<trkpt lat="51.689249" lon="03.737433"><ele>3</ele><time>2021-01-07T09:44:31Z</time><cmt>5.0 kmh</cmt></trkpt>
<trkpt lat="51.689241" lon="03.737451"><ele>3</ele><time>2021-01-07T09:44:32Z</time><cmt>5.0 kmh</cmt></trkpt>
<trkpt lat="51.689234" lon="03.737468"><ele>4</ele><time>2021-01-07T09:44:33Z</time><cmt>5.0 kmh</cmt></trkpt>
<trkpt lat="51.689229" lon="03.737480"><ele>4</ele><time>2021-01-07T09:44:34Z</time><cmt>3.8 kmh</cmt></trkpt>
<trkpt lat="51.689222" lon="03.737487"><ele>4</ele><time>2021-01-07T09:44:35Z</time><cmt>3.0 kmh</cmt></trkpt>
<trkpt lat="51.689215" lon="03.737495"><ele>4</ele><time>2021-01-07T09:44:36Z</time><cmt>3.5 kmh</cmt></trkpt>
<trkpt lat="51.689206" lon="03.737503"><ele>4</ele><time>2021-01-07T09:44:37Z</time><cmt>4.0 kmh</cmt></trkpt>
<trkpt lat="51.689199" lon="03.737511"><ele>5</ele><time>2021-01-07T09:44:38Z</time><cmt>4.2 kmh</cmt></trkpt>
<trkpt lat="51.689199" lon="03.737523"><ele>5</ele><time>2021-01-07T09:44:39Z</time><cmt>3.6 kmh</cmt></trkpt>
<trkpt lat="51.689205" lon="03.737533"><ele>5</ele><time>2021-01-07T09:44:40Z</time><cmt>2.8 kmh</cmt></trkpt>
<trkpt lat="51.689217" lon="03.737543"><ele>5</ele><time>2021-01-07T09:44:41Z</time><cmt>5.6 kmh</cmt></trkpt>
<trkpt lat="51.689231" lon="03.737552"><ele>5</ele><time>2021-01-07T09:44:42Z</time><cmt>6.3 kmh</cmt></trkpt>
<trkpt lat="51.689246" lon="03.737562"><ele>5</ele><time>2021-01-07T09:44:43Z</time><cmt>6.6 kmh</cmt></trkpt>
<trkpt lat="51.689259" lon="03.737572"><ele>6</ele><time>2021-01-07T09:44:44Z</time><cmt>5.0 kmh</cmt></trkpt>
<trkpt lat="51.689271" lon="03.737582"><ele>6</ele><time>2021-01-07T09:44:45Z</time><cmt>5.0 kmh</cmt></trkpt>
<trkpt lat="51.689281" lon="03.737591"><ele>6</ele><time>2021-01-07T09:44:46Z</time><cmt>5.0 kmh</cmt></trkpt>
<trkpt lat="51.689292" lon="03.737601"><ele>6</ele><time>2021-01-07T09:44:47Z</time><cmt>4.1 kmh</cmt></trkpt>
<trkpt lat="51.689302" lon="03.737612"><ele>6</ele><time>2021-01-07T09:44:48Z</time><cmt>5.0 kmh</cmt></trkpt>
<trkpt lat="51.689310" lon="03.737623"><ele>6</ele><time>2021-01-07T09:44:49Z</time><cmt>5.0 kmh</cmt></trkpt>
<trkpt lat="51.689320" lon="03.737633"><ele>6</ele><time>2021-01-07T09:44:50Z</time><cmt>6.3 kmh</cmt></trkpt>
<trkpt lat="51.689328" lon="03.737645"><ele>6</ele><time>2021-01-07T09:44:51Z</time><cmt>5.5 kmh</cmt></trkpt>
<trkpt lat="51.689336" lon="03.737655"><ele>6</ele><time>2021-01-07T09:44:52Z</time><cmt>5.5 kmh</cmt></trkpt>
<trkpt lat="51.689344" lon="03.737666"><ele>6</ele><time>2021-01-07T09:44:53Z</time><cmt>4.5 kmh</cmt></trkpt>
<trkpt lat="51.689352" lon="03.737678"><ele>6</ele><time>2021-01-07T09:44:54Z</time><cmt>3.7 kmh</cmt></trkpt>
<trkpt lat="51.689358" lon="03.737692"><ele>6</ele><time>2021-01-07T09:44:55Z</time><cmt>3.7 kmh</cmt></trkpt>
<trkpt lat="51.689365" lon="03.737705"><ele>6</ele><time>2021-01-07T09:44:56Z</time><cmt>4.6 kmh</cmt></trkpt>
<trkpt lat="51.689373" lon="03.737718"><ele>6</ele><time>2021-01-07T09:44:57Z</time><cmt>4.8 kmh</cmt></trkpt>
<trkpt lat="51.689382" lon="03.737730"><ele>6</ele><time>2021-01-07T09:44:58Z</time><cmt>5.0 kmh</cmt></trkpt>
<trkpt lat="51.689409" lon="03.737758"><ele>6</ele><time>2021-01-07T09:45:01Z</time><cmt>3.9 kmh</cmt></trkpt>
<trkpt lat="51.689441" lon="03.737792"><ele>5</ele><time>2021-01-07T09:45:04Z</time><cmt>5.1 kmh</cmt></trkpt>
<trkpt lat="51.689470" lon="03.737827"><ele>5</ele><time>2021-01-07T09:45:07Z</time><cmt>4.5 kmh</cmt></trkpt>
<trkpt lat="51.689501" lon="03.737862"><ele>4</ele><time>2021-01-07T09:45:10Z</time><cmt>5.0 kmh</cmt></trkpt>
<trkpt lat="51.689544" lon="03.737909"><ele>3</ele><time>2021-01-07T09:45:16Z</time><cmt>5.0 kmh</cmt></trkpt>
<trkpt lat="51.689571" lon="03.737939"><ele>2</ele><time>2021-01-07T09:45:20Z</time><cmt>3.1 kmh</cmt></trkpt>
<trkpt lat="51.689603" lon="03.737969"><ele>2</ele><time>2021-01-07T09:45:24Z</time><cmt>4.0 kmh</cmt></trkpt>
<trkpt lat="51.689637" lon="03.738004"><ele>2</ele><time>2021-01-07T09:45:29Z</time><cmt>5.0 kmh</cmt></trkpt>
<trkpt lat="51.689653" lon="03.738048"><ele>2</ele><time>2021-01-07T09:45:33Z</time><cmt>3.0 kmh</cmt></trkpt>
<trkpt lat="51.689672" lon="03.738110"><ele>2</ele><time>2021-01-07T09:45:37Z</time><cmt>4.6 kmh</cmt></trkpt>
<trkpt lat="51.689694" lon="03.738162"><ele>2</ele><time>2021-01-07T09:45:40Z</time><cmt>4.8 kmh</cmt></trkpt>
<trkpt lat="51.689713" lon="03.738207"><ele>2</ele><time>2021-01-07T09:45:43Z</time><cmt>4.8 kmh</cmt></trkpt>
<trkpt lat="51.689734" lon="03.738248"><ele>2</ele><time>2021-01-07T09:45:46Z</time><cmt>4.1 kmh</cmt></trkpt>
<trkpt lat="51.689761" lon="03.738286"><ele>2</ele><time>2021-01-07T09:45:49Z</time><cmt>5.0 kmh</cmt></trkpt>
<trkpt lat="51.689793" lon="03.738325"><ele>2</ele><time>2021-01-07T09:45:52Z</time><cmt>5.0 kmh</cmt></trkpt>
<trkpt lat="51.689819" lon="03.738353"><ele>2</ele><time>2021-01-07T09:45:54Z</time><cmt>5.0 kmh</cmt></trkpt>
<trkpt lat="51.689845" lon="03.738382"><ele>2</ele><time>2021-01-07T09:45:56Z</time><cmt>5.0 kmh</cmt></trkpt>
<trkpt lat="51.689866" lon="03.738414"><ele>2</ele><time>2021-01-07T09:45:58Z</time><cmt>5.0 kmh</cmt></trkpt>
<trkpt lat="51.689889" lon="03.738447"><ele>2</ele><time>2021-01-07T09:46:00Z</time><cmt>5.0 kmh</cmt></trkpt>
<trkpt lat="51.689911" lon="03.738480"><ele>2</ele><time>2021-01-07T09:46:02Z</time><cmt>5.0 kmh</cmt></trkpt>
<trkpt lat="51.689948" lon="03.738537"><ele>1</ele><time>2021-01-07T09:46:06Z</time><cmt>5.0 kmh</cmt></trkpt>
<trkpt lat="51.689975" lon="03.738601"><ele>1</ele><time>2021-01-07T09:46:10Z</time><cmt>5.0 kmh</cmt></trkpt>
<trkpt lat="51.690000" lon="03.738650"><ele>1</ele><time>2021-01-07T09:46:14Z</time><cmt>4.3 kmh</cmt></trkpt>
<trkpt lat="51.690021" lon="03.738719"><ele>1</ele><time>2021-01-07T09:46:19Z</time><cmt>5.0 kmh</cmt></trkpt>
<trkpt lat="51.690043" lon="03.738763"><ele>1</ele><time>2021-01-07T09:46:22Z</time><cmt>5.0 kmh</cmt></trkpt>
<trkpt lat="51.690067" lon="03.738802"><ele>1</ele><time>2021-01-07T09:46:25Z</time><cmt>4.2 kmh</cmt></trkpt>
<trkpt lat="51.690088" lon="03.738870"><ele>1</ele><time>2021-01-07T09:46:29Z</time><cmt>5.0 kmh</cmt></trkpt>
<trkpt lat="51.690103" lon="03.738922"><ele>1</ele><time>2021-01-07T09:46:32Z</time><cmt>5.0 kmh</cmt></trkpt>
<trkpt lat="51.690121" lon="03.738974"><ele>1</ele><time>2021-01-07T09:46:35Z</time><cmt>4.5 kmh</cmt></trkpt>
<trkpt lat="51.690139" lon="03.739029"><ele>1</ele><time>2021-01-07T09:46:38Z</time><cmt>5.0 kmh</cmt></trkpt>
<trkpt lat="51.690159" lon="03.739086"><ele>1</ele><time>2021-01-07T09:46:41Z</time><cmt>5.0 kmh</cmt></trkpt>
<trkpt lat="51.690178" lon="03.739157"><ele>1</ele><time>2021-01-07T09:46:45Z</time><cmt>5.0 kmh</cmt></trkpt>
<trkpt lat="51.690197" lon="03.739217"><ele>1</ele><time>2021-01-07T09:46:49Z</time><cmt>4.0 kmh</cmt></trkpt>
<trkpt lat="51.690220" lon="03.739288"><ele>1</ele><time>2021-01-07T09:46:53Z</time><cmt>5.0 kmh</cmt></trkpt>
<trkpt lat="51.690236" lon="03.739343"><ele>1</ele><time>2021-01-07T09:46:56Z</time><cmt>4.6 kmh</cmt></trkpt>
<trkpt lat="51.690244" lon="03.739403"><ele>1</ele><time>2021-01-07T09:46:59Z</time><cmt>5.0 kmh</cmt></trkpt>
<trkpt lat="51.690248" lon="03.739463"><ele>1</ele><time>2021-01-07T09:47:02Z</time><cmt>4.5 kmh</cmt></trkpt>
<trkpt lat="51.690246" lon="03.739536"><ele>1</ele><time>2021-01-07T09:47:06Z</time><cmt>4.4 kmh</cmt></trkpt>
<trkpt lat="51.690234" lon="03.739600"><ele>1</ele><time>2021-01-07T09:47:09Z</time><cmt>5.0 kmh</cmt></trkpt>
<trkpt lat="51.690215" lon="03.739667"><ele>1</ele><time>2021-01-07T09:47:12Z</time><cmt>5.0 kmh</cmt></trkpt>
<trkpt lat="51.690196" lon="03.739721"><ele>1</ele><time>2021-01-07T09:47:14Z</time><cmt>5.0 kmh</cmt></trkpt>
<trkpt lat="51.690179" lon="03.739769"><ele>1</ele><time>2021-01-07T09:47:16Z</time><cmt>5.0 kmh</cmt></trkpt>
<trkpt lat="51.690161" lon="03.739829"><ele>1</ele><time>2021-01-07T09:47:19Z</time><cmt>5.0 kmh</cmt></trkpt>
<trkpt lat="51.690147" lon="03.739880"><ele>1</ele><time>2021-01-07T09:47:22Z</time><cmt>5.0 kmh</cmt></trkpt>
<trkpt lat="51.690131" lon="03.739940"><ele>0</ele><time>2021-01-07T09:47:25Z</time><cmt>5.0 kmh</cmt></trkpt>
<trkpt lat="51.690116" lon="03.739984"><ele>1</ele><time>2021-01-07T09:47:27Z</time><cmt>5.0 kmh</cmt></trkpt>
<trkpt lat="51.690097" lon="03.740048"><ele>1</ele><time>2021-01-07T09:47:30Z</time><cmt>5.0 kmh</cmt></trkpt>
<trkpt lat="51.690083" lon="03.740096"><ele>1</ele><time>2021-01-07T09:47:32Z</time><cmt>5.0 kmh</cmt></trkpt>
<trkpt lat="51.690060" lon="03.740148"><ele>2</ele><time>2021-01-07T09:47:34Z</time><cmt>5.0 kmh</cmt></trkpt>
<trkpt lat="51.690044" lon="03.740204"><ele>3</ele><time>2021-01-07T09:47:37Z</time><cmt>5.0 kmh</cmt></trkpt>
<trkpt lat="51.690027" lon="03.740268"><ele>3</ele><time>2021-01-07T09:47:40Z</time><cmt>5.9 kmh</cmt></trkpt>
<trkpt lat="51.690016" lon="03.740316"><ele>3</ele><time>2021-01-07T09:47:43Z</time><cmt>4.6 kmh</cmt></trkpt>
<trkpt lat="51.690005" lon="03.740373"><ele>3</ele><time>2021-01-07T09:47:47Z</time><cmt>5.0 kmh</cmt></trkpt>
<trkpt lat="51.689983" lon="03.740450"><ele>3</ele><time>2021-01-07T09:47:51Z</time><cmt>5.0 kmh</cmt></trkpt>
<trkpt lat="51.689979" lon="03.740463"><ele>3</ele><time>2021-01-07T09:47:52Z</time><cmt>5.0 kmh</cmt></trkpt>
<trkpt lat="51.689974" lon="03.740479"><ele>3</ele><time>2021-01-07T09:47:53Z</time><cmt>3.4 kmh</cmt></trkpt>
<trkpt lat="51.689966" lon="03.740500"><ele>2</ele><time>2021-01-07T09:47:54Z</time><cmt>5.0 kmh</cmt></trkpt>
<trkpt lat="51.689960" lon="03.740519"><ele>2</ele><time>2021-01-07T09:47:55Z</time><cmt>5.0 kmh</cmt></trkpt>
<trkpt lat="51.689953" lon="03.740539"><ele>2</ele><time>2021-01-07T09:47:56Z</time><cmt>5.0 kmh</cmt></trkpt>
<trkpt lat="51.689948" lon="03.740557"><ele>2</ele><time>2021-01-07T09:47:57Z</time><cmt>4.5 kmh</cmt></trkpt>
<trkpt lat="51.689941" lon="03.740577"><ele>2</ele><time>2021-01-07T09:47:58Z</time><cmt>4.7 kmh</cmt></trkpt>
<trkpt lat="51.689936" lon="03.740594"><ele>2</ele><time>2021-01-07T09:47:59Z</time><cmt>5.0 kmh</cmt></trkpt>
<trkpt lat="51.689930" lon="03.740613"><ele>2</ele><time>2021-01-07T09:48:00Z</time><cmt>5.0 kmh</cmt></trkpt>
<trkpt lat="51.689920" lon="03.740635"><ele>2</ele><time>2021-01-07T09:48:01Z</time><cmt>5.0 kmh</cmt></trkpt>
<trkpt lat="51.689913" lon="03.740655"><ele>2</ele><time>2021-01-07T09:48:02Z</time><cmt>5.0 kmh</cmt></trkpt>
<trkpt lat="51.689906" lon="03.740676"><ele>2</ele><time>2021-01-07T09:48:04Z</time><cmt>5.0 kmh</cmt></trkpt>
<trkpt lat="51.689901" lon="03.740695"><ele>2</ele><time>2021-01-07T09:48:04Z</time><cmt>5.0 kmh</cmt></trkpt>
<trkpt lat="51.689900" lon="03.740708"><ele>2</ele><time>2021-01-07T09:48:05Z</time><cmt>4.5 kmh</cmt></trkpt>
<trkpt lat="51.689901" lon="03.740719"><ele>2</ele><time>2021-01-07T09:48:06Z</time><cmt>2.6 kmh</cmt></trkpt>
<trkpt lat="51.689899" lon="03.740733"><ele>2</ele><time>2021-01-07T09:48:07Z</time><cmt>3.3 kmh</cmt></trkpt>
<trkpt lat="51.689898" lon="03.740747"><ele>2</ele><time>2021-01-07T09:48:08Z</time><cmt>3.7 kmh</cmt></trkpt>
<trkpt lat="51.689897" lon="03.740762"><ele>2</ele><time>2021-01-07T09:48:09Z</time><cmt>3.9 kmh</cmt></trkpt>
<trkpt lat="51.689893" lon="03.740781"><ele>2</ele><time>2021-01-07T09:48:10Z</time><cmt>3.8 kmh</cmt></trkpt>
<trkpt lat="51.689886" lon="03.740803"><ele>2</ele><time>2021-01-07T09:48:11Z</time><cmt>4.8 kmh</cmt></trkpt>
<trkpt lat="51.689878" lon="03.740823"><ele>2</ele><time>2021-01-07T09:48:12Z</time><cmt>5.0 kmh</cmt></trkpt>
<trkpt lat="51.689871" lon="03.740839"><ele>2</ele><time>2021-01-07T09:48:13Z</time><cmt>5.0 kmh</cmt></trkpt>
<trkpt lat="51.689866" lon="03.740857"><ele>2</ele><time>2021-01-07T09:48:14Z</time><cmt>5.0 kmh</cmt></trkpt>
<trkpt lat="51.689860" lon="03.740872"><ele>1</ele><time>2021-01-07T09:48:15Z</time><cmt>4.9 kmh</cmt></trkpt>
<trkpt lat="51.689853" lon="03.740889"><ele>1</ele><time>2021-01-07T09:48:16Z</time><cmt>4.1 kmh</cmt></trkpt>
<trkpt lat="51.689844" lon="03.740904"><ele>1</ele><time>2021-01-07T09:48:17Z</time><cmt>5.0 kmh</cmt></trkpt>
<trkpt lat="51.689837" lon="03.740916"><ele>1</ele><time>2021-01-07T09:48:18Z</time><cmt>5.0 kmh</cmt></trkpt>
<trkpt lat="51.689829" lon="03.740928"><ele>1</ele><time>2021-01-07T09:48:19Z</time><cmt>3.6 kmh</cmt></trkpt>
<trkpt lat="51.689821" lon="03.740939"><ele>1</ele><time>2021-01-07T09:48:20Z</time><cmt>4.7 kmh</cmt></trkpt>
<trkpt lat="51.689811" lon="03.740951"><ele>1</ele><time>2021-01-07T09:48:21Z</time><cmt>5.0 kmh</cmt></trkpt>
<trkpt lat="51.689799" lon="03.740962"><ele>1</ele><time>2021-01-07T09:48:22Z</time><cmt>5.1 kmh</cmt></trkpt>
<trkpt lat="51.689788" lon="03.740973"><ele>1</ele><time>2021-01-07T09:48:23Z</time><cmt>5.1 kmh</cmt></trkpt>
<trkpt lat="51.689776" lon="03.740984"><ele>1</ele><time>2021-01-07T09:48:24Z</time><cmt>5.1 kmh</cmt></trkpt>
<trkpt lat="51.689767" lon="03.740993"><ele>1</ele><time>2021-01-07T09:48:25Z</time><cmt>4.1 kmh</cmt></trkpt>
<trkpt lat="51.689759" lon="03.741001"><ele>1</ele><time>2021-01-07T09:48:26Z</time><cmt>4.4 kmh</cmt></trkpt>
<trkpt lat="51.689747" lon="03.741014"><ele>1</ele><time>2021-01-07T09:48:27Z</time><cmt>5.0 kmh</cmt></trkpt>
<trkpt lat="51.689736" lon="03.741025"><ele>1</ele><time>2021-01-07T09:48:28Z</time><cmt>5.0 kmh</cmt></trkpt>
<trkpt lat="51.689720" lon="03.741040"><ele>1</ele><time>2021-01-07T09:48:29Z</time><cmt>5.1 kmh</cmt></trkpt>
<trkpt lat="51.689705" lon="03.741053"><ele>1</ele><time>2021-01-07T09:48:30Z</time><cmt>5.1 kmh</cmt></trkpt>
<trkpt lat="51.689691" lon="03.741064"><ele>1</ele><time>2021-01-07T09:48:31Z</time><cmt>5.0 kmh</cmt></trkpt>
<trkpt lat="51.689677" lon="03.741077"><ele>1</ele><time>2021-01-07T09:48:32Z</time><cmt>5.0 kmh</cmt></trkpt>
<trkpt lat="51.689666" lon="03.741088"><ele>1</ele><time>2021-01-07T09:48:33Z</time><cmt>5.0 kmh</cmt></trkpt>
<trkpt lat="51.689656" lon="03.741097"><ele>1</ele><time>2021-01-07T09:48:34Z</time><cmt>5.0 kmh</cmt></trkpt>
<trkpt lat="51.689645" lon="03.741106"><ele>1</ele><time>2021-01-07T09:48:35Z</time><cmt>4.0 kmh</cmt></trkpt>
<trkpt lat="51.689638" lon="03.741113"><ele>0</ele><time>2021-01-07T09:48:36Z</time><cmt>4.4 kmh</cmt></trkpt>
<trkpt lat="51.689631" lon="03.741120"><ele>0</ele><time>2021-01-07T09:48:37Z</time><cmt>3.5 kmh</cmt></trkpt>
<trkpt lat="51.689625" lon="03.741126"><ele>0</ele><time>2021-01-07T09:48:38Z</time><cmt>2.6 kmh</cmt></trkpt>
<trkpt lat="51.689619" lon="03.741132"><ele>0</ele><time>2021-01-07T09:48:39Z</time><cmt>3.1 kmh</cmt></trkpt>
<trkpt lat="51.689614" lon="03.741136"><ele>0</ele><time>2021-01-07T09:48:40Z</time><cmt>2.7 kmh</cmt></trkpt>
<trkpt lat="51.689610" lon="03.741140"><ele>0</ele><time>2021-01-07T09:48:41Z</time><cmt>2.3 kmh</cmt></trkpt>
<trkpt lat="51.689604" lon="03.741146"><ele>0</ele><time>2021-01-07T09:48:42Z</time><cmt>2.0 kmh</cmt></trkpt>
<trkpt lat="51.689597" lon="03.741157"><ele>0</ele><time>2021-01-07T09:48:43Z</time><cmt>2.9 kmh</cmt></trkpt>
<trkpt lat="51.689593" lon="03.741161"><ele>0</ele><time>2021-01-07T09:48:44Z</time><cmt>3.0 kmh</cmt></trkpt>
<trkpt lat="51.689575" lon="03.741153"><ele>0</ele><time>2021-01-07T09:48:47Z</time><cmt>6.2 kmh</cmt></trkpt>
<trkpt lat="51.689555" lon="03.741137"><ele>0</ele><time>2021-01-07T09:48:48Z</time><cmt>5.5 kmh</cmt></trkpt>
<trkpt lat="51.689532" lon="03.741118"><ele>0</ele><time>2021-01-07T09:48:49Z</time><cmt>5.3 kmh</cmt></trkpt></trkseg>
<trkseg>
<trkpt lat="51.689532" lon="03.741118"><ele>0</ele><time>2021-01-07T09:49:10Z</time><cmt>5.3 kmh</cmt></trkpt>
<trkpt lat="51.689407" lon="03.741295"><ele>0</ele><time>2021-01-07T09:49:14Z</time><cmt>5.0 kmh</cmt></trkpt>
<trkpt lat="51.689332" lon="03.741394"><ele>0</ele><time>2021-01-07T09:49:16Z</time><cmt>5.0 kmh</cmt></trkpt>
<trkpt lat="51.689268" lon="03.741473"><ele>0</ele><time>2021-01-07T09:49:19Z</time><cmt>5.0 kmh</cmt></trkpt>
<trkpt lat="51.689226" lon="03.741517"><ele>0</ele><time>2021-01-07T09:49:22Z</time><cmt>5.0 kmh</cmt></trkpt>
<trkpt lat="51.689187" lon="03.741569"><ele>0</ele><time>2021-01-07T09:49:26Z</time><cmt>4.8 kmh</cmt></trkpt>
<trkpt lat="51.689155" lon="03.741608"><ele>0</ele><time>2021-01-07T09:49:30Z</time><cmt>4.3 kmh</cmt></trkpt>
<trkpt lat="51.689131" lon="03.741639"><ele>0</ele><time>2021-01-07T09:49:34Z</time><cmt>3.0 kmh</cmt></trkpt>
<trkpt lat="51.689113" lon="03.741682"><ele>0</ele><time>2021-01-07T09:49:37Z</time><cmt>4.6 kmh</cmt></trkpt>
<trkpt lat="51.689093" lon="03.741739"><ele>0</ele><time>2021-01-07T09:49:40Z</time><cmt>5.0 kmh</cmt></trkpt>
<trkpt lat="51.689079" lon="03.741801"><ele>0</ele><time>2021-01-07T09:49:43Z</time><cmt>5.1 kmh</cmt></trkpt>
<trkpt lat="51.689079" lon="03.741865"><ele>0</ele><time>2021-01-07T09:49:47Z</time><cmt>3.8 kmh</cmt></trkpt>
<trkpt lat="51.689091" lon="03.741917"><ele>0</ele><time>2021-01-07T09:49:50Z</time><cmt>5.1 kmh</cmt></trkpt>
<trkpt lat="51.689101" lon="03.741969"><ele>0</ele><time>2021-01-07T09:49:53Z</time><cmt>4.2 kmh</cmt></trkpt>
<trkpt lat="51.689115" lon="03.742020"><ele>0</ele><time>2021-01-07T09:49:56Z</time><cmt>4.9 kmh</cmt></trkpt>
<trkpt lat="51.689136" lon="03.742065"><ele>0</ele><time>2021-01-07T09:49:59Z</time><cmt>4.4 kmh</cmt></trkpt>
<trkpt lat="51.689154" lon="03.742120"><ele>0</ele><time>2021-01-07T09:50:02Z</time><cmt>5.0 kmh</cmt></trkpt>
<trkpt lat="51.689173" lon="03.742172"><ele>0</ele><time>2021-01-07T09:50:05Z</time><cmt>4.7 kmh</cmt></trkpt>
<trkpt lat="51.689199" lon="03.742212"><ele>0</ele><time>2021-01-07T09:50:08Z</time><cmt>5.0 kmh</cmt></trkpt>
<trkpt lat="51.689227" lon="03.742240"><ele>0</ele><time>2021-01-07T09:50:11Z</time><cmt>4.0 kmh</cmt></trkpt>
<trkpt lat="51.689252" lon="03.742251"><ele>0</ele><time>2021-01-07T09:50:13Z</time><cmt>5.0 kmh</cmt></trkpt>
<trkpt lat="51.689286" lon="03.742255"><ele>0</ele><time>2021-01-07T09:50:16Z</time><cmt>4.8 kmh</cmt></trkpt>
<trkpt lat="51.689320" lon="03.742245"><ele>0</ele><time>2021-01-07T09:50:19Z</time><cmt>4.3 kmh</cmt></trkpt>
<trkpt lat="51.689343" lon="03.742232"><ele>0</ele><time>2021-01-07T09:50:21Z</time><cmt>5.0 kmh</cmt></trkpt>
<trkpt lat="51.689366" lon="03.742216"><ele>0</ele><time>2021-01-07T09:50:23Z</time><cmt>5.0 kmh</cmt></trkpt>
<trkpt lat="51.689399" lon="03.742191"><ele>0</ele><time>2021-01-07T09:50:26Z</time><cmt>4.5 kmh</cmt></trkpt>
<trkpt lat="51.689428" lon="03.742154"><ele>0</ele><time>2021-01-07T09:50:29Z</time><cmt>5.0 kmh</cmt></trkpt>
<trkpt lat="51.689456" lon="03.742109"><ele>0</ele><time>2021-01-07T09:50:33Z</time><cmt>5.0 kmh</cmt></trkpt>
<trkpt lat="51.689537" lon="03.742036"><ele>0</ele><time>2021-01-07T09:50:52Z</time><cmt>5.0 kmh</cmt></trkpt>
<trkpt lat="51.689558" lon="03.742017"><ele>0</ele><time>2021-01-07T09:50:55Z</time><cmt>3.5 kmh</cmt></trkpt>
<trkpt lat="51.689579" lon="03.742001"><ele>0</ele><time>2021-01-07T09:50:57Z</time><cmt>4.0 kmh</cmt></trkpt>
<trkpt lat="51.689600" lon="03.741972"><ele>0</ele><time>2021-01-07T09:51:00Z</time><cmt>3.9 kmh</cmt></trkpt>
<trkpt lat="51.689606" lon="03.741924"><ele>0</ele><time>2021-01-07T09:51:03Z</time><cmt>3.8 kmh</cmt></trkpt>
<trkpt lat="51.689598" lon="03.741873"><ele>0</ele><time>2021-01-07T09:51:06Z</time><cmt>4.6 kmh</cmt></trkpt>
<trkpt lat="51.689579" lon="03.741826"><ele>0</ele><time>2021-01-07T09:51:09Z</time><cmt>4.3 kmh</cmt></trkpt>
<trkpt lat="51.689560" lon="03.741777"><ele>0</ele><time>2021-01-07T09:51:12Z</time><cmt>5.0 kmh</cmt></trkpt>
<trkpt lat="51.689541" lon="03.741727"><ele>0</ele><time>2021-01-07T09:51:15Z</time><cmt>5.0 kmh</cmt></trkpt>
<trkpt lat="51.689521" lon="03.741680"><ele>0</ele><time>2021-01-07T09:51:18Z</time><cmt>5.0 kmh</cmt></trkpt>
<trkpt lat="51.689500" lon="03.741634"><ele>0</ele><time>2021-01-07T09:51:21Z</time><cmt>5.0 kmh</cmt></trkpt>
<trkpt lat="51.689479" lon="03.741586"><ele>0</ele><time>2021-01-07T09:51:24Z</time><cmt>4.5 kmh</cmt></trkpt>
<trkpt lat="51.689462" lon="03.741551"><ele>0</ele><time>2021-01-07T09:51:26Z</time><cmt>5.1 kmh</cmt></trkpt>
<trkpt lat="51.689447" lon="03.741517"><ele>0</ele><time>2021-01-07T09:51:28Z</time><cmt>4.5 kmh</cmt></trkpt>
<trkpt lat="51.689432" lon="03.741485"><ele>0</ele><time>2021-01-07T09:51:30Z</time><cmt>5.0 kmh</cmt></trkpt>
<trkpt lat="51.689419" lon="03.741454"><ele>0</ele><time>2021-01-07T09:51:32Z</time><cmt>5.0 kmh</cmt></trkpt>
<trkpt lat="51.689405" lon="03.741423"><ele>0</ele><time>2021-01-07T09:51:34Z</time><cmt>4.5 kmh</cmt></trkpt>
<trkpt lat="51.689388" lon="03.741378"><ele>0</ele><time>2021-01-07T09:51:37Z</time><cmt>4.7 kmh</cmt></trkpt>
<trkpt lat="51.689370" lon="03.741332"><ele>0</ele><time>2021-01-07T09:51:40Z</time><cmt>4.2 kmh</cmt></trkpt>
<trkpt lat="51.689351" lon="03.741287"><ele>0</ele><time>2021-01-07T09:51:43Z</time><cmt>4.8 kmh</cmt></trkpt>
<trkpt lat="51.689334" lon="03.741242"><ele>0</ele><time>2021-01-07T09:51:46Z</time><cmt>4.7 kmh</cmt></trkpt>
<trkpt lat="51.689320" lon="03.741210"><ele>0</ele><time>2021-01-07T09:51:48Z</time><cmt>4.2 kmh</cmt></trkpt>
<trkpt lat="51.689305" lon="03.741182"><ele>0</ele><time>2021-01-07T09:51:49Z</time><cmt>5.0 kmh</cmt></trkpt>
<trkpt lat="51.689297" lon="03.741167"><ele>0</ele><time>2021-01-07T09:51:50Z</time><cmt>5.0 kmh</cmt></trkpt>
<trkpt lat="51.689289" lon="03.741153"><ele>0</ele><time>2021-01-07T09:51:51Z</time><cmt>5.0 kmh</cmt></trkpt>
<trkpt lat="51.689280" lon="03.741139"><ele>0</ele><time>2021-01-07T09:51:52Z</time><cmt>5.0 kmh</cmt></trkpt>
<trkpt lat="51.689272" lon="03.741126"><ele>0</ele><time>2021-01-07T09:51:53Z</time><cmt>4.1 kmh</cmt></trkpt>
<trkpt lat="51.689263" lon="03.741111"><ele>0</ele><time>2021-01-07T09:51:54Z</time><cmt>4.3 kmh</cmt></trkpt>
<trkpt lat="51.689253" lon="03.741096"><ele>0</ele><time>2021-01-07T09:51:55Z</time><cmt>5.0 kmh</cmt></trkpt>
<trkpt lat="51.689244" lon="03.741080"><ele>0</ele><time>2021-01-07T09:51:56Z</time><cmt>5.0 kmh</cmt></trkpt>
<trkpt lat="51.689235" lon="03.741063"><ele>0</ele><time>2021-01-07T09:51:57Z</time><cmt>5.0 kmh</cmt></trkpt>
<trkpt lat="51.689225" lon="03.741047"><ele>0</ele><time>2021-01-07T09:51:58Z</time><cmt>5.0 kmh</cmt></trkpt>
<trkpt lat="51.689217" lon="03.741032"><ele>0</ele><time>2021-01-07T09:51:59Z</time><cmt>4.5 kmh</cmt></trkpt>
<trkpt lat="51.689210" lon="03.741019"><ele>0</ele><time>2021-01-07T09:52:00Z</time><cmt>4.0 kmh</cmt></trkpt>
<trkpt lat="51.689204" lon="03.741006"><ele>0</ele><time>2021-01-07T09:52:01Z</time><cmt>4.5 kmh</cmt></trkpt>
<trkpt lat="51.689197" lon="03.740994"><ele>0</ele><time>2021-01-07T09:52:02Z</time><cmt>4.4 kmh</cmt></trkpt>
<trkpt lat="51.689188" lon="03.740980"><ele>0</ele><time>2021-01-07T09:52:03Z</time><cmt>4.9 kmh</cmt></trkpt>
<trkpt lat="51.689180" lon="03.740966"><ele>0</ele><time>2021-01-07T09:52:04Z</time><cmt>5.0 kmh</cmt></trkpt>
<trkpt lat="51.689172" lon="03.740953"><ele>0</ele><time>2021-01-07T09:52:05Z</time><cmt>4.0 kmh</cmt></trkpt>
<trkpt lat="51.689164" lon="03.740940"><ele>0</ele><time>2021-01-07T09:52:06Z</time><cmt>3.9 kmh</cmt></trkpt>
<trkpt lat="51.689155" lon="03.740925"><ele>0</ele><time>2021-01-07T09:52:07Z</time><cmt>5.0 kmh</cmt></trkpt>
<trkpt lat="51.689134" lon="03.740886"><ele>0</ele><time>2021-01-07T09:52:10Z</time><cmt>4.6 kmh</cmt></trkpt>
<trkpt lat="51.689110" lon="03.740835"><ele>1</ele><time>2021-01-07T09:52:13Z</time><cmt>4.8 kmh</cmt></trkpt>
<trkpt lat="51.689087" lon="03.740793"><ele>1</ele><time>2021-01-07T09:52:16Z</time><cmt>5.0 kmh</cmt></trkpt>
<trkpt lat="51.689062" lon="03.740744"><ele>1</ele><time>2021-01-07T09:52:19Z</time><cmt>5.1 kmh</cmt></trkpt>
<trkpt lat="51.689042" lon="03.740708"><ele>1</ele><time>2021-01-07T09:52:21Z</time><cmt>5.1 kmh</cmt></trkpt>
<trkpt lat="51.689018" lon="03.740665"><ele>1</ele><time>2021-01-07T09:52:23Z</time><cmt>5.0 kmh</cmt></trkpt>
<trkpt lat="51.688992" lon="03.740620"><ele>2</ele><time>2021-01-07T09:52:25Z</time><cmt>5.9 kmh</cmt></trkpt>
<trkpt lat="51.688970" lon="03.740572"><ele>2</ele><time>2021-01-07T09:52:28Z</time><cmt>5.0 kmh</cmt></trkpt>
<trkpt lat="51.688947" lon="03.740519"><ele>2</ele><time>2021-01-07T09:52:31Z</time><cmt>4.9 kmh</cmt></trkpt>
<trkpt lat="51.688926" lon="03.740472"><ele>2</ele><time>2021-01-07T09:52:34Z</time><cmt>5.0 kmh</cmt></trkpt>
<trkpt lat="51.688907" lon="03.740425"><ele>2</ele><time>2021-01-07T09:52:37Z</time><cmt>4.3 kmh</cmt></trkpt>
<trkpt lat="51.688891" lon="03.740389"><ele>3</ele><time>2021-01-07T09:52:39Z</time><cmt>5.0 kmh</cmt></trkpt>
<trkpt lat="51.688877" lon="03.740355"><ele>3</ele><time>2021-01-07T09:52:41Z</time><cmt>5.0 kmh</cmt></trkpt>
<trkpt lat="51.688863" lon="03.740321"><ele>3</ele><time>2021-01-07T09:52:43Z</time><cmt>4.8 kmh</cmt></trkpt>
<trkpt lat="51.688849" lon="03.740285"><ele>3</ele><time>2021-01-07T09:52:45Z</time><cmt>4.9 kmh</cmt></trkpt>
<trkpt lat="51.688836" lon="03.740250"><ele>3</ele><time>2021-01-07T09:52:47Z</time><cmt>5.0 kmh</cmt></trkpt>
<trkpt lat="51.688817" lon="03.740206"><ele>3</ele><time>2021-01-07T09:52:50Z</time><cmt>4.1 kmh</cmt></trkpt>
<trkpt lat="51.688797" lon="03.740160"><ele>2</ele><time>2021-01-07T09:52:53Z</time><cmt>5.0 kmh</cmt></trkpt>
<trkpt lat="51.688777" lon="03.740117"><ele>2</ele><time>2021-01-07T09:52:56Z</time><cmt>4.1 kmh</cmt></trkpt>
<trkpt lat="51.688757" lon="03.740073"><ele>2</ele><time>2021-01-07T09:52:59Z</time><cmt>4.9 kmh</cmt></trkpt>
<trkpt lat="51.688738" lon="03.740029"><ele>2</ele><time>2021-01-07T09:53:02Z</time><cmt>4.8 kmh</cmt></trkpt>
<trkpt lat="51.688717" lon="03.739974"><ele>2</ele><time>2021-01-07T09:53:05Z</time><cmt>4.9 kmh</cmt></trkpt>
<trkpt lat="51.688697" lon="03.739920"><ele>1</ele><time>2021-01-07T09:53:08Z</time><cmt>5.0 kmh</cmt></trkpt>
<trkpt lat="51.688676" lon="03.739870"><ele>1</ele><time>2021-01-07T09:53:11Z</time><cmt>4.6 kmh</cmt></trkpt>
<trkpt lat="51.688652" lon="03.739817"><ele>1</ele><time>2021-01-07T09:53:14Z</time><cmt>5.0 kmh</cmt></trkpt>
<trkpt lat="51.688632" lon="03.739770"><ele>0</ele><time>2021-01-07T09:53:17Z</time><cmt>4.4 kmh</cmt></trkpt>
<trkpt lat="51.688609" lon="03.739720"><ele>0</ele><time>2021-01-07T09:53:20Z</time><cmt>5.0 kmh</cmt></trkpt>
<trkpt lat="51.688586" lon="03.739674"><ele>0</ele><time>2021-01-07T09:53:23Z</time><cmt>4.5 kmh</cmt></trkpt>
<trkpt lat="51.688569" lon="03.739636"><ele>0</ele><time>2021-01-07T09:53:25Z</time><cmt>5.0 kmh</cmt></trkpt>
<trkpt lat="51.688552" lon="03.739596"><ele>0</ele><time>2021-01-07T09:53:27Z</time><cmt>5.0 kmh</cmt></trkpt>
<trkpt lat="51.688530" lon="03.739546"><ele>0</ele><time>2021-01-07T09:53:30Z</time><cmt>4.7 kmh</cmt></trkpt>
<trkpt lat="51.688510" lon="03.739499"><ele>0</ele><time>2021-01-07T09:53:33Z</time><cmt>5.0 kmh</cmt></trkpt>
<trkpt lat="51.688490" lon="03.739449"><ele>0</ele><time>2021-01-07T09:53:36Z</time><cmt>4.5 kmh</cmt></trkpt>
<trkpt lat="51.688472" lon="03.739404"><ele>0</ele><time>2021-01-07T09:53:39Z</time><cmt>4.8 kmh</cmt></trkpt>
<trkpt lat="51.688456" lon="03.739360"><ele>0</ele><time>2021-01-07T09:53:42Z</time><cmt>3.9 kmh</cmt></trkpt>
<trkpt lat="51.688436" lon="03.739306"><ele>0</ele><time>2021-01-07T09:53:46Z</time><cmt>4.2 kmh</cmt></trkpt>
<trkpt lat="51.688419" lon="03.739263"><ele>1</ele><time>2021-01-07T09:53:49Z</time><cmt>3.9 kmh</cmt></trkpt>
<trkpt lat="51.688401" lon="03.739217"><ele>1</ele><time>2021-01-07T09:53:52Z</time><cmt>4.9 kmh</cmt></trkpt>
<trkpt lat="51.688386" lon="03.739176"><ele>1</ele><time>2021-01-07T09:53:55Z</time><cmt>3.7 kmh</cmt></trkpt>
<trkpt lat="51.688368" lon="03.739130"><ele>1</ele><time>2021-01-07T09:53:58Z</time><cmt>4.8 kmh</cmt></trkpt>
<trkpt lat="51.688352" lon="03.739083"><ele>1</ele><time>2021-01-07T09:54:01Z</time><cmt>5.0 kmh</cmt></trkpt>
<trkpt lat="51.688335" lon="03.739033"><ele>1</ele><time>2021-01-07T09:54:04Z</time><cmt>5.0 kmh</cmt></trkpt>
<trkpt lat="51.688318" lon="03.738986"><ele>1</ele><time>2021-01-07T09:54:07Z</time><cmt>4.2 kmh</cmt></trkpt>
<trkpt lat="51.688299" lon="03.738939"><ele>1</ele><time>2021-01-07T09:54:10Z</time><cmt>4.9 kmh</cmt></trkpt>
<trkpt lat="51.688282" lon="03.738891"><ele>1</ele><time>2021-01-07T09:54:13Z</time><cmt>4.3 kmh</cmt></trkpt>
<trkpt lat="51.688265" lon="03.738840"><ele>2</ele><time>2021-01-07T09:54:16Z</time><cmt>5.0 kmh</cmt></trkpt>
<trkpt lat="51.688250" lon="03.738785"><ele>2</ele><time>2021-01-07T09:54:19Z</time><cmt>4.6 kmh</cmt></trkpt>
<trkpt lat="51.688237" lon="03.738729"><ele>2</ele><time>2021-01-07T09:54:22Z</time><cmt>5.0 kmh</cmt></trkpt>
<trkpt lat="51.688222" lon="03.738673"><ele>2</ele><time>2021-01-07T09:54:25Z</time><cmt>5.1 kmh</cmt></trkpt>
<trkpt lat="51.688203" lon="03.738618"><ele>3</ele><time>2021-01-07T09:54:28Z</time><cmt>5.1 kmh</cmt></trkpt>
<trkpt lat="51.688183" lon="03.738561"><ele>3</ele><time>2021-01-07T09:54:31Z</time><cmt>5.4 kmh</cmt></trkpt>
<trkpt lat="51.688165" lon="03.738508"><ele>3</ele><time>2021-01-07T09:54:34Z</time><cmt>5.0 kmh</cmt></trkpt>
<trkpt lat="51.688147" lon="03.738467"><ele>3</ele><time>2021-01-07T09:54:36Z</time><cmt>5.0 kmh</cmt></trkpt>
<trkpt lat="51.688126" lon="03.738426"><ele>4</ele><time>2021-01-07T09:54:38Z</time><cmt>5.0 kmh</cmt></trkpt>
<trkpt lat="51.688100" lon="03.738391"><ele>4</ele><time>2021-01-07T09:54:40Z</time><cmt>5.1 kmh</cmt></trkpt>
<trkpt lat="51.688076" lon="03.738365"><ele>4</ele><time>2021-01-07T09:54:42Z</time><cmt>5.1 kmh</cmt></trkpt>
<trkpt lat="51.688054" lon="03.738350"><ele>5</ele><time>2021-01-07T09:54:44Z</time><cmt>5.0 kmh</cmt></trkpt>
<trkpt lat="51.688032" lon="03.738348"><ele>5</ele><time>2021-01-07T09:54:46Z</time><cmt>4.4 kmh</cmt></trkpt>
<trkpt lat="51.688011" lon="03.738357"><ele>5</ele><time>2021-01-07T09:54:48Z</time><cmt>4.7 kmh</cmt></trkpt>
<trkpt lat="51.687992" lon="03.738371"><ele>5</ele><time>2021-01-07T09:54:50Z</time><cmt>4.1 kmh</cmt></trkpt>
<trkpt lat="51.687974" lon="03.738390"><ele>6</ele><time>2021-01-07T09:54:52Z</time><cmt>4.1 kmh</cmt></trkpt>
<trkpt lat="51.687957" lon="03.738411"><ele>6</ele><time>2021-01-07T09:54:54Z</time><cmt>4.6 kmh</cmt></trkpt>
<trkpt lat="51.687941" lon="03.738433"><ele>6</ele><time>2021-01-07T09:54:56Z</time><cmt>4.5 kmh</cmt></trkpt>
<trkpt lat="51.687923" lon="03.738463"><ele>6</ele><time>2021-01-07T09:54:58Z</time><cmt>4.5 kmh</cmt></trkpt>
<trkpt lat="51.687905" lon="03.738489"><ele>5</ele><time>2021-01-07T09:55:00Z</time><cmt>5.0 kmh</cmt></trkpt>
<trkpt lat="51.687880" lon="03.738533"><ele>5</ele><time>2021-01-07T09:55:03Z</time><cmt>5.0 kmh</cmt></trkpt>
<trkpt lat="51.687861" lon="03.738564"><ele>5</ele><time>2021-01-07T09:55:05Z</time><cmt>4.6 kmh</cmt></trkpt>
<trkpt lat="51.687843" lon="03.738596"><ele>5</ele><time>2021-01-07T09:55:07Z</time><cmt>5.0 kmh</cmt></trkpt>
<trkpt lat="51.687825" lon="03.738628"><ele>5</ele><time>2021-01-07T09:55:09Z</time><cmt>5.0 kmh</cmt></trkpt>
<trkpt lat="51.687809" lon="03.738660"><ele>5</ele><time>2021-01-07T09:55:11Z</time><cmt>5.0 kmh</cmt></trkpt>
<trkpt lat="51.687785" lon="03.738703"><ele>5</ele><time>2021-01-07T09:55:14Z</time><cmt>5.0 kmh</cmt></trkpt>
<trkpt lat="51.687769" lon="03.738735"><ele>4</ele><time>2021-01-07T09:55:16Z</time><cmt>5.0 kmh</cmt></trkpt>
<trkpt lat="51.687754" lon="03.738770"><ele>4</ele><time>2021-01-07T09:55:18Z</time><cmt>4.6 kmh</cmt></trkpt>
<trkpt lat="51.687731" lon="03.738818"><ele>4</ele><time>2021-01-07T09:55:21Z</time><cmt>5.0 kmh</cmt></trkpt>
<trkpt lat="51.687705" lon="03.738868"><ele>4</ele><time>2021-01-07T09:55:24Z</time><cmt>5.0 kmh</cmt></trkpt>
<trkpt lat="51.687688" lon="03.738903"><ele>3</ele><time>2021-01-07T09:55:26Z</time><cmt>5.0 kmh</cmt></trkpt>
<trkpt lat="51.687664" lon="03.738956"><ele>3</ele><time>2021-01-07T09:55:29Z</time><cmt>5.0 kmh</cmt></trkpt>
<trkpt lat="51.687647" lon="03.738993"><ele>3</ele><time>2021-01-07T09:55:31Z</time><cmt>4.9 kmh</cmt></trkpt>
<trkpt lat="51.687631" lon="03.739026"><ele>3</ele><time>2021-01-07T09:55:33Z</time><cmt>5.0 kmh</cmt></trkpt>
<trkpt lat="51.687611" lon="03.739072"><ele>3</ele><time>2021-01-07T09:55:36Z</time><cmt>4.3 kmh</cmt></trkpt>
<trkpt lat="51.687589" lon="03.739125"><ele>3</ele><time>2021-01-07T09:55:39Z</time><cmt>5.0 kmh</cmt></trkpt>
<trkpt lat="51.687570" lon="03.739173"><ele>3</ele><time>2021-01-07T09:55:42Z</time><cmt>4.4 kmh</cmt></trkpt>
<trkpt lat="51.687555" lon="03.739213"><ele>3</ele><time>2021-01-07T09:55:45Z</time><cmt>4.2 kmh</cmt></trkpt>
<trkpt lat="51.687533" lon="03.739265"><ele>2</ele><time>2021-01-07T09:55:49Z</time><cmt>3.7 kmh</cmt></trkpt>
<trkpt lat="51.687512" lon="03.739308"><ele>2</ele><time>2021-01-07T09:55:52Z</time><cmt>4.9 kmh</cmt></trkpt>
<trkpt lat="51.687497" lon="03.739343"><ele>2</ele><time>2021-01-07T09:55:54Z</time><cmt>5.0 kmh</cmt></trkpt>
<trkpt lat="51.687481" lon="03.739382"><ele>2</ele><time>2021-01-07T09:55:56Z</time><cmt>5.0 kmh</cmt></trkpt>
<trkpt lat="51.687465" lon="03.739419"><ele>2</ele><time>2021-01-07T09:55:58Z</time><cmt>5.0 kmh</cmt></trkpt>
<trkpt lat="51.687449" lon="03.739454"><ele>2</ele><time>2021-01-07T09:56:00Z</time><cmt>5.0 kmh</cmt></trkpt>
<trkpt lat="51.687432" lon="03.739492"><ele>2</ele><time>2021-01-07T09:56:02Z</time><cmt>5.0 kmh</cmt></trkpt>
<trkpt lat="51.687414" lon="03.739531"><ele>2</ele><time>2021-01-07T09:56:04Z</time><cmt>5.0 kmh</cmt></trkpt>
<trkpt lat="51.687398" lon="03.739570"><ele>2</ele><time>2021-01-07T09:56:06Z</time><cmt>5.0 kmh</cmt></trkpt>
<trkpt lat="51.687380" lon="03.739607"><ele>2</ele><time>2021-01-07T09:56:09Z</time><cmt>3.6 kmh</cmt></trkpt>
<trkpt lat="51.687367" lon="03.739633"><ele>2</ele><time>2021-01-07T09:56:11Z</time><cmt>5.0 kmh</cmt></trkpt>
<trkpt lat="51.687362" lon="03.739644"><ele>2</ele><time>2021-01-07T09:56:12Z</time><cmt>4.3 kmh</cmt></trkpt>
<trkpt lat="51.687354" lon="03.739660"><ele>2</ele><time>2021-01-07T09:56:13Z</time><cmt>4.6 kmh</cmt></trkpt>
<trkpt lat="51.687348" lon="03.739673"><ele>2</ele><time>2021-01-07T09:56:14Z</time><cmt>3.8 kmh</cmt></trkpt>
<trkpt lat="51.687342" lon="03.739686"><ele>2</ele><time>2021-01-07T09:56:15Z</time><cmt>3.6 kmh</cmt></trkpt>
<trkpt lat="51.687336" lon="03.739698"><ele>2</ele><time>2021-01-07T09:56:16Z</time><cmt>4.2 kmh</cmt></trkpt>
<trkpt lat="51.687329" lon="03.739713"><ele>2</ele><time>2021-01-07T09:56:17Z</time><cmt>4.5 kmh</cmt></trkpt>
<trkpt lat="51.687319" lon="03.739734"><ele>2</ele><time>2021-01-07T09:56:18Z</time><cmt>5.0 kmh</cmt></trkpt>
<trkpt lat="51.687307" lon="03.739759"><ele>2</ele><time>2021-01-07T09:56:19Z</time><cmt>5.0 kmh</cmt></trkpt>
<trkpt lat="51.687299" lon="03.739776"><ele>2</ele><time>2021-01-07T09:56:20Z</time><cmt>5.0 kmh</cmt></trkpt>
<trkpt lat="51.687291" lon="03.739790"><ele>2</ele><time>2021-01-07T09:56:21Z</time><cmt>5.0 kmh</cmt></trkpt>
<trkpt lat="51.687284" lon="03.739805"><ele>2</ele><time>2021-01-07T09:56:22Z</time><cmt>4.1 kmh</cmt></trkpt>
<trkpt lat="51.687278" lon="03.739817"><ele>2</ele><time>2021-01-07T09:56:23Z</time><cmt>4.7 kmh</cmt></trkpt>
<trkpt lat="51.687270" lon="03.739832"><ele>2</ele><time>2021-01-07T09:56:24Z</time><cmt>4.7 kmh</cmt></trkpt>
<trkpt lat="51.687263" lon="03.739848"><ele>2</ele><time>2021-01-07T09:56:26Z</time><cmt>4.2 kmh</cmt></trkpt>
<trkpt lat="51.687257" lon="03.739858"><ele>2</ele><time>2021-01-07T09:56:26Z</time><cmt>3.6 kmh</cmt></trkpt>
<trkpt lat="51.687251" lon="03.739871"><ele>2</ele><time>2021-01-07T09:56:27Z</time><cmt>3.9 kmh</cmt></trkpt>
<trkpt lat="51.687243" lon="03.739888"><ele>2</ele><time>2021-01-07T09:56:28Z</time><cmt>5.0 kmh</cmt></trkpt>
<trkpt lat="51.687233" lon="03.739908"><ele>2</ele><time>2021-01-07T09:56:29Z</time><cmt>5.0 kmh</cmt></trkpt>
<trkpt lat="51.687225" lon="03.739926"><ele>3</ele><time>2021-01-07T09:56:30Z</time><cmt>5.0 kmh</cmt></trkpt>
<trkpt lat="51.687217" lon="03.739941"><ele>3</ele><time>2021-01-07T09:56:31Z</time><cmt>5.0 kmh</cmt></trkpt>
<trkpt lat="51.687209" lon="03.739961"><ele>3</ele><time>2021-01-07T09:56:32Z</time><cmt>4.7 kmh</cmt></trkpt>
<trkpt lat="51.687201" lon="03.739980"><ele>3</ele><time>2021-01-07T09:56:33Z</time><cmt>5.0 kmh</cmt></trkpt>
<trkpt lat="51.687195" lon="03.739995"><ele>3</ele><time>2021-01-07T09:56:34Z</time><cmt>5.0 kmh</cmt></trkpt>
<trkpt lat="51.687187" lon="03.740011"><ele>3</ele><time>2021-01-07T09:56:35Z</time><cmt>5.0 kmh</cmt></trkpt>
<trkpt lat="51.687180" lon="03.740025"><ele>3</ele><time>2021-01-07T09:56:36Z</time><cmt>5.0 kmh</cmt></trkpt>
<trkpt lat="51.687173" lon="03.740039"><ele>3</ele><time>2021-01-07T09:56:37Z</time><cmt>4.8 kmh</cmt></trkpt>
<trkpt lat="51.687165" lon="03.740053"><ele>3</ele><time>2021-01-07T09:56:38Z</time><cmt>4.9 kmh</cmt></trkpt>
<trkpt lat="51.687158" lon="03.740070"><ele>3</ele><time>2021-01-07T09:56:39Z</time><cmt>5.0 kmh</cmt></trkpt>
<trkpt lat="51.687150" lon="03.740087"><ele>3</ele><time>2021-01-07T09:56:40Z</time><cmt>4.4 kmh</cmt></trkpt>
<trkpt lat="51.687143" lon="03.740106"><ele>4</ele><time>2021-01-07T09:56:41Z</time><cmt>4.7 kmh</cmt></trkpt>
<trkpt lat="51.687135" lon="03.740123"><ele>4</ele><time>2021-01-07T09:56:42Z</time><cmt>5.0 kmh</cmt></trkpt>
<trkpt lat="51.687127" lon="03.740140"><ele>4</ele><time>2021-01-07T09:56:43Z</time><cmt>5.0 kmh</cmt></trkpt>
<trkpt lat="51.687121" lon="03.740154"><ele>4</ele><time>2021-01-07T09:56:45Z</time><cmt>4.1 kmh</cmt></trkpt>
<trkpt lat="51.687114" lon="03.740169"><ele>4</ele><time>2021-01-07T09:56:45Z</time><cmt>4.7 kmh</cmt></trkpt>
<trkpt lat="51.687106" lon="03.740187"><ele>4</ele><time>2021-01-07T09:56:46Z</time><cmt>5.0 kmh</cmt></trkpt>
<trkpt lat="51.687095" lon="03.740210"><ele>4</ele><time>2021-01-07T09:56:47Z</time><cmt>5.0 kmh</cmt></trkpt>
<trkpt lat="51.687087" lon="03.740228"><ele>4</ele><time>2021-01-07T09:56:48Z</time><cmt>5.0 kmh</cmt></trkpt>
<trkpt lat="51.687077" lon="03.740250"><ele>4</ele><time>2021-01-07T09:56:49Z</time><cmt>5.0 kmh</cmt></trkpt>
<trkpt lat="51.687069" lon="03.740269"><ele>5</ele><time>2021-01-07T09:56:50Z</time><cmt>5.0 kmh</cmt></trkpt>
<trkpt lat="51.687061" lon="03.740289"><ele>5</ele><time>2021-01-07T09:56:51Z</time><cmt>5.0 kmh</cmt></trkpt>
<trkpt lat="51.687052" lon="03.740310"><ele>5</ele><time>2021-01-07T09:56:52Z</time><cmt>5.0 kmh</cmt></trkpt>
<trkpt lat="51.687044" lon="03.740328"><ele>5</ele><time>2021-01-07T09:56:53Z</time><cmt>5.0 kmh</cmt></trkpt>
<trkpt lat="51.687036" lon="03.740345"><ele>5</ele><time>2021-01-07T09:56:54Z</time><cmt>5.0 kmh</cmt></trkpt>
<trkpt lat="51.687027" lon="03.740366"><ele>6</ele><time>2021-01-07T09:56:55Z</time><cmt>5.0 kmh</cmt></trkpt>
<trkpt lat="51.687018" lon="03.740385"><ele>6</ele><time>2021-01-07T09:56:56Z</time><cmt>5.0 kmh</cmt></trkpt>
<trkpt lat="51.687008" lon="03.740404"><ele>6</ele><time>2021-01-07T09:56:57Z</time><cmt>5.0 kmh</cmt></trkpt>
<trkpt lat="51.687000" lon="03.740421"><ele>6</ele><time>2021-01-07T09:56:58Z</time><cmt>5.0 kmh</cmt></trkpt>
<trkpt lat="51.686991" lon="03.740441"><ele>6</ele><time>2021-01-07T09:56:59Z</time><cmt>5.0 kmh</cmt></trkpt>
<trkpt lat="51.686982" lon="03.740463"><ele>7</ele><time>2021-01-07T09:57:00Z</time><cmt>5.0 kmh</cmt></trkpt>
<trkpt lat="51.686973" lon="03.740483"><ele>7</ele><time>2021-01-07T09:57:01Z</time><cmt>5.0 kmh</cmt></trkpt>
<trkpt lat="51.686964" lon="03.740502"><ele>7</ele><time>2021-01-07T09:57:02Z</time><cmt>5.0 kmh</cmt></trkpt>
<trkpt lat="51.686956" lon="03.740520"><ele>7</ele><time>2021-01-07T09:57:03Z</time><cmt>5.0 kmh</cmt></trkpt>
<trkpt lat="51.686950" lon="03.740535"><ele>8</ele><time>2021-01-07T09:57:04Z</time><cmt>4.3 kmh</cmt></trkpt>
<trkpt lat="51.686942" lon="03.740555"><ele>8</ele><time>2021-01-07T09:57:05Z</time><cmt>4.4 kmh</cmt></trkpt>
<trkpt lat="51.686936" lon="03.740574"><ele>8</ele><time>2021-01-07T09:57:06Z</time><cmt>5.0 kmh</cmt></trkpt>
<trkpt lat="51.686927" lon="03.740596"><ele>9</ele><time>2021-01-07T09:57:07Z</time><cmt>5.0 kmh</cmt></trkpt>
<trkpt lat="51.686920" lon="03.740619"><ele>9</ele><time>2021-01-07T09:57:08Z</time><cmt>5.0 kmh</cmt></trkpt>
<trkpt lat="51.686912" lon="03.740639"><ele>9</ele><time>2021-01-07T09:57:09Z</time><cmt>5.0 kmh</cmt></trkpt>
<trkpt lat="51.686907" lon="03.740656"><ele>9</ele><time>2021-01-07T09:57:10Z</time><cmt>5.0 kmh</cmt></trkpt>
<trkpt lat="51.686904" lon="03.740670"><ele>10</ele><time>2021-01-07T09:57:11Z</time><cmt>3.6 kmh</cmt></trkpt>
<trkpt lat="51.686903" lon="03.740684"><ele>10</ele><time>2021-01-07T09:57:12Z</time><cmt>3.1 kmh</cmt></trkpt>
<trkpt lat="51.686901" lon="03.740702"><ele>10</ele><time>2021-01-07T09:57:13Z</time><cmt>4.3 kmh</cmt></trkpt>
<trkpt lat="51.686898" lon="03.740721"><ele>10</ele><time>2021-01-07T09:57:14Z</time><cmt>5.0 kmh</cmt></trkpt>
<trkpt lat="51.686895" lon="03.740741"><ele>10</ele><time>2021-01-07T09:57:15Z</time><cmt>5.0 kmh</cmt></trkpt>
<trkpt lat="51.686893" lon="03.740757"><ele>10</ele><time>2021-01-07T09:57:16Z</time><cmt>3.8 kmh</cmt></trkpt>
<trkpt lat="51.686890" lon="03.740775"><ele>10</ele><time>2021-01-07T09:57:17Z</time><cmt>4.7 kmh</cmt></trkpt>
<trkpt lat="51.686889" lon="03.740790"><ele>10</ele><time>2021-01-07T09:57:18Z</time><cmt>4.6 kmh</cmt></trkpt>
<trkpt lat="51.686888" lon="03.740804"><ele>10</ele><time>2021-01-07T09:57:19Z</time><cmt>3.1 kmh</cmt></trkpt>
<trkpt lat="51.686886" lon="03.740818"><ele>10</ele><time>2021-01-07T09:57:20Z</time><cmt>3.8 kmh</cmt></trkpt>
<trkpt lat="51.686884" lon="03.740833"><ele>10</ele><time>2021-01-07T09:57:21Z</time><cmt>4.0 kmh</cmt></trkpt>
<trkpt lat="51.686883" lon="03.740846"><ele>10</ele><time>2021-01-07T09:57:22Z</time><cmt>3.8 kmh</cmt></trkpt>
<trkpt lat="51.686883" lon="03.740856"><ele>10</ele><time>2021-01-07T09:57:23Z</time><cmt>2.5 kmh</cmt></trkpt>
<trkpt lat="51.686884" lon="03.740866"><ele>10</ele><time>2021-01-07T09:57:24Z</time><cmt>2.2 kmh</cmt></trkpt>
<trkpt lat="51.686883" lon="03.740881"><ele>10</ele><time>2021-01-07T09:57:25Z</time><cmt>3.3 kmh</cmt></trkpt>
<trkpt lat="51.686882" lon="03.740896"><ele>10</ele><time>2021-01-07T09:57:26Z</time><cmt>4.0 kmh</cmt></trkpt>
<trkpt lat="51.686882" lon="03.740909"><ele>9</ele><time>2021-01-07T09:57:27Z</time><cmt>3.8 kmh</cmt></trkpt>
<trkpt lat="51.686882" lon="03.740922"><ele>9</ele><time>2021-01-07T09:57:28Z</time><cmt>3.5 kmh</cmt></trkpt>
<trkpt lat="51.686882" lon="03.740935"><ele>9</ele><time>2021-01-07T09:57:29Z</time><cmt>2.8 kmh</cmt></trkpt>
<trkpt lat="51.686881" lon="03.740949"><ele>9</ele><time>2021-01-07T09:57:30Z</time><cmt>2.9 kmh</cmt></trkpt>
<trkpt lat="51.686881" lon="03.740962"><ele>9</ele><time>2021-01-07T09:57:31Z</time><cmt>3.6 kmh</cmt></trkpt>
<trkpt lat="51.686882" lon="03.740975"><ele>8</ele><time>2021-01-07T09:57:32Z</time><cmt>3.4 kmh</cmt></trkpt>
<trkpt lat="51.686881" lon="03.740988"><ele>8</ele><time>2021-01-07T09:57:33Z</time><cmt>3.5 kmh</cmt></trkpt>
<trkpt lat="51.686883" lon="03.741001"><ele>8</ele><time>2021-01-07T09:57:34Z</time><cmt>3.5 kmh</cmt></trkpt>
<trkpt lat="51.686882" lon="03.741015"><ele>8</ele><time>2021-01-07T09:57:35Z</time><cmt>2.9 kmh</cmt></trkpt>
<trkpt lat="51.686882" lon="03.741030"><ele>7</ele><time>2021-01-07T09:57:36Z</time><cmt>3.1 kmh</cmt></trkpt>
<trkpt lat="51.686882" lon="03.741045"><ele>7</ele><time>2021-01-07T09:57:37Z</time><cmt>4.0 kmh</cmt></trkpt>
<trkpt lat="51.686881" lon="03.741061"><ele>7</ele><time>2021-01-07T09:57:38Z</time><cmt>4.2 kmh</cmt></trkpt>
<trkpt lat="51.686880" lon="03.741078"><ele>6</ele><time>2021-01-07T09:57:39Z</time><cmt>4.4 kmh</cmt></trkpt>
<trkpt lat="51.686879" lon="03.741094"><ele>6</ele><time>2021-01-07T09:57:40Z</time><cmt>4.4 kmh</cmt></trkpt>
<trkpt lat="51.686879" lon="03.741110"><ele>6</ele><time>2021-01-07T09:57:41Z</time><cmt>4.3 kmh</cmt></trkpt>
<trkpt lat="51.686877" lon="03.741129"><ele>6</ele><time>2021-01-07T09:57:42Z</time><cmt>4.7 kmh</cmt></trkpt>
<trkpt lat="51.686875" lon="03.741146"><ele>5</ele><time>2021-01-07T09:57:43Z</time><cmt>3.9 kmh</cmt></trkpt>
<trkpt lat="51.686874" lon="03.741162"><ele>5</ele><time>2021-01-07T09:57:44Z</time><cmt>3.6 kmh</cmt></trkpt>
<trkpt lat="51.686872" lon="03.741183"><ele>5</ele><time>2021-01-07T09:57:45Z</time><cmt>4.9 kmh</cmt></trkpt>
<trkpt lat="51.686868" lon="03.741206"><ele>5</ele><time>2021-01-07T09:57:46Z</time><cmt>5.0 kmh</cmt></trkpt>
<trkpt lat="51.686866" lon="03.741226"><ele>4</ele><time>2021-01-07T09:57:47Z</time><cmt>5.0 kmh</cmt></trkpt>
<trkpt lat="51.686865" lon="03.741244"><ele>4</ele><time>2021-01-07T09:57:48Z</time><cmt>5.0 kmh</cmt></trkpt>
<trkpt lat="51.686861" lon="03.741265"><ele>4</ele><time>2021-01-07T09:57:49Z</time><cmt>4.2 kmh</cmt></trkpt>
<trkpt lat="51.686857" lon="03.741286"><ele>4</ele><time>2021-01-07T09:57:50Z</time><cmt>4.7 kmh</cmt></trkpt>
<trkpt lat="51.686855" lon="03.741305"><ele>4</ele><time>2021-01-07T09:57:51Z</time><cmt>5.0 kmh</cmt></trkpt>
<trkpt lat="51.686855" lon="03.741320"><ele>3</ele><time>2021-01-07T09:57:52Z</time><cmt>4.6 kmh</cmt></trkpt>
<trkpt lat="51.686855" lon="03.741335"><ele>3</ele><time>2021-01-07T09:57:53Z</time><cmt>4.0 kmh</cmt></trkpt>
<trkpt lat="51.686851" lon="03.741354"><ele>3</ele><time>2021-01-07T09:57:54Z</time><cmt>4.7 kmh</cmt></trkpt>
<trkpt lat="51.686848" lon="03.741371"><ele>3</ele><time>2021-01-07T09:57:55Z</time><cmt>4.0 kmh</cmt></trkpt>
<trkpt lat="51.686847" lon="03.741385"><ele>3</ele><time>2021-01-07T09:57:56Z</time><cmt>3.4 kmh</cmt></trkpt>
<trkpt lat="51.686847" lon="03.741398"><ele>2</ele><time>2021-01-07T09:57:57Z</time><cmt>3.6 kmh</cmt></trkpt>
<trkpt lat="51.686846" lon="03.741411"><ele>2</ele><time>2021-01-07T09:57:58Z</time><cmt>3.5 kmh</cmt></trkpt>
<trkpt lat="51.686843" lon="03.741427"><ele>2</ele><time>2021-01-07T09:57:59Z</time><cmt>4.0 kmh</cmt></trkpt>
<trkpt lat="51.686842" lon="03.741441"><ele>2</ele><time>2021-01-07T09:58:00Z</time><cmt>4.1 kmh</cmt></trkpt>
<trkpt lat="51.686837" lon="03.741463"><ele>2</ele><time>2021-01-07T09:58:01Z</time><cmt>4.0 kmh</cmt></trkpt>
<trkpt lat="51.686833" lon="03.741483"><ele>2</ele><time>2021-01-07T09:58:02Z</time><cmt>4.7 kmh</cmt></trkpt>
<trkpt lat="51.686830" lon="03.741499"><ele>2</ele><time>2021-01-07T09:58:03Z</time><cmt>5.0 kmh</cmt></trkpt>
<trkpt lat="51.686823" lon="03.741520"><ele>2</ele><time>2021-01-07T09:58:04Z</time><cmt>5.0 kmh</cmt></trkpt>
<trkpt lat="51.686818" lon="03.741539"><ele>2</ele><time>2021-01-07T09:58:05Z</time><cmt>5.0 kmh</cmt></trkpt>
<trkpt lat="51.686814" lon="03.741560"><ele>2</ele><time>2021-01-07T09:58:06Z</time><cmt>5.0 kmh</cmt></trkpt>
<trkpt lat="51.686812" lon="03.741577"><ele>2</ele><time>2021-01-07T09:58:07Z</time><cmt>5.0 kmh</cmt></trkpt>
<trkpt lat="51.686809" lon="03.741597"><ele>2</ele><time>2021-01-07T09:58:08Z</time><cmt>5.0 kmh</cmt></trkpt>
<trkpt lat="51.686806" lon="03.741617"><ele>2</ele><time>2021-01-07T09:58:09Z</time><cmt>4.4 kmh</cmt></trkpt>
<trkpt lat="51.686801" lon="03.741640"><ele>2</ele><time>2021-01-07T09:58:10Z</time><cmt>4.9 kmh</cmt></trkpt>
<trkpt lat="51.686793" lon="03.741665"><ele>2</ele><time>2021-01-07T09:58:11Z</time><cmt>5.0 kmh</cmt></trkpt>
<trkpt lat="51.686784" lon="03.741692"><ele>2</ele><time>2021-01-07T09:58:12Z</time><cmt>5.0 kmh</cmt></trkpt>
<trkpt lat="51.686775" lon="03.741718"><ele>2</ele><time>2021-01-07T09:58:13Z</time><cmt>5.0 kmh</cmt></trkpt>
<trkpt lat="51.686769" lon="03.741737"><ele>2</ele><time>2021-01-07T09:58:14Z</time><cmt>5.0 kmh</cmt></trkpt>
<trkpt lat="51.686764" lon="03.741756"><ele>2</ele><time>2021-01-07T09:58:15Z</time><cmt>4.5 kmh</cmt></trkpt>
<trkpt lat="51.686757" lon="03.741779"><ele>2</ele><time>2021-01-07T09:58:16Z</time><cmt>5.0 kmh</cmt></trkpt>
<trkpt lat="51.686749" lon="03.741802"><ele>2</ele><time>2021-01-07T09:58:17Z</time><cmt>5.0 kmh</cmt></trkpt>
<trkpt lat="51.686742" lon="03.741826"><ele>3</ele><time>2021-01-07T09:58:18Z</time><cmt>5.0 kmh</cmt></trkpt>
<trkpt lat="51.686734" lon="03.741848"><ele>3</ele><time>2021-01-07T09:58:19Z</time><cmt>5.0 kmh</cmt></trkpt>
<trkpt lat="51.686729" lon="03.741866"><ele>3</ele><time>2021-01-07T09:58:20Z</time><cmt>5.0 kmh</cmt></trkpt>
<trkpt lat="51.686725" lon="03.741884"><ele>3</ele><time>2021-01-07T09:58:21Z</time><cmt>4.2 kmh</cmt></trkpt>
<trkpt lat="51.686718" lon="03.741905"><ele>3</ele><time>2021-01-07T09:58:22Z</time><cmt>4.5 kmh</cmt></trkpt>
<trkpt lat="51.686711" lon="03.741927"><ele>3</ele><time>2021-01-07T09:58:23Z</time><cmt>5.0 kmh</cmt></trkpt>
<trkpt lat="51.686705" lon="03.741948"><ele>4</ele><time>2021-01-07T09:58:24Z</time><cmt>5.0 kmh</cmt></trkpt>
<trkpt lat="51.686701" lon="03.741964"><ele>4</ele><time>2021-01-07T09:58:25Z</time><cmt>5.0 kmh</cmt></trkpt>
<trkpt lat="51.686696" lon="03.741983"><ele>4</ele><time>2021-01-07T09:58:26Z</time><cmt>4.1 kmh</cmt></trkpt>
<trkpt lat="51.686689" lon="03.742003"><ele>4</ele><time>2021-01-07T09:58:27Z</time><cmt>5.0 kmh</cmt></trkpt>
<trkpt lat="51.686683" lon="03.742018"><ele>4</ele><time>2021-01-07T09:58:28Z</time><cmt>5.0 kmh</cmt></trkpt>
<trkpt lat="51.686674" lon="03.742040"><ele>4</ele><time>2021-01-07T09:58:29Z</time><cmt>4.7 kmh</cmt></trkpt>
<trkpt lat="51.686668" lon="03.742058"><ele>5</ele><time>2021-01-07T09:58:30Z</time><cmt>5.0 kmh</cmt></trkpt>
<trkpt lat="51.686660" lon="03.742080"><ele>5</ele><time>2021-01-07T09:58:31Z</time><cmt>5.0 kmh</cmt></trkpt>
<trkpt lat="51.686656" lon="03.742096"><ele>5</ele><time>2021-01-07T09:58:32Z</time><cmt>5.0 kmh</cmt></trkpt>
<trkpt lat="51.686652" lon="03.742113"><ele>5</ele><time>2021-01-07T09:58:33Z</time><cmt>4.8 kmh</cmt></trkpt>
<trkpt lat="51.686647" lon="03.742132"><ele>5</ele><time>2021-01-07T09:58:34Z</time><cmt>4.1 kmh</cmt></trkpt>
<trkpt lat="51.686638" lon="03.742159"><ele>6</ele><time>2021-01-07T09:58:35Z</time><cmt>5.0 kmh</cmt></trkpt>
<trkpt lat="51.686632" lon="03.742182"><ele>6</ele><time>2021-01-07T09:58:36Z</time><cmt>5.0 kmh</cmt></trkpt>
<trkpt lat="51.686623" lon="03.742206"><ele>6</ele><time>2021-01-07T09:58:37Z</time><cmt>5.0 kmh</cmt></trkpt>
<trkpt lat="51.686614" lon="03.742233"><ele>7</ele><time>2021-01-07T09:58:38Z</time><cmt>5.0 kmh</cmt></trkpt>
<trkpt lat="51.686604" lon="03.742260"><ele>7</ele><time>2021-01-07T09:58:39Z</time><cmt>5.0 kmh</cmt></trkpt>
<trkpt lat="51.686593" lon="03.742285"><ele>8</ele><time>2021-01-07T09:58:40Z</time><cmt>5.0 kmh</cmt></trkpt>
<trkpt lat="51.686581" lon="03.742310"><ele>8</ele><time>2021-01-07T09:58:41Z</time><cmt>5.0 kmh</cmt></trkpt>
<trkpt lat="51.686571" lon="03.742334"><ele>9</ele><time>2021-01-07T09:58:42Z</time><cmt>5.0 kmh</cmt></trkpt>
<trkpt lat="51.686561" lon="03.742357"><ele>9</ele><time>2021-01-07T09:58:43Z</time><cmt>5.0 kmh</cmt></trkpt>
<trkpt lat="51.686554" lon="03.742373"><ele>10</ele><time>2021-01-07T09:58:44Z</time><cmt>5.0 kmh</cmt></trkpt>
<trkpt lat="51.686548" lon="03.742389"><ele>10</ele><time>2021-01-07T09:58:45Z</time><cmt>4.2 kmh</cmt></trkpt>
<trkpt lat="51.686543" lon="03.742402"><ele>11</ele><time>2021-01-07T09:58:46Z</time><cmt>3.7 kmh</cmt></trkpt>
<trkpt lat="51.686539" lon="03.742413"><ele>11</ele><time>2021-01-07T09:58:47Z</time><cmt>3.7 kmh</cmt></trkpt>
<trkpt lat="51.686533" lon="03.742427"><ele>11</ele><time>2021-01-07T09:58:48Z</time><cmt>4.1 kmh</cmt></trkpt>
<trkpt lat="51.686526" lon="03.742442"><ele>12</ele><time>2021-01-07T09:58:49Z</time><cmt>4.8 kmh</cmt></trkpt>
<trkpt lat="51.686519" lon="03.742461"><ele>12</ele><time>2021-01-07T09:58:50Z</time><cmt>5.0 kmh</cmt></trkpt>
<trkpt lat="51.686509" lon="03.742484"><ele>12</ele><time>2021-01-07T09:58:51Z</time><cmt>5.0 kmh</cmt></trkpt>
<trkpt lat="51.686503" lon="03.742501"><ele>12</ele><time>2021-01-07T09:58:52Z</time><cmt>5.0 kmh</cmt></trkpt>
<trkpt lat="51.686495" lon="03.742521"><ele>12</ele><time>2021-01-07T09:58:53Z</time><cmt>4.7 kmh</cmt></trkpt>
<trkpt lat="51.686482" lon="03.742554"><ele>13</ele><time>2021-01-07T09:58:55Z</time><cmt>4.8 kmh</cmt></trkpt>
<trkpt lat="51.686465" lon="03.742597"><ele>13</ele><time>2021-01-07T09:58:57Z</time><cmt>5.0 kmh</cmt></trkpt>
<trkpt lat="51.686444" lon="03.742640"><ele>14</ele><time>2021-01-07T09:58:59Z</time><cmt>5.0 kmh</cmt></trkpt>
<trkpt lat="51.686428" lon="03.742676"><ele>14</ele><time>2021-01-07T09:59:01Z</time><cmt>5.0 kmh</cmt></trkpt>
<trkpt lat="51.686413" lon="03.742708"><ele>15</ele><time>2021-01-07T09:59:03Z</time><cmt>5.0 kmh</cmt></trkpt>
<trkpt lat="51.686387" lon="03.742756"><ele>14</ele><time>2021-01-07T09:59:08Z</time><cmt>5.0 kmh</cmt></trkpt>
<trkpt lat="51.686355" lon="03.742814"><ele>14</ele><time>2021-01-07T09:59:13Z</time><cmt>5.0 kmh</cmt></trkpt>
<trkpt lat="51.686338" lon="03.742855"><ele>13</ele><time>2021-01-07T09:59:16Z</time><cmt>4.4 kmh</cmt></trkpt>
<trkpt lat="51.686315" lon="03.742896"><ele>13</ele><time>2021-01-07T09:59:19Z</time><cmt>4.2 kmh</cmt></trkpt>
<trkpt lat="51.686290" lon="03.742934"><ele>12</ele><time>2021-01-07T09:59:22Z</time><cmt>4.9 kmh</cmt></trkpt>
<trkpt lat="51.686271" lon="03.742967"><ele>12</ele><time>2021-01-07T09:59:25Z</time><cmt>3.5 kmh</cmt></trkpt>
<trkpt lat="51.686250" lon="03.742999"><ele>11</ele><time>2021-01-07T09:59:28Z</time><cmt>4.1 kmh</cmt></trkpt>
<trkpt lat="51.686229" lon="03.743037"><ele>10</ele><time>2021-01-07T09:59:31Z</time><cmt>3.9 kmh</cmt></trkpt>
<trkpt lat="51.686209" lon="03.743073"><ele>10</ele><time>2021-01-07T09:59:34Z</time><cmt>4.3 kmh</cmt></trkpt>
<trkpt lat="51.686192" lon="03.743105"><ele>9</ele><time>2021-01-07T09:59:37Z</time><cmt>3.2 kmh</cmt></trkpt>
<trkpt lat="51.686171" lon="03.743139"><ele>8</ele><time>2021-01-07T09:59:40Z</time><cmt>4.2 kmh</cmt></trkpt>
<trkpt lat="51.686152" lon="03.743174"><ele>8</ele><time>2021-01-07T09:59:43Z</time><cmt>3.6 kmh</cmt></trkpt>
<trkpt lat="51.686130" lon="03.743214"><ele>7</ele><time>2021-01-07T09:59:46Z</time><cmt>4.8 kmh</cmt></trkpt>
<trkpt lat="51.686113" lon="03.743250"><ele>7</ele><time>2021-01-07T09:59:48Z</time><cmt>5.0 kmh</cmt></trkpt>
<trkpt lat="51.686097" lon="03.743282"><ele>6</ele><time>2021-01-07T09:59:50Z</time><cmt>4.5 kmh</cmt></trkpt>
<trkpt lat="51.686076" lon="03.743323"><ele>6</ele><time>2021-01-07T09:59:53Z</time><cmt>4.8 kmh</cmt></trkpt>
<trkpt lat="51.686054" lon="03.743360"><ele>6</ele><time>2021-01-07T09:59:56Z</time><cmt>4.5 kmh</cmt></trkpt>
<trkpt lat="51.686031" lon="03.743399"><ele>5</ele><time>2021-01-07T09:59:59Z</time><cmt>4.1 kmh</cmt></trkpt>
<trkpt lat="51.686012" lon="03.743431"><ele>4</ele><time>2021-01-07T10:00:02Z</time><cmt>3.4 kmh</cmt></trkpt>
<trkpt lat="51.685992" lon="03.743462"><ele>4</ele><time>2021-01-07T10:00:05Z</time><cmt>4.0 kmh</cmt></trkpt>
<trkpt lat="51.685970" lon="03.743501"><ele>3</ele><time>2021-01-07T10:00:08Z</time><cmt>4.0 kmh</cmt></trkpt>
<trkpt lat="51.685954" lon="03.743530"><ele>3</ele><time>2021-01-07T10:00:10Z</time><cmt>5.0 kmh</cmt></trkpt>
<trkpt lat="51.685933" lon="03.743564"><ele>2</ele><time>2021-01-07T10:00:13Z</time><cmt>4.3 kmh</cmt></trkpt>
<trkpt lat="51.685914" lon="03.743588"><ele>2</ele><time>2021-01-07T10:00:16Z</time><cmt>3.0 kmh</cmt></trkpt>
<trkpt lat="51.685890" lon="03.743623"><ele>2</ele><time>2021-01-07T10:00:19Z</time><cmt>4.6 kmh</cmt></trkpt>
<trkpt lat="51.685872" lon="03.743653"><ele>2</ele><time>2021-01-07T10:00:21Z</time><cmt>5.0 kmh</cmt></trkpt>
<trkpt lat="51.685853" lon="03.743682"><ele>2</ele><time>2021-01-07T10:00:23Z</time><cmt>4.5 kmh</cmt></trkpt>
<trkpt lat="51.685835" lon="03.743706"><ele>2</ele><time>2021-01-07T10:00:25Z</time><cmt>5.0 kmh</cmt></trkpt>
<trkpt lat="51.685816" lon="03.743734"><ele>2</ele><time>2021-01-07T10:00:27Z</time><cmt>5.0 kmh</cmt></trkpt>
<trkpt lat="51.685796" lon="03.743772"><ele>2</ele><time>2021-01-07T10:00:29Z</time><cmt>5.0 kmh</cmt></trkpt>
<trkpt lat="51.685774" lon="03.743807"><ele>1</ele><time>2021-01-07T10:00:31Z</time><cmt>5.0 kmh</cmt></trkpt>
<trkpt lat="51.685753" lon="03.743831"><ele>1</ele><time>2021-01-07T10:00:33Z</time><cmt>5.0 kmh</cmt></trkpt>
<trkpt lat="51.685734" lon="03.743852"><ele>1</ele><time>2021-01-07T10:00:35Z</time><cmt>4.7 kmh</cmt></trkpt>
<trkpt lat="51.685715" lon="03.743875"><ele>1</ele><time>2021-01-07T10:00:37Z</time><cmt>5.0 kmh</cmt></trkpt>
<trkpt lat="51.685689" lon="03.743896"><ele>1</ele><time>2021-01-07T10:00:40Z</time><cmt>4.2 kmh</cmt></trkpt>
<trkpt lat="51.685663" lon="03.743924"><ele>1</ele><time>2021-01-07T10:00:43Z</time><cmt>3.8 kmh</cmt></trkpt>
<trkpt lat="51.685644" lon="03.743945"><ele>1</ele><time>2021-01-07T10:00:45Z</time><cmt>5.0 kmh</cmt></trkpt>
<trkpt lat="51.685624" lon="03.743964"><ele>1</ele><time>2021-01-07T10:00:47Z</time><cmt>4.1 kmh</cmt></trkpt>
<trkpt lat="51.685603" lon="03.743982"><ele>1</ele><time>2021-01-07T10:00:49Z</time><cmt>5.0 kmh</cmt></trkpt>
<trkpt lat="51.685583" lon="03.744001"><ele>1</ele><time>2021-01-07T10:00:51Z</time><cmt>5.0 kmh</cmt></trkpt>
<trkpt lat="51.685561" lon="03.744023"><ele>1</ele><time>2021-01-07T10:00:53Z</time><cmt>4.7 kmh</cmt></trkpt>
<trkpt lat="51.685540" lon="03.744042"><ele>1</ele><time>2021-01-07T10:00:55Z</time><cmt>4.8 kmh</cmt></trkpt>
<trkpt lat="51.685519" lon="03.744061"><ele>1</ele><time>2021-01-07T10:00:57Z</time><cmt>5.0 kmh</cmt></trkpt>
<trkpt lat="51.685496" lon="03.744078"><ele>1</ele><time>2021-01-07T10:00:59Z</time><cmt>4.8 kmh</cmt></trkpt>
<trkpt lat="51.685474" lon="03.744094"><ele>1</ele><time>2021-01-07T10:01:01Z</time><cmt>4.8 kmh</cmt></trkpt>
<trkpt lat="51.685450" lon="03.744108"><ele>1</ele><time>2021-01-07T10:01:03Z</time><cmt>5.0 kmh</cmt></trkpt>
<trkpt lat="51.685427" lon="03.744122"><ele>0</ele><time>2021-01-07T10:01:05Z</time><cmt>5.0 kmh</cmt></trkpt>
<trkpt lat="51.685402" lon="03.744136"><ele>0</ele><time>2021-01-07T10:01:07Z</time><cmt>4.5 kmh</cmt></trkpt>
<trkpt lat="51.685379" lon="03.744149"><ele>0</ele><time>2021-01-07T10:01:09Z</time><cmt>5.0 kmh</cmt></trkpt>
<trkpt lat="51.685355" lon="03.744164"><ele>0</ele><time>2021-01-07T10:01:11Z</time><cmt>5.0 kmh</cmt></trkpt>
<trkpt lat="51.685329" lon="03.744179"><ele>0</ele><time>2021-01-07T10:01:13Z</time><cmt>4.8 kmh</cmt></trkpt>
<trkpt lat="51.685303" lon="03.744193"><ele>0</ele><time>2021-01-07T10:01:15Z</time><cmt>5.0 kmh</cmt></trkpt>
<trkpt lat="51.685270" lon="03.744211"><ele>0</ele><time>2021-01-07T10:01:18Z</time><cmt>4.9 kmh</cmt></trkpt>
<trkpt lat="51.685236" lon="03.744228"><ele>0</ele><time>2021-01-07T10:01:21Z</time><cmt>4.5 kmh</cmt></trkpt>
<trkpt lat="51.685213" lon="03.744239"><ele>0</ele><time>2021-01-07T10:01:23Z</time><cmt>5.0 kmh</cmt></trkpt>
<trkpt lat="51.685190" lon="03.744248"><ele>0</ele><time>2021-01-07T10:01:25Z</time><cmt>4.5 kmh</cmt></trkpt>
<trkpt lat="51.685166" lon="03.744258"><ele>0</ele><time>2021-01-07T10:01:27Z</time><cmt>4.6 kmh</cmt></trkpt>
<trkpt lat="51.685142" lon="03.744270"><ele>0</ele><time>2021-01-07T10:01:29Z</time><cmt>5.0 kmh</cmt></trkpt>
<trkpt lat="51.685117" lon="03.744281"><ele>0</ele><time>2021-01-07T10:01:31Z</time><cmt>5.0 kmh</cmt></trkpt>
<trkpt lat="51.685092" lon="03.744290"><ele>0</ele><time>2021-01-07T10:01:33Z</time><cmt>4.5 kmh</cmt></trkpt>
<trkpt lat="51.685067" lon="03.744302"><ele>0</ele><time>2021-01-07T10:01:35Z</time><cmt>5.0 kmh</cmt></trkpt>
<trkpt lat="51.685041" lon="03.744316"><ele>1</ele><time>2021-01-07T10:01:37Z</time><cmt>5.0 kmh</cmt></trkpt>
<trkpt lat="51.685017" lon="03.744331"><ele>1</ele><time>2021-01-07T10:01:39Z</time><cmt>5.0 kmh</cmt></trkpt>
<trkpt lat="51.684993" lon="03.744347"><ele>1</ele><time>2021-01-07T10:01:41Z</time><cmt>5.0 kmh</cmt></trkpt>
<trkpt lat="51.684970" lon="03.744362"><ele>1</ele><time>2021-01-07T10:01:43Z</time><cmt>4.9 kmh</cmt></trkpt>
<trkpt lat="51.684946" lon="03.744376"><ele>1</ele><time>2021-01-07T10:01:45Z</time><cmt>4.8 kmh</cmt></trkpt>
<trkpt lat="51.684923" lon="03.744389"><ele>2</ele><time>2021-01-07T10:01:47Z</time><cmt>5.0 kmh</cmt></trkpt>
<trkpt lat="51.684899" lon="03.744404"><ele>2</ele><time>2021-01-07T10:01:49Z</time><cmt>5.0 kmh</cmt></trkpt>
<trkpt lat="51.684876" lon="03.744419"><ele>2</ele><time>2021-01-07T10:01:51Z</time><cmt>4.3 kmh</cmt></trkpt>
<trkpt lat="51.684852" lon="03.744434"><ele>2</ele><time>2021-01-07T10:01:53Z</time><cmt>5.0 kmh</cmt></trkpt>
<trkpt lat="51.684829" lon="03.744448"><ele>3</ele><time>2021-01-07T10:01:55Z</time><cmt>5.0 kmh</cmt></trkpt>
<trkpt lat="51.684807" lon="03.744461"><ele>3</ele><time>2021-01-07T10:01:57Z</time><cmt>4.6 kmh</cmt></trkpt>
<trkpt lat="51.684785" lon="03.744475"><ele>3</ele><time>2021-01-07T10:01:59Z</time><cmt>4.6 kmh</cmt></trkpt>
<trkpt lat="51.684762" lon="03.744487"><ele>3</ele><time>2021-01-07T10:02:01Z</time><cmt>5.0 kmh</cmt></trkpt>
<trkpt lat="51.684741" lon="03.744501"><ele>3</ele><time>2021-01-07T10:02:03Z</time><cmt>5.0 kmh</cmt></trkpt>
<trkpt lat="51.684719" lon="03.744514"><ele>3</ele><time>2021-01-07T10:02:05Z</time><cmt>4.0 kmh</cmt></trkpt>
<trkpt lat="51.684697" lon="03.744527"><ele>3</ele><time>2021-01-07T10:02:07Z</time><cmt>5.0 kmh</cmt></trkpt>
<trkpt lat="51.684676" lon="03.744540"><ele>3</ele><time>2021-01-07T10:02:09Z</time><cmt>5.0 kmh</cmt></trkpt>
<trkpt lat="51.684655" lon="03.744552"><ele>3</ele><time>2021-01-07T10:02:11Z</time><cmt>3.8 kmh</cmt></trkpt>
<trkpt lat="51.684634" lon="03.744567"><ele>3</ele><time>2021-01-07T10:02:13Z</time><cmt>5.0 kmh</cmt></trkpt>
<trkpt lat="51.684613" lon="03.744580"><ele>3</ele><time>2021-01-07T10:02:15Z</time><cmt>4.3 kmh</cmt></trkpt>
<trkpt lat="51.684592" lon="03.744593"><ele>2</ele><time>2021-01-07T10:02:17Z</time><cmt>4.3 kmh</cmt></trkpt>
<trkpt lat="51.684570" lon="03.744608"><ele>2</ele><time>2021-01-07T10:02:19Z</time><cmt>5.0 kmh</cmt></trkpt>
<trkpt lat="51.684549" lon="03.744623"><ele>2</ele><time>2021-01-07T10:02:21Z</time><cmt>4.5 kmh</cmt></trkpt>
<trkpt lat="51.684527" lon="03.744636"><ele>2</ele><time>2021-01-07T10:02:23Z</time><cmt>4.5 kmh</cmt></trkpt>
<trkpt lat="51.684505" lon="03.744650"><ele>2</ele><time>2021-01-07T10:02:25Z</time><cmt>5.0 kmh</cmt></trkpt>
<trkpt lat="51.684483" lon="03.744664"><ele>2</ele><time>2021-01-07T10:02:27Z</time><cmt>5.0 kmh</cmt></trkpt>
<trkpt lat="51.684461" lon="03.744680"><ele>2</ele><time>2021-01-07T10:02:29Z</time><cmt>4.6 kmh</cmt></trkpt>
<trkpt lat="51.684439" lon="03.744696"><ele>2</ele><time>2021-01-07T10:02:31Z</time><cmt>4.6 kmh</cmt></trkpt>
<trkpt lat="51.684416" lon="03.744713"><ele>2</ele><time>2021-01-07T10:02:33Z</time><cmt>5.0 kmh</cmt></trkpt>
<trkpt lat="51.684395" lon="03.744729"><ele>2</ele><time>2021-01-07T10:02:35Z</time><cmt>4.0 kmh</cmt></trkpt>
<trkpt lat="51.684373" lon="03.744744"><ele>2</ele><time>2021-01-07T10:02:37Z</time><cmt>5.0 kmh</cmt></trkpt>
<trkpt lat="51.684350" lon="03.744759"><ele>2</ele><time>2021-01-07T10:02:39Z</time><cmt>5.0 kmh</cmt></trkpt>
<trkpt lat="51.684328" lon="03.744775"><ele>2</ele><time>2021-01-07T10:02:41Z</time><cmt>5.0 kmh</cmt></trkpt>
<trkpt lat="51.684306" lon="03.744790"><ele>2</ele><time>2021-01-07T10:02:43Z</time><cmt>4.1 kmh</cmt></trkpt>
<trkpt lat="51.684285" lon="03.744805"><ele>2</ele><time>2021-01-07T10:02:45Z</time><cmt>5.0 kmh</cmt></trkpt>
<trkpt lat="51.684263" lon="03.744820"><ele>2</ele><time>2021-01-07T10:02:47Z</time><cmt>5.0 kmh</cmt></trkpt>
<trkpt lat="51.684244" lon="03.744833"><ele>2</ele><time>2021-01-07T10:02:48Z</time><cmt>5.0 kmh</cmt></trkpt>
<trkpt lat="51.684234" lon="03.744839"><ele>2</ele><time>2021-01-07T10:02:49Z</time><cmt>5.0 kmh</cmt></trkpt>
<trkpt lat="51.684224" lon="03.744845"><ele>2</ele><time>2021-01-07T10:02:50Z</time><cmt>4.6 kmh</cmt></trkpt>
<trkpt lat="51.684214" lon="03.744851"><ele>2</ele><time>2021-01-07T10:02:51Z</time><cmt>4.8 kmh</cmt></trkpt>
<trkpt lat="51.684202" lon="03.744857"><ele>2</ele><time>2021-01-07T10:02:52Z</time><cmt>5.0 kmh</cmt></trkpt>
<trkpt lat="51.684191" lon="03.744864"><ele>2</ele><time>2021-01-07T10:02:53Z</time><cmt>5.0 kmh</cmt></trkpt>
<trkpt lat="51.684179" lon="03.744871"><ele>2</ele><time>2021-01-07T10:02:54Z</time><cmt>4.3 kmh</cmt></trkpt>
<trkpt lat="51.684167" lon="03.744877"><ele>2</ele><time>2021-01-07T10:02:55Z</time><cmt>4.3 kmh</cmt></trkpt>
<trkpt lat="51.684156" lon="03.744884"><ele>2</ele><time>2021-01-07T10:02:56Z</time><cmt>5.0 kmh</cmt></trkpt>
<trkpt lat="51.684144" lon="03.744892"><ele>2</ele><time>2021-01-07T10:02:57Z</time><cmt>5.0 kmh</cmt></trkpt>
<trkpt lat="51.684133" lon="03.744900"><ele>2</ele><time>2021-01-07T10:02:58Z</time><cmt>5.0 kmh</cmt></trkpt>
<trkpt lat="51.684121" lon="03.744908"><ele>2</ele><time>2021-01-07T10:02:59Z</time><cmt>5.0 kmh</cmt></trkpt>
<trkpt lat="51.684110" lon="03.744915"><ele>2</ele><time>2021-01-07T10:03:00Z</time><cmt>5.0 kmh</cmt></trkpt>
<trkpt lat="51.684099" lon="03.744922"><ele>2</ele><time>2021-01-07T10:03:01Z</time><cmt>4.2 kmh</cmt></trkpt>
<trkpt lat="51.684087" lon="03.744929"><ele>2</ele><time>2021-01-07T10:03:02Z</time><cmt>4.2 kmh</cmt></trkpt>
<trkpt lat="51.684075" lon="03.744936"><ele>2</ele><time>2021-01-07T10:03:03Z</time><cmt>5.2 kmh</cmt></trkpt>
<trkpt lat="51.684062" lon="03.744944"><ele>2</ele><time>2021-01-07T10:03:04Z</time><cmt>5.2 kmh</cmt></trkpt>
<trkpt lat="51.684050" lon="03.744952"><ele>2</ele><time>2021-01-07T10:03:05Z</time><cmt>5.0 kmh</cmt></trkpt>
<trkpt lat="51.684039" lon="03.744959"><ele>2</ele><time>2021-01-07T10:03:06Z</time><cmt>4.4 kmh</cmt></trkpt>
<trkpt lat="51.684027" lon="03.744966"><ele>2</ele><time>2021-01-07T10:03:07Z</time><cmt>4.4 kmh</cmt></trkpt>
<trkpt lat="51.684014" lon="03.744974"><ele>2</ele><time>2021-01-07T10:03:08Z</time><cmt>5.0 kmh</cmt></trkpt>
<trkpt lat="51.684002" lon="03.744983"><ele>2</ele><time>2021-01-07T10:03:09Z</time><cmt>5.0 kmh</cmt></trkpt>
<trkpt lat="51.683990" lon="03.744991"><ele>2</ele><time>2021-01-07T10:03:10Z</time><cmt>5.0 kmh</cmt></trkpt>
<trkpt lat="51.683978" lon="03.744999"><ele>2</ele><time>2021-01-07T10:03:11Z</time><cmt>5.0 kmh</cmt></trkpt>
<trkpt lat="51.683965" lon="03.745007"><ele>2</ele><time>2021-01-07T10:03:12Z</time><cmt>5.0 kmh</cmt></trkpt>
<trkpt lat="51.683952" lon="03.745015"><ele>2</ele><time>2021-01-07T10:03:13Z</time><cmt>5.5 kmh</cmt></trkpt>
<trkpt lat="51.683938" lon="03.745023"><ele>2</ele><time>2021-01-07T10:03:14Z</time><cmt>5.5 kmh</cmt></trkpt>
<trkpt lat="51.683925" lon="03.745032"><ele>2</ele><time>2021-01-07T10:03:15Z</time><cmt>5.5 kmh</cmt></trkpt>
<trkpt lat="51.683912" lon="03.745041"><ele>2</ele><time>2021-01-07T10:03:16Z</time><cmt>5.0 kmh</cmt></trkpt>
<trkpt lat="51.683900" lon="03.745049"><ele>2</ele><time>2021-01-07T10:03:17Z</time><cmt>5.0 kmh</cmt></trkpt>
<trkpt lat="51.683888" lon="03.745056"><ele>2</ele><time>2021-01-07T10:03:18Z</time><cmt>5.0 kmh</cmt></trkpt>
<trkpt lat="51.683876" lon="03.745064"><ele>2</ele><time>2021-01-07T10:03:19Z</time><cmt>5.0 kmh</cmt></trkpt>
<trkpt lat="51.683864" lon="03.745072"><ele>2</ele><time>2021-01-07T10:03:20Z</time><cmt>4.5 kmh</cmt></trkpt>
<trkpt lat="51.683853" lon="03.745080"><ele>3</ele><time>2021-01-07T10:03:21Z</time><cmt>4.4 kmh</cmt></trkpt>
<trkpt lat="51.683841" lon="03.745088"><ele>3</ele><time>2021-01-07T10:03:22Z</time><cmt>5.0 kmh</cmt></trkpt>
<trkpt lat="51.683830" lon="03.745095"><ele>3</ele><time>2021-01-07T10:03:23Z</time><cmt>5.0 kmh</cmt></trkpt>
<trkpt lat="51.683818" lon="03.745103"><ele>3</ele><time>2021-01-07T10:03:24Z</time><cmt>5.0 kmh</cmt></trkpt>
<trkpt lat="51.683807" lon="03.745110"><ele>3</ele><time>2021-01-07T10:03:25Z</time><cmt>5.0 kmh</cmt></trkpt>
<trkpt lat="51.683796" lon="03.745116"><ele>3</ele><time>2021-01-07T10:03:26Z</time><cmt>4.1 kmh</cmt></trkpt>
<trkpt lat="51.683784" lon="03.745122"><ele>3</ele><time>2021-01-07T10:03:27Z</time><cmt>4.1 kmh</cmt></trkpt>
<trkpt lat="51.683772" lon="03.745130"><ele>3</ele><time>2021-01-07T10:03:28Z</time><cmt>5.0 kmh</cmt></trkpt>
<trkpt lat="51.683760" lon="03.745139"><ele>3</ele><time>2021-01-07T10:03:29Z</time><cmt>5.0 kmh</cmt></trkpt>
<trkpt lat="51.683748" lon="03.745147"><ele>3</ele><time>2021-01-07T10:03:30Z</time><cmt>5.0 kmh</cmt></trkpt>
<trkpt lat="51.683736" lon="03.745155"><ele>3</ele><time>2021-01-07T10:03:31Z</time><cmt>5.0 kmh</cmt></trkpt>
<trkpt lat="51.683725" lon="03.745163"><ele>3</ele><time>2021-01-07T10:03:32Z</time><cmt>5.0 kmh</cmt></trkpt>
<trkpt lat="51.683714" lon="03.745170"><ele>3</ele><time>2021-01-07T10:03:33Z</time><cmt>4.1 kmh</cmt></trkpt>
<trkpt lat="51.683702" lon="03.745177"><ele>3</ele><time>2021-01-07T10:03:34Z</time><cmt>4.2 kmh</cmt></trkpt>
<trkpt lat="51.683691" lon="03.745184"><ele>3</ele><time>2021-01-07T10:03:35Z</time><cmt>5.0 kmh</cmt></trkpt>
<trkpt lat="51.683679" lon="03.745192"><ele>3</ele><time>2021-01-07T10:03:36Z</time><cmt>5.0 kmh</cmt></trkpt>
<trkpt lat="51.683668" lon="03.745199"><ele>3</ele><time>2021-01-07T10:03:37Z</time><cmt>5.0 kmh</cmt></trkpt>
<trkpt lat="51.683657" lon="03.745205"><ele>3</ele><time>2021-01-07T10:03:38Z</time><cmt>5.0 kmh</cmt></trkpt>
<trkpt lat="51.683646" lon="03.745212"><ele>3</ele><time>2021-01-07T10:03:39Z</time><cmt>3.9 kmh</cmt></trkpt>
<trkpt lat="51.683635" lon="03.745220"><ele>3</ele><time>2021-01-07T10:03:40Z</time><cmt>4.1 kmh</cmt></trkpt>
<trkpt lat="51.683624" lon="03.745229"><ele>3</ele><time>2021-01-07T10:03:41Z</time><cmt>5.0 kmh</cmt></trkpt>
<trkpt lat="51.683612" lon="03.745238"><ele>3</ele><time>2021-01-07T10:03:42Z</time><cmt>5.0 kmh</cmt></trkpt>
<trkpt lat="51.683600" lon="03.745247"><ele>3</ele><time>2021-01-07T10:03:43Z</time><cmt>5.0 kmh</cmt></trkpt>
<trkpt lat="51.683589" lon="03.745256"><ele>3</ele><time>2021-01-07T10:03:44Z</time><cmt>4.5 kmh</cmt></trkpt>
<trkpt lat="51.683577" lon="03.745265"><ele>3</ele><time>2021-01-07T10:03:45Z</time><cmt>4.4 kmh</cmt></trkpt>
<trkpt lat="51.683566" lon="03.745274"><ele>3</ele><time>2021-01-07T10:03:46Z</time><cmt>5.0 kmh</cmt></trkpt>
<trkpt lat="51.683555" lon="03.745283"><ele>3</ele><time>2021-01-07T10:03:47Z</time><cmt>5.0 kmh</cmt></trkpt>
<trkpt lat="51.683544" lon="03.745292"><ele>3</ele><time>2021-01-07T10:03:48Z</time><cmt>5.0 kmh</cmt></trkpt>
<trkpt lat="51.683534" lon="03.745299"><ele>3</ele><time>2021-01-07T10:03:49Z</time><cmt>5.0 kmh</cmt></trkpt>
<trkpt lat="51.683524" lon="03.745307"><ele>3</ele><time>2021-01-07T10:03:50Z</time><cmt>3.9 kmh</cmt></trkpt>
<trkpt lat="51.683514" lon="03.745315"><ele>3</ele><time>2021-01-07T10:03:51Z</time><cmt>4.7 kmh</cmt></trkpt>
<trkpt lat="51.683504" lon="03.745324"><ele>3</ele><time>2021-01-07T10:03:52Z</time><cmt>4.9 kmh</cmt></trkpt>
<trkpt lat="51.683493" lon="03.745333"><ele>3</ele><time>2021-01-07T10:03:53Z</time><cmt>4.1 kmh</cmt></trkpt>
<trkpt lat="51.683483" lon="03.745341"><ele>3</ele><time>2021-01-07T10:03:54Z</time><cmt>5.0 kmh</cmt></trkpt>
<trkpt lat="51.683473" lon="03.745348"><ele>3</ele><time>2021-01-07T10:03:55Z</time><cmt>4.9 kmh</cmt></trkpt>
<trkpt lat="51.683462" lon="03.745357"><ele>3</ele><time>2021-01-07T10:03:56Z</time><cmt>5.1 kmh</cmt></trkpt>
<trkpt lat="51.683451" lon="03.745368"><ele>3</ele><time>2021-01-07T10:03:57Z</time><cmt>5.1 kmh</cmt></trkpt>
<trkpt lat="51.683440" lon="03.745381"><ele>3</ele><time>2021-01-07T10:03:58Z</time><cmt>5.0 kmh</cmt></trkpt>
<trkpt lat="51.683430" lon="03.745392"><ele>3</ele><time>2021-01-07T10:03:59Z</time><cmt>5.0 kmh</cmt></trkpt>
<trkpt lat="51.683420" lon="03.745402"><ele>3</ele><time>2021-01-07T10:04:00Z</time><cmt>5.0 kmh</cmt></trkpt>
<trkpt lat="51.683411" lon="03.745410"><ele>3</ele><time>2021-01-07T10:04:01Z</time><cmt>4.7 kmh</cmt></trkpt>
<trkpt lat="51.683402" lon="03.745418"><ele>3</ele><time>2021-01-07T10:04:02Z</time><cmt>4.6 kmh</cmt></trkpt>
<trkpt lat="51.683392" lon="03.745425"><ele>3</ele><time>2021-01-07T10:04:03Z</time><cmt>4.6 kmh</cmt></trkpt>
<trkpt lat="51.683382" lon="03.745433"><ele>3</ele><time>2021-01-07T10:04:04Z</time><cmt>3.8 kmh</cmt></trkpt>
<trkpt lat="51.683371" lon="03.745443"><ele>3</ele><time>2021-01-07T10:04:05Z</time><cmt>4.1 kmh</cmt></trkpt>
<trkpt lat="51.683361" lon="03.745451"><ele>3</ele><time>2021-01-07T10:04:06Z</time><cmt>5.0 kmh</cmt></trkpt>
<trkpt lat="51.683351" lon="03.745458"><ele>3</ele><time>2021-01-07T10:04:07Z</time><cmt>4.9 kmh</cmt></trkpt>
<trkpt lat="51.683341" lon="03.745466"><ele>3</ele><time>2021-01-07T10:04:08Z</time><cmt>4.7 kmh</cmt></trkpt>
<trkpt lat="51.683332" lon="03.745475"><ele>3</ele><time>2021-01-07T10:04:09Z</time><cmt>4.7 kmh</cmt></trkpt>
<trkpt lat="51.683322" lon="03.745483"><ele>3</ele><time>2021-01-07T10:04:10Z</time><cmt>4.6 kmh</cmt></trkpt>
<trkpt lat="51.683313" lon="03.745493"><ele>3</ele><time>2021-01-07T10:04:11Z</time><cmt>3.8 kmh</cmt></trkpt>
<trkpt lat="51.683304" lon="03.745503"><ele>2</ele><time>2021-01-07T10:04:12Z</time><cmt>3.8 kmh</cmt></trkpt>
<trkpt lat="51.683294" lon="03.745513"><ele>2</ele><time>2021-01-07T10:04:13Z</time><cmt>4.9 kmh</cmt></trkpt>
<trkpt lat="51.683284" lon="03.745523"><ele>2</ele><time>2021-01-07T10:04:14Z</time><cmt>5.0 kmh</cmt></trkpt>
<trkpt lat="51.683273" lon="03.745531"><ele>2</ele><time>2021-01-07T10:04:15Z</time><cmt>5.0 kmh</cmt></trkpt>
<trkpt lat="51.683264" lon="03.745539"><ele>2</ele><time>2021-01-07T10:04:16Z</time><cmt>4.8 kmh</cmt></trkpt>
<trkpt lat="51.683254" lon="03.745547"><ele>2</ele><time>2021-01-07T10:04:17Z</time><cmt>3.7 kmh</cmt></trkpt>
<trkpt lat="51.683245" lon="03.745553"><ele>2</ele><time>2021-01-07T10:04:18Z</time><cmt>3.6 kmh</cmt></trkpt>
<trkpt lat="51.683235" lon="03.745559"><ele>2</ele><time>2021-01-07T10:04:19Z</time><cmt>4.5 kmh</cmt></trkpt>
<trkpt lat="51.683225" lon="03.745566"><ele>2</ele><time>2021-01-07T10:04:20Z</time><cmt>4.6 kmh</cmt></trkpt>
<trkpt lat="51.683216" lon="03.745575"><ele>2</ele><time>2021-01-07T10:04:21Z</time><cmt>4.5 kmh</cmt></trkpt>
<trkpt lat="51.683208" lon="03.745582"><ele>2</ele><time>2021-01-07T10:04:22Z</time><cmt>4.2 kmh</cmt></trkpt>
<trkpt lat="51.683198" lon="03.745590"><ele>2</ele><time>2021-01-07T10:04:23Z</time><cmt>3.5 kmh</cmt></trkpt>
<trkpt lat="51.683188" lon="03.745599"><ele>2</ele><time>2021-01-07T10:04:24Z</time><cmt>3.9 kmh</cmt></trkpt>
<trkpt lat="51.683178" lon="03.745607"><ele>1</ele><time>2021-01-07T10:04:25Z</time><cmt>4.9 kmh</cmt></trkpt>
<trkpt lat="51.683167" lon="03.745616"><ele>1</ele><time>2021-01-07T10:04:26Z</time><cmt>5.0 kmh</cmt></trkpt>
<trkpt lat="51.683155" lon="03.745625"><ele>1</ele><time>2021-01-07T10:04:27Z</time><cmt>5.0 kmh</cmt></trkpt>
<trkpt lat="51.683143" lon="03.745634"><ele>1</ele><time>2021-01-07T10:04:28Z</time><cmt>5.0 kmh</cmt></trkpt>
<trkpt lat="51.683132" lon="03.745643"><ele>1</ele><time>2021-01-07T10:04:29Z</time><cmt>5.0 kmh</cmt></trkpt>
<trkpt lat="51.683120" lon="03.745653"><ele>1</ele><time>2021-01-07T10:04:30Z</time><cmt>4.6 kmh</cmt></trkpt>
<trkpt lat="51.683108" lon="03.745663"><ele>1</ele><time>2021-01-07T10:04:31Z</time><cmt>5.0 kmh</cmt></trkpt>
<trkpt lat="51.683096" lon="03.745674"><ele>1</ele><time>2021-01-07T10:04:32Z</time><cmt>5.0 kmh</cmt></trkpt>
<trkpt lat="51.683084" lon="03.745685"><ele>1</ele><time>2021-01-07T10:04:33Z</time><cmt>5.0 kmh</cmt></trkpt>
<trkpt lat="51.683072" lon="03.745695"><ele>1</ele><time>2021-01-07T10:04:34Z</time><cmt>5.0 kmh</cmt></trkpt>
<trkpt lat="51.683061" lon="03.745704"><ele>1</ele><time>2021-01-07T10:04:35Z</time><cmt>4.4 kmh</cmt></trkpt>
<trkpt lat="51.683051" lon="03.745711"><ele>1</ele><time>2021-01-07T10:04:36Z</time><cmt>4.1 kmh</cmt></trkpt>
<trkpt lat="51.683041" lon="03.745719"><ele>1</ele><time>2021-01-07T10:04:37Z</time><cmt>5.4 kmh</cmt></trkpt>
<trkpt lat="51.683030" lon="03.745726"><ele>1</ele><time>2021-01-07T10:04:38Z</time><cmt>5.4 kmh</cmt></trkpt>
<trkpt lat="51.683019" lon="03.745735"><ele>1</ele><time>2021-01-07T10:04:39Z</time><cmt>5.3 kmh</cmt></trkpt>
<trkpt lat="51.683008" lon="03.745744"><ele>1</ele><time>2021-01-07T10:04:40Z</time><cmt>5.3 kmh</cmt></trkpt>
<trkpt lat="51.682997" lon="03.745753"><ele>1</ele><time>2021-01-07T10:04:41Z</time><cmt>5.0 kmh</cmt></trkpt>
<trkpt lat="51.682987" lon="03.745762"><ele>1</ele><time>2021-01-07T10:04:42Z</time><cmt>4.2 kmh</cmt></trkpt>
<trkpt lat="51.682976" lon="03.745770"><ele>1</ele><time>2021-01-07T10:04:43Z</time><cmt>4.1 kmh</cmt></trkpt>
<trkpt lat="51.682965" lon="03.745778"><ele>1</ele><time>2021-01-07T10:04:44Z</time><cmt>5.0 kmh</cmt></trkpt>
<trkpt lat="51.682956" lon="03.745786"><ele>1</ele><time>2021-01-07T10:04:45Z</time><cmt>4.9 kmh</cmt></trkpt>
<trkpt lat="51.682945" lon="03.745795"><ele>1</ele><time>2021-01-07T10:04:46Z</time><cmt>5.1 kmh</cmt></trkpt>
<trkpt lat="51.682934" lon="03.745805"><ele>1</ele><time>2021-01-07T10:04:47Z</time><cmt>5.0 kmh</cmt></trkpt>
<trkpt lat="51.682923" lon="03.745814"><ele>1</ele><time>2021-01-07T10:04:48Z</time><cmt>5.0 kmh</cmt></trkpt>
<trkpt lat="51.682912" lon="03.745824"><ele>1</ele><time>2021-01-07T10:04:49Z</time><cmt>4.2 kmh</cmt></trkpt>
<trkpt lat="51.682902" lon="03.745833"><ele>1</ele><time>2021-01-07T10:04:50Z</time><cmt>5.0 kmh</cmt></trkpt>
<trkpt lat="51.682892" lon="03.745841"><ele>1</ele><time>2021-01-07T10:04:51Z</time><cmt>5.0 kmh</cmt></trkpt>
<trkpt lat="51.682881" lon="03.745851"><ele>1</ele><time>2021-01-07T10:04:52Z</time><cmt>5.0 kmh</cmt></trkpt>
<trkpt lat="51.682869" lon="03.745863"><ele>1</ele><time>2021-01-07T10:04:53Z</time><cmt>5.0 kmh</cmt></trkpt>
<trkpt lat="51.682858" lon="03.745872"><ele>1</ele><time>2021-01-07T10:04:54Z</time><cmt>5.0 kmh</cmt></trkpt>
<trkpt lat="51.682848" lon="03.745881"><ele>1</ele><time>2021-01-07T10:04:55Z</time><cmt>4.1 kmh</cmt></trkpt>
<trkpt lat="51.682838" lon="03.745888"><ele>1</ele><time>2021-01-07T10:04:56Z</time><cmt>4.0 kmh</cmt></trkpt>
<trkpt lat="51.682828" lon="03.745896"><ele>1</ele><time>2021-01-07T10:04:57Z</time><cmt>4.8 kmh</cmt></trkpt>
<trkpt lat="51.682818" lon="03.745903"><ele>1</ele><time>2021-01-07T10:04:58Z</time><cmt>4.7 kmh</cmt></trkpt>
<trkpt lat="51.682808" lon="03.745910"><ele>1</ele><time>2021-01-07T10:04:59Z</time><cmt>4.6 kmh</cmt></trkpt>
<trkpt lat="51.682798" lon="03.745919"><ele>1</ele><time>2021-01-07T10:05:00Z</time><cmt>3.9 kmh</cmt></trkpt>
<trkpt lat="51.682786" lon="03.745928"><ele>1</ele><time>2021-01-07T10:05:01Z</time><cmt>4.2 kmh</cmt></trkpt>
<trkpt lat="51.682776" lon="03.745938"><ele>1</ele><time>2021-01-07T10:05:02Z</time><cmt>5.0 kmh</cmt></trkpt>
<trkpt lat="51.682764" lon="03.745947"><ele>1</ele><time>2021-01-07T10:05:03Z</time><cmt>5.0 kmh</cmt></trkpt>
<trkpt lat="51.682754" lon="03.745955"><ele>1</ele><time>2021-01-07T10:05:04Z</time><cmt>5.0 kmh</cmt></trkpt>
<trkpt lat="51.682744" lon="03.745963"><ele>1</ele><time>2021-01-07T10:05:05Z</time><cmt>5.0 kmh</cmt></trkpt>
<trkpt lat="51.682735" lon="03.745972"><ele>1</ele><time>2021-01-07T10:05:06Z</time><cmt>4.7 kmh</cmt></trkpt>
<trkpt lat="51.682725" lon="03.745981"><ele>0</ele><time>2021-01-07T10:05:07Z</time><cmt>4.6 kmh</cmt></trkpt>
<trkpt lat="51.682715" lon="03.745989"><ele>0</ele><time>2021-01-07T10:05:08Z</time><cmt>3.7 kmh</cmt></trkpt>
<trkpt lat="51.682705" lon="03.745996"><ele>0</ele><time>2021-01-07T10:05:09Z</time><cmt>3.8 kmh</cmt></trkpt>
<trkpt lat="51.682695" lon="03.746003"><ele>0</ele><time>2021-01-07T10:05:10Z</time><cmt>4.9 kmh</cmt></trkpt>
<trkpt lat="51.682685" lon="03.746011"><ele>0</ele><time>2021-01-07T10:05:11Z</time><cmt>4.9 kmh</cmt></trkpt>
<trkpt lat="51.682674" lon="03.746019"><ele>0</ele><time>2021-01-07T10:05:12Z</time><cmt>4.9 kmh</cmt></trkpt>
<trkpt lat="51.682663" lon="03.746029"><ele>0</ele><time>2021-01-07T10:05:13Z</time><cmt>5.0 kmh</cmt></trkpt>
<trkpt lat="51.682652" lon="03.746040"><ele>0</ele><time>2021-01-07T10:05:14Z</time><cmt>4.4 kmh</cmt></trkpt>
<trkpt lat="51.682641" lon="03.746049"><ele>0</ele><time>2021-01-07T10:05:15Z</time><cmt>4.4 kmh</cmt></trkpt>
<trkpt lat="51.682629" lon="03.746057"><ele>0</ele><time>2021-01-07T10:05:16Z</time><cmt>5.0 kmh</cmt></trkpt>
<trkpt lat="51.682618" lon="03.746064"><ele>0</ele><time>2021-01-07T10:05:17Z</time><cmt>5.0 kmh</cmt></trkpt>
<trkpt lat="51.682607" lon="03.746071"><ele>0</ele><time>2021-01-07T10:05:18Z</time><cmt>5.0 kmh</cmt></trkpt>
<trkpt lat="51.682596" lon="03.746079"><ele>0</ele><time>2021-01-07T10:05:19Z</time><cmt>4.1 kmh</cmt></trkpt>
<trkpt lat="51.682585" lon="03.746088"><ele>0</ele><time>2021-01-07T10:05:20Z</time><cmt>4.3 kmh</cmt></trkpt>
<trkpt lat="51.682574" lon="03.746096"><ele>0</ele><time>2021-01-07T10:05:21Z</time><cmt>5.0 kmh</cmt></trkpt>
<trkpt lat="51.682563" lon="03.746104"><ele>0</ele><time>2021-01-07T10:05:22Z</time><cmt>5.0 kmh</cmt></trkpt>
<trkpt lat="51.682553" lon="03.746112"><ele>0</ele><time>2021-01-07T10:05:23Z</time><cmt>5.0 kmh</cmt></trkpt>
<trkpt lat="51.682541" lon="03.746120"><ele>0</ele><time>2021-01-07T10:05:24Z</time><cmt>5.0 kmh</cmt></trkpt>
<trkpt lat="51.682532" lon="03.746127"><ele>0</ele><time>2021-01-07T10:05:25Z</time><cmt>4.9 kmh</cmt></trkpt>
<trkpt lat="51.682524" lon="03.746134"><ele>0</ele><time>2021-01-07T10:05:26Z</time><cmt>4.1 kmh</cmt></trkpt>
<trkpt lat="51.682518" lon="03.746140"><ele>0</ele><time>2021-01-07T10:05:27Z</time><cmt>2.8 kmh</cmt></trkpt>
<trkpt lat="51.682511" lon="03.746146"><ele>0</ele><time>2021-01-07T10:05:28Z</time><cmt>2.8 kmh</cmt></trkpt>
<trkpt lat="51.682503" lon="03.746153"><ele>0</ele><time>2021-01-07T10:05:29Z</time><cmt>3.6 kmh</cmt></trkpt>
<trkpt lat="51.682495" lon="03.746160"><ele>0</ele><time>2021-01-07T10:05:30Z</time><cmt>3.7 kmh</cmt></trkpt>
<trkpt lat="51.682487" lon="03.746168"><ele>0</ele><time>2021-01-07T10:05:31Z</time><cmt>4.0 kmh</cmt></trkpt>
<trkpt lat="51.682478" lon="03.746176"><ele>0</ele><time>2021-01-07T10:05:32Z</time><cmt>4.4 kmh</cmt></trkpt>
<trkpt lat="51.682468" lon="03.746184"><ele>0</ele><time>2021-01-07T10:05:33Z</time><cmt>3.7 kmh</cmt></trkpt>
<trkpt lat="51.682458" lon="03.746191"><ele>0</ele><time>2021-01-07T10:05:34Z</time><cmt>3.8 kmh</cmt></trkpt>
<trkpt lat="51.682448" lon="03.746199"><ele>0</ele><time>2021-01-07T10:05:35Z</time><cmt>4.7 kmh</cmt></trkpt>
<trkpt lat="51.682438" lon="03.746207"><ele>0</ele><time>2021-01-07T10:05:36Z</time><cmt>4.8 kmh</cmt></trkpt>
<trkpt lat="51.682427" lon="03.746216"><ele>0</ele><time>2021-01-07T10:05:37Z</time><cmt>5.0 kmh</cmt></trkpt>
<trkpt lat="51.682418" lon="03.746225"><ele>0</ele><time>2021-01-07T10:05:38Z</time><cmt>4.0 kmh</cmt></trkpt>
<trkpt lat="51.682408" lon="03.746232"><ele>0</ele><time>2021-01-07T10:05:39Z</time><cmt>4.8 kmh</cmt></trkpt>
<trkpt lat="51.682396" lon="03.746240"><ele>0</ele><time>2021-01-07T10:05:40Z</time><cmt>5.0 kmh</cmt></trkpt>
<trkpt lat="51.682383" lon="03.746250"><ele>0</ele><time>2021-01-07T10:05:41Z</time><cmt>4.7 kmh</cmt></trkpt>
<trkpt lat="51.682369" lon="03.746261"><ele>0</ele><time>2021-01-07T10:05:42Z</time><cmt>5.6 kmh</cmt></trkpt>
<trkpt lat="51.682355" lon="03.746273"><ele>0</ele><time>2021-01-07T10:05:43Z</time><cmt>5.1 kmh</cmt></trkpt>
<trkpt lat="51.682342" lon="03.746283"><ele>0</ele><time>2021-01-07T10:05:44Z</time><cmt>5.1 kmh</cmt></trkpt>
<trkpt lat="51.682331" lon="03.746291"><ele>0</ele><time>2021-01-07T10:05:45Z</time><cmt>5.0 kmh</cmt></trkpt>
<trkpt lat="51.682320" lon="03.746299"><ele>0</ele><time>2021-01-07T10:05:46Z</time><cmt>4.2 kmh</cmt></trkpt>
<trkpt lat="51.682310" lon="03.746307"><ele>0</ele><time>2021-01-07T10:05:47Z</time><cmt>4.0 kmh</cmt></trkpt>
<trkpt lat="51.682301" lon="03.746315"><ele>0</ele><time>2021-01-07T10:05:48Z</time><cmt>4.7 kmh</cmt></trkpt>
<trkpt lat="51.682291" lon="03.746323"><ele>0</ele><time>2021-01-07T10:05:49Z</time><cmt>4.5 kmh</cmt></trkpt>
<trkpt lat="51.682281" lon="03.746330"><ele>0</ele><time>2021-01-07T10:05:50Z</time><cmt>4.6 kmh</cmt></trkpt>
<trkpt lat="51.682270" lon="03.746337"><ele>0</ele><time>2021-01-07T10:05:51Z</time><cmt>4.9 kmh</cmt></trkpt>
<trkpt lat="51.682259" lon="03.746344"><ele>0</ele><time>2021-01-07T10:05:52Z</time><cmt>4.1 kmh</cmt></trkpt>
<trkpt lat="51.682249" lon="03.746352"><ele>0</ele><time>2021-01-07T10:05:53Z</time><cmt>4.0 kmh</cmt></trkpt>
<trkpt lat="51.682239" lon="03.746359"><ele>0</ele><time>2021-01-07T10:05:54Z</time><cmt>4.8 kmh</cmt></trkpt>
<trkpt lat="51.682228" lon="03.746367"><ele>0</ele><time>2021-01-07T10:05:55Z</time><cmt>5.0 kmh</cmt></trkpt>
<trkpt lat="51.682217" lon="03.746376"><ele>0</ele><time>2021-01-07T10:05:56Z</time><cmt>5.0 kmh</cmt></trkpt>
<trkpt lat="51.682204" lon="03.746383"><ele>0</ele><time>2021-01-07T10:05:57Z</time><cmt>5.0 kmh</cmt></trkpt>
<trkpt lat="51.682191" lon="03.746390"><ele>0</ele><time>2021-01-07T10:05:58Z</time><cmt>4.6 kmh</cmt></trkpt>
<trkpt lat="51.682181" lon="03.746394"><ele>0</ele><time>2021-01-07T10:05:59Z</time><cmt>4.0 kmh</cmt></trkpt>
<trkpt lat="51.682172" lon="03.746399"><ele>0</ele><time>2021-01-07T10:06:00Z</time><cmt>4.3 kmh</cmt></trkpt>
<trkpt lat="51.682163" lon="03.746405"><ele>0</ele><time>2021-01-07T10:06:01Z</time><cmt>4.2 kmh</cmt></trkpt>
<trkpt lat="51.682154" lon="03.746412"><ele>0</ele><time>2021-01-07T10:06:02Z</time><cmt>4.3 kmh</cmt></trkpt>
<trkpt lat="51.682144" lon="03.746418"><ele>0</ele><time>2021-01-07T10:06:03Z</time><cmt>4.4 kmh</cmt></trkpt>
<trkpt lat="51.682134" lon="03.746424"><ele>0</ele><time>2021-01-07T10:06:04Z</time><cmt>3.7 kmh</cmt></trkpt>
<trkpt lat="51.682123" lon="03.746431"><ele>0</ele><time>2021-01-07T10:06:05Z</time><cmt>3.9 kmh</cmt></trkpt>
<trkpt lat="51.682112" lon="03.746438"><ele>0</ele><time>2021-01-07T10:06:06Z</time><cmt>5.0 kmh</cmt></trkpt>
<trkpt lat="51.682100" lon="03.746447"><ele>0</ele><time>2021-01-07T10:06:07Z</time><cmt>5.0 kmh</cmt></trkpt>
<trkpt lat="51.682090" lon="03.746457"><ele>0</ele><time>2021-01-07T10:06:08Z</time><cmt>5.0 kmh</cmt></trkpt>
<trkpt lat="51.682079" lon="03.746466"><ele>0</ele><time>2021-01-07T10:06:09Z</time><cmt>5.0 kmh</cmt></trkpt>
<trkpt lat="51.682067" lon="03.746476"><ele>0</ele><time>2021-01-07T10:06:10Z</time><cmt>4.4 kmh</cmt></trkpt>
<trkpt lat="51.682056" lon="03.746484"><ele>0</ele><time>2021-01-07T10:06:11Z</time><cmt>4.4 kmh</cmt></trkpt>
<trkpt lat="51.682044" lon="03.746492"><ele>0</ele><time>2021-01-07T10:06:12Z</time><cmt>5.0 kmh</cmt></trkpt>
<trkpt lat="51.682033" lon="03.746501"><ele>0</ele><time>2021-01-07T10:06:13Z</time><cmt>5.0 kmh</cmt></trkpt>
<trkpt lat="51.682022" lon="03.746510"><ele>0</ele><time>2021-01-07T10:06:14Z</time><cmt>5.0 kmh</cmt></trkpt>
<trkpt lat="51.682010" lon="03.746519"><ele>0</ele><time>2021-01-07T10:06:15Z</time><cmt>5.0 kmh</cmt></trkpt>
<trkpt lat="51.681999" lon="03.746527"><ele>0</ele><time>2021-01-07T10:06:16Z</time><cmt>5.0 kmh</cmt></trkpt>
<trkpt lat="51.681988" lon="03.746538"><ele>0</ele><time>2021-01-07T10:06:17Z</time><cmt>5.0 kmh</cmt></trkpt>
<trkpt lat="51.681977" lon="03.746548"><ele>0</ele><time>2021-01-07T10:06:18Z</time><cmt>4.4 kmh</cmt></trkpt>
<trkpt lat="51.681966" lon="03.746557"><ele>0</ele><time>2021-01-07T10:06:19Z</time><cmt>4.4 kmh</cmt></trkpt>
<trkpt lat="51.681954" lon="03.746567"><ele>0</ele><time>2021-01-07T10:06:20Z</time><cmt>5.0 kmh</cmt></trkpt>
<trkpt lat="51.681943" lon="03.746575"><ele>0</ele><time>2021-01-07T10:06:21Z</time><cmt>5.0 kmh</cmt></trkpt>
<trkpt lat="51.681931" lon="03.746582"><ele>0</ele><time>2021-01-07T10:06:22Z</time><cmt>5.0 kmh</cmt></trkpt>
<trkpt lat="51.681920" lon="03.746591"><ele>0</ele><time>2021-01-07T10:06:23Z</time><cmt>5.0 kmh</cmt></trkpt>
<trkpt lat="51.681910" lon="03.746600"><ele>0</ele><time>2021-01-07T10:06:24Z</time><cmt>4.2 kmh</cmt></trkpt>
<trkpt lat="51.681900" lon="03.746609"><ele>0</ele><time>2021-01-07T10:06:25Z</time><cmt>4.0 kmh</cmt></trkpt>
<trkpt lat="51.681889" lon="03.746617"><ele>0</ele><time>2021-01-07T10:06:26Z</time><cmt>5.0 kmh</cmt></trkpt>
<trkpt lat="51.681878" lon="03.746626"><ele>0</ele><time>2021-01-07T10:06:27Z</time><cmt>5.0 kmh</cmt></trkpt>
<trkpt lat="51.681867" lon="03.746635"><ele>0</ele><time>2021-01-07T10:06:28Z</time><cmt>5.0 kmh</cmt></trkpt>
<trkpt lat="51.681856" lon="03.746644"><ele>0</ele><time>2021-01-07T10:06:29Z</time><cmt>5.0 kmh</cmt></trkpt>
<trkpt lat="51.681845" lon="03.746653"><ele>0</ele><time>2021-01-07T10:06:30Z</time><cmt>5.0 kmh</cmt></trkpt>
<trkpt lat="51.681834" lon="03.746661"><ele>0</ele><time>2021-01-07T10:06:31Z</time><cmt>4.2 kmh</cmt></trkpt>
<trkpt lat="51.681823" lon="03.746669"><ele>0</ele><time>2021-01-07T10:06:32Z</time><cmt>4.2 kmh</cmt></trkpt>
<trkpt lat="51.681812" lon="03.746677"><ele>0</ele><time>2021-01-07T10:06:33Z</time><cmt>5.0 kmh</cmt></trkpt>
<trkpt lat="51.681801" lon="03.746686"><ele>0</ele><time>2021-01-07T10:06:34Z</time><cmt>5.0 kmh</cmt></trkpt>
<trkpt lat="51.681790" lon="03.746694"><ele>0</ele><time>2021-01-07T10:06:35Z</time><cmt>5.0 kmh</cmt></trkpt>
<trkpt lat="51.681778" lon="03.746705"><ele>0</ele><time>2021-01-07T10:06:36Z</time><cmt>4.5 kmh</cmt></trkpt>
<trkpt lat="51.681767" lon="03.746715"><ele>0</ele><time>2021-01-07T10:06:37Z</time><cmt>4.6 kmh</cmt></trkpt>
<trkpt lat="51.681755" lon="03.746724"><ele>0</ele><time>2021-01-07T10:06:38Z</time><cmt>5.0 kmh</cmt></trkpt>
<trkpt lat="51.681744" lon="03.746731"><ele>0</ele><time>2021-01-07T10:06:39Z</time><cmt>5.0 kmh</cmt></trkpt>
<trkpt lat="51.681734" lon="03.746737"><ele>0</ele><time>2021-01-07T10:06:40Z</time><cmt>5.0 kmh</cmt></trkpt>
<trkpt lat="51.681724" lon="03.746742"><ele>0</ele><time>2021-01-07T10:06:41Z</time><cmt>4.7 kmh</cmt></trkpt>
<trkpt lat="51.681714" lon="03.746747"><ele>0</ele><time>2021-01-07T10:06:42Z</time><cmt>3.6 kmh</cmt></trkpt>
<trkpt lat="51.681703" lon="03.746754"><ele>0</ele><time>2021-01-07T10:06:43Z</time><cmt>3.8 kmh</cmt></trkpt>
<trkpt lat="51.681692" lon="03.746762"><ele>0</ele><time>2021-01-07T10:06:44Z</time><cmt>5.0 kmh</cmt></trkpt>
<trkpt lat="51.681681" lon="03.746771"><ele>0</ele><time>2021-01-07T10:06:45Z</time><cmt>5.0 kmh</cmt></trkpt>
<trkpt lat="51.681669" lon="03.746780"><ele>0</ele><time>2021-01-07T10:06:46Z</time><cmt>5.0 kmh</cmt></trkpt>
<trkpt lat="51.681658" lon="03.746789"><ele>0</ele><time>2021-01-07T10:06:47Z</time><cmt>5.0 kmh</cmt></trkpt>
<trkpt lat="51.681645" lon="03.746799"><ele>0</ele><time>2021-01-07T10:06:48Z</time><cmt>5.0 kmh</cmt></trkpt>
<trkpt lat="51.681634" lon="03.746809"><ele>0</ele><time>2021-01-07T10:06:49Z</time><cmt>4.6 kmh</cmt></trkpt>
<trkpt lat="51.681608" lon="03.746829"><ele>0</ele><time>2021-01-07T10:06:52Z</time><cmt>4.2 kmh</cmt></trkpt>
<trkpt lat="51.681575" lon="03.746856"><ele>0</ele><time>2021-01-07T10:06:55Z</time><cmt>4.5 kmh</cmt></trkpt>
<trkpt lat="51.681544" lon="03.746885"><ele>1</ele><time>2021-01-07T10:06:58Z</time><cmt>5.0 kmh</cmt></trkpt>
<trkpt lat="51.681511" lon="03.746915"><ele>1</ele><time>2021-01-07T10:07:01Z</time><cmt>4.8 kmh</cmt></trkpt>
<trkpt lat="51.681481" lon="03.746980"><ele>2</ele><time>2021-01-07T10:07:14Z</time><cmt>5.0 kmh</cmt></trkpt>
<trkpt lat="51.681449" lon="03.747024"><ele>2</ele><time>2021-01-07T10:07:19Z</time><cmt>4.5 kmh</cmt></trkpt>
<trkpt lat="51.681425" lon="03.747053"><ele>2</ele><time>2021-01-07T10:07:22Z</time><cmt>3.7 kmh</cmt></trkpt>
<trkpt lat="51.681418" lon="03.747060"><ele>2</ele><time>2021-01-07T10:07:23Z</time><cmt>5.0 kmh</cmt></trkpt>
<trkpt lat="51.681410" lon="03.747068"><ele>2</ele><time>2021-01-07T10:07:24Z</time><cmt>3.7 kmh</cmt></trkpt>
<trkpt lat="51.681402" lon="03.747078"><ele>2</ele><time>2021-01-07T10:07:25Z</time><cmt>4.2 kmh</cmt></trkpt>
<trkpt lat="51.681393" lon="03.747090"><ele>2</ele><time>2021-01-07T10:07:26Z</time><cmt>4.7 kmh</cmt></trkpt>
<trkpt lat="51.681384" lon="03.747100"><ele>2</ele><time>2021-01-07T10:07:27Z</time><cmt>3.9 kmh</cmt></trkpt>
<trkpt lat="51.681375" lon="03.747112"><ele>1</ele><time>2021-01-07T10:07:28Z</time><cmt>3.9 kmh</cmt></trkpt>
<trkpt lat="51.681365" lon="03.747123"><ele>1</ele><time>2021-01-07T10:07:29Z</time><cmt>5.0 kmh</cmt></trkpt>
<trkpt lat="51.681356" lon="03.747134"><ele>1</ele><time>2021-01-07T10:07:30Z</time><cmt>4.9 kmh</cmt></trkpt>
<trkpt lat="51.681348" lon="03.747143"><ele>1</ele><time>2021-01-07T10:07:31Z</time><cmt>4.5 kmh</cmt></trkpt>
<trkpt lat="51.681339" lon="03.747153"><ele>1</ele><time>2021-01-07T10:07:32Z</time><cmt>4.5 kmh</cmt></trkpt>
<trkpt lat="51.681331" lon="03.747163"><ele>1</ele><time>2021-01-07T10:07:33Z</time><cmt>3.7 kmh</cmt></trkpt>
<trkpt lat="51.681322" lon="03.747175"><ele>1</ele><time>2021-01-07T10:07:34Z</time><cmt>3.7 kmh</cmt></trkpt>
<trkpt lat="51.681314" lon="03.747185"><ele>1</ele><time>2021-01-07T10:07:35Z</time><cmt>4.6 kmh</cmt></trkpt>
<trkpt lat="51.681307" lon="03.747196"><ele>1</ele><time>2021-01-07T10:07:36Z</time><cmt>4.4 kmh</cmt></trkpt>
<trkpt lat="51.681300" lon="03.747207"><ele>1</ele><time>2021-01-07T10:07:37Z</time><cmt>4.3 kmh</cmt></trkpt>
<trkpt lat="51.681294" lon="03.747220"><ele>1</ele><time>2021-01-07T10:07:38Z</time><cmt>4.2 kmh</cmt></trkpt>
<trkpt lat="51.681289" lon="03.747232"><ele>1</ele><time>2021-01-07T10:07:39Z</time><cmt>3.2 kmh</cmt></trkpt>
<trkpt lat="51.681276" lon="03.747257"><ele>1</ele><time>2021-01-07T10:07:41Z</time><cmt>3.6 kmh</cmt></trkpt>
<trkpt lat="51.681248" lon="03.747306"><ele>1</ele><time>2021-01-07T10:07:43Z</time><cmt>5.0 kmh</cmt></trkpt>
<trkpt lat="51.681226" lon="03.747325"><ele>1</ele><time>2021-01-07T10:07:46Z</time><cmt>3.0 kmh</cmt></trkpt>
<trkpt lat="51.681188" lon="03.747342"><ele>1</ele><time>2021-01-07T10:07:51Z</time><cmt>5.0 kmh</cmt></trkpt>
<trkpt lat="51.681165" lon="03.747349"><ele>1</ele><time>2021-01-07T10:07:54Z</time><cmt>2.9 kmh</cmt></trkpt>
<trkpt lat="51.681145" lon="03.747359"><ele>1</ele><time>2021-01-07T10:07:56Z</time><cmt>5.0 kmh</cmt></trkpt>
<trkpt lat="51.681124" lon="03.747372"><ele>1</ele><time>2021-01-07T10:07:58Z</time><cmt>4.8 kmh</cmt></trkpt>
<trkpt lat="51.681102" lon="03.747383"><ele>1</ele><time>2021-01-07T10:08:00Z</time><cmt>3.9 kmh</cmt></trkpt>
<trkpt lat="51.681083" lon="03.747395"><ele>1</ele><time>2021-01-07T10:08:02Z</time><cmt>5.0 kmh</cmt></trkpt>
<trkpt lat="51.681061" lon="03.747410"><ele>1</ele><time>2021-01-07T10:08:04Z</time><cmt>4.8 kmh</cmt></trkpt>
<trkpt lat="51.681041" lon="03.747423"><ele>1</ele><time>2021-01-07T10:08:06Z</time><cmt>4.3 kmh</cmt></trkpt>
<trkpt lat="51.681011" lon="03.747441"><ele>1</ele><time>2021-01-07T10:08:09Z</time><cmt>4.5 kmh</cmt></trkpt>
<trkpt lat="51.680979" lon="03.747455"><ele>1</ele><time>2021-01-07T10:08:12Z</time><cmt>4.2 kmh</cmt></trkpt>
<trkpt lat="51.680949" lon="03.747472"><ele>2</ele><time>2021-01-07T10:08:15Z</time><cmt>4.6 kmh</cmt></trkpt>
<trkpt lat="51.680918" lon="03.747490"><ele>2</ele><time>2021-01-07T10:08:18Z</time><cmt>4.7 kmh</cmt></trkpt>
<trkpt lat="51.680888" lon="03.747507"><ele>2</ele><time>2021-01-07T10:08:21Z</time><cmt>3.9 kmh</cmt></trkpt>
<trkpt lat="51.680856" lon="03.747535"><ele>2</ele><time>2021-01-07T10:08:24Z</time><cmt>5.0 kmh</cmt></trkpt>
<trkpt lat="51.680814" lon="03.747571"><ele>2</ele><time>2021-01-07T10:08:27Z</time><cmt>5.1 kmh</cmt></trkpt>
<trkpt lat="51.680804" lon="03.747581"><ele>2</ele><time>2021-01-07T10:08:28Z</time><cmt>5.1 kmh</cmt></trkpt>
<trkpt lat="51.680793" lon="03.747591"><ele>2</ele><time>2021-01-07T10:08:29Z</time><cmt>5.0 kmh</cmt></trkpt>
<trkpt lat="51.680782" lon="03.747601"><ele>2</ele><time>2021-01-07T10:08:30Z</time><cmt>5.0 kmh</cmt></trkpt>
<trkpt lat="51.680772" lon="03.747609"><ele>2</ele><time>2021-01-07T10:08:31Z</time><cmt>4.2 kmh</cmt></trkpt>
<trkpt lat="51.680763" lon="03.747617"><ele>3</ele><time>2021-01-07T10:08:32Z</time><cmt>3.7 kmh</cmt></trkpt>
<trkpt lat="51.680756" lon="03.747625"><ele>3</ele><time>2021-01-07T10:08:33Z</time><cmt>4.0 kmh</cmt></trkpt>
<trkpt lat="51.680749" lon="03.747632"><ele>3</ele><time>2021-01-07T10:08:34Z</time><cmt>3.7 kmh</cmt></trkpt>
<trkpt lat="51.680742" lon="03.747639"><ele>3</ele><time>2021-01-07T10:08:35Z</time><cmt>3.6 kmh</cmt></trkpt>
<trkpt lat="51.680736" lon="03.747646"><ele>3</ele><time>2021-01-07T10:08:36Z</time><cmt>3.3 kmh</cmt></trkpt>
<trkpt lat="51.680730" lon="03.747653"><ele>3</ele><time>2021-01-07T10:08:37Z</time><cmt>3.1 kmh</cmt></trkpt>
<trkpt lat="51.680728" lon="03.747653"><ele>3</ele><time>2021-01-07T10:08:38Z</time><cmt>1.5 kmh</cmt></trkpt>
<trkpt lat="51.680728" lon="03.747652"><ele>3</ele><time>2021-01-07T10:08:39Z</time><cmt>0.3 kmh</cmt></trkpt>
<trkpt lat="51.680728" lon="03.747651"><ele>3</ele><time>2021-01-07T10:08:40Z</time><cmt>0.0 kmh</cmt></trkpt>
<trkpt lat="51.680728" lon="03.747648"><ele>3</ele><time>2021-01-07T10:08:41Z</time><cmt>0.5 kmh</cmt></trkpt>
<trkpt lat="51.680729" lon="03.747645"><ele>3</ele><time>2021-01-07T10:08:42Z</time><cmt>0.8 kmh</cmt></trkpt>
<trkpt lat="51.680728" lon="03.747644"><ele>3</ele><time>2021-01-07T10:08:43Z</time><cmt>0.4 kmh</cmt></trkpt>
<trkpt lat="51.680724" lon="03.747645"><ele>3</ele><time>2021-01-07T10:08:44Z</time><cmt>0.8 kmh</cmt></trkpt>
<trkpt lat="51.680718" lon="03.747649"><ele>3</ele><time>2021-01-07T10:08:45Z</time><cmt>2.4 kmh</cmt></trkpt>
<trkpt lat="51.680709" lon="03.747656"><ele>3</ele><time>2021-01-07T10:08:46Z</time><cmt>3.7 kmh</cmt></trkpt>
<trkpt lat="51.680699" lon="03.747666"><ele>3</ele><time>2021-01-07T10:08:47Z</time><cmt>4.6 kmh</cmt></trkpt>
<trkpt lat="51.680688" lon="03.747675"><ele>3</ele><time>2021-01-07T10:08:48Z</time><cmt>5.0 kmh</cmt></trkpt>
<trkpt lat="51.680677" lon="03.747684"><ele>3</ele><time>2021-01-07T10:08:49Z</time><cmt>4.2 kmh</cmt></trkpt>
<trkpt lat="51.680667" lon="03.747694"><ele>3</ele><time>2021-01-07T10:08:50Z</time><cmt>4.2 kmh</cmt></trkpt>
<trkpt lat="51.680656" lon="03.747703"><ele>3</ele><time>2021-01-07T10:08:51Z</time><cmt>5.0 kmh</cmt></trkpt>
<trkpt lat="51.680647" lon="03.747709"><ele>3</ele><time>2021-01-07T10:08:52Z</time><cmt>4.9 kmh</cmt></trkpt>
<trkpt lat="51.680636" lon="03.747716"><ele>3</ele><time>2021-01-07T10:08:53Z</time><cmt>4.6 kmh</cmt></trkpt>
<trkpt lat="51.680626" lon="03.747724"><ele>3</ele><time>2021-01-07T10:08:54Z</time><cmt>4.9 kmh</cmt></trkpt>
<trkpt lat="51.680615" lon="03.747732"><ele>3</ele><time>2021-01-07T10:08:55Z</time><cmt>4.0 kmh</cmt></trkpt>
<trkpt lat="51.680605" lon="03.747740"><ele>3</ele><time>2021-01-07T10:08:56Z</time><cmt>4.0 kmh</cmt></trkpt>
<trkpt lat="51.680594" lon="03.747749"><ele>3</ele><time>2021-01-07T10:08:57Z</time><cmt>5.0 kmh</cmt></trkpt>
<trkpt lat="51.680584" lon="03.747757"><ele>3</ele><time>2021-01-07T10:08:58Z</time><cmt>5.0 kmh</cmt></trkpt>
<trkpt lat="51.680574" lon="03.747764"><ele>3</ele><time>2021-01-07T10:08:59Z</time><cmt>4.9 kmh</cmt></trkpt>
<trkpt lat="51.680564" lon="03.747773"><ele>3</ele><time>2021-01-07T10:09:00Z</time><cmt>4.9 kmh</cmt></trkpt>
<trkpt lat="51.680554" lon="03.747781"><ele>3</ele><time>2021-01-07T10:09:01Z</time><cmt>4.9 kmh</cmt></trkpt>
<trkpt lat="51.680544" lon="03.747790"><ele>3</ele><time>2021-01-07T10:09:02Z</time><cmt>3.9 kmh</cmt></trkpt>
<trkpt lat="51.680534" lon="03.747800"><ele>3</ele><time>2021-01-07T10:09:03Z</time><cmt>4.0 kmh</cmt></trkpt>
<trkpt lat="51.680524" lon="03.747809"><ele>3</ele><time>2021-01-07T10:09:04Z</time><cmt>5.0 kmh</cmt></trkpt>
<trkpt lat="51.680513" lon="03.747819"><ele>3</ele><time>2021-01-07T10:09:05Z</time><cmt>5.0 kmh</cmt></trkpt>
<trkpt lat="51.680504" lon="03.747827"><ele>3</ele><time>2021-01-07T10:09:06Z</time><cmt>4.9 kmh</cmt></trkpt>
<trkpt lat="51.680494" lon="03.747835"><ele>3</ele><time>2021-01-07T10:09:07Z</time><cmt>4.8 kmh</cmt></trkpt>
<trkpt lat="51.680483" lon="03.747846"><ele>3</ele><time>2021-01-07T10:09:08Z</time><cmt>4.1 kmh</cmt></trkpt>
<trkpt lat="51.680472" lon="03.747855"><ele>3</ele><time>2021-01-07T10:09:09Z</time><cmt>4.3 kmh</cmt></trkpt>
<trkpt lat="51.680462" lon="03.747864"><ele>3</ele><time>2021-01-07T10:09:10Z</time><cmt>5.0 kmh</cmt></trkpt>
<trkpt lat="51.680451" lon="03.747872"><ele>3</ele><time>2021-01-07T10:09:11Z</time><cmt>5.0 kmh</cmt></trkpt>
<trkpt lat="51.680440" lon="03.747881"><ele>3</ele><time>2021-01-07T10:09:12Z</time><cmt>5.0 kmh</cmt></trkpt>
<trkpt lat="51.680429" lon="03.747889"><ele>3</ele><time>2021-01-07T10:09:13Z</time><cmt>5.0 kmh</cmt></trkpt>
<trkpt lat="51.680419" lon="03.747898"><ele>3</ele><time>2021-01-07T10:09:14Z</time><cmt>4.2 kmh</cmt></trkpt>
<trkpt lat="51.680408" lon="03.747907"><ele>3</ele><time>2021-01-07T10:09:15Z</time><cmt>4.2 kmh</cmt></trkpt>
<trkpt lat="51.680397" lon="03.747916"><ele>3</ele><time>2021-01-07T10:09:16Z</time><cmt>5.0 kmh</cmt></trkpt>
<trkpt lat="51.680385" lon="03.747925"><ele>3</ele><time>2021-01-07T10:09:17Z</time><cmt>5.0 kmh</cmt></trkpt>
<trkpt lat="51.680374" lon="03.747934"><ele>3</ele><time>2021-01-07T10:09:18Z</time><cmt>5.0 kmh</cmt></trkpt>
<trkpt lat="51.680363" lon="03.747944"><ele>3</ele><time>2021-01-07T10:09:19Z</time><cmt>5.0 kmh</cmt></trkpt>
<trkpt lat="51.680352" lon="03.747954"><ele>3</ele><time>2021-01-07T10:09:20Z</time><cmt>5.0 kmh</cmt></trkpt>
<trkpt lat="51.680342" lon="03.747964"><ele>3</ele><time>2021-01-07T10:09:21Z</time><cmt>4.2 kmh</cmt></trkpt>
<trkpt lat="51.680332" lon="03.747973"><ele>3</ele><time>2021-01-07T10:09:22Z</time><cmt>4.1 kmh</cmt></trkpt>
<trkpt lat="51.680322" lon="03.747981"><ele>3</ele><time>2021-01-07T10:09:23Z</time><cmt>4.8 kmh</cmt></trkpt>
<trkpt lat="51.680312" lon="03.747990"><ele>3</ele><time>2021-01-07T10:09:24Z</time><cmt>4.9 kmh</cmt></trkpt>
<trkpt lat="51.680301" lon="03.748000"><ele>3</ele><time>2021-01-07T10:09:25Z</time><cmt>5.0 kmh</cmt></trkpt>
<trkpt lat="51.680291" lon="03.748008"><ele>3</ele><time>2021-01-07T10:09:26Z</time><cmt>5.0 kmh</cmt></trkpt>
<trkpt lat="51.680281" lon="03.748017"><ele>3</ele><time>2021-01-07T10:09:27Z</time><cmt>3.9 kmh</cmt></trkpt>
<trkpt lat="51.680270" lon="03.748026"><ele>3</ele><time>2021-01-07T10:09:28Z</time><cmt>4.0 kmh</cmt></trkpt>
<trkpt lat="51.680260" lon="03.748033"><ele>3</ele><time>2021-01-07T10:09:29Z</time><cmt>5.0 kmh</cmt></trkpt>
<trkpt lat="51.680249" lon="03.748041"><ele>3</ele><time>2021-01-07T10:09:30Z</time><cmt>4.9 kmh</cmt></trkpt>
<trkpt lat="51.680238" lon="03.748050"><ele>3</ele><time>2021-01-07T10:09:31Z</time><cmt>5.0 kmh</cmt></trkpt>
<trkpt lat="51.680226" lon="03.748058"><ele>3</ele><time>2021-01-07T10:09:32Z</time><cmt>5.0 kmh</cmt></trkpt>
<trkpt lat="51.680216" lon="03.748065"><ele>3</ele><time>2021-01-07T10:09:33Z</time><cmt>4.1 kmh</cmt></trkpt>
<trkpt lat="51.680205" lon="03.748074"><ele>3</ele><time>2021-01-07T10:09:34Z</time><cmt>4.0 kmh</cmt></trkpt>
<trkpt lat="51.680193" lon="03.748082"><ele>3</ele><time>2021-01-07T10:09:35Z</time><cmt>5.0 kmh</cmt></trkpt>
<trkpt lat="51.680183" lon="03.748091"><ele>3</ele><time>2021-01-07T10:09:36Z</time><cmt>5.0 kmh</cmt></trkpt>
<trkpt lat="51.680173" lon="03.748101"><ele>3</ele><time>2021-01-07T10:09:37Z</time><cmt>5.0 kmh</cmt></trkpt>
<trkpt lat="51.680163" lon="03.748111"><ele>3</ele><time>2021-01-07T10:09:38Z</time><cmt>5.0 kmh</cmt></trkpt>
<trkpt lat="51.680153" lon="03.748122"><ele>3</ele><time>2021-01-07T10:09:39Z</time><cmt>5.0 kmh</cmt></trkpt>
<trkpt lat="51.680142" lon="03.748132"><ele>3</ele><time>2021-01-07T10:09:40Z</time><cmt>4.2 kmh</cmt></trkpt>
<trkpt lat="51.680131" lon="03.748142"><ele>3</ele><time>2021-01-07T10:09:41Z</time><cmt>4.3 kmh</cmt></trkpt>
<trkpt lat="51.680120" lon="03.748152"><ele>3</ele><time>2021-01-07T10:09:42Z</time><cmt>5.0 kmh</cmt></trkpt>
<trkpt lat="51.680110" lon="03.748161"><ele>3</ele><time>2021-01-07T10:09:43Z</time><cmt>5.0 kmh</cmt></trkpt>
<trkpt lat="51.680100" lon="03.748170"><ele>3</ele><time>2021-01-07T10:09:44Z</time><cmt>5.0 kmh</cmt></trkpt>
<trkpt lat="51.680088" lon="03.748180"><ele>3</ele><time>2021-01-07T10:09:45Z</time><cmt>5.1 kmh</cmt></trkpt>
<trkpt lat="51.680077" lon="03.748189"><ele>3</ele><time>2021-01-07T10:09:46Z</time><cmt>5.1 kmh</cmt></trkpt>
<trkpt lat="51.680066" lon="03.748197"><ele>3</ele><time>2021-01-07T10:09:47Z</time><cmt>4.3 kmh</cmt></trkpt>
<trkpt lat="51.680054" lon="03.748205"><ele>3</ele><time>2021-01-07T10:09:48Z</time><cmt>5.0 kmh</cmt></trkpt>
<trkpt lat="51.680043" lon="03.748213"><ele>3</ele><time>2021-01-07T10:09:49Z</time><cmt>5.0 kmh</cmt></trkpt>
<trkpt lat="51.680032" lon="03.748221"><ele>3</ele><time>2021-01-07T10:09:50Z</time><cmt>5.0 kmh</cmt></trkpt>
<trkpt lat="51.680021" lon="03.748230"><ele>3</ele><time>2021-01-07T10:09:51Z</time><cmt>5.0 kmh</cmt></trkpt>
<trkpt lat="51.680009" lon="03.748240"><ele>3</ele><time>2021-01-07T10:09:52Z</time><cmt>4.4 kmh</cmt></trkpt>
<trkpt lat="51.680000" lon="03.748249"><ele>3</ele><time>2021-01-07T10:09:53Z</time><cmt>4.1 kmh</cmt></trkpt>
<trkpt lat="51.679989" lon="03.748258"><ele>3</ele><time>2021-01-07T10:09:54Z</time><cmt>5.0 kmh</cmt></trkpt>
<trkpt lat="51.679977" lon="03.748268"><ele>3</ele><time>2021-01-07T10:09:55Z</time><cmt>5.0 kmh</cmt></trkpt>
<trkpt lat="51.679965" lon="03.748276"><ele>3</ele><time>2021-01-07T10:09:56Z</time><cmt>5.0 kmh</cmt></trkpt>
<trkpt lat="51.679954" lon="03.748284"><ele>3</ele><time>2021-01-07T10:09:57Z</time><cmt>5.0 kmh</cmt></trkpt>
<trkpt lat="51.679944" lon="03.748293"><ele>3</ele><time>2021-01-07T10:09:58Z</time><cmt>5.0 kmh</cmt></trkpt>
<trkpt lat="51.679933" lon="03.748302"><ele>3</ele><time>2021-01-07T10:09:59Z</time><cmt>4.2 kmh</cmt></trkpt>
<trkpt lat="51.679922" lon="03.748310"><ele>3</ele><time>2021-01-07T10:10:00Z</time><cmt>4.1 kmh</cmt></trkpt>
<trkpt lat="51.679911" lon="03.748318"><ele>3</ele><time>2021-01-07T10:10:01Z</time><cmt>5.0 kmh</cmt></trkpt>
<trkpt lat="51.679899" lon="03.748327"><ele>3</ele><time>2021-01-07T10:10:02Z</time><cmt>5.0 kmh</cmt></trkpt>
<trkpt lat="51.679887" lon="03.748334"><ele>3</ele><time>2021-01-07T10:10:03Z</time><cmt>5.0 kmh</cmt></trkpt>
<trkpt lat="51.679875" lon="03.748343"><ele>4</ele><time>2021-01-07T10:10:04Z</time><cmt>5.0 kmh</cmt></trkpt>
<trkpt lat="51.679861" lon="03.748354"><ele>4</ele><time>2021-01-07T10:10:05Z</time><cmt>5.0 kmh</cmt></trkpt>
<trkpt lat="51.679850" lon="03.748362"><ele>4</ele><time>2021-01-07T10:10:06Z</time><cmt>5.0 kmh</cmt></trkpt>
<trkpt lat="51.679839" lon="03.748370"><ele>4</ele><time>2021-01-07T10:10:07Z</time><cmt>5.0 kmh</cmt></trkpt>
<trkpt lat="51.679829" lon="03.748379"><ele>4</ele><time>2021-01-07T10:10:08Z</time><cmt>4.1 kmh</cmt></trkpt>
<trkpt lat="51.679818" lon="03.748387"><ele>4</ele><time>2021-01-07T10:10:09Z</time><cmt>5.0 kmh</cmt></trkpt>
<trkpt lat="51.679808" lon="03.748396"><ele>4</ele><time>2021-01-07T10:10:10Z</time><cmt>5.0 kmh</cmt></trkpt>
<trkpt lat="51.679797" lon="03.748406"><ele>4</ele><time>2021-01-07T10:10:11Z</time><cmt>5.0 kmh</cmt></trkpt>
<trkpt lat="51.679787" lon="03.748414"><ele>4</ele><time>2021-01-07T10:10:12Z</time><cmt>5.0 kmh</cmt></trkpt>
<trkpt lat="51.679777" lon="03.748423"><ele>4</ele><time>2021-01-07T10:10:13Z</time><cmt>3.9 kmh</cmt></trkpt>
<trkpt lat="51.679767" lon="03.748433"><ele>4</ele><time>2021-01-07T10:10:14Z</time><cmt>4.1 kmh</cmt></trkpt>
<trkpt lat="51.679756" lon="03.748443"><ele>4</ele><time>2021-01-07T10:10:15Z</time><cmt>5.0 kmh</cmt></trkpt>
<trkpt lat="51.679745" lon="03.748453"><ele>4</ele><time>2021-01-07T10:10:16Z</time><cmt>5.0 kmh</cmt></trkpt>
<trkpt lat="51.679734" lon="03.748463"><ele>4</ele><time>2021-01-07T10:10:17Z</time><cmt>5.0 kmh</cmt></trkpt>
<trkpt lat="51.679724" lon="03.748473"><ele>4</ele><time>2021-01-07T10:10:18Z</time><cmt>5.0 kmh</cmt></trkpt>
<trkpt lat="51.679713" lon="03.748481"><ele>4</ele><time>2021-01-07T10:10:19Z</time><cmt>4.1 kmh</cmt></trkpt>
<trkpt lat="51.679703" lon="03.748490"><ele>4</ele><time>2021-01-07T10:10:20Z</time><cmt>4.0 kmh</cmt></trkpt>
<trkpt lat="51.679693" lon="03.748500"><ele>4</ele><time>2021-01-07T10:10:21Z</time><cmt>5.0 kmh</cmt></trkpt>
<trkpt lat="51.679683" lon="03.748509"><ele>4</ele><time>2021-01-07T10:10:22Z</time><cmt>5.0 kmh</cmt></trkpt>
<trkpt lat="51.679672" lon="03.748519"><ele>4</ele><time>2021-01-07T10:10:23Z</time><cmt>5.0 kmh</cmt></trkpt>
<trkpt lat="51.679662" lon="03.748528"><ele>4</ele><time>2021-01-07T10:10:24Z</time><cmt>5.0 kmh</cmt></trkpt>
<trkpt lat="51.679651" lon="03.748537"><ele>4</ele><time>2021-01-07T10:10:25Z</time><cmt>5.0 kmh</cmt></trkpt>
<trkpt lat="51.679640" lon="03.748546"><ele>3</ele><time>2021-01-07T10:10:26Z</time><cmt>4.2 kmh</cmt></trkpt>
<trkpt lat="51.679629" lon="03.748556"><ele>3</ele><time>2021-01-07T10:10:27Z</time><cmt>4.3 kmh</cmt></trkpt>
<trkpt lat="51.679617" lon="03.748566"><ele>3</ele><time>2021-01-07T10:10:28Z</time><cmt>5.0 kmh</cmt></trkpt>
<trkpt lat="51.679606" lon="03.748576"><ele>3</ele><time>2021-01-07T10:10:29Z</time><cmt>5.0 kmh</cmt></trkpt>
<trkpt lat="51.679595" lon="03.748587"><ele>3</ele><time>2021-01-07T10:10:30Z</time><cmt>5.0 kmh</cmt></trkpt>
<trkpt lat="51.679583" lon="03.748598"><ele>3</ele><time>2021-01-07T10:10:31Z</time><cmt>5.0 kmh</cmt></trkpt>
<trkpt lat="51.679572" lon="03.748608"><ele>3</ele><time>2021-01-07T10:10:32Z</time><cmt>4.5 kmh</cmt></trkpt>
<trkpt lat="51.679562" lon="03.748616"><ele>3</ele><time>2021-01-07T10:10:33Z</time><cmt>4.3 kmh</cmt></trkpt>
<trkpt lat="51.679551" lon="03.748624"><ele>3</ele><time>2021-01-07T10:10:34Z</time><cmt>5.0 kmh</cmt></trkpt>
<trkpt lat="51.679540" lon="03.748633"><ele>3</ele><time>2021-01-07T10:10:35Z</time><cmt>5.0 kmh</cmt></trkpt>
<trkpt lat="51.679530" lon="03.748641"><ele>3</ele><time>2021-01-07T10:10:36Z</time><cmt>5.0 kmh</cmt></trkpt>
<trkpt lat="51.679518" lon="03.748651"><ele>3</ele><time>2021-01-07T10:10:37Z</time><cmt>5.0 kmh</cmt></trkpt>
<trkpt lat="51.679507" lon="03.748662"><ele>3</ele><time>2021-01-07T10:10:38Z</time><cmt>4.5 kmh</cmt></trkpt>
<trkpt lat="51.679496" lon="03.748673"><ele>3</ele><time>2021-01-07T10:10:39Z</time><cmt>4.6 kmh</cmt></trkpt>
<trkpt lat="51.679485" lon="03.748683"><ele>3</ele><time>2021-01-07T10:10:40Z</time><cmt>5.0 kmh</cmt></trkpt>
<trkpt lat="51.679473" lon="03.748694"><ele>3</ele><time>2021-01-07T10:10:41Z</time><cmt>5.0 kmh</cmt></trkpt>
<trkpt lat="51.679462" lon="03.748703"><ele>3</ele><time>2021-01-07T10:10:42Z</time><cmt>5.0 kmh</cmt></trkpt>
<trkpt lat="51.679451" lon="03.748713"><ele>3</ele><time>2021-01-07T10:10:43Z</time><cmt>5.0 kmh</cmt></trkpt>
<trkpt lat="51.679440" lon="03.748721"><ele>3</ele><time>2021-01-07T10:10:44Z</time><cmt>5.0 kmh</cmt></trkpt>
<trkpt lat="51.679429" lon="03.748729"><ele>3</ele><time>2021-01-07T10:10:45Z</time><cmt>4.1 kmh</cmt></trkpt>
<trkpt lat="51.679418" lon="03.748739"><ele>3</ele><time>2021-01-07T10:10:46Z</time><cmt>4.3 kmh</cmt></trkpt>
<trkpt lat="51.679407" lon="03.748749"><ele>3</ele><time>2021-01-07T10:10:47Z</time><cmt>5.0 kmh</cmt></trkpt>
<trkpt lat="51.679396" lon="03.748758"><ele>3</ele><time>2021-01-07T10:10:48Z</time><cmt>5.0 kmh</cmt></trkpt>
<trkpt lat="51.679386" lon="03.748767"><ele>3</ele><time>2021-01-07T10:10:49Z</time><cmt>5.0 kmh</cmt></trkpt>
<trkpt lat="51.679376" lon="03.748775"><ele>3</ele><time>2021-01-07T10:10:50Z</time><cmt>5.0 kmh</cmt></trkpt>
<trkpt lat="51.679365" lon="03.748782"><ele>3</ele><time>2021-01-07T10:10:51Z</time><cmt>4.0 kmh</cmt></trkpt>
<trkpt lat="51.679354" lon="03.748793"><ele>3</ele><time>2021-01-07T10:10:52Z</time><cmt>4.3 kmh</cmt></trkpt>
<trkpt lat="51.679346" lon="03.748797"><ele>3</ele><time>2021-01-07T10:10:53Z</time><cmt>4.4 kmh</cmt></trkpt>
<trkpt lat="51.679338" lon="03.748801"><ele>4</ele><time>2021-01-07T10:10:54Z</time><cmt>3.5 kmh</cmt></trkpt>
<trkpt lat="51.679330" lon="03.748808"><ele>4</ele><time>2021-01-07T10:10:55Z</time><cmt>3.9 kmh</cmt></trkpt>
<trkpt lat="51.679320" lon="03.748818"><ele>4</ele><time>2021-01-07T10:10:56Z</time><cmt>4.6 kmh</cmt></trkpt>
<trkpt lat="51.679310" lon="03.748827"><ele>4</ele><time>2021-01-07T10:10:57Z</time><cmt>4.0 kmh</cmt></trkpt>
<trkpt lat="51.679300" lon="03.748833"><ele>4</ele><time>2021-01-07T10:10:58Z</time><cmt>3.9 kmh</cmt></trkpt>
<trkpt lat="51.679289" lon="03.748840"><ele>4</ele><time>2021-01-07T10:10:59Z</time><cmt>4.9 kmh</cmt></trkpt>
<trkpt lat="51.679279" lon="03.748846"><ele>4</ele><time>2021-01-07T10:11:00Z</time><cmt>4.6 kmh</cmt></trkpt>
<trkpt lat="51.679269" lon="03.748853"><ele>4</ele><time>2021-01-07T10:11:01Z</time><cmt>4.5 kmh</cmt></trkpt>
<trkpt lat="51.679259" lon="03.748864"><ele>4</ele><time>2021-01-07T10:11:02Z</time><cmt>5.0 kmh</cmt></trkpt>
<trkpt lat="51.679249" lon="03.748876"><ele>4</ele><time>2021-01-07T10:11:03Z</time><cmt>4.4 kmh</cmt></trkpt>
<trkpt lat="51.679239" lon="03.748887"><ele>4</ele><time>2021-01-07T10:11:04Z</time><cmt>4.2 kmh</cmt></trkpt>
<trkpt lat="51.679229" lon="03.748894"><ele>4</ele><time>2021-01-07T10:11:05Z</time><cmt>4.9 kmh</cmt></trkpt>
<trkpt lat="51.679218" lon="03.748902"><ele>4</ele><time>2021-01-07T10:11:06Z</time><cmt>4.8 kmh</cmt></trkpt>
<trkpt lat="51.679208" lon="03.748908"><ele>4</ele><time>2021-01-07T10:11:07Z</time><cmt>4.8 kmh</cmt></trkpt>
<trkpt lat="51.679198" lon="03.748915"><ele>4</ele><time>2021-01-07T10:11:08Z</time><cmt>4.8 kmh</cmt></trkpt>
<trkpt lat="51.679187" lon="03.748923"><ele>4</ele><time>2021-01-07T10:11:09Z</time><cmt>3.9 kmh</cmt></trkpt>
<trkpt lat="51.679177" lon="03.748930"><ele>4</ele><time>2021-01-07T10:11:10Z</time><cmt>4.0 kmh</cmt></trkpt>
<trkpt lat="51.679166" lon="03.748938"><ele>4</ele><time>2021-01-07T10:11:11Z</time><cmt>5.0 kmh</cmt></trkpt>
<trkpt lat="51.679155" lon="03.748946"><ele>4</ele><time>2021-01-07T10:11:12Z</time><cmt>5.0 kmh</cmt></trkpt>
<trkpt lat="51.679144" lon="03.748954"><ele>4</ele><time>2021-01-07T10:11:13Z</time><cmt>5.0 kmh</cmt></trkpt>
<trkpt lat="51.679134" lon="03.748962"><ele>4</ele><time>2021-01-07T10:11:14Z</time><cmt>5.0 kmh</cmt></trkpt>
<trkpt lat="51.679124" lon="03.748969"><ele>4</ele><time>2021-01-07T10:11:15Z</time><cmt>4.8 kmh</cmt></trkpt>
<trkpt lat="51.679113" lon="03.748976"><ele>4</ele><time>2021-01-07T10:11:16Z</time><cmt>3.9 kmh</cmt></trkpt>
<trkpt lat="51.679103" lon="03.748983"><ele>3</ele><time>2021-01-07T10:11:17Z</time><cmt>3.9 kmh</cmt></trkpt>
<trkpt lat="51.679093" lon="03.748991"><ele>3</ele><time>2021-01-07T10:11:18Z</time><cmt>4.9 kmh</cmt></trkpt>
<trkpt lat="51.679081" lon="03.749001"><ele>3</ele><time>2021-01-07T10:11:19Z</time><cmt>5.0 kmh</cmt></trkpt>
<trkpt lat="51.679072" lon="03.749009"><ele>3</ele><time>2021-01-07T10:11:20Z</time><cmt>5.0 kmh</cmt></trkpt>
<trkpt lat="51.679061" lon="03.749017"><ele>3</ele><time>2021-01-07T10:11:21Z</time><cmt>4.9 kmh</cmt></trkpt>
<trkpt lat="51.679051" lon="03.749025"><ele>3</ele><time>2021-01-07T10:11:22Z</time><cmt>5.0 kmh</cmt></trkpt>
<trkpt lat="51.679044" lon="03.749029"><ele>3</ele><time>2021-01-07T10:11:23Z</time><cmt>3.2 kmh</cmt></trkpt>
<trkpt lat="51.679040" lon="03.749032"><ele>3</ele><time>2021-01-07T10:11:24Z</time><cmt>2.0 kmh</cmt></trkpt>
<trkpt lat="51.679039" lon="03.749033"><ele>3</ele><time>2021-01-07T10:11:25Z</time><cmt>0.8 kmh</cmt></trkpt>
<trkpt lat="51.679040" lon="03.749030"><ele>3</ele><time>2021-01-07T10:11:26Z</time><cmt>0.4 kmh</cmt></trkpt>
<trkpt lat="51.679038" lon="03.749027"><ele>3</ele><time>2021-01-07T10:11:27Z</time><cmt>1.1 kmh</cmt></trkpt>
<trkpt lat="51.679035" lon="03.749025"><ele>3</ele><time>2021-01-07T10:11:28Z</time><cmt>1.2 kmh</cmt></trkpt>
<trkpt lat="51.679036" lon="03.749027"><ele>3</ele><time>2021-01-07T10:11:29Z</time><cmt>0.9 kmh</cmt></trkpt>
<trkpt lat="51.679040" lon="03.749032"><ele>3</ele><time>2021-01-07T10:11:30Z</time><cmt>1.4 kmh</cmt></trkpt>
<trkpt lat="51.679042" lon="03.749033"><ele>3</ele><time>2021-01-07T10:11:31Z</time><cmt>1.6 kmh</cmt></trkpt>
<trkpt lat="51.679038" lon="03.749028"><ele>3</ele><time>2021-01-07T10:11:32Z</time><cmt>1.6 kmh</cmt></trkpt>
<trkpt lat="51.679034" lon="03.749023"><ele>3</ele><time>2021-01-07T10:11:33Z</time><cmt>2.1 kmh</cmt></trkpt>
<trkpt lat="51.679031" lon="03.749022"><ele>3</ele><time>2021-01-07T10:11:34Z</time><cmt>1.7 kmh</cmt></trkpt>
<trkpt lat="51.679029" lon="03.749021"><ele>3</ele><time>2021-01-07T10:11:35Z</time><cmt>0.9 kmh</cmt></trkpt>
<trkpt lat="51.679027" lon="03.749021"><ele>3</ele><time>2021-01-07T10:11:36Z</time><cmt>0.6 kmh</cmt></trkpt>
<trkpt lat="51.679024" lon="03.749021"><ele>3</ele><time>2021-01-07T10:11:37Z</time><cmt>1.1 kmh</cmt></trkpt>
<trkpt lat="51.679013" lon="03.749021"><ele>3</ele><time>2021-01-07T10:11:38Z</time><cmt>3.1 kmh</cmt></trkpt>
<trkpt lat="51.678999" lon="03.749023"><ele>4</ele><time>2021-01-07T10:11:39Z</time><cmt>5.0 kmh</cmt></trkpt>
<trkpt lat="51.678988" lon="03.749028"><ele>4</ele><time>2021-01-07T10:11:40Z</time><cmt>5.0 kmh</cmt></trkpt>
<trkpt lat="51.678979" lon="03.749036"><ele>4</ele><time>2021-01-07T10:11:41Z</time><cmt>4.7 kmh</cmt></trkpt>
<trkpt lat="51.678970" lon="03.749045"><ele>4</ele><time>2021-01-07T10:11:42Z</time><cmt>3.6 kmh</cmt></trkpt>
<trkpt lat="51.678960" lon="03.749054"><ele>4</ele><time>2021-01-07T10:11:43Z</time><cmt>3.8 kmh</cmt></trkpt>
<trkpt lat="51.678950" lon="03.749063"><ele>4</ele><time>2021-01-07T10:11:44Z</time><cmt>5.0 kmh</cmt></trkpt>
<trkpt lat="51.678940" lon="03.749073"><ele>4</ele><time>2021-01-07T10:11:45Z</time><cmt>5.0 kmh</cmt></trkpt>
<trkpt lat="51.678930" lon="03.749083"><ele>4</ele><time>2021-01-07T10:11:46Z</time><cmt>5.0 kmh</cmt></trkpt>
<trkpt lat="51.678919" lon="03.749092"><ele>4</ele><time>2021-01-07T10:11:47Z</time><cmt>4.1 kmh</cmt></trkpt>
<trkpt lat="51.678910" lon="03.749102"><ele>4</ele><time>2021-01-07T10:11:48Z</time><cmt>4.0 kmh</cmt></trkpt>
<trkpt lat="51.678900" lon="03.749111"><ele>4</ele><time>2021-01-07T10:11:49Z</time><cmt>4.8 kmh</cmt></trkpt>
<trkpt lat="51.678891" lon="03.749119"><ele>4</ele><time>2021-01-07T10:11:50Z</time><cmt>4.6 kmh</cmt></trkpt>
<trkpt lat="51.678882" lon="03.749128"><ele>4</ele><time>2021-01-07T10:11:51Z</time><cmt>4.6 kmh</cmt></trkpt>
<trkpt lat="51.678872" lon="03.749137"><ele>4</ele><time>2021-01-07T10:11:52Z</time><cmt>4.8 kmh</cmt></trkpt>
<trkpt lat="51.678862" lon="03.749146"><ele>4</ele><time>2021-01-07T10:11:53Z</time><cmt>4.9 kmh</cmt></trkpt>
<trkpt lat="51.678853" lon="03.749156"><ele>4</ele><time>2021-01-07T10:11:54Z</time><cmt>4.8 kmh</cmt></trkpt>
<trkpt lat="51.678843" lon="03.749165"><ele>4</ele><time>2021-01-07T10:11:55Z</time><cmt>3.9 kmh</cmt></trkpt>
<trkpt lat="51.678833" lon="03.749175"><ele>4</ele><time>2021-01-07T10:11:56Z</time><cmt>3.9 kmh</cmt></trkpt>
<trkpt lat="51.678823" lon="03.749185"><ele>4</ele><time>2021-01-07T10:11:57Z</time><cmt>5.0 kmh</cmt></trkpt>
<trkpt lat="51.678813" lon="03.749195"><ele>4</ele><time>2021-01-07T10:11:58Z</time><cmt>5.0 kmh</cmt></trkpt>
<trkpt lat="51.678802" lon="03.749205"><ele>4</ele><time>2021-01-07T10:11:59Z</time><cmt>5.0 kmh</cmt></trkpt>
<trkpt lat="51.678791" lon="03.749217"><ele>4</ele><time>2021-01-07T10:12:00Z</time><cmt>5.0 kmh</cmt></trkpt>
<trkpt lat="51.678781" lon="03.749227"><ele>4</ele><time>2021-01-07T10:12:01Z</time><cmt>4.3 kmh</cmt></trkpt>
<trkpt lat="51.678770" lon="03.749237"><ele>4</ele><time>2021-01-07T10:12:02Z</time><cmt>4.2 kmh</cmt></trkpt>
<trkpt lat="51.678759" lon="03.749248"><ele>3</ele><time>2021-01-07T10:12:03Z</time><cmt>5.0 kmh</cmt></trkpt>
<trkpt lat="51.678748" lon="03.749258"><ele>3</ele><time>2021-01-07T10:12:04Z</time><cmt>5.0 kmh</cmt></trkpt>
<trkpt lat="51.678737" lon="03.749267"><ele>3</ele><time>2021-01-07T10:12:05Z</time><cmt>5.0 kmh</cmt></trkpt>
<trkpt lat="51.678726" lon="03.749276"><ele>3</ele><time>2021-01-07T10:12:06Z</time><cmt>5.0 kmh</cmt></trkpt>
<trkpt lat="51.678715" lon="03.749286"><ele>3</ele><time>2021-01-07T10:12:07Z</time><cmt>4.4 kmh</cmt></trkpt>
<trkpt lat="51.678704" lon="03.749296"><ele>3</ele><time>2021-01-07T10:12:08Z</time><cmt>4.4 kmh</cmt></trkpt>
<trkpt lat="51.678691" lon="03.749308"><ele>3</ele><time>2021-01-07T10:12:09Z</time><cmt>5.0 kmh</cmt></trkpt>
<trkpt lat="51.678681" lon="03.749317"><ele>3</ele><time>2021-01-07T10:12:10Z</time><cmt>5.0 kmh</cmt></trkpt>
<trkpt lat="51.678671" lon="03.749326"><ele>3</ele><time>2021-01-07T10:12:11Z</time><cmt>5.0 kmh</cmt></trkpt>
<trkpt lat="51.678660" lon="03.749335"><ele>3</ele><time>2021-01-07T10:12:12Z</time><cmt>5.0 kmh</cmt></trkpt>
<trkpt lat="51.678650" lon="03.749344"><ele>3</ele><time>2021-01-07T10:12:13Z</time><cmt>4.1 kmh</cmt></trkpt>
<trkpt lat="51.678640" lon="03.749351"><ele>3</ele><time>2021-01-07T10:12:14Z</time><cmt>3.8 kmh</cmt></trkpt>
<trkpt lat="51.678629" lon="03.749360"><ele>3</ele><time>2021-01-07T10:12:15Z</time><cmt>5.0 kmh</cmt></trkpt>
<trkpt lat="51.678617" lon="03.749370"><ele>3</ele><time>2021-01-07T10:12:16Z</time><cmt>5.0 kmh</cmt></trkpt>
<trkpt lat="51.678605" lon="03.749380"><ele>3</ele><time>2021-01-07T10:12:17Z</time><cmt>5.0 kmh</cmt></trkpt>
<trkpt lat="51.678594" lon="03.749389"><ele>3</ele><time>2021-01-07T10:12:18Z</time><cmt>5.0 kmh</cmt></trkpt>
<trkpt lat="51.678582" lon="03.749399"><ele>3</ele><time>2021-01-07T10:12:19Z</time><cmt>5.0 kmh</cmt></trkpt>
<trkpt lat="51.678571" lon="03.749408"><ele>3</ele><time>2021-01-07T10:12:20Z</time><cmt>4.3 kmh</cmt></trkpt>
<trkpt lat="51.678560" lon="03.749418"><ele>3</ele><time>2021-01-07T10:12:21Z</time><cmt>4.3 kmh</cmt></trkpt>
<trkpt lat="51.678549" lon="03.749428"><ele>3</ele><time>2021-01-07T10:12:22Z</time><cmt>5.0 kmh</cmt></trkpt>
<trkpt lat="51.678539" lon="03.749438"><ele>3</ele><time>2021-01-07T10:12:23Z</time><cmt>5.0 kmh</cmt></trkpt>
<trkpt lat="51.678528" lon="03.749447"><ele>3</ele><time>2021-01-07T10:12:24Z</time><cmt>5.0 kmh</cmt></trkpt>
<trkpt lat="51.678518" lon="03.749456"><ele>3</ele><time>2021-01-07T10:12:25Z</time><cmt>5.0 kmh</cmt></trkpt>
<trkpt lat="51.678507" lon="03.749465"><ele>3</ele><time>2021-01-07T10:12:26Z</time><cmt>4.1 kmh</cmt></trkpt>
<trkpt lat="51.678496" lon="03.749475"><ele>3</ele><time>2021-01-07T10:12:27Z</time><cmt>4.3 kmh</cmt></trkpt>
<trkpt lat="51.678484" lon="03.749484"><ele>3</ele><time>2021-01-07T10:12:28Z</time><cmt>5.0 kmh</cmt></trkpt>
<trkpt lat="51.678474" lon="03.749493"><ele>3</ele><time>2021-01-07T10:12:29Z</time><cmt>5.0 kmh</cmt></trkpt>
<trkpt lat="51.678462" lon="03.749503"><ele>3</ele><time>2021-01-07T10:12:30Z</time><cmt>5.0 kmh</cmt></trkpt>
<trkpt lat="51.678451" lon="03.749514"><ele>3</ele><time>2021-01-07T10:12:31Z</time><cmt>4.6 kmh</cmt></trkpt>
<trkpt lat="51.678439" lon="03.749524"><ele>3</ele><time>2021-01-07T10:12:32Z</time><cmt>5.0 kmh</cmt></trkpt>
<trkpt lat="51.678428" lon="03.749533"><ele>3</ele><time>2021-01-07T10:12:33Z</time><cmt>5.0 kmh</cmt></trkpt>
<trkpt lat="51.678416" lon="03.749544"><ele>3</ele><time>2021-01-07T10:12:34Z</time><cmt>4.6 kmh</cmt></trkpt>
<trkpt lat="51.678404" lon="03.749554"><ele>3</ele><time>2021-01-07T10:12:35Z</time><cmt>5.0 kmh</cmt></trkpt>
<trkpt lat="51.678393" lon="03.749564"><ele>3</ele><time>2021-01-07T10:12:36Z</time><cmt>5.0 kmh</cmt></trkpt>
<trkpt lat="51.678381" lon="03.749574"><ele>3</ele><time>2021-01-07T10:12:37Z</time><cmt>5.0 kmh</cmt></trkpt>
<trkpt lat="51.678371" lon="03.749585"><ele>3</ele><time>2021-01-07T10:12:38Z</time><cmt>5.0 kmh</cmt></trkpt>
<trkpt lat="51.678361" lon="03.749595"><ele>3</ele><time>2021-01-07T10:12:39Z</time><cmt>4.2 kmh</cmt></trkpt>
<trkpt lat="51.678350" lon="03.749606"><ele>3</ele><time>2021-01-07T10:12:40Z</time><cmt>4.2 kmh</cmt></trkpt>
<trkpt lat="51.678339" lon="03.749617"><ele>3</ele><time>2021-01-07T10:12:41Z</time><cmt>5.0 kmh</cmt></trkpt>
<trkpt lat="51.678328" lon="03.749629"><ele>3</ele><time>2021-01-07T10:12:42Z</time><cmt>5.0 kmh</cmt></trkpt>
<trkpt lat="51.678318" lon="03.749640"><ele>3</ele><time>2021-01-07T10:12:43Z</time><cmt>5.0 kmh</cmt></trkpt>
<trkpt lat="51.678307" lon="03.749652"><ele>3</ele><time>2021-01-07T10:12:44Z</time><cmt>5.0 kmh</cmt></trkpt>
<trkpt lat="51.678297" lon="03.749664"><ele>3</ele><time>2021-01-07T10:12:45Z</time><cmt>4.5 kmh</cmt></trkpt>
<trkpt lat="51.678287" lon="03.749677"><ele>3</ele><time>2021-01-07T10:12:46Z</time><cmt>4.4 kmh</cmt></trkpt>
<trkpt lat="51.678277" lon="03.749690"><ele>3</ele><time>2021-01-07T10:12:47Z</time><cmt>5.0 kmh</cmt></trkpt>
<trkpt lat="51.678267" lon="03.749703"><ele>3</ele><time>2021-01-07T10:12:48Z</time><cmt>5.0 kmh</cmt></trkpt>
<trkpt lat="51.678257" lon="03.749715"><ele>3</ele><time>2021-01-07T10:12:49Z</time><cmt>5.0 kmh</cmt></trkpt>
<trkpt lat="51.678246" lon="03.749726"><ele>3</ele><time>2021-01-07T10:12:50Z</time><cmt>5.0 kmh</cmt></trkpt>
<trkpt lat="51.678235" lon="03.749738"><ele>3</ele><time>2021-01-07T10:12:51Z</time><cmt>5.1 kmh</cmt></trkpt>
<trkpt lat="51.678224" lon="03.749749"><ele>3</ele><time>2021-01-07T10:12:52Z</time><cmt>5.1 kmh</cmt></trkpt>
<trkpt lat="51.678213" lon="03.749763"><ele>2</ele><time>2021-01-07T10:12:53Z</time><cmt>5.5 kmh</cmt></trkpt>
<trkpt lat="51.678202" lon="03.749776"><ele>2</ele><time>2021-01-07T10:12:54Z</time><cmt>5.2 kmh</cmt></trkpt>
<trkpt lat="51.678191" lon="03.749787"><ele>2</ele><time>2021-01-07T10:12:55Z</time><cmt>5.4 kmh</cmt></trkpt>
<trkpt lat="51.678179" lon="03.749802"><ele>2</ele><time>2021-01-07T10:12:56Z</time><cmt>5.5 kmh</cmt></trkpt>
<trkpt lat="51.678167" lon="03.749816"><ele>2</ele><time>2021-01-07T10:12:57Z</time><cmt>5.1 kmh</cmt></trkpt>
<trkpt lat="51.678153" lon="03.749830"><ele>2</ele><time>2021-01-07T10:12:58Z</time><cmt>5.7 kmh</cmt></trkpt>
<trkpt lat="51.678140" lon="03.749844"><ele>2</ele><time>2021-01-07T10:12:59Z</time><cmt>5.4 kmh</cmt></trkpt>
<trkpt lat="51.678126" lon="03.749859"><ele>2</ele><time>2021-01-07T10:13:00Z</time><cmt>6.0 kmh</cmt></trkpt>
<trkpt lat="51.678113" lon="03.749873"><ele>2</ele><time>2021-01-07T10:13:01Z</time><cmt>5.4 kmh</cmt></trkpt>
<trkpt lat="51.678100" lon="03.749887"><ele>2</ele><time>2021-01-07T10:13:02Z</time><cmt>5.0 kmh</cmt></trkpt>
<trkpt lat="51.678089" lon="03.749899"><ele>2</ele><time>2021-01-07T10:13:03Z</time><cmt>5.0 kmh</cmt></trkpt>
<trkpt lat="51.678081" lon="03.749910"><ele>2</ele><time>2021-01-07T10:13:04Z</time><cmt>4.2 kmh</cmt></trkpt>
<trkpt lat="51.678072" lon="03.749920"><ele>2</ele><time>2021-01-07T10:13:05Z</time><cmt>4.8 kmh</cmt></trkpt>
<trkpt lat="51.678062" lon="03.749932"><ele>2</ele><time>2021-01-07T10:13:06Z</time><cmt>5.0 kmh</cmt></trkpt>
<trkpt lat="51.678052" lon="03.749941"><ele>2</ele><time>2021-01-07T10:13:07Z</time><cmt>5.0 kmh</cmt></trkpt>
<trkpt lat="51.678041" lon="03.749952"><ele>2</ele><time>2021-01-07T10:13:08Z</time><cmt>5.4 kmh</cmt></trkpt>
<trkpt lat="51.678029" lon="03.749963"><ele>2</ele><time>2021-01-07T10:13:09Z</time><cmt>5.4 kmh</cmt></trkpt>
<trkpt lat="51.678013" lon="03.749982"><ele>2</ele><time>2021-01-07T10:13:10Z</time><cmt>5.4 kmh</cmt></trkpt>
<trkpt lat="51.677999" lon="03.749998"><ele>2</ele><time>2021-01-07T10:13:11Z</time><cmt>5.0 kmh</cmt></trkpt>
<trkpt lat="51.677986" lon="03.750017"><ele>2</ele><time>2021-01-07T10:13:12Z</time><cmt>5.0 kmh</cmt></trkpt>
<trkpt lat="51.677974" lon="03.750034"><ele>2</ele><time>2021-01-07T10:13:13Z</time><cmt>5.0 kmh</cmt></trkpt>
<trkpt lat="51.677964" lon="03.750050"><ele>2</ele><time>2021-01-07T10:13:14Z</time><cmt>5.2 kmh</cmt></trkpt>
<trkpt lat="51.677953" lon="03.750066"><ele>2</ele><time>2021-01-07T10:13:15Z</time><cmt>5.2 kmh</cmt></trkpt>
<trkpt lat="51.677943" lon="03.750081"><ele>2</ele><time>2021-01-07T10:13:16Z</time><cmt>5.0 kmh</cmt></trkpt>
<trkpt lat="51.677933" lon="03.750096"><ele>2</ele><time>2021-01-07T10:13:17Z</time><cmt>4.8 kmh</cmt></trkpt>
<trkpt lat="51.677906" lon="03.750122"><ele>2</ele><time>2021-01-07T10:13:20Z</time><cmt>4.4 kmh</cmt></trkpt>
<trkpt lat="51.677885" lon="03.750141"><ele>3</ele><time>2021-01-07T10:13:22Z</time><cmt>5.0 kmh</cmt></trkpt>
<trkpt lat="51.677856" lon="03.750170"><ele>3</ele><time>2021-01-07T10:13:25Z</time><cmt>4.2 kmh</cmt></trkpt>
<trkpt lat="51.677828" lon="03.750199"><ele>3</ele><time>2021-01-07T10:13:28Z</time><cmt>4.9 kmh</cmt></trkpt>
<trkpt lat="51.677808" lon="03.750220"><ele>3</ele><time>2021-01-07T10:13:30Z</time><cmt>5.0 kmh</cmt></trkpt>
<trkpt lat="51.677789" lon="03.750241"><ele>3</ele><time>2021-01-07T10:13:32Z</time><cmt>4.4 kmh</cmt></trkpt>
<trkpt lat="51.677771" lon="03.750262"><ele>2</ele><time>2021-01-07T10:13:34Z</time><cmt>4.9 kmh</cmt></trkpt>
<trkpt lat="51.677749" lon="03.750279"><ele>2</ele><time>2021-01-07T10:13:36Z</time><cmt>4.2 kmh</cmt></trkpt>
<trkpt lat="51.677720" lon="03.750308"><ele>2</ele><time>2021-01-07T10:13:38Z</time><cmt>5.0 kmh</cmt></trkpt>
<trkpt lat="51.677705" lon="03.750330"><ele>3</ele><time>2021-01-07T10:13:39Z</time><cmt>5.0 kmh</cmt></trkpt>
<trkpt lat="51.677684" lon="03.750357"><ele>3</ele><time>2021-01-07T10:13:41Z</time><cmt>5.0 kmh</cmt></trkpt>
<trkpt lat="51.677667" lon="03.750377"><ele>3</ele><time>2021-01-07T10:13:43Z</time><cmt>4.6 kmh</cmt></trkpt>
<trkpt lat="51.677652" lon="03.750399"><ele>3</ele><time>2021-01-07T10:13:45Z</time><cmt>4.5 kmh</cmt></trkpt>
<trkpt lat="51.677628" lon="03.750427"><ele>4</ele><time>2021-01-07T10:13:48Z</time><cmt>3.7 kmh</cmt></trkpt>
<trkpt lat="51.677608" lon="03.750445"><ele>4</ele><time>2021-01-07T10:13:50Z</time><cmt>5.0 kmh</cmt></trkpt>
<trkpt lat="51.677588" lon="03.750461"><ele>4</ele><time>2021-01-07T10:13:52Z</time><cmt>4.8 kmh</cmt></trkpt>
<trkpt lat="51.677566" lon="03.750476"><ele>4</ele><time>2021-01-07T10:13:54Z</time><cmt>4.5 kmh</cmt></trkpt>
<trkpt lat="51.677528" lon="03.750521"><ele>4</ele><time>2021-01-07T10:14:00Z</time><cmt>5.0 kmh</cmt></trkpt>
<trkpt lat="51.677512" lon="03.750544"><ele>4</ele><time>2021-01-07T10:14:02Z</time><cmt>5.0 kmh</cmt></trkpt>
<trkpt lat="51.677489" lon="03.750573"><ele>4</ele><time>2021-01-07T10:14:04Z</time><cmt>5.0 kmh</cmt></trkpt>
<trkpt lat="51.677471" lon="03.750589"><ele>4</ele><time>2021-01-07T10:14:06Z</time><cmt>5.0 kmh</cmt></trkpt>
<trkpt lat="51.677451" lon="03.750603"><ele>4</ele><time>2021-01-07T10:14:08Z</time><cmt>3.7 kmh</cmt></trkpt>
<trkpt lat="51.677432" lon="03.750619"><ele>4</ele><time>2021-01-07T10:14:10Z</time><cmt>5.0 kmh</cmt></trkpt>
<trkpt lat="51.677408" lon="03.750634"><ele>4</ele><time>2021-01-07T10:14:12Z</time><cmt>5.0 kmh</cmt></trkpt>
<trkpt lat="51.677389" lon="03.750657"><ele>4</ele><time>2021-01-07T10:14:14Z</time><cmt>4.7 kmh</cmt></trkpt>
<trkpt lat="51.677369" lon="03.750677"><ele>4</ele><time>2021-01-07T10:14:16Z</time><cmt>4.6 kmh</cmt></trkpt>
<trkpt lat="51.677340" lon="03.750701"><ele>4</ele><time>2021-01-07T10:14:19Z</time><cmt>4.0 kmh</cmt></trkpt>
<trkpt lat="51.677311" lon="03.750727"><ele>4</ele><time>2021-01-07T10:14:22Z</time><cmt>4.8 kmh</cmt></trkpt>
<trkpt lat="51.677281" lon="03.750756"><ele>4</ele><time>2021-01-07T10:14:25Z</time><cmt>5.0 kmh</cmt></trkpt>
<trkpt lat="51.677259" lon="03.750775"><ele>4</ele><time>2021-01-07T10:14:27Z</time><cmt>4.4 kmh</cmt></trkpt>
<trkpt lat="51.677237" lon="03.750791"><ele>3</ele><time>2021-01-07T10:14:29Z</time><cmt>5.0 kmh</cmt></trkpt>
<trkpt lat="51.677207" lon="03.750816"><ele>3</ele><time>2021-01-07T10:14:32Z</time><cmt>4.2 kmh</cmt></trkpt>
<trkpt lat="51.677185" lon="03.750830"><ele>3</ele><time>2021-01-07T10:14:34Z</time><cmt>5.0 kmh</cmt></trkpt>
<trkpt lat="51.677155" lon="03.750858"><ele>3</ele><time>2021-01-07T10:14:37Z</time><cmt>5.0 kmh</cmt></trkpt>
<trkpt lat="51.677132" lon="03.750875"><ele>3</ele><time>2021-01-07T10:14:39Z</time><cmt>4.3 kmh</cmt></trkpt>
<trkpt lat="51.677109" lon="03.750891"><ele>2</ele><time>2021-01-07T10:14:41Z</time><cmt>5.0 kmh</cmt></trkpt>
<trkpt lat="51.677079" lon="03.750913"><ele>2</ele><time>2021-01-07T10:14:44Z</time><cmt>4.7 kmh</cmt></trkpt>
<trkpt lat="51.677055" lon="03.750943"><ele>2</ele><time>2021-01-07T10:14:47Z</time><cmt>3.8 kmh</cmt></trkpt>
<trkpt lat="51.677028" lon="03.750971"><ele>2</ele><time>2021-01-07T10:14:50Z</time><cmt>4.5 kmh</cmt></trkpt>
<trkpt lat="51.677000" lon="03.750997"><ele>1</ele><time>2021-01-07T10:14:53Z</time><cmt>4.1 kmh</cmt></trkpt>
<trkpt lat="51.676967" lon="03.751025"><ele>1</ele><time>2021-01-07T10:14:56Z</time><cmt>5.0 kmh</cmt></trkpt>
<trkpt lat="51.676937" lon="03.751053"><ele>1</ele><time>2021-01-07T10:14:58Z</time><cmt>5.0 kmh</cmt></trkpt>
<trkpt lat="51.676910" lon="03.751082"><ele>1</ele><time>2021-01-07T10:15:00Z</time><cmt>5.0 kmh</cmt></trkpt>
<trkpt lat="51.676881" lon="03.751112"><ele>2</ele><time>2021-01-07T10:15:03Z</time><cmt>5.0 kmh</cmt></trkpt>
<trkpt lat="51.676848" lon="03.751134"><ele>2</ele><time>2021-01-07T10:15:06Z</time><cmt>4.4 kmh</cmt></trkpt>
<trkpt lat="51.676820" lon="03.751141"><ele>2</ele><time>2021-01-07T10:15:08Z</time><cmt>5.0 kmh</cmt></trkpt>
<trkpt lat="51.676795" lon="03.751146"><ele>2</ele><time>2021-01-07T10:15:10Z</time><cmt>5.0 kmh</cmt></trkpt>
<trkpt lat="51.676773" lon="03.751155"><ele>2</ele><time>2021-01-07T10:15:12Z</time><cmt>4.6 kmh</cmt></trkpt>
<trkpt lat="51.676754" lon="03.751172"><ele>2</ele><time>2021-01-07T10:15:14Z</time><cmt>4.8 kmh</cmt></trkpt>
<trkpt lat="51.676726" lon="03.751202"><ele>2</ele><time>2021-01-07T10:15:17Z</time><cmt>5.0 kmh</cmt></trkpt>
<trkpt lat="51.676696" lon="03.751230"><ele>2</ele><time>2021-01-07T10:15:19Z</time><cmt>5.3 kmh</cmt></trkpt>
<trkpt lat="51.676686" lon="03.751241"><ele>2</ele><time>2021-01-07T10:15:20Z</time><cmt>5.3 kmh</cmt></trkpt>
<trkpt lat="51.676677" lon="03.751250"><ele>2</ele><time>2021-01-07T10:15:21Z</time><cmt>4.8 kmh</cmt></trkpt>
<trkpt lat="51.676667" lon="03.751257"><ele>2</ele><time>2021-01-07T10:15:22Z</time><cmt>4.7 kmh</cmt></trkpt>
<trkpt lat="51.676657" lon="03.751267"><ele>2</ele><time>2021-01-07T10:15:23Z</time><cmt>3.9 kmh</cmt></trkpt>
<trkpt lat="51.676647" lon="03.751278"><ele>2</ele><time>2021-01-07T10:15:24Z</time><cmt>4.2 kmh</cmt></trkpt>
<trkpt lat="51.676636" lon="03.751287"><ele>2</ele><time>2021-01-07T10:15:25Z</time><cmt>5.0 kmh</cmt></trkpt>
<trkpt lat="51.676626" lon="03.751294"><ele>2</ele><time>2021-01-07T10:15:26Z</time><cmt>4.9 kmh</cmt></trkpt>
<trkpt lat="51.676616" lon="03.751302"><ele>2</ele><time>2021-01-07T10:15:27Z</time><cmt>4.8 kmh</cmt></trkpt>
<trkpt lat="51.676605" lon="03.751313"><ele>2</ele><time>2021-01-07T10:15:28Z</time><cmt>5.0 kmh</cmt></trkpt>
<trkpt lat="51.676594" lon="03.751325"><ele>2</ele><time>2021-01-07T10:15:29Z</time><cmt>4.6 kmh</cmt></trkpt>
<trkpt lat="51.676583" lon="03.751335"><ele>2</ele><time>2021-01-07T10:15:30Z</time><cmt>4.4 kmh</cmt></trkpt>
<trkpt lat="51.676573" lon="03.751344"><ele>2</ele><time>2021-01-07T10:15:31Z</time><cmt>5.0 kmh</cmt></trkpt>
<trkpt lat="51.676562" lon="03.751354"><ele>2</ele><time>2021-01-07T10:15:32Z</time><cmt>5.0 kmh</cmt></trkpt>
<trkpt lat="51.676552" lon="03.751364"><ele>2</ele><time>2021-01-07T10:15:33Z</time><cmt>5.0 kmh</cmt></trkpt>
<trkpt lat="51.676541" lon="03.751371"><ele>2</ele><time>2021-01-07T10:15:34Z</time><cmt>5.0 kmh</cmt></trkpt>
<trkpt lat="51.676531" lon="03.751378"><ele>2</ele><time>2021-01-07T10:15:35Z</time><cmt>4.8 kmh</cmt></trkpt>
<trkpt lat="51.676522" lon="03.751385"><ele>2</ele><time>2021-01-07T10:15:36Z</time><cmt>3.7 kmh</cmt></trkpt>
<trkpt lat="51.676513" lon="03.751393"><ele>1</ele><time>2021-01-07T10:15:37Z</time><cmt>3.6 kmh</cmt></trkpt>
<trkpt lat="51.676503" lon="03.751400"><ele>1</ele><time>2021-01-07T10:15:38Z</time><cmt>4.5 kmh</cmt></trkpt>
<trkpt lat="51.676493" lon="03.751407"><ele>1</ele><time>2021-01-07T10:15:39Z</time><cmt>4.7 kmh</cmt></trkpt>
<trkpt lat="51.676483" lon="03.751414"><ele>1</ele><time>2021-01-07T10:15:40Z</time><cmt>4.7 kmh</cmt></trkpt>
<trkpt lat="51.676473" lon="03.751422"><ele>1</ele><time>2021-01-07T10:15:41Z</time><cmt>4.7 kmh</cmt></trkpt>
<trkpt lat="51.676464" lon="03.751432"><ele>1</ele><time>2021-01-07T10:15:42Z</time><cmt>4.7 kmh</cmt></trkpt>
<trkpt lat="51.676455" lon="03.751440"><ele>1</ele><time>2021-01-07T10:15:43Z</time><cmt>3.6 kmh</cmt></trkpt>
<trkpt lat="51.676446" lon="03.751444"><ele>1</ele><time>2021-01-07T10:15:44Z</time><cmt>3.4 kmh</cmt></trkpt>
<trkpt lat="51.676437" lon="03.751449"><ele>1</ele><time>2021-01-07T10:15:45Z</time><cmt>4.0 kmh</cmt></trkpt>
<trkpt lat="51.676427" lon="03.751456"><ele>1</ele><time>2021-01-07T10:15:46Z</time><cmt>4.3 kmh</cmt></trkpt>
<trkpt lat="51.676417" lon="03.751464"><ele>1</ele><time>2021-01-07T10:15:47Z</time><cmt>4.7 kmh</cmt></trkpt>
<trkpt lat="51.676407" lon="03.751474"><ele>1</ele><time>2021-01-07T10:15:48Z</time><cmt>5.0 kmh</cmt></trkpt>
<trkpt lat="51.676396" lon="03.751484"><ele>1</ele><time>2021-01-07T10:15:49Z</time><cmt>4.3 kmh</cmt></trkpt>
<trkpt lat="51.676385" lon="03.751495"><ele>1</ele><time>2021-01-07T10:15:50Z</time><cmt>4.4 kmh</cmt></trkpt>
<trkpt lat="51.676373" lon="03.751508"><ele>1</ele><time>2021-01-07T10:15:51Z</time><cmt>5.0 kmh</cmt></trkpt>
<trkpt lat="51.676362" lon="03.751521"><ele>1</ele><time>2021-01-07T10:15:52Z</time><cmt>5.0 kmh</cmt></trkpt>
<trkpt lat="51.676350" lon="03.751532"><ele>1</ele><time>2021-01-07T10:15:53Z</time><cmt>5.0 kmh</cmt></trkpt>
<trkpt lat="51.676338" lon="03.751544"><ele>1</ele><time>2021-01-07T10:15:54Z</time><cmt>5.0 kmh</cmt></trkpt>
<trkpt lat="51.676325" lon="03.751556"><ele>1</ele><time>2021-01-07T10:15:55Z</time><cmt>5.0 kmh</cmt></trkpt>
<trkpt lat="51.676313" lon="03.751569"><ele>1</ele><time>2021-01-07T10:15:56Z</time><cmt>5.0 kmh</cmt></trkpt>
<trkpt lat="51.676303" lon="03.751576"><ele>1</ele><time>2021-01-07T10:15:57Z</time><cmt>5.0 kmh</cmt></trkpt>
<trkpt lat="51.676293" lon="03.751586"><ele>1</ele><time>2021-01-07T10:15:58Z</time><cmt>5.0 kmh</cmt></trkpt>
<trkpt lat="51.676282" lon="03.751595"><ele>1</ele><time>2021-01-07T10:15:59Z</time><cmt>5.0 kmh</cmt></trkpt>
<trkpt lat="51.676271" lon="03.751605"><ele>1</ele><time>2021-01-07T10:16:00Z</time><cmt>5.0 kmh</cmt></trkpt>
<trkpt lat="51.676260" lon="03.751617"><ele>1</ele><time>2021-01-07T10:16:01Z</time><cmt>4.6 kmh</cmt></trkpt>
<trkpt lat="51.676249" lon="03.751628"><ele>1</ele><time>2021-01-07T10:16:02Z</time><cmt>4.6 kmh</cmt></trkpt>
<trkpt lat="51.676238" lon="03.751638"><ele>1</ele><time>2021-01-07T10:16:03Z</time><cmt>5.0 kmh</cmt></trkpt>
<trkpt lat="51.676227" lon="03.751647"><ele>1</ele><time>2021-01-07T10:16:04Z</time><cmt>5.0 kmh</cmt></trkpt>
<trkpt lat="51.676215" lon="03.751658"><ele>1</ele><time>2021-01-07T10:16:05Z</time><cmt>5.0 kmh</cmt></trkpt>
<trkpt lat="51.676204" lon="03.751669"><ele>1</ele><time>2021-01-07T10:16:06Z</time><cmt>5.0 kmh</cmt></trkpt>
<trkpt lat="51.676192" lon="03.751680"><ele>0</ele><time>2021-01-07T10:16:07Z</time><cmt>5.0 kmh</cmt></trkpt>
<trkpt lat="51.676180" lon="03.751692"><ele>0</ele><time>2021-01-07T10:16:08Z</time><cmt>5.0 kmh</cmt></trkpt>
<trkpt lat="51.676169" lon="03.751701"><ele>0</ele><time>2021-01-07T10:16:09Z</time><cmt>4.5 kmh</cmt></trkpt>
<trkpt lat="51.676159" lon="03.751710"><ele>0</ele><time>2021-01-07T10:16:10Z</time><cmt>4.1 kmh</cmt></trkpt>
<trkpt lat="51.676148" lon="03.751718"><ele>0</ele><time>2021-01-07T10:16:11Z</time><cmt>5.0 kmh</cmt></trkpt>
<trkpt lat="51.676137" lon="03.751727"><ele>0</ele><time>2021-01-07T10:16:12Z</time><cmt>5.0 kmh</cmt></trkpt>
<trkpt lat="51.676125" lon="03.751735"><ele>0</ele><time>2021-01-07T10:16:13Z</time><cmt>5.0 kmh</cmt></trkpt>
<trkpt lat="51.676115" lon="03.751743"><ele>0</ele><time>2021-01-07T10:16:14Z</time><cmt>5.0 kmh</cmt></trkpt>
<trkpt lat="51.676105" lon="03.751750"><ele>0</ele><time>2021-01-07T10:16:15Z</time><cmt>3.9 kmh</cmt></trkpt>
<trkpt lat="51.676095" lon="03.751754"><ele>0</ele><time>2021-01-07T10:16:16Z</time><cmt>3.7 kmh</cmt></trkpt>
<trkpt lat="51.676084" lon="03.751757"><ele>0</ele><time>2021-01-07T10:16:17Z</time><cmt>4.5 kmh</cmt></trkpt>
<trkpt lat="51.676075" lon="03.751761"><ele>0</ele><time>2021-01-07T10:16:18Z</time><cmt>4.4 kmh</cmt></trkpt>
<trkpt lat="51.676063" lon="03.751770"><ele>0</ele><time>2021-01-07T10:16:19Z</time><cmt>4.8 kmh</cmt></trkpt>
<trkpt lat="51.676052" lon="03.751780"><ele>0</ele><time>2021-01-07T10:16:20Z</time><cmt>5.0 kmh</cmt></trkpt>
<trkpt lat="51.676041" lon="03.751789"><ele>0</ele><time>2021-01-07T10:16:21Z</time><cmt>5.0 kmh</cmt></trkpt>
<trkpt lat="51.676030" lon="03.751798"><ele>0</ele><time>2021-01-07T10:16:22Z</time><cmt>4.3 kmh</cmt></trkpt>
<trkpt lat="51.676018" lon="03.751810"><ele>0</ele><time>2021-01-07T10:16:23Z</time><cmt>4.5 kmh</cmt></trkpt>
<trkpt lat="51.676008" lon="03.751818"><ele>0</ele><time>2021-01-07T10:16:24Z</time><cmt>5.0 kmh</cmt></trkpt>
<trkpt lat="51.675997" lon="03.751827"><ele>0</ele><time>2021-01-07T10:16:25Z</time><cmt>5.0 kmh</cmt></trkpt>
<trkpt lat="51.675986" lon="03.751836"><ele>0</ele><time>2021-01-07T10:16:26Z</time><cmt>5.0 kmh</cmt></trkpt>
<trkpt lat="51.675976" lon="03.751842"><ele>0</ele><time>2021-01-07T10:16:27Z</time><cmt>3.9 kmh</cmt></trkpt>
<trkpt lat="51.675967" lon="03.751847"><ele>0</ele><time>2021-01-07T10:16:28Z</time><cmt>3.6 kmh</cmt></trkpt>
<trkpt lat="51.675957" lon="03.751853"><ele>0</ele><time>2021-01-07T10:16:29Z</time><cmt>4.5 kmh</cmt></trkpt>
<trkpt lat="51.675946" lon="03.751861"><ele>0</ele><time>2021-01-07T10:16:30Z</time><cmt>5.0 kmh</cmt></trkpt>
<trkpt lat="51.675935" lon="03.751869"><ele>0</ele><time>2021-01-07T10:16:31Z</time><cmt>5.0 kmh</cmt></trkpt>
<trkpt lat="51.675923" lon="03.751878"><ele>0</ele><time>2021-01-07T10:16:32Z</time><cmt>5.0 kmh</cmt></trkpt>
<trkpt lat="51.675912" lon="03.751888"><ele>0</ele><time>2021-01-07T10:16:33Z</time><cmt>4.5 kmh</cmt></trkpt>
<trkpt lat="51.675900" lon="03.751898"><ele>0</ele><time>2021-01-07T10:16:34Z</time><cmt>4.6 kmh</cmt></trkpt>
<trkpt lat="51.675888" lon="03.751908"><ele>0</ele><time>2021-01-07T10:16:35Z</time><cmt>5.0 kmh</cmt></trkpt>
<trkpt lat="51.675877" lon="03.751918"><ele>0</ele><time>2021-01-07T10:16:36Z</time><cmt>5.0 kmh</cmt></trkpt>
<trkpt lat="51.675865" lon="03.751930"><ele>0</ele><time>2021-01-07T10:16:37Z</time><cmt>5.0 kmh</cmt></trkpt>
<trkpt lat="51.675853" lon="03.751942"><ele>0</ele><time>2021-01-07T10:16:38Z</time><cmt>5.0 kmh</cmt></trkpt>
<trkpt lat="51.675841" lon="03.751954"><ele>1</ele><time>2021-01-07T10:16:39Z</time><cmt>5.0 kmh</cmt></trkpt>
<trkpt lat="51.675829" lon="03.751965"><ele>1</ele><time>2021-01-07T10:16:40Z</time><cmt>5.0 kmh</cmt></trkpt>
<trkpt lat="51.675818" lon="03.751974"><ele>1</ele><time>2021-01-07T10:16:41Z</time><cmt>4.4 kmh</cmt></trkpt>
<trkpt lat="51.675806" lon="03.751985"><ele>1</ele><time>2021-01-07T10:16:42Z</time><cmt>4.5 kmh</cmt></trkpt>
<trkpt lat="51.675795" lon="03.751995"><ele>1</ele><time>2021-01-07T10:16:43Z</time><cmt>5.0 kmh</cmt></trkpt>
<trkpt lat="51.675782" lon="03.752006"><ele>1</ele><time>2021-01-07T10:16:44Z</time><cmt>5.0 kmh</cmt></trkpt>
<trkpt lat="51.675771" lon="03.752015"><ele>1</ele><time>2021-01-07T10:16:45Z</time><cmt>5.0 kmh</cmt></trkpt>
<trkpt lat="51.675761" lon="03.752023"><ele>1</ele><time>2021-01-07T10:16:46Z</time><cmt>4.2 kmh</cmt></trkpt>
<trkpt lat="51.675750" lon="03.752030"><ele>1</ele><time>2021-01-07T10:16:47Z</time><cmt>4.0 kmh</cmt></trkpt>
<trkpt lat="51.675739" lon="03.752038"><ele>1</ele><time>2021-01-07T10:16:48Z</time><cmt>5.0 kmh</cmt></trkpt>
<trkpt lat="51.675727" lon="03.752046"><ele>2</ele><time>2021-01-07T10:16:49Z</time><cmt>5.0 kmh</cmt></trkpt>
<trkpt lat="51.675717" lon="03.752051"><ele>2</ele><time>2021-01-07T10:16:50Z</time><cmt>5.0 kmh</cmt></trkpt>
<trkpt lat="51.675706" lon="03.752061"><ele>2</ele><time>2021-01-07T10:16:51Z</time><cmt>5.0 kmh</cmt></trkpt>
<trkpt lat="51.675695" lon="03.752071"><ele>2</ele><time>2021-01-07T10:16:52Z</time><cmt>5.0 kmh</cmt></trkpt>
<trkpt lat="51.675684" lon="03.752080"><ele>2</ele><time>2021-01-07T10:16:53Z</time><cmt>4.3 kmh</cmt></trkpt>
<trkpt lat="51.675674" lon="03.752085"><ele>2</ele><time>2021-01-07T10:16:54Z</time><cmt>3.9 kmh</cmt></trkpt>
<trkpt lat="51.675663" lon="03.752090"><ele>2</ele><time>2021-01-07T10:16:55Z</time><cmt>4.6 kmh</cmt></trkpt>
<trkpt lat="51.675653" lon="03.752095"><ele>2</ele><time>2021-01-07T10:16:56Z</time><cmt>4.6 kmh</cmt></trkpt>
<trkpt lat="51.675643" lon="03.752100"><ele>2</ele><time>2021-01-07T10:16:57Z</time><cmt>4.7 kmh</cmt></trkpt>
<trkpt lat="51.675633" lon="03.752104"><ele>2</ele><time>2021-01-07T10:16:58Z</time><cmt>3.7 kmh</cmt></trkpt>
<trkpt lat="51.675622" lon="03.752108"><ele>2</ele><time>2021-01-07T10:16:59Z</time><cmt>3.6 kmh</cmt></trkpt>
<trkpt lat="51.675612" lon="03.752112"><ele>3</ele><time>2021-01-07T10:17:00Z</time><cmt>4.7 kmh</cmt></trkpt>
<trkpt lat="51.675602" lon="03.752117"><ele>3</ele><time>2021-01-07T10:17:01Z</time><cmt>4.7 kmh</cmt></trkpt>
<trkpt lat="51.675592" lon="03.752122"><ele>3</ele><time>2021-01-07T10:17:02Z</time><cmt>4.5 kmh</cmt></trkpt>
<trkpt lat="51.675581" lon="03.752128"><ele>3</ele><time>2021-01-07T10:17:03Z</time><cmt>4.6 kmh</cmt></trkpt>
<trkpt lat="51.675571" lon="03.752134"><ele>3</ele><time>2021-01-07T10:17:04Z</time><cmt>4.7 kmh</cmt></trkpt>
<trkpt lat="51.675561" lon="03.752143"><ele>3</ele><time>2021-01-07T10:17:05Z</time><cmt>4.7 kmh</cmt></trkpt>
<trkpt lat="51.675552" lon="03.752152"><ele>3</ele><time>2021-01-07T10:17:06Z</time><cmt>3.9 kmh</cmt></trkpt>
<trkpt lat="51.675542" lon="03.752160"><ele>3</ele><time>2021-01-07T10:17:07Z</time><cmt>3.8 kmh</cmt></trkpt>
<trkpt lat="51.675531" lon="03.752168"><ele>3</ele><time>2021-01-07T10:17:08Z</time><cmt>4.8 kmh</cmt></trkpt>
<trkpt lat="51.675522" lon="03.752175"><ele>3</ele><time>2021-01-07T10:17:09Z</time><cmt>4.8 kmh</cmt></trkpt>
<trkpt lat="51.675512" lon="03.752183"><ele>3</ele><time>2021-01-07T10:17:10Z</time><cmt>4.6 kmh</cmt></trkpt>
<trkpt lat="51.675503" lon="03.752191"><ele>3</ele><time>2021-01-07T10:17:11Z</time><cmt>4.6 kmh</cmt></trkpt>
<trkpt lat="51.675494" lon="03.752198"><ele>2</ele><time>2021-01-07T10:17:12Z</time><cmt>4.5 kmh</cmt></trkpt>
<trkpt lat="51.675484" lon="03.752206"><ele>2</ele><time>2021-01-07T10:17:13Z</time><cmt>3.6 kmh</cmt></trkpt>
<trkpt lat="51.675475" lon="03.752216"><ele>2</ele><time>2021-01-07T10:17:14Z</time><cmt>3.7 kmh</cmt></trkpt>
<trkpt lat="51.675464" lon="03.752226"><ele>2</ele><time>2021-01-07T10:17:15Z</time><cmt>5.0 kmh</cmt></trkpt>
<trkpt lat="51.675453" lon="03.752236"><ele>2</ele><time>2021-01-07T10:17:16Z</time><cmt>5.0 kmh</cmt></trkpt>
<trkpt lat="51.675443" lon="03.752246"><ele>2</ele><time>2021-01-07T10:17:17Z</time><cmt>5.0 kmh</cmt></trkpt>
<trkpt lat="51.675433" lon="03.752257"><ele>2</ele><time>2021-01-07T10:17:18Z</time><cmt>5.0 kmh</cmt></trkpt>
<trkpt lat="51.675423" lon="03.752268"><ele>2</ele><time>2021-01-07T10:17:19Z</time><cmt>4.2 kmh</cmt></trkpt>
<trkpt lat="51.675414" lon="03.752273"><ele>2</ele><time>2021-01-07T10:17:20Z</time><cmt>3.8 kmh</cmt></trkpt>
<trkpt lat="51.675405" lon="03.752279"><ele>2</ele><time>2021-01-07T10:17:21Z</time><cmt>4.2 kmh</cmt></trkpt>
<trkpt lat="51.675395" lon="03.752286"><ele>2</ele><time>2021-01-07T10:17:22Z</time><cmt>4.3 kmh</cmt></trkpt>
<trkpt lat="51.675385" lon="03.752294"><ele>2</ele><time>2021-01-07T10:17:23Z</time><cmt>4.7 kmh</cmt></trkpt>
<trkpt lat="51.675375" lon="03.752302"><ele>2</ele><time>2021-01-07T10:17:24Z</time><cmt>4.8 kmh</cmt></trkpt>
<trkpt lat="51.675365" lon="03.752309"><ele>2</ele><time>2021-01-07T10:17:25Z</time><cmt>3.8 kmh</cmt></trkpt>
<trkpt lat="51.675356" lon="03.752316"><ele>2</ele><time>2021-01-07T10:17:26Z</time><cmt>3.6 kmh</cmt></trkpt>
<trkpt lat="51.675348" lon="03.752321"><ele>2</ele><time>2021-01-07T10:17:27Z</time><cmt>4.1 kmh</cmt></trkpt>
<trkpt lat="51.675338" lon="03.752329"><ele>2</ele><time>2021-01-07T10:17:28Z</time><cmt>4.2 kmh</cmt></trkpt>
<trkpt lat="51.675328" lon="03.752338"><ele>2</ele><time>2021-01-07T10:17:29Z</time><cmt>4.8 kmh</cmt></trkpt>
<trkpt lat="51.675318" lon="03.752344"><ele>2</ele><time>2021-01-07T10:17:30Z</time><cmt>3.9 kmh</cmt></trkpt>
<trkpt lat="51.675309" lon="03.752351"><ele>2</ele><time>2021-01-07T10:17:31Z</time><cmt>4.5 kmh</cmt></trkpt>
<trkpt lat="51.675299" lon="03.752358"><ele>2</ele><time>2021-01-07T10:17:32Z</time><cmt>4.5 kmh</cmt></trkpt>
<trkpt lat="51.675289" lon="03.752366"><ele>2</ele><time>2021-01-07T10:17:33Z</time><cmt>3.7 kmh</cmt></trkpt>
<trkpt lat="51.675279" lon="03.752377"><ele>2</ele><time>2021-01-07T10:17:34Z</time><cmt>5.0 kmh</cmt></trkpt>
<trkpt lat="51.675270" lon="03.752386"><ele>2</ele><time>2021-01-07T10:17:35Z</time><cmt>5.0 kmh</cmt></trkpt>
<trkpt lat="51.675261" lon="03.752395"><ele>2</ele><time>2021-01-07T10:17:36Z</time><cmt>4.6 kmh</cmt></trkpt>
<trkpt lat="51.675250" lon="03.752403"><ele>2</ele><time>2021-01-07T10:17:37Z</time><cmt>4.7 kmh</cmt></trkpt>
<trkpt lat="51.675241" lon="03.752410"><ele>2</ele><time>2021-01-07T10:17:38Z</time><cmt>3.8 kmh</cmt></trkpt>
<trkpt lat="51.675231" lon="03.752418"><ele>2</ele><time>2021-01-07T10:17:39Z</time><cmt>3.7 kmh</cmt></trkpt>
<trkpt lat="51.675222" lon="03.752425"><ele>2</ele><time>2021-01-07T10:17:40Z</time><cmt>4.6 kmh</cmt></trkpt>
<trkpt lat="51.675213" lon="03.752433"><ele>2</ele><time>2021-01-07T10:17:41Z</time><cmt>4.4 kmh</cmt></trkpt>
<trkpt lat="51.675205" lon="03.752442"><ele>2</ele><time>2021-01-07T10:17:42Z</time><cmt>4.4 kmh</cmt></trkpt>
<trkpt lat="51.675195" lon="03.752450"><ele>2</ele><time>2021-01-07T10:17:43Z</time><cmt>3.5 kmh</cmt></trkpt>
<trkpt lat="51.675186" lon="03.752458"><ele>2</ele><time>2021-01-07T10:17:44Z</time><cmt>3.7 kmh</cmt></trkpt>
<trkpt lat="51.675176" lon="03.752467"><ele>2</ele><time>2021-01-07T10:17:45Z</time><cmt>4.8 kmh</cmt></trkpt>
<trkpt lat="51.675166" lon="03.752475"><ele>2</ele><time>2021-01-07T10:17:46Z</time><cmt>4.9 kmh</cmt></trkpt>
<trkpt lat="51.675156" lon="03.752483"><ele>2</ele><time>2021-01-07T10:17:47Z</time><cmt>4.9 kmh</cmt></trkpt>
<trkpt lat="51.675147" lon="03.752492"><ele>2</ele><time>2021-01-07T10:17:48Z</time><cmt>4.6 kmh</cmt></trkpt>
<trkpt lat="51.675139" lon="03.752501"><ele>2</ele><time>2021-01-07T10:17:49Z</time><cmt>3.4 kmh</cmt></trkpt>
<trkpt lat="51.675134" lon="03.752507"><ele>2</ele><time>2021-01-07T10:17:50Z</time><cmt>2.8 kmh</cmt></trkpt>
<trkpt lat="51.675123" lon="03.752524"><ele>3</ele><time>2021-01-07T10:17:51Z</time><cmt>4.6 kmh</cmt></trkpt>
<trkpt lat="51.675116" lon="03.752533"><ele>3</ele><time>2021-01-07T10:17:52Z</time><cmt>5.0 kmh</cmt></trkpt>
<trkpt lat="51.675110" lon="03.752538"><ele>3</ele><time>2021-01-07T10:17:53Z</time><cmt>3.4 kmh</cmt></trkpt>
<trkpt lat="51.675105" lon="03.752548"><ele>3</ele><time>2021-01-07T10:17:54Z</time><cmt>3.2 kmh</cmt></trkpt>
<trkpt lat="51.675099" lon="03.752561"><ele>3</ele><time>2021-01-07T10:17:55Z</time><cmt>4.0 kmh</cmt></trkpt>
<trkpt lat="51.675091" lon="03.752581"><ele>3</ele><time>2021-01-07T10:17:56Z</time><cmt>4.2 kmh</cmt></trkpt>
<trkpt lat="51.675088" lon="03.752595"><ele>3</ele><time>2021-01-07T10:17:57Z</time><cmt>4.1 kmh</cmt></trkpt>
<trkpt lat="51.675086" lon="03.752607"><ele>4</ele><time>2021-01-07T10:17:58Z</time><cmt>3.6 kmh</cmt></trkpt>
<trkpt lat="51.675086" lon="03.752617"><ele>4</ele><time>2021-01-07T10:17:59Z</time><cmt>3.1 kmh</cmt></trkpt>
<trkpt lat="51.675087" lon="03.752632"><ele>4</ele><time>2021-01-07T10:18:00Z</time><cmt>3.4 kmh</cmt></trkpt>
<trkpt lat="51.675089" lon="03.752650"><ele>4</ele><time>2021-01-07T10:18:01Z</time><cmt>4.4 kmh</cmt></trkpt>
<trkpt lat="51.675092" lon="03.752667"><ele>4</ele><time>2021-01-07T10:18:02Z</time><cmt>3.9 kmh</cmt></trkpt>
<trkpt lat="51.675096" lon="03.752682"><ele>4</ele><time>2021-01-07T10:18:03Z</time><cmt>3.7 kmh</cmt></trkpt>
<trkpt lat="51.675099" lon="03.752696"><ele>4</ele><time>2021-01-07T10:18:04Z</time><cmt>4.1 kmh</cmt></trkpt>
<trkpt lat="51.675101" lon="03.752708"><ele>4</ele><time>2021-01-07T10:18:05Z</time><cmt>3.6 kmh</cmt></trkpt>
<trkpt lat="51.675102" lon="03.752720"><ele>4</ele><time>2021-01-07T10:18:06Z</time><cmt>3.3 kmh</cmt></trkpt>
<trkpt lat="51.675104" lon="03.752728"><ele>5</ele><time>2021-01-07T10:18:07Z</time><cmt>2.7 kmh</cmt></trkpt>
<trkpt lat="51.675105" lon="03.752731"><ele>5</ele><time>2021-01-07T10:18:08Z</time><cmt>1.2 kmh</cmt></trkpt>
<trkpt lat="51.675106" lon="03.752732"><ele>5</ele><time>2021-01-07T10:18:09Z</time><cmt>0.5 kmh</cmt></trkpt>
<trkpt lat="51.675107" lon="03.752735"><ele>5</ele><time>2021-01-07T10:18:10Z</time><cmt>0.6 kmh</cmt></trkpt>
<trkpt lat="51.675114" lon="03.752785"><ele>6</ele><time>2021-01-07T10:18:14Z</time><cmt>3.5 kmh</cmt></trkpt>
<trkpt lat="51.675122" lon="03.752839"><ele>6</ele><time>2021-01-07T10:18:17Z</time><cmt>4.3 kmh</cmt></trkpt>
<trkpt lat="51.675133" lon="03.752896"><ele>7</ele><time>2021-01-07T10:18:20Z</time><cmt>5.4 kmh</cmt></trkpt>
<trkpt lat="51.675144" lon="03.752960"><ele>8</ele><time>2021-01-07T10:18:24Z</time><cmt>5.0 kmh</cmt></trkpt>
<trkpt lat="51.675156" lon="03.753006"><ele>8</ele><time>2021-01-07T10:18:27Z</time><cmt>4.4 kmh</cmt></trkpt>
<trkpt lat="51.675167" lon="03.753040"><ele>8</ele><time>2021-01-07T10:18:29Z</time><cmt>4.0 kmh</cmt></trkpt>
<trkpt lat="51.675180" lon="03.753073"><ele>8</ele><time>2021-01-07T10:18:31Z</time><cmt>5.0 kmh</cmt></trkpt>
<trkpt lat="51.675192" lon="03.753108"><ele>8</ele><time>2021-01-07T10:18:33Z</time><cmt>5.0 kmh</cmt></trkpt>
<trkpt lat="51.675200" lon="03.753133"><ele>8</ele><time>2021-01-07T10:18:34Z</time><cmt>5.0 kmh</cmt></trkpt>
<trkpt lat="51.675205" lon="03.753150"><ele>8</ele><time>2021-01-07T10:18:35Z</time><cmt>5.1 kmh</cmt></trkpt>
<trkpt lat="51.675209" lon="03.753169"><ele>8</ele><time>2021-01-07T10:18:36Z</time><cmt>5.0 kmh</cmt></trkpt>
<trkpt lat="51.675214" lon="03.753188"><ele>8</ele><time>2021-01-07T10:18:37Z</time><cmt>5.0 kmh</cmt></trkpt>
<trkpt lat="51.675218" lon="03.753209"><ele>8</ele><time>2021-01-07T10:18:38Z</time><cmt>5.4 kmh</cmt></trkpt>
<trkpt lat="51.675222" lon="03.753228"><ele>8</ele><time>2021-01-07T10:18:39Z</time><cmt>5.4 kmh</cmt></trkpt>
<trkpt lat="51.675228" lon="03.753245"><ele>7</ele><time>2021-01-07T10:18:40Z</time><cmt>5.1 kmh</cmt></trkpt>
<trkpt lat="51.675235" lon="03.753262"><ele>7</ele><time>2021-01-07T10:18:41Z</time><cmt>5.2 kmh</cmt></trkpt>
<trkpt lat="51.675242" lon="03.753280"><ele>7</ele><time>2021-01-07T10:18:42Z</time><cmt>5.3 kmh</cmt></trkpt>
<trkpt lat="51.675248" lon="03.753296"><ele>7</ele><time>2021-01-07T10:18:43Z</time><cmt>5.3 kmh</cmt></trkpt>
<trkpt lat="51.675254" lon="03.753310"><ele>7</ele><time>2021-01-07T10:18:44Z</time><cmt>4.8 kmh</cmt></trkpt>
<trkpt lat="51.675260" lon="03.753325"><ele>7</ele><time>2021-01-07T10:18:45Z</time><cmt>4.6 kmh</cmt></trkpt>
<trkpt lat="51.675265" lon="03.753340"><ele>7</ele><time>2021-01-07T10:18:46Z</time><cmt>4.7 kmh</cmt></trkpt>
<trkpt lat="51.675270" lon="03.753355"><ele>7</ele><time>2021-01-07T10:18:47Z</time><cmt>3.7 kmh</cmt></trkpt>
<trkpt lat="51.675274" lon="03.753370"><ele>7</ele><time>2021-01-07T10:18:48Z</time><cmt>3.5 kmh</cmt></trkpt>
<trkpt lat="51.675278" lon="03.753384"><ele>7</ele><time>2021-01-07T10:18:49Z</time><cmt>4.2 kmh</cmt></trkpt>
<trkpt lat="51.675282" lon="03.753400"><ele>7</ele><time>2021-01-07T10:18:50Z</time><cmt>4.4 kmh</cmt></trkpt>
<trkpt lat="51.675286" lon="03.753417"><ele>7</ele><time>2021-01-07T10:18:51Z</time><cmt>4.7 kmh</cmt></trkpt>
<trkpt lat="51.675291" lon="03.753433"><ele>7</ele><time>2021-01-07T10:18:52Z</time><cmt>4.9 kmh</cmt></trkpt>
<trkpt lat="51.675295" lon="03.753451"><ele>6</ele><time>2021-01-07T10:18:53Z</time><cmt>3.9 kmh</cmt></trkpt>
<trkpt lat="51.675299" lon="03.753466"><ele>6</ele><time>2021-01-07T10:18:54Z</time><cmt>3.8 kmh</cmt></trkpt>
<trkpt lat="51.675303" lon="03.753481"><ele>6</ele><time>2021-01-07T10:18:55Z</time><cmt>4.4 kmh</cmt></trkpt>
<trkpt lat="51.675307" lon="03.753496"><ele>6</ele><time>2021-01-07T10:18:56Z</time><cmt>4.4 kmh</cmt></trkpt>
<trkpt lat="51.675310" lon="03.753512"><ele>6</ele><time>2021-01-07T10:18:57Z</time><cmt>4.4 kmh</cmt></trkpt>
<trkpt lat="51.675313" lon="03.753528"><ele>6</ele><time>2021-01-07T10:18:58Z</time><cmt>4.4 kmh</cmt></trkpt>
<trkpt lat="51.675316" lon="03.753543"><ele>6</ele><time>2021-01-07T10:18:59Z</time><cmt>3.5 kmh</cmt></trkpt>
<trkpt lat="51.675318" lon="03.753558"><ele>6</ele><time>2021-01-07T10:19:00Z</time><cmt>3.4 kmh</cmt></trkpt>
<trkpt lat="51.675319" lon="03.753575"><ele>6</ele><time>2021-01-07T10:19:01Z</time><cmt>4.4 kmh</cmt></trkpt>
<trkpt lat="51.675315" lon="03.753590"><ele>6</ele><time>2021-01-07T10:19:02Z</time><cmt>4.5 kmh</cmt></trkpt>
<trkpt lat="51.675311" lon="03.753603"><ele>6</ele><time>2021-01-07T10:19:03Z</time><cmt>4.1 kmh</cmt></trkpt>
<trkpt lat="51.675309" lon="03.753617"><ele>6</ele><time>2021-01-07T10:19:04Z</time><cmt>3.8 kmh</cmt></trkpt>
<trkpt lat="51.675308" lon="03.753633"><ele>5</ele><time>2021-01-07T10:19:05Z</time><cmt>4.1 kmh</cmt></trkpt>
<trkpt lat="51.675309" lon="03.753652"><ele>5</ele><time>2021-01-07T10:19:06Z</time><cmt>3.8 kmh</cmt></trkpt>
<trkpt lat="51.675310" lon="03.753672"><ele>5</ele><time>2021-01-07T10:19:07Z</time><cmt>4.2 kmh</cmt></trkpt>
<trkpt lat="51.675311" lon="03.753692"><ele>5</ele><time>2021-01-07T10:19:08Z</time><cmt>5.0 kmh</cmt></trkpt>
<trkpt lat="51.675311" lon="03.753712"><ele>5</ele><time>2021-01-07T10:19:09Z</time><cmt>5.0 kmh</cmt></trkpt>
<trkpt lat="51.675313" lon="03.753731"><ele>5</ele><time>2021-01-07T10:19:10Z</time><cmt>5.0 kmh</cmt></trkpt>
<trkpt lat="51.675314" lon="03.753749"><ele>5</ele><time>2021-01-07T10:19:11Z</time><cmt>5.0 kmh</cmt></trkpt>
<trkpt lat="51.675316" lon="03.753767"><ele>5</ele><time>2021-01-07T10:19:12Z</time><cmt>3.9 kmh</cmt></trkpt>
<trkpt lat="51.675319" lon="03.753786"><ele>5</ele><time>2021-01-07T10:19:13Z</time><cmt>4.0 kmh</cmt></trkpt>
<trkpt lat="51.675320" lon="03.753804"><ele>5</ele><time>2021-01-07T10:19:14Z</time><cmt>4.9 kmh</cmt></trkpt>
<trkpt lat="51.675321" lon="03.753822"><ele>5</ele><time>2021-01-07T10:19:15Z</time><cmt>4.9 kmh</cmt></trkpt>
<trkpt lat="51.675322" lon="03.753840"><ele>5</ele><time>2021-01-07T10:19:16Z</time><cmt>4.9 kmh</cmt></trkpt>
<trkpt lat="51.675323" lon="03.753858"><ele>5</ele><time>2021-01-07T10:19:17Z</time><cmt>4.9 kmh</cmt></trkpt>
<trkpt lat="51.675324" lon="03.753877"><ele>5</ele><time>2021-01-07T10:19:18Z</time><cmt>3.9 kmh</cmt></trkpt>
<trkpt lat="51.675326" lon="03.753897"><ele>5</ele><time>2021-01-07T10:19:19Z</time><cmt>4.2 kmh</cmt></trkpt>
<trkpt lat="51.675325" lon="03.753913"><ele>5</ele><time>2021-01-07T10:19:20Z</time><cmt>4.8 kmh</cmt></trkpt>
<trkpt lat="51.675327" lon="03.753928"><ele>5</ele><time>2021-01-07T10:19:21Z</time><cmt>4.1 kmh</cmt></trkpt>
<trkpt lat="51.675330" lon="03.753943"><ele>5</ele><time>2021-01-07T10:19:22Z</time><cmt>4.3 kmh</cmt></trkpt>
<trkpt lat="51.675335" lon="03.753958"><ele>5</ele><time>2021-01-07T10:19:23Z</time><cmt>4.4 kmh</cmt></trkpt>
<trkpt lat="51.675337" lon="03.753967"><ele>4</ele><time>2021-01-07T10:19:24Z</time><cmt>3.6 kmh</cmt></trkpt>
<trkpt lat="51.675340" lon="03.753977"><ele>4</ele><time>2021-01-07T10:19:25Z</time><cmt>2.2 kmh</cmt></trkpt>
<trkpt lat="51.675342" lon="03.753984"><ele>4</ele><time>2021-01-07T10:19:26Z</time><cmt>2.0 kmh</cmt></trkpt>
<trkpt lat="51.675343" lon="03.753990"><ele>4</ele><time>2021-01-07T10:19:27Z</time><cmt>2.0 kmh</cmt></trkpt>
<trkpt lat="51.675345" lon="03.753995"><ele>4</ele><time>2021-01-07T10:19:28Z</time><cmt>1.6 kmh</cmt></trkpt>
<trkpt lat="51.675348" lon="03.753997"><ele>4</ele><time>2021-01-07T10:19:29Z</time><cmt>1.3 kmh</cmt></trkpt>
<trkpt lat="51.675349" lon="03.753997"><ele>4</ele><time>2021-01-07T10:19:30Z</time><cmt>0.7 kmh</cmt></trkpt>
<trkpt lat="51.675351" lon="03.754000"><ele>4</ele><time>2021-01-07T10:19:31Z</time><cmt>0.6 kmh</cmt></trkpt>
<trkpt lat="51.675353" lon="03.754007"><ele>4</ele><time>2021-01-07T10:19:32Z</time><cmt>1.3 kmh</cmt></trkpt>
<trkpt lat="51.675357" lon="03.754017"><ele>4</ele><time>2021-01-07T10:19:33Z</time><cmt>2.5 kmh</cmt></trkpt>
<trkpt lat="51.675361" lon="03.754030"><ele>4</ele><time>2021-01-07T10:19:34Z</time><cmt>3.5 kmh</cmt></trkpt>
<trkpt lat="51.675366" lon="03.754044"><ele>4</ele><time>2021-01-07T10:19:35Z</time><cmt>4.1 kmh</cmt></trkpt>
<trkpt lat="51.675370" lon="03.754055"><ele>4</ele><time>2021-01-07T10:19:36Z</time><cmt>3.8 kmh</cmt></trkpt>
<trkpt lat="51.675374" lon="03.754066"><ele>4</ele><time>2021-01-07T10:19:37Z</time><cmt>2.9 kmh</cmt></trkpt>
<trkpt lat="51.675379" lon="03.754080"><ele>4</ele><time>2021-01-07T10:19:38Z</time><cmt>3.1 kmh</cmt></trkpt>
<trkpt lat="51.675385" lon="03.754094"><ele>4</ele><time>2021-01-07T10:19:39Z</time><cmt>4.4 kmh</cmt></trkpt>
<trkpt lat="51.675392" lon="03.754111"><ele>4</ele><time>2021-01-07T10:19:40Z</time><cmt>5.0 kmh</cmt></trkpt>
<trkpt lat="51.675397" lon="03.754128"><ele>4</ele><time>2021-01-07T10:19:41Z</time><cmt>5.0 kmh</cmt></trkpt>
<trkpt lat="51.675401" lon="03.754145"><ele>4</ele><time>2021-01-07T10:19:42Z</time><cmt>5.0 kmh</cmt></trkpt>
<trkpt lat="51.675406" lon="03.754160"><ele>4</ele><time>2021-01-07T10:19:43Z</time><cmt>4.7 kmh</cmt></trkpt>
<trkpt lat="51.675412" lon="03.754177"><ele>4</ele><time>2021-01-07T10:19:44Z</time><cmt>3.9 kmh</cmt></trkpt>
<trkpt lat="51.675419" lon="03.754194"><ele>3</ele><time>2021-01-07T10:19:45Z</time><cmt>4.3 kmh</cmt></trkpt>
<trkpt lat="51.675425" lon="03.754212"><ele>3</ele><time>2021-01-07T10:19:46Z</time><cmt>5.0 kmh</cmt></trkpt>
<trkpt lat="51.675431" lon="03.754230"><ele>3</ele><time>2021-01-07T10:19:47Z</time><cmt>5.1 kmh</cmt></trkpt>
<trkpt lat="51.675437" lon="03.754248"><ele>3</ele><time>2021-01-07T10:19:48Z</time><cmt>5.1 kmh</cmt></trkpt>
<trkpt lat="51.675442" lon="03.754266"><ele>3</ele><time>2021-01-07T10:19:49Z</time><cmt>5.0 kmh</cmt></trkpt>
<trkpt lat="51.675447" lon="03.754282"><ele>3</ele><time>2021-01-07T10:19:50Z</time><cmt>4.1 kmh</cmt></trkpt>
<trkpt lat="51.675453" lon="03.754300"><ele>3</ele><time>2021-01-07T10:19:51Z</time><cmt>4.1 kmh</cmt></trkpt>
<trkpt lat="51.675459" lon="03.754316"><ele>2</ele><time>2021-01-07T10:19:52Z</time><cmt>5.0 kmh</cmt></trkpt>
<trkpt lat="51.675467" lon="03.754332"><ele>2</ele><time>2021-01-07T10:19:53Z</time><cmt>5.0 kmh</cmt></trkpt>
<trkpt lat="51.675473" lon="03.754347"><ele>2</ele><time>2021-01-07T10:19:54Z</time><cmt>5.0 kmh</cmt></trkpt>
<trkpt lat="51.675480" lon="03.754363"><ele>2</ele><time>2021-01-07T10:19:55Z</time><cmt>5.0 kmh</cmt></trkpt>
<trkpt lat="51.675485" lon="03.754380"><ele>2</ele><time>2021-01-07T10:19:56Z</time><cmt>5.0 kmh</cmt></trkpt>
<trkpt lat="51.675491" lon="03.754397"><ele>2</ele><time>2021-01-07T10:19:57Z</time><cmt>5.1 kmh</cmt></trkpt>
<trkpt lat="51.675499" lon="03.754414"><ele>2</ele><time>2021-01-07T10:19:58Z</time><cmt>5.4 kmh</cmt></trkpt>
<trkpt lat="51.675506" lon="03.754433"><ele>2</ele><time>2021-01-07T10:19:59Z</time><cmt>5.3 kmh</cmt></trkpt>
<trkpt lat="51.675512" lon="03.754451"><ele>2</ele><time>2021-01-07T10:20:00Z</time><cmt>5.3 kmh</cmt></trkpt>
<trkpt lat="51.675519" lon="03.754468"><ele>2</ele><time>2021-01-07T10:20:01Z</time><cmt>5.0 kmh</cmt></trkpt>
<trkpt lat="51.675525" lon="03.754484"><ele>2</ele><time>2021-01-07T10:20:02Z</time><cmt>5.0 kmh</cmt></trkpt>
<trkpt lat="51.675532" lon="03.754499"><ele>2</ele><time>2021-01-07T10:20:03Z</time><cmt>4.1 kmh</cmt></trkpt>
<trkpt lat="51.675540" lon="03.754517"><ele>2</ele><time>2021-01-07T10:20:04Z</time><cmt>5.6 kmh</cmt></trkpt>
<trkpt lat="51.675548" lon="03.754535"><ele>2</ele><time>2021-01-07T10:20:05Z</time><cmt>5.6 kmh</cmt></trkpt>
<trkpt lat="51.675554" lon="03.754552"><ele>2</ele><time>2021-01-07T10:20:06Z</time><cmt>5.0 kmh</cmt></trkpt>
<trkpt lat="51.675560" lon="03.754569"><ele>2</ele><time>2021-01-07T10:20:07Z</time><cmt>5.0 kmh</cmt></trkpt>
<trkpt lat="51.675565" lon="03.754584"><ele>2</ele><time>2021-01-07T10:20:08Z</time><cmt>4.9 kmh</cmt></trkpt>
<trkpt lat="51.675571" lon="03.754600"><ele>2</ele><time>2021-01-07T10:20:09Z</time><cmt>3.7 kmh</cmt></trkpt>
<trkpt lat="51.675577" lon="03.754616"><ele>2</ele><time>2021-01-07T10:20:10Z</time><cmt>3.9 kmh</cmt></trkpt>
<trkpt lat="51.675583" lon="03.754633"><ele>2</ele><time>2021-01-07T10:20:11Z</time><cmt>5.1 kmh</cmt></trkpt>
<trkpt lat="51.675590" lon="03.754652"><ele>2</ele><time>2021-01-07T10:20:12Z</time><cmt>5.1 kmh</cmt></trkpt>
<trkpt lat="51.675597" lon="03.754670"><ele>2</ele><time>2021-01-07T10:20:13Z</time><cmt>5.0 kmh</cmt></trkpt>
<trkpt lat="51.675604" lon="03.754688"><ele>2</ele><time>2021-01-07T10:20:14Z</time><cmt>5.0 kmh</cmt></trkpt>
<trkpt lat="51.675611" lon="03.754706"><ele>2</ele><time>2021-01-07T10:20:15Z</time><cmt>5.0 kmh</cmt></trkpt>
<trkpt lat="51.675617" lon="03.754724"><ele>2</ele><time>2021-01-07T10:20:16Z</time><cmt>4.5 kmh</cmt></trkpt>
<trkpt lat="51.675624" lon="03.754741"><ele>2</ele><time>2021-01-07T10:20:17Z</time><cmt>4.4 kmh</cmt></trkpt>
<trkpt lat="51.675631" lon="03.754759"><ele>2</ele><time>2021-01-07T10:20:18Z</time><cmt>5.1 kmh</cmt></trkpt>
<trkpt lat="51.675636" lon="03.754778"><ele>2</ele><time>2021-01-07T10:20:19Z</time><cmt>5.1 kmh</cmt></trkpt>
<trkpt lat="51.675641" lon="03.754795"><ele>2</ele><time>2021-01-07T10:20:20Z</time><cmt>5.0 kmh</cmt></trkpt>
<trkpt lat="51.675647" lon="03.754814"><ele>2</ele><time>2021-01-07T10:20:21Z</time><cmt>5.0 kmh</cmt></trkpt>
<trkpt lat="51.675654" lon="03.754832"><ele>2</ele><time>2021-01-07T10:20:22Z</time><cmt>4.5 kmh</cmt></trkpt>
<trkpt lat="51.675661" lon="03.754850"><ele>2</ele><time>2021-01-07T10:20:23Z</time><cmt>4.5 kmh</cmt></trkpt>
<trkpt lat="51.675668" lon="03.754867"><ele>2</ele><time>2021-01-07T10:20:24Z</time><cmt>5.0 kmh</cmt></trkpt>
<trkpt lat="51.675675" lon="03.754885"><ele>2</ele><time>2021-01-07T10:20:25Z</time><cmt>5.0 kmh</cmt></trkpt>
<trkpt lat="51.675682" lon="03.754902"><ele>2</ele><time>2021-01-07T10:20:26Z</time><cmt>5.0 kmh</cmt></trkpt>
<trkpt lat="51.675689" lon="03.754920"><ele>2</ele><time>2021-01-07T10:20:27Z</time><cmt>5.1 kmh</cmt></trkpt>
<trkpt lat="51.675696" lon="03.754939"><ele>2</ele><time>2021-01-07T10:20:28Z</time><cmt>5.0 kmh</cmt></trkpt>
<trkpt lat="51.675703" lon="03.754959"><ele>2</ele><time>2021-01-07T10:20:29Z</time><cmt>5.2 kmh</cmt></trkpt>
<trkpt lat="51.675710" lon="03.754977"><ele>2</ele><time>2021-01-07T10:20:30Z</time><cmt>5.2 kmh</cmt></trkpt>
<trkpt lat="51.675717" lon="03.754995"><ele>2</ele><time>2021-01-07T10:20:31Z</time><cmt>5.0 kmh</cmt></trkpt>
<trkpt lat="51.675722" lon="03.755011"><ele>2</ele><time>2021-01-07T10:20:32Z</time><cmt>5.0 kmh</cmt></trkpt>
<trkpt lat="51.675727" lon="03.755028"><ele>2</ele><time>2021-01-07T10:20:33Z</time><cmt>4.9 kmh</cmt></trkpt>
<trkpt lat="51.675733" lon="03.755046"><ele>2</ele><time>2021-01-07T10:20:34Z</time><cmt>5.0 kmh</cmt></trkpt>
<trkpt lat="51.675739" lon="03.755064"><ele>2</ele><time>2021-01-07T10:20:35Z</time><cmt>4.4 kmh</cmt></trkpt>
<trkpt lat="51.675745" lon="03.755080"><ele>2</ele><time>2021-01-07T10:20:36Z</time><cmt>4.2 kmh</cmt></trkpt>
<trkpt lat="51.675750" lon="03.755097"><ele>2</ele><time>2021-01-07T10:20:37Z</time><cmt>5.0 kmh</cmt></trkpt>
<trkpt lat="51.675756" lon="03.755112"><ele>3</ele><time>2021-01-07T10:20:38Z</time><cmt>4.9 kmh</cmt></trkpt>
<trkpt lat="51.675762" lon="03.755128"><ele>3</ele><time>2021-01-07T10:20:39Z</time><cmt>4.9 kmh</cmt></trkpt>
<trkpt lat="51.675768" lon="03.755146"><ele>3</ele><time>2021-01-07T10:20:40Z</time><cmt>5.1 kmh</cmt></trkpt>
<trkpt lat="51.675776" lon="03.755165"><ele>3</ele><time>2021-01-07T10:20:41Z</time><cmt>5.2 kmh</cmt></trkpt>
<trkpt lat="51.675783" lon="03.755183"><ele>3</ele><time>2021-01-07T10:20:42Z</time><cmt>5.2 kmh</cmt></trkpt>
<trkpt lat="51.675790" lon="03.755201"><ele>3</ele><time>2021-01-07T10:20:43Z</time><cmt>5.0 kmh</cmt></trkpt>
<trkpt lat="51.675796" lon="03.755218"><ele>3</ele><time>2021-01-07T10:20:44Z</time><cmt>5.0 kmh</cmt></trkpt>
<trkpt lat="51.675803" lon="03.755235"><ele>4</ele><time>2021-01-07T10:20:45Z</time><cmt>5.0 kmh</cmt></trkpt>
<trkpt lat="51.675808" lon="03.755251"><ele>4</ele><time>2021-01-07T10:20:46Z</time><cmt>5.0 kmh</cmt></trkpt>
<trkpt lat="51.675814" lon="03.755267"><ele>4</ele><time>2021-01-07T10:20:47Z</time><cmt>4.0 kmh</cmt></trkpt>
<trkpt lat="51.675820" lon="03.755284"><ele>4</ele><time>2021-01-07T10:20:48Z</time><cmt>4.1 kmh</cmt></trkpt>
<trkpt lat="51.675826" lon="03.755300"><ele>4</ele><time>2021-01-07T10:20:49Z</time><cmt>5.0 kmh</cmt></trkpt>
<trkpt lat="51.675832" lon="03.755315"><ele>4</ele><time>2021-01-07T10:20:50Z</time><cmt>5.0 kmh</cmt></trkpt>
<trkpt lat="51.675839" lon="03.755331"><ele>4</ele><time>2021-01-07T10:20:51Z</time><cmt>5.1 kmh</cmt></trkpt>
<trkpt lat="51.675846" lon="03.755348"><ele>4</ele><time>2021-01-07T10:20:52Z</time><cmt>5.0 kmh</cmt></trkpt>
<trkpt lat="51.675852" lon="03.755365"><ele>4</ele><time>2021-01-07T10:20:53Z</time><cmt>5.0 kmh</cmt></trkpt>
<trkpt lat="51.675859" lon="03.755382"><ele>4</ele><time>2021-01-07T10:20:54Z</time><cmt>5.0 kmh</cmt></trkpt>
<trkpt lat="51.675865" lon="03.755399"><ele>4</ele><time>2021-01-07T10:20:55Z</time><cmt>5.0 kmh</cmt></trkpt>
<trkpt lat="51.675871" lon="03.755415"><ele>5</ele><time>2021-01-07T10:20:56Z</time><cmt>5.0 kmh</cmt></trkpt>
<trkpt lat="51.675877" lon="03.755432"><ele>5</ele><time>2021-01-07T10:20:57Z</time><cmt>5.0 kmh</cmt></trkpt>
<trkpt lat="51.675887" lon="03.755460"><ele>5</ele><time>2021-01-07T10:20:59Z</time><cmt>4.6 kmh</cmt></trkpt>
<trkpt lat="51.675898" lon="03.755495"><ele>5</ele><time>2021-01-07T10:21:01Z</time><cmt>4.3 kmh</cmt></trkpt>
<trkpt lat="51.675909" lon="03.755529"><ele>5</ele><time>2021-01-07T10:21:03Z</time><cmt>4.6 kmh</cmt></trkpt>
<trkpt lat="51.675921" lon="03.755566"><ele>5</ele><time>2021-01-07T10:21:05Z</time><cmt>5.0 kmh</cmt></trkpt>
<trkpt lat="51.675934" lon="03.755602"><ele>6</ele><time>2021-01-07T10:21:07Z</time><cmt>5.1 kmh</cmt></trkpt>
<trkpt lat="51.675948" lon="03.755635"><ele>6</ele><time>2021-01-07T10:21:09Z</time><cmt>5.1 kmh</cmt></trkpt>
<trkpt lat="51.675957" lon="03.755659"><ele>6</ele><time>2021-01-07T10:21:10Z</time><cmt>5.0 kmh</cmt></trkpt>
<trkpt lat="51.675962" lon="03.755674"><ele>6</ele><time>2021-01-07T10:21:11Z</time><cmt>5.0 kmh</cmt></trkpt>
<trkpt lat="51.675969" lon="03.755691"><ele>6</ele><time>2021-01-07T10:21:12Z</time><cmt>5.0 kmh</cmt></trkpt>
<trkpt lat="51.675979" lon="03.755721"><ele>5</ele><time>2021-01-07T10:21:14Z</time><cmt>3.6 kmh</cmt></trkpt>
<trkpt lat="51.675990" lon="03.755756"><ele>5</ele><time>2021-01-07T10:21:16Z</time><cmt>5.0 kmh</cmt></trkpt>
<trkpt lat="51.676000" lon="03.755789"><ele>5</ele><time>2021-01-07T10:21:18Z</time><cmt>5.0 kmh</cmt></trkpt>
<trkpt lat="51.676011" lon="03.755823"><ele>5</ele><time>2021-01-07T10:21:20Z</time><cmt>5.0 kmh</cmt></trkpt>
<trkpt lat="51.676023" lon="03.755855"><ele>5</ele><time>2021-01-07T10:21:22Z</time><cmt>5.0 kmh</cmt></trkpt>
<trkpt lat="51.676035" lon="03.755891"><ele>5</ele><time>2021-01-07T10:21:24Z</time><cmt>5.0 kmh</cmt></trkpt>
<trkpt lat="51.676046" lon="03.755927"><ele>5</ele><time>2021-01-07T10:21:26Z</time><cmt>5.1 kmh</cmt></trkpt>
<trkpt lat="51.676055" lon="03.755962"><ele>5</ele><time>2021-01-07T10:21:28Z</time><cmt>5.1 kmh</cmt></trkpt>
<trkpt lat="51.676065" lon="03.755995"><ele>5</ele><time>2021-01-07T10:21:30Z</time><cmt>5.0 kmh</cmt></trkpt>
<trkpt lat="51.676074" lon="03.756027"><ele>4</ele><time>2021-01-07T10:21:32Z</time><cmt>4.3 kmh</cmt></trkpt>
<trkpt lat="51.676088" lon="03.756073"><ele>4</ele><time>2021-01-07T10:21:35Z</time><cmt>4.5 kmh</cmt></trkpt>
<trkpt lat="51.676102" lon="03.756118"><ele>4</ele><time>2021-01-07T10:21:38Z</time><cmt>3.8 kmh</cmt></trkpt>
<trkpt lat="51.676115" lon="03.756164"><ele>4</ele><time>2021-01-07T10:21:41Z</time><cmt>4.5 kmh</cmt></trkpt>
<trkpt lat="51.676125" lon="03.756207"><ele>3</ele><time>2021-01-07T10:21:43Z</time><cmt>5.0 kmh</cmt></trkpt>
<trkpt lat="51.676127" lon="03.756223"><ele>3</ele><time>2021-01-07T10:21:44Z</time><cmt>5.0 kmh</cmt></trkpt>
<trkpt lat="51.676131" lon="03.756242"><ele>3</ele><time>2021-01-07T10:21:45Z</time><cmt>3.9 kmh</cmt></trkpt>
<trkpt lat="51.676136" lon="03.756260"><ele>3</ele><time>2021-01-07T10:21:46Z</time><cmt>4.2 kmh</cmt></trkpt>
<trkpt lat="51.676142" lon="03.756277"><ele>3</ele><time>2021-01-07T10:21:47Z</time><cmt>5.0 kmh</cmt></trkpt>
<trkpt lat="51.676148" lon="03.756295"><ele>3</ele><time>2021-01-07T10:21:48Z</time><cmt>5.0 kmh</cmt></trkpt>
<trkpt lat="51.676154" lon="03.756313"><ele>3</ele><time>2021-01-07T10:21:49Z</time><cmt>5.1 kmh</cmt></trkpt>
<trkpt lat="51.676160" lon="03.756331"><ele>2</ele><time>2021-01-07T10:21:50Z</time><cmt>5.0 kmh</cmt></trkpt>
<trkpt lat="51.676167" lon="03.756349"><ele>2</ele><time>2021-01-07T10:21:51Z</time><cmt>5.0 kmh</cmt></trkpt>
<trkpt lat="51.676173" lon="03.756365"><ele>2</ele><time>2021-01-07T10:21:52Z</time><cmt>4.3 kmh</cmt></trkpt>
<trkpt lat="51.676179" lon="03.756383"><ele>2</ele><time>2021-01-07T10:21:53Z</time><cmt>5.0 kmh</cmt></trkpt>
<trkpt lat="51.676185" lon="03.756401"><ele>2</ele><time>2021-01-07T10:21:54Z</time><cmt>5.0 kmh</cmt></trkpt>
<trkpt lat="51.676190" lon="03.756418"><ele>2</ele><time>2021-01-07T10:21:55Z</time><cmt>5.0 kmh</cmt></trkpt>
<trkpt lat="51.676196" lon="03.756435"><ele>2</ele><time>2021-01-07T10:21:56Z</time><cmt>5.0 kmh</cmt></trkpt>
<trkpt lat="51.676203" lon="03.756452"><ele>2</ele><time>2021-01-07T10:21:57Z</time><cmt>4.3 kmh</cmt></trkpt>
<trkpt lat="51.676210" lon="03.756469"><ele>2</ele><time>2021-01-07T10:21:58Z</time><cmt>5.0 kmh</cmt></trkpt>
<trkpt lat="51.676217" lon="03.756487"><ele>2</ele><time>2021-01-07T10:21:59Z</time><cmt>5.1 kmh</cmt></trkpt>
<trkpt lat="51.676224" lon="03.756504"><ele>2</ele><time>2021-01-07T10:22:00Z</time><cmt>5.1 kmh</cmt></trkpt>
<trkpt lat="51.676231" lon="03.756522"><ele>2</ele><time>2021-01-07T10:22:01Z</time><cmt>5.2 kmh</cmt></trkpt>
<trkpt lat="51.676238" lon="03.756540"><ele>2</ele><time>2021-01-07T10:22:02Z</time><cmt>5.2 kmh</cmt></trkpt>
<trkpt lat="51.676245" lon="03.756557"><ele>2</ele><time>2021-01-07T10:22:03Z</time><cmt>5.0 kmh</cmt></trkpt>
<trkpt lat="51.676251" lon="03.756574"><ele>2</ele><time>2021-01-07T10:22:04Z</time><cmt>4.3 kmh</cmt></trkpt>
<trkpt lat="51.676257" lon="03.756591"><ele>2</ele><time>2021-01-07T10:22:05Z</time><cmt>4.2 kmh</cmt></trkpt>
<trkpt lat="51.676263" lon="03.756607"><ele>2</ele><time>2021-01-07T10:22:06Z</time><cmt>5.0 kmh</cmt></trkpt>
<trkpt lat="51.676269" lon="03.756624"><ele>2</ele><time>2021-01-07T10:22:07Z</time><cmt>5.0 kmh</cmt></trkpt>
<trkpt lat="51.676276" lon="03.756643"><ele>2</ele><time>2021-01-07T10:22:08Z</time><cmt>5.0 kmh</cmt></trkpt>
<trkpt lat="51.676281" lon="03.756661"><ele>2</ele><time>2021-01-07T10:22:09Z</time><cmt>5.0 kmh</cmt></trkpt>
<trkpt lat="51.676287" lon="03.756680"><ele>2</ele><time>2021-01-07T10:22:10Z</time><cmt>4.4 kmh</cmt></trkpt>
<trkpt lat="51.676293" lon="03.756698"><ele>2</ele><time>2021-01-07T10:22:11Z</time><cmt>5.0 kmh</cmt></trkpt>
<trkpt lat="51.676299" lon="03.756716"><ele>2</ele><time>2021-01-07T10:22:12Z</time><cmt>5.0 kmh</cmt></trkpt>
<trkpt lat="51.676305" lon="03.756734"><ele>2</ele><time>2021-01-07T10:22:13Z</time><cmt>5.0 kmh</cmt></trkpt>
<trkpt lat="51.676311" lon="03.756752"><ele>2</ele><time>2021-01-07T10:22:14Z</time><cmt>5.0 kmh</cmt></trkpt>
<trkpt lat="51.676317" lon="03.756770"><ele>2</ele><time>2021-01-07T10:22:15Z</time><cmt>5.0 kmh</cmt></trkpt>
<trkpt lat="51.676323" lon="03.756787"><ele>2</ele><time>2021-01-07T10:22:16Z</time><cmt>4.2 kmh</cmt></trkpt>
<trkpt lat="51.676329" lon="03.756804"><ele>2</ele><time>2021-01-07T10:22:17Z</time><cmt>4.2 kmh</cmt></trkpt>
<trkpt lat="51.676336" lon="03.756820"><ele>2</ele><time>2021-01-07T10:22:18Z</time><cmt>5.0 kmh</cmt></trkpt>
<trkpt lat="51.676343" lon="03.756837"><ele>2</ele><time>2021-01-07T10:22:19Z</time><cmt>5.0 kmh</cmt></trkpt>
<trkpt lat="51.676349" lon="03.756855"><ele>2</ele><time>2021-01-07T10:22:20Z</time><cmt>5.0 kmh</cmt></trkpt>
<trkpt lat="51.676355" lon="03.756874"><ele>2</ele><time>2021-01-07T10:22:21Z</time><cmt>5.2 kmh</cmt></trkpt>
<trkpt lat="51.676361" lon="03.756894"><ele>2</ele><time>2021-01-07T10:22:22Z</time><cmt>5.2 kmh</cmt></trkpt>
<trkpt lat="51.676367" lon="03.756912"><ele>2</ele><time>2021-01-07T10:22:23Z</time><cmt>4.5 kmh</cmt></trkpt>
<trkpt lat="51.676373" lon="03.756929"><ele>2</ele><time>2021-01-07T10:22:24Z</time><cmt>4.3 kmh</cmt></trkpt>
<trkpt lat="51.676379" lon="03.756945"><ele>2</ele><time>2021-01-07T10:22:25Z</time><cmt>5.0 kmh</cmt></trkpt>
<trkpt lat="51.676386" lon="03.756962"><ele>2</ele><time>2021-01-07T10:22:26Z</time><cmt>5.0 kmh</cmt></trkpt>
<trkpt lat="51.676392" lon="03.756978"><ele>2</ele><time>2021-01-07T10:22:27Z</time><cmt>5.0 kmh</cmt></trkpt>
<trkpt lat="51.676399" lon="03.756994"><ele>2</ele><time>2021-01-07T10:22:28Z</time><cmt>5.0 kmh</cmt></trkpt>
<trkpt lat="51.676406" lon="03.757010"><ele>2</ele><time>2021-01-07T10:22:29Z</time><cmt>5.0 kmh</cmt></trkpt>
<trkpt lat="51.676412" lon="03.757028"><ele>2</ele><time>2021-01-07T10:22:30Z</time><cmt>5.0 kmh</cmt></trkpt>
<trkpt lat="51.676417" lon="03.757044"><ele>2</ele><time>2021-01-07T10:22:31Z</time><cmt>5.0 kmh</cmt></trkpt>
<trkpt lat="51.676422" lon="03.757060"><ele>2</ele><time>2021-01-07T10:22:32Z</time><cmt>4.9 kmh</cmt></trkpt>
<trkpt lat="51.676428" lon="03.757076"><ele>3</ele><time>2021-01-07T10:22:33Z</time><cmt>4.9 kmh</cmt></trkpt>
<trkpt lat="51.676434" lon="03.757093"><ele>3</ele><time>2021-01-07T10:22:34Z</time><cmt>5.0 kmh</cmt></trkpt>
<trkpt lat="51.676440" lon="03.757109"><ele>3</ele><time>2021-01-07T10:22:35Z</time><cmt>4.1 kmh</cmt></trkpt>
<trkpt lat="51.676446" lon="03.757126"><ele>3</ele><time>2021-01-07T10:22:36Z</time><cmt>4.1 kmh</cmt></trkpt>
<trkpt lat="51.676452" lon="03.757142"><ele>3</ele><time>2021-01-07T10:22:37Z</time><cmt>5.0 kmh</cmt></trkpt>
<trkpt lat="51.676458" lon="03.757158"><ele>3</ele><time>2021-01-07T10:22:38Z</time><cmt>5.0 kmh</cmt></trkpt>
<trkpt lat="51.676463" lon="03.757174"><ele>3</ele><time>2021-01-07T10:22:39Z</time><cmt>4.8 kmh</cmt></trkpt>
<trkpt lat="51.676468" lon="03.757190"><ele>3</ele><time>2021-01-07T10:22:40Z</time><cmt>5.0 kmh</cmt></trkpt>
<trkpt lat="51.676474" lon="03.757208"><ele>3</ele><time>2021-01-07T10:22:41Z</time><cmt>5.0 kmh</cmt></trkpt>
<trkpt lat="51.676479" lon="03.757225"><ele>3</ele><time>2021-01-07T10:22:42Z</time><cmt>4.1 kmh</cmt></trkpt>
<trkpt lat="51.676484" lon="03.757241"><ele>3</ele><time>2021-01-07T10:22:43Z</time><cmt>4.0 kmh</cmt></trkpt>
<trkpt lat="51.676491" lon="03.757259"><ele>3</ele><time>2021-01-07T10:22:44Z</time><cmt>5.0 kmh</cmt></trkpt>
<trkpt lat="51.676496" lon="03.757277"><ele>3</ele><time>2021-01-07T10:22:45Z</time><cmt>5.0 kmh</cmt></trkpt>
<trkpt lat="51.676502" lon="03.757294"><ele>3</ele><time>2021-01-07T10:22:46Z</time><cmt>5.0 kmh</cmt></trkpt>
<trkpt lat="51.676508" lon="03.757311"><ele>3</ele><time>2021-01-07T10:22:47Z</time><cmt>5.0 kmh</cmt></trkpt>
<trkpt lat="51.676514" lon="03.757328"><ele>3</ele><time>2021-01-07T10:22:48Z</time><cmt>4.2 kmh</cmt></trkpt>
<trkpt lat="51.676520" lon="03.757345"><ele>3</ele><time>2021-01-07T10:22:49Z</time><cmt>4.2 kmh</cmt></trkpt>
<trkpt lat="51.676526" lon="03.757361"><ele>3</ele><time>2021-01-07T10:22:50Z</time><cmt>5.0 kmh</cmt></trkpt>
<trkpt lat="51.676532" lon="03.757376"><ele>3</ele><time>2021-01-07T10:22:51Z</time><cmt>4.8 kmh</cmt></trkpt>
<trkpt lat="51.676537" lon="03.757391"><ele>4</ele><time>2021-01-07T10:22:52Z</time><cmt>4.8 kmh</cmt></trkpt>
<trkpt lat="51.676543" lon="03.757408"><ele>4</ele><time>2021-01-07T10:22:53Z</time><cmt>4.9 kmh</cmt></trkpt>
<trkpt lat="51.676549" lon="03.757424"><ele>4</ele><time>2021-01-07T10:22:54Z</time><cmt>4.9 kmh</cmt></trkpt>
<trkpt lat="51.676554" lon="03.757439"><ele>4</ele><time>2021-01-07T10:22:55Z</time><cmt>3.8 kmh</cmt></trkpt>
<trkpt lat="51.676559" lon="03.757453"><ele>4</ele><time>2021-01-07T10:22:56Z</time><cmt>3.7 kmh</cmt></trkpt>
<trkpt lat="51.676565" lon="03.757469"><ele>4</ele><time>2021-01-07T10:22:57Z</time><cmt>4.7 kmh</cmt></trkpt>
<trkpt lat="51.676570" lon="03.757487"><ele>4</ele><time>2021-01-07T10:22:58Z</time><cmt>5.0 kmh</cmt></trkpt>
<trkpt lat="51.676571" lon="03.757502"><ele>4</ele><time>2021-01-07T10:22:59Z</time><cmt>4.6 kmh</cmt></trkpt>
<trkpt lat="51.676574" lon="03.757522"><ele>4</ele><time>2021-01-07T10:23:00Z</time><cmt>4.8 kmh</cmt></trkpt>
<trkpt lat="51.676579" lon="03.757540"><ele>4</ele><time>2021-01-07T10:23:01Z</time><cmt>4.4 kmh</cmt></trkpt>
<trkpt lat="51.676585" lon="03.757558"><ele>4</ele><time>2021-01-07T10:23:02Z</time><cmt>4.3 kmh</cmt></trkpt>
<trkpt lat="51.676592" lon="03.757574"><ele>4</ele><time>2021-01-07T10:23:03Z</time><cmt>5.0 kmh</cmt></trkpt>
<trkpt lat="51.676599" lon="03.757591"><ele>4</ele><time>2021-01-07T10:23:04Z</time><cmt>5.0 kmh</cmt></trkpt>
<trkpt lat="51.676605" lon="03.757607"><ele>4</ele><time>2021-01-07T10:23:05Z</time><cmt>5.0 kmh</cmt></trkpt>
<trkpt lat="51.676610" lon="03.757624"><ele>4</ele><time>2021-01-07T10:23:06Z</time><cmt>5.0 kmh</cmt></trkpt>
<trkpt lat="51.676615" lon="03.757641"><ele>4</ele><time>2021-01-07T10:23:07Z</time><cmt>4.0 kmh</cmt></trkpt>
<trkpt lat="51.676620" lon="03.757658"><ele>4</ele><time>2021-01-07T10:23:08Z</time><cmt>4.0 kmh</cmt></trkpt>
<trkpt lat="51.676625" lon="03.757674"><ele>4</ele><time>2021-01-07T10:23:09Z</time><cmt>5.0 kmh</cmt></trkpt>
<trkpt lat="51.676631" lon="03.757690"><ele>4</ele><time>2021-01-07T10:23:10Z</time><cmt>5.0 kmh</cmt></trkpt>
<trkpt lat="51.676638" lon="03.757706"><ele>4</ele><time>2021-01-07T10:23:11Z</time><cmt>5.0 kmh</cmt></trkpt>
<trkpt lat="51.676645" lon="03.757722"><ele>4</ele><time>2021-01-07T10:23:12Z</time><cmt>5.0 kmh</cmt></trkpt>
<trkpt lat="51.676650" lon="03.757738"><ele>4</ele><time>2021-01-07T10:23:13Z</time><cmt>5.0 kmh</cmt></trkpt>
<trkpt lat="51.676656" lon="03.757755"><ele>4</ele><time>2021-01-07T10:23:14Z</time><cmt>4.0 kmh</cmt></trkpt>
<trkpt lat="51.676662" lon="03.757772"><ele>4</ele><time>2021-01-07T10:23:15Z</time><cmt>4.1 kmh</cmt></trkpt>
<trkpt lat="51.676667" lon="03.757790"><ele>4</ele><time>2021-01-07T10:23:16Z</time><cmt>5.0 kmh</cmt></trkpt>
<trkpt lat="51.676673" lon="03.757808"><ele>4</ele><time>2021-01-07T10:23:17Z</time><cmt>5.0 kmh</cmt></trkpt>
<trkpt lat="51.676679" lon="03.757825"><ele>4</ele><time>2021-01-07T10:23:18Z</time><cmt>5.0 kmh</cmt></trkpt>
<trkpt lat="51.676685" lon="03.757841"><ele>4</ele><time>2021-01-07T10:23:19Z</time><cmt>5.0 kmh</cmt></trkpt>
<trkpt lat="51.676691" lon="03.757858"><ele>4</ele><time>2021-01-07T10:23:20Z</time><cmt>4.1 kmh</cmt></trkpt>
<trkpt lat="51.676697" lon="03.757874"><ele>4</ele><time>2021-01-07T10:23:21Z</time><cmt>4.1 kmh</cmt></trkpt>
<trkpt lat="51.676704" lon="03.757890"><ele>4</ele><time>2021-01-07T10:23:22Z</time><cmt>5.0 kmh</cmt></trkpt>
<trkpt lat="51.676711" lon="03.757906"><ele>4</ele><time>2021-01-07T10:23:23Z</time><cmt>5.0 kmh</cmt></trkpt>
<trkpt lat="51.676717" lon="03.757922"><ele>4</ele><time>2021-01-07T10:23:24Z</time><cmt>5.0 kmh</cmt></trkpt>
<trkpt lat="51.676724" lon="03.757938"><ele>4</ele><time>2021-01-07T10:23:25Z</time><cmt>5.0 kmh</cmt></trkpt>
<trkpt lat="51.676730" lon="03.757954"><ele>4</ele><time>2021-01-07T10:23:26Z</time><cmt>4.1 kmh</cmt></trkpt>
<trkpt lat="51.676735" lon="03.757971"><ele>4</ele><time>2021-01-07T10:23:27Z</time><cmt>4.0 kmh</cmt></trkpt>
<trkpt lat="51.676741" lon="03.757988"><ele>4</ele><time>2021-01-07T10:23:28Z</time><cmt>5.0 kmh</cmt></trkpt>
<trkpt lat="51.676747" lon="03.758005"><ele>4</ele><time>2021-01-07T10:23:29Z</time><cmt>5.0 kmh</cmt></trkpt>
<trkpt lat="51.676752" lon="03.758022"><ele>4</ele><time>2021-01-07T10:23:30Z</time><cmt>5.0 kmh</cmt></trkpt>
<trkpt lat="51.676758" lon="03.758041"><ele>4</ele><time>2021-01-07T10:23:31Z</time><cmt>5.0 kmh</cmt></trkpt>
<trkpt lat="51.676765" lon="03.758059"><ele>4</ele><time>2021-01-07T10:23:32Z</time><cmt>5.0 kmh</cmt></trkpt>
<trkpt lat="51.676772" lon="03.758079"><ele>3</ele><time>2021-01-07T10:23:33Z</time><cmt>4.8 kmh</cmt></trkpt>
<trkpt lat="51.676779" lon="03.758099"><ele>3</ele><time>2021-01-07T10:23:34Z</time><cmt>4.8 kmh</cmt></trkpt>
<trkpt lat="51.676786" lon="03.758117"><ele>3</ele><time>2021-01-07T10:23:35Z</time><cmt>5.0 kmh</cmt></trkpt>
<trkpt lat="51.676793" lon="03.758135"><ele>3</ele><time>2021-01-07T10:23:36Z</time><cmt>5.0 kmh</cmt></trkpt>
<trkpt lat="51.676800" lon="03.758153"><ele>3</ele><time>2021-01-07T10:23:37Z</time><cmt>5.0 kmh</cmt></trkpt>
<trkpt lat="51.676806" lon="03.758170"><ele>3</ele><time>2021-01-07T10:23:38Z</time><cmt>5.0 kmh</cmt></trkpt>
<trkpt lat="51.676813" lon="03.758188"><ele>3</ele><time>2021-01-07T10:23:39Z</time><cmt>4.4 kmh</cmt></trkpt>
<trkpt lat="51.676819" lon="03.758206"><ele>3</ele><time>2021-01-07T10:23:40Z</time><cmt>4.4 kmh</cmt></trkpt>
<trkpt lat="51.676826" lon="03.758225"><ele>3</ele><time>2021-01-07T10:23:41Z</time><cmt>5.0 kmh</cmt></trkpt>
<trkpt lat="51.676832" lon="03.758243"><ele>3</ele><time>2021-01-07T10:23:42Z</time><cmt>5.0 kmh</cmt></trkpt>
<trkpt lat="51.676839" lon="03.758260"><ele>3</ele><time>2021-01-07T10:23:43Z</time><cmt>5.0 kmh</cmt></trkpt>
<trkpt lat="51.676845" lon="03.758277"><ele>3</ele><time>2021-01-07T10:23:44Z</time><cmt>5.1 kmh</cmt></trkpt>
<trkpt lat="51.676852" lon="03.758295"><ele>3</ele><time>2021-01-07T10:23:45Z</time><cmt>5.1 kmh</cmt></trkpt>
<trkpt lat="51.676859" lon="03.758313"><ele>3</ele><time>2021-01-07T10:23:46Z</time><cmt>4.5 kmh</cmt></trkpt>
<trkpt lat="51.676865" lon="03.758331"><ele>3</ele><time>2021-01-07T10:23:47Z</time><cmt>4.4 kmh</cmt></trkpt>
<trkpt lat="51.676871" lon="03.758349"><ele>3</ele><time>2021-01-07T10:23:48Z</time><cmt>5.0 kmh</cmt></trkpt>
<trkpt lat="51.676878" lon="03.758366"><ele>3</ele><time>2021-01-07T10:23:49Z</time><cmt>5.0 kmh</cmt></trkpt>
<trkpt lat="51.676884" lon="03.758384"><ele>3</ele><time>2021-01-07T10:23:50Z</time><cmt>5.0 kmh</cmt></trkpt>
<trkpt lat="51.676891" lon="03.758402"><ele>3</ele><time>2021-01-07T10:23:51Z</time><cmt>5.0 kmh</cmt></trkpt>
<trkpt lat="51.676897" lon="03.758418"><ele>3</ele><time>2021-01-07T10:23:52Z</time><cmt>5.0 kmh</cmt></trkpt>
<trkpt lat="51.676903" lon="03.758435"><ele>3</ele><time>2021-01-07T10:23:53Z</time><cmt>4.1 kmh</cmt></trkpt>
<trkpt lat="51.676909" lon="03.758452"><ele>3</ele><time>2021-01-07T10:23:54Z</time><cmt>4.2 kmh</cmt></trkpt>
<trkpt lat="51.676915" lon="03.758468"><ele>3</ele><time>2021-01-07T10:23:55Z</time><cmt>5.0 kmh</cmt></trkpt>
<trkpt lat="51.676921" lon="03.758485"><ele>3</ele><time>2021-01-07T10:23:56Z</time><cmt>5.0 kmh</cmt></trkpt>
<trkpt lat="51.676927" lon="03.758501"><ele>3</ele><time>2021-01-07T10:23:57Z</time><cmt>5.0 kmh</cmt></trkpt>
<trkpt lat="51.676933" lon="03.758517"><ele>3</ele><time>2021-01-07T10:23:58Z</time><cmt>5.0 kmh</cmt></trkpt>
<trkpt lat="51.676939" lon="03.758534"><ele>3</ele><time>2021-01-07T10:23:59Z</time><cmt>4.1 kmh</cmt></trkpt>
<trkpt lat="51.676946" lon="03.758551"><ele>3</ele><time>2021-01-07T10:24:00Z</time><cmt>5.0 kmh</cmt></trkpt>
<trkpt lat="51.676951" lon="03.758568"><ele>3</ele><time>2021-01-07T10:24:01Z</time><cmt>5.0 kmh</cmt></trkpt>
<trkpt lat="51.676955" lon="03.758586"><ele>3</ele><time>2021-01-07T10:24:02Z</time><cmt>5.0 kmh</cmt></trkpt>
<trkpt lat="51.676960" lon="03.758603"><ele>3</ele><time>2021-01-07T10:24:03Z</time><cmt>5.0 kmh</cmt></trkpt>
<trkpt lat="51.676965" lon="03.758619"><ele>3</ele><time>2021-01-07T10:24:04Z</time><cmt>4.9 kmh</cmt></trkpt>
<trkpt lat="51.676971" lon="03.758635"><ele>3</ele><time>2021-01-07T10:24:05Z</time><cmt>3.9 kmh</cmt></trkpt>
<trkpt lat="51.676977" lon="03.758651"><ele>3</ele><time>2021-01-07T10:24:06Z</time><cmt>4.0 kmh</cmt></trkpt>
<trkpt lat="51.676985" lon="03.758668"><ele>3</ele><time>2021-01-07T10:24:07Z</time><cmt>5.6 kmh</cmt></trkpt>
<trkpt lat="51.676992" lon="03.758684"><ele>3</ele><time>2021-01-07T10:24:08Z</time><cmt>5.6 kmh</cmt></trkpt>
<trkpt lat="51.676999" lon="03.758702"><ele>3</ele><time>2021-01-07T10:24:09Z</time><cmt>5.0 kmh</cmt></trkpt>
<trkpt lat="51.677006" lon="03.758718"><ele>3</ele><time>2021-01-07T10:24:10Z</time><cmt>5.0 kmh</cmt></trkpt>
<trkpt lat="51.677013" lon="03.758735"><ele>3</ele><time>2021-01-07T10:24:11Z</time><cmt>5.0 kmh</cmt></trkpt>
<trkpt lat="51.677020" lon="03.758752"><ele>3</ele><time>2021-01-07T10:24:12Z</time><cmt>4.2 kmh</cmt></trkpt>
<trkpt lat="51.677026" lon="03.758767"><ele>3</ele><time>2021-01-07T10:24:13Z</time><cmt>4.1 kmh</cmt></trkpt>
<trkpt lat="51.677034" lon="03.758783"><ele>2</ele><time>2021-01-07T10:24:14Z</time><cmt>5.0 kmh</cmt></trkpt>
<trkpt lat="51.677041" lon="03.758798"><ele>2</ele><time>2021-01-07T10:24:15Z</time><cmt>5.0 kmh</cmt></trkpt>
<trkpt lat="51.677047" lon="03.758812"><ele>2</ele><time>2021-01-07T10:24:16Z</time><cmt>4.8 kmh</cmt></trkpt>
<trkpt lat="51.677053" lon="03.758825"><ele>2</ele><time>2021-01-07T10:24:17Z</time><cmt>4.5 kmh</cmt></trkpt>
<trkpt lat="51.677058" lon="03.758838"><ele>2</ele><time>2021-01-07T10:24:18Z</time><cmt>3.4 kmh</cmt></trkpt>
<trkpt lat="51.677065" lon="03.758852"><ele>2</ele><time>2021-01-07T10:24:19Z</time><cmt>3.5 kmh</cmt></trkpt>
<trkpt lat="51.677069" lon="03.758865"><ele>2</ele><time>2021-01-07T10:24:20Z</time><cmt>4.3 kmh</cmt></trkpt>
<trkpt lat="51.677075" lon="03.758880"><ele>2</ele><time>2021-01-07T10:24:21Z</time><cmt>4.4 kmh</cmt></trkpt>
<trkpt lat="51.677081" lon="03.758895"><ele>1</ele><time>2021-01-07T10:24:22Z</time><cmt>4.8 kmh</cmt></trkpt>
<trkpt lat="51.677088" lon="03.758910"><ele>1</ele><time>2021-01-07T10:24:23Z</time><cmt>4.9 kmh</cmt></trkpt>
<trkpt lat="51.677095" lon="03.758923"><ele>1</ele><time>2021-01-07T10:24:24Z</time><cmt>4.8 kmh</cmt></trkpt>
<trkpt lat="51.677101" lon="03.758937"><ele>1</ele><time>2021-01-07T10:24:25Z</time><cmt>3.7 kmh</cmt></trkpt>
<trkpt lat="51.677107" lon="03.758951"><ele>1</ele><time>2021-01-07T10:24:26Z</time><cmt>3.6 kmh</cmt></trkpt>
<trkpt lat="51.677113" lon="03.758965"><ele>1</ele><time>2021-01-07T10:24:27Z</time><cmt>4.6 kmh</cmt></trkpt>
<trkpt lat="51.677118" lon="03.758977"><ele>1</ele><time>2021-01-07T10:24:28Z</time><cmt>4.2 kmh</cmt></trkpt>
<trkpt lat="51.677124" lon="03.758989"><ele>1</ele><time>2021-01-07T10:24:29Z</time><cmt>3.9 kmh</cmt></trkpt>
<trkpt lat="51.677131" lon="03.759002"><ele>0</ele><time>2021-01-07T10:24:30Z</time><cmt>4.3 kmh</cmt></trkpt>
<trkpt lat="51.677138" lon="03.759016"><ele>0</ele><time>2021-01-07T10:24:31Z</time><cmt>3.7 kmh</cmt></trkpt>
<trkpt lat="51.677144" lon="03.759030"><ele>0</ele><time>2021-01-07T10:24:32Z</time><cmt>3.8 kmh</cmt></trkpt>
<trkpt lat="51.677152" lon="03.759045"><ele>0</ele><time>2021-01-07T10:24:33Z</time><cmt>5.0 kmh</cmt></trkpt>
<trkpt lat="51.677160" lon="03.759061"><ele>0</ele><time>2021-01-07T10:24:34Z</time><cmt>5.0 kmh</cmt></trkpt>
<trkpt lat="51.677167" lon="03.759076"><ele>0</ele><time>2021-01-07T10:24:35Z</time><cmt>5.0 kmh</cmt></trkpt>
<trkpt lat="51.677174" lon="03.759091"><ele>0</ele><time>2021-01-07T10:24:36Z</time><cmt>5.0 kmh</cmt></trkpt>
<trkpt lat="51.677181" lon="03.759107"><ele>0</ele><time>2021-01-07T10:24:37Z</time><cmt>4.1 kmh</cmt></trkpt>
<trkpt lat="51.677188" lon="03.759122"><ele>0</ele><time>2021-01-07T10:24:38Z</time><cmt>4.0 kmh</cmt></trkpt>
<trkpt lat="51.677195" lon="03.759137"><ele>0</ele><time>2021-01-07T10:24:39Z</time><cmt>5.0 kmh</cmt></trkpt>
<trkpt lat="51.677202" lon="03.759152"><ele>0</ele><time>2021-01-07T10:24:40Z</time><cmt>5.0 kmh</cmt></trkpt>
<trkpt lat="51.677210" lon="03.759167"><ele>0</ele><time>2021-01-07T10:24:41Z</time><cmt>5.0 kmh</cmt></trkpt>
<trkpt lat="51.677218" lon="03.759184"><ele>0</ele><time>2021-01-07T10:24:42Z</time><cmt>5.0 kmh</cmt></trkpt>
<trkpt lat="51.677225" lon="03.759200"><ele>0</ele><time>2021-01-07T10:24:43Z</time><cmt>5.0 kmh</cmt></trkpt>
<trkpt lat="51.677232" lon="03.759216"><ele>0</ele><time>2021-01-07T10:24:44Z</time><cmt>4.2 kmh</cmt></trkpt>
<trkpt lat="51.677239" lon="03.759231"><ele>0</ele><time>2021-01-07T10:24:45Z</time><cmt>4.2 kmh</cmt></trkpt>
<trkpt lat="51.677246" lon="03.759247"><ele>0</ele><time>2021-01-07T10:24:46Z</time><cmt>5.0 kmh</cmt></trkpt>
<trkpt lat="51.677252" lon="03.759263"><ele>0</ele><time>2021-01-07T10:24:47Z</time><cmt>5.0 kmh</cmt></trkpt>
<trkpt lat="51.677260" lon="03.759278"><ele>0</ele><time>2021-01-07T10:24:48Z</time><cmt>5.0 kmh</cmt></trkpt>
<trkpt lat="51.677268" lon="03.759293"><ele>0</ele><time>2021-01-07T10:24:49Z</time><cmt>5.0 kmh</cmt></trkpt>
<trkpt lat="51.677275" lon="03.759309"><ele>0</ele><time>2021-01-07T10:24:50Z</time><cmt>5.0 kmh</cmt></trkpt>
<trkpt lat="51.677282" lon="03.759326"><ele>0</ele><time>2021-01-07T10:24:51Z</time><cmt>5.0 kmh</cmt></trkpt>
<trkpt lat="51.677290" lon="03.759341"><ele>0</ele><time>2021-01-07T10:24:52Z</time><cmt>5.0 kmh</cmt></trkpt>
<trkpt lat="51.677297" lon="03.759357"><ele>0</ele><time>2021-01-07T10:24:53Z</time><cmt>5.0 kmh</cmt></trkpt>
<trkpt lat="51.677304" lon="03.759372"><ele>0</ele><time>2021-01-07T10:24:54Z</time><cmt>5.0 kmh</cmt></trkpt>
<trkpt lat="51.677312" lon="03.759388"><ele>0</ele><time>2021-01-07T10:24:55Z</time><cmt>5.2 kmh</cmt></trkpt>
<trkpt lat="51.677320" lon="03.759404"><ele>1</ele><time>2021-01-07T10:24:56Z</time><cmt>5.2 kmh</cmt></trkpt>
<trkpt lat="51.677327" lon="03.759419"><ele>1</ele><time>2021-01-07T10:24:57Z</time><cmt>4.2 kmh</cmt></trkpt>
<trkpt lat="51.677332" lon="03.759433"><ele>1</ele><time>2021-01-07T10:24:58Z</time><cmt>4.7 kmh</cmt></trkpt>
<trkpt lat="51.677334" lon="03.759441"><ele>1</ele><time>2021-01-07T10:24:59Z</time><cmt>3.3 kmh</cmt></trkpt>
<trkpt lat="51.677333" lon="03.759442"><ele>1</ele><time>2021-01-07T10:25:00Z</time><cmt>1.2 kmh</cmt></trkpt>
<trkpt lat="51.677331" lon="03.759437"><ele>1</ele><time>2021-01-07T10:25:01Z</time><cmt>1.3 kmh</cmt></trkpt>
<trkpt lat="51.677329" lon="03.759433"><ele>1</ele><time>2021-01-07T10:25:02Z</time><cmt>1.0 kmh</cmt></trkpt>
<trkpt lat="51.677329" lon="03.759430"><ele>1</ele><time>2021-01-07T10:25:03Z</time><cmt>1.0 kmh</cmt></trkpt>
<trkpt lat="51.677330" lon="03.759429"><ele>1</ele><time>2021-01-07T10:25:04Z</time><cmt>0.6 kmh</cmt></trkpt>
<trkpt lat="51.677331" lon="03.759427"><ele>1</ele><time>2021-01-07T10:25:05Z</time><cmt>0.6 kmh</cmt></trkpt>
<trkpt lat="51.677332" lon="03.759426"><ele>1</ele><time>2021-01-07T10:25:06Z</time><cmt>0.5 kmh</cmt></trkpt>
<trkpt lat="51.677334" lon="03.759425"><ele>2</ele><time>2021-01-07T10:25:07Z</time><cmt>0.7 kmh</cmt></trkpt>
<trkpt lat="51.677335" lon="03.759426"><ele>2</ele><time>2021-01-07T10:25:08Z</time><cmt>0.7 kmh</cmt></trkpt>
<trkpt lat="51.677336" lon="03.759427"><ele>2</ele><time>2021-01-07T10:25:09Z</time><cmt>0.4 kmh</cmt></trkpt>
<trkpt lat="51.677336" lon="03.759427"><ele>2</ele><time>2021-01-07T10:25:10Z</time><cmt>0.1 kmh</cmt></trkpt>
<trkpt lat="51.677337" lon="03.759428"><ele>2</ele><time>2021-01-07T10:25:11Z</time><cmt>0.3 kmh</cmt></trkpt>
<trkpt lat="51.677337" lon="03.759428"><ele>2</ele><time>2021-01-07T10:25:12Z</time><cmt>0.3 kmh</cmt></trkpt>
<trkpt lat="51.677337" lon="03.759428"><ele>2</ele><time>2021-01-07T10:25:13Z</time><cmt>0.0 kmh</cmt></trkpt>
<trkpt lat="51.677337" lon="03.759431"><ele>3</ele><time>2021-01-07T10:25:14Z</time><cmt>0.2 kmh</cmt></trkpt>
<trkpt lat="51.677338" lon="03.759434"><ele>3</ele><time>2021-01-07T10:25:15Z</time><cmt>0.4 kmh</cmt></trkpt>
<trkpt lat="51.677339" lon="03.759438"><ele>3</ele><time>2021-01-07T10:25:16Z</time><cmt>0.9 kmh</cmt></trkpt>
<trkpt lat="51.677341" lon="03.759443"><ele>3</ele><time>2021-01-07T10:25:17Z</time><cmt>1.4 kmh</cmt></trkpt>
<trkpt lat="51.677342" lon="03.759449"><ele>3</ele><time>2021-01-07T10:25:18Z</time><cmt>1.5 kmh</cmt></trkpt>
<trkpt lat="51.677341" lon="03.759452"><ele>3</ele><time>2021-01-07T10:25:19Z</time><cmt>1.3 kmh</cmt></trkpt>
<trkpt lat="51.677339" lon="03.759454"><ele>3</ele><time>2021-01-07T10:25:20Z</time><cmt>1.0 kmh</cmt></trkpt>
<trkpt lat="51.677337" lon="03.759453"><ele>3</ele><time>2021-01-07T10:25:21Z</time><cmt>0.9 kmh</cmt></trkpt>
<trkpt lat="51.677336" lon="03.759455"><ele>3</ele><time>2021-01-07T10:25:22Z</time><cmt>0.6 kmh</cmt></trkpt>
<trkpt lat="51.677336" lon="03.759455"><ele>3</ele><time>2021-01-07T10:25:23Z</time><cmt>0.3 kmh</cmt></trkpt>
<trkpt lat="51.677337" lon="03.759458"><ele>3</ele><time>2021-01-07T10:25:24Z</time><cmt>0.4 kmh</cmt></trkpt>
<trkpt lat="51.677339" lon="03.759459"><ele>3</ele><time>2021-01-07T10:25:25Z</time><cmt>0.5 kmh</cmt></trkpt>
<trkpt lat="51.677339" lon="03.759460"><ele>3</ele><time>2021-01-07T10:25:26Z</time><cmt>0.6 kmh</cmt></trkpt>
<trkpt lat="51.677340" lon="03.759460"><ele>3</ele><time>2021-01-07T10:25:27Z</time><cmt>0.2 kmh</cmt></trkpt>
<trkpt lat="51.677340" lon="03.759460"><ele>3</ele><time>2021-01-07T10:25:28Z</time><cmt>0.0 kmh</cmt></trkpt>
<trkpt lat="51.677340" lon="03.759459"><ele>3</ele><time>2021-01-07T10:25:29Z</time><cmt>0.0 kmh</cmt></trkpt>
<trkpt lat="51.677341" lon="03.759459"><ele>3</ele><time>2021-01-07T10:25:30Z</time><cmt>0.3 kmh</cmt></trkpt>
<trkpt lat="51.677343" lon="03.759459"><ele>3</ele><time>2021-01-07T10:25:31Z</time><cmt>0.6 kmh</cmt></trkpt>
<trkpt lat="51.677343" lon="03.759461"><ele>3</ele><time>2021-01-07T10:25:32Z</time><cmt>0.6 kmh</cmt></trkpt>
<trkpt lat="51.677341" lon="03.759461"><ele>3</ele><time>2021-01-07T10:25:33Z</time><cmt>0.6 kmh</cmt></trkpt>
<trkpt lat="51.677340" lon="03.759460"><ele>3</ele><time>2021-01-07T10:25:34Z</time><cmt>0.7 kmh</cmt></trkpt>
<trkpt lat="51.677338" lon="03.759458"><ele>3</ele><time>2021-01-07T10:25:35Z</time><cmt>0.6 kmh</cmt></trkpt>
<trkpt lat="51.677335" lon="03.759454"><ele>3</ele><time>2021-01-07T10:25:36Z</time><cmt>1.0 kmh</cmt></trkpt>
<trkpt lat="51.677333" lon="03.759450"><ele>3</ele><time>2021-01-07T10:25:37Z</time><cmt>1.6 kmh</cmt></trkpt>
<trkpt lat="51.677332" lon="03.759447"><ele>3</ele><time>2021-01-07T10:25:38Z</time><cmt>1.3 kmh</cmt></trkpt>
<trkpt lat="51.677333" lon="03.759446"><ele>3</ele><time>2021-01-07T10:25:39Z</time><cmt>0.5 kmh</cmt></trkpt>
<trkpt lat="51.677333" lon="03.759446"><ele>3</ele><time>2021-01-07T10:25:40Z</time><cmt>0.0 kmh</cmt></trkpt>
<trkpt lat="51.677333" lon="03.759446"><ele>3</ele><time>2021-01-07T10:25:41Z</time><cmt>0.0 kmh</cmt></trkpt>
<trkpt lat="51.677334" lon="03.759445"><ele>3</ele><time>2021-01-07T10:25:42Z</time><cmt>0.2 kmh</cmt></trkpt>
<trkpt lat="51.677333" lon="03.759443"><ele>3</ele><time>2021-01-07T10:25:43Z</time><cmt>0.6 kmh</cmt></trkpt>
<trkpt lat="51.677335" lon="03.759444"><ele>3</ele><time>2021-01-07T10:25:44Z</time><cmt>0.6 kmh</cmt></trkpt>
<trkpt lat="51.677336" lon="03.759445"><ele>3</ele><time>2021-01-07T10:25:45Z</time><cmt>0.6 kmh</cmt></trkpt>
<trkpt lat="51.677337" lon="03.759445"><ele>3</ele><time>2021-01-07T10:25:46Z</time><cmt>0.3 kmh</cmt></trkpt>
<trkpt lat="51.677337" lon="03.759444"><ele>3</ele><time>2021-01-07T10:25:47Z</time><cmt>0.0 kmh</cmt></trkpt>
<trkpt lat="51.677338" lon="03.759444"><ele>3</ele><time>2021-01-07T10:25:48Z</time><cmt>0.0 kmh</cmt></trkpt>
<trkpt lat="51.677338" lon="03.759443"><ele>3</ele><time>2021-01-07T10:25:49Z</time><cmt>0.0 kmh</cmt></trkpt>
<trkpt lat="51.677339" lon="03.759442"><ele>3</ele><time>2021-01-07T10:25:50Z</time><cmt>0.0 kmh</cmt></trkpt>
<trkpt lat="51.677339" lon="03.759441"><ele>3</ele><time>2021-01-07T10:25:51Z</time><cmt>0.2 kmh</cmt></trkpt>
<trkpt lat="51.677339" lon="03.759440"><ele>3</ele><time>2021-01-07T10:25:52Z</time><cmt>0.2 kmh</cmt></trkpt>
<trkpt lat="51.677338" lon="03.759441"><ele>3</ele><time>2021-01-07T10:25:53Z</time><cmt>0.0 kmh</cmt></trkpt>
<trkpt lat="51.677336" lon="03.759443"><ele>3</ele><time>2021-01-07T10:25:54Z</time><cmt>0.4 kmh</cmt></trkpt>
<trkpt lat="51.677335" lon="03.759443"><ele>3</ele><time>2021-01-07T10:25:55Z</time><cmt>0.6 kmh</cmt></trkpt>
<trkpt lat="51.677335" lon="03.759443"><ele>3</ele><time>2021-01-07T10:25:56Z</time><cmt>0.3 kmh</cmt></trkpt>
<trkpt lat="51.677334" lon="03.759444"><ele>3</ele><time>2021-01-07T10:25:57Z</time><cmt>0.0 kmh</cmt></trkpt>
<trkpt lat="51.677335" lon="03.759445"><ele>3</ele><time>2021-01-07T10:25:58Z</time><cmt>0.2 kmh</cmt></trkpt>
<trkpt lat="51.677335" lon="03.759447"><ele>3</ele><time>2021-01-07T10:25:59Z</time><cmt>0.4 kmh</cmt></trkpt>
<trkpt lat="51.677335" lon="03.759448"><ele>3</ele><time>2021-01-07T10:26:00Z</time><cmt>0.4 kmh</cmt></trkpt>
<trkpt lat="51.677335" lon="03.759449"><ele>3</ele><time>2021-01-07T10:26:01Z</time><cmt>0.1 kmh</cmt></trkpt>
<trkpt lat="51.677336" lon="03.759449"><ele>3</ele><time>2021-01-07T10:26:02Z</time><cmt>0.0 kmh</cmt></trkpt>
<trkpt lat="51.677336" lon="03.759448"><ele>3</ele><time>2021-01-07T10:26:03Z</time><cmt>0.0 kmh</cmt></trkpt>
<trkpt lat="51.677337" lon="03.759449"><ele>3</ele><time>2021-01-07T10:26:04Z</time><cmt>0.0 kmh</cmt></trkpt>
<trkpt lat="51.677337" lon="03.759449"><ele>3</ele><time>2021-01-07T10:26:05Z</time><cmt>0.0 kmh</cmt></trkpt>
<trkpt lat="51.677337" lon="03.759450"><ele>3</ele><time>2021-01-07T10:26:06Z</time><cmt>0.0 kmh</cmt></trkpt>
<trkpt lat="51.677336" lon="03.759450"><ele>3</ele><time>2021-01-07T10:26:07Z</time><cmt>0.0 kmh</cmt></trkpt>
<trkpt lat="51.677334" lon="03.759450"><ele>3</ele><time>2021-01-07T10:26:08Z</time><cmt>0.2 kmh</cmt></trkpt>
<trkpt lat="51.677330" lon="03.759451"><ele>3</ele><time>2021-01-07T10:26:09Z</time><cmt>0.8 kmh</cmt></trkpt>
<trkpt lat="51.677325" lon="03.759450"><ele>3</ele><time>2021-01-07T10:26:10Z</time><cmt>2.0 kmh</cmt></trkpt>
<trkpt lat="51.677319" lon="03.759450"><ele>3</ele><time>2021-01-07T10:26:11Z</time><cmt>2.4 kmh</cmt></trkpt>
<trkpt lat="51.677314" lon="03.759449"><ele>3</ele><time>2021-01-07T10:26:12Z</time><cmt>2.3 kmh</cmt></trkpt>
<trkpt lat="51.677310" lon="03.759447"><ele>3</ele><time>2021-01-07T10:26:13Z</time><cmt>1.6 kmh</cmt></trkpt>
<trkpt lat="51.677307" lon="03.759446"><ele>3</ele><time>2021-01-07T10:26:14Z</time><cmt>1.4 kmh</cmt></trkpt>
<trkpt lat="51.677303" lon="03.759443"><ele>2</ele><time>2021-01-07T10:26:15Z</time><cmt>1.7 kmh</cmt></trkpt>
<trkpt lat="51.677300" lon="03.759441"><ele>2</ele><time>2021-01-07T10:26:16Z</time><cmt>1.6 kmh</cmt></trkpt>
<trkpt lat="51.677298" lon="03.759439"><ele>2</ele><time>2021-01-07T10:26:17Z</time><cmt>1.2 kmh</cmt></trkpt>
<trkpt lat="51.677297" lon="03.759438"><ele>2</ele><time>2021-01-07T10:26:18Z</time><cmt>0.5 kmh</cmt></trkpt>
<trkpt lat="51.677297" lon="03.759439"><ele>2</ele><time>2021-01-07T10:26:19Z</time><cmt>0.0 kmh</cmt></trkpt>
<trkpt lat="51.677297" lon="03.759439"><ele>2</ele><time>2021-01-07T10:26:20Z</time><cmt>0.0 kmh</cmt></trkpt>
<trkpt lat="51.677297" lon="03.759438"><ele>2</ele><time>2021-01-07T10:26:21Z</time><cmt>0.0 kmh</cmt></trkpt>
<trkpt lat="51.677298" lon="03.759438"><ele>2</ele><time>2021-01-07T10:26:22Z</time><cmt>0.0 kmh</cmt></trkpt>
<trkpt lat="51.677297" lon="03.759439"><ele>2</ele><time>2021-01-07T10:26:23Z</time><cmt>0.0 kmh</cmt></trkpt>
<trkpt lat="51.677297" lon="03.759440"><ele>2</ele><time>2021-01-07T10:26:24Z</time><cmt>0.0 kmh</cmt></trkpt>
<trkpt lat="51.677297" lon="03.759440"><ele>1</ele><time>2021-01-07T10:26:25Z</time><cmt>0.0 kmh</cmt></trkpt>
<trkpt lat="51.677297" lon="03.759441"><ele>1</ele><time>2021-01-07T10:26:26Z</time><cmt>0.0 kmh</cmt></trkpt>
<trkpt lat="51.677297" lon="03.759442"><ele>1</ele><time>2021-01-07T10:26:27Z</time><cmt>0.0 kmh</cmt></trkpt>
<trkpt lat="51.677298" lon="03.759442"><ele>1</ele><time>2021-01-07T10:26:28Z</time><cmt>0.0 kmh</cmt></trkpt>
<trkpt lat="51.677298" lon="03.759442"><ele>1</ele><time>2021-01-07T10:26:29Z</time><cmt>0.0 kmh</cmt></trkpt>
<trkpt lat="51.677299" lon="03.759443"><ele>1</ele><time>2021-01-07T10:26:30Z</time><cmt>0.0 kmh</cmt></trkpt>
<trkpt lat="51.677300" lon="03.759447"><ele>1</ele><time>2021-01-07T10:26:31Z</time><cmt>0.3 kmh</cmt></trkpt>
<trkpt lat="51.677302" lon="03.759452"><ele>1</ele><time>2021-01-07T10:26:32Z</time><cmt>0.7 kmh</cmt></trkpt>
<trkpt lat="51.677303" lon="03.759454"><ele>1</ele><time>2021-01-07T10:26:33Z</time><cmt>0.8 kmh</cmt></trkpt>
<trkpt lat="51.677302" lon="03.759454"><ele>1</ele><time>2021-01-07T10:26:34Z</time><cmt>0.3 kmh</cmt></trkpt>
<trkpt lat="51.677302" lon="03.759453"><ele>1</ele><time>2021-01-07T10:26:35Z</time><cmt>0.0 kmh</cmt></trkpt>
<trkpt lat="51.677302" lon="03.759453"><ele>1</ele><time>2021-01-07T10:26:36Z</time><cmt>0.0 kmh</cmt></trkpt>
<trkpt lat="51.677301" lon="03.759452"><ele>1</ele><time>2021-01-07T10:26:37Z</time><cmt>0.0 kmh</cmt></trkpt>
<trkpt lat="51.677301" lon="03.759452"><ele>1</ele><time>2021-01-07T10:26:38Z</time><cmt>0.0 kmh</cmt></trkpt>
<trkpt lat="51.677301" lon="03.759451"><ele>1</ele><time>2021-01-07T10:26:39Z</time><cmt>0.0 kmh</cmt></trkpt>
<trkpt lat="51.677301" lon="03.759450"><ele>1</ele><time>2021-01-07T10:26:40Z</time><cmt>0.0 kmh</cmt></trkpt>
<trkpt lat="51.677301" lon="03.759450"><ele>1</ele><time>2021-01-07T10:26:41Z</time><cmt>0.0 kmh</cmt></trkpt>
<trkpt lat="51.677300" lon="03.759447"><ele>1</ele><time>2021-01-07T10:26:42Z</time><cmt>0.5 kmh</cmt></trkpt>
<trkpt lat="51.677299" lon="03.759446"><ele>2</ele><time>2021-01-07T10:26:43Z</time><cmt>0.5 kmh</cmt></trkpt>
<trkpt lat="51.677298" lon="03.759446"><ele>2</ele><time>2021-01-07T10:26:44Z</time><cmt>0.0 kmh</cmt></trkpt>
<trkpt lat="51.677298" lon="03.759447"><ele>2</ele><time>2021-01-07T10:26:45Z</time><cmt>0.0 kmh</cmt></trkpt>
<trkpt lat="51.677300" lon="03.759451"><ele>2</ele><time>2021-01-07T10:26:46Z</time><cmt>0.3 kmh</cmt></trkpt>
<trkpt lat="51.677302" lon="03.759459"><ele>2</ele><time>2021-01-07T10:26:47Z</time><cmt>1.8 kmh</cmt></trkpt>
<trkpt lat="51.677303" lon="03.759472"><ele>2</ele><time>2021-01-07T10:26:48Z</time><cmt>2.9 kmh</cmt></trkpt>
<trkpt lat="51.677306" lon="03.759485"><ele>2</ele><time>2021-01-07T10:26:49Z</time><cmt>3.6 kmh</cmt></trkpt>
<trkpt lat="51.677311" lon="03.759500"><ele>2</ele><time>2021-01-07T10:26:50Z</time><cmt>4.1 kmh</cmt></trkpt>
<trkpt lat="51.677316" lon="03.759515"><ele>2</ele><time>2021-01-07T10:26:51Z</time><cmt>3.7 kmh</cmt></trkpt>
<trkpt lat="51.677322" lon="03.759533"><ele>3</ele><time>2021-01-07T10:26:52Z</time><cmt>4.1 kmh</cmt></trkpt>
<trkpt lat="51.677329" lon="03.759549"><ele>3</ele><time>2021-01-07T10:26:53Z</time><cmt>5.0 kmh</cmt></trkpt>
<trkpt lat="51.677336" lon="03.759565"><ele>3</ele><time>2021-01-07T10:26:54Z</time><cmt>5.0 kmh</cmt></trkpt>
<trkpt lat="51.677343" lon="03.759581"><ele>3</ele><time>2021-01-07T10:26:55Z</time><cmt>5.1 kmh</cmt></trkpt>
<trkpt lat="51.677350" lon="03.759598"><ele>3</ele><time>2021-01-07T10:26:56Z</time><cmt>5.1 kmh</cmt></trkpt>
<trkpt lat="51.677357" lon="03.759615"><ele>3</ele><time>2021-01-07T10:26:57Z</time><cmt>5.1 kmh</cmt></trkpt>
<trkpt lat="51.677364" lon="03.759631"><ele>3</ele><time>2021-01-07T10:26:58Z</time><cmt>4.3 kmh</cmt></trkpt>
<trkpt lat="51.677370" lon="03.759647"><ele>3</ele><time>2021-01-07T10:26:59Z</time><cmt>5.0 kmh</cmt></trkpt>
<trkpt lat="51.677377" lon="03.759663"><ele>3</ele><time>2021-01-07T10:27:00Z</time><cmt>5.0 kmh</cmt></trkpt>
<trkpt lat="51.677382" lon="03.759678"><ele>4</ele><time>2021-01-07T10:27:01Z</time><cmt>4.8 kmh</cmt></trkpt>
<trkpt lat="51.677388" lon="03.759694"><ele>4</ele><time>2021-01-07T10:27:02Z</time><cmt>4.8 kmh</cmt></trkpt>
<trkpt lat="51.677394" lon="03.759711"><ele>4</ele><time>2021-01-07T10:27:03Z</time><cmt>5.1 kmh</cmt></trkpt>
<trkpt lat="51.677401" lon="03.759728"><ele>4</ele><time>2021-01-07T10:27:04Z</time><cmt>5.1 kmh</cmt></trkpt>
<trkpt lat="51.677408" lon="03.759744"><ele>4</ele><time>2021-01-07T10:27:05Z</time><cmt>4.3 kmh</cmt></trkpt>
<trkpt lat="51.677414" lon="03.759761"><ele>4</ele><time>2021-01-07T10:27:06Z</time><cmt>5.0 kmh</cmt></trkpt>
<trkpt lat="51.677420" lon="03.759778"><ele>4</ele><time>2021-01-07T10:27:07Z</time><cmt>5.0 kmh</cmt></trkpt>
<trkpt lat="51.677426" lon="03.759795"><ele>4</ele><time>2021-01-07T10:27:08Z</time><cmt>5.1 kmh</cmt></trkpt>
<trkpt lat="51.677433" lon="03.759813"><ele>4</ele><time>2021-01-07T10:27:09Z</time><cmt>5.3 kmh</cmt></trkpt>
<trkpt lat="51.677440" lon="03.759831"><ele>4</ele><time>2021-01-07T10:27:10Z</time><cmt>5.5 kmh</cmt></trkpt>
<trkpt lat="51.677448" lon="03.759850"><ele>4</ele><time>2021-01-07T10:27:11Z</time><cmt>5.4 kmh</cmt></trkpt>
<trkpt lat="51.677455" lon="03.759869"><ele>4</ele><time>2021-01-07T10:27:12Z</time><cmt>5.1 kmh</cmt></trkpt>
<trkpt lat="51.677460" lon="03.759887"><ele>4</ele><time>2021-01-07T10:27:13Z</time><cmt>5.2 kmh</cmt></trkpt>
<trkpt lat="51.677467" lon="03.759906"><ele>4</ele><time>2021-01-07T10:27:14Z</time><cmt>5.3 kmh</cmt></trkpt>
<trkpt lat="51.677474" lon="03.759923"><ele>4</ele><time>2021-01-07T10:27:15Z</time><cmt>5.0 kmh</cmt></trkpt>
<trkpt lat="51.677481" lon="03.759940"><ele>4</ele><time>2021-01-07T10:27:16Z</time><cmt>5.0 kmh</cmt></trkpt>
<trkpt lat="51.677487" lon="03.759957"><ele>4</ele><time>2021-01-07T10:27:17Z</time><cmt>5.0 kmh</cmt></trkpt>
<trkpt lat="51.677492" lon="03.759976"><ele>4</ele><time>2021-01-07T10:27:18Z</time><cmt>5.3 kmh</cmt></trkpt>
<trkpt lat="51.677498" lon="03.759995"><ele>4</ele><time>2021-01-07T10:27:19Z</time><cmt>5.3 kmh</cmt></trkpt>
<trkpt lat="51.677504" lon="03.760014"><ele>4</ele><time>2021-01-07T10:27:20Z</time><cmt>5.3 kmh</cmt></trkpt>
<trkpt lat="51.677510" lon="03.760029"><ele>4</ele><time>2021-01-07T10:27:21Z</time><cmt>5.0 kmh</cmt></trkpt>
<trkpt lat="51.677517" lon="03.760046"><ele>3</ele><time>2021-01-07T10:27:22Z</time><cmt>5.3 kmh</cmt></trkpt>
<trkpt lat="51.677522" lon="03.760063"><ele>3</ele><time>2021-01-07T10:27:23Z</time><cmt>5.3 kmh</cmt></trkpt>
<trkpt lat="51.677528" lon="03.760081"><ele>3</ele><time>2021-01-07T10:27:24Z</time><cmt>4.3 kmh</cmt></trkpt>
<trkpt lat="51.677534" lon="03.760099"><ele>3</ele><time>2021-01-07T10:27:25Z</time><cmt>5.1 kmh</cmt></trkpt>
<trkpt lat="51.677540" lon="03.760118"><ele>3</ele><time>2021-01-07T10:27:26Z</time><cmt>5.2 kmh</cmt></trkpt>
<trkpt lat="51.677547" lon="03.760137"><ele>3</ele><time>2021-01-07T10:27:27Z</time><cmt>5.2 kmh</cmt></trkpt>
<trkpt lat="51.677554" lon="03.760155"><ele>3</ele><time>2021-01-07T10:27:28Z</time><cmt>5.4 kmh</cmt></trkpt>
<trkpt lat="51.677560" lon="03.760175"><ele>3</ele><time>2021-01-07T10:27:29Z</time><cmt>5.2 kmh</cmt></trkpt>
<trkpt lat="51.677567" lon="03.760194"><ele>3</ele><time>2021-01-07T10:27:30Z</time><cmt>5.0 kmh</cmt></trkpt>
<trkpt lat="51.677573" lon="03.760214"><ele>2</ele><time>2021-01-07T10:27:31Z</time><cmt>5.2 kmh</cmt></trkpt>
<trkpt lat="51.677579" lon="03.760233"><ele>2</ele><time>2021-01-07T10:27:32Z</time><cmt>5.1 kmh</cmt></trkpt>
<trkpt lat="51.677584" lon="03.760251"><ele>2</ele><time>2021-01-07T10:27:33Z</time><cmt>5.0 kmh</cmt></trkpt>
<trkpt lat="51.677591" lon="03.760269"><ele>2</ele><time>2021-01-07T10:27:34Z</time><cmt>5.4 kmh</cmt></trkpt>
<trkpt lat="51.677598" lon="03.760286"><ele>2</ele><time>2021-01-07T10:27:35Z</time><cmt>5.4 kmh</cmt></trkpt>
<trkpt lat="51.677604" lon="03.760303"><ele>2</ele><time>2021-01-07T10:27:36Z</time><cmt>4.2 kmh</cmt></trkpt>
<trkpt lat="51.677610" lon="03.760320"><ele>2</ele><time>2021-01-07T10:27:37Z</time><cmt>5.0 kmh</cmt></trkpt>
<trkpt lat="51.677618" lon="03.760337"><ele>2</ele><time>2021-01-07T10:27:38Z</time><cmt>5.4 kmh</cmt></trkpt>
<trkpt lat="51.677624" lon="03.760356"><ele>2</ele><time>2021-01-07T10:27:39Z</time><cmt>5.0 kmh</cmt></trkpt>
<trkpt lat="51.677631" lon="03.760373"><ele>2</ele><time>2021-01-07T10:27:40Z</time><cmt>5.0 kmh</cmt></trkpt>
<trkpt lat="51.677638" lon="03.760390"><ele>2</ele><time>2021-01-07T10:27:41Z</time><cmt>5.0 kmh</cmt></trkpt>
<trkpt lat="51.677645" lon="03.760407"><ele>2</ele><time>2021-01-07T10:27:42Z</time><cmt>5.0 kmh</cmt></trkpt>
<trkpt lat="51.677651" lon="03.760425"><ele>2</ele><time>2021-01-07T10:27:43Z</time><cmt>4.3 kmh</cmt></trkpt>
<trkpt lat="51.677657" lon="03.760442"><ele>2</ele><time>2021-01-07T10:27:44Z</time><cmt>5.0 kmh</cmt></trkpt>
<trkpt lat="51.677662" lon="03.760460"><ele>2</ele><time>2021-01-07T10:27:45Z</time><cmt>5.0 kmh</cmt></trkpt>
<trkpt lat="51.677669" lon="03.760478"><ele>2</ele><time>2021-01-07T10:27:46Z</time><cmt>5.0 kmh</cmt></trkpt>
<trkpt lat="51.677674" lon="03.760496"><ele>2</ele><time>2021-01-07T10:27:47Z</time><cmt>5.0 kmh</cmt></trkpt>
<trkpt lat="51.677679" lon="03.760514"><ele>2</ele><time>2021-01-07T10:27:48Z</time><cmt>4.3 kmh</cmt></trkpt>
<trkpt lat="51.677685" lon="03.760532"><ele>2</ele><time>2021-01-07T10:27:49Z</time><cmt>5.0 kmh</cmt></trkpt>
<trkpt lat="51.677690" lon="03.760550"><ele>2</ele><time>2021-01-07T10:27:50Z</time><cmt>5.0 kmh</cmt></trkpt>
<trkpt lat="51.677696" lon="03.760568"><ele>3</ele><time>2021-01-07T10:27:51Z</time><cmt>5.0 kmh</cmt></trkpt>
<trkpt lat="51.677701" lon="03.760586"><ele>3</ele><time>2021-01-07T10:27:52Z</time><cmt>5.0 kmh</cmt></trkpt>
<trkpt lat="51.677708" lon="03.760603"><ele>3</ele><time>2021-01-07T10:27:53Z</time><cmt>5.0 kmh</cmt></trkpt>
<trkpt lat="51.677714" lon="03.760621"><ele>3</ele><time>2021-01-07T10:27:54Z</time><cmt>5.2 kmh</cmt></trkpt>
<trkpt lat="51.677720" lon="03.760639"><ele>3</ele><time>2021-01-07T10:27:55Z</time><cmt>5.2 kmh</cmt></trkpt>
<trkpt lat="51.677727" lon="03.760657"><ele>3</ele><time>2021-01-07T10:27:56Z</time><cmt>5.2 kmh</cmt></trkpt>
<trkpt lat="51.677734" lon="03.760676"><ele>3</ele><time>2021-01-07T10:27:57Z</time><cmt>5.2 kmh</cmt></trkpt>
<trkpt lat="51.677740" lon="03.760694"><ele>3</ele><time>2021-01-07T10:27:58Z</time><cmt>5.2 kmh</cmt></trkpt>
<trkpt lat="51.677745" lon="03.760709"><ele>3</ele><time>2021-01-07T10:27:59Z</time><cmt>5.0 kmh</cmt></trkpt>
<trkpt lat="51.677749" lon="03.760725"><ele>3</ele><time>2021-01-07T10:28:00Z</time><cmt>4.6 kmh</cmt></trkpt>
<trkpt lat="51.677754" lon="03.760740"><ele>3</ele><time>2021-01-07T10:28:01Z</time><cmt>3.6 kmh</cmt></trkpt>
<trkpt lat="51.677759" lon="03.760756"><ele>3</ele><time>2021-01-07T10:28:02Z</time><cmt>3.7 kmh</cmt></trkpt>
<trkpt lat="51.677764" lon="03.760772"><ele>3</ele><time>2021-01-07T10:28:03Z</time><cmt>4.8 kmh</cmt></trkpt>
<trkpt lat="51.677769" lon="03.760788"><ele>3</ele><time>2021-01-07T10:28:04Z</time><cmt>4.8 kmh</cmt></trkpt>
<trkpt lat="51.677774" lon="03.760805"><ele>3</ele><time>2021-01-07T10:28:05Z</time><cmt>5.2 kmh</cmt></trkpt>
<trkpt lat="51.677779" lon="03.760822"><ele>4</ele><time>2021-01-07T10:28:06Z</time><cmt>5.2 kmh</cmt></trkpt>
<trkpt lat="51.677785" lon="03.760838"><ele>4</ele><time>2021-01-07T10:28:07Z</time><cmt>4.0 kmh</cmt></trkpt>
<trkpt lat="51.677791" lon="03.760854"><ele>4</ele><time>2021-01-07T10:28:08Z</time><cmt>4.0 kmh</cmt></trkpt>
<trkpt lat="51.677796" lon="03.760870"><ele>4</ele><time>2021-01-07T10:28:09Z</time><cmt>4.9 kmh</cmt></trkpt>
<trkpt lat="51.677802" lon="03.760885"><ele>4</ele><time>2021-01-07T10:28:10Z</time><cmt>4.8 kmh</cmt></trkpt>
<trkpt lat="51.677807" lon="03.760902"><ele>4</ele><time>2021-01-07T10:28:11Z</time><cmt>4.9 kmh</cmt></trkpt>
<trkpt lat="51.677813" lon="03.760920"><ele>4</ele><time>2021-01-07T10:28:12Z</time><cmt>5.0 kmh</cmt></trkpt>
<trkpt lat="51.677818" lon="03.760937"><ele>4</ele><time>2021-01-07T10:28:13Z</time><cmt>4.2 kmh</cmt></trkpt>
<trkpt lat="51.677824" lon="03.760955"><ele>4</ele><time>2021-01-07T10:28:14Z</time><cmt>4.2 kmh</cmt></trkpt>
<trkpt lat="51.677829" lon="03.760972"><ele>4</ele><time>2021-01-07T10:28:15Z</time><cmt>5.0 kmh</cmt></trkpt>
<trkpt lat="51.677835" lon="03.760988"><ele>4</ele><time>2021-01-07T10:28:16Z</time><cmt>5.0 kmh</cmt></trkpt>
<trkpt lat="51.677841" lon="03.761006"><ele>4</ele><time>2021-01-07T10:28:17Z</time><cmt>5.0 kmh</cmt></trkpt>
<trkpt lat="51.677847" lon="03.761023"><ele>4</ele><time>2021-01-07T10:28:18Z</time><cmt>5.0 kmh</cmt></trkpt>
<trkpt lat="51.677852" lon="03.761041"><ele>4</ele><time>2021-01-07T10:28:19Z</time><cmt>5.0 kmh</cmt></trkpt>
<trkpt lat="51.677856" lon="03.761059"><ele>4</ele><time>2021-01-07T10:28:20Z</time><cmt>4.1 kmh</cmt></trkpt>
<trkpt lat="51.677861" lon="03.761077"><ele>4</ele><time>2021-01-07T10:28:21Z</time><cmt>5.1 kmh</cmt></trkpt>
<trkpt lat="51.677867" lon="03.761095"><ele>4</ele><time>2021-01-07T10:28:22Z</time><cmt>5.1 kmh</cmt></trkpt>
<trkpt lat="51.677872" lon="03.761113"><ele>4</ele><time>2021-01-07T10:28:23Z</time><cmt>5.0 kmh</cmt></trkpt>
<trkpt lat="51.677878" lon="03.761131"><ele>4</ele><time>2021-01-07T10:28:24Z</time><cmt>5.0 kmh</cmt></trkpt>
<trkpt lat="51.677883" lon="03.761149"><ele>4</ele><time>2021-01-07T10:28:25Z</time><cmt>5.1 kmh</cmt></trkpt>
<trkpt lat="51.677889" lon="03.761168"><ele>4</ele><time>2021-01-07T10:28:26Z</time><cmt>5.1 kmh</cmt></trkpt>
<trkpt lat="51.677894" lon="03.761185"><ele>4</ele><time>2021-01-07T10:28:27Z</time><cmt>4.3 kmh</cmt></trkpt>
<trkpt lat="51.677900" lon="03.761203"><ele>4</ele><time>2021-01-07T10:28:28Z</time><cmt>5.1 kmh</cmt></trkpt>
<trkpt lat="51.677905" lon="03.761222"><ele>4</ele><time>2021-01-07T10:28:29Z</time><cmt>5.1 kmh</cmt></trkpt>
<trkpt lat="51.677911" lon="03.761239"><ele>4</ele><time>2021-01-07T10:28:30Z</time><cmt>5.1 kmh</cmt></trkpt>
<trkpt lat="51.677917" lon="03.761257"><ele>4</ele><time>2021-01-07T10:28:31Z</time><cmt>5.1 kmh</cmt></trkpt>
<trkpt lat="51.677923" lon="03.761275"><ele>4</ele><time>2021-01-07T10:28:32Z</time><cmt>5.1 kmh</cmt></trkpt>
<trkpt lat="51.677928" lon="03.761293"><ele>4</ele><time>2021-01-07T10:28:33Z</time><cmt>4.3 kmh</cmt></trkpt>
<trkpt lat="51.677934" lon="03.761310"><ele>4</ele><time>2021-01-07T10:28:34Z</time><cmt>5.0 kmh</cmt></trkpt>
<trkpt lat="51.677939" lon="03.761327"><ele>4</ele><time>2021-01-07T10:28:35Z</time><cmt>5.0 kmh</cmt></trkpt>
<trkpt lat="51.677945" lon="03.761345"><ele>4</ele><time>2021-01-07T10:28:36Z</time><cmt>5.1 kmh</cmt></trkpt>
<trkpt lat="51.677951" lon="03.761364"><ele>4</ele><time>2021-01-07T10:28:37Z</time><cmt>5.2 kmh</cmt></trkpt>
<trkpt lat="51.677957" lon="03.761382"><ele>4</ele><time>2021-01-07T10:28:38Z</time><cmt>5.2 kmh</cmt></trkpt>
<trkpt lat="51.677963" lon="03.761399"><ele>4</ele><time>2021-01-07T10:28:39Z</time><cmt>5.0 kmh</cmt></trkpt>
<trkpt lat="51.677969" lon="03.761418"><ele>4</ele><time>2021-01-07T10:28:40Z</time><cmt>5.1 kmh</cmt></trkpt>
<trkpt lat="51.677975" lon="03.761435"><ele>4</ele><time>2021-01-07T10:28:41Z</time><cmt>5.1 kmh</cmt></trkpt>
<trkpt lat="51.677982" lon="03.761453"><ele>3</ele><time>2021-01-07T10:28:42Z</time><cmt>5.2 kmh</cmt></trkpt>
<trkpt lat="51.677988" lon="03.761471"><ele>3</ele><time>2021-01-07T10:28:43Z</time><cmt>5.1 kmh</cmt></trkpt>
<trkpt lat="51.677995" lon="03.761488"><ele>3</ele><time>2021-01-07T10:28:44Z</time><cmt>5.1 kmh</cmt></trkpt>
<trkpt lat="51.678001" lon="03.761505"><ele>3</ele><time>2021-01-07T10:28:45Z</time><cmt>4.3 kmh</cmt></trkpt>
<trkpt lat="51.678007" lon="03.761522"><ele>3</ele><time>2021-01-07T10:28:46Z</time><cmt>4.2 kmh</cmt></trkpt>
<trkpt lat="51.678012" lon="03.761539"><ele>3</ele><time>2021-01-07T10:28:47Z</time><cmt>5.0 kmh</cmt></trkpt>
<trkpt lat="51.678017" lon="03.761555"><ele>3</ele><time>2021-01-07T10:28:48Z</time><cmt>5.0 kmh</cmt></trkpt>
<trkpt lat="51.678023" lon="03.761573"><ele>3</ele><time>2021-01-07T10:28:49Z</time><cmt>5.3 kmh</cmt></trkpt>
<trkpt lat="51.678031" lon="03.761594"><ele>3</ele><time>2021-01-07T10:28:50Z</time><cmt>6.4 kmh</cmt></trkpt>
<trkpt lat="51.678038" lon="03.761618"><ele>3</ele><time>2021-01-07T10:28:51Z</time><cmt>7.1 kmh</cmt></trkpt>
<trkpt lat="51.678045" lon="03.761640"><ele>3</ele><time>2021-01-07T10:28:52Z</time><cmt>5.2 kmh</cmt></trkpt>
<trkpt lat="51.678051" lon="03.761658"><ele>3</ele><time>2021-01-07T10:28:53Z</time><cmt>5.2 kmh</cmt></trkpt>
<trkpt lat="51.678056" lon="03.761676"><ele>3</ele><time>2021-01-07T10:28:54Z</time><cmt>5.0 kmh</cmt></trkpt>
<trkpt lat="51.678062" lon="03.761694"><ele>3</ele><time>2021-01-07T10:28:55Z</time><cmt>5.6 kmh</cmt></trkpt>
<trkpt lat="51.678068" lon="03.761713"><ele>3</ele><time>2021-01-07T10:28:56Z</time><cmt>5.6 kmh</cmt></trkpt>
<trkpt lat="51.678074" lon="03.761730"><ele>3</ele><time>2021-01-07T10:28:57Z</time><cmt>5.1 kmh</cmt></trkpt>
<trkpt lat="51.678080" lon="03.761748"><ele>3</ele><time>2021-01-07T10:28:58Z</time><cmt>5.1 kmh</cmt></trkpt>
<trkpt lat="51.678086" lon="03.761766"><ele>3</ele><time>2021-01-07T10:28:59Z</time><cmt>5.0 kmh</cmt></trkpt>
<trkpt lat="51.678092" lon="03.761784"><ele>3</ele><time>2021-01-07T10:29:00Z</time><cmt>5.0 kmh</cmt></trkpt>
<trkpt lat="51.678098" lon="03.761800"><ele>3</ele><time>2021-01-07T10:29:01Z</time><cmt>5.0 kmh</cmt></trkpt>
<trkpt lat="51.678103" lon="03.761817"><ele>3</ele><time>2021-01-07T10:29:02Z</time><cmt>5.0 kmh</cmt></trkpt>
<trkpt lat="51.678109" lon="03.761834"><ele>3</ele><time>2021-01-07T10:29:03Z</time><cmt>5.0 kmh</cmt></trkpt>
<trkpt lat="51.678115" lon="03.761851"><ele>3</ele><time>2021-01-07T10:29:04Z</time><cmt>5.4 kmh</cmt></trkpt>
<trkpt lat="51.678122" lon="03.761869"><ele>3</ele><time>2021-01-07T10:29:05Z</time><cmt>5.4 kmh</cmt></trkpt>
<trkpt lat="51.678127" lon="03.761885"><ele>3</ele><time>2021-01-07T10:29:06Z</time><cmt>5.0 kmh</cmt></trkpt>
<trkpt lat="51.678133" lon="03.761902"><ele>3</ele><time>2021-01-07T10:29:07Z</time><cmt>5.3 kmh</cmt></trkpt>
<trkpt lat="51.678139" lon="03.761920"><ele>3</ele><time>2021-01-07T10:29:08Z</time><cmt>5.3 kmh</cmt></trkpt>
<trkpt lat="51.678145" lon="03.761938"><ele>3</ele><time>2021-01-07T10:29:09Z</time><cmt>5.0 kmh</cmt></trkpt>
<trkpt lat="51.678150" lon="03.761955"><ele>3</ele><time>2021-01-07T10:29:10Z</time><cmt>4.2 kmh</cmt></trkpt>
<trkpt lat="51.678155" lon="03.761973"><ele>3</ele><time>2021-01-07T10:29:11Z</time><cmt>5.1 kmh</cmt></trkpt>
<trkpt lat="51.678162" lon="03.761994"><ele>3</ele><time>2021-01-07T10:29:12Z</time><cmt>5.9 kmh</cmt></trkpt>
<trkpt lat="51.678169" lon="03.762015"><ele>3</ele><time>2021-01-07T10:29:13Z</time><cmt>5.3 kmh</cmt></trkpt>
<trkpt lat="51.678175" lon="03.762033"><ele>3</ele><time>2021-01-07T10:29:14Z</time><cmt>5.1 kmh</cmt></trkpt>
<trkpt lat="51.678181" lon="03.762050"><ele>3</ele><time>2021-01-07T10:29:15Z</time><cmt>5.1 kmh</cmt></trkpt>
<trkpt lat="51.678187" lon="03.762067"><ele>3</ele><time>2021-01-07T10:29:16Z</time><cmt>5.0 kmh</cmt></trkpt>
<trkpt lat="51.678192" lon="03.762083"><ele>3</ele><time>2021-01-07T10:29:17Z</time><cmt>4.0 kmh</cmt></trkpt>
<trkpt lat="51.678197" lon="03.762099"><ele>3</ele><time>2021-01-07T10:29:18Z</time><cmt>3.9 kmh</cmt></trkpt>
<trkpt lat="51.678202" lon="03.762115"><ele>3</ele><time>2021-01-07T10:29:19Z</time><cmt>4.8 kmh</cmt></trkpt>
<trkpt lat="51.678207" lon="03.762130"><ele>3</ele><time>2021-01-07T10:29:20Z</time><cmt>4.7 kmh</cmt></trkpt>
<trkpt lat="51.678213" lon="03.762146"><ele>3</ele><time>2021-01-07T10:29:21Z</time><cmt>4.8 kmh</cmt></trkpt>
<trkpt lat="51.678219" lon="03.762163"><ele>3</ele><time>2021-01-07T10:29:22Z</time><cmt>5.0 kmh</cmt></trkpt>
<trkpt lat="51.678224" lon="03.762179"><ele>3</ele><time>2021-01-07T10:29:23Z</time><cmt>4.1 kmh</cmt></trkpt>
<trkpt lat="51.678231" lon="03.762196"><ele>3</ele><time>2021-01-07T10:29:24Z</time><cmt>5.3 kmh</cmt></trkpt>
<trkpt lat="51.678237" lon="03.762214"><ele>3</ele><time>2021-01-07T10:29:25Z</time><cmt>5.3 kmh</cmt></trkpt>
<trkpt lat="51.678242" lon="03.762230"><ele>3</ele><time>2021-01-07T10:29:26Z</time><cmt>5.0 kmh</cmt></trkpt>
<trkpt lat="51.678248" lon="03.762247"><ele>3</ele><time>2021-01-07T10:29:27Z</time><cmt>5.0 kmh</cmt></trkpt>
<trkpt lat="51.678254" lon="03.762264"><ele>3</ele><time>2021-01-07T10:29:28Z</time><cmt>5.3 kmh</cmt></trkpt>
<trkpt lat="51.678261" lon="03.762281"><ele>3</ele><time>2021-01-07T10:29:29Z</time><cmt>5.3 kmh</cmt></trkpt>
<trkpt lat="51.678267" lon="03.762298"><ele>3</ele><time>2021-01-07T10:29:30Z</time><cmt>4.3 kmh</cmt></trkpt>
<trkpt lat="51.678273" lon="03.762315"><ele>3</ele><time>2021-01-07T10:29:31Z</time><cmt>5.0 kmh</cmt></trkpt>
<trkpt lat="51.678278" lon="03.762331"><ele>3</ele><time>2021-01-07T10:29:32Z</time><cmt>5.0 kmh</cmt></trkpt>
<trkpt lat="51.678284" lon="03.762349"><ele>3</ele><time>2021-01-07T10:29:33Z</time><cmt>5.0 kmh</cmt></trkpt>
<trkpt lat="51.678290" lon="03.762366"><ele>3</ele><time>2021-01-07T10:29:34Z</time><cmt>5.0 kmh</cmt></trkpt>
<trkpt lat="51.678295" lon="03.762382"><ele>3</ele><time>2021-01-07T10:29:35Z</time><cmt>5.0 kmh</cmt></trkpt>
<trkpt lat="51.678301" lon="03.762399"><ele>3</ele><time>2021-01-07T10:29:36Z</time><cmt>4.1 kmh</cmt></trkpt>
<trkpt lat="51.678307" lon="03.762415"><ele>3</ele><time>2021-01-07T10:29:37Z</time><cmt>4.1 kmh</cmt></trkpt>
<trkpt lat="51.678313" lon="03.762432"><ele>3</ele><time>2021-01-07T10:29:38Z</time><cmt>5.0 kmh</cmt></trkpt>
<trkpt lat="51.678318" lon="03.762450"><ele>3</ele><time>2021-01-07T10:29:39Z</time><cmt>5.0 kmh</cmt></trkpt>
<trkpt lat="51.678324" lon="03.762467"><ele>3</ele><time>2021-01-07T10:29:40Z</time><cmt>5.0 kmh</cmt></trkpt>
<trkpt lat="51.678329" lon="03.762484"><ele>4</ele><time>2021-01-07T10:29:41Z</time><cmt>5.0 kmh</cmt></trkpt>
<trkpt lat="51.678335" lon="03.762500"><ele>4</ele><time>2021-01-07T10:29:42Z</time><cmt>4.1 kmh</cmt></trkpt>
<trkpt lat="51.678341" lon="03.762517"><ele>4</ele><time>2021-01-07T10:29:43Z</time><cmt>4.0 kmh</cmt></trkpt>
<trkpt lat="51.678347" lon="03.762533"><ele>4</ele><time>2021-01-07T10:29:44Z</time><cmt>5.0 kmh</cmt></trkpt>
<trkpt lat="51.678353" lon="03.762549"><ele>4</ele><time>2021-01-07T10:29:45Z</time><cmt>5.0 kmh</cmt></trkpt>
<trkpt lat="51.678358" lon="03.762565"><ele>4</ele><time>2021-01-07T10:29:46Z</time><cmt>5.0 kmh</cmt></trkpt>
<trkpt lat="51.678364" lon="03.762582"><ele>4</ele><time>2021-01-07T10:29:47Z</time><cmt>5.0 kmh</cmt></trkpt>
<trkpt lat="51.678370" lon="03.762599"><ele>4</ele><time>2021-01-07T10:29:48Z</time><cmt>5.0 kmh</cmt></trkpt>
<trkpt lat="51.678376" lon="03.762615"><ele>4</ele><time>2021-01-07T10:29:49Z</time><cmt>4.1 kmh</cmt></trkpt>
<trkpt lat="51.678381" lon="03.762632"><ele>4</ele><time>2021-01-07T10:29:50Z</time><cmt>4.1 kmh</cmt></trkpt>
<trkpt lat="51.678387" lon="03.762649"><ele>4</ele><time>2021-01-07T10:29:51Z</time><cmt>5.0 kmh</cmt></trkpt>
<trkpt lat="51.678394" lon="03.762666"><ele>4</ele><time>2021-01-07T10:29:52Z</time><cmt>5.0 kmh</cmt></trkpt>
<trkpt lat="51.678401" lon="03.762682"><ele>4</ele><time>2021-01-07T10:29:53Z</time><cmt>5.0 kmh</cmt></trkpt>
<trkpt lat="51.678407" lon="03.762697"><ele>5</ele><time>2021-01-07T10:29:54Z</time><cmt>5.0 kmh</cmt></trkpt>
<trkpt lat="51.678413" lon="03.762713"><ele>5</ele><time>2021-01-07T10:29:55Z</time><cmt>4.0 kmh</cmt></trkpt>
<trkpt lat="51.678419" lon="03.762729"><ele>5</ele><time>2021-01-07T10:29:56Z</time><cmt>4.0 kmh</cmt></trkpt>
<trkpt lat="51.678424" lon="03.762745"><ele>5</ele><time>2021-01-07T10:29:57Z</time><cmt>4.8 kmh</cmt></trkpt>
<trkpt lat="51.678429" lon="03.762761"><ele>5</ele><time>2021-01-07T10:29:58Z</time><cmt>4.7 kmh</cmt></trkpt>
<trkpt lat="51.678434" lon="03.762777"><ele>5</ele><time>2021-01-07T10:29:59Z</time><cmt>4.9 kmh</cmt></trkpt>
<trkpt lat="51.678440" lon="03.762794"><ele>5</ele><time>2021-01-07T10:30:00Z</time><cmt>5.1 kmh</cmt></trkpt>
<trkpt lat="51.678446" lon="03.762810"><ele>5</ele><time>2021-01-07T10:30:01Z</time><cmt>5.1 kmh</cmt></trkpt>
<trkpt lat="51.678452" lon="03.762827"><ele>5</ele><time>2021-01-07T10:30:02Z</time><cmt>4.1 kmh</cmt></trkpt>
<trkpt lat="51.678457" lon="03.762844"><ele>5</ele><time>2021-01-07T10:30:03Z</time><cmt>5.0 kmh</cmt></trkpt>
<trkpt lat="51.678462" lon="03.762860"><ele>5</ele><time>2021-01-07T10:30:04Z</time><cmt>5.0 kmh</cmt></trkpt>
<trkpt lat="51.678468" lon="03.762876"><ele>6</ele><time>2021-01-07T10:30:05Z</time><cmt>4.9 kmh</cmt></trkpt>
<trkpt lat="51.678473" lon="03.762893"><ele>6</ele><time>2021-01-07T10:30:06Z</time><cmt>4.9 kmh</cmt></trkpt>
<trkpt lat="51.678478" lon="03.762909"><ele>6</ele><time>2021-01-07T10:30:07Z</time><cmt>4.9 kmh</cmt></trkpt>
<trkpt lat="51.678484" lon="03.762925"><ele>6</ele><time>2021-01-07T10:30:08Z</time><cmt>3.9 kmh</cmt></trkpt>
<trkpt lat="51.678491" lon="03.762941"><ele>6</ele><time>2021-01-07T10:30:09Z</time><cmt>5.1 kmh</cmt></trkpt>
<trkpt lat="51.678497" lon="03.762960"><ele>6</ele><time>2021-01-07T10:30:10Z</time><cmt>5.2 kmh</cmt></trkpt>
<trkpt lat="51.678503" lon="03.762979"><ele>6</ele><time>2021-01-07T10:30:11Z</time><cmt>5.2 kmh</cmt></trkpt>
<trkpt lat="51.678509" lon="03.762998"><ele>6</ele><time>2021-01-07T10:30:12Z</time><cmt>5.1 kmh</cmt></trkpt>
<trkpt lat="51.678516" lon="03.763017"><ele>6</ele><time>2021-01-07T10:30:13Z</time><cmt>5.1 kmh</cmt></trkpt>
<trkpt lat="51.678522" lon="03.763036"><ele>6</ele><time>2021-01-07T10:30:14Z</time><cmt>4.6 kmh</cmt></trkpt>
<trkpt lat="51.678528" lon="03.763055"><ele>6</ele><time>2021-01-07T10:30:15Z</time><cmt>4.6 kmh</cmt></trkpt>
<trkpt lat="51.678533" lon="03.763075"><ele>6</ele><time>2021-01-07T10:30:16Z</time><cmt>5.0 kmh</cmt></trkpt>
<trkpt lat="51.678539" lon="03.763094"><ele>6</ele><time>2021-01-07T10:30:17Z</time><cmt>5.0 kmh</cmt></trkpt>
<trkpt lat="51.678546" lon="03.763115"><ele>6</ele><time>2021-01-07T10:30:18Z</time><cmt>5.3 kmh</cmt></trkpt>
<trkpt lat="51.678552" lon="03.763136"><ele>6</ele><time>2021-01-07T10:30:19Z</time><cmt>5.0 kmh</cmt></trkpt>
<trkpt lat="51.678558" lon="03.763155"><ele>6</ele><time>2021-01-07T10:30:20Z</time><cmt>5.0 kmh</cmt></trkpt>
<trkpt lat="51.678564" lon="03.763174"><ele>6</ele><time>2021-01-07T10:30:21Z</time><cmt>4.6 kmh</cmt></trkpt>
<trkpt lat="51.678570" lon="03.763193"><ele>6</ele><time>2021-01-07T10:30:22Z</time><cmt>5.0 kmh</cmt></trkpt>
<trkpt lat="51.678575" lon="03.763210"><ele>6</ele><time>2021-01-07T10:30:23Z</time><cmt>5.0 kmh</cmt></trkpt>
<trkpt lat="51.678579" lon="03.763226"><ele>5</ele><time>2021-01-07T10:30:24Z</time><cmt>5.0 kmh</cmt></trkpt>
<trkpt lat="51.678584" lon="03.763243"><ele>5</ele><time>2021-01-07T10:30:25Z</time><cmt>4.8 kmh</cmt></trkpt>
<trkpt lat="51.678590" lon="03.763259"><ele>5</ele><time>2021-01-07T10:30:26Z</time><cmt>5.0 kmh</cmt></trkpt>
<trkpt lat="51.678596" lon="03.763276"><ele>5</ele><time>2021-01-07T10:30:27Z</time><cmt>4.1 kmh</cmt></trkpt>
<trkpt lat="51.678602" lon="03.763293"><ele>5</ele><time>2021-01-07T10:30:28Z</time><cmt>4.2 kmh</cmt></trkpt>
<trkpt lat="51.678607" lon="03.763310"><ele>5</ele><time>2021-01-07T10:30:29Z</time><cmt>5.0 kmh</cmt></trkpt>
<trkpt lat="51.678612" lon="03.763326"><ele>5</ele><time>2021-01-07T10:30:30Z</time><cmt>4.8 kmh</cmt></trkpt>
<trkpt lat="51.678616" lon="03.763340"><ele>5</ele><time>2021-01-07T10:30:31Z</time><cmt>4.5 kmh</cmt></trkpt>
<trkpt lat="51.678622" lon="03.763356"><ele>5</ele><time>2021-01-07T10:30:32Z</time><cmt>4.6 kmh</cmt></trkpt>
<trkpt lat="51.678627" lon="03.763373"><ele>5</ele><time>2021-01-07T10:30:33Z</time><cmt>3.9 kmh</cmt></trkpt>
<trkpt lat="51.678633" lon="03.763389"><ele>4</ele><time>2021-01-07T10:30:34Z</time><cmt>4.1 kmh</cmt></trkpt>
<trkpt lat="51.678640" lon="03.763407"><ele>4</ele><time>2021-01-07T10:30:35Z</time><cmt>5.4 kmh</cmt></trkpt>
<trkpt lat="51.678646" lon="03.763425"><ele>4</ele><time>2021-01-07T10:30:36Z</time><cmt>5.4 kmh</cmt></trkpt>
<trkpt lat="51.678653" lon="03.763441"><ele>4</ele><time>2021-01-07T10:30:37Z</time><cmt>5.0 kmh</cmt></trkpt>
<trkpt lat="51.678658" lon="03.763458"><ele>4</ele><time>2021-01-07T10:30:38Z</time><cmt>5.0 kmh</cmt></trkpt>
<trkpt lat="51.678664" lon="03.763476"><ele>4</ele><time>2021-01-07T10:30:39Z</time><cmt>4.2 kmh</cmt></trkpt>
<trkpt lat="51.678670" lon="03.763493"><ele>4</ele><time>2021-01-07T10:30:40Z</time><cmt>4.1 kmh</cmt></trkpt>
<trkpt lat="51.678675" lon="03.763510"><ele>4</ele><time>2021-01-07T10:30:41Z</time><cmt>5.0 kmh</cmt></trkpt>
<trkpt lat="51.678679" lon="03.763526"><ele>3</ele><time>2021-01-07T10:30:42Z</time><cmt>4.9 kmh</cmt></trkpt>
<trkpt lat="51.678684" lon="03.763543"><ele>3</ele><time>2021-01-07T10:30:43Z</time><cmt>4.9 kmh</cmt></trkpt>
<trkpt lat="51.678689" lon="03.763560"><ele>3</ele><time>2021-01-07T10:30:44Z</time><cmt>5.0 kmh</cmt></trkpt>
<trkpt lat="51.678695" lon="03.763577"><ele>3</ele><time>2021-01-07T10:30:45Z</time><cmt>5.0 kmh</cmt></trkpt>
<trkpt lat="51.678700" lon="03.763592"><ele>3</ele><time>2021-01-07T10:30:46Z</time><cmt>3.9 kmh</cmt></trkpt>
<trkpt lat="51.678705" lon="03.763608"><ele>3</ele><time>2021-01-07T10:30:47Z</time><cmt>3.8 kmh</cmt></trkpt>
<trkpt lat="51.678711" lon="03.763624"><ele>3</ele><time>2021-01-07T10:30:48Z</time><cmt>5.0 kmh</cmt></trkpt>
<trkpt lat="51.678717" lon="03.763642"><ele>3</ele><time>2021-01-07T10:30:49Z</time><cmt>5.0 kmh</cmt></trkpt>
<trkpt lat="51.678723" lon="03.763659"><ele>3</ele><time>2021-01-07T10:30:50Z</time><cmt>5.0 kmh</cmt></trkpt>
<trkpt lat="51.678730" lon="03.763677"><ele>3</ele><time>2021-01-07T10:30:51Z</time><cmt>5.0 kmh</cmt></trkpt>
<trkpt lat="51.678735" lon="03.763696"><ele>3</ele><time>2021-01-07T10:30:52Z</time><cmt>5.5 kmh</cmt></trkpt>
<trkpt lat="51.678741" lon="03.763714"><ele>3</ele><time>2021-01-07T10:30:53Z</time><cmt>5.5 kmh</cmt></trkpt>
<trkpt lat="51.678746" lon="03.763732"><ele>3</ele><time>2021-01-07T10:30:54Z</time><cmt>5.0 kmh</cmt></trkpt>
<trkpt lat="51.678752" lon="03.763751"><ele>3</ele><time>2021-01-07T10:30:55Z</time><cmt>5.1 kmh</cmt></trkpt>
<trkpt lat="51.678757" lon="03.763769"><ele>3</ele><time>2021-01-07T10:30:56Z</time><cmt>5.0 kmh</cmt></trkpt>
<trkpt lat="51.678762" lon="03.763788"><ele>3</ele><time>2021-01-07T10:30:57Z</time><cmt>5.0 kmh</cmt></trkpt>
<trkpt lat="51.678763" lon="03.763802"><ele>3</ele><time>2021-01-07T10:30:58Z</time><cmt>3.7 kmh</cmt></trkpt>
<trkpt lat="51.678761" lon="03.763807"><ele>2</ele><time>2021-01-07T10:30:59Z</time><cmt>2.1 kmh</cmt></trkpt>
<trkpt lat="51.678760" lon="03.763808"><ele>2</ele><time>2021-01-07T10:31:00Z</time><cmt>1.0 kmh</cmt></trkpt>
<trkpt lat="51.678759" lon="03.763810"><ele>2</ele><time>2021-01-07T10:31:01Z</time><cmt>0.5 kmh</cmt></trkpt>
<trkpt lat="51.678759" lon="03.763812"><ele>2</ele><time>2021-01-07T10:31:02Z</time><cmt>0.3 kmh</cmt></trkpt>
<trkpt lat="51.678758" lon="03.763812"><ele>2</ele><time>2021-01-07T10:31:03Z</time><cmt>0.3 kmh</cmt></trkpt>
<trkpt lat="51.678757" lon="03.763812"><ele>1</ele><time>2021-01-07T10:31:04Z</time><cmt>0.5 kmh</cmt></trkpt>
<trkpt lat="51.678757" lon="03.763812"><ele>1</ele><time>2021-01-07T10:31:05Z</time><cmt>0.2 kmh</cmt></trkpt>
<trkpt lat="51.678757" lon="03.763812"><ele>1</ele><time>2021-01-07T10:31:06Z</time><cmt>0.0 kmh</cmt></trkpt>
<trkpt lat="51.678757" lon="03.763812"><ele>1</ele><time>2021-01-07T10:31:07Z</time><cmt>0.0 kmh</cmt></trkpt>
<trkpt lat="51.678756" lon="03.763816"><ele>1</ele><time>2021-01-07T10:31:08Z</time><cmt>0.3 kmh</cmt></trkpt>
<trkpt lat="51.678758" lon="03.763825"><ele>1</ele><time>2021-01-07T10:31:09Z</time><cmt>1.2 kmh</cmt></trkpt>
<trkpt lat="51.678760" lon="03.763836"><ele>1</ele><time>2021-01-07T10:31:10Z</time><cmt>2.8 kmh</cmt></trkpt>
<trkpt lat="51.678764" lon="03.763847"><ele>1</ele><time>2021-01-07T10:31:11Z</time><cmt>2.6 kmh</cmt></trkpt>
<trkpt lat="51.678769" lon="03.763859"><ele>1</ele><time>2021-01-07T10:31:12Z</time><cmt>2.9 kmh</cmt></trkpt>
<trkpt lat="51.678774" lon="03.763874"><ele>1</ele><time>2021-01-07T10:31:13Z</time><cmt>4.2 kmh</cmt></trkpt>
<trkpt lat="51.678779" lon="03.763889"><ele>1</ele><time>2021-01-07T10:31:14Z</time><cmt>4.5 kmh</cmt></trkpt>
<trkpt lat="51.678785" lon="03.763904"><ele>1</ele><time>2021-01-07T10:31:15Z</time><cmt>4.6 kmh</cmt></trkpt>
<trkpt lat="51.678790" lon="03.763918"><ele>1</ele><time>2021-01-07T10:31:16Z</time><cmt>4.6 kmh</cmt></trkpt>
<trkpt lat="51.678795" lon="03.763934"><ele>1</ele><time>2021-01-07T10:31:17Z</time><cmt>3.7 kmh</cmt></trkpt>
<trkpt lat="51.678800" lon="03.763950"><ele>1</ele><time>2021-01-07T10:31:18Z</time><cmt>3.8 kmh</cmt></trkpt>
<trkpt lat="51.678805" lon="03.763968"><ele>1</ele><time>2021-01-07T10:31:19Z</time><cmt>5.0 kmh</cmt></trkpt>
<trkpt lat="51.678810" lon="03.763984"><ele>1</ele><time>2021-01-07T10:31:20Z</time><cmt>5.0 kmh</cmt></trkpt>
<trkpt lat="51.678814" lon="03.763998"><ele>1</ele><time>2021-01-07T10:31:21Z</time><cmt>4.5 kmh</cmt></trkpt>
<trkpt lat="51.678818" lon="03.764012"><ele>1</ele><time>2021-01-07T10:31:22Z</time><cmt>4.2 kmh</cmt></trkpt>
<trkpt lat="51.678823" lon="03.764028"><ele>1</ele><time>2021-01-07T10:31:23Z</time><cmt>4.5 kmh</cmt></trkpt>
<trkpt lat="51.678828" lon="03.764043"><ele>1</ele><time>2021-01-07T10:31:24Z</time><cmt>3.7 kmh</cmt></trkpt>
<trkpt lat="51.678833" lon="03.764057"><ele>1</ele><time>2021-01-07T10:31:25Z</time><cmt>3.5 kmh</cmt></trkpt>
<trkpt lat="51.678838" lon="03.764070"><ele>1</ele><time>2021-01-07T10:31:26Z</time><cmt>4.1 kmh</cmt></trkpt>
<trkpt lat="51.678843" lon="03.764083"><ele>1</ele><time>2021-01-07T10:31:27Z</time><cmt>4.2 kmh</cmt></trkpt>
<trkpt lat="51.678848" lon="03.764098"><ele>1</ele><time>2021-01-07T10:31:28Z</time><cmt>4.5 kmh</cmt></trkpt>
<trkpt lat="51.678853" lon="03.764115"><ele>0</ele><time>2021-01-07T10:31:29Z</time><cmt>4.8 kmh</cmt></trkpt>
<trkpt lat="51.678859" lon="03.764131"><ele>0</ele><time>2021-01-07T10:31:30Z</time><cmt>4.0 kmh</cmt></trkpt>
<trkpt lat="51.678865" lon="03.764148"><ele>0</ele><time>2021-01-07T10:31:31Z</time><cmt>4.1 kmh</cmt></trkpt>
<trkpt lat="51.678870" lon="03.764165"><ele>0</ele><time>2021-01-07T10:31:32Z</time><cmt>5.0 kmh</cmt></trkpt>
<trkpt lat="51.678876" lon="03.764183"><ele>0</ele><time>2021-01-07T10:31:33Z</time><cmt>5.0 kmh</cmt></trkpt>
<trkpt lat="51.678881" lon="03.764200"><ele>0</ele><time>2021-01-07T10:31:34Z</time><cmt>5.0 kmh</cmt></trkpt>
<trkpt lat="51.678887" lon="03.764217"><ele>0</ele><time>2021-01-07T10:31:35Z</time><cmt>5.0 kmh</cmt></trkpt>
<trkpt lat="51.678892" lon="03.764233"><ele>0</ele><time>2021-01-07T10:31:36Z</time><cmt>4.0 kmh</cmt></trkpt>
<trkpt lat="51.678898" lon="03.764249"><ele>0</ele><time>2021-01-07T10:31:37Z</time><cmt>4.0 kmh</cmt></trkpt>
<trkpt lat="51.678904" lon="03.764266"><ele>0</ele><time>2021-01-07T10:31:38Z</time><cmt>5.0 kmh</cmt></trkpt>
<trkpt lat="51.678909" lon="03.764284"><ele>0</ele><time>2021-01-07T10:31:39Z</time><cmt>5.0 kmh</cmt></trkpt>
<trkpt lat="51.678916" lon="03.764301"><ele>0</ele><time>2021-01-07T10:31:40Z</time><cmt>5.0 kmh</cmt></trkpt>
<trkpt lat="51.678922" lon="03.764318"><ele>0</ele><time>2021-01-07T10:31:41Z</time><cmt>5.0 kmh</cmt></trkpt>
<trkpt lat="51.678929" lon="03.764335"><ele>0</ele><time>2021-01-07T10:31:42Z</time><cmt>5.3 kmh</cmt></trkpt>
<trkpt lat="51.678934" lon="03.764353"><ele>0</ele><time>2021-01-07T10:31:43Z</time><cmt>5.3 kmh</cmt></trkpt>
<trkpt lat="51.678940" lon="03.764370"><ele>0</ele><time>2021-01-07T10:31:44Z</time><cmt>4.2 kmh</cmt></trkpt>
<trkpt lat="51.678946" lon="03.764387"><ele>0</ele><time>2021-01-07T10:31:45Z</time><cmt>5.0 kmh</cmt></trkpt>
<trkpt lat="51.678951" lon="03.764405"><ele>0</ele><time>2021-01-07T10:31:46Z</time><cmt>5.0 kmh</cmt></trkpt>
<trkpt lat="51.678956" lon="03.764423"><ele>0</ele><time>2021-01-07T10:31:47Z</time><cmt>5.3 kmh</cmt></trkpt>
<trkpt lat="51.678961" lon="03.764443"><ele>0</ele><time>2021-01-07T10:31:48Z</time><cmt>5.2 kmh</cmt></trkpt>
<trkpt lat="51.678966" lon="03.764462"><ele>0</ele><time>2021-01-07T10:31:49Z</time><cmt>5.3 kmh</cmt></trkpt>
<trkpt lat="51.678971" lon="03.764480"><ele>0</ele><time>2021-01-07T10:31:50Z</time><cmt>5.1 kmh</cmt></trkpt>
<trkpt lat="51.678977" lon="03.764498"><ele>0</ele><time>2021-01-07T10:31:51Z</time><cmt>5.2 kmh</cmt></trkpt>
<trkpt lat="51.678983" lon="03.764517"><ele>0</ele><time>2021-01-07T10:31:52Z</time><cmt>5.1 kmh</cmt></trkpt>
<trkpt lat="51.678988" lon="03.764535"><ele>0</ele><time>2021-01-07T10:31:53Z</time><cmt>5.2 kmh</cmt></trkpt>
<trkpt lat="51.678994" lon="03.764554"><ele>0</ele><time>2021-01-07T10:31:54Z</time><cmt>5.4 kmh</cmt></trkpt>
<trkpt lat="51.679000" lon="03.764572"><ele>0</ele><time>2021-01-07T10:31:55Z</time><cmt>5.4 kmh</cmt></trkpt>
<trkpt lat="51.679006" lon="03.764588"><ele>0</ele><time>2021-01-07T10:31:56Z</time><cmt>4.3 kmh</cmt></trkpt>
<trkpt lat="51.679012" lon="03.764605"><ele>0</ele><time>2021-01-07T10:31:57Z</time><cmt>5.0 kmh</cmt></trkpt>
<trkpt lat="51.679018" lon="03.764622"><ele>0</ele><time>2021-01-07T10:31:58Z</time><cmt>5.1 kmh</cmt></trkpt>
<trkpt lat="51.679024" lon="03.764640"><ele>0</ele><time>2021-01-07T10:31:59Z</time><cmt>5.1 kmh</cmt></trkpt>
<trkpt lat="51.679029" lon="03.764657"><ele>0</ele><time>2021-01-07T10:32:00Z</time><cmt>5.0 kmh</cmt></trkpt>
<trkpt lat="51.679034" lon="03.764675"><ele>0</ele><time>2021-01-07T10:32:01Z</time><cmt>5.0 kmh</cmt></trkpt>
<trkpt lat="51.679040" lon="03.764693"><ele>0</ele><time>2021-01-07T10:32:02Z</time><cmt>5.6 kmh</cmt></trkpt>
<trkpt lat="51.679046" lon="03.764712"><ele>0</ele><time>2021-01-07T10:32:03Z</time><cmt>5.3 kmh</cmt></trkpt>
<trkpt lat="51.679053" lon="03.764731"><ele>1</ele><time>2021-01-07T10:32:04Z</time><cmt>5.1 kmh</cmt></trkpt>
<trkpt lat="51.679060" lon="03.764748"><ele>1</ele><time>2021-01-07T10:32:05Z</time><cmt>5.5 kmh</cmt></trkpt>
<trkpt lat="51.679068" lon="03.764767"><ele>1</ele><time>2021-01-07T10:32:06Z</time><cmt>5.5 kmh</cmt></trkpt>
<trkpt lat="51.679074" lon="03.764786"><ele>1</ele><time>2021-01-07T10:32:07Z</time><cmt>5.3 kmh</cmt></trkpt>
<trkpt lat="51.679080" lon="03.764806"><ele>1</ele><time>2021-01-07T10:32:08Z</time><cmt>5.1 kmh</cmt></trkpt>
<trkpt lat="51.679086" lon="03.764824"><ele>1</ele><time>2021-01-07T10:32:09Z</time><cmt>5.1 kmh</cmt></trkpt>
<trkpt lat="51.679091" lon="03.764842"><ele>1</ele><time>2021-01-07T10:32:10Z</time><cmt>5.0 kmh</cmt></trkpt>
<trkpt lat="51.679096" lon="03.764859"><ele>1</ele><time>2021-01-07T10:32:11Z</time><cmt>5.0 kmh</cmt></trkpt>
<trkpt lat="51.679101" lon="03.764876"><ele>1</ele><time>2021-01-07T10:32:12Z</time><cmt>5.0 kmh</cmt></trkpt>
<trkpt lat="51.679107" lon="03.764894"><ele>1</ele><time>2021-01-07T10:32:13Z</time><cmt>5.3 kmh</cmt></trkpt>
<trkpt lat="51.679112" lon="03.764912"><ele>1</ele><time>2021-01-07T10:32:14Z</time><cmt>5.3 kmh</cmt></trkpt>
<trkpt lat="51.679118" lon="03.764930"><ele>1</ele><time>2021-01-07T10:32:15Z</time><cmt>4.3 kmh</cmt></trkpt>
<trkpt lat="51.679124" lon="03.764948"><ele>1</ele><time>2021-01-07T10:32:16Z</time><cmt>5.5 kmh</cmt></trkpt>
<trkpt lat="51.679131" lon="03.764968"><ele>1</ele><time>2021-01-07T10:32:17Z</time><cmt>5.2 kmh</cmt></trkpt>
<trkpt lat="51.679137" lon="03.764987"><ele>1</ele><time>2021-01-07T10:32:18Z</time><cmt>5.2 kmh</cmt></trkpt>
<trkpt lat="51.679142" lon="03.765006"><ele>1</ele><time>2021-01-07T10:32:19Z</time><cmt>5.4 kmh</cmt></trkpt>
<trkpt lat="51.679148" lon="03.765024"><ele>1</ele><time>2021-01-07T10:32:20Z</time><cmt>5.0 kmh</cmt></trkpt>
<trkpt lat="51.679154" lon="03.765041"><ele>1</ele><time>2021-01-07T10:32:21Z</time><cmt>5.0 kmh</cmt></trkpt>
<trkpt lat="51.679159" lon="03.765058"><ele>1</ele><time>2021-01-07T10:32:22Z</time><cmt>4.0 kmh</cmt></trkpt>
<trkpt lat="51.679164" lon="03.765075"><ele>1</ele><time>2021-01-07T10:32:23Z</time><cmt>4.9 kmh</cmt></trkpt>
<trkpt lat="51.679168" lon="03.765087"><ele>1</ele><time>2021-01-07T10:32:24Z</time><cmt>4.4 kmh</cmt></trkpt>
<trkpt lat="51.679169" lon="03.765091"><ele>1</ele><time>2021-01-07T10:32:25Z</time><cmt>2.4 kmh</cmt></trkpt>
<trkpt lat="51.679171" lon="03.765097"><ele>1</ele><time>2021-01-07T10:32:26Z</time><cmt>1.5 kmh</cmt></trkpt>
<trkpt lat="51.679175" lon="03.765109"><ele>1</ele><time>2021-01-07T10:32:27Z</time><cmt>2.2 kmh</cmt></trkpt>
<trkpt lat="51.679179" lon="03.765124"><ele>1</ele><time>2021-01-07T10:32:28Z</time><cmt>3.3 kmh</cmt></trkpt>
<trkpt lat="51.679184" lon="03.765140"><ele>1</ele><time>2021-01-07T10:32:29Z</time><cmt>4.6 kmh</cmt></trkpt>
<trkpt lat="51.679188" lon="03.765156"><ele>1</ele><time>2021-01-07T10:32:30Z</time><cmt>4.7 kmh</cmt></trkpt>
<trkpt lat="51.679194" lon="03.765171"><ele>1</ele><time>2021-01-07T10:32:31Z</time><cmt>4.5 kmh</cmt></trkpt>
<trkpt lat="51.679199" lon="03.765185"><ele>1</ele><time>2021-01-07T10:32:32Z</time><cmt>4.4 kmh</cmt></trkpt>
<trkpt lat="51.679205" lon="03.765200"><ele>1</ele><time>2021-01-07T10:32:33Z</time><cmt>5.1 kmh</cmt></trkpt>
<trkpt lat="51.679210" lon="03.765217"><ele>1</ele><time>2021-01-07T10:32:34Z</time><cmt>5.2 kmh</cmt></trkpt>
<trkpt lat="51.679216" lon="03.765235"><ele>1</ele><time>2021-01-07T10:32:35Z</time><cmt>5.2 kmh</cmt></trkpt>
<trkpt lat="51.679221" lon="03.765253"><ele>1</ele><time>2021-01-07T10:32:36Z</time><cmt>5.2 kmh</cmt></trkpt>
<trkpt lat="51.679227" lon="03.765271"><ele>1</ele><time>2021-01-07T10:32:37Z</time><cmt>5.2 kmh</cmt></trkpt>
<trkpt lat="51.679233" lon="03.765290"><ele>1</ele><time>2021-01-07T10:32:38Z</time><cmt>5.1 kmh</cmt></trkpt>
<trkpt lat="51.679240" lon="03.765309"><ele>1</ele><time>2021-01-07T10:32:39Z</time><cmt>5.1 kmh</cmt></trkpt>
<trkpt lat="51.679247" lon="03.765327"><ele>1</ele><time>2021-01-07T10:32:40Z</time><cmt>5.5 kmh</cmt></trkpt>
<trkpt lat="51.679254" lon="03.765346"><ele>1</ele><time>2021-01-07T10:32:41Z</time><cmt>5.3 kmh</cmt></trkpt>
<trkpt lat="51.679260" lon="03.765363"><ele>1</ele><time>2021-01-07T10:32:42Z</time><cmt>5.3 kmh</cmt></trkpt>
<trkpt lat="51.679265" lon="03.765381"><ele>1</ele><time>2021-01-07T10:32:43Z</time><cmt>5.0 kmh</cmt></trkpt>
<trkpt lat="51.679271" lon="03.765399"><ele>1</ele><time>2021-01-07T10:32:44Z</time><cmt>5.4 kmh</cmt></trkpt>
<trkpt lat="51.679277" lon="03.765418"><ele>1</ele><time>2021-01-07T10:32:45Z</time><cmt>5.4 kmh</cmt></trkpt>
<trkpt lat="51.679283" lon="03.765435"><ele>1</ele><time>2021-01-07T10:32:46Z</time><cmt>5.3 kmh</cmt></trkpt>
<trkpt lat="51.679289" lon="03.765452"><ele>1</ele><time>2021-01-07T10:32:47Z</time><cmt>5.3 kmh</cmt></trkpt>
<trkpt lat="51.679294" lon="03.765470"><ele>1</ele><time>2021-01-07T10:32:48Z</time><cmt>5.0 kmh</cmt></trkpt>
<trkpt lat="51.679300" lon="03.765487"><ele>1</ele><time>2021-01-07T10:32:49Z</time><cmt>5.3 kmh</cmt></trkpt>
<trkpt lat="51.679306" lon="03.765504"><ele>1</ele><time>2021-01-07T10:32:50Z</time><cmt>5.0 kmh</cmt></trkpt>
<trkpt lat="51.679312" lon="03.765520"><ele>1</ele><time>2021-01-07T10:32:51Z</time><cmt>5.0 kmh</cmt></trkpt>
<trkpt lat="51.679314" lon="03.765535"><ele>1</ele><time>2021-01-07T10:32:52Z</time><cmt>3.6 kmh</cmt></trkpt>
<trkpt lat="51.679313" lon="03.765542"><ele>0</ele><time>2021-01-07T10:32:53Z</time><cmt>2.4 kmh</cmt></trkpt>
<trkpt lat="51.679312" lon="03.765543"><ele>0</ele><time>2021-01-07T10:32:54Z</time><cmt>1.3 kmh</cmt></trkpt>
<trkpt lat="51.679311" lon="03.765545"><ele>0</ele><time>2021-01-07T10:32:55Z</time><cmt>0.5 kmh</cmt></trkpt>
<trkpt lat="51.679311" lon="03.765553"><ele>0</ele><time>2021-01-07T10:32:56Z</time><cmt>1.2 kmh</cmt></trkpt>
<trkpt lat="51.679314" lon="03.765567"><ele>0</ele><time>2021-01-07T10:32:57Z</time><cmt>3.0 kmh</cmt></trkpt>
<trkpt lat="51.679319" lon="03.765581"><ele>0</ele><time>2021-01-07T10:32:58Z</time><cmt>4.3 kmh</cmt></trkpt>
<trkpt lat="51.679326" lon="03.765597"><ele>0</ele><time>2021-01-07T10:32:59Z</time><cmt>5.2 kmh</cmt></trkpt>
<trkpt lat="51.679333" lon="03.765616"><ele>0</ele><time>2021-01-07T10:33:00Z</time><cmt>5.3 kmh</cmt></trkpt>
<trkpt lat="51.679339" lon="03.765635"><ele>0</ele><time>2021-01-07T10:33:01Z</time><cmt>5.3 kmh</cmt></trkpt>
<trkpt lat="51.679346" lon="03.765651"><ele>0</ele><time>2021-01-07T10:33:02Z</time><cmt>5.0 kmh</cmt></trkpt>
<trkpt lat="51.679351" lon="03.765667"><ele>0</ele><time>2021-01-07T10:33:03Z</time><cmt>5.0 kmh</cmt></trkpt>
<trkpt lat="51.679357" lon="03.765682"><ele>0</ele><time>2021-01-07T10:33:04Z</time><cmt>4.8 kmh</cmt></trkpt>
<trkpt lat="51.679361" lon="03.765698"><ele>0</ele><time>2021-01-07T10:33:05Z</time><cmt>3.8 kmh</cmt></trkpt>
<trkpt lat="51.679367" lon="03.765715"><ele>0</ele><time>2021-01-07T10:33:06Z</time><cmt>5.0 kmh</cmt></trkpt>
<trkpt lat="51.679372" lon="03.765733"><ele>0</ele><time>2021-01-07T10:33:07Z</time><cmt>5.0 kmh</cmt></trkpt>
<trkpt lat="51.679378" lon="03.765751"><ele>0</ele><time>2021-01-07T10:33:08Z</time><cmt>5.0 kmh</cmt></trkpt>
<trkpt lat="51.679383" lon="03.765768"><ele>0</ele><time>2021-01-07T10:33:09Z</time><cmt>5.0 kmh</cmt></trkpt>
<trkpt lat="51.679389" lon="03.765785"><ele>0</ele><time>2021-01-07T10:33:10Z</time><cmt>5.0 kmh</cmt></trkpt>
<trkpt lat="51.679394" lon="03.765802"><ele>0</ele><time>2021-01-07T10:33:11Z</time><cmt>4.1 kmh</cmt></trkpt>
<trkpt lat="51.679401" lon="03.765818"><ele>0</ele><time>2021-01-07T10:33:12Z</time><cmt>5.1 kmh</cmt></trkpt>
<trkpt lat="51.679407" lon="03.765836"><ele>0</ele><time>2021-01-07T10:33:13Z</time><cmt>5.1 kmh</cmt></trkpt>
<trkpt lat="51.679413" lon="03.765853"><ele>0</ele><time>2021-01-07T10:33:14Z</time><cmt>5.1 kmh</cmt></trkpt>
<trkpt lat="51.679419" lon="03.765869"><ele>0</ele><time>2021-01-07T10:33:15Z</time><cmt>5.3 kmh</cmt></trkpt>
<trkpt lat="51.679425" lon="03.765884"><ele>0</ele><time>2021-01-07T10:33:16Z</time><cmt>5.2 kmh</cmt></trkpt>
<trkpt lat="51.679430" lon="03.765900"><ele>0</ele><time>2021-01-07T10:33:17Z</time><cmt>5.2 kmh</cmt></trkpt>
<trkpt lat="51.679436" lon="03.765916"><ele>0</ele><time>2021-01-07T10:33:18Z</time><cmt>3.9 kmh</cmt></trkpt>
<trkpt lat="51.679441" lon="03.765934"><ele>0</ele><time>2021-01-07T10:33:19Z</time><cmt>5.2 kmh</cmt></trkpt>
<trkpt lat="51.679446" lon="03.765952"><ele>0</ele><time>2021-01-07T10:33:20Z</time><cmt>5.2 kmh</cmt></trkpt>
<trkpt lat="51.679452" lon="03.765969"><ele>1</ele><time>2021-01-07T10:33:21Z</time><cmt>5.0 kmh</cmt></trkpt>
<trkpt lat="51.679458" lon="03.765987"><ele>1</ele><time>2021-01-07T10:33:22Z</time><cmt>5.0 kmh</cmt></trkpt>
<trkpt lat="51.679463" lon="03.766003"><ele>1</ele><time>2021-01-07T10:33:23Z</time><cmt>5.0 kmh</cmt></trkpt>
<trkpt lat="51.679468" lon="03.766021"><ele>1</ele><time>2021-01-07T10:33:24Z</time><cmt>5.1 kmh</cmt></trkpt>
<trkpt lat="51.679474" lon="03.766037"><ele>1</ele><time>2021-01-07T10:33:25Z</time><cmt>5.1 kmh</cmt></trkpt>
<trkpt lat="51.679480" lon="03.766053"><ele>1</ele><time>2021-01-07T10:33:26Z</time><cmt>5.0 kmh</cmt></trkpt>
<trkpt lat="51.679486" lon="03.766070"><ele>1</ele><time>2021-01-07T10:33:27Z</time><cmt>5.0 kmh</cmt></trkpt>
<trkpt lat="51.679493" lon="03.766088"><ele>1</ele><time>2021-01-07T10:33:28Z</time><cmt>5.2 kmh</cmt></trkpt>
<trkpt lat="51.679499" lon="03.766106"><ele>1</ele><time>2021-01-07T10:33:29Z</time><cmt>5.1 kmh</cmt></trkpt>
<trkpt lat="51.679505" lon="03.766123"><ele>1</ele><time>2021-01-07T10:33:30Z</time><cmt>5.1 kmh</cmt></trkpt>
<trkpt lat="51.679510" lon="03.766140"><ele>1</ele><time>2021-01-07T10:33:31Z</time><cmt>4.2 kmh</cmt></trkpt>
<trkpt lat="51.679516" lon="03.766159"><ele>1</ele><time>2021-01-07T10:33:32Z</time><cmt>5.1 kmh</cmt></trkpt>
<trkpt lat="51.679523" lon="03.766177"><ele>2</ele><time>2021-01-07T10:33:33Z</time><cmt>5.1 kmh</cmt></trkpt>
<trkpt lat="51.679530" lon="03.766194"><ele>2</ele><time>2021-01-07T10:33:34Z</time><cmt>5.1 kmh</cmt></trkpt>
<trkpt lat="51.679536" lon="03.766211"><ele>2</ele><time>2021-01-07T10:33:35Z</time><cmt>5.1 kmh</cmt></trkpt>
<trkpt lat="51.679541" lon="03.766228"><ele>2</ele><time>2021-01-07T10:33:36Z</time><cmt>5.0 kmh</cmt></trkpt>
<trkpt lat="51.679546" lon="03.766246"><ele>2</ele><time>2021-01-07T10:33:37Z</time><cmt>5.1 kmh</cmt></trkpt>
<trkpt lat="51.679551" lon="03.766264"><ele>2</ele><time>2021-01-07T10:33:38Z</time><cmt>5.1 kmh</cmt></trkpt>
<trkpt lat="51.679557" lon="03.766281"><ele>2</ele><time>2021-01-07T10:33:39Z</time><cmt>5.0 kmh</cmt></trkpt>
<trkpt lat="51.679562" lon="03.766297"><ele>2</ele><time>2021-01-07T10:33:40Z</time><cmt>5.0 kmh</cmt></trkpt>
<trkpt lat="51.679568" lon="03.766314"><ele>2</ele><time>2021-01-07T10:33:41Z</time><cmt>5.1 kmh</cmt></trkpt>
<trkpt lat="51.679575" lon="03.766331"><ele>2</ele><time>2021-01-07T10:33:42Z</time><cmt>5.4 kmh</cmt></trkpt>
<trkpt lat="51.679581" lon="03.766349"><ele>2</ele><time>2021-01-07T10:33:43Z</time><cmt>5.4 kmh</cmt></trkpt>
<trkpt lat="51.679587" lon="03.766366"><ele>2</ele><time>2021-01-07T10:33:44Z</time><cmt>4.3 kmh</cmt></trkpt>
<trkpt lat="51.679592" lon="03.766382"><ele>2</ele><time>2021-01-07T10:33:45Z</time><cmt>5.0 kmh</cmt></trkpt>
<trkpt lat="51.679597" lon="03.766399"><ele>2</ele><time>2021-01-07T10:33:46Z</time><cmt>5.2 kmh</cmt></trkpt>
<trkpt lat="51.679602" lon="03.766416"><ele>2</ele><time>2021-01-07T10:33:47Z</time><cmt>5.3 kmh</cmt></trkpt>
<trkpt lat="51.679608" lon="03.766433"><ele>2</ele><time>2021-01-07T10:33:48Z</time><cmt>5.2 kmh</cmt></trkpt>
<trkpt lat="51.679614" lon="03.766450"><ele>2</ele><time>2021-01-07T10:33:49Z</time><cmt>5.2 kmh</cmt></trkpt>
<trkpt lat="51.679619" lon="03.766466"><ele>2</ele><time>2021-01-07T10:33:50Z</time><cmt>3.9 kmh</cmt></trkpt>
<trkpt lat="51.679624" lon="03.766482"><ele>2</ele><time>2021-01-07T10:33:51Z</time><cmt>3.9 kmh</cmt></trkpt>
<trkpt lat="51.679630" lon="03.766499"><ele>2</ele><time>2021-01-07T10:33:52Z</time><cmt>5.3 kmh</cmt></trkpt>
<trkpt lat="51.679636" lon="03.766516"><ele>2</ele><time>2021-01-07T10:33:53Z</time><cmt>5.1 kmh</cmt></trkpt>
<trkpt lat="51.679642" lon="03.766532"><ele>2</ele><time>2021-01-07T10:33:54Z</time><cmt>5.0 kmh</cmt></trkpt>
<trkpt lat="51.679648" lon="03.766552"><ele>2</ele><time>2021-01-07T10:33:55Z</time><cmt>5.3 kmh</cmt></trkpt>
<trkpt lat="51.679653" lon="03.766571"><ele>2</ele><time>2021-01-07T10:33:56Z</time><cmt>5.1 kmh</cmt></trkpt>
<trkpt lat="51.679659" lon="03.766588"><ele>2</ele><time>2021-01-07T10:33:57Z</time><cmt>5.1 kmh</cmt></trkpt>
<trkpt lat="51.679665" lon="03.766605"><ele>2</ele><time>2021-01-07T10:33:58Z</time><cmt>5.2 kmh</cmt></trkpt>
<trkpt lat="51.679671" lon="03.766622"><ele>2</ele><time>2021-01-07T10:33:59Z</time><cmt>5.2 kmh</cmt></trkpt>
<trkpt lat="51.679677" lon="03.766638"><ele>2</ele><time>2021-01-07T10:34:00Z</time><cmt>5.0 kmh</cmt></trkpt>
<trkpt lat="51.679682" lon="03.766654"><ele>2</ele><time>2021-01-07T10:34:01Z</time><cmt>4.9 kmh</cmt></trkpt>
<trkpt lat="51.679683" lon="03.766672"><ele>2</ele><time>2021-01-07T10:34:02Z</time><cmt>5.6 kmh</cmt></trkpt>
<trkpt lat="51.679681" lon="03.766683"><ele>2</ele><time>2021-01-07T10:34:03Z</time><cmt>5.6 kmh</cmt></trkpt>
<trkpt lat="51.679678" lon="03.766685"><ele>2</ele><time>2021-01-07T10:34:04Z</time><cmt>2.3 kmh</cmt></trkpt>
<trkpt lat="51.679675" lon="03.766685"><ele>2</ele><time>2021-01-07T10:34:05Z</time><cmt>1.3 kmh</cmt></trkpt>
<trkpt lat="51.679676" lon="03.766687"><ele>2</ele><time>2021-01-07T10:34:06Z</time><cmt>0.8 kmh</cmt></trkpt>
<trkpt lat="51.679678" lon="03.766693"><ele>2</ele><time>2021-01-07T10:34:07Z</time><cmt>1.3 kmh</cmt></trkpt>
<trkpt lat="51.679683" lon="03.766705"><ele>1</ele><time>2021-01-07T10:34:08Z</time><cmt>2.9 kmh</cmt></trkpt>
<trkpt lat="51.679688" lon="03.766718"><ele>1</ele><time>2021-01-07T10:34:09Z</time><cmt>3.1 kmh</cmt></trkpt>
<trkpt lat="51.679692" lon="03.766733"><ele>1</ele><time>2021-01-07T10:34:10Z</time><cmt>3.4 kmh</cmt></trkpt>
<trkpt lat="51.679697" lon="03.766748"><ele>1</ele><time>2021-01-07T10:34:11Z</time><cmt>4.5 kmh</cmt></trkpt>
<trkpt lat="51.679702" lon="03.766764"><ele>1</ele><time>2021-01-07T10:34:12Z</time><cmt>4.7 kmh</cmt></trkpt>
<trkpt lat="51.679708" lon="03.766780"><ele>1</ele><time>2021-01-07T10:34:13Z</time><cmt>4.8 kmh</cmt></trkpt>
<trkpt lat="51.679713" lon="03.766796"><ele>1</ele><time>2021-01-07T10:34:14Z</time><cmt>5.0 kmh</cmt></trkpt>
<trkpt lat="51.679719" lon="03.766813"><ele>1</ele><time>2021-01-07T10:34:15Z</time><cmt>4.1 kmh</cmt></trkpt>
<trkpt lat="51.679725" lon="03.766828"><ele>1</ele><time>2021-01-07T10:34:16Z</time><cmt>4.0 kmh</cmt></trkpt>
<trkpt lat="51.679730" lon="03.766843"><ele>1</ele><time>2021-01-07T10:34:17Z</time><cmt>4.8 kmh</cmt></trkpt>
<trkpt lat="51.679736" lon="03.766859"><ele>1</ele><time>2021-01-07T10:34:18Z</time><cmt>4.7 kmh</cmt></trkpt>
<trkpt lat="51.679741" lon="03.766875"><ele>1</ele><time>2021-01-07T10:34:19Z</time><cmt>4.8 kmh</cmt></trkpt>
<trkpt lat="51.679747" lon="03.766892"><ele>1</ele><time>2021-01-07T10:34:20Z</time><cmt>5.2 kmh</cmt></trkpt>
<trkpt lat="51.679752" lon="03.766908"><ele>1</ele><time>2021-01-07T10:34:21Z</time><cmt>5.0 kmh</cmt></trkpt>
<trkpt lat="51.679757" lon="03.766923"><ele>1</ele><time>2021-01-07T10:34:22Z</time><cmt>5.0 kmh</cmt></trkpt>
<trkpt lat="51.679763" lon="03.766939"><ele>1</ele><time>2021-01-07T10:34:23Z</time><cmt>4.8 kmh</cmt></trkpt>
<trkpt lat="51.679769" lon="03.766955"><ele>1</ele><time>2021-01-07T10:34:24Z</time><cmt>4.9 kmh</cmt></trkpt>
<trkpt lat="51.679775" lon="03.766972"><ele>1</ele><time>2021-01-07T10:34:25Z</time><cmt>5.0 kmh</cmt></trkpt>
<trkpt lat="51.679780" lon="03.766990"><ele>1</ele><time>2021-01-07T10:34:26Z</time><cmt>5.0 kmh</cmt></trkpt>
<trkpt lat="51.679785" lon="03.767007"><ele>1</ele><time>2021-01-07T10:34:27Z</time><cmt>5.0 kmh</cmt></trkpt>
<trkpt lat="51.679790" lon="03.767024"><ele>1</ele><time>2021-01-07T10:34:28Z</time><cmt>5.0 kmh</cmt></trkpt>
<trkpt lat="51.679796" lon="03.767042"><ele>1</ele><time>2021-01-07T10:34:29Z</time><cmt>5.3 kmh</cmt></trkpt>
<trkpt lat="51.679802" lon="03.767059"><ele>1</ele><time>2021-01-07T10:34:30Z</time><cmt>5.0 kmh</cmt></trkpt>
<trkpt lat="51.679808" lon="03.767076"><ele>1</ele><time>2021-01-07T10:34:31Z</time><cmt>5.0 kmh</cmt></trkpt>
<trkpt lat="51.679813" lon="03.767093"><ele>1</ele><time>2021-01-07T10:34:32Z</time><cmt>5.0 kmh</cmt></trkpt>
<trkpt lat="51.679818" lon="03.767110"><ele>1</ele><time>2021-01-07T10:34:33Z</time><cmt>5.0 kmh</cmt></trkpt>
<trkpt lat="51.679824" lon="03.767127"><ele>1</ele><time>2021-01-07T10:34:34Z</time><cmt>4.1 kmh</cmt></trkpt>
<trkpt lat="51.679829" lon="03.767145"><ele>1</ele><time>2021-01-07T10:34:35Z</time><cmt>5.1 kmh</cmt></trkpt>
<trkpt lat="51.679834" lon="03.767162"><ele>1</ele><time>2021-01-07T10:34:36Z</time><cmt>5.1 kmh</cmt></trkpt>
<trkpt lat="51.679840" lon="03.767179"><ele>1</ele><time>2021-01-07T10:34:37Z</time><cmt>5.0 kmh</cmt></trkpt>
<trkpt lat="51.679845" lon="03.767196"><ele>1</ele><time>2021-01-07T10:34:38Z</time><cmt>5.0 kmh</cmt></trkpt>
<trkpt lat="51.679850" lon="03.767213"><ele>1</ele><time>2021-01-07T10:34:39Z</time><cmt>5.0 kmh</cmt></trkpt>
<trkpt lat="51.679855" lon="03.767230"><ele>1</ele><time>2021-01-07T10:34:40Z</time><cmt>5.0 kmh</cmt></trkpt>
<trkpt lat="51.679860" lon="03.767247"><ele>1</ele><time>2021-01-07T10:34:41Z</time><cmt>5.0 kmh</cmt></trkpt>
<trkpt lat="51.679865" lon="03.767263"><ele>1</ele><time>2021-01-07T10:34:42Z</time><cmt>4.9 kmh</cmt></trkpt>
<trkpt lat="51.679870" lon="03.767278"><ele>1</ele><time>2021-01-07T10:34:43Z</time><cmt>4.7 kmh</cmt></trkpt>
<trkpt lat="51.679875" lon="03.767294"><ele>1</ele><time>2021-01-07T10:34:44Z</time><cmt>4.6 kmh</cmt></trkpt>
<trkpt lat="51.679880" lon="03.767310"><ele>1</ele><time>2021-01-07T10:34:45Z</time><cmt>4.7 kmh</cmt></trkpt>
<trkpt lat="51.679885" lon="03.767325"><ele>1</ele><time>2021-01-07T10:34:46Z</time><cmt>4.8 kmh</cmt></trkpt>
<trkpt lat="51.679891" lon="03.767343"><ele>1</ele><time>2021-01-07T10:34:47Z</time><cmt>4.1 kmh</cmt></trkpt>
<trkpt lat="51.679897" lon="03.767361"><ele>1</ele><time>2021-01-07T10:34:48Z</time><cmt>5.3 kmh</cmt></trkpt>
<trkpt lat="51.679903" lon="03.767380"><ele>1</ele><time>2021-01-07T10:34:49Z</time><cmt>5.3 kmh</cmt></trkpt>
<trkpt lat="51.679909" lon="03.767396"><ele>1</ele><time>2021-01-07T10:34:50Z</time><cmt>5.0 kmh</cmt></trkpt>
<trkpt lat="51.679915" lon="03.767412"><ele>1</ele><time>2021-01-07T10:34:51Z</time><cmt>5.0 kmh</cmt></trkpt>
<trkpt lat="51.679920" lon="03.767428"><ele>1</ele><time>2021-01-07T10:34:52Z</time><cmt>4.8 kmh</cmt></trkpt>
<trkpt lat="51.679926" lon="03.767445"><ele>1</ele><time>2021-01-07T10:34:53Z</time><cmt>5.1 kmh</cmt></trkpt>
<trkpt lat="51.679932" lon="03.767462"><ele>1</ele><time>2021-01-07T10:34:54Z</time><cmt>5.1 kmh</cmt></trkpt>
<trkpt lat="51.679938" lon="03.767478"><ele>1</ele><time>2021-01-07T10:34:55Z</time><cmt>5.0 kmh</cmt></trkpt>
<trkpt lat="51.679943" lon="03.767494"><ele>1</ele><time>2021-01-07T10:34:56Z</time><cmt>5.1 kmh</cmt></trkpt>
<trkpt lat="51.679949" lon="03.767511"><ele>1</ele><time>2021-01-07T10:34:57Z</time><cmt>5.1 kmh</cmt></trkpt>
<trkpt lat="51.679955" lon="03.767527"><ele>1</ele><time>2021-01-07T10:34:58Z</time><cmt>5.0 kmh</cmt></trkpt>
<trkpt lat="51.679960" lon="03.767543"><ele>1</ele><time>2021-01-07T10:34:59Z</time><cmt>3.9 kmh</cmt></trkpt>
<trkpt lat="51.679966" lon="03.767560"><ele>1</ele><time>2021-01-07T10:35:00Z</time><cmt>5.1 kmh</cmt></trkpt>
<trkpt lat="51.679972" lon="03.767576"><ele>1</ele><time>2021-01-07T10:35:01Z</time><cmt>5.1 kmh</cmt></trkpt>
<trkpt lat="51.679978" lon="03.767592"><ele>1</ele><time>2021-01-07T10:35:02Z</time><cmt>5.0 kmh</cmt></trkpt>
<trkpt lat="51.679984" lon="03.767610"><ele>1</ele><time>2021-01-07T10:35:03Z</time><cmt>5.5 kmh</cmt></trkpt>
<trkpt lat="51.679990" lon="03.767628"><ele>1</ele><time>2021-01-07T10:35:04Z</time><cmt>5.0 kmh</cmt></trkpt>
<trkpt lat="51.679995" lon="03.767646"><ele>1</ele><time>2021-01-07T10:35:05Z</time><cmt>5.3 kmh</cmt></trkpt>
<trkpt lat="51.680001" lon="03.767664"><ele>1</ele><time>2021-01-07T10:35:06Z</time><cmt>5.1 kmh</cmt></trkpt>
<trkpt lat="51.680006" lon="03.767681"><ele>1</ele><time>2021-01-07T10:35:07Z</time><cmt>5.1 kmh</cmt></trkpt>
<trkpt lat="51.680011" lon="03.767697"><ele>1</ele><time>2021-01-07T10:35:08Z</time><cmt>4.9 kmh</cmt></trkpt>
<trkpt lat="51.680016" lon="03.767713"><ele>1</ele><time>2021-01-07T10:35:09Z</time><cmt>4.8 kmh</cmt></trkpt>
<trkpt lat="51.680022" lon="03.767729"><ele>1</ele><time>2021-01-07T10:35:10Z</time><cmt>4.9 kmh</cmt></trkpt>
<trkpt lat="51.680028" lon="03.767746"><ele>1</ele><time>2021-01-07T10:35:11Z</time><cmt>5.0 kmh</cmt></trkpt>
<trkpt lat="51.680033" lon="03.767763"><ele>1</ele><time>2021-01-07T10:35:12Z</time><cmt>5.3 kmh</cmt></trkpt>
<trkpt lat="51.680039" lon="03.767781"><ele>1</ele><time>2021-01-07T10:35:13Z</time><cmt>5.1 kmh</cmt></trkpt>
<trkpt lat="51.680045" lon="03.767798"><ele>1</ele><time>2021-01-07T10:35:14Z</time><cmt>5.1 kmh</cmt></trkpt>
<trkpt lat="51.680052" lon="03.767815"><ele>1</ele><time>2021-01-07T10:35:15Z</time><cmt>5.5 kmh</cmt></trkpt>
<trkpt lat="51.680059" lon="03.767833"><ele>1</ele><time>2021-01-07T10:35:16Z</time><cmt>5.0 kmh</cmt></trkpt>
<trkpt lat="51.680065" lon="03.767850"><ele>1</ele><time>2021-01-07T10:35:17Z</time><cmt>5.0 kmh</cmt></trkpt>
<trkpt lat="51.680072" lon="03.767867"><ele>1</ele><time>2021-01-07T10:35:18Z</time><cmt>5.0 kmh</cmt></trkpt>
<trkpt lat="51.680078" lon="03.767883"><ele>1</ele><time>2021-01-07T10:35:19Z</time><cmt>5.0 kmh</cmt></trkpt>
<trkpt lat="51.680083" lon="03.767900"><ele>1</ele><time>2021-01-07T10:35:20Z</time><cmt>4.0 kmh</cmt></trkpt>
<trkpt lat="51.680089" lon="03.767916"><ele>1</ele><time>2021-01-07T10:35:21Z</time><cmt>5.0 kmh</cmt></trkpt>
<trkpt lat="51.680093" lon="03.767930"><ele>1</ele><time>2021-01-07T10:35:22Z</time><cmt>4.6 kmh</cmt></trkpt>
<trkpt lat="51.680097" lon="03.767942"><ele>1</ele><time>2021-01-07T10:35:23Z</time><cmt>3.8 kmh</cmt></trkpt>
<trkpt lat="51.680097" lon="03.767947"><ele>1</ele><time>2021-01-07T10:35:24Z</time><cmt>2.4 kmh</cmt></trkpt>
<trkpt lat="51.680096" lon="03.767952"><ele>1</ele><time>2021-01-07T10:35:25Z</time><cmt>1.1 kmh</cmt></trkpt>
<trkpt lat="51.680098" lon="03.767957"><ele>1</ele><time>2021-01-07T10:35:26Z</time><cmt>1.2 kmh</cmt></trkpt>
<trkpt lat="51.680103" lon="03.767967"><ele>1</ele><time>2021-01-07T10:35:27Z</time><cmt>2.5 kmh</cmt></trkpt>
<trkpt lat="51.680109" lon="03.767981"><ele>1</ele><time>2021-01-07T10:35:28Z</time><cmt>3.9 kmh</cmt></trkpt>
<trkpt lat="51.680115" lon="03.767996"><ele>1</ele><time>2021-01-07T10:35:29Z</time><cmt>4.7 kmh</cmt></trkpt>
<trkpt lat="51.680121" lon="03.768012"><ele>1</ele><time>2021-01-07T10:35:30Z</time><cmt>4.9 kmh</cmt></trkpt>
<trkpt lat="51.680126" lon="03.768029"><ele>1</ele><time>2021-01-07T10:35:31Z</time><cmt>4.0 kmh</cmt></trkpt>
<trkpt lat="51.680131" lon="03.768045"><ele>1</ele><time>2021-01-07T10:35:32Z</time><cmt>3.9 kmh</cmt></trkpt>
<trkpt lat="51.680136" lon="03.768061"><ele>1</ele><time>2021-01-07T10:35:33Z</time><cmt>4.8 kmh</cmt></trkpt>
<trkpt lat="51.680142" lon="03.768076"><ele>1</ele><time>2021-01-07T10:35:34Z</time><cmt>4.8 kmh</cmt></trkpt>
<trkpt lat="51.680147" lon="03.768092"><ele>1</ele><time>2021-01-07T10:35:35Z</time><cmt>4.7 kmh</cmt></trkpt>
<trkpt lat="51.680152" lon="03.768109"><ele>1</ele><time>2021-01-07T10:35:36Z</time><cmt>4.9 kmh</cmt></trkpt>
<trkpt lat="51.680157" lon="03.768125"><ele>1</ele><time>2021-01-07T10:35:37Z</time><cmt>4.9 kmh</cmt></trkpt>
<trkpt lat="51.680161" lon="03.768142"><ele>0</ele><time>2021-01-07T10:35:38Z</time><cmt>3.9 kmh</cmt></trkpt>
<trkpt lat="51.680166" lon="03.768160"><ele>0</ele><time>2021-01-07T10:35:39Z</time><cmt>4.1 kmh</cmt></trkpt>
<trkpt lat="51.680171" lon="03.768178"><ele>0</ele><time>2021-01-07T10:35:40Z</time><cmt>5.0 kmh</cmt></trkpt>
<trkpt lat="51.680177" lon="03.768195"><ele>0</ele><time>2021-01-07T10:35:41Z</time><cmt>5.0 kmh</cmt></trkpt>
<trkpt lat="51.680182" lon="03.768212"><ele>0</ele><time>2021-01-07T10:35:42Z</time><cmt>5.0 kmh</cmt></trkpt>
<trkpt lat="51.680188" lon="03.768228"><ele>0</ele><time>2021-01-07T10:35:43Z</time><cmt>5.0 kmh</cmt></trkpt>
<trkpt lat="51.680192" lon="03.768243"><ele>0</ele><time>2021-01-07T10:35:44Z</time><cmt>3.8 kmh</cmt></trkpt>
<trkpt lat="51.680198" lon="03.768258"><ele>0</ele><time>2021-01-07T10:35:45Z</time><cmt>3.6 kmh</cmt></trkpt>
<trkpt lat="51.680202" lon="03.768271"><ele>0</ele><time>2021-01-07T10:35:46Z</time><cmt>4.2 kmh</cmt></trkpt>
<trkpt lat="51.680207" lon="03.768285"><ele>0</ele><time>2021-01-07T10:35:47Z</time><cmt>4.1 kmh</cmt></trkpt>
<trkpt lat="51.680211" lon="03.768299"><ele>0</ele><time>2021-01-07T10:35:48Z</time><cmt>4.2 kmh</cmt></trkpt>
<trkpt lat="51.680214" lon="03.768308"><ele>0</ele><time>2021-01-07T10:35:49Z</time><cmt>3.5 kmh</cmt></trkpt>
<trkpt lat="51.680212" lon="03.768312"><ele>0</ele><time>2021-01-07T10:35:50Z</time><cmt>1.7 kmh</cmt></trkpt>
<trkpt lat="51.680211" lon="03.768315"><ele>0</ele><time>2021-01-07T10:35:51Z</time><cmt>0.9 kmh</cmt></trkpt>
<trkpt lat="51.680210" lon="03.768316"><ele>0</ele><time>2021-01-07T10:35:52Z</time><cmt>0.5 kmh</cmt></trkpt>
<trkpt lat="51.680210" lon="03.768316"><ele>0</ele><time>2021-01-07T10:35:53Z</time><cmt>0.0 kmh</cmt></trkpt>
<trkpt lat="51.680210" lon="03.768318"><ele>0</ele><time>2021-01-07T10:35:54Z</time><cmt>0.2 kmh</cmt></trkpt>
<trkpt lat="51.680213" lon="03.768320"><ele>0</ele><time>2021-01-07T10:35:55Z</time><cmt>0.9 kmh</cmt></trkpt>
<trkpt lat="51.680216" lon="03.768322"><ele>0</ele><time>2021-01-07T10:35:56Z</time><cmt>1.4 kmh</cmt></trkpt>
<trkpt lat="51.680217" lon="03.768323"><ele>0</ele><time>2021-01-07T10:35:57Z</time><cmt>0.7 kmh</cmt></trkpt>
<trkpt lat="51.680217" lon="03.768323"><ele>0</ele><time>2021-01-07T10:35:58Z</time><cmt>0.2 kmh</cmt></trkpt>
<trkpt lat="51.680216" lon="03.768322"><ele>0</ele><time>2021-01-07T10:35:59Z</time><cmt>0.3 kmh</cmt></trkpt>
<trkpt lat="51.680214" lon="03.768321"><ele>0</ele><time>2021-01-07T10:36:00Z</time><cmt>0.6 kmh</cmt></trkpt>
<trkpt lat="51.680214" lon="03.768322"><ele>0</ele><time>2021-01-07T10:36:01Z</time><cmt>0.4 kmh</cmt></trkpt>
<trkpt lat="51.680216" lon="03.768322"><ele>0</ele><time>2021-01-07T10:36:02Z</time><cmt>0.4 kmh</cmt></trkpt>
<trkpt lat="51.680218" lon="03.768324"><ele>0</ele><time>2021-01-07T10:36:03Z</time><cmt>0.7 kmh</cmt></trkpt>
<trkpt lat="51.680221" lon="03.768330"><ele>0</ele><time>2021-01-07T10:36:04Z</time><cmt>1.2 kmh</cmt></trkpt>
<trkpt lat="51.680223" lon="03.768338"><ele>0</ele><time>2021-01-07T10:36:05Z</time><cmt>2.1 kmh</cmt></trkpt>
<trkpt lat="51.680225" lon="03.768346"><ele>0</ele><time>2021-01-07T10:36:06Z</time><cmt>2.3 kmh</cmt></trkpt>
<trkpt lat="51.680226" lon="03.768349"><ele>1</ele><time>2021-01-07T10:36:07Z</time><cmt>1.6 kmh</cmt></trkpt>
<trkpt lat="51.680227" lon="03.768350"><ele>1</ele><time>2021-01-07T10:36:08Z</time><cmt>0.7 kmh</cmt></trkpt>
<trkpt lat="51.680228" lon="03.768351"><ele>1</ele><time>2021-01-07T10:36:09Z</time><cmt>0.2 kmh</cmt></trkpt>
<trkpt lat="51.680229" lon="03.768351"><ele>1</ele><time>2021-01-07T10:36:10Z</time><cmt>0.2 kmh</cmt></trkpt>
<trkpt lat="51.680231" lon="03.768351"><ele>1</ele><time>2021-01-07T10:36:11Z</time><cmt>0.5 kmh</cmt></trkpt>
<trkpt lat="51.680234" lon="03.768356"><ele>1</ele><time>2021-01-07T10:36:12Z</time><cmt>1.2 kmh</cmt></trkpt>
<trkpt lat="51.680239" lon="03.768368"><ele>1</ele><time>2021-01-07T10:36:13Z</time><cmt>2.8 kmh</cmt></trkpt>
<trkpt lat="51.680243" lon="03.768383"><ele>1</ele><time>2021-01-07T10:36:14Z</time><cmt>4.1 kmh</cmt></trkpt>
<trkpt lat="51.680248" lon="03.768399"><ele>1</ele><time>2021-01-07T10:36:15Z</time><cmt>4.6 kmh</cmt></trkpt>
<trkpt lat="51.680253" lon="03.768415"><ele>2</ele><time>2021-01-07T10:36:16Z</time><cmt>5.5 kmh</cmt></trkpt>
<trkpt lat="51.680259" lon="03.768431"><ele>2</ele><time>2021-01-07T10:36:17Z</time><cmt>5.5 kmh</cmt></trkpt>
<trkpt lat="51.680265" lon="03.768445"><ele>2</ele><time>2021-01-07T10:36:18Z</time><cmt>4.8 kmh</cmt></trkpt>
<trkpt lat="51.680270" lon="03.768459"><ele>2</ele><time>2021-01-07T10:36:19Z</time><cmt>4.5 kmh</cmt></trkpt>
<trkpt lat="51.680275" lon="03.768473"><ele>2</ele><time>2021-01-07T10:36:20Z</time><cmt>4.4 kmh</cmt></trkpt>
<trkpt lat="51.680281" lon="03.768488"><ele>2</ele><time>2021-01-07T10:36:21Z</time><cmt>5.0 kmh</cmt></trkpt>
<trkpt lat="51.680287" lon="03.768504"><ele>2</ele><time>2021-01-07T10:36:22Z</time><cmt>5.0 kmh</cmt></trkpt>
<trkpt lat="51.680291" lon="03.768519"><ele>2</ele><time>2021-01-07T10:36:23Z</time><cmt>3.7 kmh</cmt></trkpt>
<trkpt lat="51.680296" lon="03.768536"><ele>2</ele><time>2021-01-07T10:36:24Z</time><cmt>4.6 kmh</cmt></trkpt>
<trkpt lat="51.680297" lon="03.768552"><ele>1</ele><time>2021-01-07T10:36:25Z</time><cmt>4.6 kmh</cmt></trkpt>
<trkpt lat="51.680298" lon="03.768569"><ele>1</ele><time>2021-01-07T10:36:26Z</time><cmt>5.3 kmh</cmt></trkpt>
<trkpt lat="51.680302" lon="03.768586"><ele>1</ele><time>2021-01-07T10:36:27Z</time><cmt>5.3 kmh</cmt></trkpt>
<trkpt lat="51.680307" lon="03.768604"><ele>1</ele><time>2021-01-07T10:36:28Z</time><cmt>4.1 kmh</cmt></trkpt>
<trkpt lat="51.680313" lon="03.768622"><ele>1</ele><time>2021-01-07T10:36:29Z</time><cmt>5.1 kmh</cmt></trkpt>
<trkpt lat="51.680319" lon="03.768640"><ele>1</ele><time>2021-01-07T10:36:30Z</time><cmt>5.0 kmh</cmt></trkpt>
<trkpt lat="51.680326" lon="03.768658"><ele>1</ele><time>2021-01-07T10:36:31Z</time><cmt>5.0 kmh</cmt></trkpt>
<trkpt lat="51.680332" lon="03.768675"><ele>1</ele><time>2021-01-07T10:36:32Z</time><cmt>5.0 kmh</cmt></trkpt>
<trkpt lat="51.680339" lon="03.768691"><ele>1</ele><time>2021-01-07T10:36:33Z</time><cmt>5.0 kmh</cmt></trkpt>
<trkpt lat="51.680345" lon="03.768708"><ele>1</ele><time>2021-01-07T10:36:34Z</time><cmt>5.0 kmh</cmt></trkpt>
<trkpt lat="51.680351" lon="03.768725"><ele>1</ele><time>2021-01-07T10:36:35Z</time><cmt>4.2 kmh</cmt></trkpt>
<trkpt lat="51.680356" lon="03.768741"><ele>1</ele><time>2021-01-07T10:36:36Z</time><cmt>3.9 kmh</cmt></trkpt>
<trkpt lat="51.680360" lon="03.768756"><ele>1</ele><time>2021-01-07T10:36:37Z</time><cmt>4.6 kmh</cmt></trkpt>
<trkpt lat="51.680366" lon="03.768772"><ele>1</ele><time>2021-01-07T10:36:38Z</time><cmt>5.3 kmh</cmt></trkpt>
<trkpt lat="51.680372" lon="03.768789"><ele>1</ele><time>2021-01-07T10:36:39Z</time><cmt>5.3 kmh</cmt></trkpt>
<trkpt lat="51.680377" lon="03.768805"><ele>1</ele><time>2021-01-07T10:36:40Z</time><cmt>5.0 kmh</cmt></trkpt>
<trkpt lat="51.680380" lon="03.768823"><ele>1</ele><time>2021-01-07T10:36:41Z</time><cmt>5.0 kmh</cmt></trkpt>
<trkpt lat="51.680386" lon="03.768839"><ele>1</ele><time>2021-01-07T10:36:42Z</time><cmt>3.9 kmh</cmt></trkpt>
<trkpt lat="51.680392" lon="03.768856"><ele>1</ele><time>2021-01-07T10:36:43Z</time><cmt>5.1 kmh</cmt></trkpt>
<trkpt lat="51.680399" lon="03.768872"><ele>1</ele><time>2021-01-07T10:36:44Z</time><cmt>5.1 kmh</cmt></trkpt>
<trkpt lat="51.680406" lon="03.768888"><ele>1</ele><time>2021-01-07T10:36:45Z</time><cmt>5.1 kmh</cmt></trkpt>
<trkpt lat="51.680409" lon="03.768906"><ele>1</ele><time>2021-01-07T10:36:46Z</time><cmt>5.0 kmh</cmt></trkpt>
<trkpt lat="51.680414" lon="03.768924"><ele>1</ele><time>2021-01-07T10:36:47Z</time><cmt>5.3 kmh</cmt></trkpt>
<trkpt lat="51.680421" lon="03.768941"><ele>1</ele><time>2021-01-07T10:36:48Z</time><cmt>5.4 kmh</cmt></trkpt>
<trkpt lat="51.680427" lon="03.768958"><ele>1</ele><time>2021-01-07T10:36:49Z</time><cmt>5.4 kmh</cmt></trkpt>
<trkpt lat="51.680433" lon="03.768975"><ele>1</ele><time>2021-01-07T10:36:50Z</time><cmt>5.0 kmh</cmt></trkpt>
<trkpt lat="51.680439" lon="03.768992"><ele>1</ele><time>2021-01-07T10:36:51Z</time><cmt>5.0 kmh</cmt></trkpt>
<trkpt lat="51.680445" lon="03.769010"><ele>1</ele><time>2021-01-07T10:36:52Z</time><cmt>5.1 kmh</cmt></trkpt>
<trkpt lat="51.680450" lon="03.769027"><ele>1</ele><time>2021-01-07T10:36:53Z</time><cmt>5.1 kmh</cmt></trkpt>
<trkpt lat="51.680456" lon="03.769045"><ele>1</ele><time>2021-01-07T10:36:54Z</time><cmt>4.2 kmh</cmt></trkpt>
<trkpt lat="51.680463" lon="03.769063"><ele>1</ele><time>2021-01-07T10:36:55Z</time><cmt>5.2 kmh</cmt></trkpt>
<trkpt lat="51.680469" lon="03.769080"><ele>1</ele><time>2021-01-07T10:36:56Z</time><cmt>5.2 kmh</cmt></trkpt>
<trkpt lat="51.680475" lon="03.769098"><ele>1</ele><time>2021-01-07T10:36:57Z</time><cmt>5.0 kmh</cmt></trkpt>
<trkpt lat="51.680480" lon="03.769115"><ele>1</ele><time>2021-01-07T10:36:58Z</time><cmt>5.0 kmh</cmt></trkpt>
<trkpt lat="51.680486" lon="03.769132"><ele>1</ele><time>2021-01-07T10:36:59Z</time><cmt>5.0 kmh</cmt></trkpt>
<trkpt lat="51.680492" lon="03.769148"><ele>1</ele><time>2021-01-07T10:37:00Z</time><cmt>4.1 kmh</cmt></trkpt>
<trkpt lat="51.680500" lon="03.769166"><ele>1</ele><time>2021-01-07T10:37:01Z</time><cmt>5.4 kmh</cmt></trkpt>
<trkpt lat="51.680507" lon="03.769184"><ele>1</ele><time>2021-01-07T10:37:02Z</time><cmt>5.0 kmh</cmt></trkpt>
<trkpt lat="51.680513" lon="03.769201"><ele>1</ele><time>2021-01-07T10:37:03Z</time><cmt>5.0 kmh</cmt></trkpt>
<trkpt lat="51.680519" lon="03.769217"><ele>1</ele><time>2021-01-07T10:37:04Z</time><cmt>5.0 kmh</cmt></trkpt>
<trkpt lat="51.680526" lon="03.769233"><ele>1</ele><time>2021-01-07T10:37:05Z</time><cmt>5.1 kmh</cmt></trkpt>
<trkpt lat="51.680533" lon="03.769248"><ele>1</ele><time>2021-01-07T10:37:06Z</time><cmt>5.1 kmh</cmt></trkpt>
<trkpt lat="51.680539" lon="03.769264"><ele>1</ele><time>2021-01-07T10:37:07Z</time><cmt>4.1 kmh</cmt></trkpt>
<trkpt lat="51.680545" lon="03.769279"><ele>1</ele><time>2021-01-07T10:37:08Z</time><cmt>3.9 kmh</cmt></trkpt>
<trkpt lat="51.680551" lon="03.769295"><ele>1</ele><time>2021-01-07T10:37:09Z</time><cmt>4.9 kmh</cmt></trkpt>
<trkpt lat="51.680556" lon="03.769312"><ele>1</ele><time>2021-01-07T10:37:10Z</time><cmt>5.0 kmh</cmt></trkpt>
<trkpt lat="51.680562" lon="03.769329"><ele>1</ele><time>2021-01-07T10:37:11Z</time><cmt>5.0 kmh</cmt></trkpt>
<trkpt lat="51.680568" lon="03.769345"><ele>1</ele><time>2021-01-07T10:37:12Z</time><cmt>5.0 kmh</cmt></trkpt>
<trkpt lat="51.680575" lon="03.769361"><ele>1</ele><time>2021-01-07T10:37:13Z</time><cmt>5.0 kmh</cmt></trkpt>
<trkpt lat="51.680581" lon="03.769377"><ele>1</ele><time>2021-01-07T10:37:14Z</time><cmt>4.1 kmh</cmt></trkpt>
<trkpt lat="51.680588" lon="03.769392"><ele>1</ele><time>2021-01-07T10:37:15Z</time><cmt>5.0 kmh</cmt></trkpt>
<trkpt lat="51.680595" lon="03.769409"><ele>1</ele><time>2021-01-07T10:37:16Z</time><cmt>5.1 kmh</cmt></trkpt>
<trkpt lat="51.680601" lon="03.769425"><ele>1</ele><time>2021-01-07T10:37:17Z</time><cmt>5.7 kmh</cmt></trkpt>
<trkpt lat="51.680608" lon="03.769443"><ele>1</ele><time>2021-01-07T10:37:18Z</time><cmt>5.3 kmh</cmt></trkpt>
<trkpt lat="51.680613" lon="03.769460"><ele>1</ele><time>2021-01-07T10:37:19Z</time><cmt>5.3 kmh</cmt></trkpt>
<trkpt lat="51.680618" lon="03.769474"><ele>1</ele><time>2021-01-07T10:37:20Z</time><cmt>3.8 kmh</cmt></trkpt>
<trkpt lat="51.680622" lon="03.769487"><ele>1</ele><time>2021-01-07T10:37:21Z</time><cmt>4.1 kmh</cmt></trkpt>
<trkpt lat="51.680627" lon="03.769501"><ele>1</ele><time>2021-01-07T10:37:22Z</time><cmt>4.2 kmh</cmt></trkpt>
<trkpt lat="51.680633" lon="03.769515"><ele>1</ele><time>2021-01-07T10:37:23Z</time><cmt>4.5 kmh</cmt></trkpt>
<trkpt lat="51.680637" lon="03.769530"><ele>1</ele><time>2021-01-07T10:37:24Z</time><cmt>4.5 kmh</cmt></trkpt>
<trkpt lat="51.680643" lon="03.769545"><ele>1</ele><time>2021-01-07T10:37:25Z</time><cmt>4.5 kmh</cmt></trkpt>
<trkpt lat="51.680651" lon="03.769563"><ele>1</ele><time>2021-01-07T10:37:26Z</time><cmt>4.3 kmh</cmt></trkpt>
<trkpt lat="51.680659" lon="03.769579"><ele>1</ele><time>2021-01-07T10:37:27Z</time><cmt>5.2 kmh</cmt></trkpt>
<trkpt lat="51.680666" lon="03.769595"><ele>1</ele><time>2021-01-07T10:37:28Z</time><cmt>5.2 kmh</cmt></trkpt>
<trkpt lat="51.680672" lon="03.769611"><ele>1</ele><time>2021-01-07T10:37:29Z</time><cmt>5.0 kmh</cmt></trkpt>
<trkpt lat="51.680679" lon="03.769626"><ele>1</ele><time>2021-01-07T10:37:30Z</time><cmt>4.9 kmh</cmt></trkpt>
<trkpt lat="51.680685" lon="03.769641"><ele>1</ele><time>2021-01-07T10:37:31Z</time><cmt>4.8 kmh</cmt></trkpt>
<trkpt lat="51.680692" lon="03.769656"><ele>1</ele><time>2021-01-07T10:37:32Z</time><cmt>3.9 kmh</cmt></trkpt>
<trkpt lat="51.680698" lon="03.769672"><ele>1</ele><time>2021-01-07T10:37:33Z</time><cmt>4.1 kmh</cmt></trkpt>
<trkpt lat="51.680705" lon="03.769688"><ele>1</ele><time>2021-01-07T10:37:34Z</time><cmt>5.2 kmh</cmt></trkpt>
<trkpt lat="51.680711" lon="03.769705"><ele>1</ele><time>2021-01-07T10:37:35Z</time><cmt>5.0 kmh</cmt></trkpt>
<trkpt lat="51.680718" lon="03.769722"><ele>1</ele><time>2021-01-07T10:37:36Z</time><cmt>5.2 kmh</cmt></trkpt>
<trkpt lat="51.680725" lon="03.769739"><ele>1</ele><time>2021-01-07T10:37:37Z</time><cmt>5.2 kmh</cmt></trkpt>
<trkpt lat="51.680731" lon="03.769754"><ele>1</ele><time>2021-01-07T10:37:38Z</time><cmt>4.1 kmh</cmt></trkpt>
<trkpt lat="51.680737" lon="03.769770"><ele>1</ele><time>2021-01-07T10:37:39Z</time><cmt>5.0 kmh</cmt></trkpt>
<trkpt lat="51.680745" lon="03.769785"><ele>1</ele><time>2021-01-07T10:37:40Z</time><cmt>5.0 kmh</cmt></trkpt>
<trkpt lat="51.680753" lon="03.769800"><ele>1</ele><time>2021-01-07T10:37:41Z</time><cmt>5.0 kmh</cmt></trkpt>
<trkpt lat="51.680759" lon="03.769815"><ele>1</ele><time>2021-01-07T10:37:42Z</time><cmt>5.0 kmh</cmt></trkpt>
<trkpt lat="51.680766" lon="03.769831"><ele>1</ele><time>2021-01-07T10:37:43Z</time><cmt>5.1 kmh</cmt></trkpt>
<trkpt lat="51.680772" lon="03.769848"><ele>1</ele><time>2021-01-07T10:37:44Z</time><cmt>5.1 kmh</cmt></trkpt>
<trkpt lat="51.680780" lon="03.769864"><ele>2</ele><time>2021-01-07T10:37:45Z</time><cmt>4.3 kmh</cmt></trkpt>
<trkpt lat="51.680787" lon="03.769880"><ele>2</ele><time>2021-01-07T10:37:46Z</time><cmt>4.3 kmh</cmt></trkpt>
<trkpt lat="51.680794" lon="03.769896"><ele>2</ele><time>2021-01-07T10:37:47Z</time><cmt>5.1 kmh</cmt></trkpt>
<trkpt lat="51.680801" lon="03.769912"><ele>2</ele><time>2021-01-07T10:37:48Z</time><cmt>5.1 kmh</cmt></trkpt>
<trkpt lat="51.680807" lon="03.769929"><ele>2</ele><time>2021-01-07T10:37:49Z</time><cmt>5.0 kmh</cmt></trkpt>
<trkpt lat="51.680814" lon="03.769945"><ele>2</ele><time>2021-01-07T10:37:50Z</time><cmt>5.0 kmh</cmt></trkpt>
<trkpt lat="51.680820" lon="03.769961"><ele>2</ele><time>2021-01-07T10:37:51Z</time><cmt>4.1 kmh</cmt></trkpt>
<trkpt lat="51.680827" lon="03.769976"><ele>2</ele><time>2021-01-07T10:37:52Z</time><cmt>4.1 kmh</cmt></trkpt>
<trkpt lat="51.680835" lon="03.769992"><ele>2</ele><time>2021-01-07T10:37:53Z</time><cmt>5.0 kmh</cmt></trkpt>
<trkpt lat="51.680842" lon="03.770008"><ele>2</ele><time>2021-01-07T10:37:54Z</time><cmt>5.0 kmh</cmt></trkpt>
<trkpt lat="51.680849" lon="03.770024"><ele>2</ele><time>2021-01-07T10:37:55Z</time><cmt>5.0 kmh</cmt></trkpt>
<trkpt lat="51.680856" lon="03.770040"><ele>2</ele><time>2021-01-07T10:37:56Z</time><cmt>5.0 kmh</cmt></trkpt>
<trkpt lat="51.680863" lon="03.770057"><ele>2</ele><time>2021-01-07T10:37:57Z</time><cmt>5.3 kmh</cmt></trkpt>
<trkpt lat="51.680870" lon="03.770073"><ele>2</ele><time>2021-01-07T10:37:58Z</time><cmt>5.2 kmh</cmt></trkpt>
<trkpt lat="51.680877" lon="03.770091"><ele>3</ele><time>2021-01-07T10:37:59Z</time><cmt>5.3 kmh</cmt></trkpt>
<trkpt lat="51.680884" lon="03.770108"><ele>3</ele><time>2021-01-07T10:38:00Z</time><cmt>5.0 kmh</cmt></trkpt>
<trkpt lat="51.680891" lon="03.770124"><ele>3</ele><time>2021-01-07T10:38:01Z</time><cmt>5.0 kmh</cmt></trkpt>
<trkpt lat="51.680899" lon="03.770140"><ele>3</ele><time>2021-01-07T10:38:02Z</time><cmt>5.0 kmh</cmt></trkpt>
<trkpt lat="51.680906" lon="03.770156"><ele>3</ele><time>2021-01-07T10:38:03Z</time><cmt>5.3 kmh</cmt></trkpt>
<trkpt lat="51.680913" lon="03.770173"><ele>3</ele><time>2021-01-07T10:38:04Z</time><cmt>5.1 kmh</cmt></trkpt>
<trkpt lat="51.680920" lon="03.770189"><ele>3</ele><time>2021-01-07T10:38:05Z</time><cmt>5.1 kmh</cmt></trkpt>
<trkpt lat="51.680926" lon="03.770204"><ele>3</ele><time>2021-01-07T10:38:06Z</time><cmt>5.0 kmh</cmt></trkpt>
<trkpt lat="51.680932" lon="03.770219"><ele>3</ele><time>2021-01-07T10:38:07Z</time><cmt>4.9 kmh</cmt></trkpt>
<trkpt lat="51.680939" lon="03.770233"><ele>3</ele><time>2021-01-07T10:38:08Z</time><cmt>4.9 kmh</cmt></trkpt>
<trkpt lat="51.680946" lon="03.770248"><ele>3</ele><time>2021-01-07T10:38:09Z</time><cmt>5.0 kmh</cmt></trkpt>
<trkpt lat="51.680953" lon="03.770265"><ele>3</ele><time>2021-01-07T10:38:10Z</time><cmt>5.1 kmh</cmt></trkpt>
<trkpt lat="51.680959" lon="03.770282"><ele>3</ele><time>2021-01-07T10:38:11Z</time><cmt>5.1 kmh</cmt></trkpt>
<trkpt lat="51.680965" lon="03.770298"><ele>3</ele><time>2021-01-07T10:38:12Z</time><cmt>5.1 kmh</cmt></trkpt>
<trkpt lat="51.680971" lon="03.770314"><ele>3</ele><time>2021-01-07T10:38:13Z</time><cmt>5.0 kmh</cmt></trkpt>
<trkpt lat="51.680978" lon="03.770331"><ele>2</ele><time>2021-01-07T10:38:14Z</time><cmt>5.2 kmh</cmt></trkpt>
<trkpt lat="51.680984" lon="03.770346"><ele>2</ele><time>2021-01-07T10:38:15Z</time><cmt>5.2 kmh</cmt></trkpt>
<trkpt lat="51.680991" lon="03.770362"><ele>2</ele><time>2021-01-07T10:38:16Z</time><cmt>5.1 kmh</cmt></trkpt>
<trkpt lat="51.680998" lon="03.770378"><ele>2</ele><time>2021-01-07T10:38:17Z</time><cmt>5.1 kmh</cmt></trkpt>
<trkpt lat="51.681004" lon="03.770395"><ele>2</ele><time>2021-01-07T10:38:18Z</time><cmt>5.0 kmh</cmt></trkpt>
<trkpt lat="51.681010" lon="03.770411"><ele>2</ele><time>2021-01-07T10:38:19Z</time><cmt>5.0 kmh</cmt></trkpt>
<trkpt lat="51.681017" lon="03.770426"><ele>2</ele><time>2021-01-07T10:38:20Z</time><cmt>5.0 kmh</cmt></trkpt>
<trkpt lat="51.681024" lon="03.770441"><ele>2</ele><time>2021-01-07T10:38:21Z</time><cmt>5.0 kmh</cmt></trkpt>
<trkpt lat="51.681031" lon="03.770457"><ele>2</ele><time>2021-01-07T10:38:22Z</time><cmt>5.0 kmh</cmt></trkpt>
<trkpt lat="51.681038" lon="03.770472"><ele>2</ele><time>2021-01-07T10:38:23Z</time><cmt>5.0 kmh</cmt></trkpt>
<trkpt lat="51.681044" lon="03.770488"><ele>2</ele><time>2021-01-07T10:38:24Z</time><cmt>5.0 kmh</cmt></trkpt>
<trkpt lat="51.681050" lon="03.770503"><ele>2</ele><time>2021-01-07T10:38:25Z</time><cmt>5.0 kmh</cmt></trkpt>
<trkpt lat="51.681057" lon="03.770518"><ele>2</ele><time>2021-01-07T10:38:26Z</time><cmt>4.8 kmh</cmt></trkpt>
<trkpt lat="51.681064" lon="03.770531"><ele>2</ele><time>2021-01-07T10:38:27Z</time><cmt>4.8 kmh</cmt></trkpt>
<trkpt lat="51.681071" lon="03.770545"><ele>2</ele><time>2021-01-07T10:38:28Z</time><cmt>4.8 kmh</cmt></trkpt>
<trkpt lat="51.681078" lon="03.770560"><ele>2</ele><time>2021-01-07T10:38:29Z</time><cmt>3.9 kmh</cmt></trkpt>
<trkpt lat="51.681084" lon="03.770577"><ele>2</ele><time>2021-01-07T10:38:30Z</time><cmt>5.0 kmh</cmt></trkpt>
<trkpt lat="51.681090" lon="03.770593"><ele>1</ele><time>2021-01-07T10:38:31Z</time><cmt>5.0 kmh</cmt></trkpt>
<trkpt lat="51.681098" lon="03.770609"><ele>1</ele><time>2021-01-07T10:38:32Z</time><cmt>5.1 kmh</cmt></trkpt>
<trkpt lat="51.681106" lon="03.770624"><ele>1</ele><time>2021-01-07T10:38:33Z</time><cmt>5.0 kmh</cmt></trkpt>
<trkpt lat="51.681114" lon="03.770640"><ele>1</ele><time>2021-01-07T10:38:34Z</time><cmt>5.0 kmh</cmt></trkpt>
<trkpt lat="51.681120" lon="03.770655"><ele>1</ele><time>2021-01-07T10:38:35Z</time><cmt>4.1 kmh</cmt></trkpt>
<trkpt lat="51.681127" lon="03.770670"><ele>1</ele><time>2021-01-07T10:38:36Z</time><cmt>4.0 kmh</cmt></trkpt>
<trkpt lat="51.681134" lon="03.770684"><ele>1</ele><time>2021-01-07T10:38:37Z</time><cmt>4.9 kmh</cmt></trkpt>
<trkpt lat="51.681142" lon="03.770697"><ele>1</ele><time>2021-01-07T10:38:38Z</time><cmt>4.8 kmh</cmt></trkpt>
<trkpt lat="51.681149" lon="03.770708"><ele>1</ele><time>2021-01-07T10:38:39Z</time><cmt>4.6 kmh</cmt></trkpt>
<trkpt lat="51.681156" lon="03.770718"><ele>1</ele><time>2021-01-07T10:38:40Z</time><cmt>4.2 kmh</cmt></trkpt>
<trkpt lat="51.681161" lon="03.770727"><ele>1</ele><time>2021-01-07T10:38:41Z</time><cmt>3.7 kmh</cmt></trkpt>
<trkpt lat="51.681166" lon="03.770735"><ele>1</ele><time>2021-01-07T10:38:42Z</time><cmt>2.6 kmh</cmt></trkpt>
<trkpt lat="51.681172" lon="03.770739"><ele>1</ele><time>2021-01-07T10:38:43Z</time><cmt>2.3 kmh</cmt></trkpt>
<trkpt lat="51.681180" lon="03.770741"><ele>1</ele><time>2021-01-07T10:38:44Z</time><cmt>3.1 kmh</cmt></trkpt>
<trkpt lat="51.681190" lon="03.770745"><ele>1</ele><time>2021-01-07T10:38:45Z</time><cmt>4.0 kmh</cmt></trkpt>
<trkpt lat="51.681200" lon="03.770748"><ele>1</ele><time>2021-01-07T10:38:46Z</time><cmt>4.5 kmh</cmt></trkpt>
<trkpt lat="51.681211" lon="03.770750"><ele>1</ele><time>2021-01-07T10:38:47Z</time><cmt>4.6 kmh</cmt></trkpt>
<trkpt lat="51.681221" lon="03.770754"><ele>1</ele><time>2021-01-07T10:38:48Z</time><cmt>3.7 kmh</cmt></trkpt>
<trkpt lat="51.681233" lon="03.770760"><ele>2</ele><time>2021-01-07T10:38:49Z</time><cmt>5.1 kmh</cmt></trkpt>
<trkpt lat="51.681244" lon="03.770767"><ele>2</ele><time>2021-01-07T10:38:50Z</time><cmt>5.1 kmh</cmt></trkpt>
<trkpt lat="51.681255" lon="03.770774"><ele>2</ele><time>2021-01-07T10:38:51Z</time><cmt>5.1 kmh</cmt></trkpt>
<trkpt lat="51.681265" lon="03.770783"><ele>2</ele><time>2021-01-07T10:38:52Z</time><cmt>5.0 kmh</cmt></trkpt>
<trkpt lat="51.681274" lon="03.770793"><ele>2</ele><time>2021-01-07T10:38:53Z</time><cmt>4.9 kmh</cmt></trkpt>
<trkpt lat="51.681282" lon="03.770804"><ele>2</ele><time>2021-01-07T10:38:54Z</time><cmt>4.6 kmh</cmt></trkpt>
<trkpt lat="51.681290" lon="03.770817"><ele>2</ele><time>2021-01-07T10:38:55Z</time><cmt>3.8 kmh</cmt></trkpt>
<trkpt lat="51.681298" lon="03.770831"><ele>2</ele><time>2021-01-07T10:38:56Z</time><cmt>4.0 kmh</cmt></trkpt>
<trkpt lat="51.681305" lon="03.770845"><ele>2</ele><time>2021-01-07T10:38:57Z</time><cmt>5.0 kmh</cmt></trkpt>
<trkpt lat="51.681312" lon="03.770860"><ele>2</ele><time>2021-01-07T10:38:58Z</time><cmt>4.9 kmh</cmt></trkpt>
<trkpt lat="51.681318" lon="03.770875"><ele>2</ele><time>2021-01-07T10:38:59Z</time><cmt>5.0 kmh</cmt></trkpt>
<trkpt lat="51.681326" lon="03.770889"><ele>2</ele><time>2021-01-07T10:39:00Z</time><cmt>5.0 kmh</cmt></trkpt>
<trkpt lat="51.681333" lon="03.770904"><ele>2</ele><time>2021-01-07T10:39:01Z</time><cmt>4.0 kmh</cmt></trkpt>
<trkpt lat="51.681340" lon="03.770918"><ele>2</ele><time>2021-01-07T10:39:02Z</time><cmt>3.8 kmh</cmt></trkpt>
<trkpt lat="51.681346" lon="03.770931"><ele>2</ele><time>2021-01-07T10:39:03Z</time><cmt>4.7 kmh</cmt></trkpt>
<trkpt lat="51.681353" lon="03.770946"><ele>2</ele><time>2021-01-07T10:39:04Z</time><cmt>4.7 kmh</cmt></trkpt>
<trkpt lat="51.681359" lon="03.770961"><ele>2</ele><time>2021-01-07T10:39:05Z</time><cmt>4.9 kmh</cmt></trkpt>
<trkpt lat="51.681367" lon="03.770976"><ele>2</ele><time>2021-01-07T10:39:06Z</time><cmt>5.0 kmh</cmt></trkpt>
<trkpt lat="51.681374" lon="03.770990"><ele>2</ele><time>2021-01-07T10:39:07Z</time><cmt>5.0 kmh</cmt></trkpt>
<trkpt lat="51.681382" lon="03.771006"><ele>2</ele><time>2021-01-07T10:39:08Z</time><cmt>5.3 kmh</cmt></trkpt>
<trkpt lat="51.681391" lon="03.771021"><ele>2</ele><time>2021-01-07T10:39:09Z</time><cmt>5.1 kmh</cmt></trkpt>
<trkpt lat="51.681399" lon="03.771037"><ele>2</ele><time>2021-01-07T10:39:10Z</time><cmt>5.1 kmh</cmt></trkpt>
<trkpt lat="51.681406" lon="03.771053"><ele>2</ele><time>2021-01-07T10:39:11Z</time><cmt>5.2 kmh</cmt></trkpt>
<trkpt lat="51.681413" lon="03.771070"><ele>3</ele><time>2021-01-07T10:39:12Z</time><cmt>5.0 kmh</cmt></trkpt>
<trkpt lat="51.681420" lon="03.771086"><ele>3</ele><time>2021-01-07T10:39:13Z</time><cmt>5.1 kmh</cmt></trkpt>
<trkpt lat="51.681428" lon="03.771101"><ele>3</ele><time>2021-01-07T10:39:14Z</time><cmt>5.0 kmh</cmt></trkpt>
<trkpt lat="51.681436" lon="03.771116"><ele>3</ele><time>2021-01-07T10:39:15Z</time><cmt>5.0 kmh</cmt></trkpt>
<trkpt lat="51.681443" lon="03.771131"><ele>3</ele><time>2021-01-07T10:39:16Z</time><cmt>5.0 kmh</cmt></trkpt>
<trkpt lat="51.681450" lon="03.771144"><ele>3</ele><time>2021-01-07T10:39:17Z</time><cmt>4.9 kmh</cmt></trkpt>
<trkpt lat="51.681457" lon="03.771157"><ele>3</ele><time>2021-01-07T10:39:18Z</time><cmt>4.7 kmh</cmt></trkpt>
<trkpt lat="51.681463" lon="03.771171"><ele>3</ele><time>2021-01-07T10:39:19Z</time><cmt>4.6 kmh</cmt></trkpt>
<trkpt lat="51.681470" lon="03.771186"><ele>3</ele><time>2021-01-07T10:39:20Z</time><cmt>3.8 kmh</cmt></trkpt>
<trkpt lat="51.681476" lon="03.771200"><ele>3</ele><time>2021-01-07T10:39:21Z</time><cmt>3.8 kmh</cmt></trkpt>
<trkpt lat="51.681482" lon="03.771213"><ele>3</ele><time>2021-01-07T10:39:22Z</time><cmt>4.5 kmh</cmt></trkpt>
<trkpt lat="51.681488" lon="03.771228"><ele>3</ele><time>2021-01-07T10:39:23Z</time><cmt>4.5 kmh</cmt></trkpt>
<trkpt lat="51.681494" lon="03.771244"><ele>3</ele><time>2021-01-07T10:39:24Z</time><cmt>5.1 kmh</cmt></trkpt>
<trkpt lat="51.681501" lon="03.771259"><ele>3</ele><time>2021-01-07T10:39:25Z</time><cmt>5.1 kmh</cmt></trkpt>
<trkpt lat="51.681508" lon="03.771274"><ele>3</ele><time>2021-01-07T10:39:26Z</time><cmt>4.1 kmh</cmt></trkpt>
<trkpt lat="51.681515" lon="03.771289"><ele>3</ele><time>2021-01-07T10:39:27Z</time><cmt>4.0 kmh</cmt></trkpt>
<trkpt lat="51.681522" lon="03.771303"><ele>3</ele><time>2021-01-07T10:39:28Z</time><cmt>4.8 kmh</cmt></trkpt>
<trkpt lat="51.681528" lon="03.771316"><ele>3</ele><time>2021-01-07T10:39:29Z</time><cmt>4.7 kmh</cmt></trkpt>
<trkpt lat="51.681534" lon="03.771329"><ele>3</ele><time>2021-01-07T10:39:30Z</time><cmt>4.3 kmh</cmt></trkpt>
<trkpt lat="51.681538" lon="03.771339"><ele>3</ele><time>2021-01-07T10:39:31Z</time><cmt>3.8 kmh</cmt></trkpt>
<trkpt lat="51.681543" lon="03.771350"><ele>3</ele><time>2021-01-07T10:39:32Z</time><cmt>3.4 kmh</cmt></trkpt>
<trkpt lat="51.681547" lon="03.771361"><ele>3</ele><time>2021-01-07T10:39:33Z</time><cmt>2.8 kmh</cmt></trkpt>
<trkpt lat="51.681552" lon="03.771373"><ele>3</ele><time>2021-01-07T10:39:34Z</time><cmt>3.0 kmh</cmt></trkpt>
<trkpt lat="51.681558" lon="03.771386"><ele>3</ele><time>2021-01-07T10:39:35Z</time><cmt>4.0 kmh</cmt></trkpt>
<trkpt lat="51.681563" lon="03.771399"><ele>3</ele><time>2021-01-07T10:39:36Z</time><cmt>4.2 kmh</cmt></trkpt>
<trkpt lat="51.681569" lon="03.771412"><ele>3</ele><time>2021-01-07T10:39:37Z</time><cmt>4.3 kmh</cmt></trkpt>
<trkpt lat="51.681575" lon="03.771425"><ele>3</ele><time>2021-01-07T10:39:38Z</time><cmt>4.2 kmh</cmt></trkpt>
<trkpt lat="51.681581" lon="03.771437"><ele>3</ele><time>2021-01-07T10:39:39Z</time><cmt>3.3 kmh</cmt></trkpt>
<trkpt lat="51.681587" lon="03.771450"><ele>3</ele><time>2021-01-07T10:39:40Z</time><cmt>3.4 kmh</cmt></trkpt>
<trkpt lat="51.681593" lon="03.771462"><ele>3</ele><time>2021-01-07T10:39:41Z</time><cmt>4.3 kmh</cmt></trkpt>
<trkpt lat="51.681599" lon="03.771475"><ele>3</ele><time>2021-01-07T10:39:42Z</time><cmt>4.2 kmh</cmt></trkpt>
<trkpt lat="51.681605" lon="03.771487"><ele>3</ele><time>2021-01-07T10:39:43Z</time><cmt>4.2 kmh</cmt></trkpt>
<trkpt lat="51.681612" lon="03.771500"><ele>3</ele><time>2021-01-07T10:39:44Z</time><cmt>4.4 kmh</cmt></trkpt>
<trkpt lat="51.681619" lon="03.771514"><ele>3</ele><time>2021-01-07T10:39:45Z</time><cmt>3.7 kmh</cmt></trkpt>
<trkpt lat="51.681626" lon="03.771527"><ele>2</ele><time>2021-01-07T10:39:46Z</time><cmt>3.8 kmh</cmt></trkpt>
<trkpt lat="51.681633" lon="03.771542"><ele>2</ele><time>2021-01-07T10:39:47Z</time><cmt>4.9 kmh</cmt></trkpt>
<trkpt lat="51.681640" lon="03.771557"><ele>2</ele><time>2021-01-07T10:39:48Z</time><cmt>5.0 kmh</cmt></trkpt>
<trkpt lat="51.681647" lon="03.771572"><ele>2</ele><time>2021-01-07T10:39:49Z</time><cmt>5.0 kmh</cmt></trkpt>
<trkpt lat="51.681652" lon="03.771587"><ele>2</ele><time>2021-01-07T10:39:50Z</time><cmt>4.7 kmh</cmt></trkpt>
<trkpt lat="51.681659" lon="03.771601"><ele>2</ele><time>2021-01-07T10:39:51Z</time><cmt>4.6 kmh</cmt></trkpt>
<trkpt lat="51.681666" lon="03.771616"><ele>2</ele><time>2021-01-07T10:39:52Z</time><cmt>3.8 kmh</cmt></trkpt>
<trkpt lat="51.681672" lon="03.771631"><ele>2</ele><time>2021-01-07T10:39:53Z</time><cmt>3.9 kmh</cmt></trkpt>
<trkpt lat="51.681678" lon="03.771646"><ele>2</ele><time>2021-01-07T10:39:54Z</time><cmt>4.8 kmh</cmt></trkpt>
<trkpt lat="51.681683" lon="03.771662"><ele>2</ele><time>2021-01-07T10:39:55Z</time><cmt>4.9 kmh</cmt></trkpt>
<trkpt lat="51.681689" lon="03.771678"><ele>2</ele><time>2021-01-07T10:39:56Z</time><cmt>5.0 kmh</cmt></trkpt>
<trkpt lat="51.681694" lon="03.771694"><ele>2</ele><time>2021-01-07T10:39:57Z</time><cmt>4.9 kmh</cmt></trkpt>
<trkpt lat="51.681695" lon="03.771711"><ele>2</ele><time>2021-01-07T10:39:58Z</time><cmt>3.8 kmh</cmt></trkpt>
<trkpt lat="51.681696" lon="03.771728"><ele>2</ele><time>2021-01-07T10:39:59Z</time><cmt>3.7 kmh</cmt></trkpt>
<trkpt lat="51.681698" lon="03.771745"><ele>1</ele><time>2021-01-07T10:40:00Z</time><cmt>4.5 kmh</cmt></trkpt>
<trkpt lat="51.681702" lon="03.771761"><ele>1</ele><time>2021-01-07T10:40:01Z</time><cmt>4.5 kmh</cmt></trkpt>
<trkpt lat="51.681708" lon="03.771776"><ele>1</ele><time>2021-01-07T10:40:02Z</time><cmt>5.2 kmh</cmt></trkpt>
<trkpt lat="51.681714" lon="03.771793"><ele>1</ele><time>2021-01-07T10:40:03Z</time><cmt>5.1 kmh</cmt></trkpt>
<trkpt lat="51.681721" lon="03.771809"><ele>1</ele><time>2021-01-07T10:40:04Z</time><cmt>5.3 kmh</cmt></trkpt>
<trkpt lat="51.681729" lon="03.771825"><ele>1</ele><time>2021-01-07T10:40:05Z</time><cmt>5.3 kmh</cmt></trkpt>
<trkpt lat="51.681736" lon="03.771842"><ele>1</ele><time>2021-01-07T10:40:06Z</time><cmt>5.1 kmh</cmt></trkpt>
<trkpt lat="51.681744" lon="03.771859"><ele>1</ele><time>2021-01-07T10:40:07Z</time><cmt>5.5 kmh</cmt></trkpt>
<trkpt lat="51.681753" lon="03.771876"><ele>1</ele><time>2021-01-07T10:40:08Z</time><cmt>5.5 kmh</cmt></trkpt>
<trkpt lat="51.681761" lon="03.771893"><ele>0</ele><time>2021-01-07T10:40:09Z</time><cmt>5.6 kmh</cmt></trkpt>
<trkpt lat="51.681769" lon="03.771909"><ele>0</ele><time>2021-01-07T10:40:10Z</time><cmt>5.4 kmh</cmt></trkpt>
<trkpt lat="51.681777" lon="03.771926"><ele>0</ele><time>2021-01-07T10:40:11Z</time><cmt>5.3 kmh</cmt></trkpt>
<trkpt lat="51.681785" lon="03.771943"><ele>0</ele><time>2021-01-07T10:40:12Z</time><cmt>5.3 kmh</cmt></trkpt>
<trkpt lat="51.681792" lon="03.771959"><ele>0</ele><time>2021-01-07T10:40:13Z</time><cmt>5.0 kmh</cmt></trkpt>
<trkpt lat="51.681799" lon="03.771975"><ele>0</ele><time>2021-01-07T10:40:14Z</time><cmt>5.1 kmh</cmt></trkpt>
<trkpt lat="51.681806" lon="03.771991"><ele>0</ele><time>2021-01-07T10:40:15Z</time><cmt>5.3 kmh</cmt></trkpt>
<trkpt lat="51.681814" lon="03.772007"><ele>0</ele><time>2021-01-07T10:40:16Z</time><cmt>5.3 kmh</cmt></trkpt>
<trkpt lat="51.681822" lon="03.772024"><ele>0</ele><time>2021-01-07T10:40:17Z</time><cmt>5.3 kmh</cmt></trkpt>
<trkpt lat="51.681831" lon="03.772040"><ele>1</ele><time>2021-01-07T10:40:18Z</time><cmt>5.1 kmh</cmt></trkpt>
<trkpt lat="51.681839" lon="03.772055"><ele>1</ele><time>2021-01-07T10:40:19Z</time><cmt>5.0 kmh</cmt></trkpt>
<trkpt lat="51.681847" lon="03.772070"><ele>1</ele><time>2021-01-07T10:40:20Z</time><cmt>5.1 kmh</cmt></trkpt>
<trkpt lat="51.681854" lon="03.772086"><ele>1</ele><time>2021-01-07T10:40:21Z</time><cmt>5.1 kmh</cmt></trkpt>
<trkpt lat="51.681862" lon="03.772101"><ele>1</ele><time>2021-01-07T10:40:22Z</time><cmt>5.2 kmh</cmt></trkpt>
<trkpt lat="51.681871" lon="03.772117"><ele>1</ele><time>2021-01-07T10:40:23Z</time><cmt>5.4 kmh</cmt></trkpt>
<trkpt lat="51.681879" lon="03.772132"><ele>1</ele><time>2021-01-07T10:40:24Z</time><cmt>5.1 kmh</cmt></trkpt>
<trkpt lat="51.681887" lon="03.772147"><ele>1</ele><time>2021-01-07T10:40:25Z</time><cmt>5.1 kmh</cmt></trkpt>
<trkpt lat="51.681895" lon="03.772162"><ele>1</ele><time>2021-01-07T10:40:26Z</time><cmt>5.0 kmh</cmt></trkpt>
<trkpt lat="51.681903" lon="03.772178"><ele>1</ele><time>2021-01-07T10:40:27Z</time><cmt>5.0 kmh</cmt></trkpt>
<trkpt lat="51.681910" lon="03.772193"><ele>1</ele><time>2021-01-07T10:40:28Z</time><cmt>5.0 kmh</cmt></trkpt>
<trkpt lat="51.681918" lon="03.772208"><ele>1</ele><time>2021-01-07T10:40:29Z</time><cmt>5.2 kmh</cmt></trkpt>
<trkpt lat="51.681926" lon="03.772224"><ele>1</ele><time>2021-01-07T10:40:30Z</time><cmt>5.3 kmh</cmt></trkpt>
<trkpt lat="51.681934" lon="03.772240"><ele>1</ele><time>2021-01-07T10:40:31Z</time><cmt>5.0 kmh</cmt></trkpt>
<trkpt lat="51.681942" lon="03.772254"><ele>1</ele><time>2021-01-07T10:40:32Z</time><cmt>5.0 kmh</cmt></trkpt>
<trkpt lat="51.681949" lon="03.772269"><ele>1</ele><time>2021-01-07T10:40:33Z</time><cmt>5.1 kmh</cmt></trkpt>
<trkpt lat="51.681957" lon="03.772285"><ele>1</ele><time>2021-01-07T10:40:34Z</time><cmt>5.1 kmh</cmt></trkpt>
<trkpt lat="51.681965" lon="03.772300"><ele>1</ele><time>2021-01-07T10:40:35Z</time><cmt>5.0 kmh</cmt></trkpt>
<trkpt lat="51.681973" lon="03.772316"><ele>1</ele><time>2021-01-07T10:40:36Z</time><cmt>5.1 kmh</cmt></trkpt>
<trkpt lat="51.681981" lon="03.772332"><ele>1</ele><time>2021-01-07T10:40:37Z</time><cmt>5.1 kmh</cmt></trkpt>
<trkpt lat="51.681988" lon="03.772347"><ele>2</ele><time>2021-01-07T10:40:38Z</time><cmt>5.1 kmh</cmt></trkpt>
<trkpt lat="51.681996" lon="03.772363"><ele>2</ele><time>2021-01-07T10:40:39Z</time><cmt>5.2 kmh</cmt></trkpt>
<trkpt lat="51.682004" lon="03.772377"><ele>2</ele><time>2021-01-07T10:40:40Z</time><cmt>5.2 kmh</cmt></trkpt>
<trkpt lat="51.682011" lon="03.772393"><ele>2</ele><time>2021-01-07T10:40:41Z</time><cmt>5.0 kmh</cmt></trkpt>
<trkpt lat="51.682019" lon="03.772408"><ele>2</ele><time>2021-01-07T10:40:42Z</time><cmt>5.0 kmh</cmt></trkpt>
<trkpt lat="51.682026" lon="03.772423"><ele>2</ele><time>2021-01-07T10:40:43Z</time><cmt>4.1 kmh</cmt></trkpt>
<trkpt lat="51.682034" lon="03.772438"><ele>2</ele><time>2021-01-07T10:40:44Z</time><cmt>4.2 kmh</cmt></trkpt>
<trkpt lat="51.682042" lon="03.772454"><ele>2</ele><time>2021-01-07T10:40:45Z</time><cmt>5.2 kmh</cmt></trkpt>
<trkpt lat="51.682049" lon="03.772470"><ele>2</ele><time>2021-01-07T10:40:46Z</time><cmt>5.2 kmh</cmt></trkpt>
<trkpt lat="51.682056" lon="03.772486"><ele>2</ele><time>2021-01-07T10:40:47Z</time><cmt>5.2 kmh</cmt></trkpt>
<trkpt lat="51.682064" lon="03.772502"><ele>2</ele><time>2021-01-07T10:40:48Z</time><cmt>5.1 kmh</cmt></trkpt>
<trkpt lat="51.682071" lon="03.772517"><ele>2</ele><time>2021-01-07T10:40:49Z</time><cmt>5.1 kmh</cmt></trkpt>
<trkpt lat="51.682079" lon="03.772532"><ele>2</ele><time>2021-01-07T10:40:50Z</time><cmt>4.1 kmh</cmt></trkpt>
<trkpt lat="51.682086" lon="03.772547"><ele>2</ele><time>2021-01-07T10:40:51Z</time><cmt>5.0 kmh</cmt></trkpt>
<trkpt lat="51.682094" lon="03.772563"><ele>2</ele><time>2021-01-07T10:40:52Z</time><cmt>5.2 kmh</cmt></trkpt>
<trkpt lat="51.682102" lon="03.772578"><ele>2</ele><time>2021-01-07T10:40:53Z</time><cmt>5.0 kmh</cmt></trkpt>
<trkpt lat="51.682109" lon="03.772593"><ele>2</ele><time>2021-01-07T10:40:54Z</time><cmt>5.0 kmh</cmt></trkpt>
<trkpt lat="51.682117" lon="03.772609"><ele>2</ele><time>2021-01-07T10:40:55Z</time><cmt>4.2 kmh</cmt></trkpt>
<trkpt lat="51.682124" lon="03.772623"><ele>2</ele><time>2021-01-07T10:40:56Z</time><cmt>4.1 kmh</cmt></trkpt>
<trkpt lat="51.682131" lon="03.772638"><ele>2</ele><time>2021-01-07T10:40:57Z</time><cmt>5.0 kmh</cmt></trkpt>
<trkpt lat="51.682138" lon="03.772653"><ele>2</ele><time>2021-01-07T10:40:58Z</time><cmt>5.0 kmh</cmt></trkpt>
<trkpt lat="51.682145" lon="03.772668"><ele>3</ele><time>2021-01-07T10:40:59Z</time><cmt>5.0 kmh</cmt></trkpt>
<trkpt lat="51.682152" lon="03.772683"><ele>3</ele><time>2021-01-07T10:41:00Z</time><cmt>5.0 kmh</cmt></trkpt>
<trkpt lat="51.682160" lon="03.772698"><ele>3</ele><time>2021-01-07T10:41:01Z</time><cmt>5.0 kmh</cmt></trkpt>
<trkpt lat="51.682167" lon="03.772714"><ele>3</ele><time>2021-01-07T10:41:02Z</time><cmt>4.2 kmh</cmt></trkpt>
<trkpt lat="51.682174" lon="03.772730"><ele>3</ele><time>2021-01-07T10:41:03Z</time><cmt>4.1 kmh</cmt></trkpt>
<trkpt lat="51.682177" lon="03.772746"><ele>3</ele><time>2021-01-07T10:41:04Z</time><cmt>4.9 kmh</cmt></trkpt>
<trkpt lat="51.682180" lon="03.772763"><ele>3</ele><time>2021-01-07T10:41:05Z</time><cmt>4.6 kmh</cmt></trkpt>
<trkpt lat="51.682185" lon="03.772777"><ele>3</ele><time>2021-01-07T10:41:06Z</time><cmt>4.4 kmh</cmt></trkpt>
<trkpt lat="51.682191" lon="03.772788"><ele>3</ele><time>2021-01-07T10:41:07Z</time><cmt>4.1 kmh</cmt></trkpt>
<trkpt lat="51.682197" lon="03.772799"><ele>3</ele><time>2021-01-07T10:41:08Z</time><cmt>3.2 kmh</cmt></trkpt>
<trkpt lat="51.682204" lon="03.772810"><ele>3</ele><time>2021-01-07T10:41:09Z</time><cmt>3.2 kmh</cmt></trkpt>
<trkpt lat="51.682211" lon="03.772823"><ele>3</ele><time>2021-01-07T10:41:10Z</time><cmt>4.3 kmh</cmt></trkpt>
<trkpt lat="51.682217" lon="03.772835"><ele>3</ele><time>2021-01-07T10:41:11Z</time><cmt>4.5 kmh</cmt></trkpt>
<trkpt lat="51.682223" lon="03.772847"><ele>3</ele><time>2021-01-07T10:41:12Z</time><cmt>4.2 kmh</cmt></trkpt>
<trkpt lat="51.682227" lon="03.772857"><ele>3</ele><time>2021-01-07T10:41:13Z</time><cmt>3.6 kmh</cmt></trkpt>
<trkpt lat="51.682231" lon="03.772864"><ele>3</ele><time>2021-01-07T10:41:14Z</time><cmt>2.2 kmh</cmt></trkpt>
<trkpt lat="51.682234" lon="03.772869"><ele>3</ele><time>2021-01-07T10:41:15Z</time><cmt>1.8 kmh</cmt></trkpt>
<trkpt lat="51.682236" lon="03.772873"><ele>3</ele><time>2021-01-07T10:41:16Z</time><cmt>1.7 kmh</cmt></trkpt>
<trkpt lat="51.682237" lon="03.772873"><ele>3</ele><time>2021-01-07T10:41:17Z</time><cmt>0.8 kmh</cmt></trkpt>
<trkpt lat="51.682239" lon="03.772874"><ele>3</ele><time>2021-01-07T10:41:18Z</time><cmt>0.6 kmh</cmt></trkpt>
<trkpt lat="51.682241" lon="03.772874"><ele>3</ele><time>2021-01-07T10:41:19Z</time><cmt>1.0 kmh</cmt></trkpt>
<trkpt lat="51.682242" lon="03.772875"><ele>3</ele><time>2021-01-07T10:41:20Z</time><cmt>0.4 kmh</cmt></trkpt>
<trkpt lat="51.682243" lon="03.772875"><ele>3</ele><time>2021-01-07T10:41:21Z</time><cmt>0.0 kmh</cmt></trkpt>
<trkpt lat="51.682243" lon="03.772874"><ele>3</ele><time>2021-01-07T10:41:22Z</time><cmt>0.0 kmh</cmt></trkpt>
<trkpt lat="51.682244" lon="03.772874"><ele>2</ele><time>2021-01-07T10:41:23Z</time><cmt>0.0 kmh</cmt></trkpt>
<trkpt lat="51.682244" lon="03.772874"><ele>2</ele><time>2021-01-07T10:41:24Z</time><cmt>0.0 kmh</cmt></trkpt>
<trkpt lat="51.682246" lon="03.772872"><ele>2</ele><time>2021-01-07T10:41:25Z</time><cmt>0.3 kmh</cmt></trkpt>
<trkpt lat="51.682250" lon="03.772869"><ele>2</ele><time>2021-01-07T10:41:26Z</time><cmt>0.9 kmh</cmt></trkpt>
<trkpt lat="51.682255" lon="03.772866"><ele>2</ele><time>2021-01-07T10:41:27Z</time><cmt>1.6 kmh</cmt></trkpt>
<trkpt lat="51.682259" lon="03.772864"><ele>2</ele><time>2021-01-07T10:41:28Z</time><cmt>1.7 kmh</cmt></trkpt>
<trkpt lat="51.682263" lon="03.772864"><ele>2</ele><time>2021-01-07T10:41:29Z</time><cmt>1.7 kmh</cmt></trkpt>
<trkpt lat="51.682264" lon="03.772865"><ele>2</ele><time>2021-01-07T10:41:30Z</time><cmt>0.9 kmh</cmt></trkpt>
<trkpt lat="51.682265" lon="03.772866"><ele>2</ele><time>2021-01-07T10:41:31Z</time><cmt>0.4 kmh</cmt></trkpt>
<trkpt lat="51.682265" lon="03.772867"><ele>2</ele><time>2021-01-07T10:41:32Z</time><cmt>0.2 kmh</cmt></trkpt>
<trkpt lat="51.682266" lon="03.772867"><ele>2</ele><time>2021-01-07T10:41:33Z</time><cmt>0.0 kmh</cmt></trkpt>
<trkpt lat="51.682266" lon="03.772867"><ele>2</ele><time>2021-01-07T10:41:34Z</time><cmt>0.0 kmh</cmt></trkpt>
<trkpt lat="51.682266" lon="03.772868"><ele>2</ele><time>2021-01-07T10:41:35Z</time><cmt>0.0 kmh</cmt></trkpt>
<trkpt lat="51.682266" lon="03.772868"><ele>3</ele><time>2021-01-07T10:41:36Z</time><cmt>0.0 kmh</cmt></trkpt>
<trkpt lat="51.682267" lon="03.772868"><ele>3</ele><time>2021-01-07T10:41:37Z</time><cmt>0.0 kmh</cmt></trkpt>
<trkpt lat="51.682267" lon="03.772868"><ele>3</ele><time>2021-01-07T10:41:38Z</time><cmt>0.2 kmh</cmt></trkpt>
<trkpt lat="51.682267" lon="03.772868"><ele>3</ele><time>2021-01-07T10:41:39Z</time><cmt>0.4 kmh</cmt></trkpt>
<trkpt lat="51.682267" lon="03.772868"><ele>3</ele><time>2021-01-07T10:41:40Z</time><cmt>0.3 kmh</cmt></trkpt>
<trkpt lat="51.682268" lon="03.772868"><ele>3</ele><time>2021-01-07T10:41:41Z</time><cmt>0.1 kmh</cmt></trkpt>
<trkpt lat="51.682268" lon="03.772868"><ele>3</ele><time>2021-01-07T10:41:42Z</time><cmt>0.0 kmh</cmt></trkpt>
<trkpt lat="51.682268" lon="03.772868"><ele>3</ele><time>2021-01-07T10:41:43Z</time><cmt>0.0 kmh</cmt></trkpt>
<trkpt lat="51.682268" lon="03.772868"><ele>3</ele><time>2021-01-07T10:41:44Z</time><cmt>0.0 kmh</cmt></trkpt>
<trkpt lat="51.682269" lon="03.772869"><ele>3</ele><time>2021-01-07T10:41:45Z</time><cmt>0.0 kmh</cmt></trkpt>
<trkpt lat="51.682269" lon="03.772869"><ele>3</ele><time>2021-01-07T10:41:46Z</time><cmt>0.0 kmh</cmt></trkpt>
<trkpt lat="51.682269" lon="03.772871"><ele>3</ele><time>2021-01-07T10:41:47Z</time><cmt>0.2 kmh</cmt></trkpt>
<trkpt lat="51.682265" lon="03.772875"><ele>3</ele><time>2021-01-07T10:41:48Z</time><cmt>1.2 kmh</cmt></trkpt>
<trkpt lat="51.682264" lon="03.772875"><ele>3</ele><time>2021-01-07T10:41:49Z</time><cmt>0.9 kmh</cmt></trkpt>
<trkpt lat="51.682261" lon="03.772876"><ele>3</ele><time>2021-01-07T10:41:50Z</time><cmt>0.6 kmh</cmt></trkpt>
<trkpt lat="51.682260" lon="03.772876"><ele>3</ele><time>2021-01-07T10:41:51Z</time><cmt>0.9 kmh</cmt></trkpt>
<trkpt lat="51.682260" lon="03.772876"><ele>3</ele><time>2021-01-07T10:41:52Z</time><cmt>0.2 kmh</cmt></trkpt>
<trkpt lat="51.682257" lon="03.772879"><ele>3</ele><time>2021-01-07T10:41:53Z</time><cmt>0.6 kmh</cmt></trkpt>
<trkpt lat="51.682253" lon="03.772884"><ele>3</ele><time>2021-01-07T10:41:54Z</time><cmt>1.7 kmh</cmt></trkpt>
<trkpt lat="51.682251" lon="03.772890"><ele>3</ele><time>2021-01-07T10:41:55Z</time><cmt>1.9 kmh</cmt></trkpt>
<trkpt lat="51.682249" lon="03.772894"><ele>3</ele><time>2021-01-07T10:41:56Z</time><cmt>1.7 kmh</cmt></trkpt>
<trkpt lat="51.682247" lon="03.772897"><ele>3</ele><time>2021-01-07T10:41:57Z</time><cmt>1.1 kmh</cmt></trkpt>
<trkpt lat="51.682247" lon="03.772897"><ele>3</ele><time>2021-01-07T10:41:58Z</time><cmt>0.4 kmh</cmt></trkpt>
<trkpt lat="51.682247" lon="03.772896"><ele>3</ele><time>2021-01-07T10:41:59Z</time><cmt>0.0 kmh</cmt></trkpt>
<trkpt lat="51.682247" lon="03.772896"><ele>2</ele><time>2021-01-07T10:42:00Z</time><cmt>0.0 kmh</cmt></trkpt>
<trkpt lat="51.682248" lon="03.772895"><ele>2</ele><time>2021-01-07T10:42:01Z</time><cmt>0.3 kmh</cmt></trkpt>
<trkpt lat="51.682249" lon="03.772898"><ele>2</ele><time>2021-01-07T10:42:02Z</time><cmt>0.8 kmh</cmt></trkpt>
<trkpt lat="51.682251" lon="03.772901"><ele>2</ele><time>2021-01-07T10:42:03Z</time><cmt>0.9 kmh</cmt></trkpt>
<trkpt lat="51.682251" lon="03.772902"><ele>2</ele><time>2021-01-07T10:42:04Z</time><cmt>0.6 kmh</cmt></trkpt>
<trkpt lat="51.682252" lon="03.772901"><ele>2</ele><time>2021-01-07T10:42:05Z</time><cmt>0.1 kmh</cmt></trkpt>
<trkpt lat="51.682252" lon="03.772903"><ele>2</ele><time>2021-01-07T10:42:06Z</time><cmt>0.2 kmh</cmt></trkpt>
<trkpt lat="51.682250" lon="03.772910"><ele>2</ele><time>2021-01-07T10:42:07Z</time><cmt>1.2 kmh</cmt></trkpt>
<trkpt lat="51.682249" lon="03.772918"><ele>2</ele><time>2021-01-07T10:42:08Z</time><cmt>2.1 kmh</cmt></trkpt>
<trkpt lat="51.682251" lon="03.772928"><ele>2</ele><time>2021-01-07T10:42:09Z</time><cmt>2.6 kmh</cmt></trkpt>
<trkpt lat="51.682254" lon="03.772940"><ele>2</ele><time>2021-01-07T10:42:10Z</time><cmt>3.1 kmh</cmt></trkpt>
<trkpt lat="51.682256" lon="03.772948"><ele>1</ele><time>2021-01-07T10:42:11Z</time><cmt>2.4 kmh</cmt></trkpt>
<trkpt lat="51.682258" lon="03.772952"><ele>1</ele><time>2021-01-07T10:42:12Z</time><cmt>1.5 kmh</cmt></trkpt>
<trkpt lat="51.682259" lon="03.772955"><ele>1</ele><time>2021-01-07T10:42:13Z</time><cmt>1.1 kmh</cmt></trkpt>
<trkpt lat="51.682262" lon="03.772960"><ele>1</ele><time>2021-01-07T10:42:14Z</time><cmt>1.4 kmh</cmt></trkpt>
<trkpt lat="51.682267" lon="03.772968"><ele>1</ele><time>2021-01-07T10:42:15Z</time><cmt>2.4 kmh</cmt></trkpt>
<trkpt lat="51.682273" lon="03.772978"><ele>1</ele><time>2021-01-07T10:42:16Z</time><cmt>3.4 kmh</cmt></trkpt>
<trkpt lat="51.682279" lon="03.772990"><ele>1</ele><time>2021-01-07T10:42:17Z</time><cmt>3.9 kmh</cmt></trkpt>
<trkpt lat="51.682286" lon="03.773003"><ele>1</ele><time>2021-01-07T10:42:18Z</time><cmt>3.5 kmh</cmt></trkpt>
<trkpt lat="51.682291" lon="03.773014"><ele>1</ele><time>2021-01-07T10:42:19Z</time><cmt>3.4 kmh</cmt></trkpt>
<trkpt lat="51.682297" lon="03.773024"><ele>1</ele><time>2021-01-07T10:42:20Z</time><cmt>3.6 kmh</cmt></trkpt>
<trkpt lat="51.682302" lon="03.773034"><ele>1</ele><time>2021-01-07T10:42:21Z</time><cmt>3.5 kmh</cmt></trkpt>
<trkpt lat="51.682307" lon="03.773046"><ele>1</ele><time>2021-01-07T10:42:22Z</time><cmt>3.7 kmh</cmt></trkpt>
<trkpt lat="51.682313" lon="03.773058"><ele>1</ele><time>2021-01-07T10:42:23Z</time><cmt>4.0 kmh</cmt></trkpt>
<trkpt lat="51.682319" lon="03.773071"><ele>1</ele><time>2021-01-07T10:42:24Z</time><cmt>3.5 kmh</cmt></trkpt>
<trkpt lat="51.682326" lon="03.773084"><ele>1</ele><time>2021-01-07T10:42:25Z</time><cmt>3.6 kmh</cmt></trkpt>
<trkpt lat="51.682332" lon="03.773097"><ele>1</ele><time>2021-01-07T10:42:26Z</time><cmt>4.4 kmh</cmt></trkpt>
<trkpt lat="51.682339" lon="03.773110"><ele>1</ele><time>2021-01-07T10:42:27Z</time><cmt>4.4 kmh</cmt></trkpt>
<trkpt lat="51.682346" lon="03.773122"><ele>1</ele><time>2021-01-07T10:42:28Z</time><cmt>4.5 kmh</cmt></trkpt>
<trkpt lat="51.682353" lon="03.773137"><ele>1</ele><time>2021-01-07T10:42:29Z</time><cmt>5.1 kmh</cmt></trkpt>
<trkpt lat="51.682361" lon="03.773153"><ele>1</ele><time>2021-01-07T10:42:30Z</time><cmt>5.3 kmh</cmt></trkpt>
<trkpt lat="51.682369" lon="03.773169"><ele>1</ele><time>2021-01-07T10:42:31Z</time><cmt>5.5 kmh</cmt></trkpt>
<trkpt lat="51.682377" lon="03.773185"><ele>1</ele><time>2021-01-07T10:42:32Z</time><cmt>5.1 kmh</cmt></trkpt>
<trkpt lat="51.682385" lon="03.773201"><ele>1</ele><time>2021-01-07T10:42:33Z</time><cmt>5.0 kmh</cmt></trkpt>
<trkpt lat="51.682393" lon="03.773217"><ele>1</ele><time>2021-01-07T10:42:34Z</time><cmt>5.1 kmh</cmt></trkpt>
<trkpt lat="51.682400" lon="03.773233"><ele>1</ele><time>2021-01-07T10:42:35Z</time><cmt>5.3 kmh</cmt></trkpt>
<trkpt lat="51.682407" lon="03.773250"><ele>1</ele><time>2021-01-07T10:42:36Z</time><cmt>5.2 kmh</cmt></trkpt>
<trkpt lat="51.682415" lon="03.773266"><ele>1</ele><time>2021-01-07T10:42:37Z</time><cmt>5.1 kmh</cmt></trkpt>
<trkpt lat="51.682423" lon="03.773282"><ele>1</ele><time>2021-01-07T10:42:38Z</time><cmt>5.2 kmh</cmt></trkpt>
<trkpt lat="51.682428" lon="03.773299"><ele>1</ele><time>2021-01-07T10:42:39Z</time><cmt>5.4 kmh</cmt></trkpt>
<trkpt lat="51.682434" lon="03.773318"><ele>1</ele><time>2021-01-07T10:42:40Z</time><cmt>5.6 kmh</cmt></trkpt>
<trkpt lat="51.682440" lon="03.773336"><ele>0</ele><time>2021-01-07T10:42:41Z</time><cmt>5.4 kmh</cmt></trkpt>
<trkpt lat="51.682446" lon="03.773354"><ele>0</ele><time>2021-01-07T10:42:42Z</time><cmt>5.2 kmh</cmt></trkpt>
<trkpt lat="51.682453" lon="03.773370"><ele>0</ele><time>2021-01-07T10:42:43Z</time><cmt>5.1 kmh</cmt></trkpt>
<trkpt lat="51.682458" lon="03.773387"><ele>0</ele><time>2021-01-07T10:42:44Z</time><cmt>5.1 kmh</cmt></trkpt>
<trkpt lat="51.682466" lon="03.773402"><ele>0</ele><time>2021-01-07T10:42:45Z</time><cmt>5.2 kmh</cmt></trkpt>
<trkpt lat="51.682473" lon="03.773418"><ele>0</ele><time>2021-01-07T10:42:46Z</time><cmt>5.2 kmh</cmt></trkpt>
<trkpt lat="51.682480" lon="03.773434"><ele>0</ele><time>2021-01-07T10:42:47Z</time><cmt>5.0 kmh</cmt></trkpt>
<trkpt lat="51.682486" lon="03.773449"><ele>0</ele><time>2021-01-07T10:42:48Z</time><cmt>5.0 kmh</cmt></trkpt>
<trkpt lat="51.682493" lon="03.773463"><ele>0</ele><time>2021-01-07T10:42:49Z</time><cmt>3.9 kmh</cmt></trkpt>
<trkpt lat="51.682500" lon="03.773478"><ele>0</ele><time>2021-01-07T10:42:50Z</time><cmt>3.9 kmh</cmt></trkpt>
<trkpt lat="51.682507" lon="03.773492"><ele>0</ele><time>2021-01-07T10:42:51Z</time><cmt>4.9 kmh</cmt></trkpt>
<trkpt lat="51.682513" lon="03.773507"><ele>0</ele><time>2021-01-07T10:42:52Z</time><cmt>4.9 kmh</cmt></trkpt>
<trkpt lat="51.682520" lon="03.773523"><ele>0</ele><time>2021-01-07T10:42:53Z</time><cmt>5.3 kmh</cmt></trkpt>
<trkpt lat="51.682527" lon="03.773541"><ele>0</ele><time>2021-01-07T10:42:54Z</time><cmt>5.4 kmh</cmt></trkpt>
<trkpt lat="51.682535" lon="03.773558"><ele>0</ele><time>2021-01-07T10:42:55Z</time><cmt>5.2 kmh</cmt></trkpt>
<trkpt lat="51.682543" lon="03.773574"><ele>0</ele><time>2021-01-07T10:42:56Z</time><cmt>5.1 kmh</cmt></trkpt>
<trkpt lat="51.682550" lon="03.773590"><ele>0</ele><time>2021-01-07T10:42:57Z</time><cmt>5.1 kmh</cmt></trkpt>
<trkpt lat="51.682558" lon="03.773605"><ele>0</ele><time>2021-01-07T10:42:58Z</time><cmt>5.1 kmh</cmt></trkpt>
<trkpt lat="51.682566" lon="03.773621"><ele>0</ele><time>2021-01-07T10:42:59Z</time><cmt>5.2 kmh</cmt></trkpt>
<trkpt lat="51.682574" lon="03.773637"><ele>0</ele><time>2021-01-07T10:43:00Z</time><cmt>5.4 kmh</cmt></trkpt>
<trkpt lat="51.682582" lon="03.773655"><ele>0</ele><time>2021-01-07T10:43:01Z</time><cmt>5.3 kmh</cmt></trkpt>
<trkpt lat="51.682590" lon="03.773671"><ele>0</ele><time>2021-01-07T10:43:02Z</time><cmt>5.2 kmh</cmt></trkpt>
<trkpt lat="51.682598" lon="03.773687"><ele>0</ele><time>2021-01-07T10:43:03Z</time><cmt>5.1 kmh</cmt></trkpt>
<trkpt lat="51.682606" lon="03.773703"><ele>0</ele><time>2021-01-07T10:43:04Z</time><cmt>5.3 kmh</cmt></trkpt>
<trkpt lat="51.682614" lon="03.773718"><ele>0</ele><time>2021-01-07T10:43:05Z</time><cmt>5.0 kmh</cmt></trkpt>
<trkpt lat="51.682622" lon="03.773733"><ele>1</ele><time>2021-01-07T10:43:06Z</time><cmt>5.0 kmh</cmt></trkpt>
<trkpt lat="51.682630" lon="03.773749"><ele>1</ele><time>2021-01-07T10:43:07Z</time><cmt>5.0 kmh</cmt></trkpt>
<trkpt lat="51.682636" lon="03.773766"><ele>1</ele><time>2021-01-07T10:43:08Z</time><cmt>5.0 kmh</cmt></trkpt>
<trkpt lat="51.682643" lon="03.773781"><ele>1</ele><time>2021-01-07T10:43:09Z</time><cmt>4.1 kmh</cmt></trkpt>
<trkpt lat="51.682650" lon="03.773795"><ele>1</ele><time>2021-01-07T10:43:10Z</time><cmt>4.0 kmh</cmt></trkpt>
<trkpt lat="51.682657" lon="03.773809"><ele>1</ele><time>2021-01-07T10:43:11Z</time><cmt>4.8 kmh</cmt></trkpt>
<trkpt lat="51.682663" lon="03.773824"><ele>1</ele><time>2021-01-07T10:43:12Z</time><cmt>4.8 kmh</cmt></trkpt>
<trkpt lat="51.682669" lon="03.773840"><ele>2</ele><time>2021-01-07T10:43:13Z</time><cmt>4.9 kmh</cmt></trkpt>
<trkpt lat="51.682677" lon="03.773855"><ele>2</ele><time>2021-01-07T10:43:14Z</time><cmt>5.0 kmh</cmt></trkpt>
<trkpt lat="51.682684" lon="03.773870"><ele>2</ele><time>2021-01-07T10:43:15Z</time><cmt>5.1 kmh</cmt></trkpt>
<trkpt lat="51.682692" lon="03.773886"><ele>2</ele><time>2021-01-07T10:43:16Z</time><cmt>5.2 kmh</cmt></trkpt>
<trkpt lat="51.682699" lon="03.773903"><ele>2</ele><time>2021-01-07T10:43:17Z</time><cmt>5.1 kmh</cmt></trkpt>
<trkpt lat="51.682707" lon="03.773919"><ele>2</ele><time>2021-01-07T10:43:18Z</time><cmt>5.1 kmh</cmt></trkpt>
<trkpt lat="51.682715" lon="03.773935"><ele>2</ele><time>2021-01-07T10:43:19Z</time><cmt>5.0 kmh</cmt></trkpt>
<trkpt lat="51.682722" lon="03.773950"><ele>2</ele><time>2021-01-07T10:43:20Z</time><cmt>5.0 kmh</cmt></trkpt>
<trkpt lat="51.682730" lon="03.773964"><ele>2</ele><time>2021-01-07T10:43:21Z</time><cmt>4.1 kmh</cmt></trkpt>
<trkpt lat="51.682737" lon="03.773979"><ele>2</ele><time>2021-01-07T10:43:22Z</time><cmt>4.0 kmh</cmt></trkpt>
<trkpt lat="51.682743" lon="03.773993"><ele>2</ele><time>2021-01-07T10:43:23Z</time><cmt>4.8 kmh</cmt></trkpt>
<trkpt lat="51.682750" lon="03.774008"><ele>3</ele><time>2021-01-07T10:43:24Z</time><cmt>4.9 kmh</cmt></trkpt>
<trkpt lat="51.682756" lon="03.774024"><ele>3</ele><time>2021-01-07T10:43:25Z</time><cmt>5.0 kmh</cmt></trkpt>
<trkpt lat="51.682763" lon="03.774040"><ele>3</ele><time>2021-01-07T10:43:26Z</time><cmt>5.0 kmh</cmt></trkpt>
<trkpt lat="51.682770" lon="03.774055"><ele>3</ele><time>2021-01-07T10:43:27Z</time><cmt>5.0 kmh</cmt></trkpt>
<trkpt lat="51.682776" lon="03.774070"><ele>3</ele><time>2021-01-07T10:43:28Z</time><cmt>3.9 kmh</cmt></trkpt>
<trkpt lat="51.682783" lon="03.774085"><ele>3</ele><time>2021-01-07T10:43:29Z</time><cmt>3.9 kmh</cmt></trkpt>
<trkpt lat="51.682789" lon="03.774100"><ele>3</ele><time>2021-01-07T10:43:30Z</time><cmt>4.9 kmh</cmt></trkpt>
<trkpt lat="51.682796" lon="03.774115"><ele>3</ele><time>2021-01-07T10:43:31Z</time><cmt>5.1 kmh</cmt></trkpt>
<trkpt lat="51.682804" lon="03.774129"><ele>3</ele><time>2021-01-07T10:43:32Z</time><cmt>5.0 kmh</cmt></trkpt>
<trkpt lat="51.682812" lon="03.774144"><ele>3</ele><time>2021-01-07T10:43:33Z</time><cmt>5.0 kmh</cmt></trkpt>
<trkpt lat="51.682819" lon="03.774159"><ele>3</ele><time>2021-01-07T10:43:34Z</time><cmt>5.1 kmh</cmt></trkpt>
<trkpt lat="51.682826" lon="03.774175"><ele>3</ele><time>2021-01-07T10:43:35Z</time><cmt>5.1 kmh</cmt></trkpt>
<trkpt lat="51.682833" lon="03.774191"><ele>3</ele><time>2021-01-07T10:43:36Z</time><cmt>5.1 kmh</cmt></trkpt>
<trkpt lat="51.682840" lon="03.774208"><ele>3</ele><time>2021-01-07T10:43:37Z</time><cmt>5.1 kmh</cmt></trkpt>
<trkpt lat="51.682847" lon="03.774225"><ele>3</ele><time>2021-01-07T10:43:38Z</time><cmt>5.0 kmh</cmt></trkpt>
<trkpt lat="51.682854" lon="03.774239"><ele>3</ele><time>2021-01-07T10:43:39Z</time><cmt>5.0 kmh</cmt></trkpt>
<trkpt lat="51.682860" lon="03.774253"><ele>3</ele><time>2021-01-07T10:43:40Z</time><cmt>3.8 kmh</cmt></trkpt>
<trkpt lat="51.682867" lon="03.774267"><ele>3</ele><time>2021-01-07T10:43:41Z</time><cmt>3.7 kmh</cmt></trkpt>
<trkpt lat="51.682873" lon="03.774281"><ele>3</ele><time>2021-01-07T10:43:42Z</time><cmt>4.6 kmh</cmt></trkpt>
<trkpt lat="51.682879" lon="03.774295"><ele>3</ele><time>2021-01-07T10:43:43Z</time><cmt>4.6 kmh</cmt></trkpt>
<trkpt lat="51.682886" lon="03.774309"><ele>3</ele><time>2021-01-07T10:43:44Z</time><cmt>4.7 kmh</cmt></trkpt>
<trkpt lat="51.682893" lon="03.774323"><ele>3</ele><time>2021-01-07T10:43:45Z</time><cmt>4.7 kmh</cmt></trkpt>
<trkpt lat="51.682899" lon="03.774338"><ele>4</ele><time>2021-01-07T10:43:46Z</time><cmt>3.8 kmh</cmt></trkpt>
<trkpt lat="51.682905" lon="03.774353"><ele>4</ele><time>2021-01-07T10:43:47Z</time><cmt>3.9 kmh</cmt></trkpt>
<trkpt lat="51.682911" lon="03.774368"><ele>4</ele><time>2021-01-07T10:43:48Z</time><cmt>4.8 kmh</cmt></trkpt>
<trkpt lat="51.682918" lon="03.774381"><ele>4</ele><time>2021-01-07T10:43:49Z</time><cmt>4.6 kmh</cmt></trkpt>
<trkpt lat="51.682924" lon="03.774390"><ele>4</ele><time>2021-01-07T10:43:50Z</time><cmt>4.1 kmh</cmt></trkpt>
<trkpt lat="51.682931" lon="03.774399"><ele>4</ele><time>2021-01-07T10:43:51Z</time><cmt>3.8 kmh</cmt></trkpt>
<trkpt lat="51.682938" lon="03.774405"><ele>4</ele><time>2021-01-07T10:43:52Z</time><cmt>3.6 kmh</cmt></trkpt>
<trkpt lat="51.682945" lon="03.774410"><ele>4</ele><time>2021-01-07T10:43:53Z</time><cmt>2.8 kmh</cmt></trkpt>
<trkpt lat="51.682953" lon="03.774415"><ele>4</ele><time>2021-01-07T10:43:54Z</time><cmt>2.7 kmh</cmt></trkpt>
<trkpt lat="51.682960" lon="03.774419"><ele>4</ele><time>2021-01-07T10:43:55Z</time><cmt>3.4 kmh</cmt></trkpt>
<trkpt lat="51.682966" lon="03.774422"><ele>5</ele><time>2021-01-07T10:43:56Z</time><cmt>3.1 kmh</cmt></trkpt>
<trkpt lat="51.682972" lon="03.774424"><ele>5</ele><time>2021-01-07T10:43:57Z</time><cmt>2.6 kmh</cmt></trkpt>
<trkpt lat="51.682976" lon="03.774424"><ele>5</ele><time>2021-01-07T10:43:58Z</time><cmt>2.1 kmh</cmt></trkpt>
<trkpt lat="51.682980" lon="03.774424"><ele>5</ele><time>2021-01-07T10:43:59Z</time><cmt>1.4 kmh</cmt></trkpt>
<trkpt lat="51.682985" lon="03.774425"><ele>5</ele><time>2021-01-07T10:44:00Z</time><cmt>1.6 kmh</cmt></trkpt>
<trkpt lat="51.682993" lon="03.774430"><ele>5</ele><time>2021-01-07T10:44:01Z</time><cmt>3.0 kmh</cmt></trkpt>
<trkpt lat="51.683001" lon="03.774435"><ele>5</ele><time>2021-01-07T10:44:02Z</time><cmt>3.6 kmh</cmt></trkpt>
<trkpt lat="51.683005" lon="03.774440"><ele>5</ele><time>2021-01-07T10:44:03Z</time><cmt>2.9 kmh</cmt></trkpt>
<trkpt lat="51.683008" lon="03.774443"><ele>5</ele><time>2021-01-07T10:44:04Z</time><cmt>1.9 kmh</cmt></trkpt>
<trkpt lat="51.683011" lon="03.774448"><ele>5</ele><time>2021-01-07T10:44:05Z</time><cmt>1.7 kmh</cmt></trkpt>
<trkpt lat="51.683016" lon="03.774454"><ele>5</ele><time>2021-01-07T10:44:06Z</time><cmt>1.7 kmh</cmt></trkpt>
<trkpt lat="51.683021" lon="03.774459"><ele>6</ele><time>2021-01-07T10:44:07Z</time><cmt>2.0 kmh</cmt></trkpt>
<trkpt lat="51.683026" lon="03.774462"><ele>6</ele><time>2021-01-07T10:44:08Z</time><cmt>2.4 kmh</cmt></trkpt>
<trkpt lat="51.683030" lon="03.774466"><ele>6</ele><time>2021-01-07T10:44:09Z</time><cmt>2.1 kmh</cmt></trkpt>
<trkpt lat="51.683032" lon="03.774468"><ele>6</ele><time>2021-01-07T10:44:10Z</time><cmt>1.6 kmh</cmt></trkpt>
<trkpt lat="51.683034" lon="03.774469"><ele>6</ele><time>2021-01-07T10:44:11Z</time><cmt>0.9 kmh</cmt></trkpt>
<trkpt lat="51.683034" lon="03.774469"><ele>6</ele><time>2021-01-07T10:44:12Z</time><cmt>0.2 kmh</cmt></trkpt>
<trkpt lat="51.683034" lon="03.774469"><ele>6</ele><time>2021-01-07T10:44:13Z</time><cmt>0.0 kmh</cmt></trkpt>
<trkpt lat="51.683034" lon="03.774468"><ele>6</ele><time>2021-01-07T10:44:14Z</time><cmt>0.0 kmh</cmt></trkpt>
<trkpt lat="51.683035" lon="03.774468"><ele>6</ele><time>2021-01-07T10:44:15Z</time><cmt>0.2 kmh</cmt></trkpt>
<trkpt lat="51.683035" lon="03.774468"><ele>6</ele><time>2021-01-07T10:44:16Z</time><cmt>0.2 kmh</cmt></trkpt>
<trkpt lat="51.683035" lon="03.774469"><ele>6</ele><time>2021-01-07T10:44:17Z</time><cmt>0.0 kmh</cmt></trkpt>
<trkpt lat="51.683035" lon="03.774470"><ele>6</ele><time>2021-01-07T10:44:18Z</time><cmt>0.0 kmh</cmt></trkpt>
<trkpt lat="51.683034" lon="03.774470"><ele>6</ele><time>2021-01-07T10:44:19Z</time><cmt>0.0 kmh</cmt></trkpt>
<trkpt lat="51.683034" lon="03.774470"><ele>7</ele><time>2021-01-07T10:44:20Z</time><cmt>0.0 kmh</cmt></trkpt>
<trkpt lat="51.683034" lon="03.774470"><ele>7</ele><time>2021-01-07T10:44:21Z</time><cmt>0.0 kmh</cmt></trkpt>
<trkpt lat="51.683035" lon="03.774471"><ele>7</ele><time>2021-01-07T10:44:23Z</time><cmt>0.0 kmh</cmt></trkpt>
<trkpt lat="51.683035" lon="03.774471"><ele>7</ele><time>2021-01-07T10:44:24Z</time><cmt>0.0 kmh</cmt></trkpt>
<trkpt lat="51.683035" lon="03.774471"><ele>7</ele><time>2021-01-07T10:44:25Z</time><cmt>0.0 kmh</cmt></trkpt>
<trkpt lat="51.683035" lon="03.774472"><ele>8</ele><time>2021-01-07T10:44:26Z</time><cmt>0.0 kmh</cmt></trkpt>
<trkpt lat="51.683035" lon="03.774472"><ele>8</ele><time>2021-01-07T10:44:27Z</time><cmt>0.0 kmh</cmt></trkpt>
<trkpt lat="51.683036" lon="03.774472"><ele>8</ele><time>2021-01-07T10:44:28Z</time><cmt>0.0 kmh</cmt></trkpt>
<trkpt lat="51.683036" lon="03.774472"><ele>8</ele><time>2021-01-07T10:44:29Z</time><cmt>0.0 kmh</cmt></trkpt>
<trkpt lat="51.683036" lon="03.774472"><ele>8</ele><time>2021-01-07T10:44:30Z</time><cmt>0.0 kmh</cmt></trkpt>
<trkpt lat="51.683036" lon="03.774472"><ele>9</ele><time>2021-01-07T10:44:31Z</time><cmt>0.0 kmh</cmt></trkpt>
<trkpt lat="51.683037" lon="03.774472"><ele>9</ele><time>2021-01-07T10:44:32Z</time><cmt>0.1 kmh</cmt></trkpt>
<trkpt lat="51.683037" lon="03.774472"><ele>9</ele><time>2021-01-07T10:44:33Z</time><cmt>0.2 kmh</cmt></trkpt>
<trkpt lat="51.683037" lon="03.774472"><ele>9</ele><time>2021-01-07T10:44:34Z</time><cmt>0.0 kmh</cmt></trkpt>
<trkpt lat="51.683037" lon="03.774473"><ele>9</ele><time>2021-01-07T10:44:35Z</time><cmt>0.0 kmh</cmt></trkpt>
<trkpt lat="51.683037" lon="03.774473"><ele>10</ele><time>2021-01-07T10:44:36Z</time><cmt>0.0 kmh</cmt></trkpt>
<trkpt lat="51.683037" lon="03.774473"><ele>10</ele><time>2021-01-07T10:44:37Z</time><cmt>0.0 kmh</cmt></trkpt>
<trkpt lat="51.683034" lon="03.774473"><ele>11</ele><time>2021-01-07T10:44:43Z</time><cmt>0.7 kmh</cmt></trkpt>
<trkpt lat="51.683032" lon="03.774473"><ele>11</ele><time>2021-01-07T10:44:44Z</time><cmt>0.9 kmh</cmt></trkpt>
<trkpt lat="51.683030" lon="03.774473"><ele>11</ele><time>2021-01-07T10:44:45Z</time><cmt>0.6 kmh</cmt></trkpt>
<trkpt lat="51.683032" lon="03.774472"><ele>11</ele><time>2021-01-07T10:44:46Z</time><cmt>0.9 kmh</cmt></trkpt>
<trkpt lat="51.683034" lon="03.774472"><ele>11</ele><time>2021-01-07T10:44:47Z</time><cmt>0.9 kmh</cmt></trkpt>
<trkpt lat="51.683036" lon="03.774471"><ele>11</ele><time>2021-01-07T10:44:48Z</time><cmt>0.6 kmh</cmt></trkpt>
<trkpt lat="51.683037" lon="03.774471"><ele>11</ele><time>2021-01-07T10:44:49Z</time><cmt>0.5 kmh</cmt></trkpt>
<trkpt lat="51.683038" lon="03.774470"><ele>11</ele><time>2021-01-07T10:44:50Z</time><cmt>0.5 kmh</cmt></trkpt>
<trkpt lat="51.683039" lon="03.774470"><ele>11</ele><time>2021-01-07T10:44:51Z</time><cmt>0.4 kmh</cmt></trkpt>
<trkpt lat="51.683040" lon="03.774469"><ele>11</ele><time>2021-01-07T10:44:52Z</time><cmt>0.4 kmh</cmt></trkpt>
<trkpt lat="51.683041" lon="03.774469"><ele>11</ele><time>2021-01-07T10:44:53Z</time><cmt>0.2 kmh</cmt></trkpt>
<trkpt lat="51.683041" lon="03.774468"><ele>11</ele><time>2021-01-07T10:44:54Z</time><cmt>0.0 kmh</cmt></trkpt>
<trkpt lat="51.683041" lon="03.774468"><ele>11</ele><time>2021-01-07T10:44:55Z</time><cmt>0.0 kmh</cmt></trkpt>
<trkpt lat="51.683041" lon="03.774468"><ele>11</ele><time>2021-01-07T10:44:56Z</time><cmt>0.0 kmh</cmt></trkpt>
<trkpt lat="51.683041" lon="03.774468"><ele>11</ele><time>2021-01-07T10:44:57Z</time><cmt>0.0 kmh</cmt></trkpt>
<trkpt lat="51.683041" lon="03.774468"><ele>11</ele><time>2021-01-07T10:44:58Z</time><cmt>0.0 kmh</cmt></trkpt>
<trkpt lat="51.683041" lon="03.774468"><ele>11</ele><time>2021-01-07T10:44:59Z</time><cmt>0.0 kmh</cmt></trkpt>
<trkpt lat="51.683041" lon="03.774468"><ele>11</ele><time>2021-01-07T10:45:00Z</time><cmt>0.0 kmh</cmt></trkpt>
<trkpt lat="51.683041" lon="03.774468"><ele>11</ele><time>2021-01-07T10:45:01Z</time><cmt>0.0 kmh</cmt></trkpt>
<trkpt lat="51.683041" lon="03.774468"><ele>11</ele><time>2021-01-07T10:45:02Z</time><cmt>0.0 kmh</cmt></trkpt>
<trkpt lat="51.683041" lon="03.774468"><ele>11</ele><time>2021-01-07T10:45:03Z</time><cmt>0.0 kmh</cmt></trkpt>
<trkpt lat="51.683041" lon="03.774468"><ele>11</ele><time>2021-01-07T10:45:04Z</time><cmt>0.0 kmh</cmt></trkpt>
<trkpt lat="51.683040" lon="03.774468"><ele>11</ele><time>2021-01-07T10:45:05Z</time><cmt>0.0 kmh</cmt></trkpt>
<trkpt lat="51.683040" lon="03.774468"><ele>11</ele><time>2021-01-07T10:45:07Z</time><cmt>0.0 kmh</cmt></trkpt>
<trkpt lat="51.683040" lon="03.774468"><ele>11</ele><time>2021-01-07T10:45:08Z</time><cmt>0.2 kmh</cmt></trkpt>
<trkpt lat="51.683039" lon="03.774468"><ele>11</ele><time>2021-01-07T10:45:09Z</time><cmt>0.4 kmh</cmt></trkpt>
<trkpt lat="51.683039" lon="03.774468"><ele>10</ele><time>2021-01-07T10:45:10Z</time><cmt>0.2 kmh</cmt></trkpt>
<trkpt lat="51.683039" lon="03.774468"><ele>10</ele><time>2021-01-07T10:45:11Z</time><cmt>0.0 kmh</cmt></trkpt>
<trkpt lat="51.683038" lon="03.774468"><ele>10</ele><time>2021-01-07T10:45:12Z</time><cmt>0.0 kmh</cmt></trkpt>
<trkpt lat="51.683038" lon="03.774467"><ele>10</ele><time>2021-01-07T10:45:13Z</time><cmt>0.2 kmh</cmt></trkpt>
<trkpt lat="51.683039" lon="03.774467"><ele>10</ele><time>2021-01-07T10:45:14Z</time><cmt>0.2 kmh</cmt></trkpt>
<trkpt lat="51.683038" lon="03.774466"><ele>10</ele><time>2021-01-07T10:45:15Z</time><cmt>0.0 kmh</cmt></trkpt>
<trkpt lat="51.683038" lon="03.774466"><ele>10</ele><time>2021-01-07T10:45:16Z</time><cmt>0.0 kmh</cmt></trkpt>
<trkpt lat="51.683037" lon="03.774466"><ele>9</ele><time>2021-01-07T10:45:17Z</time><cmt>0.0 kmh</cmt></trkpt>
<trkpt lat="51.683037" lon="03.774466"><ele>9</ele><time>2021-01-07T10:45:18Z</time><cmt>0.0 kmh</cmt></trkpt>
<trkpt lat="51.683036" lon="03.774465"><ele>9</ele><time>2021-01-07T10:45:19Z</time><cmt>0.3 kmh</cmt></trkpt>
<trkpt lat="51.683035" lon="03.774465"><ele>9</ele><time>2021-01-07T10:45:20Z</time><cmt>0.4 kmh</cmt></trkpt>
<trkpt lat="51.683034" lon="03.774465"><ele>9</ele><time>2021-01-07T10:45:21Z</time><cmt>0.4 kmh</cmt></trkpt>
<trkpt lat="51.683033" lon="03.774465"><ele>8</ele><time>2021-01-07T10:45:22Z</time><cmt>0.4 kmh</cmt></trkpt>
<trkpt lat="51.683033" lon="03.774465"><ele>8</ele><time>2021-01-07T10:45:23Z</time><cmt>0.4 kmh</cmt></trkpt>
<trkpt lat="51.683033" lon="03.774465"><ele>8</ele><time>2021-01-07T10:45:24Z</time><cmt>0.3 kmh</cmt></trkpt>
<trkpt lat="51.683032" lon="03.774465"><ele>8</ele><time>2021-01-07T10:45:25Z</time><cmt>0.0 kmh</cmt></trkpt>
<trkpt lat="51.683032" lon="03.774465"><ele>7</ele><time>2021-01-07T10:45:26Z</time><cmt>0.0 kmh</cmt></trkpt>
<trkpt lat="51.683032" lon="03.774465"><ele>7</ele><time>2021-01-07T10:45:27Z</time><cmt>0.0 kmh</cmt></trkpt>
<trkpt lat="51.683032" lon="03.774466"><ele>7</ele><time>2021-01-07T10:45:28Z</time><cmt>0.0 kmh</cmt></trkpt>
<trkpt lat="51.683034" lon="03.774470"><ele>7</ele><time>2021-01-07T10:45:29Z</time><cmt>0.4 kmh</cmt></trkpt>
<trkpt lat="51.683038" lon="03.774477"><ele>7</ele><time>2021-01-07T10:45:30Z</time><cmt>1.9 kmh</cmt></trkpt>
<trkpt lat="51.683043" lon="03.774487"><ele>7</ele><time>2021-01-07T10:45:31Z</time><cmt>3.0 kmh</cmt></trkpt>
<trkpt lat="51.683048" lon="03.774500"><ele>6</ele><time>2021-01-07T10:45:32Z</time><cmt>3.7 kmh</cmt></trkpt>
<trkpt lat="51.683053" lon="03.774512"><ele>6</ele><time>2021-01-07T10:45:33Z</time><cmt>4.0 kmh</cmt></trkpt>
<trkpt lat="51.683058" lon="03.774523"><ele>6</ele><time>2021-01-07T10:45:34Z</time><cmt>3.1 kmh</cmt></trkpt>
<trkpt lat="51.683062" lon="03.774535"><ele>6</ele><time>2021-01-07T10:45:35Z</time><cmt>2.9 kmh</cmt></trkpt>
<trkpt lat="51.683066" lon="03.774547"><ele>6</ele><time>2021-01-07T10:45:36Z</time><cmt>3.7 kmh</cmt></trkpt>
<trkpt lat="51.683072" lon="03.774561"><ele>6</ele><time>2021-01-07T10:45:37Z</time><cmt>4.1 kmh</cmt></trkpt>
<trkpt lat="51.683078" lon="03.774574"><ele>6</ele><time>2021-01-07T10:45:38Z</time><cmt>4.4 kmh</cmt></trkpt>
<trkpt lat="51.683084" lon="03.774586"><ele>5</ele><time>2021-01-07T10:45:39Z</time><cmt>4.3 kmh</cmt></trkpt>
<trkpt lat="51.683091" lon="03.774599"><ele>5</ele><time>2021-01-07T10:45:40Z</time><cmt>4.4 kmh</cmt></trkpt>
<trkpt lat="51.683098" lon="03.774610"><ele>5</ele><time>2021-01-07T10:45:41Z</time><cmt>4.4 kmh</cmt></trkpt>
<trkpt lat="51.683105" lon="03.774620"><ele>5</ele><time>2021-01-07T10:45:42Z</time><cmt>3.3 kmh</cmt></trkpt>
<trkpt lat="51.683110" lon="03.774633"><ele>5</ele><time>2021-01-07T10:45:43Z</time><cmt>3.2 kmh</cmt></trkpt>
<trkpt lat="51.683115" lon="03.774645"><ele>5</ele><time>2021-01-07T10:45:44Z</time><cmt>4.1 kmh</cmt></trkpt>
<trkpt lat="51.683121" lon="03.774656"><ele>5</ele><time>2021-01-07T10:45:45Z</time><cmt>3.9 kmh</cmt></trkpt>
<trkpt lat="51.683126" lon="03.774663"><ele>5</ele><time>2021-01-07T10:45:46Z</time><cmt>3.3 kmh</cmt></trkpt>
<trkpt lat="51.683129" lon="03.774666"><ele>5</ele><time>2021-01-07T10:45:47Z</time><cmt>1.8 kmh</cmt></trkpt>
<trkpt lat="51.683131" lon="03.774667"><ele>5</ele><time>2021-01-07T10:45:48Z</time><cmt>0.9 kmh</cmt></trkpt>
<trkpt lat="51.683132" lon="03.774672"><ele>5</ele><time>2021-01-07T10:45:49Z</time><cmt>1.1 kmh</cmt></trkpt>
<trkpt lat="51.683133" lon="03.774680"><ele>5</ele><time>2021-01-07T10:45:50Z</time><cmt>1.8 kmh</cmt></trkpt>
<trkpt lat="51.683136" lon="03.774690"><ele>5</ele><time>2021-01-07T10:45:51Z</time><cmt>2.5 kmh</cmt></trkpt>
<trkpt lat="51.683140" lon="03.774700"><ele>5</ele><time>2021-01-07T10:45:52Z</time><cmt>3.0 kmh</cmt></trkpt>
<trkpt lat="51.683143" lon="03.774709"><ele>5</ele><time>2021-01-07T10:45:53Z</time><cmt>2.4 kmh</cmt></trkpt>
<trkpt lat="51.683147" lon="03.774718"><ele>5</ele><time>2021-01-07T10:45:54Z</time><cmt>2.9 kmh</cmt></trkpt>
<trkpt lat="51.683152" lon="03.774728"><ele>5</ele><time>2021-01-07T10:45:55Z</time><cmt>3.1 kmh</cmt></trkpt>
<trkpt lat="51.683157" lon="03.774740"><ele>5</ele><time>2021-01-07T10:45:56Z</time><cmt>2.9 kmh</cmt></trkpt>
<trkpt lat="51.683163" lon="03.774752"><ele>5</ele><time>2021-01-07T10:45:57Z</time><cmt>4.0 kmh</cmt></trkpt>
<trkpt lat="51.683168" lon="03.774766"><ele>5</ele><time>2021-01-07T10:45:58Z</time><cmt>4.3 kmh</cmt></trkpt>
<trkpt lat="51.683174" lon="03.774780"><ele>5</ele><time>2021-01-07T10:45:59Z</time><cmt>4.4 kmh</cmt></trkpt>
<trkpt lat="51.683179" lon="03.774794"><ele>5</ele><time>2021-01-07T10:46:00Z</time><cmt>3.5 kmh</cmt></trkpt>
<trkpt lat="51.683184" lon="03.774808"><ele>5</ele><time>2021-01-07T10:46:01Z</time><cmt>3.5 kmh</cmt></trkpt>
<trkpt lat="51.683189" lon="03.774821"><ele>5</ele><time>2021-01-07T10:46:02Z</time><cmt>4.2 kmh</cmt></trkpt>
<trkpt lat="51.683194" lon="03.774832"><ele>5</ele><time>2021-01-07T10:46:03Z</time><cmt>3.9 kmh</cmt></trkpt>
<trkpt lat="51.683201" lon="03.774846"><ele>4</ele><time>2021-01-07T10:46:04Z</time><cmt>4.2 kmh</cmt></trkpt>
<trkpt lat="51.683207" lon="03.774860"><ele>4</ele><time>2021-01-07T10:46:05Z</time><cmt>4.6 kmh</cmt></trkpt>
<trkpt lat="51.683213" lon="03.774874"><ele>4</ele><time>2021-01-07T10:46:06Z</time><cmt>3.6 kmh</cmt></trkpt>
<trkpt lat="51.683217" lon="03.774887"><ele>4</ele><time>2021-01-07T10:46:07Z</time><cmt>3.4 kmh</cmt></trkpt>
<trkpt lat="51.683223" lon="03.774900"><ele>4</ele><time>2021-01-07T10:46:08Z</time><cmt>4.2 kmh</cmt></trkpt>
<trkpt lat="51.683228" lon="03.774915"><ele>4</ele><time>2021-01-07T10:46:09Z</time><cmt>4.4 kmh</cmt></trkpt>
<trkpt lat="51.683234" lon="03.774929"><ele>4</ele><time>2021-01-07T10:46:10Z</time><cmt>4.5 kmh</cmt></trkpt>
<trkpt lat="51.683240" lon="03.774942"><ele>4</ele><time>2021-01-07T10:46:11Z</time><cmt>4.4 kmh</cmt></trkpt>
<trkpt lat="51.683246" lon="03.774954"><ele>4</ele><time>2021-01-07T10:46:12Z</time><cmt>3.4 kmh</cmt></trkpt>
<trkpt lat="51.683251" lon="03.774966"><ele>4</ele><time>2021-01-07T10:46:13Z</time><cmt>3.3 kmh</cmt></trkpt>
<trkpt lat="51.683256" lon="03.774977"><ele>4</ele><time>2021-01-07T10:46:14Z</time><cmt>3.9 kmh</cmt></trkpt>
<trkpt lat="51.683261" lon="03.774989"><ele>4</ele><time>2021-01-07T10:46:15Z</time><cmt>3.8 kmh</cmt></trkpt>
<trkpt lat="51.683267" lon="03.775003"><ele>4</ele><time>2021-01-07T10:46:16Z</time><cmt>4.1 kmh</cmt></trkpt>
<trkpt lat="51.683272" lon="03.775016"><ele>4</ele><time>2021-01-07T10:46:17Z</time><cmt>4.3 kmh</cmt></trkpt>
<trkpt lat="51.683276" lon="03.775029"><ele>4</ele><time>2021-01-07T10:46:18Z</time><cmt>4.1 kmh</cmt></trkpt>
<trkpt lat="51.683280" lon="03.775043"><ele>4</ele><time>2021-01-07T10:46:19Z</time><cmt>3.2 kmh</cmt></trkpt>
<trkpt lat="51.683285" lon="03.775055"><ele>4</ele><time>2021-01-07T10:46:20Z</time><cmt>3.2 kmh</cmt></trkpt>
<trkpt lat="51.683291" lon="03.775067"><ele>4</ele><time>2021-01-07T10:46:21Z</time><cmt>3.9 kmh</cmt></trkpt>
<trkpt lat="51.683296" lon="03.775078"><ele>4</ele><time>2021-01-07T10:46:22Z</time><cmt>4.0 kmh</cmt></trkpt>
<trkpt lat="51.683301" lon="03.775091"><ele>4</ele><time>2021-01-07T10:46:23Z</time><cmt>3.9 kmh</cmt></trkpt>
<trkpt lat="51.683305" lon="03.775103"><ele>4</ele><time>2021-01-07T10:46:24Z</time><cmt>3.8 kmh</cmt></trkpt>
<trkpt lat="51.683310" lon="03.775115"><ele>4</ele><time>2021-01-07T10:46:25Z</time><cmt>3.7 kmh</cmt></trkpt>
<trkpt lat="51.683318" lon="03.775126"><ele>4</ele><time>2021-01-07T10:46:26Z</time><cmt>3.3 kmh</cmt></trkpt>
<trkpt lat="51.683315" lon="03.775137"><ele>4</ele><time>2021-01-07T10:46:27Z</time><cmt>3.0 kmh</cmt></trkpt>
<trkpt lat="51.683307" lon="03.775146"><ele>4</ele><time>2021-01-07T10:46:28Z</time><cmt>3.7 kmh</cmt></trkpt>
<trkpt lat="51.683300" lon="03.775157"><ele>4</ele><time>2021-01-07T10:46:29Z</time><cmt>4.2 kmh</cmt></trkpt>
<trkpt lat="51.683294" lon="03.775172"><ele>4</ele><time>2021-01-07T10:46:30Z</time><cmt>4.5 kmh</cmt></trkpt>
<trkpt lat="51.683288" lon="03.775188"><ele>3</ele><time>2021-01-07T10:46:31Z</time><cmt>3.9 kmh</cmt></trkpt>
<trkpt lat="51.683288" lon="03.775203"><ele>3</ele><time>2021-01-07T10:46:32Z</time><cmt>3.6 kmh</cmt></trkpt>
<trkpt lat="51.683291" lon="03.775218"><ele>3</ele><time>2021-01-07T10:46:33Z</time><cmt>4.1 kmh</cmt></trkpt>
<trkpt lat="51.683296" lon="03.775231"><ele>3</ele><time>2021-01-07T10:46:34Z</time><cmt>4.2 kmh</cmt></trkpt>
<trkpt lat="51.683301" lon="03.775242"><ele>2</ele><time>2021-01-07T10:46:35Z</time><cmt>3.9 kmh</cmt></trkpt>
<trkpt lat="51.683307" lon="03.775254"><ele>2</ele><time>2021-01-07T10:46:36Z</time><cmt>3.9 kmh</cmt></trkpt>
<trkpt lat="51.683311" lon="03.775267"><ele>2</ele><time>2021-01-07T10:46:37Z</time><cmt>3.9 kmh</cmt></trkpt>
<trkpt lat="51.683314" lon="03.775279"><ele>2</ele><time>2021-01-07T10:46:38Z</time><cmt>2.9 kmh</cmt></trkpt>
<trkpt lat="51.683316" lon="03.775291"><ele>2</ele><time>2021-01-07T10:46:39Z</time><cmt>2.7 kmh</cmt></trkpt>
<trkpt lat="51.683318" lon="03.775304"><ele>2</ele><time>2021-01-07T10:46:40Z</time><cmt>3.5 kmh</cmt></trkpt>
<trkpt lat="51.683322" lon="03.775318"><ele>2</ele><time>2021-01-07T10:46:41Z</time><cmt>3.8 kmh</cmt></trkpt>
<trkpt lat="51.683326" lon="03.775331"><ele>1</ele><time>2021-01-07T10:46:42Z</time><cmt>4.0 kmh</cmt></trkpt>
<trkpt lat="51.683333" lon="03.775343"><ele>1</ele><time>2021-01-07T10:46:43Z</time><cmt>4.2 kmh</cmt></trkpt>
<trkpt lat="51.683336" lon="03.775355"><ele>1</ele><time>2021-01-07T10:46:44Z</time><cmt>3.2 kmh</cmt></trkpt>
<trkpt lat="51.683340" lon="03.775367"><ele>1</ele><time>2021-01-07T10:46:45Z</time><cmt>2.9 kmh</cmt></trkpt>
<trkpt lat="51.683343" lon="03.775379"><ele>1</ele><time>2021-01-07T10:46:46Z</time><cmt>3.5 kmh</cmt></trkpt>
<trkpt lat="51.683348" lon="03.775388"><ele>1</ele><time>2021-01-07T10:46:47Z</time><cmt>3.4 kmh</cmt></trkpt>
<trkpt lat="51.683353" lon="03.775397"><ele>1</ele><time>2021-01-07T10:46:48Z</time><cmt>3.2 kmh</cmt></trkpt>
<trkpt lat="51.683358" lon="03.775405"><ele>1</ele><time>2021-01-07T10:46:49Z</time><cmt>2.9 kmh</cmt></trkpt>
<trkpt lat="51.683362" lon="03.775411"><ele>1</ele><time>2021-01-07T10:46:50Z</time><cmt>2.8 kmh</cmt></trkpt>
<trkpt lat="51.683367" lon="03.775418"><ele>0</ele><time>2021-01-07T10:46:51Z</time><cmt>2.1 kmh</cmt></trkpt>
<trkpt lat="51.683371" lon="03.775425"><ele>0</ele><time>2021-01-07T10:46:52Z</time><cmt>2.1 kmh</cmt></trkpt>
<trkpt lat="51.683374" lon="03.775432"><ele>0</ele><time>2021-01-07T10:46:53Z</time><cmt>2.5 kmh</cmt></trkpt>
<trkpt lat="51.683377" lon="03.775438"><ele>0</ele><time>2021-01-07T10:46:54Z</time><cmt>2.1 kmh</cmt></trkpt>
<trkpt lat="51.683381" lon="03.775444"><ele>0</ele><time>2021-01-07T10:46:55Z</time><cmt>2.1 kmh</cmt></trkpt>
<trkpt lat="51.683384" lon="03.775450"><ele>0</ele><time>2021-01-07T10:46:56Z</time><cmt>2.2 kmh</cmt></trkpt>
<trkpt lat="51.683386" lon="03.775453"><ele>0</ele><time>2021-01-07T10:46:57Z</time><cmt>1.3 kmh</cmt></trkpt>
<trkpt lat="51.683389" lon="03.775454"><ele>0</ele><time>2021-01-07T10:46:58Z</time><cmt>0.9 kmh</cmt></trkpt>
<trkpt lat="51.683392" lon="03.775456"><ele>0</ele><time>2021-01-07T10:46:59Z</time><cmt>1.2 kmh</cmt></trkpt>
<trkpt lat="51.683396" lon="03.775459"><ele>0</ele><time>2021-01-07T10:47:00Z</time><cmt>1.6 kmh</cmt></trkpt>
<trkpt lat="51.683400" lon="03.775461"><ele>0</ele><time>2021-01-07T10:47:01Z</time><cmt>2.0 kmh</cmt></trkpt>
<trkpt lat="51.683404" lon="03.775463"><ele>0</ele><time>2021-01-07T10:47:02Z</time><cmt>2.0 kmh</cmt></trkpt>
<trkpt lat="51.683406" lon="03.775463"><ele>0</ele><time>2021-01-07T10:47:03Z</time><cmt>1.1 kmh</cmt></trkpt>
<trkpt lat="51.683409" lon="03.775462"><ele>0</ele><time>2021-01-07T10:47:04Z</time><cmt>0.9 kmh</cmt></trkpt>
<trkpt lat="51.683412" lon="03.775463"><ele>0</ele><time>2021-01-07T10:47:05Z</time><cmt>1.1 kmh</cmt></trkpt>
<trkpt lat="51.683413" lon="03.775462"><ele>0</ele><time>2021-01-07T10:47:06Z</time><cmt>0.9 kmh</cmt></trkpt>
<trkpt lat="51.683415" lon="03.775462"><ele>0</ele><time>2021-01-07T10:47:07Z</time><cmt>0.8 kmh</cmt></trkpt>
<trkpt lat="51.683419" lon="03.775461"><ele>0</ele><time>2021-01-07T10:47:08Z</time><cmt>1.1 kmh</cmt></trkpt>
<trkpt lat="51.683423" lon="03.775460"><ele>0</ele><time>2021-01-07T10:47:09Z</time><cmt>1.6 kmh</cmt></trkpt>
<trkpt lat="51.683428" lon="03.775461"><ele>0</ele><time>2021-01-07T10:47:10Z</time><cmt>1.5 kmh</cmt></trkpt>
<trkpt lat="51.683430" lon="03.775462"><ele>0</ele><time>2021-01-07T10:47:11Z</time><cmt>1.3 kmh</cmt></trkpt>
<trkpt lat="51.683432" lon="03.775462"><ele>0</ele><time>2021-01-07T10:47:12Z</time><cmt>0.8 kmh</cmt></trkpt>
<trkpt lat="51.683433" lon="03.775462"><ele>0</ele><time>2021-01-07T10:47:13Z</time><cmt>0.6 kmh</cmt></trkpt>
<trkpt lat="51.683435" lon="03.775463"><ele>0</ele><time>2021-01-07T10:47:14Z</time><cmt>0.8 kmh</cmt></trkpt>
<trkpt lat="51.683436" lon="03.775464"><ele>0</ele><time>2021-01-07T10:47:15Z</time><cmt>0.8 kmh</cmt></trkpt>
<trkpt lat="51.683437" lon="03.775464"><ele>0</ele><time>2021-01-07T10:47:16Z</time><cmt>0.6 kmh</cmt></trkpt>
<trkpt lat="51.683438" lon="03.775464"><ele>0</ele><time>2021-01-07T10:47:17Z</time><cmt>0.5 kmh</cmt></trkpt>
<trkpt lat="51.683439" lon="03.775464"><ele>0</ele><time>2021-01-07T10:47:18Z</time><cmt>0.3 kmh</cmt></trkpt>
<trkpt lat="51.683440" lon="03.775464"><ele>0</ele><time>2021-01-07T10:47:19Z</time><cmt>0.0 kmh</cmt></trkpt>
<trkpt lat="51.683440" lon="03.775464"><ele>0</ele><time>2021-01-07T10:47:20Z</time><cmt>0.2 kmh</cmt></trkpt>
<trkpt lat="51.683441" lon="03.775464"><ele>1</ele><time>2021-01-07T10:47:21Z</time><cmt>0.2 kmh</cmt></trkpt>
<trkpt lat="51.683442" lon="03.775463"><ele>1</ele><time>2021-01-07T10:47:22Z</time><cmt>0.0 kmh</cmt></trkpt>
<trkpt lat="51.683443" lon="03.775463"><ele>1</ele><time>2021-01-07T10:47:23Z</time><cmt>0.0 kmh</cmt></trkpt>
<trkpt lat="51.683443" lon="03.775463"><ele>1</ele><time>2021-01-07T10:47:24Z</time><cmt>0.0 kmh</cmt></trkpt>
<trkpt lat="51.683444" lon="03.775463"><ele>1</ele><time>2021-01-07T10:47:25Z</time><cmt>0.0 kmh</cmt></trkpt>
<trkpt lat="51.683445" lon="03.775463"><ele>1</ele><time>2021-01-07T10:47:26Z</time><cmt>0.3 kmh</cmt></trkpt>
<trkpt lat="51.683446" lon="03.775463"><ele>1</ele><time>2021-01-07T10:47:27Z</time><cmt>0.4 kmh</cmt></trkpt>
<trkpt lat="51.683447" lon="03.775463"><ele>1</ele><time>2021-01-07T10:47:28Z</time><cmt>0.2 kmh</cmt></trkpt>
<trkpt lat="51.683448" lon="03.775463"><ele>1</ele><time>2021-01-07T10:47:29Z</time><cmt>0.0 kmh</cmt></trkpt>
<trkpt lat="51.683448" lon="03.775463"><ele>1</ele><time>2021-01-07T10:47:30Z</time><cmt>0.0 kmh</cmt></trkpt>
<trkpt lat="51.683449" lon="03.775463"><ele>1</ele><time>2021-01-07T10:47:31Z</time><cmt>0.0 kmh</cmt></trkpt>
<trkpt lat="51.683450" lon="03.775463"><ele>1</ele><time>2021-01-07T10:47:32Z</time><cmt>0.0 kmh</cmt></trkpt>
<trkpt lat="51.683451" lon="03.775463"><ele>1</ele><time>2021-01-07T10:47:33Z</time><cmt>0.3 kmh</cmt></trkpt>
<trkpt lat="51.683452" lon="03.775463"><ele>2</ele><time>2021-01-07T10:47:34Z</time><cmt>0.5 kmh</cmt></trkpt>
<trkpt lat="51.683452" lon="03.775463"><ele>2</ele><time>2021-01-07T10:47:35Z</time><cmt>0.2 kmh</cmt></trkpt>
<trkpt lat="51.683453" lon="03.775464"><ele>2</ele><time>2021-01-07T10:47:36Z</time><cmt>0.1 kmh</cmt></trkpt>
<trkpt lat="51.683454" lon="03.775464"><ele>2</ele><time>2021-01-07T10:47:37Z</time><cmt>0.4 kmh</cmt></trkpt>
<trkpt lat="51.683455" lon="03.775464"><ele>2</ele><time>2021-01-07T10:47:38Z</time><cmt>0.3 kmh</cmt></trkpt>
<trkpt lat="51.683456" lon="03.775464"><ele>2</ele><time>2021-01-07T10:47:39Z</time><cmt>0.0 kmh</cmt></trkpt>
<trkpt lat="51.683457" lon="03.775464"><ele>2</ele><time>2021-01-07T10:47:40Z</time><cmt>0.0 kmh</cmt></trkpt>
<trkpt lat="51.683458" lon="03.775464"><ele>2</ele><time>2021-01-07T10:47:41Z</time><cmt>0.0 kmh</cmt></trkpt>
<trkpt lat="51.683459" lon="03.775464"><ele>2</ele><time>2021-01-07T10:47:42Z</time><cmt>0.0 kmh</cmt></trkpt>
<trkpt lat="51.683460" lon="03.775464"><ele>2</ele><time>2021-01-07T10:47:43Z</time><cmt>0.0 kmh</cmt></trkpt>
<trkpt lat="51.683460" lon="03.775465"><ele>2</ele><time>2021-01-07T10:47:44Z</time><cmt>0.0 kmh</cmt></trkpt>
<trkpt lat="51.683460" lon="03.775465"><ele>2</ele><time>2021-01-07T10:47:45Z</time><cmt>0.0 kmh</cmt></trkpt>
<trkpt lat="51.683460" lon="03.775465"><ele>3</ele><time>2021-01-07T10:47:46Z</time><cmt>0.0 kmh</cmt></trkpt>
<trkpt lat="51.683478" lon="03.775506"><ele>3</ele><time>2021-01-07T10:48:07Z</time><cmt>3.8 kmh</cmt></trkpt>
<trkpt lat="51.683480" lon="03.775502"><ele>3</ele><time>2021-01-07T10:48:08Z</time><cmt>4.3 kmh</cmt></trkpt>
<trkpt lat="51.683484" lon="03.775500"><ele>3</ele><time>2021-01-07T10:48:09Z</time><cmt>1.7 kmh</cmt></trkpt>
<trkpt lat="51.683490" lon="03.775500"><ele>3</ele><time>2021-01-07T10:48:10Z</time><cmt>2.2 kmh</cmt></trkpt>
<trkpt lat="51.683495" lon="03.775501"><ele>3</ele><time>2021-01-07T10:48:11Z</time><cmt>2.3 kmh</cmt></trkpt>
<trkpt lat="51.683499" lon="03.775501"><ele>3</ele><time>2021-01-07T10:48:12Z</time><cmt>1.8 kmh</cmt></trkpt>
<trkpt lat="51.683494" lon="03.775502"><ele>3</ele><time>2021-01-07T10:48:13Z</time><cmt>1.7 kmh</cmt></trkpt>
<trkpt lat="51.683492" lon="03.775504"><ele>3</ele><time>2021-01-07T10:48:14Z</time><cmt>1.2 kmh</cmt></trkpt>
<trkpt lat="51.683491" lon="03.775504"><ele>3</ele><time>2021-01-07T10:48:15Z</time><cmt>0.6 kmh</cmt></trkpt>
<trkpt lat="51.683490" lon="03.775503"><ele>3</ele><time>2021-01-07T10:48:16Z</time><cmt>0.4 kmh</cmt></trkpt>
<trkpt lat="51.683489" lon="03.775503"><ele>2</ele><time>2021-01-07T10:48:17Z</time><cmt>0.5 kmh</cmt></trkpt>
<trkpt lat="51.683488" lon="03.775503"><ele>2</ele><time>2021-01-07T10:48:18Z</time><cmt>0.5 kmh</cmt></trkpt>
<trkpt lat="51.683486" lon="03.775504"><ele>2</ele><time>2021-01-07T10:48:19Z</time><cmt>0.5 kmh</cmt></trkpt>
<trkpt lat="51.683486" lon="03.775505"><ele>2</ele><time>2021-01-07T10:48:20Z</time><cmt>0.4 kmh</cmt></trkpt>
<trkpt lat="51.683486" lon="03.775502"><ele>2</ele><time>2021-01-07T10:48:21Z</time><cmt>0.4 kmh</cmt></trkpt>
<trkpt lat="51.683487" lon="03.775499"><ele>1</ele><time>2021-01-07T10:48:22Z</time><cmt>0.8 kmh</cmt></trkpt>
<trkpt lat="51.683489" lon="03.775497"><ele>1</ele><time>2021-01-07T10:48:23Z</time><cmt>1.0 kmh</cmt></trkpt>
<trkpt lat="51.683489" lon="03.775496"><ele>1</ele><time>2021-01-07T10:48:24Z</time><cmt>0.4 kmh</cmt></trkpt>
<trkpt lat="51.683489" lon="03.775496"><ele>1</ele><time>2021-01-07T10:48:25Z</time><cmt>0.0 kmh</cmt></trkpt>
<trkpt lat="51.683489" lon="03.775496"><ele>1</ele><time>2021-01-07T10:48:26Z</time><cmt>0.0 kmh</cmt></trkpt>
<trkpt lat="51.683489" lon="03.775496"><ele>1</ele><time>2021-01-07T10:48:27Z</time><cmt>0.0 kmh</cmt></trkpt>
<trkpt lat="51.683490" lon="03.775496"><ele>1</ele><time>2021-01-07T10:48:28Z</time><cmt>0.0 kmh</cmt></trkpt>
<trkpt lat="51.683490" lon="03.775496"><ele>1</ele><time>2021-01-07T10:48:29Z</time><cmt>0.0 kmh</cmt></trkpt>
<trkpt lat="51.683461" lon="03.775557"><ele>7</ele><time>2021-01-07T11:09:43Z</time><cmt>1.2 kmh</cmt></trkpt>
<trkpt lat="51.683461" lon="03.775558"><ele>6</ele><time>2021-01-07T11:09:44Z</time><cmt>0.7 kmh</cmt></trkpt>
<trkpt lat="51.683462" lon="03.775559"><ele>6</ele><time>2021-01-07T11:09:45Z</time><cmt>0.4 kmh</cmt></trkpt>
<trkpt lat="51.683464" lon="03.775560"><ele>6</ele><time>2021-01-07T11:09:46Z</time><cmt>0.7 kmh</cmt></trkpt>
<trkpt lat="51.683467" lon="03.775565"><ele>6</ele><time>2021-01-07T11:09:47Z</time><cmt>1.4 kmh</cmt></trkpt>
<trkpt lat="51.683472" lon="03.775575"><ele>6</ele><time>2021-01-07T11:09:48Z</time><cmt>2.6 kmh</cmt></trkpt>
<trkpt lat="51.683477" lon="03.775587"><ele>6</ele><time>2021-01-07T11:09:49Z</time><cmt>2.9 kmh</cmt></trkpt>
<trkpt lat="51.683483" lon="03.775598"><ele>6</ele><time>2021-01-07T11:09:50Z</time><cmt>3.1 kmh</cmt></trkpt>
<trkpt lat="51.683488" lon="03.775611"><ele>6</ele><time>2021-01-07T11:09:51Z</time><cmt>4.1 kmh</cmt></trkpt>
<trkpt lat="51.683494" lon="03.775624"><ele>6</ele><time>2021-01-07T11:09:52Z</time><cmt>4.2 kmh</cmt></trkpt>
<trkpt lat="51.683501" lon="03.775637"><ele>6</ele><time>2021-01-07T11:09:53Z</time><cmt>4.4 kmh</cmt></trkpt>
<trkpt lat="51.683507" lon="03.775651"><ele>5</ele><time>2021-01-07T11:09:54Z</time><cmt>4.5 kmh</cmt></trkpt>
<trkpt lat="51.683513" lon="03.775664"><ele>5</ele><time>2021-01-07T11:09:55Z</time><cmt>3.5 kmh</cmt></trkpt>
<trkpt lat="51.683516" lon="03.775674"><ele>5</ele><time>2021-01-07T11:09:56Z</time><cmt>2.9 kmh</cmt></trkpt>
<trkpt lat="51.683519" lon="03.775679"><ele>5</ele><time>2021-01-07T11:09:57Z</time><cmt>2.5 kmh</cmt></trkpt>
<trkpt lat="51.683524" lon="03.775686"><ele>5</ele><time>2021-01-07T11:09:58Z</time><cmt>2.3 kmh</cmt></trkpt>
<trkpt lat="51.683529" lon="03.775697"><ele>5</ele><time>2021-01-07T11:09:59Z</time><cmt>3.3 kmh</cmt></trkpt>
<trkpt lat="51.683535" lon="03.775710"><ele>5</ele><time>2021-01-07T11:10:00Z</time><cmt>4.1 kmh</cmt></trkpt>
<trkpt lat="51.683542" lon="03.775724"><ele>4</ele><time>2021-01-07T11:10:01Z</time><cmt>4.5 kmh</cmt></trkpt>
<trkpt lat="51.683549" lon="03.775737"><ele>4</ele><time>2021-01-07T11:10:02Z</time><cmt>3.7 kmh</cmt></trkpt>
<trkpt lat="51.683555" lon="03.775751"><ele>4</ele><time>2021-01-07T11:10:03Z</time><cmt>3.7 kmh</cmt></trkpt>
<trkpt lat="51.683562" lon="03.775764"><ele>4</ele><time>2021-01-07T11:10:04Z</time><cmt>4.6 kmh</cmt></trkpt>
<trkpt lat="51.683567" lon="03.775776"><ele>4</ele><time>2021-01-07T11:10:05Z</time><cmt>4.2 kmh</cmt></trkpt>
<trkpt lat="51.683573" lon="03.775787"><ele>4</ele><time>2021-01-07T11:10:06Z</time><cmt>3.8 kmh</cmt></trkpt>
<trkpt lat="51.683578" lon="03.775798"><ele>4</ele><time>2021-01-07T11:10:07Z</time><cmt>3.9 kmh</cmt></trkpt>
<trkpt lat="51.683585" lon="03.775811"><ele>4</ele><time>2021-01-07T11:10:08Z</time><cmt>3.3 kmh</cmt></trkpt>
<trkpt lat="51.683590" lon="03.775823"><ele>4</ele><time>2021-01-07T11:10:09Z</time><cmt>3.4 kmh</cmt></trkpt>
<trkpt lat="51.683596" lon="03.775835"><ele>3</ele><time>2021-01-07T11:10:10Z</time><cmt>4.2 kmh</cmt></trkpt>
<trkpt lat="51.683602" lon="03.775846"><ele>3</ele><time>2021-01-07T11:10:11Z</time><cmt>4.0 kmh</cmt></trkpt>
<trkpt lat="51.683608" lon="03.775857"><ele>3</ele><time>2021-01-07T11:10:12Z</time><cmt>3.9 kmh</cmt></trkpt>
<trkpt lat="51.683614" lon="03.775868"><ele>3</ele><time>2021-01-07T11:10:13Z</time><cmt>4.0 kmh</cmt></trkpt>
<trkpt lat="51.683621" lon="03.775878"><ele>3</ele><time>2021-01-07T11:10:14Z</time><cmt>3.2 kmh</cmt></trkpt>
<trkpt lat="51.683629" lon="03.775886"><ele>3</ele><time>2021-01-07T11:10:15Z</time><cmt>3.2 kmh</cmt></trkpt>
<trkpt lat="51.683637" lon="03.775894"><ele>3</ele><time>2021-01-07T11:10:16Z</time><cmt>4.0 kmh</cmt></trkpt>
<trkpt lat="51.683645" lon="03.775902"><ele>3</ele><time>2021-01-07T11:10:17Z</time><cmt>4.1 kmh</cmt></trkpt>
<trkpt lat="51.683654" lon="03.775909"><ele>3</ele><time>2021-01-07T11:10:18Z</time><cmt>4.2 kmh</cmt></trkpt>
<trkpt lat="51.683662" lon="03.775914"><ele>3</ele><time>2021-01-07T11:10:19Z</time><cmt>4.1 kmh</cmt></trkpt>
<trkpt lat="51.683673" lon="03.775919"><ele>3</ele><time>2021-01-07T11:10:20Z</time><cmt>4.4 kmh</cmt></trkpt>
<trkpt lat="51.683684" lon="03.775924"><ele>3</ele><time>2021-01-07T11:10:21Z</time><cmt>3.9 kmh</cmt></trkpt>
<trkpt lat="51.683694" lon="03.775931"><ele>3</ele><time>2021-01-07T11:10:22Z</time><cmt>3.9 kmh</cmt></trkpt>
<trkpt lat="51.683703" lon="03.775940"><ele>3</ele><time>2021-01-07T11:10:23Z</time><cmt>4.5 kmh</cmt></trkpt>
<trkpt lat="51.683708" lon="03.775949"><ele>3</ele><time>2021-01-07T11:10:24Z</time><cmt>3.8 kmh</cmt></trkpt>
<trkpt lat="51.683709" lon="03.775957"><ele>3</ele><time>2021-01-07T11:10:25Z</time><cmt>2.8 kmh</cmt></trkpt>
<trkpt lat="51.683710" lon="03.775963"><ele>3</ele><time>2021-01-07T11:10:26Z</time><cmt>2.0 kmh</cmt></trkpt>
<trkpt lat="51.683710" lon="03.775969"><ele>3</ele><time>2021-01-07T11:10:27Z</time><cmt>1.2 kmh</cmt></trkpt>
<trkpt lat="51.683710" lon="03.775973"><ele>2</ele><time>2021-01-07T11:10:28Z</time><cmt>1.1 kmh</cmt></trkpt>
<trkpt lat="51.683711" lon="03.775978"><ele>2</ele><time>2021-01-07T11:10:29Z</time><cmt>1.3 kmh</cmt></trkpt>
<trkpt lat="51.683711" lon="03.775986"><ele>2</ele><time>2021-01-07T11:10:30Z</time><cmt>1.7 kmh</cmt></trkpt>
<trkpt lat="51.683713" lon="03.775999"><ele>2</ele><time>2021-01-07T11:10:31Z</time><cmt>2.7 kmh</cmt></trkpt>
<trkpt lat="51.683714" lon="03.776015"><ele>2</ele><time>2021-01-07T11:10:32Z</time><cmt>4.0 kmh</cmt></trkpt>
<trkpt lat="51.683716" lon="03.776033"><ele>2</ele><time>2021-01-07T11:10:33Z</time><cmt>4.6 kmh</cmt></trkpt>
<trkpt lat="51.683718" lon="03.776049"><ele>2</ele><time>2021-01-07T11:10:34Z</time><cmt>3.7 kmh</cmt></trkpt>
<trkpt lat="51.683720" lon="03.776066"><ele>2</ele><time>2021-01-07T11:10:35Z</time><cmt>3.7 kmh</cmt></trkpt>
<trkpt lat="51.683724" lon="03.776083"><ele>2</ele><time>2021-01-07T11:10:36Z</time><cmt>4.7 kmh</cmt></trkpt>
<trkpt lat="51.683728" lon="03.776101"><ele>2</ele><time>2021-01-07T11:10:37Z</time><cmt>4.9 kmh</cmt></trkpt>
<trkpt lat="51.683732" lon="03.776117"><ele>2</ele><time>2021-01-07T11:10:38Z</time><cmt>4.9 kmh</cmt></trkpt>
<trkpt lat="51.683735" lon="03.776133"><ele>2</ele><time>2021-01-07T11:10:39Z</time><cmt>4.6 kmh</cmt></trkpt>
<trkpt lat="51.683739" lon="03.776149"><ele>2</ele><time>2021-01-07T11:10:40Z</time><cmt>3.6 kmh</cmt></trkpt>
<trkpt lat="51.683742" lon="03.776164"><ele>2</ele><time>2021-01-07T11:10:41Z</time><cmt>3.5 kmh</cmt></trkpt>
<trkpt lat="51.683745" lon="03.776180"><ele>2</ele><time>2021-01-07T11:10:42Z</time><cmt>4.4 kmh</cmt></trkpt>
<trkpt lat="51.683748" lon="03.776196"><ele>2</ele><time>2021-01-07T11:10:43Z</time><cmt>4.4 kmh</cmt></trkpt>
<trkpt lat="51.683750" lon="03.776213"><ele>2</ele><time>2021-01-07T11:10:44Z</time><cmt>4.5 kmh</cmt></trkpt>
<trkpt lat="51.683751" lon="03.776230"><ele>2</ele><time>2021-01-07T11:10:45Z</time><cmt>4.6 kmh</cmt></trkpt>
<trkpt lat="51.683752" lon="03.776247"><ele>2</ele><time>2021-01-07T11:10:46Z</time><cmt>3.7 kmh</cmt></trkpt>
<trkpt lat="51.683754" lon="03.776263"><ele>2</ele><time>2021-01-07T11:10:47Z</time><cmt>3.5 kmh</cmt></trkpt>
<trkpt lat="51.683756" lon="03.776278"><ele>2</ele><time>2021-01-07T11:10:48Z</time><cmt>4.2 kmh</cmt></trkpt>
<trkpt lat="51.683759" lon="03.776294"><ele>2</ele><time>2021-01-07T11:10:49Z</time><cmt>4.4 kmh</cmt></trkpt>
<trkpt lat="51.683762" lon="03.776309"><ele>2</ele><time>2021-01-07T11:10:50Z</time><cmt>4.3 kmh</cmt></trkpt>
<trkpt lat="51.683764" lon="03.776323"><ele>2</ele><time>2021-01-07T11:10:51Z</time><cmt>4.0 kmh</cmt></trkpt>
<trkpt lat="51.683768" lon="03.776338"><ele>2</ele><time>2021-01-07T11:10:52Z</time><cmt>4.1 kmh</cmt></trkpt>
<trkpt lat="51.683773" lon="03.776353"><ele>2</ele><time>2021-01-07T11:10:53Z</time><cmt>3.5 kmh</cmt></trkpt>
<trkpt lat="51.683779" lon="03.776366"><ele>2</ele><time>2021-01-07T11:10:54Z</time><cmt>3.6 kmh</cmt></trkpt>
<trkpt lat="51.683786" lon="03.776379"><ele>2</ele><time>2021-01-07T11:10:55Z</time><cmt>4.5 kmh</cmt></trkpt>
<trkpt lat="51.683794" lon="03.776392"><ele>2</ele><time>2021-01-07T11:10:56Z</time><cmt>4.8 kmh</cmt></trkpt>
<trkpt lat="51.683803" lon="03.776405"><ele>2</ele><time>2021-01-07T11:10:57Z</time><cmt>5.1 kmh</cmt></trkpt>
<trkpt lat="51.683811" lon="03.776420"><ele>2</ele><time>2021-01-07T11:10:58Z</time><cmt>5.1 kmh</cmt></trkpt>
<trkpt lat="51.683817" lon="03.776434"><ele>2</ele><time>2021-01-07T11:10:59Z</time><cmt>4.0 kmh</cmt></trkpt>
<trkpt lat="51.683825" lon="03.776448"><ele>2</ele><time>2021-01-07T11:11:00Z</time><cmt>3.9 kmh</cmt></trkpt>
<trkpt lat="51.683835" lon="03.776461"><ele>2</ele><time>2021-01-07T11:11:01Z</time><cmt>5.5 kmh</cmt></trkpt>
<trkpt lat="51.683845" lon="03.776474"><ele>2</ele><time>2021-01-07T11:11:02Z</time><cmt>5.9 kmh</cmt></trkpt>
<trkpt lat="51.683856" lon="03.776488"><ele>2</ele><time>2021-01-07T11:11:03Z</time><cmt>5.4 kmh</cmt></trkpt>
<trkpt lat="51.683877" lon="03.776522"><ele>2</ele><time>2021-01-07T11:11:06Z</time><cmt>3.6 kmh</cmt></trkpt>
<trkpt lat="51.683907" lon="03.776559"><ele>2</ele><time>2021-01-07T11:11:09Z</time><cmt>5.6 kmh</cmt></trkpt>
<trkpt lat="51.683933" lon="03.776600"><ele>2</ele><time>2021-01-07T11:11:12Z</time><cmt>5.3 kmh</cmt></trkpt>
<trkpt lat="51.683957" lon="03.776648"><ele>2</ele><time>2021-01-07T11:11:15Z</time><cmt>5.2 kmh</cmt></trkpt>
<trkpt lat="51.683979" lon="03.776694"><ele>2</ele><time>2021-01-07T11:11:18Z</time><cmt>5.1 kmh</cmt></trkpt>
<trkpt lat="51.684001" lon="03.776744"><ele>2</ele><time>2021-01-07T11:11:21Z</time><cmt>5.3 kmh</cmt></trkpt>
<trkpt lat="51.684023" lon="03.776791"><ele>2</ele><time>2021-01-07T11:11:24Z</time><cmt>5.1 kmh</cmt></trkpt>
<trkpt lat="51.684046" lon="03.776839"><ele>2</ele><time>2021-01-07T11:11:27Z</time><cmt>5.2 kmh</cmt></trkpt>
<trkpt lat="51.684067" lon="03.776886"><ele>3</ele><time>2021-01-07T11:11:30Z</time><cmt>5.1 kmh</cmt></trkpt>
<trkpt lat="51.684090" lon="03.776933"><ele>3</ele><time>2021-01-07T11:11:33Z</time><cmt>5.3 kmh</cmt></trkpt>
<trkpt lat="51.684113" lon="03.776971"><ele>3</ele><time>2021-01-07T11:11:36Z</time><cmt>4.8 kmh</cmt></trkpt>
<trkpt lat="51.684137" lon="03.777014"><ele>3</ele><time>2021-01-07T11:11:39Z</time><cmt>5.0 kmh</cmt></trkpt>
<trkpt lat="51.684159" lon="03.777057"><ele>3</ele><time>2021-01-07T11:11:42Z</time><cmt>5.0 kmh</cmt></trkpt>
<trkpt lat="51.684181" lon="03.777104"><ele>4</ele><time>2021-01-07T11:11:45Z</time><cmt>5.2 kmh</cmt></trkpt>
<trkpt lat="51.684204" lon="03.777152"><ele>4</ele><time>2021-01-07T11:11:48Z</time><cmt>5.0 kmh</cmt></trkpt>
<trkpt lat="51.684224" lon="03.777204"><ele>4</ele><time>2021-01-07T11:11:51Z</time><cmt>5.2 kmh</cmt></trkpt>
<trkpt lat="51.684245" lon="03.777253"><ele>4</ele><time>2021-01-07T11:11:54Z</time><cmt>5.0 kmh</cmt></trkpt>
<trkpt lat="51.684264" lon="03.777302"><ele>4</ele><time>2021-01-07T11:11:57Z</time><cmt>4.4 kmh</cmt></trkpt>
<trkpt lat="51.684283" lon="03.777354"><ele>4</ele><time>2021-01-07T11:12:00Z</time><cmt>5.3 kmh</cmt></trkpt>
<trkpt lat="51.684302" lon="03.777400"><ele>4</ele><time>2021-01-07T11:12:03Z</time><cmt>4.3 kmh</cmt></trkpt>
<trkpt lat="51.684324" lon="03.777447"><ele>4</ele><time>2021-01-07T11:12:06Z</time><cmt>5.0 kmh</cmt></trkpt>
<trkpt lat="51.684342" lon="03.777494"><ele>4</ele><time>2021-01-07T11:12:09Z</time><cmt>4.3 kmh</cmt></trkpt>
<trkpt lat="51.684359" lon="03.777542"><ele>4</ele><time>2021-01-07T11:12:12Z</time><cmt>4.9 kmh</cmt></trkpt>
<trkpt lat="51.684380" lon="03.777585"><ele>4</ele><time>2021-01-07T11:12:15Z</time><cmt>5.0 kmh</cmt></trkpt>
<trkpt lat="51.684395" lon="03.777617"><ele>4</ele><time>2021-01-07T11:12:17Z</time><cmt>5.0 kmh</cmt></trkpt>
<trkpt lat="51.684410" lon="03.777648"><ele>4</ele><time>2021-01-07T11:12:19Z</time><cmt>5.0 kmh</cmt></trkpt>
<trkpt lat="51.684424" lon="03.777678"><ele>4</ele><time>2021-01-07T11:12:21Z</time><cmt>5.0 kmh</cmt></trkpt>
<trkpt lat="51.684440" lon="03.777709"><ele>4</ele><time>2021-01-07T11:12:23Z</time><cmt>5.2 kmh</cmt></trkpt>
<trkpt lat="51.684455" lon="03.777739"><ele>4</ele><time>2021-01-07T11:12:25Z</time><cmt>5.2 kmh</cmt></trkpt>
<trkpt lat="51.684469" lon="03.777769"><ele>4</ele><time>2021-01-07T11:12:27Z</time><cmt>5.1 kmh</cmt></trkpt>
<trkpt lat="51.684484" lon="03.777801"><ele>4</ele><time>2021-01-07T11:12:29Z</time><cmt>5.5 kmh</cmt></trkpt>
<trkpt lat="51.684497" lon="03.777834"><ele>4</ele><time>2021-01-07T11:12:31Z</time><cmt>5.5 kmh</cmt></trkpt>
<trkpt lat="51.684514" lon="03.777874"><ele>4</ele><time>2021-01-07T11:12:33Z</time><cmt>5.0 kmh</cmt></trkpt>
<trkpt lat="51.684520" lon="03.777889"><ele>4</ele><time>2021-01-07T11:12:34Z</time><cmt>5.0 kmh</cmt></trkpt>
<trkpt lat="51.684528" lon="03.777904"><ele>4</ele><time>2021-01-07T11:12:35Z</time><cmt>5.1 kmh</cmt></trkpt>
<trkpt lat="51.684534" lon="03.777920"><ele>4</ele><time>2021-01-07T11:12:36Z</time><cmt>5.0 kmh</cmt></trkpt>
<trkpt lat="51.684543" lon="03.777937"><ele>4</ele><time>2021-01-07T11:12:37Z</time><cmt>5.3 kmh</cmt></trkpt>
<trkpt lat="51.684551" lon="03.777954"><ele>4</ele><time>2021-01-07T11:12:38Z</time><cmt>5.1 kmh</cmt></trkpt>
<trkpt lat="51.684558" lon="03.777970"><ele>4</ele><time>2021-01-07T11:12:39Z</time><cmt>5.1 kmh</cmt></trkpt>
<trkpt lat="51.684564" lon="03.777987"><ele>4</ele><time>2021-01-07T11:12:40Z</time><cmt>5.1 kmh</cmt></trkpt>
<trkpt lat="51.684571" lon="03.778004"><ele>4</ele><time>2021-01-07T11:12:41Z</time><cmt>5.3 kmh</cmt></trkpt>
<trkpt lat="51.684578" lon="03.778020"><ele>4</ele><time>2021-01-07T11:12:42Z</time><cmt>5.0 kmh</cmt></trkpt>
<trkpt lat="51.684585" lon="03.778036"><ele>4</ele><time>2021-01-07T11:12:43Z</time><cmt>5.4 kmh</cmt></trkpt>
<trkpt lat="51.684592" lon="03.778052"><ele>4</ele><time>2021-01-07T11:12:44Z</time><cmt>5.1 kmh</cmt></trkpt>
<trkpt lat="51.684598" lon="03.778069"><ele>4</ele><time>2021-01-07T11:12:45Z</time><cmt>5.2 kmh</cmt></trkpt>
<trkpt lat="51.684605" lon="03.778086"><ele>4</ele><time>2021-01-07T11:12:46Z</time><cmt>5.3 kmh</cmt></trkpt>
<trkpt lat="51.684613" lon="03.778102"><ele>4</ele><time>2021-01-07T11:12:47Z</time><cmt>5.3 kmh</cmt></trkpt>
<trkpt lat="51.684621" lon="03.778119"><ele>4</ele><time>2021-01-07T11:12:48Z</time><cmt>5.3 kmh</cmt></trkpt>
<trkpt lat="51.684629" lon="03.778136"><ele>4</ele><time>2021-01-07T11:12:49Z</time><cmt>5.5 kmh</cmt></trkpt>
<trkpt lat="51.684637" lon="03.778152"><ele>4</ele><time>2021-01-07T11:12:50Z</time><cmt>5.3 kmh</cmt></trkpt>
<trkpt lat="51.684645" lon="03.778169"><ele>4</ele><time>2021-01-07T11:12:51Z</time><cmt>5.3 kmh</cmt></trkpt>
<trkpt lat="51.684659" lon="03.778197"><ele>4</ele><time>2021-01-07T11:12:53Z</time><cmt>5.5 kmh</cmt></trkpt>
<trkpt lat="51.684677" lon="03.778231"><ele>4</ele><time>2021-01-07T11:12:55Z</time><cmt>5.5 kmh</cmt></trkpt>
<trkpt lat="51.684690" lon="03.778261"><ele>4</ele><time>2021-01-07T11:12:57Z</time><cmt>5.3 kmh</cmt></trkpt>
<trkpt lat="51.684705" lon="03.778291"><ele>4</ele><time>2021-01-07T11:12:59Z</time><cmt>5.2 kmh</cmt></trkpt>
<trkpt lat="51.684720" lon="03.778321"><ele>4</ele><time>2021-01-07T11:13:01Z</time><cmt>5.2 kmh</cmt></trkpt>
<trkpt lat="51.684735" lon="03.778351"><ele>4</ele><time>2021-01-07T11:13:03Z</time><cmt>5.1 kmh</cmt></trkpt>
<trkpt lat="51.684749" lon="03.778382"><ele>4</ele><time>2021-01-07T11:13:05Z</time><cmt>5.1 kmh</cmt></trkpt>
<trkpt lat="51.684763" lon="03.778412"><ele>4</ele><time>2021-01-07T11:13:07Z</time><cmt>5.1 kmh</cmt></trkpt>
<trkpt lat="51.684779" lon="03.778444"><ele>4</ele><time>2021-01-07T11:13:09Z</time><cmt>4.7 kmh</cmt></trkpt>
<trkpt lat="51.684793" lon="03.778476"><ele>4</ele><time>2021-01-07T11:13:11Z</time><cmt>5.1 kmh</cmt></trkpt>
<trkpt lat="51.684808" lon="03.778509"><ele>4</ele><time>2021-01-07T11:13:13Z</time><cmt>5.1 kmh</cmt></trkpt>
<trkpt lat="51.684820" lon="03.778533"><ele>4</ele><time>2021-01-07T11:13:14Z</time><cmt>5.1 kmh</cmt></trkpt>
<trkpt lat="51.684826" lon="03.778547"><ele>5</ele><time>2021-01-07T11:13:15Z</time><cmt>5.0 kmh</cmt></trkpt>
<trkpt lat="51.684832" lon="03.778558"><ele>5</ele><time>2021-01-07T11:13:16Z</time><cmt>4.3 kmh</cmt></trkpt>
<trkpt lat="51.684848" lon="03.778582"><ele>5</ele><time>2021-01-07T11:13:21Z</time><cmt>2.1 kmh</cmt></trkpt>
<trkpt lat="51.684862" lon="03.778621"><ele>5</ele><time>2021-01-07T11:13:24Z</time><cmt>4.0 kmh</cmt></trkpt>
<trkpt lat="51.684876" lon="03.778660"><ele>5</ele><time>2021-01-07T11:13:26Z</time><cmt>5.0 kmh</cmt></trkpt>
<trkpt lat="51.684882" lon="03.778675"><ele>5</ele><time>2021-01-07T11:13:27Z</time><cmt>5.0 kmh</cmt></trkpt>
<trkpt lat="51.684887" lon="03.778692"><ele>5</ele><time>2021-01-07T11:13:28Z</time><cmt>5.0 kmh</cmt></trkpt>
<trkpt lat="51.684894" lon="03.778710"><ele>5</ele><time>2021-01-07T11:13:29Z</time><cmt>5.0 kmh</cmt></trkpt>
<trkpt lat="51.684900" lon="03.778728"><ele>5</ele><time>2021-01-07T11:13:30Z</time><cmt>5.0 kmh</cmt></trkpt>
<trkpt lat="51.684906" lon="03.778743"><ele>5</ele><time>2021-01-07T11:13:31Z</time><cmt>5.0 kmh</cmt></trkpt>
<trkpt lat="51.684911" lon="03.778758"><ele>5</ele><time>2021-01-07T11:13:32Z</time><cmt>3.7 kmh</cmt></trkpt>
<trkpt lat="51.684916" lon="03.778773"><ele>5</ele><time>2021-01-07T11:13:33Z</time><cmt>3.6 kmh</cmt></trkpt>
<trkpt lat="51.684922" lon="03.778789"><ele>5</ele><time>2021-01-07T11:13:34Z</time><cmt>5.1 kmh</cmt></trkpt>
<trkpt lat="51.684929" lon="03.778806"><ele>5</ele><time>2021-01-07T11:13:35Z</time><cmt>5.0 kmh</cmt></trkpt>
<trkpt lat="51.684934" lon="03.778821"><ele>5</ele><time>2021-01-07T11:13:36Z</time><cmt>5.0 kmh</cmt></trkpt>
<trkpt lat="51.684940" lon="03.778835"><ele>5</ele><time>2021-01-07T11:13:37Z</time><cmt>4.7 kmh</cmt></trkpt>
<trkpt lat="51.684945" lon="03.778845"><ele>5</ele><time>2021-01-07T11:13:38Z</time><cmt>3.9 kmh</cmt></trkpt>
<trkpt lat="51.684949" lon="03.778850"><ele>5</ele><time>2021-01-07T11:13:39Z</time><cmt>2.2 kmh</cmt></trkpt>
<trkpt lat="51.684952" lon="03.778852"><ele>5</ele><time>2021-01-07T11:13:40Z</time><cmt>1.3 kmh</cmt></trkpt>
<trkpt lat="51.684955" lon="03.778854"><ele>5</ele><time>2021-01-07T11:13:41Z</time><cmt>1.2 kmh</cmt></trkpt>
<trkpt lat="51.684956" lon="03.778856"><ele>5</ele><time>2021-01-07T11:13:42Z</time><cmt>1.1 kmh</cmt></trkpt>
<trkpt lat="51.684960" lon="03.778859"><ele>5</ele><time>2021-01-07T11:13:43Z</time><cmt>1.3 kmh</cmt></trkpt>
<trkpt lat="51.684962" lon="03.778862"><ele>5</ele><time>2021-01-07T11:13:44Z</time><cmt>1.4 kmh</cmt></trkpt>
<trkpt lat="51.684964" lon="03.778867"><ele>5</ele><time>2021-01-07T11:13:45Z</time><cmt>1.2 kmh</cmt></trkpt>
<trkpt lat="51.684967" lon="03.778876"><ele>5</ele><time>2021-01-07T11:13:46Z</time><cmt>1.8 kmh</cmt></trkpt>
<trkpt lat="51.684970" lon="03.778888"><ele>5</ele><time>2021-01-07T11:13:47Z</time><cmt>3.1 kmh</cmt></trkpt>
<trkpt lat="51.684973" lon="03.778900"><ele>5</ele><time>2021-01-07T11:13:48Z</time><cmt>3.6 kmh</cmt></trkpt>
<trkpt lat="51.684977" lon="03.778914"><ele>5</ele><time>2021-01-07T11:13:49Z</time><cmt>3.8 kmh</cmt></trkpt>
<trkpt lat="51.684981" lon="03.778928"><ele>5</ele><time>2021-01-07T11:13:50Z</time><cmt>4.1 kmh</cmt></trkpt>
<trkpt lat="51.684986" lon="03.778943"><ele>5</ele><time>2021-01-07T11:13:51Z</time><cmt>3.5 kmh</cmt></trkpt>
<trkpt lat="51.684992" lon="03.778958"><ele>5</ele><time>2021-01-07T11:13:52Z</time><cmt>5.0 kmh</cmt></trkpt>
<trkpt lat="51.684998" lon="03.778974"><ele>5</ele><time>2021-01-07T11:13:53Z</time><cmt>5.1 kmh</cmt></trkpt>
<trkpt lat="51.685005" lon="03.778991"><ele>5</ele><time>2021-01-07T11:13:54Z</time><cmt>5.2 kmh</cmt></trkpt>
<trkpt lat="51.685012" lon="03.779008"><ele>5</ele><time>2021-01-07T11:13:55Z</time><cmt>5.2 kmh</cmt></trkpt>
<trkpt lat="51.685018" lon="03.779024"><ele>5</ele><time>2021-01-07T11:13:56Z</time><cmt>5.1 kmh</cmt></trkpt>
<trkpt lat="51.685025" lon="03.779040"><ele>5</ele><time>2021-01-07T11:13:57Z</time><cmt>5.1 kmh</cmt></trkpt>
<trkpt lat="51.685031" lon="03.779056"><ele>5</ele><time>2021-01-07T11:13:58Z</time><cmt>4.1 kmh</cmt></trkpt>
<trkpt lat="51.685037" lon="03.779072"><ele>5</ele><time>2021-01-07T11:13:59Z</time><cmt>4.0 kmh</cmt></trkpt>
<trkpt lat="51.685043" lon="03.779088"><ele>5</ele><time>2021-01-07T11:14:00Z</time><cmt>5.0 kmh</cmt></trkpt>
<trkpt lat="51.685049" lon="03.779105"><ele>5</ele><time>2021-01-07T11:14:01Z</time><cmt>5.0 kmh</cmt></trkpt>
<trkpt lat="51.685055" lon="03.779120"><ele>5</ele><time>2021-01-07T11:14:02Z</time><cmt>4.9 kmh</cmt></trkpt>
<trkpt lat="51.685061" lon="03.779136"><ele>5</ele><time>2021-01-07T11:14:03Z</time><cmt>4.9 kmh</cmt></trkpt>
<trkpt lat="51.685067" lon="03.779153"><ele>5</ele><time>2021-01-07T11:14:04Z</time><cmt>4.1 kmh</cmt></trkpt>
<trkpt lat="51.685074" lon="03.779170"><ele>5</ele><time>2021-01-07T11:14:05Z</time><cmt>5.1 kmh</cmt></trkpt>
<trkpt lat="51.685081" lon="03.779187"><ele>5</ele><time>2021-01-07T11:14:06Z</time><cmt>5.1 kmh</cmt></trkpt>
<trkpt lat="51.685088" lon="03.779203"><ele>5</ele><time>2021-01-07T11:14:07Z</time><cmt>5.0 kmh</cmt></trkpt>
<trkpt lat="51.685095" lon="03.779220"><ele>5</ele><time>2021-01-07T11:14:08Z</time><cmt>5.0 kmh</cmt></trkpt>
<trkpt lat="51.685102" lon="03.779237"><ele>5</ele><time>2021-01-07T11:14:09Z</time><cmt>5.0 kmh</cmt></trkpt>
<trkpt lat="51.685108" lon="03.779253"><ele>5</ele><time>2021-01-07T11:14:10Z</time><cmt>4.2 kmh</cmt></trkpt>
<trkpt lat="51.685114" lon="03.779269"><ele>5</ele><time>2021-01-07T11:14:11Z</time><cmt>4.1 kmh</cmt></trkpt>
<trkpt lat="51.685121" lon="03.779286"><ele>5</ele><time>2021-01-07T11:14:12Z</time><cmt>5.1 kmh</cmt></trkpt>
<trkpt lat="51.685128" lon="03.779303"><ele>5</ele><time>2021-01-07T11:14:13Z</time><cmt>5.1 kmh</cmt></trkpt>
<trkpt lat="51.685134" lon="03.779320"><ele>5</ele><time>2021-01-07T11:14:14Z</time><cmt>5.0 kmh</cmt></trkpt>
<trkpt lat="51.685141" lon="03.779337"><ele>5</ele><time>2021-01-07T11:14:15Z</time><cmt>5.0 kmh</cmt></trkpt>
<trkpt lat="51.685147" lon="03.779353"><ele>5</ele><time>2021-01-07T11:14:16Z</time><cmt>5.0 kmh</cmt></trkpt>
<trkpt lat="51.685153" lon="03.779370"><ele>5</ele><time>2021-01-07T11:14:17Z</time><cmt>5.0 kmh</cmt></trkpt>
<trkpt lat="51.685159" lon="03.779387"><ele>5</ele><time>2021-01-07T11:14:18Z</time><cmt>5.0 kmh</cmt></trkpt>
<trkpt lat="51.685165" lon="03.779404"><ele>5</ele><time>2021-01-07T11:14:19Z</time><cmt>5.0 kmh</cmt></trkpt>
<trkpt lat="51.685171" lon="03.779420"><ele>5</ele><time>2021-01-07T11:14:20Z</time><cmt>5.0 kmh</cmt></trkpt>
<trkpt lat="51.685177" lon="03.779436"><ele>5</ele><time>2021-01-07T11:14:21Z</time><cmt>5.0 kmh</cmt></trkpt>
<trkpt lat="51.685184" lon="03.779452"><ele>5</ele><time>2021-01-07T11:14:22Z</time><cmt>5.0 kmh</cmt></trkpt>
<trkpt lat="51.685192" lon="03.779469"><ele>5</ele><time>2021-01-07T11:14:23Z</time><cmt>5.0 kmh</cmt></trkpt>
<trkpt lat="51.685198" lon="03.779486"><ele>5</ele><time>2021-01-07T11:14:24Z</time><cmt>4.3 kmh</cmt></trkpt>
<trkpt lat="51.685204" lon="03.779502"><ele>5</ele><time>2021-01-07T11:14:25Z</time><cmt>5.0 kmh</cmt></trkpt>
<trkpt lat="51.685211" lon="03.779519"><ele>5</ele><time>2021-01-07T11:14:26Z</time><cmt>5.0 kmh</cmt></trkpt>
<trkpt lat="51.685218" lon="03.779535"><ele>5</ele><time>2021-01-07T11:14:27Z</time><cmt>5.0 kmh</cmt></trkpt>
<trkpt lat="51.685225" lon="03.779551"><ele>5</ele><time>2021-01-07T11:14:28Z</time><cmt>5.0 kmh</cmt></trkpt>
<trkpt lat="51.685231" lon="03.779568"><ele>5</ele><time>2021-01-07T11:14:29Z</time><cmt>4.2 kmh</cmt></trkpt>
<trkpt lat="51.685238" lon="03.779583"><ele>5</ele><time>2021-01-07T11:14:30Z</time><cmt>4.1 kmh</cmt></trkpt>
<trkpt lat="51.685243" lon="03.779597"><ele>5</ele><time>2021-01-07T11:14:31Z</time><cmt>4.7 kmh</cmt></trkpt>
<trkpt lat="51.685249" lon="03.779612"><ele>5</ele><time>2021-01-07T11:14:32Z</time><cmt>5.0 kmh</cmt></trkpt>
<trkpt lat="51.685255" lon="03.779628"><ele>5</ele><time>2021-01-07T11:14:33Z</time><cmt>5.0 kmh</cmt></trkpt>
<trkpt lat="51.685262" lon="03.779644"><ele>5</ele><time>2021-01-07T11:14:34Z</time><cmt>5.0 kmh</cmt></trkpt>
<trkpt lat="51.685269" lon="03.779660"><ele>5</ele><time>2021-01-07T11:14:35Z</time><cmt>5.1 kmh</cmt></trkpt>
<trkpt lat="51.685277" lon="03.779677"><ele>5</ele><time>2021-01-07T11:14:36Z</time><cmt>5.0 kmh</cmt></trkpt>
<trkpt lat="51.685283" lon="03.779693"><ele>5</ele><time>2021-01-07T11:14:37Z</time><cmt>5.0 kmh</cmt></trkpt>
<trkpt lat="51.685294" lon="03.779720"><ele>5</ele><time>2021-01-07T11:14:39Z</time><cmt>4.6 kmh</cmt></trkpt>
<trkpt lat="51.685308" lon="03.779754"><ele>5</ele><time>2021-01-07T11:14:41Z</time><cmt>4.8 kmh</cmt></trkpt>
<trkpt lat="51.685321" lon="03.779787"><ele>5</ele><time>2021-01-07T11:14:43Z</time><cmt>4.3 kmh</cmt></trkpt>
<trkpt lat="51.685338" lon="03.779830"><ele>5</ele><time>2021-01-07T11:14:45Z</time><cmt>5.2 kmh</cmt></trkpt>
<trkpt lat="51.685345" lon="03.779846"><ele>5</ele><time>2021-01-07T11:14:46Z</time><cmt>5.1 kmh</cmt></trkpt>
<trkpt lat="51.685351" lon="03.779862"><ele>5</ele><time>2021-01-07T11:14:47Z</time><cmt>5.2 kmh</cmt></trkpt>
<trkpt lat="51.685358" lon="03.779879"><ele>5</ele><time>2021-01-07T11:14:48Z</time><cmt>5.2 kmh</cmt></trkpt>
<trkpt lat="51.685375" lon="03.779923"><ele>5</ele><time>2021-01-07T11:14:51Z</time><cmt>4.6 kmh</cmt></trkpt>
<trkpt lat="51.685388" lon="03.779956"><ele>5</ele><time>2021-01-07T11:14:53Z</time><cmt>5.0 kmh</cmt></trkpt>
<trkpt lat="51.685401" lon="03.779988"><ele>5</ele><time>2021-01-07T11:14:55Z</time><cmt>4.6 kmh</cmt></trkpt>
<trkpt lat="51.685415" lon="03.780022"><ele>5</ele><time>2021-01-07T11:14:57Z</time><cmt>4.7 kmh</cmt></trkpt>
<trkpt lat="51.685429" lon="03.780055"><ele>5</ele><time>2021-01-07T11:14:59Z</time><cmt>5.0 kmh</cmt></trkpt>
<trkpt lat="51.685443" lon="03.780089"><ele>5</ele><time>2021-01-07T11:15:01Z</time><cmt>5.0 kmh</cmt></trkpt>
<trkpt lat="51.685457" lon="03.780121"><ele>5</ele><time>2021-01-07T11:15:03Z</time><cmt>5.0 kmh</cmt></trkpt>
<trkpt lat="51.685471" lon="03.780156"><ele>5</ele><time>2021-01-07T11:15:05Z</time><cmt>5.0 kmh</cmt></trkpt>
<trkpt lat="51.685484" lon="03.780192"><ele>5</ele><time>2021-01-07T11:15:07Z</time><cmt>5.1 kmh</cmt></trkpt>
<trkpt lat="51.685497" lon="03.780228"><ele>5</ele><time>2021-01-07T11:15:09Z</time><cmt>5.1 kmh</cmt></trkpt>
<trkpt lat="51.685508" lon="03.780255"><ele>5</ele><time>2021-01-07T11:15:10Z</time><cmt>5.0 kmh</cmt></trkpt>
<trkpt lat="51.685513" lon="03.780270"><ele>5</ele><time>2021-01-07T11:15:11Z</time><cmt>5.0 kmh</cmt></trkpt>
<trkpt lat="51.685519" lon="03.780288"><ele>5</ele><time>2021-01-07T11:15:12Z</time><cmt>5.2 kmh</cmt></trkpt>
<trkpt lat="51.685526" lon="03.780305"><ele>5</ele><time>2021-01-07T11:15:13Z</time><cmt>5.2 kmh</cmt></trkpt>
<trkpt lat="51.685532" lon="03.780324"><ele>5</ele><time>2021-01-07T11:15:14Z</time><cmt>4.4 kmh</cmt></trkpt>
<trkpt lat="51.685538" lon="03.780342"><ele>5</ele><time>2021-01-07T11:15:15Z</time><cmt>5.1 kmh</cmt></trkpt>
<trkpt lat="51.685544" lon="03.780361"><ele>5</ele><time>2021-01-07T11:15:16Z</time><cmt>5.1 kmh</cmt></trkpt>
<trkpt lat="51.685551" lon="03.780378"><ele>4</ele><time>2021-01-07T11:15:17Z</time><cmt>5.0 kmh</cmt></trkpt>
<trkpt lat="51.685558" lon="03.780396"><ele>4</ele><time>2021-01-07T11:15:18Z</time><cmt>5.0 kmh</cmt></trkpt>
<trkpt lat="51.685565" lon="03.780413"><ele>4</ele><time>2021-01-07T11:15:19Z</time><cmt>5.0 kmh</cmt></trkpt>
<trkpt lat="51.685571" lon="03.780429"><ele>4</ele><time>2021-01-07T11:15:20Z</time><cmt>4.2 kmh</cmt></trkpt>
<trkpt lat="51.685577" lon="03.780446"><ele>4</ele><time>2021-01-07T11:15:21Z</time><cmt>4.2 kmh</cmt></trkpt>
<trkpt lat="51.685583" lon="03.780463"><ele>4</ele><time>2021-01-07T11:15:22Z</time><cmt>5.0 kmh</cmt></trkpt>
<trkpt lat="51.685589" lon="03.780480"><ele>4</ele><time>2021-01-07T11:15:23Z</time><cmt>5.0 kmh</cmt></trkpt>
<trkpt lat="51.685595" lon="03.780497"><ele>4</ele><time>2021-01-07T11:15:24Z</time><cmt>5.0 kmh</cmt></trkpt>
<trkpt lat="51.685601" lon="03.780514"><ele>4</ele><time>2021-01-07T11:15:25Z</time><cmt>5.0 kmh</cmt></trkpt>
<trkpt lat="51.685608" lon="03.780530"><ele>3</ele><time>2021-01-07T11:15:26Z</time><cmt>4.2 kmh</cmt></trkpt>
<trkpt lat="51.685615" lon="03.780547"><ele>3</ele><time>2021-01-07T11:15:27Z</time><cmt>5.1 kmh</cmt></trkpt>
<trkpt lat="51.685621" lon="03.780564"><ele>3</ele><time>2021-01-07T11:15:28Z</time><cmt>5.1 kmh</cmt></trkpt>
<trkpt lat="51.685627" lon="03.780581"><ele>3</ele><time>2021-01-07T11:15:29Z</time><cmt>5.0 kmh</cmt></trkpt>
<trkpt lat="51.685633" lon="03.780598"><ele>3</ele><time>2021-01-07T11:15:30Z</time><cmt>5.0 kmh</cmt></trkpt>
<trkpt lat="51.685640" lon="03.780615"><ele>3</ele><time>2021-01-07T11:15:31Z</time><cmt>5.0 kmh</cmt></trkpt>
<trkpt lat="51.685646" lon="03.780632"><ele>3</ele><time>2021-01-07T11:15:32Z</time><cmt>5.1 kmh</cmt></trkpt>
<trkpt lat="51.685652" lon="03.780650"><ele>3</ele><time>2021-01-07T11:15:33Z</time><cmt>5.1 kmh</cmt></trkpt>
<trkpt lat="51.685659" lon="03.780667"><ele>2</ele><time>2021-01-07T11:15:34Z</time><cmt>5.1 kmh</cmt></trkpt>
<trkpt lat="51.685665" lon="03.780685"><ele>2</ele><time>2021-01-07T11:15:35Z</time><cmt>5.0 kmh</cmt></trkpt>
<trkpt lat="51.685672" lon="03.780702"><ele>2</ele><time>2021-01-07T11:15:36Z</time><cmt>5.0 kmh</cmt></trkpt>
<trkpt lat="51.685679" lon="03.780719"><ele>2</ele><time>2021-01-07T11:15:37Z</time><cmt>5.0 kmh</cmt></trkpt>
<trkpt lat="51.685686" lon="03.780736"><ele>2</ele><time>2021-01-07T11:15:38Z</time><cmt>5.0 kmh</cmt></trkpt>
<trkpt lat="51.685692" lon="03.780754"><ele>2</ele><time>2021-01-07T11:15:39Z</time><cmt>5.0 kmh</cmt></trkpt>
<trkpt lat="51.685699" lon="03.780771"><ele>2</ele><time>2021-01-07T11:15:40Z</time><cmt>5.0 kmh</cmt></trkpt>
<trkpt lat="51.685706" lon="03.780787"><ele>2</ele><time>2021-01-07T11:15:41Z</time><cmt>5.0 kmh</cmt></trkpt>
<trkpt lat="51.685713" lon="03.780804"><ele>2</ele><time>2021-01-07T11:15:42Z</time><cmt>5.0 kmh</cmt></trkpt>
<trkpt lat="51.685720" lon="03.780820"><ele>2</ele><time>2021-01-07T11:15:43Z</time><cmt>5.0 kmh</cmt></trkpt>
<trkpt lat="51.685727" lon="03.780837"><ele>2</ele><time>2021-01-07T11:15:44Z</time><cmt>5.0 kmh</cmt></trkpt>
<trkpt lat="51.685734" lon="03.780853"><ele>2</ele><time>2021-01-07T11:15:45Z</time><cmt>5.0 kmh</cmt></trkpt>
<trkpt lat="51.685741" lon="03.780870"><ele>2</ele><time>2021-01-07T11:15:46Z</time><cmt>4.2 kmh</cmt></trkpt>
<trkpt lat="51.685747" lon="03.780886"><ele>2</ele><time>2021-01-07T11:15:47Z</time><cmt>4.2 kmh</cmt></trkpt>
<trkpt lat="51.685754" lon="03.780904"><ele>2</ele><time>2021-01-07T11:15:48Z</time><cmt>5.6 kmh</cmt></trkpt>
<trkpt lat="51.685761" lon="03.780921"><ele>2</ele><time>2021-01-07T11:15:49Z</time><cmt>5.2 kmh</cmt></trkpt>
<trkpt lat="51.685768" lon="03.780939"><ele>2</ele><time>2021-01-07T11:15:50Z</time><cmt>5.1 kmh</cmt></trkpt>
<trkpt lat="51.685775" lon="03.780956"><ele>2</ele><time>2021-01-07T11:15:51Z</time><cmt>5.1 kmh</cmt></trkpt>
<trkpt lat="51.685782" lon="03.780973"><ele>2</ele><time>2021-01-07T11:15:52Z</time><cmt>4.3 kmh</cmt></trkpt>
<trkpt lat="51.685789" lon="03.780989"><ele>2</ele><time>2021-01-07T11:15:53Z</time><cmt>5.1 kmh</cmt></trkpt>
<trkpt lat="51.685796" lon="03.781006"><ele>2</ele><time>2021-01-07T11:15:54Z</time><cmt>5.3 kmh</cmt></trkpt>
<trkpt lat="51.685804" lon="03.781024"><ele>2</ele><time>2021-01-07T11:15:55Z</time><cmt>5.3 kmh</cmt></trkpt>
<trkpt lat="51.685811" lon="03.781042"><ele>2</ele><time>2021-01-07T11:15:56Z</time><cmt>5.1 kmh</cmt></trkpt>
<trkpt lat="51.685817" lon="03.781059"><ele>2</ele><time>2021-01-07T11:15:57Z</time><cmt>5.0 kmh</cmt></trkpt>
<trkpt lat="51.685824" lon="03.781076"><ele>2</ele><time>2021-01-07T11:15:58Z</time><cmt>5.0 kmh</cmt></trkpt>
<trkpt lat="51.685831" lon="03.781093"><ele>2</ele><time>2021-01-07T11:15:59Z</time><cmt>5.0 kmh</cmt></trkpt>
<trkpt lat="51.685838" lon="03.781109"><ele>2</ele><time>2021-01-07T11:16:00Z</time><cmt>5.0 kmh</cmt></trkpt>
<trkpt lat="51.685845" lon="03.781125"><ele>2</ele><time>2021-01-07T11:16:01Z</time><cmt>5.0 kmh</cmt></trkpt>
<trkpt lat="51.685852" lon="03.781141"><ele>2</ele><time>2021-01-07T11:16:02Z</time><cmt>5.0 kmh</cmt></trkpt>
<trkpt lat="51.685858" lon="03.781157"><ele>2</ele><time>2021-01-07T11:16:03Z</time><cmt>5.0 kmh</cmt></trkpt>
<trkpt lat="51.685864" lon="03.781173"><ele>2</ele><time>2021-01-07T11:16:04Z</time><cmt>5.0 kmh</cmt></trkpt>
<trkpt lat="51.685870" lon="03.781190"><ele>2</ele><time>2021-01-07T11:16:05Z</time><cmt>4.1 kmh</cmt></trkpt>
<trkpt lat="51.685876" lon="03.781207"><ele>2</ele><time>2021-01-07T11:16:06Z</time><cmt>4.2 kmh</cmt></trkpt>
<trkpt lat="51.685883" lon="03.781224"><ele>2</ele><time>2021-01-07T11:16:07Z</time><cmt>5.0 kmh</cmt></trkpt>
<trkpt lat="51.685889" lon="03.781240"><ele>2</ele><time>2021-01-07T11:16:08Z</time><cmt>5.0 kmh</cmt></trkpt>
<trkpt lat="51.685895" lon="03.781256"><ele>2</ele><time>2021-01-07T11:16:09Z</time><cmt>5.0 kmh</cmt></trkpt>
<trkpt lat="51.685901" lon="03.781273"><ele>2</ele><time>2021-01-07T11:16:10Z</time><cmt>5.0 kmh</cmt></trkpt>
<trkpt lat="51.685908" lon="03.781289"><ele>2</ele><time>2021-01-07T11:16:11Z</time><cmt>4.1 kmh</cmt></trkpt>
<trkpt lat="51.685914" lon="03.781306"><ele>2</ele><time>2021-01-07T11:16:12Z</time><cmt>5.0 kmh</cmt></trkpt>
<trkpt lat="51.685921" lon="03.781323"><ele>2</ele><time>2021-01-07T11:16:13Z</time><cmt>5.0 kmh</cmt></trkpt>
<trkpt lat="51.685927" lon="03.781339"><ele>2</ele><time>2021-01-07T11:16:14Z</time><cmt>5.0 kmh</cmt></trkpt>
<trkpt lat="51.685933" lon="03.781355"><ele>2</ele><time>2021-01-07T11:16:15Z</time><cmt>5.0 kmh</cmt></trkpt>
<trkpt lat="51.685939" lon="03.781371"><ele>2</ele><time>2021-01-07T11:16:16Z</time><cmt>4.9 kmh</cmt></trkpt>
<trkpt lat="51.685945" lon="03.781386"><ele>2</ele><time>2021-01-07T11:16:17Z</time><cmt>3.9 kmh</cmt></trkpt>
<trkpt lat="51.685952" lon="03.781403"><ele>2</ele><time>2021-01-07T11:16:18Z</time><cmt>5.0 kmh</cmt></trkpt>
<trkpt lat="51.685959" lon="03.781419"><ele>2</ele><time>2021-01-07T11:16:19Z</time><cmt>5.1 kmh</cmt></trkpt>
<trkpt lat="51.685966" lon="03.781436"><ele>2</ele><time>2021-01-07T11:16:20Z</time><cmt>5.0 kmh</cmt></trkpt>
<trkpt lat="51.685972" lon="03.781453"><ele>2</ele><time>2021-01-07T11:16:21Z</time><cmt>5.0 kmh</cmt></trkpt>
<trkpt lat="51.685979" lon="03.781470"><ele>2</ele><time>2021-01-07T11:16:22Z</time><cmt>5.0 kmh</cmt></trkpt>
<trkpt lat="51.685986" lon="03.781486"><ele>2</ele><time>2021-01-07T11:16:23Z</time><cmt>5.0 kmh</cmt></trkpt>
<trkpt lat="51.685993" lon="03.781503"><ele>1</ele><time>2021-01-07T11:16:24Z</time><cmt>5.0 kmh</cmt></trkpt>
<trkpt lat="51.685999" lon="03.781520"><ele>1</ele><time>2021-01-07T11:16:25Z</time><cmt>5.0 kmh</cmt></trkpt>
<trkpt lat="51.686005" lon="03.781536"><ele>1</ele><time>2021-01-07T11:16:26Z</time><cmt>5.0 kmh</cmt></trkpt>
<trkpt lat="51.686010" lon="03.781553"><ele>1</ele><time>2021-01-07T11:16:27Z</time><cmt>5.0 kmh</cmt></trkpt>
<trkpt lat="51.686017" lon="03.781569"><ele>1</ele><time>2021-01-07T11:16:28Z</time><cmt>5.1 kmh</cmt></trkpt>
<trkpt lat="51.686023" lon="03.781586"><ele>1</ele><time>2021-01-07T11:16:29Z</time><cmt>5.1 kmh</cmt></trkpt>
<trkpt lat="51.686030" lon="03.781603"><ele>1</ele><time>2021-01-07T11:16:30Z</time><cmt>4.3 kmh</cmt></trkpt>
<trkpt lat="51.686036" lon="03.781620"><ele>1</ele><time>2021-01-07T11:16:31Z</time><cmt>4.3 kmh</cmt></trkpt>
<trkpt lat="51.686042" lon="03.781637"><ele>1</ele><time>2021-01-07T11:16:32Z</time><cmt>5.0 kmh</cmt></trkpt>
<trkpt lat="51.686049" lon="03.781653"><ele>1</ele><time>2021-01-07T11:16:33Z</time><cmt>5.0 kmh</cmt></trkpt>
<trkpt lat="51.686055" lon="03.781669"><ele>1</ele><time>2021-01-07T11:16:34Z</time><cmt>5.0 kmh</cmt></trkpt>
<trkpt lat="51.686061" lon="03.781685"><ele>1</ele><time>2021-01-07T11:16:35Z</time><cmt>4.9 kmh</cmt></trkpt>
<trkpt lat="51.686067" lon="03.781700"><ele>1</ele><time>2021-01-07T11:16:36Z</time><cmt>4.0 kmh</cmt></trkpt>
<trkpt lat="51.686073" lon="03.781716"><ele>1</ele><time>2021-01-07T11:16:37Z</time><cmt>4.0 kmh</cmt></trkpt>
<trkpt lat="51.686079" lon="03.781731"><ele>1</ele><time>2021-01-07T11:16:38Z</time><cmt>5.0 kmh</cmt></trkpt>
<trkpt lat="51.686086" lon="03.781748"><ele>1</ele><time>2021-01-07T11:16:39Z</time><cmt>5.0 kmh</cmt></trkpt>
<trkpt lat="51.686093" lon="03.781764"><ele>1</ele><time>2021-01-07T11:16:40Z</time><cmt>5.0 kmh</cmt></trkpt>
<trkpt lat="51.686099" lon="03.781780"><ele>1</ele><time>2021-01-07T11:16:41Z</time><cmt>5.0 kmh</cmt></trkpt>
<trkpt lat="51.686105" lon="03.781796"><ele>1</ele><time>2021-01-07T11:16:42Z</time><cmt>5.0 kmh</cmt></trkpt>
<trkpt lat="51.686112" lon="03.781812"><ele>1</ele><time>2021-01-07T11:16:43Z</time><cmt>4.1 kmh</cmt></trkpt>
<trkpt lat="51.686118" lon="03.781828"><ele>1</ele><time>2021-01-07T11:16:44Z</time><cmt>4.1 kmh</cmt></trkpt>
<trkpt lat="51.686124" lon="03.781844"><ele>1</ele><time>2021-01-07T11:16:45Z</time><cmt>5.0 kmh</cmt></trkpt>
<trkpt lat="51.686130" lon="03.781861"><ele>1</ele><time>2021-01-07T11:16:46Z</time><cmt>5.0 kmh</cmt></trkpt>
<trkpt lat="51.686137" lon="03.781877"><ele>1</ele><time>2021-01-07T11:16:47Z</time><cmt>5.0 kmh</cmt></trkpt>
<trkpt lat="51.686144" lon="03.781893"><ele>1</ele><time>2021-01-07T11:16:48Z</time><cmt>5.0 kmh</cmt></trkpt>
<trkpt lat="51.686150" lon="03.781909"><ele>1</ele><time>2021-01-07T11:16:49Z</time><cmt>4.2 kmh</cmt></trkpt>
<trkpt lat="51.686157" lon="03.781925"><ele>1</ele><time>2021-01-07T11:16:50Z</time><cmt>4.1 kmh</cmt></trkpt>
<trkpt lat="51.686163" lon="03.781941"><ele>1</ele><time>2021-01-07T11:16:51Z</time><cmt>5.0 kmh</cmt></trkpt>
<trkpt lat="51.686170" lon="03.781957"><ele>1</ele><time>2021-01-07T11:16:52Z</time><cmt>5.0 kmh</cmt></trkpt>
<trkpt lat="51.686178" lon="03.781973"><ele>1</ele><time>2021-01-07T11:16:53Z</time><cmt>5.0 kmh</cmt></trkpt>
<trkpt lat="51.686185" lon="03.781990"><ele>1</ele><time>2021-01-07T11:16:54Z</time><cmt>5.0 kmh</cmt></trkpt>
<trkpt lat="51.686191" lon="03.782007"><ele>1</ele><time>2021-01-07T11:16:55Z</time><cmt>4.3 kmh</cmt></trkpt>
<trkpt lat="51.686198" lon="03.782023"><ele>1</ele><time>2021-01-07T11:16:56Z</time><cmt>4.2 kmh</cmt></trkpt>
<trkpt lat="51.686204" lon="03.782039"><ele>1</ele><time>2021-01-07T11:16:57Z</time><cmt>5.0 kmh</cmt></trkpt>
<trkpt lat="51.686211" lon="03.782055"><ele>1</ele><time>2021-01-07T11:16:58Z</time><cmt>5.0 kmh</cmt></trkpt>
<trkpt lat="51.686219" lon="03.782071"><ele>1</ele><time>2021-01-07T11:16:59Z</time><cmt>5.0 kmh</cmt></trkpt>
<trkpt lat="51.686226" lon="03.782088"><ele>1</ele><time>2021-01-07T11:17:00Z</time><cmt>5.0 kmh</cmt></trkpt>
<trkpt lat="51.686233" lon="03.782104"><ele>1</ele><time>2021-01-07T11:17:01Z</time><cmt>5.0 kmh</cmt></trkpt>
<trkpt lat="51.686240" lon="03.782121"><ele>1</ele><time>2021-01-07T11:17:02Z</time><cmt>4.3 kmh</cmt></trkpt>
<trkpt lat="51.686246" lon="03.782137"><ele>1</ele><time>2021-01-07T11:17:03Z</time><cmt>4.1 kmh</cmt></trkpt>
<trkpt lat="51.686252" lon="03.782153"><ele>1</ele><time>2021-01-07T11:17:04Z</time><cmt>5.0 kmh</cmt></trkpt>
<trkpt lat="51.686258" lon="03.782170"><ele>1</ele><time>2021-01-07T11:17:05Z</time><cmt>5.0 kmh</cmt></trkpt>
<trkpt lat="51.686263" lon="03.782186"><ele>1</ele><time>2021-01-07T11:17:06Z</time><cmt>5.0 kmh</cmt></trkpt>
<trkpt lat="51.686269" lon="03.782202"><ele>1</ele><time>2021-01-07T11:17:07Z</time><cmt>4.9 kmh</cmt></trkpt>
<trkpt lat="51.686275" lon="03.782219"><ele>1</ele><time>2021-01-07T11:17:08Z</time><cmt>4.0 kmh</cmt></trkpt>
<trkpt lat="51.686280" lon="03.782235"><ele>1</ele><time>2021-01-07T11:17:09Z</time><cmt>4.1 kmh</cmt></trkpt>
<trkpt lat="51.686285" lon="03.782250"><ele>1</ele><time>2021-01-07T11:17:10Z</time><cmt>4.8 kmh</cmt></trkpt>
<trkpt lat="51.686291" lon="03.782267"><ele>1</ele><time>2021-01-07T11:17:11Z</time><cmt>4.8 kmh</cmt></trkpt>
<trkpt lat="51.686298" lon="03.782284"><ele>1</ele><time>2021-01-07T11:17:12Z</time><cmt>5.0 kmh</cmt></trkpt>
<trkpt lat="51.686309" lon="03.782312"><ele>1</ele><time>2021-01-07T11:17:14Z</time><cmt>4.8 kmh</cmt></trkpt>
<trkpt lat="51.686322" lon="03.782347"><ele>2</ele><time>2021-01-07T11:17:16Z</time><cmt>4.4 kmh</cmt></trkpt>
<trkpt lat="51.686334" lon="03.782383"><ele>2</ele><time>2021-01-07T11:17:18Z</time><cmt>5.3 kmh</cmt></trkpt>
<trkpt lat="51.686342" lon="03.782410"><ele>2</ele><time>2021-01-07T11:17:19Z</time><cmt>5.3 kmh</cmt></trkpt>
<trkpt lat="51.686347" lon="03.782425"><ele>2</ele><time>2021-01-07T11:17:20Z</time><cmt>5.1 kmh</cmt></trkpt>
<trkpt lat="51.686352" lon="03.782442"><ele>2</ele><time>2021-01-07T11:17:21Z</time><cmt>5.1 kmh</cmt></trkpt>
<trkpt lat="51.686358" lon="03.782459"><ele>2</ele><time>2021-01-07T11:17:22Z</time><cmt>5.1 kmh</cmt></trkpt>
<trkpt lat="51.686363" lon="03.782476"><ele>2</ele><time>2021-01-07T11:17:23Z</time><cmt>5.0 kmh</cmt></trkpt>
<trkpt lat="51.686369" lon="03.782493"><ele>2</ele><time>2021-01-07T11:17:24Z</time><cmt>5.4 kmh</cmt></trkpt>
<trkpt lat="51.686373" lon="03.782510"><ele>2</ele><time>2021-01-07T11:17:25Z</time><cmt>5.4 kmh</cmt></trkpt>
<trkpt lat="51.686379" lon="03.782528"><ele>2</ele><time>2021-01-07T11:17:26Z</time><cmt>5.2 kmh</cmt></trkpt>
<trkpt lat="51.686385" lon="03.782546"><ele>2</ele><time>2021-01-07T11:17:27Z</time><cmt>5.0 kmh</cmt></trkpt>
<trkpt lat="51.686391" lon="03.782564"><ele>2</ele><time>2021-01-07T11:17:28Z</time><cmt>5.0 kmh</cmt></trkpt>
<trkpt lat="51.686396" lon="03.782582"><ele>2</ele><time>2021-01-07T11:17:29Z</time><cmt>5.1 kmh</cmt></trkpt>
<trkpt lat="51.686402" lon="03.782600"><ele>2</ele><time>2021-01-07T11:17:30Z</time><cmt>5.0 kmh</cmt></trkpt>
<trkpt lat="51.686408" lon="03.782618"><ele>3</ele><time>2021-01-07T11:17:31Z</time><cmt>5.1 kmh</cmt></trkpt>
<trkpt lat="51.686414" lon="03.782636"><ele>3</ele><time>2021-01-07T11:17:32Z</time><cmt>5.1 kmh</cmt></trkpt>
<trkpt lat="51.686419" lon="03.782654"><ele>3</ele><time>2021-01-07T11:17:33Z</time><cmt>5.0 kmh</cmt></trkpt>
<trkpt lat="51.686424" lon="03.782671"><ele>3</ele><time>2021-01-07T11:17:34Z</time><cmt>4.1 kmh</cmt></trkpt>
<trkpt lat="51.686430" lon="03.782688"><ele>3</ele><time>2021-01-07T11:17:35Z</time><cmt>5.0 kmh</cmt></trkpt>
<trkpt lat="51.686436" lon="03.782706"><ele>3</ele><time>2021-01-07T11:17:36Z</time><cmt>5.1 kmh</cmt></trkpt>
<trkpt lat="51.686442" lon="03.782724"><ele>3</ele><time>2021-01-07T11:17:37Z</time><cmt>5.1 kmh</cmt></trkpt>
<trkpt lat="51.686447" lon="03.782743"><ele>3</ele><time>2021-01-07T11:17:38Z</time><cmt>5.1 kmh</cmt></trkpt>
<trkpt lat="51.686453" lon="03.782762"><ele>3</ele><time>2021-01-07T11:17:39Z</time><cmt>5.1 kmh</cmt></trkpt>
<trkpt lat="51.686459" lon="03.782780"><ele>3</ele><time>2021-01-07T11:17:40Z</time><cmt>5.1 kmh</cmt></trkpt>
<trkpt lat="51.686465" lon="03.782798"><ele>3</ele><time>2021-01-07T11:17:41Z</time><cmt>5.3 kmh</cmt></trkpt>
<trkpt lat="51.686471" lon="03.782816"><ele>3</ele><time>2021-01-07T11:17:42Z</time><cmt>5.2 kmh</cmt></trkpt>
<trkpt lat="51.686482" lon="03.782853"><ele>3</ele><time>2021-01-07T11:17:44Z</time><cmt>5.2 kmh</cmt></trkpt>
<trkpt lat="51.686492" lon="03.782887"><ele>3</ele><time>2021-01-07T11:17:46Z</time><cmt>4.7 kmh</cmt></trkpt>
<trkpt lat="51.686496" lon="03.782903"><ele>3</ele><time>2021-01-07T11:17:47Z</time><cmt>4.2 kmh</cmt></trkpt>
<trkpt lat="51.686501" lon="03.782920"><ele>3</ele><time>2021-01-07T11:17:48Z</time><cmt>4.7 kmh</cmt></trkpt>
<trkpt lat="51.686506" lon="03.782937"><ele>3</ele><time>2021-01-07T11:17:49Z</time><cmt>5.0 kmh</cmt></trkpt>
<trkpt lat="51.686511" lon="03.782955"><ele>3</ele><time>2021-01-07T11:17:50Z</time><cmt>5.3 kmh</cmt></trkpt>
<trkpt lat="51.686517" lon="03.782972"><ele>3</ele><time>2021-01-07T11:17:51Z</time><cmt>5.3 kmh</cmt></trkpt>
<trkpt lat="51.686522" lon="03.782989"><ele>3</ele><time>2021-01-07T11:17:52Z</time><cmt>5.0 kmh</cmt></trkpt>
<trkpt lat="51.686536" lon="03.783037"><ele>3</ele><time>2021-01-07T11:17:55Z</time><cmt>5.1 kmh</cmt></trkpt>
<trkpt lat="51.686546" lon="03.783073"><ele>3</ele><time>2021-01-07T11:17:57Z</time><cmt>5.1 kmh</cmt></trkpt>
<trkpt lat="51.686556" lon="03.783108"><ele>3</ele><time>2021-01-07T11:17:59Z</time><cmt>5.0 kmh</cmt></trkpt>
<trkpt lat="51.686565" lon="03.783144"><ele>3</ele><time>2021-01-07T11:18:01Z</time><cmt>4.6 kmh</cmt></trkpt>
<trkpt lat="51.686574" lon="03.783179"><ele>3</ele><time>2021-01-07T11:18:03Z</time><cmt>5.0 kmh</cmt></trkpt>
<trkpt lat="51.686584" lon="03.783213"><ele>3</ele><time>2021-01-07T11:18:05Z</time><cmt>4.5 kmh</cmt></trkpt>
<trkpt lat="51.686594" lon="03.783246"><ele>3</ele><time>2021-01-07T11:18:07Z</time><cmt>4.4 kmh</cmt></trkpt>
<trkpt lat="51.686603" lon="03.783281"><ele>3</ele><time>2021-01-07T11:18:09Z</time><cmt>5.1 kmh</cmt></trkpt>
<trkpt lat="51.686613" lon="03.783316"><ele>3</ele><time>2021-01-07T11:18:11Z</time><cmt>5.3 kmh</cmt></trkpt>
<trkpt lat="51.686624" lon="03.783351"><ele>3</ele><time>2021-01-07T11:18:13Z</time><cmt>4.2 kmh</cmt></trkpt>
<trkpt lat="51.686635" lon="03.783386"><ele>3</ele><time>2021-01-07T11:18:15Z</time><cmt>5.0 kmh</cmt></trkpt>
<trkpt lat="51.686645" lon="03.783420"><ele>3</ele><time>2021-01-07T11:18:17Z</time><cmt>5.0 kmh</cmt></trkpt>
<trkpt lat="51.686656" lon="03.783455"><ele>3</ele><time>2021-01-07T11:18:19Z</time><cmt>5.0 kmh</cmt></trkpt>
<trkpt lat="51.686664" lon="03.783481"><ele>3</ele><time>2021-01-07T11:18:20Z</time><cmt>5.0 kmh</cmt></trkpt>
<trkpt lat="51.686669" lon="03.783497"><ele>3</ele><time>2021-01-07T11:18:21Z</time><cmt>5.0 kmh</cmt></trkpt>
<trkpt lat="51.686674" lon="03.783513"><ele>3</ele><time>2021-01-07T11:18:22Z</time><cmt>4.7 kmh</cmt></trkpt>
<trkpt lat="51.686687" lon="03.783560"><ele>3</ele><time>2021-01-07T11:18:25Z</time><cmt>5.0 kmh</cmt></trkpt>
<trkpt lat="51.686697" lon="03.783595"><ele>3</ele><time>2021-01-07T11:18:27Z</time><cmt>5.0 kmh</cmt></trkpt>
<trkpt lat="51.686708" lon="03.783629"><ele>3</ele><time>2021-01-07T11:18:29Z</time><cmt>5.0 kmh</cmt></trkpt>
<trkpt lat="51.686719" lon="03.783665"><ele>3</ele><time>2021-01-07T11:18:31Z</time><cmt>5.4 kmh</cmt></trkpt>
<trkpt lat="51.686732" lon="03.783701"><ele>4</ele><time>2021-01-07T11:18:33Z</time><cmt>5.1 kmh</cmt></trkpt>
<trkpt lat="51.686744" lon="03.783736"><ele>4</ele><time>2021-01-07T11:18:35Z</time><cmt>5.1 kmh</cmt></trkpt>
<trkpt lat="51.686754" lon="03.783771"><ele>4</ele><time>2021-01-07T11:18:37Z</time><cmt>4.7 kmh</cmt></trkpt>
<trkpt lat="51.686764" lon="03.783805"><ele>4</ele><time>2021-01-07T11:18:39Z</time><cmt>5.2 kmh</cmt></trkpt>
<trkpt lat="51.686776" lon="03.783840"><ele>4</ele><time>2021-01-07T11:18:41Z</time><cmt>5.1 kmh</cmt></trkpt>
<trkpt lat="51.686787" lon="03.783874"><ele>4</ele><time>2021-01-07T11:18:43Z</time><cmt>5.0 kmh</cmt></trkpt>
<trkpt lat="51.686798" lon="03.783909"><ele>4</ele><time>2021-01-07T11:18:45Z</time><cmt>5.1 kmh</cmt></trkpt>
<trkpt lat="51.686810" lon="03.783944"><ele>4</ele><time>2021-01-07T11:18:47Z</time><cmt>5.0 kmh</cmt></trkpt>
<trkpt lat="51.686822" lon="03.783978"><ele>4</ele><time>2021-01-07T11:18:49Z</time><cmt>5.0 kmh</cmt></trkpt>
<trkpt lat="51.686834" lon="03.784013"><ele>4</ele><time>2021-01-07T11:18:51Z</time><cmt>4.2 kmh</cmt></trkpt>
<trkpt lat="51.686846" lon="03.784046"><ele>4</ele><time>2021-01-07T11:18:53Z</time><cmt>5.0 kmh</cmt></trkpt>
<trkpt lat="51.686857" lon="03.784079"><ele>4</ele><time>2021-01-07T11:18:55Z</time><cmt>5.0 kmh</cmt></trkpt>
<trkpt lat="51.686868" lon="03.784112"><ele>5</ele><time>2021-01-07T11:18:57Z</time><cmt>4.1 kmh</cmt></trkpt>
<trkpt lat="51.686880" lon="03.784145"><ele>5</ele><time>2021-01-07T11:18:59Z</time><cmt>5.0 kmh</cmt></trkpt>
<trkpt lat="51.686891" lon="03.784178"><ele>5</ele><time>2021-01-07T11:19:01Z</time><cmt>5.0 kmh</cmt></trkpt>
<trkpt lat="51.686901" lon="03.784212"><ele>5</ele><time>2021-01-07T11:19:03Z</time><cmt>4.0 kmh</cmt></trkpt>
<trkpt lat="51.686913" lon="03.784246"><ele>5</ele><time>2021-01-07T11:19:05Z</time><cmt>5.1 kmh</cmt></trkpt>
<trkpt lat="51.686925" lon="03.784278"><ele>5</ele><time>2021-01-07T11:19:07Z</time><cmt>5.0 kmh</cmt></trkpt>
<trkpt lat="51.686938" lon="03.784312"><ele>5</ele><time>2021-01-07T11:19:09Z</time><cmt>4.6 kmh</cmt></trkpt>
<trkpt lat="51.686951" lon="03.784344"><ele>5</ele><time>2021-01-07T11:19:11Z</time><cmt>4.6 kmh</cmt></trkpt>
<trkpt lat="51.686963" lon="03.784376"><ele>5</ele><time>2021-01-07T11:19:13Z</time><cmt>5.0 kmh</cmt></trkpt>
<trkpt lat="51.686976" lon="03.784410"><ele>5</ele><time>2021-01-07T11:19:15Z</time><cmt>4.6 kmh</cmt></trkpt>
<trkpt lat="51.686990" lon="03.784445"><ele>5</ele><time>2021-01-07T11:19:17Z</time><cmt>4.8 kmh</cmt></trkpt>
<trkpt lat="51.687004" lon="03.784477"><ele>5</ele><time>2021-01-07T11:19:19Z</time><cmt>5.0 kmh</cmt></trkpt>
<trkpt lat="51.687017" lon="03.784509"><ele>5</ele><time>2021-01-07T11:19:21Z</time><cmt>4.6 kmh</cmt></trkpt>
<trkpt lat="51.687030" lon="03.784541"><ele>5</ele><time>2021-01-07T11:19:23Z</time><cmt>4.6 kmh</cmt></trkpt>
<trkpt lat="51.687045" lon="03.784576"><ele>4</ele><time>2021-01-07T11:19:25Z</time><cmt>5.3 kmh</cmt></trkpt>
<trkpt lat="51.687060" lon="03.784609"><ele>4</ele><time>2021-01-07T11:19:27Z</time><cmt>5.0 kmh</cmt></trkpt>
<trkpt lat="51.687077" lon="03.784642"><ele>4</ele><time>2021-01-07T11:19:29Z</time><cmt>5.0 kmh</cmt></trkpt>
<trkpt lat="51.687092" lon="03.784674"><ele>4</ele><time>2021-01-07T11:19:31Z</time><cmt>5.0 kmh</cmt></trkpt>
<trkpt lat="51.687107" lon="03.784703"><ele>4</ele><time>2021-01-07T11:19:33Z</time><cmt>5.0 kmh</cmt></trkpt>
<trkpt lat="51.687119" lon="03.784727"><ele>4</ele><time>2021-01-07T11:19:34Z</time><cmt>5.0 kmh</cmt></trkpt>
<trkpt lat="51.687127" lon="03.784739"><ele>4</ele><time>2021-01-07T11:19:35Z</time><cmt>5.0 kmh</cmt></trkpt>
<trkpt lat="51.687148" lon="03.784778"><ele>4</ele><time>2021-01-07T11:19:38Z</time><cmt>5.3 kmh</cmt></trkpt>
<trkpt lat="51.687171" lon="03.784817"><ele>4</ele><time>2021-01-07T11:19:40Z</time><cmt>5.4 kmh</cmt></trkpt>
<trkpt lat="51.687179" lon="03.784830"><ele>4</ele><time>2021-01-07T11:19:41Z</time><cmt>5.1 kmh</cmt></trkpt>
<trkpt lat="51.687187" lon="03.784845"><ele>4</ele><time>2021-01-07T11:19:42Z</time><cmt>5.0 kmh</cmt></trkpt>
<trkpt lat="51.687208" lon="03.784881"><ele>4</ele><time>2021-01-07T11:19:45Z</time><cmt>4.5 kmh</cmt></trkpt>
<trkpt lat="51.687226" lon="03.784910"><ele>4</ele><time>2021-01-07T11:19:47Z</time><cmt>5.3 kmh</cmt></trkpt>
<trkpt lat="51.687243" lon="03.784936"><ele>4</ele><time>2021-01-07T11:19:49Z</time><cmt>5.0 kmh</cmt></trkpt>
<trkpt lat="51.687260" lon="03.784962"><ele>4</ele><time>2021-01-07T11:19:51Z</time><cmt>5.0 kmh</cmt></trkpt>
<trkpt lat="51.687278" lon="03.784985"><ele>4</ele><time>2021-01-07T11:19:53Z</time><cmt>4.4 kmh</cmt></trkpt>
<trkpt lat="51.687296" lon="03.785010"><ele>4</ele><time>2021-01-07T11:19:55Z</time><cmt>4.4 kmh</cmt></trkpt>
<trkpt lat="51.687313" lon="03.785033"><ele>4</ele><time>2021-01-07T11:19:57Z</time><cmt>5.0 kmh</cmt></trkpt>
<trkpt lat="51.687332" lon="03.785058"><ele>4</ele><time>2021-01-07T11:19:59Z</time><cmt>5.0 kmh</cmt></trkpt>
<trkpt lat="51.687350" lon="03.785081"><ele>4</ele><time>2021-01-07T11:20:01Z</time><cmt>5.0 kmh</cmt></trkpt>
<trkpt lat="51.687370" lon="03.785105"><ele>4</ele><time>2021-01-07T11:20:03Z</time><cmt>5.1 kmh</cmt></trkpt>
<trkpt lat="51.687387" lon="03.785126"><ele>4</ele><time>2021-01-07T11:20:05Z</time><cmt>5.1 kmh</cmt></trkpt>
<trkpt lat="51.687409" lon="03.785160"><ele>4</ele><time>2021-01-07T11:20:08Z</time><cmt>3.8 kmh</cmt></trkpt>
<trkpt lat="51.687434" lon="03.785192"><ele>4</ele><time>2021-01-07T11:20:11Z</time><cmt>4.6 kmh</cmt></trkpt>
<trkpt lat="51.687455" lon="03.785214"><ele>4</ele><time>2021-01-07T11:20:13Z</time><cmt>5.2 kmh</cmt></trkpt>
<trkpt lat="51.687473" lon="03.785234"><ele>3</ele><time>2021-01-07T11:20:15Z</time><cmt>5.2 kmh</cmt></trkpt>
<trkpt lat="51.687501" lon="03.785266"><ele>3</ele><time>2021-01-07T11:20:18Z</time><cmt>5.1 kmh</cmt></trkpt>
<trkpt lat="51.687521" lon="03.785287"><ele>3</ele><time>2021-01-07T11:20:20Z</time><cmt>5.1 kmh</cmt></trkpt>
<trkpt lat="51.687542" lon="03.785308"><ele>3</ele><time>2021-01-07T11:20:22Z</time><cmt>5.0 kmh</cmt></trkpt>
<trkpt lat="51.687563" lon="03.785328"><ele>3</ele><time>2021-01-07T11:20:24Z</time><cmt>5.2 kmh</cmt></trkpt>
<trkpt lat="51.687584" lon="03.785349"><ele>3</ele><time>2021-01-07T11:20:26Z</time><cmt>4.2 kmh</cmt></trkpt>
<trkpt lat="51.687605" lon="03.785368"><ele>3</ele><time>2021-01-07T11:20:28Z</time><cmt>5.0 kmh</cmt></trkpt>
<trkpt lat="51.687637" lon="03.785396"><ele>3</ele><time>2021-01-07T11:20:31Z</time><cmt>4.4 kmh</cmt></trkpt>
<trkpt lat="51.687668" lon="03.785421"><ele>3</ele><time>2021-01-07T11:20:34Z</time><cmt>5.0 kmh</cmt></trkpt>
<trkpt lat="51.687691" lon="03.785438"><ele>3</ele><time>2021-01-07T11:20:36Z</time><cmt>5.1 kmh</cmt></trkpt>
<trkpt lat="51.687725" lon="03.785462"><ele>3</ele><time>2021-01-07T11:20:39Z</time><cmt>5.0 kmh</cmt></trkpt>
<trkpt lat="51.687749" lon="03.785477"><ele>3</ele><time>2021-01-07T11:20:41Z</time><cmt>5.1 kmh</cmt></trkpt>
<trkpt lat="51.687773" lon="03.785491"><ele>4</ele><time>2021-01-07T11:20:43Z</time><cmt>5.0 kmh</cmt></trkpt>
<trkpt lat="51.687799" lon="03.785506"><ele>4</ele><time>2021-01-07T11:20:45Z</time><cmt>5.5 kmh</cmt></trkpt>
<trkpt lat="51.687843" lon="03.785532"><ele>4</ele><time>2021-01-07T11:20:50Z</time><cmt>5.0 kmh</cmt></trkpt>
<trkpt lat="51.687862" lon="03.785542"><ele>5</ele><time>2021-01-07T11:20:53Z</time><cmt>4.3 kmh</cmt></trkpt>
<trkpt lat="51.687864" lon="03.785543"><ele>5</ele><time>2021-01-07T11:20:54Z</time><cmt>4.8 kmh</cmt></trkpt>
<trkpt lat="51.687865" lon="03.785544"><ele>5</ele><time>2021-01-07T11:20:55Z</time><cmt>0.8 kmh</cmt></trkpt>
<trkpt lat="51.687866" lon="03.785545"><ele>5</ele><time>2021-01-07T11:20:56Z</time><cmt>0.6 kmh</cmt></trkpt>
<trkpt lat="51.687869" lon="03.785547"><ele>5</ele><time>2021-01-07T11:20:57Z</time><cmt>0.8 kmh</cmt></trkpt>
<trkpt lat="51.687875" lon="03.785549"><ele>5</ele><time>2021-01-07T11:20:58Z</time><cmt>1.5 kmh</cmt></trkpt>
<trkpt lat="51.687883" lon="03.785553"><ele>6</ele><time>2021-01-07T11:20:59Z</time><cmt>3.1 kmh</cmt></trkpt>
<trkpt lat="51.687892" lon="03.785557"><ele>6</ele><time>2021-01-07T11:21:00Z</time><cmt>3.9 kmh</cmt></trkpt>
<trkpt lat="51.687918" lon="03.785567"><ele>6</ele><time>2021-01-07T11:21:03Z</time><cmt>3.3 kmh</cmt></trkpt>
<trkpt lat="51.687938" lon="03.785577"><ele>6</ele><time>2021-01-07T11:21:05Z</time><cmt>5.0 kmh</cmt></trkpt>
<trkpt lat="51.687966" lon="03.785590"><ele>7</ele><time>2021-01-07T11:21:08Z</time><cmt>4.3 kmh</cmt></trkpt>
<trkpt lat="51.687993" lon="03.785606"><ele>7</ele><time>2021-01-07T11:21:11Z</time><cmt>3.5 kmh</cmt></trkpt>
<trkpt lat="51.688027" lon="03.785625"><ele>7</ele><time>2021-01-07T11:21:15Z</time><cmt>3.9 kmh</cmt></trkpt>
<trkpt lat="51.688078" lon="03.785637"><ele>7</ele><time>2021-01-07T11:21:20Z</time><cmt>5.0 kmh</cmt></trkpt>
<trkpt lat="51.688110" lon="03.785639"><ele>8</ele><time>2021-01-07T11:21:23Z</time><cmt>4.1 kmh</cmt></trkpt>
<trkpt lat="51.688133" lon="03.785644"><ele>8</ele><time>2021-01-07T11:21:25Z</time><cmt>5.2 kmh</cmt></trkpt>
<trkpt lat="51.688165" lon="03.785654"><ele>8</ele><time>2021-01-07T11:21:28Z</time><cmt>5.5 kmh</cmt></trkpt>
<trkpt lat="51.688196" lon="03.785665"><ele>8</ele><time>2021-01-07T11:21:31Z</time><cmt>5.0 kmh</cmt></trkpt>
<trkpt lat="51.688227" lon="03.785675"><ele>7</ele><time>2021-01-07T11:21:34Z</time><cmt>4.6 kmh</cmt></trkpt>
<trkpt lat="51.688257" lon="03.785688"><ele>7</ele><time>2021-01-07T11:21:37Z</time><cmt>3.9 kmh</cmt></trkpt>
<trkpt lat="51.688309" lon="03.785684"><ele>7</ele><time>2021-01-07T11:21:47Z</time><cmt>5.0 kmh</cmt></trkpt>
<trkpt lat="51.688310" lon="03.785684"><ele>7</ele><time>2021-01-07T11:21:48Z</time><cmt>5.0 kmh</cmt></trkpt>
<trkpt lat="51.688310" lon="03.785683"><ele>7</ele><time>2021-01-07T11:21:49Z</time><cmt>0.2 kmh</cmt></trkpt>
<trkpt lat="51.688310" lon="03.785683"><ele>7</ele><time>2021-01-07T11:21:50Z</time><cmt>0.2 kmh</cmt></trkpt>
<trkpt lat="51.688311" lon="03.785682"><ele>7</ele><time>2021-01-07T11:21:51Z</time><cmt>0.0 kmh</cmt></trkpt>
<trkpt lat="51.688310" lon="03.785681"><ele>7</ele><time>2021-01-07T11:21:52Z</time><cmt>0.0 kmh</cmt></trkpt>
<trkpt lat="51.688310" lon="03.785680"><ele>7</ele><time>2021-01-07T11:21:53Z</time><cmt>0.0 kmh</cmt></trkpt>
<trkpt lat="51.688310" lon="03.785679"><ele>8</ele><time>2021-01-07T11:21:54Z</time><cmt>0.0 kmh</cmt></trkpt>
<trkpt lat="51.688310" lon="03.785678"><ele>8</ele><time>2021-01-07T11:21:55Z</time><cmt>0.0 kmh</cmt></trkpt>
<trkpt lat="51.688310" lon="03.785678"><ele>8</ele><time>2021-01-07T11:21:56Z</time><cmt>0.0 kmh</cmt></trkpt>
<trkpt lat="51.688309" lon="03.785677"><ele>8</ele><time>2021-01-07T11:21:57Z</time><cmt>0.0 kmh</cmt></trkpt>
<trkpt lat="51.688304" lon="03.785681"><ele>8</ele><time>2021-01-07T11:22:26Z</time><cmt>0.9 kmh</cmt></trkpt>
<trkpt lat="51.688305" lon="03.785682"><ele>8</ele><time>2021-01-07T11:22:27Z</time><cmt>0.9 kmh</cmt></trkpt>
<trkpt lat="51.688305" lon="03.785683"><ele>8</ele><time>2021-01-07T11:22:28Z</time><cmt>0.0 kmh</cmt></trkpt>
<trkpt lat="51.688305" lon="03.785683"><ele>8</ele><time>2021-01-07T11:22:29Z</time><cmt>0.0 kmh</cmt></trkpt>
<trkpt lat="51.688305" lon="03.785683"><ele>8</ele><time>2021-01-07T11:22:30Z</time><cmt>0.0 kmh</cmt></trkpt>
<trkpt lat="51.688304" lon="03.785683"><ele>8</ele><time>2021-01-07T11:22:31Z</time><cmt>0.0 kmh</cmt></trkpt>
<trkpt lat="51.688304" lon="03.785682"><ele>8</ele><time>2021-01-07T11:22:32Z</time><cmt>0.0 kmh</cmt></trkpt>
<trkpt lat="51.688299" lon="03.785675"><ele>8</ele><time>2021-01-07T11:22:45Z</time><cmt>1.3 kmh</cmt></trkpt>
<trkpt lat="51.688299" lon="03.785675"><ele>8</ele><time>2021-01-07T11:22:46Z</time><cmt>1.3 kmh</cmt></trkpt>
<trkpt lat="51.688300" lon="03.785675"><ele>8</ele><time>2021-01-07T11:22:47Z</time><cmt>0.0 kmh</cmt></trkpt>
<trkpt lat="51.688300" lon="03.785676"><ele>8</ele><time>2021-01-07T11:22:48Z</time><cmt>0.0 kmh</cmt></trkpt>
<trkpt lat="51.688300" lon="03.785676"><ele>8</ele><time>2021-01-07T11:22:49Z</time><cmt>0.0 kmh</cmt></trkpt>
<trkpt lat="51.688300" lon="03.785676"><ele>8</ele><time>2021-01-07T11:22:50Z</time><cmt>0.0 kmh</cmt></trkpt>
<trkpt lat="51.688315" lon="03.785697"><ele>8</ele><time>2021-01-07T11:23:03Z</time><cmt>2.2 kmh</cmt></trkpt>
<trkpt lat="51.688333" lon="03.785708"><ele>8</ele><time>2021-01-07T11:23:05Z</time><cmt>3.4 kmh</cmt></trkpt>
<trkpt lat="51.688355" lon="03.785716"><ele>7</ele><time>2021-01-07T11:23:07Z</time><cmt>5.0 kmh</cmt></trkpt>
<trkpt lat="51.688387" lon="03.785725"><ele>7</ele><time>2021-01-07T11:23:10Z</time><cmt>4.0 kmh</cmt></trkpt>
<trkpt lat="51.688409" lon="03.785733"><ele>7</ele><time>2021-01-07T11:23:12Z</time><cmt>5.0 kmh</cmt></trkpt>
<trkpt lat="51.688444" lon="03.785740"><ele>7</ele><time>2021-01-07T11:23:15Z</time><cmt>5.0 kmh</cmt></trkpt>
<trkpt lat="51.688476" lon="03.785749"><ele>6</ele><time>2021-01-07T11:23:18Z</time><cmt>4.1 kmh</cmt></trkpt>
<trkpt lat="51.688507" lon="03.785760"><ele>6</ele><time>2021-01-07T11:23:21Z</time><cmt>4.5 kmh</cmt></trkpt>
<trkpt lat="51.688538" lon="03.785769"><ele>5</ele><time>2021-01-07T11:23:24Z</time><cmt>5.0 kmh</cmt></trkpt>
<trkpt lat="51.688570" lon="03.785778"><ele>5</ele><time>2021-01-07T11:23:27Z</time><cmt>4.6 kmh</cmt></trkpt>
<trkpt lat="51.688598" lon="03.785788"><ele>4</ele><time>2021-01-07T11:23:30Z</time><cmt>3.5 kmh</cmt></trkpt>
<trkpt lat="51.688635" lon="03.785797"><ele>3</ele><time>2021-01-07T11:23:34Z</time><cmt>4.1 kmh</cmt></trkpt>
<trkpt lat="51.688676" lon="03.785804"><ele>3</ele><time>2021-01-07T11:23:38Z</time><cmt>3.9 kmh</cmt></trkpt>
<trkpt lat="51.688715" lon="03.785812"><ele>2</ele><time>2021-01-07T11:23:42Z</time><cmt>3.8 kmh</cmt></trkpt>
<trkpt lat="51.688748" lon="03.785815"><ele>2</ele><time>2021-01-07T11:23:45Z</time><cmt>4.8 kmh</cmt></trkpt>
<trkpt lat="51.688789" lon="03.785815"><ele>2</ele><time>2021-01-07T11:23:49Z</time><cmt>5.0 kmh</cmt></trkpt>
<trkpt lat="51.688833" lon="03.785829"><ele>1</ele><time>2021-01-07T11:23:53Z</time><cmt>4.9 kmh</cmt></trkpt>
<trkpt lat="51.688880" lon="03.785843"><ele>1</ele><time>2021-01-07T11:23:56Z</time><cmt>5.0 kmh</cmt></trkpt>
<trkpt lat="51.688931" lon="03.785852"><ele>2</ele><time>2021-01-07T11:23:58Z</time><cmt>5.0 kmh</cmt></trkpt>
<trkpt lat="51.688981" lon="03.785858"><ele>2</ele><time>2021-01-07T11:24:00Z</time><cmt>5.0 kmh</cmt></trkpt>
<trkpt lat="51.689018" lon="03.785865"><ele>3</ele><time>2021-01-07T11:24:02Z</time><cmt>5.0 kmh</cmt></trkpt>
<trkpt lat="51.689052" lon="03.785877"><ele>4</ele><time>2021-01-07T11:24:05Z</time><cmt>5.0 kmh</cmt></trkpt>
<trkpt lat="51.689075" lon="03.785885"><ele>5</ele><time>2021-01-07T11:24:07Z</time><cmt>5.0 kmh</cmt></trkpt>
<trkpt lat="51.689104" lon="03.785892"><ele>5</ele><time>2021-01-07T11:24:09Z</time><cmt>5.0 kmh</cmt></trkpt>
<trkpt lat="51.689133" lon="03.785899"><ele>6</ele><time>2021-01-07T11:24:11Z</time><cmt>5.2 kmh</cmt></trkpt>
<trkpt lat="51.689162" lon="03.785907"><ele>6</ele><time>2021-01-07T11:24:13Z</time><cmt>5.0 kmh</cmt></trkpt>
<trkpt lat="51.689200" lon="03.785918"><ele>7</ele><time>2021-01-07T11:24:15Z</time><cmt>5.0 kmh</cmt></trkpt>
<trkpt lat="51.689224" lon="03.785929"><ele>8</ele><time>2021-01-07T11:24:18Z</time><cmt>3.6 kmh</cmt></trkpt>
<trkpt lat="51.689244" lon="03.785948"><ele>8</ele><time>2021-01-07T11:24:21Z</time><cmt>2.8 kmh</cmt></trkpt>
<trkpt lat="51.689265" lon="03.785961"><ele>8</ele><time>2021-01-07T11:24:23Z</time><cmt>5.0 kmh</cmt></trkpt>
<trkpt lat="51.689283" lon="03.785973"><ele>9</ele><time>2021-01-07T11:24:25Z</time><cmt>4.5 kmh</cmt></trkpt>
<trkpt lat="51.689301" lon="03.785987"><ele>9</ele><time>2021-01-07T11:24:27Z</time><cmt>3.6 kmh</cmt></trkpt>
<trkpt lat="51.689326" lon="03.786006"><ele>8</ele><time>2021-01-07T11:24:30Z</time><cmt>4.0 kmh</cmt></trkpt>
<trkpt lat="51.689353" lon="03.786030"><ele>8</ele><time>2021-01-07T11:24:33Z</time><cmt>3.7 kmh</cmt></trkpt>
<trkpt lat="51.689373" lon="03.786044"><ele>8</ele><time>2021-01-07T11:24:35Z</time><cmt>5.0 kmh</cmt></trkpt>
<trkpt lat="51.689393" lon="03.786056"><ele>8</ele><time>2021-01-07T11:24:37Z</time><cmt>4.7 kmh</cmt></trkpt>
<trkpt lat="51.689412" lon="03.786070"><ele>8</ele><time>2021-01-07T11:24:39Z</time><cmt>4.1 kmh</cmt></trkpt>
<trkpt lat="51.689436" lon="03.786086"><ele>7</ele><time>2021-01-07T11:24:41Z</time><cmt>4.5 kmh</cmt></trkpt>
<trkpt lat="51.689462" lon="03.786100"><ele>7</ele><time>2021-01-07T11:24:43Z</time><cmt>5.0 kmh</cmt></trkpt>
<trkpt lat="51.689489" lon="03.786114"><ele>7</ele><time>2021-01-07T11:24:45Z</time><cmt>5.0 kmh</cmt></trkpt>
<trkpt lat="51.689514" lon="03.786127"><ele>8</ele><time>2021-01-07T11:24:47Z</time><cmt>4.4 kmh</cmt></trkpt>
<trkpt lat="51.689540" lon="03.786144"><ele>8</ele><time>2021-01-07T11:24:49Z</time><cmt>5.0 kmh</cmt></trkpt>
<trkpt lat="51.689566" lon="03.786159"><ele>8</ele><time>2021-01-07T11:24:51Z</time><cmt>5.0 kmh</cmt></trkpt>
<trkpt lat="51.689587" lon="03.786176"><ele>8</ele><time>2021-01-07T11:24:53Z</time><cmt>4.1 kmh</cmt></trkpt>
<trkpt lat="51.689609" lon="03.786190"><ele>8</ele><time>2021-01-07T11:24:55Z</time><cmt>5.0 kmh</cmt></trkpt>
<trkpt lat="51.689632" lon="03.786199"><ele>9</ele><time>2021-01-07T11:24:57Z</time><cmt>5.0 kmh</cmt></trkpt>
<trkpt lat="51.689652" lon="03.786210"><ele>9</ele><time>2021-01-07T11:24:59Z</time><cmt>3.7 kmh</cmt></trkpt>
<trkpt lat="51.689677" lon="03.786223"><ele>9</ele><time>2021-01-07T11:25:01Z</time><cmt>5.0 kmh</cmt></trkpt>
<trkpt lat="51.689703" lon="03.786237"><ele>9</ele><time>2021-01-07T11:25:03Z</time><cmt>5.0 kmh</cmt></trkpt>
<trkpt lat="51.689720" lon="03.786253"><ele>9</ele><time>2021-01-07T11:25:05Z</time><cmt>4.6 kmh</cmt></trkpt>
<trkpt lat="51.689737" lon="03.786267"><ele>9</ele><time>2021-01-07T11:25:07Z</time><cmt>3.8 kmh</cmt></trkpt>
<trkpt lat="51.689757" lon="03.786283"><ele>9</ele><time>2021-01-07T11:25:09Z</time><cmt>4.4 kmh</cmt></trkpt>
<trkpt lat="51.689778" lon="03.786299"><ele>9</ele><time>2021-01-07T11:25:11Z</time><cmt>4.4 kmh</cmt></trkpt>
<trkpt lat="51.689800" lon="03.786315"><ele>9</ele><time>2021-01-07T11:25:13Z</time><cmt>4.6 kmh</cmt></trkpt>
<trkpt lat="51.689819" lon="03.786328"><ele>9</ele><time>2021-01-07T11:25:15Z</time><cmt>4.8 kmh</cmt></trkpt>
<trkpt lat="51.689844" lon="03.786347"><ele>9</ele><time>2021-01-07T11:25:18Z</time><cmt>3.4 kmh</cmt></trkpt>
<trkpt lat="51.689870" lon="03.786368"><ele>8</ele><time>2021-01-07T11:25:21Z</time><cmt>4.3 kmh</cmt></trkpt>
<trkpt lat="51.689893" lon="03.786381"><ele>8</ele><time>2021-01-07T11:25:23Z</time><cmt>5.0 kmh</cmt></trkpt>
<trkpt lat="51.689919" lon="03.786402"><ele>7</ele><time>2021-01-07T11:25:26Z</time><cmt>3.6 kmh</cmt></trkpt>
<trkpt lat="51.689943" lon="03.786419"><ele>7</ele><time>2021-01-07T11:25:28Z</time><cmt>5.0 kmh</cmt></trkpt>
<trkpt lat="51.689961" lon="03.786436"><ele>6</ele><time>2021-01-07T11:25:30Z</time><cmt>4.5 kmh</cmt></trkpt>
<trkpt lat="51.689983" lon="03.786452"><ele>6</ele><time>2021-01-07T11:25:32Z</time><cmt>4.3 kmh</cmt></trkpt>
<trkpt lat="51.690005" lon="03.786466"><ele>6</ele><time>2021-01-07T11:25:34Z</time><cmt>5.0 kmh</cmt></trkpt>
<trkpt lat="51.690026" lon="03.786478"><ele>5</ele><time>2021-01-07T11:25:36Z</time><cmt>4.4 kmh</cmt></trkpt>
<trkpt lat="51.690049" lon="03.786492"><ele>5</ele><time>2021-01-07T11:25:38Z</time><cmt>4.5 kmh</cmt></trkpt>
<trkpt lat="51.690071" lon="03.786510"><ele>5</ele><time>2021-01-07T11:25:40Z</time><cmt>5.0 kmh</cmt></trkpt>
<trkpt lat="51.690096" lon="03.786523"><ele>5</ele><time>2021-01-07T11:25:42Z</time><cmt>5.0 kmh</cmt></trkpt>
<trkpt lat="51.690120" lon="03.786535"><ele>4</ele><time>2021-01-07T11:25:44Z</time><cmt>4.4 kmh</cmt></trkpt>
<trkpt lat="51.690142" lon="03.786551"><ele>4</ele><time>2021-01-07T11:25:46Z</time><cmt>5.0 kmh</cmt></trkpt>
<trkpt lat="51.690165" lon="03.786568"><ele>4</ele><time>2021-01-07T11:25:48Z</time><cmt>5.0 kmh</cmt></trkpt>
<trkpt lat="51.690186" lon="03.786584"><ele>4</ele><time>2021-01-07T11:25:50Z</time><cmt>4.0 kmh</cmt></trkpt>
<trkpt lat="51.690217" lon="03.786600"><ele>4</ele><time>2021-01-07T11:25:52Z</time><cmt>5.0 kmh</cmt></trkpt>
<trkpt lat="51.690244" lon="03.786620"><ele>4</ele><time>2021-01-07T11:25:54Z</time><cmt>5.0 kmh</cmt></trkpt>
<trkpt lat="51.690267" lon="03.786637"><ele>4</ele><time>2021-01-07T11:25:56Z</time><cmt>4.3 kmh</cmt></trkpt>
<trkpt lat="51.690289" lon="03.786651"><ele>3</ele><time>2021-01-07T11:25:58Z</time><cmt>5.0 kmh</cmt></trkpt>
<trkpt lat="51.690310" lon="03.786665"><ele>3</ele><time>2021-01-07T11:26:00Z</time><cmt>5.0 kmh</cmt></trkpt>
<trkpt lat="51.690332" lon="03.786679"><ele>3</ele><time>2021-01-07T11:26:02Z</time><cmt>4.5 kmh</cmt></trkpt>
<trkpt lat="51.690352" lon="03.786693"><ele>3</ele><time>2021-01-07T11:26:04Z</time><cmt>4.4 kmh</cmt></trkpt>
<trkpt lat="51.690372" lon="03.786708"><ele>2</ele><time>2021-01-07T11:26:06Z</time><cmt>4.8 kmh</cmt></trkpt>
<trkpt lat="51.690396" lon="03.786721"><ele>2</ele><time>2021-01-07T11:26:08Z</time><cmt>4.6 kmh</cmt></trkpt>
<trkpt lat="51.690420" lon="03.786735"><ele>2</ele><time>2021-01-07T11:26:10Z</time><cmt>4.8 kmh</cmt></trkpt>
<trkpt lat="51.690444" lon="03.786749"><ele>2</ele><time>2021-01-07T11:26:12Z</time><cmt>5.0 kmh</cmt></trkpt>
<trkpt lat="51.690466" lon="03.786763"><ele>1</ele><time>2021-01-07T11:26:14Z</time><cmt>5.0 kmh</cmt></trkpt>
<trkpt lat="51.690489" lon="03.786774"><ele>1</ele><time>2021-01-07T11:26:16Z</time><cmt>4.2 kmh</cmt></trkpt>
<trkpt lat="51.690511" lon="03.786789"><ele>1</ele><time>2021-01-07T11:26:18Z</time><cmt>5.0 kmh</cmt></trkpt>
<trkpt lat="51.690535" lon="03.786804"><ele>1</ele><time>2021-01-07T11:26:20Z</time><cmt>5.2 kmh</cmt></trkpt>
<trkpt lat="51.690557" lon="03.786816"><ele>1</ele><time>2021-01-07T11:26:22Z</time><cmt>4.0 kmh</cmt></trkpt>
<trkpt lat="51.690583" lon="03.786827"><ele>1</ele><time>2021-01-07T11:26:24Z</time><cmt>5.0 kmh</cmt></trkpt>
<trkpt lat="51.690605" lon="03.786839"><ele>1</ele><time>2021-01-07T11:26:26Z</time><cmt>5.0 kmh</cmt></trkpt>
<trkpt lat="51.690633" lon="03.786852"><ele>1</ele><time>2021-01-07T11:26:29Z</time><cmt>3.6 kmh</cmt></trkpt>
<trkpt lat="51.690662" lon="03.786869"><ele>1</ele><time>2021-01-07T11:26:32Z</time><cmt>4.5 kmh</cmt></trkpt>
<trkpt lat="51.690687" lon="03.786887"><ele>1</ele><time>2021-01-07T11:26:35Z</time><cmt>3.4 kmh</cmt></trkpt>
<trkpt lat="51.690716" lon="03.786906"><ele>0</ele><time>2021-01-07T11:26:40Z</time><cmt>3.9 kmh</cmt></trkpt>
<trkpt lat="51.690752" lon="03.786931"><ele>0</ele><time>2021-01-07T11:26:44Z</time><cmt>4.2 kmh</cmt></trkpt>
<trkpt lat="51.690789" lon="03.786960"><ele>0</ele><time>2021-01-07T11:26:48Z</time><cmt>3.9 kmh</cmt></trkpt>
<trkpt lat="51.690828" lon="03.786987"><ele>0</ele><time>2021-01-07T11:26:52Z</time><cmt>4.6 kmh</cmt></trkpt>
<trkpt lat="51.690869" lon="03.787012"><ele>0</ele><time>2021-01-07T11:26:56Z</time><cmt>5.0 kmh</cmt></trkpt>
<trkpt lat="51.690912" lon="03.787035"><ele>0</ele><time>2021-01-07T11:27:00Z</time><cmt>5.0 kmh</cmt></trkpt>
<trkpt lat="51.690966" lon="03.787065"><ele>0</ele><time>2021-01-07T11:27:05Z</time><cmt>5.0 kmh</cmt></trkpt>
<trkpt lat="51.691021" lon="03.787095"><ele>0</ele><time>2021-01-07T11:27:10Z</time><cmt>5.0 kmh</cmt></trkpt>
<trkpt lat="51.691073" lon="03.787119"><ele>0</ele><time>2021-01-07T11:27:15Z</time><cmt>5.0 kmh</cmt></trkpt>
<trkpt lat="51.691135" lon="03.787153"><ele>0</ele><time>2021-01-07T11:27:21Z</time><cmt>5.0 kmh</cmt></trkpt>
<trkpt lat="51.691199" lon="03.787184"><ele>0</ele><time>2021-01-07T11:27:27Z</time><cmt>5.0 kmh</cmt></trkpt>
<trkpt lat="51.691267" lon="03.787219"><ele>0</ele><time>2021-01-07T11:27:33Z</time><cmt>5.0 kmh</cmt></trkpt>
<trkpt lat="51.691331" lon="03.787250"><ele>0</ele><time>2021-01-07T11:27:38Z</time><cmt>5.0 kmh</cmt></trkpt>
<trkpt lat="51.691386" lon="03.787268"><ele>0</ele><time>2021-01-07T11:27:41Z</time><cmt>5.0 kmh</cmt></trkpt>
<trkpt lat="51.691421" lon="03.787281"><ele>0</ele><time>2021-01-07T11:27:43Z</time><cmt>5.0 kmh</cmt></trkpt>
<trkpt lat="51.691452" lon="03.787292"><ele>0</ele><time>2021-01-07T11:27:45Z</time><cmt>5.0 kmh</cmt></trkpt>
<trkpt lat="51.691492" lon="03.787310"><ele>0</ele><time>2021-01-07T11:27:48Z</time><cmt>5.0 kmh</cmt></trkpt>
<trkpt lat="51.691534" lon="03.787334"><ele>0</ele><time>2021-01-07T11:27:52Z</time><cmt>4.3 kmh</cmt></trkpt>
<trkpt lat="51.691571" lon="03.787352"><ele>1</ele><time>2021-01-07T11:27:55Z</time><cmt>5.0 kmh</cmt></trkpt>
<trkpt lat="51.691607" lon="03.787369"><ele>1</ele><time>2021-01-07T11:27:58Z</time><cmt>4.7 kmh</cmt></trkpt>
<trkpt lat="51.691643" lon="03.787388"><ele>1</ele><time>2021-01-07T11:28:01Z</time><cmt>5.0 kmh</cmt></trkpt>
<trkpt lat="51.691670" lon="03.787399"><ele>1</ele><time>2021-01-07T11:28:03Z</time><cmt>4.7 kmh</cmt></trkpt>
<trkpt lat="51.691706" lon="03.787415"><ele>1</ele><time>2021-01-07T11:28:06Z</time><cmt>5.0 kmh</cmt></trkpt>
<trkpt lat="51.691735" lon="03.787427"><ele>1</ele><time>2021-01-07T11:28:08Z</time><cmt>5.0 kmh</cmt></trkpt>
<trkpt lat="51.691767" lon="03.787438"><ele>2</ele><time>2021-01-07T11:28:10Z</time><cmt>5.0 kmh</cmt></trkpt>
<trkpt lat="51.691795" lon="03.787447"><ele>2</ele><time>2021-01-07T11:28:12Z</time><cmt>5.0 kmh</cmt></trkpt>
<trkpt lat="51.691823" lon="03.787457"><ele>2</ele><time>2021-01-07T11:28:14Z</time><cmt>5.0 kmh</cmt></trkpt>
<trkpt lat="51.691847" lon="03.787469"><ele>3</ele><time>2021-01-07T11:28:16Z</time><cmt>4.4 kmh</cmt></trkpt>
<trkpt lat="51.691872" lon="03.787480"><ele>3</ele><time>2021-01-07T11:28:18Z</time><cmt>5.0 kmh</cmt></trkpt>
<trkpt lat="51.691895" lon="03.787492"><ele>4</ele><time>2021-01-07T11:28:20Z</time><cmt>5.0 kmh</cmt></trkpt>
<trkpt lat="51.691918" lon="03.787504"><ele>4</ele><time>2021-01-07T11:28:22Z</time><cmt>4.1 kmh</cmt></trkpt>
<trkpt lat="51.691941" lon="03.787516"><ele>5</ele><time>2021-01-07T11:28:24Z</time><cmt>5.0 kmh</cmt></trkpt>
<trkpt lat="51.691966" lon="03.787530"><ele>5</ele><time>2021-01-07T11:28:26Z</time><cmt>5.0 kmh</cmt></trkpt>
<trkpt lat="51.691992" lon="03.787543"><ele>6</ele><time>2021-01-07T11:28:28Z</time><cmt>5.0 kmh</cmt></trkpt>
<trkpt lat="51.692024" lon="03.787556"><ele>6</ele><time>2021-01-07T11:28:30Z</time><cmt>5.0 kmh</cmt></trkpt>
<trkpt lat="51.692053" lon="03.787569"><ele>7</ele><time>2021-01-07T11:28:32Z</time><cmt>5.0 kmh</cmt></trkpt>
<trkpt lat="51.692078" lon="03.787582"><ele>7</ele><time>2021-01-07T11:28:34Z</time><cmt>5.0 kmh</cmt></trkpt>
<trkpt lat="51.692108" lon="03.787601"><ele>8</ele><time>2021-01-07T11:28:37Z</time><cmt>4.6 kmh</cmt></trkpt>
<trkpt lat="51.692131" lon="03.787612"><ele>8</ele><time>2021-01-07T11:28:39Z</time><cmt>5.0 kmh</cmt></trkpt>
<trkpt lat="51.692154" lon="03.787624"><ele>8</ele><time>2021-01-07T11:28:41Z</time><cmt>4.7 kmh</cmt></trkpt>
<trkpt lat="51.692179" lon="03.787635"><ele>9</ele><time>2021-01-07T11:28:43Z</time><cmt>4.9 kmh</cmt></trkpt>
<trkpt lat="51.692205" lon="03.787648"><ele>9</ele><time>2021-01-07T11:28:45Z</time><cmt>5.0 kmh</cmt></trkpt>
<trkpt lat="51.692229" lon="03.787661"><ele>9</ele><time>2021-01-07T11:28:47Z</time><cmt>5.0 kmh</cmt></trkpt>
<trkpt lat="51.692260" lon="03.787679"><ele>10</ele><time>2021-01-07T11:28:50Z</time><cmt>4.6 kmh</cmt></trkpt>
<trkpt lat="51.692292" lon="03.787697"><ele>10</ele><time>2021-01-07T11:28:53Z</time><cmt>4.2 kmh</cmt></trkpt>
<trkpt lat="51.692327" lon="03.787714"><ele>11</ele><time>2021-01-07T11:28:56Z</time><cmt>5.0 kmh</cmt></trkpt>
<trkpt lat="51.692352" lon="03.787723"><ele>11</ele><time>2021-01-07T11:28:58Z</time><cmt>5.0 kmh</cmt></trkpt>
<trkpt lat="51.692379" lon="03.787731"><ele>12</ele><time>2021-01-07T11:29:00Z</time><cmt>4.8 kmh</cmt></trkpt>
<trkpt lat="51.692403" lon="03.787738"><ele>13</ele><time>2021-01-07T11:29:02Z</time><cmt>5.0 kmh</cmt></trkpt>
<trkpt lat="51.692426" lon="03.787746"><ele>13</ele><time>2021-01-07T11:29:04Z</time><cmt>5.0 kmh</cmt></trkpt>
<trkpt lat="51.692449" lon="03.787755"><ele>14</ele><time>2021-01-07T11:29:06Z</time><cmt>4.6 kmh</cmt></trkpt>
<trkpt lat="51.692472" lon="03.787765"><ele>15</ele><time>2021-01-07T11:29:08Z</time><cmt>4.5 kmh</cmt></trkpt>
<trkpt lat="51.692495" lon="03.787774"><ele>15</ele><time>2021-01-07T11:29:10Z</time><cmt>5.0 kmh</cmt></trkpt>
<trkpt lat="51.692518" lon="03.787783"><ele>16</ele><time>2021-01-07T11:29:12Z</time><cmt>4.6 kmh</cmt></trkpt>
<trkpt lat="51.692544" lon="03.787792"><ele>17</ele><time>2021-01-07T11:29:14Z</time><cmt>5.1 kmh</cmt></trkpt>
<trkpt lat="51.692572" lon="03.787804"><ele>17</ele><time>2021-01-07T11:29:16Z</time><cmt>5.3 kmh</cmt></trkpt>
<trkpt lat="51.692597" lon="03.787815"><ele>18</ele><time>2021-01-07T11:29:18Z</time><cmt>5.0 kmh</cmt></trkpt>
<trkpt lat="51.692619" lon="03.787826"><ele>19</ele><time>2021-01-07T11:29:20Z</time><cmt>4.1 kmh</cmt></trkpt>
<trkpt lat="51.692649" lon="03.787839"><ele>20</ele><time>2021-01-07T11:29:23Z</time><cmt>4.5 kmh</cmt></trkpt>
<trkpt lat="51.692679" lon="03.787852"><ele>20</ele><time>2021-01-07T11:29:26Z</time><cmt>3.8 kmh</cmt></trkpt>
<trkpt lat="51.692710" lon="03.787872"><ele>21</ele><time>2021-01-07T11:29:28Z</time><cmt>5.0 kmh</cmt></trkpt>
<trkpt lat="51.692736" lon="03.787882"><ele>21</ele><time>2021-01-07T11:29:30Z</time><cmt>5.0 kmh</cmt></trkpt>
<trkpt lat="51.692756" lon="03.787893"><ele>22</ele><time>2021-01-07T11:29:32Z</time><cmt>3.6 kmh</cmt></trkpt>
<trkpt lat="51.692782" lon="03.787909"><ele>22</ele><time>2021-01-07T11:29:35Z</time><cmt>4.0 kmh</cmt></trkpt>
<trkpt lat="51.692800" lon="03.787921"><ele>23</ele><time>2021-01-07T11:29:37Z</time><cmt>5.0 kmh</cmt></trkpt>
<trkpt lat="51.692822" lon="03.787938"><ele>23</ele><time>2021-01-07T11:29:39Z</time><cmt>4.2 kmh</cmt></trkpt>
<trkpt lat="51.692845" lon="03.787957"><ele>23</ele><time>2021-01-07T11:29:41Z</time><cmt>5.0 kmh</cmt></trkpt>
<trkpt lat="51.692868" lon="03.787976"><ele>23</ele><time>2021-01-07T11:29:43Z</time><cmt>5.0 kmh</cmt></trkpt>
<trkpt lat="51.692888" lon="03.787994"><ele>22</ele><time>2021-01-07T11:29:45Z</time><cmt>3.9 kmh</cmt></trkpt>
<trkpt lat="51.692908" lon="03.788011"><ele>22</ele><time>2021-01-07T11:29:47Z</time><cmt>5.0 kmh</cmt></trkpt>
<trkpt lat="51.692927" lon="03.788028"><ele>22</ele><time>2021-01-07T11:29:49Z</time><cmt>4.9 kmh</cmt></trkpt>
<trkpt lat="51.692956" lon="03.788057"><ele>21</ele><time>2021-01-07T11:29:52Z</time><cmt>4.1 kmh</cmt></trkpt>
<trkpt lat="51.692977" lon="03.788072"><ele>20</ele><time>2021-01-07T11:29:54Z</time><cmt>5.0 kmh</cmt></trkpt>
<trkpt lat="51.692997" lon="03.788087"><ele>20</ele><time>2021-01-07T11:29:56Z</time><cmt>4.9 kmh</cmt></trkpt>
<trkpt lat="51.693026" lon="03.788106"><ele>19</ele><time>2021-01-07T11:29:59Z</time><cmt>3.9 kmh</cmt></trkpt>
<trkpt lat="51.693053" lon="03.788133"><ele>18</ele><time>2021-01-07T11:30:02Z</time><cmt>4.7 kmh</cmt></trkpt>
<trkpt lat="51.693075" lon="03.788154"><ele>17</ele><time>2021-01-07T11:30:04Z</time><cmt>5.1 kmh</cmt></trkpt>
<trkpt lat="51.693094" lon="03.788172"><ele>17</ele><time>2021-01-07T11:30:06Z</time><cmt>5.1 kmh</cmt></trkpt>
<trkpt lat="51.693119" lon="03.788190"><ele>16</ele><time>2021-01-07T11:30:08Z</time><cmt>5.0 kmh</cmt></trkpt>
<trkpt lat="51.693144" lon="03.788205"><ele>16</ele><time>2021-01-07T11:30:10Z</time><cmt>4.6 kmh</cmt></trkpt>
<trkpt lat="51.693166" lon="03.788220"><ele>16</ele><time>2021-01-07T11:30:12Z</time><cmt>5.0 kmh</cmt></trkpt>
<trkpt lat="51.693186" lon="03.788238"><ele>15</ele><time>2021-01-07T11:30:14Z</time><cmt>5.0 kmh</cmt></trkpt>
<trkpt lat="51.693214" lon="03.788268"><ele>15</ele><time>2021-01-07T11:30:17Z</time><cmt>4.2 kmh</cmt></trkpt>
<trkpt lat="51.693236" lon="03.788289"><ele>15</ele><time>2021-01-07T11:30:19Z</time><cmt>5.3 kmh</cmt></trkpt>
<trkpt lat="51.693258" lon="03.788309"><ele>14</ele><time>2021-01-07T11:30:21Z</time><cmt>5.0 kmh</cmt></trkpt>
<trkpt lat="51.693281" lon="03.788330"><ele>14</ele><time>2021-01-07T11:30:23Z</time><cmt>4.6 kmh</cmt></trkpt>
<trkpt lat="51.693303" lon="03.788349"><ele>14</ele><time>2021-01-07T11:30:25Z</time><cmt>5.0 kmh</cmt></trkpt>
<trkpt lat="51.693326" lon="03.788365"><ele>14</ele><time>2021-01-07T11:30:27Z</time><cmt>5.0 kmh</cmt></trkpt>
<trkpt lat="51.693348" lon="03.788384"><ele>13</ele><time>2021-01-07T11:30:29Z</time><cmt>4.3 kmh</cmt></trkpt>
<trkpt lat="51.693373" lon="03.788412"><ele>13</ele><time>2021-01-07T11:30:32Z</time><cmt>4.4 kmh</cmt></trkpt>
<trkpt lat="51.693397" lon="03.788433"><ele>12</ele><time>2021-01-07T11:30:35Z</time><cmt>3.3 kmh</cmt></trkpt>
<trkpt lat="51.693421" lon="03.788454"><ele>12</ele><time>2021-01-07T11:30:38Z</time><cmt>3.9 kmh</cmt></trkpt>
<trkpt lat="51.693453" lon="03.788489"><ele>11</ele><time>2021-01-07T11:30:43Z</time><cmt>4.8 kmh</cmt></trkpt>
<trkpt lat="51.693482" lon="03.788527"><ele>10</ele><time>2021-01-07T11:30:48Z</time><cmt>4.6 kmh</cmt></trkpt>
<trkpt lat="51.693511" lon="03.788556"><ele>9</ele><time>2021-01-07T11:30:52Z</time><cmt>3.7 kmh</cmt></trkpt>
<trkpt lat="51.693541" lon="03.788588"><ele>8</ele><time>2021-01-07T11:30:56Z</time><cmt>3.5 kmh</cmt></trkpt>
<trkpt lat="51.693577" lon="03.788622"><ele>8</ele><time>2021-01-07T11:31:01Z</time><cmt>5.0 kmh</cmt></trkpt>
<trkpt lat="51.693659" lon="03.788684"><ele>8</ele><time>2021-01-07T11:31:13Z</time><cmt>5.0 kmh</cmt></trkpt>
<trkpt lat="51.693659" lon="03.788686"><ele>8</ele><time>2021-01-07T11:31:14Z</time><cmt>5.0 kmh</cmt></trkpt>
<trkpt lat="51.693658" lon="03.788688"><ele>8</ele><time>2021-01-07T11:31:15Z</time><cmt>0.6 kmh</cmt></trkpt>
<trkpt lat="51.693659" lon="03.788689"><ele>8</ele><time>2021-01-07T11:31:16Z</time><cmt>0.6 kmh</cmt></trkpt>
<trkpt lat="51.693662" lon="03.788690"><ele>8</ele><time>2021-01-07T11:31:17Z</time><cmt>1.0 kmh</cmt></trkpt>
<trkpt lat="51.693664" lon="03.788690"><ele>8</ele><time>2021-01-07T11:31:18Z</time><cmt>1.2 kmh</cmt></trkpt>
<trkpt lat="51.693667" lon="03.788691"><ele>8</ele><time>2021-01-07T11:31:19Z</time><cmt>0.9 kmh</cmt></trkpt>
<trkpt lat="51.693669" lon="03.788693"><ele>9</ele><time>2021-01-07T11:31:20Z</time><cmt>1.0 kmh</cmt></trkpt>
<trkpt lat="51.693672" lon="03.788696"><ele>9</ele><time>2021-01-07T11:31:21Z</time><cmt>1.4 kmh</cmt></trkpt>
<trkpt lat="51.693677" lon="03.788701"><ele>9</ele><time>2021-01-07T11:31:22Z</time><cmt>1.8 kmh</cmt></trkpt>
<trkpt lat="51.693696" lon="03.788722"><ele>9</ele><time>2021-01-07T11:31:26Z</time><cmt>2.3 kmh</cmt></trkpt>
<trkpt lat="51.693721" lon="03.788739"><ele>9</ele><time>2021-01-07T11:31:33Z</time><cmt>4.7 kmh</cmt></trkpt>
<trkpt lat="51.693719" lon="03.788737"><ele>9</ele><time>2021-01-07T11:31:34Z</time><cmt>5.0 kmh</cmt></trkpt>
<trkpt lat="51.693720" lon="03.788737"><ele>9</ele><time>2021-01-07T11:31:35Z</time><cmt>0.7 kmh</cmt></trkpt>
<trkpt lat="51.693724" lon="03.788741"><ele>9</ele><time>2021-01-07T11:31:36Z</time><cmt>1.1 kmh</cmt></trkpt>
<trkpt lat="51.693746" lon="03.788772"><ele>8</ele><time>2021-01-07T11:31:41Z</time><cmt>4.2 kmh</cmt></trkpt>
<trkpt lat="51.693767" lon="03.788808"><ele>8</ele><time>2021-01-07T11:31:45Z</time><cmt>2.9 kmh</cmt></trkpt>
<trkpt lat="51.693787" lon="03.788832"><ele>7</ele><time>2021-01-07T11:31:48Z</time><cmt>3.5 kmh</cmt></trkpt>
<trkpt lat="51.693804" lon="03.788868"><ele>7</ele><time>2021-01-07T11:31:52Z</time><cmt>4.9 kmh</cmt></trkpt>
<trkpt lat="51.693840" lon="03.788891"><ele>6</ele><time>2021-01-07T11:31:58Z</time><cmt>5.0 kmh</cmt></trkpt>
<trkpt lat="51.693844" lon="03.788887"><ele>6</ele><time>2021-01-07T11:31:59Z</time><cmt>5.0 kmh</cmt></trkpt>
<trkpt lat="51.693848" lon="03.788882"><ele>6</ele><time>2021-01-07T11:32:00Z</time><cmt>1.8 kmh</cmt></trkpt>
<trkpt lat="51.693850" lon="03.788879"><ele>6</ele><time>2021-01-07T11:32:01Z</time><cmt>1.6 kmh</cmt></trkpt>
<trkpt lat="51.693850" lon="03.788880"><ele>7</ele><time>2021-01-07T11:32:02Z</time><cmt>0.6 kmh</cmt></trkpt>
<trkpt lat="51.693852" lon="03.788882"><ele>7</ele><time>2021-01-07T11:32:03Z</time><cmt>0.7 kmh</cmt></trkpt>
<trkpt lat="51.693854" lon="03.788888"><ele>7</ele><time>2021-01-07T11:32:04Z</time><cmt>0.8 kmh</cmt></trkpt>
<trkpt lat="51.693856" lon="03.788898"><ele>7</ele><time>2021-01-07T11:32:05Z</time><cmt>1.9 kmh</cmt></trkpt>
<trkpt lat="51.693859" lon="03.788911"><ele>7</ele><time>2021-01-07T11:32:06Z</time><cmt>3.3 kmh</cmt></trkpt>
<trkpt lat="51.693861" lon="03.788923"><ele>7</ele><time>2021-01-07T11:32:07Z</time><cmt>3.5 kmh</cmt></trkpt>
<trkpt lat="51.693863" lon="03.788938"><ele>7</ele><time>2021-01-07T11:32:08Z</time><cmt>3.7 kmh</cmt></trkpt>
<trkpt lat="51.693866" lon="03.788953"><ele>7</ele><time>2021-01-07T11:32:09Z</time><cmt>4.1 kmh</cmt></trkpt>
<trkpt lat="51.693871" lon="03.788967"><ele>7</ele><time>2021-01-07T11:32:10Z</time><cmt>3.4 kmh</cmt></trkpt>
<trkpt lat="51.693875" lon="03.788981"><ele>7</ele><time>2021-01-07T11:32:11Z</time><cmt>3.4 kmh</cmt></trkpt>
<trkpt lat="51.693878" lon="03.788994"><ele>7</ele><time>2021-01-07T11:32:12Z</time><cmt>4.0 kmh</cmt></trkpt>
<trkpt lat="51.693882" lon="03.789008"><ele>6</ele><time>2021-01-07T11:32:13Z</time><cmt>4.0 kmh</cmt></trkpt>
<trkpt lat="51.693886" lon="03.789024"><ele>6</ele><time>2021-01-07T11:32:14Z</time><cmt>4.3 kmh</cmt></trkpt>
<trkpt lat="51.693889" lon="03.789041"><ele>6</ele><time>2021-01-07T11:32:15Z</time><cmt>4.6 kmh</cmt></trkpt>
<trkpt lat="51.693893" lon="03.789057"><ele>6</ele><time>2021-01-07T11:32:16Z</time><cmt>4.7 kmh</cmt></trkpt>
<trkpt lat="51.693903" lon="03.789099"><ele>5</ele><time>2021-01-07T11:32:19Z</time><cmt>3.4 kmh</cmt></trkpt>
<trkpt lat="51.693900" lon="03.789147"><ele>4</ele><time>2021-01-07T11:32:21Z</time><cmt>5.0 kmh</cmt></trkpt>
<trkpt lat="51.693899" lon="03.789161"><ele>4</ele><time>2021-01-07T11:32:22Z</time><cmt>5.0 kmh</cmt></trkpt>
<trkpt lat="51.693897" lon="03.789176"><ele>4</ele><time>2021-01-07T11:32:23Z</time><cmt>3.2 kmh</cmt></trkpt>
<trkpt lat="51.693897" lon="03.789193"><ele>3</ele><time>2021-01-07T11:32:24Z</time><cmt>3.5 kmh</cmt></trkpt>
<trkpt lat="51.693898" lon="03.789210"><ele>3</ele><time>2021-01-07T11:32:25Z</time><cmt>4.6 kmh</cmt></trkpt>
<trkpt lat="51.693899" lon="03.789227"><ele>3</ele><time>2021-01-07T11:32:26Z</time><cmt>4.5 kmh</cmt></trkpt>
<trkpt lat="51.693902" lon="03.789244"><ele>3</ele><time>2021-01-07T11:32:27Z</time><cmt>4.7 kmh</cmt></trkpt>
<trkpt lat="51.693914" lon="03.789290"><ele>2</ele><time>2021-01-07T11:32:30Z</time><cmt>3.8 kmh</cmt></trkpt>
<trkpt lat="51.693927" lon="03.789322"><ele>2</ele><time>2021-01-07T11:32:32Z</time><cmt>5.0 kmh</cmt></trkpt>
<trkpt lat="51.693942" lon="03.789347"><ele>2</ele><time>2021-01-07T11:32:34Z</time><cmt>4.8 kmh</cmt></trkpt>
<trkpt lat="51.693957" lon="03.789374"><ele>1</ele><time>2021-01-07T11:32:36Z</time><cmt>4.2 kmh</cmt></trkpt>
<trkpt lat="51.693981" lon="03.789415"><ele>1</ele><time>2021-01-07T11:32:39Z</time><cmt>5.0 kmh</cmt></trkpt>
<trkpt lat="51.693999" lon="03.789444"><ele>1</ele><time>2021-01-07T11:32:41Z</time><cmt>5.0 kmh</cmt></trkpt>
<trkpt lat="51.694016" lon="03.789472"><ele>1</ele><time>2021-01-07T11:32:43Z</time><cmt>4.2 kmh</cmt></trkpt>
<trkpt lat="51.694040" lon="03.789515"><ele>1</ele><time>2021-01-07T11:32:46Z</time><cmt>5.0 kmh</cmt></trkpt>
<trkpt lat="51.694055" lon="03.789543"><ele>1</ele><time>2021-01-07T11:32:48Z</time><cmt>5.0 kmh</cmt></trkpt>
<trkpt lat="51.694073" lon="03.789572"><ele>0</ele><time>2021-01-07T11:32:50Z</time><cmt>4.6 kmh</cmt></trkpt>
<trkpt lat="51.694089" lon="03.789599"><ele>0</ele><time>2021-01-07T11:32:52Z</time><cmt>5.0 kmh</cmt></trkpt>
<trkpt lat="51.694107" lon="03.789630"><ele>0</ele><time>2021-01-07T11:32:54Z</time><cmt>5.0 kmh</cmt></trkpt>
<trkpt lat="51.694125" lon="03.789658"><ele>0</ele><time>2021-01-07T11:32:56Z</time><cmt>4.3 kmh</cmt></trkpt>
<trkpt lat="51.694143" lon="03.789684"><ele>0</ele><time>2021-01-07T11:32:58Z</time><cmt>5.0 kmh</cmt></trkpt>
<trkpt lat="51.694161" lon="03.789712"><ele>0</ele><time>2021-01-07T11:33:00Z</time><cmt>5.0 kmh</cmt></trkpt>
<trkpt lat="51.694180" lon="03.789740"><ele>0</ele><time>2021-01-07T11:33:02Z</time><cmt>4.5 kmh</cmt></trkpt>
<trkpt lat="51.694202" lon="03.789768"><ele>0</ele><time>2021-01-07T11:33:04Z</time><cmt>5.0 kmh</cmt></trkpt>
<trkpt lat="51.694222" lon="03.789795"><ele>0</ele><time>2021-01-07T11:33:06Z</time><cmt>5.0 kmh</cmt></trkpt>
<trkpt lat="51.694246" lon="03.789831"><ele>0</ele><time>2021-01-07T11:33:09Z</time><cmt>4.0 kmh</cmt></trkpt>
<trkpt lat="51.694271" lon="03.789870"><ele>0</ele><time>2021-01-07T11:33:12Z</time><cmt>4.9 kmh</cmt></trkpt>
<trkpt lat="51.694285" lon="03.789904"><ele>0</ele><time>2021-01-07T11:33:14Z</time><cmt>5.0 kmh</cmt></trkpt>
<trkpt lat="51.694300" lon="03.789937"><ele>0</ele><time>2021-01-07T11:33:16Z</time><cmt>4.9 kmh</cmt></trkpt>
<trkpt lat="51.694316" lon="03.789969"><ele>0</ele><time>2021-01-07T11:33:18Z</time><cmt>5.0 kmh</cmt></trkpt>
<trkpt lat="51.694333" lon="03.789990"><ele>0</ele><time>2021-01-07T11:33:20Z</time><cmt>4.5 kmh</cmt></trkpt>
<trkpt lat="51.694351" lon="03.790012"><ele>0</ele><time>2021-01-07T11:33:22Z</time><cmt>4.2 kmh</cmt></trkpt>
<trkpt lat="51.694368" lon="03.790036"><ele>0</ele><time>2021-01-07T11:33:24Z</time><cmt>4.9 kmh</cmt></trkpt>
<trkpt lat="51.694385" lon="03.790060"><ele>0</ele><time>2021-01-07T11:33:26Z</time><cmt>4.4 kmh</cmt></trkpt>
<trkpt lat="51.694403" lon="03.790087"><ele>0</ele><time>2021-01-07T11:33:28Z</time><cmt>4.5 kmh</cmt></trkpt>
<trkpt lat="51.694431" lon="03.790125"><ele>0</ele><time>2021-01-07T11:33:30Z</time><cmt>5.0 kmh</cmt></trkpt>
<trkpt lat="51.694440" lon="03.790134"><ele>0</ele><time>2021-01-07T11:33:31Z</time><cmt>5.0 kmh</cmt></trkpt>
<trkpt lat="51.694450" lon="03.790148"><ele>0</ele><time>2021-01-07T11:33:32Z</time><cmt>5.0 kmh</cmt></trkpt>
<trkpt lat="51.694457" lon="03.790160"><ele>0</ele><time>2021-01-07T11:33:33Z</time><cmt>4.0 kmh</cmt></trkpt>
<trkpt lat="51.694462" lon="03.790174"><ele>0</ele><time>2021-01-07T11:33:34Z</time><cmt>3.5 kmh</cmt></trkpt>
<trkpt lat="51.694476" lon="03.790212"><ele>0</ele><time>2021-01-07T11:33:37Z</time><cmt>4.0 kmh</cmt></trkpt>
<trkpt lat="51.694493" lon="03.790254"><ele>0</ele><time>2021-01-07T11:33:40Z</time><cmt>3.8 kmh</cmt></trkpt>
<trkpt lat="51.694509" lon="03.790290"><ele>0</ele><time>2021-01-07T11:33:43Z</time><cmt>4.0 kmh</cmt></trkpt>
<trkpt lat="51.694525" lon="03.790325"><ele>0</ele><time>2021-01-07T11:33:46Z</time><cmt>3.4 kmh</cmt></trkpt>
<trkpt lat="51.694543" lon="03.790355"><ele>0</ele><time>2021-01-07T11:33:48Z</time><cmt>5.0 kmh</cmt></trkpt>
<trkpt lat="51.694580" lon="03.790400"><ele>0</ele><time>2021-01-07T11:33:50Z</time><cmt>5.0 kmh</cmt></trkpt>
<trkpt lat="51.694588" lon="03.790412"><ele>0</ele><time>2021-01-07T11:33:51Z</time><cmt>5.0 kmh</cmt></trkpt>
<trkpt lat="51.694598" lon="03.790427"><ele>0</ele><time>2021-01-07T11:33:52Z</time><cmt>4.3 kmh</cmt></trkpt>
<trkpt lat="51.694606" lon="03.790441"><ele>0</ele><time>2021-01-07T11:33:53Z</time><cmt>4.4 kmh</cmt></trkpt>
<trkpt lat="51.694619" lon="03.790457"><ele>0</ele><time>2021-01-07T11:33:54Z</time><cmt>5.0 kmh</cmt></trkpt>
<trkpt lat="51.694630" lon="03.790470"><ele>0</ele><time>2021-01-07T11:33:55Z</time><cmt>5.0 kmh</cmt></trkpt>
<trkpt lat="51.694639" lon="03.790482"><ele>0</ele><time>2021-01-07T11:33:56Z</time><cmt>5.0 kmh</cmt></trkpt>
<trkpt lat="51.694648" lon="03.790493"><ele>0</ele><time>2021-01-07T11:33:57Z</time><cmt>5.0 kmh</cmt></trkpt>
<trkpt lat="51.694658" lon="03.790506"><ele>0</ele><time>2021-01-07T11:33:58Z</time><cmt>4.2 kmh</cmt></trkpt>
<trkpt lat="51.694671" lon="03.790524"><ele>0</ele><time>2021-01-07T11:33:59Z</time><cmt>5.0 kmh</cmt></trkpt>
<trkpt lat="51.694682" lon="03.790542"><ele>0</ele><time>2021-01-07T11:34:00Z</time><cmt>5.0 kmh</cmt></trkpt>
<trkpt lat="51.694692" lon="03.790560"><ele>0</ele><time>2021-01-07T11:34:01Z</time><cmt>5.0 kmh</cmt></trkpt>
<trkpt lat="51.694706" lon="03.790578"><ele>0</ele><time>2021-01-07T11:34:02Z</time><cmt>5.0 kmh</cmt></trkpt>
<trkpt lat="51.694719" lon="03.790595"><ele>0</ele><time>2021-01-07T11:34:03Z</time><cmt>5.0 kmh</cmt></trkpt>
<trkpt lat="51.694730" lon="03.790610"><ele>0</ele><time>2021-01-07T11:34:04Z</time><cmt>5.0 kmh</cmt></trkpt>
<trkpt lat="51.694741" lon="03.790625"><ele>0</ele><time>2021-01-07T11:34:05Z</time><cmt>5.0 kmh</cmt></trkpt>
<trkpt lat="51.694752" lon="03.790643"><ele>0</ele><time>2021-01-07T11:34:06Z</time><cmt>5.0 kmh</cmt></trkpt>
<trkpt lat="51.694762" lon="03.790661"><ele>0</ele><time>2021-01-07T11:34:07Z</time><cmt>5.0 kmh</cmt></trkpt>
<trkpt lat="51.694770" lon="03.790680"><ele>0</ele><time>2021-01-07T11:34:08Z</time><cmt>5.0 kmh</cmt></trkpt>
<trkpt lat="51.694786" lon="03.790717"><ele>0</ele><time>2021-01-07T11:34:11Z</time><cmt>3.4 kmh</cmt></trkpt>
<trkpt lat="51.694805" lon="03.790755"><ele>0</ele><time>2021-01-07T11:34:14Z</time><cmt>4.3 kmh</cmt></trkpt>
<trkpt lat="51.694827" lon="03.790781"><ele>0</ele><time>2021-01-07T11:34:16Z</time><cmt>5.0 kmh</cmt></trkpt>
<trkpt lat="51.694851" lon="03.790813"><ele>0</ele><time>2021-01-07T11:34:18Z</time><cmt>5.0 kmh</cmt></trkpt>
<trkpt lat="51.694885" lon="03.790853"><ele>0</ele><time>2021-01-07T11:34:21Z</time><cmt>5.0 kmh</cmt></trkpt>
<trkpt lat="51.694905" lon="03.790874"><ele>0</ele><time>2021-01-07T11:34:23Z</time><cmt>5.0 kmh</cmt></trkpt>
<trkpt lat="51.694919" lon="03.790898"><ele>0</ele><time>2021-01-07T11:34:25Z</time><cmt>3.5 kmh</cmt></trkpt>
<trkpt lat="51.694930" lon="03.790921"><ele>0</ele><time>2021-01-07T11:34:26Z</time><cmt>5.0 kmh</cmt></trkpt>
<trkpt lat="51.694933" lon="03.790936"><ele>0</ele><time>2021-01-07T11:34:27Z</time><cmt>5.0 kmh</cmt></trkpt>
<trkpt lat="51.694938" lon="03.790950"><ele>0</ele><time>2021-01-07T11:34:28Z</time><cmt>4.3 kmh</cmt></trkpt>
<trkpt lat="51.694944" lon="03.790964"><ele>0</ele><time>2021-01-07T11:34:29Z</time><cmt>4.5 kmh</cmt></trkpt>
<trkpt lat="51.694949" lon="03.790974"><ele>0</ele><time>2021-01-07T11:34:30Z</time><cmt>3.1 kmh</cmt></trkpt>
<trkpt lat="51.694955" lon="03.790984"><ele>0</ele><time>2021-01-07T11:34:31Z</time><cmt>2.9 kmh</cmt></trkpt>
<trkpt lat="51.694964" lon="03.790997"><ele>0</ele><time>2021-01-07T11:34:32Z</time><cmt>4.4 kmh</cmt></trkpt>
<trkpt lat="51.694967" lon="03.791014"><ele>0</ele><time>2021-01-07T11:34:33Z</time><cmt>4.9 kmh</cmt></trkpt>
<trkpt lat="51.694971" lon="03.791029"><ele>0</ele><time>2021-01-07T11:34:34Z</time><cmt>4.6 kmh</cmt></trkpt>
<trkpt lat="51.694978" lon="03.791064"><ele>0</ele><time>2021-01-07T11:34:37Z</time><cmt>2.8 kmh</cmt></trkpt>
<trkpt lat="51.695023" lon="03.791190"><ele>0</ele><time>2021-01-07T11:34:46Z</time><cmt>5.0 kmh</cmt></trkpt>
<trkpt lat="51.695038" lon="03.791222"><ele>0</ele><time>2021-01-07T11:34:48Z</time><cmt>5.0 kmh</cmt></trkpt>
<trkpt lat="51.695059" lon="03.791264"><ele>0</ele><time>2021-01-07T11:34:51Z</time><cmt>4.1 kmh</cmt></trkpt>
<trkpt lat="51.695076" lon="03.791294"><ele>0</ele><time>2021-01-07T11:34:53Z</time><cmt>5.0 kmh</cmt></trkpt>
<trkpt lat="51.695098" lon="03.791329"><ele>0</ele><time>2021-01-07T11:34:55Z</time><cmt>5.0 kmh</cmt></trkpt>
<trkpt lat="51.695121" lon="03.791387"><ele>0</ele><time>2021-01-07T11:34:59Z</time><cmt>4.6 kmh</cmt></trkpt>
<trkpt lat="51.695147" lon="03.791428"><ele>0</ele><time>2021-01-07T11:35:02Z</time><cmt>4.5 kmh</cmt></trkpt>
<trkpt lat="51.695175" lon="03.791461"><ele>0</ele><time>2021-01-07T11:35:04Z</time><cmt>5.0 kmh</cmt></trkpt>
<trkpt lat="51.695201" lon="03.791490"><ele>0</ele><time>2021-01-07T11:35:06Z</time><cmt>5.0 kmh</cmt></trkpt>
<trkpt lat="51.695225" lon="03.791517"><ele>0</ele><time>2021-01-07T11:35:08Z</time><cmt>5.0 kmh</cmt></trkpt>
<trkpt lat="51.695245" lon="03.791546"><ele>0</ele><time>2021-01-07T11:35:10Z</time><cmt>5.0 kmh</cmt></trkpt>
<trkpt lat="51.695267" lon="03.791579"><ele>0</ele><time>2021-01-07T11:35:12Z</time><cmt>5.0 kmh</cmt></trkpt>
<trkpt lat="51.695289" lon="03.791611"><ele>0</ele><time>2021-01-07T11:35:14Z</time><cmt>5.2 kmh</cmt></trkpt>
<trkpt lat="51.695307" lon="03.791639"><ele>0</ele><time>2021-01-07T11:35:16Z</time><cmt>5.0 kmh</cmt></trkpt>
<trkpt lat="51.695328" lon="03.791666"><ele>0</ele><time>2021-01-07T11:35:18Z</time><cmt>5.0 kmh</cmt></trkpt>
<trkpt lat="51.695348" lon="03.791695"><ele>0</ele><time>2021-01-07T11:35:20Z</time><cmt>5.0 kmh</cmt></trkpt>
<trkpt lat="51.695364" lon="03.791723"><ele>0</ele><time>2021-01-07T11:35:22Z</time><cmt>4.1 kmh</cmt></trkpt>
<trkpt lat="51.695384" lon="03.791747"><ele>0</ele><time>2021-01-07T11:35:25Z</time><cmt>3.6 kmh</cmt></trkpt>
<trkpt lat="51.695428" lon="03.791831"><ele>0</ele><time>2021-01-07T11:35:31Z</time><cmt>5.0 kmh</cmt></trkpt>
<trkpt lat="51.695445" lon="03.791862"><ele>0</ele><time>2021-01-07T11:35:33Z</time><cmt>5.0 kmh</cmt></trkpt>
<trkpt lat="51.695465" lon="03.791894"><ele>0</ele><time>2021-01-07T11:35:35Z</time><cmt>4.8 kmh</cmt></trkpt>
<trkpt lat="51.695482" lon="03.791929"><ele>0</ele><time>2021-01-07T11:35:37Z</time><cmt>5.0 kmh</cmt></trkpt>
<trkpt lat="51.695506" lon="03.791962"><ele>0</ele><time>2021-01-07T11:35:39Z</time><cmt>5.0 kmh</cmt></trkpt>
<trkpt lat="51.695522" lon="03.791988"><ele>0</ele><time>2021-01-07T11:35:41Z</time><cmt>3.8 kmh</cmt></trkpt>
<trkpt lat="51.695536" lon="03.792023"><ele>0</ele><time>2021-01-07T11:35:44Z</time><cmt>3.8 kmh</cmt></trkpt>
<trkpt lat="51.695558" lon="03.792058"><ele>0</ele><time>2021-01-07T11:35:47Z</time><cmt>3.8 kmh</cmt></trkpt>
<trkpt lat="51.695592" lon="03.792108"><ele>0</ele><time>2021-01-07T11:35:50Z</time><cmt>5.0 kmh</cmt></trkpt>
<trkpt lat="51.695604" lon="03.792147"><ele>0</ele><time>2021-01-07T11:35:52Z</time><cmt>5.0 kmh</cmt></trkpt>
<trkpt lat="51.695623" lon="03.792179"><ele>0</ele><time>2021-01-07T11:35:54Z</time><cmt>4.7 kmh</cmt></trkpt>
<trkpt lat="51.695640" lon="03.792212"><ele>0</ele><time>2021-01-07T11:35:57Z</time><cmt>3.8 kmh</cmt></trkpt>
<trkpt lat="51.695670" lon="03.792277"><ele>0</ele><time>2021-01-07T11:36:02Z</time><cmt>5.0 kmh</cmt></trkpt>
<trkpt lat="51.695688" lon="03.792320"><ele>0</ele><time>2021-01-07T11:36:05Z</time><cmt>4.0 kmh</cmt></trkpt>
<trkpt lat="51.695708" lon="03.792363"><ele>0</ele><time>2021-01-07T11:36:08Z</time><cmt>4.7 kmh</cmt></trkpt>
<trkpt lat="51.695727" lon="03.792389"><ele>0</ele><time>2021-01-07T11:36:10Z</time><cmt>5.0 kmh</cmt></trkpt>
<trkpt lat="51.695757" lon="03.792430"><ele>0</ele><time>2021-01-07T11:36:13Z</time><cmt>4.9 kmh</cmt></trkpt>
<trkpt lat="51.695780" lon="03.792459"><ele>0</ele><time>2021-01-07T11:36:15Z</time><cmt>5.0 kmh</cmt></trkpt>
<trkpt lat="51.695800" lon="03.792488"><ele>0</ele><time>2021-01-07T11:36:17Z</time><cmt>5.0 kmh</cmt></trkpt>
<trkpt lat="51.695817" lon="03.792520"><ele>0</ele><time>2021-01-07T11:36:19Z</time><cmt>4.5 kmh</cmt></trkpt>
<trkpt lat="51.695836" lon="03.792553"><ele>0</ele><time>2021-01-07T11:36:21Z</time><cmt>5.0 kmh</cmt></trkpt>
<trkpt lat="51.695856" lon="03.792581"><ele>0</ele><time>2021-01-07T11:36:23Z</time><cmt>5.0 kmh</cmt></trkpt>
<trkpt lat="51.695874" lon="03.792614"><ele>0</ele><time>2021-01-07T11:36:25Z</time><cmt>4.7 kmh</cmt></trkpt>
<trkpt lat="51.695888" lon="03.792646"><ele>0</ele><time>2021-01-07T11:36:27Z</time><cmt>5.0 kmh</cmt></trkpt>
<trkpt lat="51.695899" lon="03.792696"><ele>0</ele><time>2021-01-07T11:36:31Z</time><cmt>3.2 kmh</cmt></trkpt>
<trkpt lat="51.695916" lon="03.792732"><ele>0</ele><time>2021-01-07T11:36:34Z</time><cmt>3.9 kmh</cmt></trkpt>
<trkpt lat="51.695941" lon="03.792752"><ele>0</ele><time>2021-01-07T11:36:36Z</time><cmt>5.0 kmh</cmt></trkpt>
<trkpt lat="51.695961" lon="03.792782"><ele>0</ele><time>2021-01-07T11:36:39Z</time><cmt>3.4 kmh</cmt></trkpt>
<trkpt lat="51.695974" lon="03.792813"><ele>0</ele><time>2021-01-07T11:36:41Z</time><cmt>5.2 kmh</cmt></trkpt>
<trkpt lat="51.695989" lon="03.792844"><ele>0</ele><time>2021-01-07T11:36:43Z</time><cmt>5.2 kmh</cmt></trkpt>
<trkpt lat="51.696006" lon="03.792873"><ele>0</ele><time>2021-01-07T11:36:45Z</time><cmt>4.7 kmh</cmt></trkpt>
<trkpt lat="51.696028" lon="03.792913"><ele>0</ele><time>2021-01-07T11:36:48Z</time><cmt>4.8 kmh</cmt></trkpt>
<trkpt lat="51.696049" lon="03.792956"><ele>0</ele><time>2021-01-07T11:36:51Z</time><cmt>4.2 kmh</cmt></trkpt>
<trkpt lat="51.696074" lon="03.793002"><ele>0</ele><time>2021-01-07T11:36:54Z</time><cmt>5.0 kmh</cmt></trkpt>
<trkpt lat="51.696101" lon="03.793052"><ele>0</ele><time>2021-01-07T11:36:58Z</time><cmt>4.0 kmh</cmt></trkpt>
<trkpt lat="51.696124" lon="03.793095"><ele>0</ele><time>2021-01-07T11:37:01Z</time><cmt>5.0 kmh</cmt></trkpt>
<trkpt lat="51.696146" lon="03.793125"><ele>0</ele><time>2021-01-07T11:37:03Z</time><cmt>5.0 kmh</cmt></trkpt>
<trkpt lat="51.696170" lon="03.793154"><ele>0</ele><time>2021-01-07T11:37:05Z</time><cmt>5.1 kmh</cmt></trkpt>
<trkpt lat="51.696188" lon="03.793172"><ele>0</ele><time>2021-01-07T11:37:06Z</time><cmt>5.0 kmh</cmt></trkpt>
<trkpt lat="51.696210" lon="03.793202"><ele>0</ele><time>2021-01-07T11:37:08Z</time><cmt>5.0 kmh</cmt></trkpt>
<trkpt lat="51.696231" lon="03.793234"><ele>0</ele><time>2021-01-07T11:37:10Z</time><cmt>4.9 kmh</cmt></trkpt>
<trkpt lat="51.696251" lon="03.793252"><ele>1</ele><time>2021-01-07T11:37:12Z</time><cmt>5.0 kmh</cmt></trkpt>
<trkpt lat="51.696273" lon="03.793291"><ele>1</ele><time>2021-01-07T11:37:15Z</time><cmt>4.0 kmh</cmt></trkpt>
<trkpt lat="51.696293" lon="03.793320"><ele>1</ele><time>2021-01-07T11:37:18Z</time><cmt>3.9 kmh</cmt></trkpt>
<trkpt lat="51.696309" lon="03.793371"><ele>1</ele><time>2021-01-07T11:37:22Z</time><cmt>5.0 kmh</cmt></trkpt>
<trkpt lat="51.696332" lon="03.793417"><ele>1</ele><time>2021-01-07T11:37:25Z</time><cmt>5.0 kmh</cmt></trkpt>
<trkpt lat="51.696356" lon="03.793447"><ele>1</ele><time>2021-01-07T11:37:27Z</time><cmt>5.0 kmh</cmt></trkpt>
<trkpt lat="51.696377" lon="03.793481"><ele>1</ele><time>2021-01-07T11:37:29Z</time><cmt>5.0 kmh</cmt></trkpt>
<trkpt lat="51.696393" lon="03.793508"><ele>0</ele><time>2021-01-07T11:37:31Z</time><cmt>5.0 kmh</cmt></trkpt>
<trkpt lat="51.696412" lon="03.793534"><ele>0</ele><time>2021-01-07T11:37:33Z</time><cmt>5.0 kmh</cmt></trkpt>
<trkpt lat="51.696432" lon="03.793564"><ele>0</ele><time>2021-01-07T11:37:35Z</time><cmt>4.8 kmh</cmt></trkpt>
<trkpt lat="51.696452" lon="03.793599"><ele>0</ele><time>2021-01-07T11:37:37Z</time><cmt>5.0 kmh</cmt></trkpt>
<trkpt lat="51.696475" lon="03.793631"><ele>0</ele><time>2021-01-07T11:37:39Z</time><cmt>5.0 kmh</cmt></trkpt>
<trkpt lat="51.696495" lon="03.793660"><ele>1</ele><time>2021-01-07T11:37:41Z</time><cmt>5.0 kmh</cmt></trkpt>
<trkpt lat="51.696511" lon="03.793692"><ele>1</ele><time>2021-01-07T11:37:43Z</time><cmt>5.0 kmh</cmt></trkpt>
<trkpt lat="51.696525" lon="03.793724"><ele>1</ele><time>2021-01-07T11:37:45Z</time><cmt>5.0 kmh</cmt></trkpt>
<trkpt lat="51.696546" lon="03.793755"><ele>1</ele><time>2021-01-07T11:37:47Z</time><cmt>5.0 kmh</cmt></trkpt>
<trkpt lat="51.696573" lon="03.793786"><ele>2</ele><time>2021-01-07T11:37:49Z</time><cmt>5.0 kmh</cmt></trkpt>
<trkpt lat="51.696590" lon="03.793813"><ele>2</ele><time>2021-01-07T11:37:51Z</time><cmt>5.0 kmh</cmt></trkpt>
<trkpt lat="51.696610" lon="03.793846"><ele>2</ele><time>2021-01-07T11:37:53Z</time><cmt>5.0 kmh</cmt></trkpt>
<trkpt lat="51.696622" lon="03.793884"><ele>3</ele><time>2021-01-07T11:37:56Z</time><cmt>3.8 kmh</cmt></trkpt>
<trkpt lat="51.696630" lon="03.793921"><ele>3</ele><time>2021-01-07T11:37:58Z</time><cmt>5.0 kmh</cmt></trkpt>
<trkpt lat="51.696639" lon="03.793968"><ele>3</ele><time>2021-01-07T11:38:01Z</time><cmt>3.7 kmh</cmt></trkpt>
<trkpt lat="51.696662" lon="03.794029"><ele>3</ele><time>2021-01-07T11:38:05Z</time><cmt>4.8 kmh</cmt></trkpt>
<trkpt lat="51.696680" lon="03.794090"><ele>3</ele><time>2021-01-07T11:38:10Z</time><cmt>4.5 kmh</cmt></trkpt>
<trkpt lat="51.696694" lon="03.794172"><ele>3</ele><time>2021-01-07T11:38:16Z</time><cmt>5.0 kmh</cmt></trkpt>
<trkpt lat="51.696711" lon="03.794223"><ele>2</ele><time>2021-01-07T11:38:19Z</time><cmt>4.4 kmh</cmt></trkpt>
<trkpt lat="51.696733" lon="03.794281"><ele>2</ele><time>2021-01-07T11:38:23Z</time><cmt>4.5 kmh</cmt></trkpt>
<trkpt lat="51.696756" lon="03.794323"><ele>2</ele><time>2021-01-07T11:38:25Z</time><cmt>5.0 kmh</cmt></trkpt>
<trkpt lat="51.696770" lon="03.794387"><ele>2</ele><time>2021-01-07T11:38:28Z</time><cmt>5.0 kmh</cmt></trkpt>
<trkpt lat="51.696776" lon="03.794450"><ele>2</ele><time>2021-01-07T11:38:31Z</time><cmt>4.9 kmh</cmt></trkpt>
<trkpt lat="51.696779" lon="03.794506"><ele>3</ele><time>2021-01-07T11:38:34Z</time><cmt>5.0 kmh</cmt></trkpt>
<trkpt lat="51.696783" lon="03.794683"><ele>3</ele><time>2021-01-07T11:38:51Z</time><cmt>5.0 kmh</cmt></trkpt>
<trkpt lat="51.696798" lon="03.794800"><ele>4</ele><time>2021-01-07T11:38:58Z</time><cmt>5.0 kmh</cmt></trkpt>
<trkpt lat="51.696851" lon="03.794924"><ele>5</ele><time>2021-01-07T11:39:14Z</time><cmt>5.0 kmh</cmt></trkpt>
<trkpt lat="51.697007" lon="03.794898"><ele>11</ele><time>2021-01-07T11:39:43Z</time><cmt>5.0 kmh</cmt></trkpt>
<trkpt lat="51.696996" lon="03.794887"><ele>11</ele><time>2021-01-07T11:39:44Z</time><cmt>5.0 kmh</cmt></trkpt>
<trkpt lat="51.696986" lon="03.794878"><ele>11</ele><time>2021-01-07T11:39:45Z</time><cmt>5.0 kmh</cmt></trkpt>
<trkpt lat="51.696979" lon="03.794870"><ele>11</ele><time>2021-01-07T11:39:46Z</time><cmt>4.2 kmh</cmt></trkpt>
<trkpt lat="51.697034" lon="03.794813"><ele>7</ele><time>2021-01-07T11:40:00Z</time><cmt>5.0 kmh</cmt></trkpt>
<trkpt lat="51.697041" lon="03.794806"><ele>7</ele><time>2021-01-07T11:40:01Z</time><cmt>5.0 kmh</cmt></trkpt>
<trkpt lat="51.697047" lon="03.794800"><ele>6</ele><time>2021-01-07T11:40:02Z</time><cmt>3.3 kmh</cmt></trkpt>
<trkpt lat="51.697053" lon="03.794796"><ele>6</ele><time>2021-01-07T11:40:03Z</time><cmt>2.9 kmh</cmt></trkpt>
<trkpt lat="51.697064" lon="03.794796"><ele>6</ele><time>2021-01-07T11:40:04Z</time><cmt>3.7 kmh</cmt></trkpt>
<trkpt lat="51.697076" lon="03.794795"><ele>6</ele><time>2021-01-07T11:40:05Z</time><cmt>4.9 kmh</cmt></trkpt>
<trkpt lat="51.697084" lon="03.794793"><ele>6</ele><time>2021-01-07T11:40:06Z</time><cmt>3.6 kmh</cmt></trkpt>
<trkpt lat="51.697093" lon="03.794795"><ele>6</ele><time>2021-01-07T11:40:07Z</time><cmt>3.0 kmh</cmt></trkpt>
<trkpt lat="51.697105" lon="03.794796"><ele>6</ele><time>2021-01-07T11:40:08Z</time><cmt>4.4 kmh</cmt></trkpt>
<trkpt lat="51.697113" lon="03.794797"><ele>6</ele><time>2021-01-07T11:40:09Z</time><cmt>4.2 kmh</cmt></trkpt>
<trkpt lat="51.697118" lon="03.794798"><ele>6</ele><time>2021-01-07T11:40:10Z</time><cmt>2.7 kmh</cmt></trkpt>
<trkpt lat="51.697155" lon="03.794924"><ele>5</ele><time>2021-01-07T11:40:23Z</time><cmt>5.0 kmh</cmt></trkpt>
<trkpt lat="51.697159" lon="03.795006"><ele>4</ele><time>2021-01-07T11:40:28Z</time><cmt>5.0 kmh</cmt></trkpt>
<trkpt lat="51.697158" lon="03.795087"><ele>4</ele><time>2021-01-07T11:40:32Z</time><cmt>4.8 kmh</cmt></trkpt>
<trkpt lat="51.697163" lon="03.795152"><ele>4</ele><time>2021-01-07T11:40:35Z</time><cmt>5.0 kmh</cmt></trkpt>
<trkpt lat="51.697177" lon="03.795259"><ele>4</ele><time>2021-01-07T11:40:41Z</time><cmt>5.0 kmh</cmt></trkpt>
<trkpt lat="51.697182" lon="03.795312"><ele>4</ele><time>2021-01-07T11:40:44Z</time><cmt>4.8 kmh</cmt></trkpt>
<trkpt lat="51.697203" lon="03.795375"><ele>4</ele><time>2021-01-07T11:40:48Z</time><cmt>5.0 kmh</cmt></trkpt>
<trkpt lat="51.697255" lon="03.795498"><ele>3</ele><time>2021-01-07T11:40:55Z</time><cmt>5.0 kmh</cmt></trkpt>
<trkpt lat="51.697263" lon="03.795534"><ele>2</ele><time>2021-01-07T11:40:57Z</time><cmt>5.0 kmh</cmt></trkpt>
<trkpt lat="51.697275" lon="03.795575"><ele>2</ele><time>2021-01-07T11:40:59Z</time><cmt>4.9 kmh</cmt></trkpt>
<trkpt lat="51.697289" lon="03.795608"><ele>2</ele><time>2021-01-07T11:41:00Z</time><cmt>5.0 kmh</cmt></trkpt>
<trkpt lat="51.697297" lon="03.795659"><ele>2</ele><time>2021-01-07T11:41:04Z</time><cmt>3.1 kmh</cmt></trkpt>
<trkpt lat="51.697307" lon="03.795704"><ele>2</ele><time>2021-01-07T11:41:07Z</time><cmt>4.2 kmh</cmt></trkpt>
<trkpt lat="51.697317" lon="03.795753"><ele>2</ele><time>2021-01-07T11:41:10Z</time><cmt>4.0 kmh</cmt></trkpt>
<trkpt lat="51.697327" lon="03.795814"><ele>1</ele><time>2021-01-07T11:41:14Z</time><cmt>4.2 kmh</cmt></trkpt>
<trkpt lat="51.697321" lon="03.795904"><ele>1</ele><time>2021-01-07T11:41:20Z</time><cmt>5.0 kmh</cmt></trkpt>
<trkpt lat="51.697343" lon="03.795967"><ele>1</ele><time>2021-01-07T11:41:23Z</time><cmt>5.0 kmh</cmt></trkpt>
<trkpt lat="51.697377" lon="03.796020"><ele>1</ele><time>2021-01-07T11:41:26Z</time><cmt>5.0 kmh</cmt></trkpt>
<trkpt lat="51.697402" lon="03.796074"><ele>1</ele><time>2021-01-07T11:41:29Z</time><cmt>5.0 kmh</cmt></trkpt>
<trkpt lat="51.697409" lon="03.796127"><ele>1</ele><time>2021-01-07T11:41:32Z</time><cmt>4.8 kmh</cmt></trkpt>
<trkpt lat="51.697416" lon="03.796201"><ele>1</ele><time>2021-01-07T11:41:37Z</time><cmt>5.0 kmh</cmt></trkpt>
<trkpt lat="51.697421" lon="03.796266"><ele>1</ele><time>2021-01-07T11:41:40Z</time><cmt>5.0 kmh</cmt></trkpt>
<trkpt lat="51.697418" lon="03.796332"><ele>1</ele><time>2021-01-07T11:41:43Z</time><cmt>5.0 kmh</cmt></trkpt>
<trkpt lat="51.697418" lon="03.796393"><ele>1</ele><time>2021-01-07T11:41:46Z</time><cmt>5.0 kmh</cmt></trkpt>
<trkpt lat="51.697420" lon="03.796449"><ele>1</ele><time>2021-01-07T11:41:49Z</time><cmt>4.3 kmh</cmt></trkpt>
<trkpt lat="51.697420" lon="03.796511"><ele>1</ele><time>2021-01-07T11:41:53Z</time><cmt>4.1 kmh</cmt></trkpt>
<trkpt lat="51.697419" lon="03.796586"><ele>1</ele><time>2021-01-07T11:41:57Z</time><cmt>4.5 kmh</cmt></trkpt>
<trkpt lat="51.697408" lon="03.796659"><ele>1</ele><time>2021-01-07T11:42:01Z</time><cmt>4.5 kmh</cmt></trkpt>
<trkpt lat="51.697418" lon="03.796785"><ele>1</ele><time>2021-01-07T11:42:16Z</time><cmt>5.1 kmh</cmt></trkpt>
<trkpt lat="51.697423" lon="03.796895"><ele>1</ele><time>2021-01-07T11:42:22Z</time><cmt>5.1 kmh</cmt></trkpt>
<trkpt lat="51.697433" lon="03.797009"><ele>1</ele><time>2021-01-07T11:42:28Z</time><cmt>5.0 kmh</cmt></trkpt>
<trkpt lat="51.697453" lon="03.797118"><ele>1</ele><time>2021-01-07T11:42:34Z</time><cmt>5.0 kmh</cmt></trkpt>
<trkpt lat="51.697485" lon="03.797183"><ele>1</ele><time>2021-01-07T11:42:38Z</time><cmt>5.0 kmh</cmt></trkpt>
<trkpt lat="51.697516" lon="03.797244"><ele>1</ele><time>2021-01-07T11:42:42Z</time><cmt>5.3 kmh</cmt></trkpt>
<trkpt lat="51.697545" lon="03.797318"><ele>1</ele><time>2021-01-07T11:42:47Z</time><cmt>5.0 kmh</cmt></trkpt>
<trkpt lat="51.697551" lon="03.797411"><ele>1</ele><time>2021-01-07T11:42:52Z</time><cmt>5.0 kmh</cmt></trkpt>
<trkpt lat="51.697559" lon="03.797492"><ele>1</ele><time>2021-01-07T11:42:56Z</time><cmt>5.0 kmh</cmt></trkpt>
<trkpt lat="51.697563" lon="03.797570"><ele>1</ele><time>2021-01-07T11:43:00Z</time><cmt>4.6 kmh</cmt></trkpt>
<trkpt lat="51.697573" lon="03.797628"><ele>1</ele><time>2021-01-07T11:43:03Z</time><cmt>5.0 kmh</cmt></trkpt>
<trkpt lat="51.697574" lon="03.797696"><ele>1</ele><time>2021-01-07T11:43:07Z</time><cmt>4.0 kmh</cmt></trkpt>
<trkpt lat="51.697581" lon="03.797754"><ele>1</ele><time>2021-01-07T11:43:11Z</time><cmt>3.5 kmh</cmt></trkpt>
<trkpt lat="51.697594" lon="03.797821"><ele>1</ele><time>2021-01-07T11:43:17Z</time><cmt>4.2 kmh</cmt></trkpt>
<trkpt lat="51.697619" lon="03.797879"><ele>1</ele><time>2021-01-07T11:43:24Z</time><cmt>5.0 kmh</cmt></trkpt>
<trkpt lat="51.697649" lon="03.797921"><ele>1</ele><time>2021-01-07T11:43:28Z</time><cmt>4.2 kmh</cmt></trkpt>
<trkpt lat="51.697678" lon="03.797978"><ele>1</ele><time>2021-01-07T11:43:32Z</time><cmt>4.4 kmh</cmt></trkpt>
<trkpt lat="51.697712" lon="03.798114"><ele>1</ele><time>2021-01-07T11:43:42Z</time><cmt>5.0 kmh</cmt></trkpt>
<trkpt lat="51.697732" lon="03.798169"><ele>1</ele><time>2021-01-07T11:43:46Z</time><cmt>5.0 kmh</cmt></trkpt>
<trkpt lat="51.697757" lon="03.798216"><ele>1</ele><time>2021-01-07T11:43:49Z</time><cmt>4.8 kmh</cmt></trkpt>
<trkpt lat="51.697781" lon="03.798263"><ele>1</ele><time>2021-01-07T11:43:52Z</time><cmt>5.0 kmh</cmt></trkpt>
<trkpt lat="51.697800" lon="03.798323"><ele>1</ele><time>2021-01-07T11:43:56Z</time><cmt>4.0 kmh</cmt></trkpt>
<trkpt lat="51.697821" lon="03.798392"><ele>1</ele><time>2021-01-07T11:44:00Z</time><cmt>5.0 kmh</cmt></trkpt>
<trkpt lat="51.697824" lon="03.798457"><ele>1</ele><time>2021-01-07T11:44:04Z</time><cmt>3.8 kmh</cmt></trkpt>
<trkpt lat="51.697838" lon="03.798525"><ele>1</ele><time>2021-01-07T11:44:08Z</time><cmt>4.3 kmh</cmt></trkpt>
<trkpt lat="51.697856" lon="03.798572"><ele>1</ele><time>2021-01-07T11:44:11Z</time><cmt>4.8 kmh</cmt></trkpt>
<trkpt lat="51.697870" lon="03.798623"><ele>1</ele><time>2021-01-07T11:44:14Z</time><cmt>4.3 kmh</cmt></trkpt>
<trkpt lat="51.697873" lon="03.798680"><ele>1</ele><time>2021-01-07T11:44:17Z</time><cmt>5.0 kmh</cmt></trkpt>
<trkpt lat="51.697881" lon="03.798743"><ele>1</ele><time>2021-01-07T11:44:21Z</time><cmt>3.8 kmh</cmt></trkpt>
<trkpt lat="51.697890" lon="03.798794"><ele>1</ele><time>2021-01-07T11:44:24Z</time><cmt>4.7 kmh</cmt></trkpt>
<trkpt lat="51.697894" lon="03.798845"><ele>1</ele><time>2021-01-07T11:44:27Z</time><cmt>4.0 kmh</cmt></trkpt>
<trkpt lat="51.697900" lon="03.798897"><ele>1</ele><time>2021-01-07T11:44:30Z</time><cmt>4.7 kmh</cmt></trkpt>
<trkpt lat="51.697907" lon="03.798952"><ele>1</ele><time>2021-01-07T11:44:33Z</time><cmt>4.3 kmh</cmt></trkpt>
<trkpt lat="51.697921" lon="03.799001"><ele>1</ele><time>2021-01-07T11:44:36Z</time><cmt>4.9 kmh</cmt></trkpt>
<trkpt lat="51.697929" lon="03.799057"><ele>1</ele><time>2021-01-07T11:44:39Z</time><cmt>5.0 kmh</cmt></trkpt>
<trkpt lat="51.697937" lon="03.799104"><ele>1</ele><time>2021-01-07T11:44:42Z</time><cmt>3.8 kmh</cmt></trkpt>
<trkpt lat="51.697948" lon="03.799152"><ele>1</ele><time>2021-01-07T11:44:45Z</time><cmt>4.6 kmh</cmt></trkpt>
<trkpt lat="51.697960" lon="03.799200"><ele>1</ele><time>2021-01-07T11:44:48Z</time><cmt>3.9 kmh</cmt></trkpt>
<trkpt lat="51.697980" lon="03.799281"><ele>1</ele><time>2021-01-07T11:44:53Z</time><cmt>5.0 kmh</cmt></trkpt>
<trkpt lat="51.697998" lon="03.799327"><ele>1</ele><time>2021-01-07T11:44:56Z</time><cmt>4.8 kmh</cmt></trkpt>
<trkpt lat="51.698015" lon="03.799371"><ele>1</ele><time>2021-01-07T11:44:59Z</time><cmt>3.9 kmh</cmt></trkpt>
<trkpt lat="51.698024" lon="03.799424"><ele>1</ele><time>2021-01-07T11:45:02Z</time><cmt>4.9 kmh</cmt></trkpt>
<trkpt lat="51.698038" lon="03.799469"><ele>1</ele><time>2021-01-07T11:45:05Z</time><cmt>3.8 kmh</cmt></trkpt>
<trkpt lat="51.698048" lon="03.799512"><ele>1</ele><time>2021-01-07T11:45:08Z</time><cmt>4.1 kmh</cmt></trkpt>
<trkpt lat="51.698052" lon="03.799560"><ele>1</ele><time>2021-01-07T11:45:11Z</time><cmt>3.7 kmh</cmt></trkpt>
<trkpt lat="51.698039" lon="03.799723"><ele>1</ele><time>2021-01-07T11:45:25Z</time><cmt>5.0 kmh</cmt></trkpt>
<trkpt lat="51.698047" lon="03.799819"><ele>1</ele><time>2021-01-07T11:45:31Z</time><cmt>5.0 kmh</cmt></trkpt>
<trkpt lat="51.698063" lon="03.799864"><ele>1</ele><time>2021-01-07T11:45:34Z</time><cmt>4.6 kmh</cmt></trkpt>
<trkpt lat="51.698077" lon="03.799921"><ele>1</ele><time>2021-01-07T11:45:37Z</time><cmt>4.7 kmh</cmt></trkpt>
<trkpt lat="51.698094" lon="03.799973"><ele>1</ele><time>2021-01-07T11:45:40Z</time><cmt>5.0 kmh</cmt></trkpt>
<trkpt lat="51.698105" lon="03.800019"><ele>1</ele><time>2021-01-07T11:45:43Z</time><cmt>3.8 kmh</cmt></trkpt>
<trkpt lat="51.698112" lon="03.800071"><ele>1</ele><time>2021-01-07T11:45:46Z</time><cmt>4.7 kmh</cmt></trkpt>
<trkpt lat="51.698118" lon="03.800134"><ele>1</ele><time>2021-01-07T11:45:50Z</time><cmt>3.8 kmh</cmt></trkpt>
<trkpt lat="51.698150" lon="03.800246"><ele>1</ele><time>2021-01-07T11:45:58Z</time><cmt>5.0 kmh</cmt></trkpt>
<trkpt lat="51.698138" lon="03.800285"><ele>1</ele><time>2021-01-07T11:46:00Z</time><cmt>5.0 kmh</cmt></trkpt>
<trkpt lat="51.698131" lon="03.800297"><ele>1</ele><time>2021-01-07T11:46:01Z</time><cmt>5.0 kmh</cmt></trkpt>
<trkpt lat="51.698127" lon="03.800304"><ele>1</ele><time>2021-01-07T11:46:02Z</time><cmt>2.8 kmh</cmt></trkpt>
<trkpt lat="51.698121" lon="03.800311"><ele>1</ele><time>2021-01-07T11:46:03Z</time><cmt>2.4 kmh</cmt></trkpt>
<trkpt lat="51.698117" lon="03.800318"><ele>1</ele><time>2021-01-07T11:46:04Z</time><cmt>2.7 kmh</cmt></trkpt>
<trkpt lat="51.698111" lon="03.800326"><ele>1</ele><time>2021-01-07T11:46:05Z</time><cmt>2.9 kmh</cmt></trkpt>
<trkpt lat="51.698105" lon="03.800333"><ele>1</ele><time>2021-01-07T11:46:06Z</time><cmt>3.4 kmh</cmt></trkpt>
<trkpt lat="51.698098" lon="03.800337"><ele>1</ele><time>2021-01-07T11:46:07Z</time><cmt>3.3 kmh</cmt></trkpt>
<trkpt lat="51.698090" lon="03.800345"><ele>1</ele><time>2021-01-07T11:46:08Z</time><cmt>3.6 kmh</cmt></trkpt>
<trkpt lat="51.698082" lon="03.800359"><ele>1</ele><time>2021-01-07T11:46:09Z</time><cmt>3.7 kmh</cmt></trkpt>
<trkpt lat="51.698074" lon="03.800370"><ele>1</ele><time>2021-01-07T11:46:10Z</time><cmt>3.9 kmh</cmt></trkpt>
<trkpt lat="51.698065" lon="03.800379"><ele>1</ele><time>2021-01-07T11:46:11Z</time><cmt>4.4 kmh</cmt></trkpt>
<trkpt lat="51.698059" lon="03.800383"><ele>1</ele><time>2021-01-07T11:46:12Z</time><cmt>3.7 kmh</cmt></trkpt>
<trkpt lat="51.698054" lon="03.800388"><ele>1</ele><time>2021-01-07T11:46:13Z</time><cmt>2.8 kmh</cmt></trkpt>
<trkpt lat="51.698051" lon="03.800391"><ele>1</ele><time>2021-01-07T11:46:14Z</time><cmt>2.0 kmh</cmt></trkpt>
<trkpt lat="51.698048" lon="03.800394"><ele>1</ele><time>2021-01-07T11:46:15Z</time><cmt>1.1 kmh</cmt></trkpt>
<trkpt lat="51.698046" lon="03.800398"><ele>1</ele><time>2021-01-07T11:46:16Z</time><cmt>1.1 kmh</cmt></trkpt>
<trkpt lat="51.698043" lon="03.800401"><ele>1</ele><time>2021-01-07T11:46:17Z</time><cmt>1.4 kmh</cmt></trkpt>
<trkpt lat="51.698039" lon="03.800404"><ele>1</ele><time>2021-01-07T11:46:18Z</time><cmt>1.8 kmh</cmt></trkpt>
<trkpt lat="51.698013" lon="03.800416"><ele>1</ele><time>2021-01-07T11:46:22Z</time><cmt>4.7 kmh</cmt></trkpt>
<trkpt lat="51.697988" lon="03.800436"><ele>1</ele><time>2021-01-07T11:46:23Z</time><cmt>5.0 kmh</cmt></trkpt>
<trkpt lat="51.697976" lon="03.800442"><ele>1</ele><time>2021-01-07T11:46:24Z</time><cmt>5.0 kmh</cmt></trkpt>
<trkpt lat="51.697963" lon="03.800448"><ele>1</ele><time>2021-01-07T11:46:25Z</time><cmt>5.0 kmh</cmt></trkpt>
<trkpt lat="51.697951" lon="03.800453"><ele>1</ele><time>2021-01-07T11:46:26Z</time><cmt>5.0 kmh</cmt></trkpt>
<trkpt lat="51.697939" lon="03.800457"><ele>1</ele><time>2021-01-07T11:46:27Z</time><cmt>5.0 kmh</cmt></trkpt>
<trkpt lat="51.697926" lon="03.800464"><ele>1</ele><time>2021-01-07T11:46:28Z</time><cmt>4.5 kmh</cmt></trkpt>
<trkpt lat="51.697917" lon="03.800471"><ele>1</ele><time>2021-01-07T11:46:29Z</time><cmt>4.2 kmh</cmt></trkpt>
<trkpt lat="51.697907" lon="03.800480"><ele>1</ele><time>2021-01-07T11:46:30Z</time><cmt>4.7 kmh</cmt></trkpt>
<trkpt lat="51.697900" lon="03.800492"><ele>1</ele><time>2021-01-07T11:46:31Z</time><cmt>4.6 kmh</cmt></trkpt>
<trkpt lat="51.697892" lon="03.800506"><ele>1</ele><time>2021-01-07T11:46:32Z</time><cmt>4.8 kmh</cmt></trkpt>
<trkpt lat="51.697882" lon="03.800520"><ele>1</ele><time>2021-01-07T11:46:33Z</time><cmt>5.0 kmh</cmt></trkpt>
<trkpt lat="51.697875" lon="03.800534"><ele>1</ele><time>2021-01-07T11:46:34Z</time><cmt>4.3 kmh</cmt></trkpt>
<trkpt lat="51.697869" lon="03.800546"><ele>1</ele><time>2021-01-07T11:46:35Z</time><cmt>3.7 kmh</cmt></trkpt>
<trkpt lat="51.697861" lon="03.800559"><ele>1</ele><time>2021-01-07T11:46:36Z</time><cmt>4.4 kmh</cmt></trkpt>
<trkpt lat="51.697853" lon="03.800573"><ele>1</ele><time>2021-01-07T11:46:37Z</time><cmt>4.8 kmh</cmt></trkpt>
<trkpt lat="51.697846" lon="03.800587"><ele>1</ele><time>2021-01-07T11:46:38Z</time><cmt>4.9 kmh</cmt></trkpt>
<trkpt lat="51.697840" lon="03.800600"><ele>1</ele><time>2021-01-07T11:46:39Z</time><cmt>4.6 kmh</cmt></trkpt>
<trkpt lat="51.697834" lon="03.800614"><ele>1</ele><time>2021-01-07T11:46:40Z</time><cmt>3.6 kmh</cmt></trkpt>
<trkpt lat="51.697826" lon="03.800630"><ele>1</ele><time>2021-01-07T11:46:41Z</time><cmt>4.0 kmh</cmt></trkpt>
<trkpt lat="51.697817" lon="03.800648"><ele>1</ele><time>2021-01-07T11:46:42Z</time><cmt>5.0 kmh</cmt></trkpt>
<trkpt lat="51.697809" lon="03.800663"><ele>1</ele><time>2021-01-07T11:46:43Z</time><cmt>5.0 kmh</cmt></trkpt>
<trkpt lat="51.697799" lon="03.800687"><ele>1</ele><time>2021-01-07T11:46:44Z</time><cmt>5.0 kmh</cmt></trkpt>
<trkpt lat="51.697793" lon="03.800705"><ele>1</ele><time>2021-01-07T11:46:45Z</time><cmt>5.0 kmh</cmt></trkpt>
<trkpt lat="51.697788" lon="03.800718"><ele>1</ele><time>2021-01-07T11:46:46Z</time><cmt>4.8 kmh</cmt></trkpt>
<trkpt lat="51.697783" lon="03.800734"><ele>1</ele><time>2021-01-07T11:46:47Z</time><cmt>3.6 kmh</cmt></trkpt>
<trkpt lat="51.697777" lon="03.800750"><ele>1</ele><time>2021-01-07T11:46:48Z</time><cmt>3.9 kmh</cmt></trkpt>
<trkpt lat="51.697766" lon="03.800772"><ele>1</ele><time>2021-01-07T11:46:49Z</time><cmt>5.0 kmh</cmt></trkpt>
<trkpt lat="51.697759" lon="03.800790"><ele>1</ele><time>2021-01-07T11:46:50Z</time><cmt>5.0 kmh</cmt></trkpt>
<trkpt lat="51.697754" lon="03.800802"><ele>1</ele><time>2021-01-07T11:46:51Z</time><cmt>4.8 kmh</cmt></trkpt>
<trkpt lat="51.697749" lon="03.800817"><ele>1</ele><time>2021-01-07T11:46:52Z</time><cmt>4.3 kmh</cmt></trkpt>
<trkpt lat="51.697746" lon="03.800835"><ele>1</ele><time>2021-01-07T11:46:53Z</time><cmt>3.8 kmh</cmt></trkpt>
<trkpt lat="51.697737" lon="03.800857"><ele>1</ele><time>2021-01-07T11:46:54Z</time><cmt>4.8 kmh</cmt></trkpt>
<trkpt lat="51.697729" lon="03.800881"><ele>1</ele><time>2021-01-07T11:46:55Z</time><cmt>5.0 kmh</cmt></trkpt>
<trkpt lat="51.697724" lon="03.800900"><ele>1</ele><time>2021-01-07T11:46:56Z</time><cmt>5.0 kmh</cmt></trkpt>
<trkpt lat="51.697723" lon="03.800923"><ele>1</ele><time>2021-01-07T11:46:57Z</time><cmt>5.0 kmh</cmt></trkpt>
<trkpt lat="51.697725" lon="03.800944"><ele>1</ele><time>2021-01-07T11:46:58Z</time><cmt>5.0 kmh</cmt></trkpt>
<trkpt lat="51.697726" lon="03.800965"><ele>1</ele><time>2021-01-07T11:46:59Z</time><cmt>4.6 kmh</cmt></trkpt>
<trkpt lat="51.697725" lon="03.800987"><ele>1</ele><time>2021-01-07T11:47:00Z</time><cmt>4.6 kmh</cmt></trkpt>
<trkpt lat="51.697725" lon="03.801009"><ele>1</ele><time>2021-01-07T11:47:01Z</time><cmt>5.0 kmh</cmt></trkpt>
<trkpt lat="51.697728" lon="03.801024"><ele>1</ele><time>2021-01-07T11:47:02Z</time><cmt>5.0 kmh</cmt></trkpt>
<trkpt lat="51.697732" lon="03.801036"><ele>1</ele><time>2021-01-07T11:47:03Z</time><cmt>3.9 kmh</cmt></trkpt>
<trkpt lat="51.697735" lon="03.801052"><ele>1</ele><time>2021-01-07T11:47:04Z</time><cmt>4.1 kmh</cmt></trkpt>
<trkpt lat="51.697737" lon="03.801070"><ele>1</ele><time>2021-01-07T11:47:05Z</time><cmt>4.7 kmh</cmt></trkpt>
<trkpt lat="51.697739" lon="03.801084"><ele>1</ele><time>2021-01-07T11:47:06Z</time><cmt>3.5 kmh</cmt></trkpt>
<trkpt lat="51.697742" lon="03.801100"><ele>1</ele><time>2021-01-07T11:47:07Z</time><cmt>3.4 kmh</cmt></trkpt>
<trkpt lat="51.697747" lon="03.801116"><ele>1</ele><time>2021-01-07T11:47:08Z</time><cmt>4.6 kmh</cmt></trkpt>
<trkpt lat="51.697751" lon="03.801129"><ele>1</ele><time>2021-01-07T11:47:09Z</time><cmt>4.2 kmh</cmt></trkpt>
<trkpt lat="51.697756" lon="03.801139"><ele>1</ele><time>2021-01-07T11:47:10Z</time><cmt>3.7 kmh</cmt></trkpt>
<trkpt lat="51.697756" lon="03.801149"><ele>1</ele><time>2021-01-07T11:47:11Z</time><cmt>3.0 kmh</cmt></trkpt>
<trkpt lat="51.697759" lon="03.801159"><ele>1</ele><time>2021-01-07T11:47:12Z</time><cmt>2.3 kmh</cmt></trkpt>
<trkpt lat="51.697763" lon="03.801170"><ele>1</ele><time>2021-01-07T11:47:13Z</time><cmt>2.7 kmh</cmt></trkpt>
<trkpt lat="51.697768" lon="03.801183"><ele>1</ele><time>2021-01-07T11:47:14Z</time><cmt>3.7 kmh</cmt></trkpt>
<trkpt lat="51.697768" lon="03.801200"><ele>1</ele><time>2021-01-07T11:47:15Z</time><cmt>4.3 kmh</cmt></trkpt>
<trkpt lat="51.697770" lon="03.801222"><ele>1</ele><time>2021-01-07T11:47:16Z</time><cmt>5.0 kmh</cmt></trkpt>
<trkpt lat="51.697808" lon="03.801328"><ele>0</ele><time>2021-01-07T11:47:24Z</time><cmt>5.0 kmh</cmt></trkpt>
<trkpt lat="51.697807" lon="03.801409"><ele>0</ele><time>2021-01-07T11:47:27Z</time><cmt>5.0 kmh</cmt></trkpt>
<trkpt lat="51.697806" lon="03.801428"><ele>1</ele><time>2021-01-07T11:47:28Z</time><cmt>5.0 kmh</cmt></trkpt>
<trkpt lat="51.697799" lon="03.801450"><ele>1</ele><time>2021-01-07T11:47:29Z</time><cmt>5.0 kmh</cmt></trkpt>
<trkpt lat="51.697797" lon="03.801470"><ele>1</ele><time>2021-01-07T11:47:30Z</time><cmt>5.0 kmh</cmt></trkpt>
<trkpt lat="51.697794" lon="03.801490"><ele>1</ele><time>2021-01-07T11:47:31Z</time><cmt>4.4 kmh</cmt></trkpt>
<trkpt lat="51.697796" lon="03.801507"><ele>1</ele><time>2021-01-07T11:47:32Z</time><cmt>4.0 kmh</cmt></trkpt>
<trkpt lat="51.697799" lon="03.801522"><ele>1</ele><time>2021-01-07T11:47:33Z</time><cmt>4.4 kmh</cmt></trkpt>
<trkpt lat="51.697800" lon="03.801541"><ele>0</ele><time>2021-01-07T11:47:34Z</time><cmt>4.7 kmh</cmt></trkpt>
<trkpt lat="51.697802" lon="03.801560"><ele>0</ele><time>2021-01-07T11:47:35Z</time><cmt>5.0 kmh</cmt></trkpt>
<trkpt lat="51.697802" lon="03.801583"><ele>0</ele><time>2021-01-07T11:47:36Z</time><cmt>5.0 kmh</cmt></trkpt>
<trkpt lat="51.697807" lon="03.801601"><ele>0</ele><time>2021-01-07T11:47:37Z</time><cmt>5.0 kmh</cmt></trkpt>
<trkpt lat="51.697813" lon="03.801615"><ele>0</ele><time>2021-01-07T11:47:38Z</time><cmt>3.9 kmh</cmt></trkpt>
<trkpt lat="51.697821" lon="03.801629"><ele>0</ele><time>2021-01-07T11:47:39Z</time><cmt>3.8 kmh</cmt></trkpt>
<trkpt lat="51.697827" lon="03.801642"><ele>1</ele><time>2021-01-07T11:47:40Z</time><cmt>4.8 kmh</cmt></trkpt>
<trkpt lat="51.697833" lon="03.801654"><ele>1</ele><time>2021-01-07T11:47:41Z</time><cmt>4.3 kmh</cmt></trkpt>
<trkpt lat="51.697840" lon="03.801700"><ele>1</ele><time>2021-01-07T11:47:43Z</time><cmt>5.0 kmh</cmt></trkpt>
<trkpt lat="51.697837" lon="03.801726"><ele>1</ele><time>2021-01-07T11:47:44Z</time><cmt>5.0 kmh</cmt></trkpt>
<trkpt lat="51.697842" lon="03.801743"><ele>1</ele><time>2021-01-07T11:47:45Z</time><cmt>4.7 kmh</cmt></trkpt>
<trkpt lat="51.697849" lon="03.801758"><ele>1</ele><time>2021-01-07T11:47:46Z</time><cmt>5.0 kmh</cmt></trkpt>
<trkpt lat="51.697855" lon="03.801772"><ele>2</ele><time>2021-01-07T11:47:47Z</time><cmt>4.8 kmh</cmt></trkpt>
<trkpt lat="51.697859" lon="03.801783"><ele>2</ele><time>2021-01-07T11:47:48Z</time><cmt>4.1 kmh</cmt></trkpt>
<trkpt lat="51.697865" lon="03.801798"><ele>2</ele><time>2021-01-07T11:47:49Z</time><cmt>4.1 kmh</cmt></trkpt>
<trkpt lat="51.697856" lon="03.801866"><ele>2</ele><time>2021-01-07T11:47:54Z</time><cmt>4.7 kmh</cmt></trkpt>
<trkpt lat="51.697854" lon="03.801917"><ele>2</ele><time>2021-01-07T11:47:57Z</time><cmt>3.9 kmh</cmt></trkpt>
<trkpt lat="51.697851" lon="03.801966"><ele>2</ele><time>2021-01-07T11:47:59Z</time><cmt>5.0 kmh</cmt></trkpt>
<trkpt lat="51.697848" lon="03.802024"><ele>2</ele><time>2021-01-07T11:48:01Z</time><cmt>5.0 kmh</cmt></trkpt>
<trkpt lat="51.697848" lon="03.802078"><ele>2</ele><time>2021-01-07T11:48:03Z</time><cmt>5.0 kmh</cmt></trkpt>
<trkpt lat="51.697848" lon="03.802128"><ele>2</ele><time>2021-01-07T11:48:05Z</time><cmt>5.0 kmh</cmt></trkpt>
<trkpt lat="51.697854" lon="03.802167"><ele>2</ele><time>2021-01-07T11:48:07Z</time><cmt>5.0 kmh</cmt></trkpt>
<trkpt lat="51.697857" lon="03.802210"><ele>2</ele><time>2021-01-07T11:48:09Z</time><cmt>4.9 kmh</cmt></trkpt>
<trkpt lat="51.697866" lon="03.802267"><ele>2</ele><time>2021-01-07T11:48:11Z</time><cmt>5.0 kmh</cmt></trkpt>
<trkpt lat="51.697870" lon="03.802285"><ele>2</ele><time>2021-01-07T11:48:12Z</time><cmt>5.0 kmh</cmt></trkpt>
<trkpt lat="51.697878" lon="03.802300"><ele>2</ele><time>2021-01-07T11:48:13Z</time><cmt>5.0 kmh</cmt></trkpt>
<trkpt lat="51.697890" lon="03.802311"><ele>2</ele><time>2021-01-07T11:48:14Z</time><cmt>5.0 kmh</cmt></trkpt>
<trkpt lat="51.697894" lon="03.802326"><ele>2</ele><time>2021-01-07T11:48:15Z</time><cmt>5.0 kmh</cmt></trkpt>
<trkpt lat="51.697894" lon="03.802343"><ele>2</ele><time>2021-01-07T11:48:16Z</time><cmt>3.6 kmh</cmt></trkpt>
<trkpt lat="51.697895" lon="03.802359"><ele>2</ele><time>2021-01-07T11:48:17Z</time><cmt>3.6 kmh</cmt></trkpt>
<trkpt lat="51.697897" lon="03.802376"><ele>2</ele><time>2021-01-07T11:48:18Z</time><cmt>4.4 kmh</cmt></trkpt>
<trkpt lat="51.697899" lon="03.802391"><ele>2</ele><time>2021-01-07T11:48:19Z</time><cmt>4.2 kmh</cmt></trkpt>
<trkpt lat="51.697900" lon="03.802409"><ele>2</ele><time>2021-01-07T11:48:20Z</time><cmt>4.5 kmh</cmt></trkpt>
<trkpt lat="51.697903" lon="03.802425"><ele>2</ele><time>2021-01-07T11:48:21Z</time><cmt>4.8 kmh</cmt></trkpt>
<trkpt lat="51.697905" lon="03.802442"><ele>2</ele><time>2021-01-07T11:48:22Z</time><cmt>3.7 kmh</cmt></trkpt>
<trkpt lat="51.697907" lon="03.802461"><ele>2</ele><time>2021-01-07T11:48:23Z</time><cmt>3.9 kmh</cmt></trkpt>
<trkpt lat="51.697910" lon="03.802476"><ele>2</ele><time>2021-01-07T11:48:24Z</time><cmt>4.7 kmh</cmt></trkpt>
<trkpt lat="51.697912" lon="03.802491"><ele>2</ele><time>2021-01-07T11:48:25Z</time><cmt>4.2 kmh</cmt></trkpt>
<trkpt lat="51.697913" lon="03.802504"><ele>2</ele><time>2021-01-07T11:48:26Z</time><cmt>3.8 kmh</cmt></trkpt>
<trkpt lat="51.697914" lon="03.802517"><ele>2</ele><time>2021-01-07T11:48:27Z</time><cmt>3.4 kmh</cmt></trkpt>
<trkpt lat="51.697917" lon="03.802531"><ele>2</ele><time>2021-01-07T11:48:28Z</time><cmt>3.0 kmh</cmt></trkpt>
<trkpt lat="51.697920" lon="03.802547"><ele>2</ele><time>2021-01-07T11:48:29Z</time><cmt>3.4 kmh</cmt></trkpt>
<trkpt lat="51.697934" lon="03.802565"><ele>2</ele><time>2021-01-07T11:48:30Z</time><cmt>5.0 kmh</cmt></trkpt>
<trkpt lat="51.697948" lon="03.802584"><ele>2</ele><time>2021-01-07T11:48:31Z</time><cmt>5.0 kmh</cmt></trkpt>
<trkpt lat="51.697959" lon="03.802600"><ele>2</ele><time>2021-01-07T11:48:32Z</time><cmt>5.0 kmh</cmt></trkpt>
<trkpt lat="51.697966" lon="03.802617"><ele>2</ele><time>2021-01-07T11:48:33Z</time><cmt>5.0 kmh</cmt></trkpt>
<trkpt lat="51.697973" lon="03.802633"><ele>2</ele><time>2021-01-07T11:48:34Z</time><cmt>5.0 kmh</cmt></trkpt>
<trkpt lat="51.697979" lon="03.802648"><ele>1</ele><time>2021-01-07T11:48:35Z</time><cmt>3.9 kmh</cmt></trkpt>
<trkpt lat="51.697984" lon="03.802660"><ele>1</ele><time>2021-01-07T11:48:36Z</time><cmt>3.5 kmh</cmt></trkpt>
<trkpt lat="51.697987" lon="03.802674"><ele>1</ele><time>2021-01-07T11:48:37Z</time><cmt>4.0 kmh</cmt></trkpt>
<trkpt lat="51.697990" lon="03.802687"><ele>1</ele><time>2021-01-07T11:48:38Z</time><cmt>3.8 kmh</cmt></trkpt>
<trkpt lat="51.697994" lon="03.802700"><ele>1</ele><time>2021-01-07T11:48:39Z</time><cmt>3.7 kmh</cmt></trkpt>
<trkpt lat="51.697997" lon="03.802712"><ele>1</ele><time>2021-01-07T11:48:40Z</time><cmt>3.7 kmh</cmt></trkpt>
<trkpt lat="51.697999" lon="03.802726"><ele>1</ele><time>2021-01-07T11:48:41Z</time><cmt>3.0 kmh</cmt></trkpt>
<trkpt lat="51.697998" lon="03.802741"><ele>1</ele><time>2021-01-07T11:48:42Z</time><cmt>3.1 kmh</cmt></trkpt>
<trkpt lat="51.697997" lon="03.802756"><ele>1</ele><time>2021-01-07T11:48:43Z</time><cmt>4.1 kmh</cmt></trkpt>
<trkpt lat="51.697997" lon="03.802768"><ele>1</ele><time>2021-01-07T11:48:44Z</time><cmt>3.7 kmh</cmt></trkpt>
<trkpt lat="51.697993" lon="03.802787"><ele>1</ele><time>2021-01-07T11:48:45Z</time><cmt>4.2 kmh</cmt></trkpt>
<trkpt lat="51.697988" lon="03.802807"><ele>1</ele><time>2021-01-07T11:48:46Z</time><cmt>5.0 kmh</cmt></trkpt>
<trkpt lat="51.697983" lon="03.802824"><ele>1</ele><time>2021-01-07T11:48:47Z</time><cmt>5.0 kmh</cmt></trkpt>
<trkpt lat="51.697978" lon="03.802842"><ele>1</ele><time>2021-01-07T11:48:48Z</time><cmt>4.1 kmh</cmt></trkpt>
<trkpt lat="51.697974" lon="03.802859"><ele>1</ele><time>2021-01-07T11:48:49Z</time><cmt>4.0 kmh</cmt></trkpt>
<trkpt lat="51.697967" lon="03.802876"><ele>1</ele><time>2021-01-07T11:48:50Z</time><cmt>5.0 kmh</cmt></trkpt>
<trkpt lat="51.697962" lon="03.802891"><ele>1</ele><time>2021-01-07T11:48:51Z</time><cmt>5.0 kmh</cmt></trkpt>
<trkpt lat="51.697958" lon="03.802904"><ele>1</ele><time>2021-01-07T11:48:52Z</time><cmt>4.3 kmh</cmt></trkpt>
<trkpt lat="51.697952" lon="03.802921"><ele>1</ele><time>2021-01-07T11:48:53Z</time><cmt>4.4 kmh</cmt></trkpt>
<trkpt lat="51.697947" lon="03.802936"><ele>1</ele><time>2021-01-07T11:48:54Z</time><cmt>3.9 kmh</cmt></trkpt>
<trkpt lat="51.697941" lon="03.802952"><ele>1</ele><time>2021-01-07T11:48:55Z</time><cmt>3.9 kmh</cmt></trkpt>
<trkpt lat="51.697936" lon="03.802964"><ele>1</ele><time>2021-01-07T11:48:56Z</time><cmt>4.5 kmh</cmt></trkpt>
<trkpt lat="51.697932" lon="03.802973"><ele>1</ele><time>2021-01-07T11:48:57Z</time><cmt>3.4 kmh</cmt></trkpt>
<trkpt lat="51.697929" lon="03.802978"><ele>1</ele><time>2021-01-07T11:48:58Z</time><cmt>2.3 kmh</cmt></trkpt>
<trkpt lat="51.697925" lon="03.802986"><ele>1</ele><time>2021-01-07T11:48:59Z</time><cmt>2.4 kmh</cmt></trkpt>
<trkpt lat="51.697923" lon="03.802994"><ele>1</ele><time>2021-01-07T11:49:00Z</time><cmt>2.1 kmh</cmt></trkpt>
<trkpt lat="51.697917" lon="03.803002"><ele>1</ele><time>2021-01-07T11:49:01Z</time><cmt>2.2 kmh</cmt></trkpt>
<trkpt lat="51.697909" lon="03.803010"><ele>1</ele><time>2021-01-07T11:49:02Z</time><cmt>3.5 kmh</cmt></trkpt>
<trkpt lat="51.697903" lon="03.803016"><ele>1</ele><time>2021-01-07T11:49:03Z</time><cmt>3.5 kmh</cmt></trkpt>
<trkpt lat="51.697897" lon="03.803022"><ele>1</ele><time>2021-01-07T11:49:04Z</time><cmt>3.1 kmh</cmt></trkpt>
<trkpt lat="51.697891" lon="03.803026"><ele>1</ele><time>2021-01-07T11:49:05Z</time><cmt>2.9 kmh</cmt></trkpt>
<trkpt lat="51.697883" lon="03.803031"><ele>1</ele><time>2021-01-07T11:49:06Z</time><cmt>2.6 kmh</cmt></trkpt>
<trkpt lat="51.697874" lon="03.803036"><ele>1</ele><time>2021-01-07T11:49:07Z</time><cmt>3.2 kmh</cmt></trkpt>
<trkpt lat="51.697867" lon="03.803041"><ele>1</ele><time>2021-01-07T11:49:08Z</time><cmt>3.7 kmh</cmt></trkpt>
<trkpt lat="51.697859" lon="03.803045"><ele>1</ele><time>2021-01-07T11:49:09Z</time><cmt>3.5 kmh</cmt></trkpt>
<trkpt lat="51.697850" lon="03.803052"><ele>1</ele><time>2021-01-07T11:49:10Z</time><cmt>3.8 kmh</cmt></trkpt>
<trkpt lat="51.697840" lon="03.803060"><ele>1</ele><time>2021-01-07T11:49:11Z</time><cmt>4.5 kmh</cmt></trkpt>
<trkpt lat="51.697833" lon="03.803068"><ele>1</ele><time>2021-01-07T11:49:12Z</time><cmt>4.2 kmh</cmt></trkpt>
<trkpt lat="51.697830" lon="03.803073"><ele>1</ele><time>2021-01-07T11:49:13Z</time><cmt>2.3 kmh</cmt></trkpt>
<trkpt lat="51.697825" lon="03.803079"><ele>1</ele><time>2021-01-07T11:49:14Z</time><cmt>1.9 kmh</cmt></trkpt>
<trkpt lat="51.697819" lon="03.803083"><ele>1</ele><time>2021-01-07T11:49:15Z</time><cmt>2.6 kmh</cmt></trkpt>
<trkpt lat="51.697813" lon="03.803088"><ele>1</ele><time>2021-01-07T11:49:16Z</time><cmt>2.7 kmh</cmt></trkpt>
<trkpt lat="51.697807" lon="03.803093"><ele>1</ele><time>2021-01-07T11:49:17Z</time><cmt>2.9 kmh</cmt></trkpt>
<trkpt lat="51.697801" lon="03.803097"><ele>1</ele><time>2021-01-07T11:49:18Z</time><cmt>2.8 kmh</cmt></trkpt>
<trkpt lat="51.697795" lon="03.803101"><ele>1</ele><time>2021-01-07T11:49:19Z</time><cmt>2.8 kmh</cmt></trkpt>
<trkpt lat="51.697788" lon="03.803105"><ele>1</ele><time>2021-01-07T11:49:20Z</time><cmt>2.4 kmh</cmt></trkpt>
<trkpt lat="51.697782" lon="03.803109"><ele>1</ele><time>2021-01-07T11:49:21Z</time><cmt>2.3 kmh</cmt></trkpt>
<trkpt lat="51.697776" lon="03.803113"><ele>1</ele><time>2021-01-07T11:49:22Z</time><cmt>2.9 kmh</cmt></trkpt>
<trkpt lat="51.697771" lon="03.803117"><ele>1</ele><time>2021-01-07T11:49:23Z</time><cmt>2.7 kmh</cmt></trkpt>
<trkpt lat="51.697766" lon="03.803121"><ele>1</ele><time>2021-01-07T11:49:24Z</time><cmt>2.5 kmh</cmt></trkpt>
<trkpt lat="51.697762" lon="03.803123"><ele>1</ele><time>2021-01-07T11:49:25Z</time><cmt>2.0 kmh</cmt></trkpt>
<trkpt lat="51.697761" lon="03.803122"><ele>1</ele><time>2021-01-07T11:49:26Z</time><cmt>0.8 kmh</cmt></trkpt>
<trkpt lat="51.697760" lon="03.803122"><ele>1</ele><time>2021-01-07T11:49:27Z</time><cmt>0.2 kmh</cmt></trkpt>
<trkpt lat="51.697760" lon="03.803121"><ele>1</ele><time>2021-01-07T11:49:28Z</time><cmt>0.0 kmh</cmt></trkpt>
<trkpt lat="51.697761" lon="03.803120"><ele>1</ele><time>2021-01-07T11:49:29Z</time><cmt>0.0 kmh</cmt></trkpt>
<trkpt lat="51.697761" lon="03.803120"><ele>1</ele><time>2021-01-07T11:49:30Z</time><cmt>0.0 kmh</cmt></trkpt>
<trkpt lat="51.697760" lon="03.803119"><ele>1</ele><time>2021-01-07T11:49:31Z</time><cmt>0.0 kmh</cmt></trkpt>
<trkpt lat="51.697756" lon="03.803119"><ele>1</ele><time>2021-01-07T11:49:32Z</time><cmt>0.4 kmh</cmt></trkpt>
<trkpt lat="51.697753" lon="03.803119"><ele>1</ele><time>2021-01-07T11:49:33Z</time><cmt>1.1 kmh</cmt></trkpt>
<trkpt lat="51.697749" lon="03.803120"><ele>1</ele><time>2021-01-07T11:49:34Z</time><cmt>1.7 kmh</cmt></trkpt>
<trkpt lat="51.697742" lon="03.803124"><ele>1</ele><time>2021-01-07T11:49:35Z</time><cmt>2.4 kmh</cmt></trkpt>
<trkpt lat="51.697736" lon="03.803127"><ele>1</ele><time>2021-01-07T11:49:36Z</time><cmt>2.8 kmh</cmt></trkpt>
<trkpt lat="51.697729" lon="03.803128"><ele>1</ele><time>2021-01-07T11:49:37Z</time><cmt>3.0 kmh</cmt></trkpt>
<trkpt lat="51.697720" lon="03.803128"><ele>1</ele><time>2021-01-07T11:49:38Z</time><cmt>2.7 kmh</cmt></trkpt>
<trkpt lat="51.697712" lon="03.803129"><ele>1</ele><time>2021-01-07T11:49:39Z</time><cmt>2.9 kmh</cmt></trkpt>
<trkpt lat="51.697702" lon="03.803130"><ele>1</ele><time>2021-01-07T11:49:40Z</time><cmt>4.0 kmh</cmt></trkpt>
<trkpt lat="51.697692" lon="03.803131"><ele>1</ele><time>2021-01-07T11:49:41Z</time><cmt>4.4 kmh</cmt></trkpt>
<trkpt lat="51.697680" lon="03.803134"><ele>1</ele><time>2021-01-07T11:49:42Z</time><cmt>4.7 kmh</cmt></trkpt>
<trkpt lat="51.697668" lon="03.803137"><ele>1</ele><time>2021-01-07T11:49:43Z</time><cmt>5.0 kmh</cmt></trkpt>
<trkpt lat="51.697656" lon="03.803141"><ele>1</ele><time>2021-01-07T11:49:44Z</time><cmt>5.0 kmh</cmt></trkpt>
<trkpt lat="51.697646" lon="03.803142"><ele>1</ele><time>2021-01-07T11:49:45Z</time><cmt>4.7 kmh</cmt></trkpt>
<trkpt lat="51.697636" lon="03.803142"><ele>1</ele><time>2021-01-07T11:49:46Z</time><cmt>3.4 kmh</cmt></trkpt>
<trkpt lat="51.697627" lon="03.803141"><ele>1</ele><time>2021-01-07T11:49:47Z</time><cmt>3.2 kmh</cmt></trkpt>
<trkpt lat="51.697619" lon="03.803140"><ele>1</ele><time>2021-01-07T11:49:48Z</time><cmt>3.7 kmh</cmt></trkpt>
<trkpt lat="51.697610" lon="03.803141"><ele>1</ele><time>2021-01-07T11:49:49Z</time><cmt>3.8 kmh</cmt></trkpt>
<trkpt lat="51.697600" lon="03.803142"><ele>1</ele><time>2021-01-07T11:49:50Z</time><cmt>4.2 kmh</cmt></trkpt>
<trkpt lat="51.697588" lon="03.803145"><ele>2</ele><time>2021-01-07T11:49:51Z</time><cmt>5.1 kmh</cmt></trkpt>
<trkpt lat="51.697576" lon="03.803150"><ele>2</ele><time>2021-01-07T11:49:52Z</time><cmt>5.1 kmh</cmt></trkpt>
<trkpt lat="51.697565" lon="03.803154"><ele>2</ele><time>2021-01-07T11:49:53Z</time><cmt>4.1 kmh</cmt></trkpt>
<trkpt lat="51.697555" lon="03.803158"><ele>2</ele><time>2021-01-07T11:49:54Z</time><cmt>4.6 kmh</cmt></trkpt>
<trkpt lat="51.697547" lon="03.803162"><ele>2</ele><time>2021-01-07T11:49:55Z</time><cmt>4.0 kmh</cmt></trkpt>
<trkpt lat="51.697538" lon="03.803164"><ele>2</ele><time>2021-01-07T11:49:56Z</time><cmt>3.8 kmh</cmt></trkpt>
<trkpt lat="51.697530" lon="03.803167"><ele>2</ele><time>2021-01-07T11:49:57Z</time><cmt>3.8 kmh</cmt></trkpt>
<trkpt lat="51.697521" lon="03.803170"><ele>3</ele><time>2021-01-07T11:49:58Z</time><cmt>3.0 kmh</cmt></trkpt>
<trkpt lat="51.697514" lon="03.803169"><ele>3</ele><time>2021-01-07T11:49:59Z</time><cmt>2.6 kmh</cmt></trkpt>
<trkpt lat="51.697508" lon="03.803166"><ele>3</ele><time>2021-01-07T11:50:00Z</time><cmt>2.9 kmh</cmt></trkpt>
<trkpt lat="51.697502" lon="03.803166"><ele>3</ele><time>2021-01-07T11:50:01Z</time><cmt>2.8 kmh</cmt></trkpt>
<trkpt lat="51.697496" lon="03.803170"><ele>3</ele><time>2021-01-07T11:50:02Z</time><cmt>2.8 kmh</cmt></trkpt>
<trkpt lat="51.697488" lon="03.803178"><ele>3</ele><time>2021-01-07T11:50:03Z</time><cmt>3.5 kmh</cmt></trkpt>
<trkpt lat="51.697480" lon="03.803185"><ele>3</ele><time>2021-01-07T11:50:04Z</time><cmt>3.9 kmh</cmt></trkpt>
<trkpt lat="51.697472" lon="03.803191"><ele>3</ele><time>2021-01-07T11:50:05Z</time><cmt>3.0 kmh</cmt></trkpt>
<trkpt lat="51.697465" lon="03.803192"><ele>3</ele><time>2021-01-07T11:50:06Z</time><cmt>2.8 kmh</cmt></trkpt>
<trkpt lat="51.697458" lon="03.803194"><ele>3</ele><time>2021-01-07T11:50:07Z</time><cmt>3.1 kmh</cmt></trkpt>
<trkpt lat="51.697453" lon="03.803195"><ele>3</ele><time>2021-01-07T11:50:08Z</time><cmt>2.7 kmh</cmt></trkpt>
<trkpt lat="51.697448" lon="03.803198"><ele>3</ele><time>2021-01-07T11:50:09Z</time><cmt>2.3 kmh</cmt></trkpt>
<trkpt lat="51.697442" lon="03.803205"><ele>4</ele><time>2021-01-07T11:50:10Z</time><cmt>2.6 kmh</cmt></trkpt>
<trkpt lat="51.697437" lon="03.803211"><ele>4</ele><time>2021-01-07T11:50:11Z</time><cmt>2.3 kmh</cmt></trkpt>
<trkpt lat="51.697434" lon="03.803216"><ele>4</ele><time>2021-01-07T11:50:12Z</time><cmt>1.8 kmh</cmt></trkpt>
<trkpt lat="51.697430" lon="03.803224"><ele>4</ele><time>2021-01-07T11:50:13Z</time><cmt>2.3 kmh</cmt></trkpt>
<trkpt lat="51.697427" lon="03.803230"><ele>4</ele><time>2021-01-07T11:50:14Z</time><cmt>2.4 kmh</cmt></trkpt>
<trkpt lat="51.697424" lon="03.803235"><ele>4</ele><time>2021-01-07T11:50:15Z</time><cmt>1.9 kmh</cmt></trkpt>
<trkpt lat="51.697421" lon="03.803244"><ele>4</ele><time>2021-01-07T11:50:16Z</time><cmt>2.3 kmh</cmt></trkpt>
<trkpt lat="51.697418" lon="03.803253"><ele>5</ele><time>2021-01-07T11:50:17Z</time><cmt>2.2 kmh</cmt></trkpt>
<trkpt lat="51.697412" lon="03.803267"><ele>5</ele><time>2021-01-07T11:50:18Z</time><cmt>2.9 kmh</cmt></trkpt>
<trkpt lat="51.697409" lon="03.803279"><ele>5</ele><time>2021-01-07T11:50:19Z</time><cmt>4.1 kmh</cmt></trkpt>
<trkpt lat="51.697407" lon="03.803291"><ele>5</ele><time>2021-01-07T11:50:20Z</time><cmt>3.4 kmh</cmt></trkpt>
<trkpt lat="51.697405" lon="03.803303"><ele>5</ele><time>2021-01-07T11:50:21Z</time><cmt>3.3 kmh</cmt></trkpt>
<trkpt lat="51.697402" lon="03.803317"><ele>5</ele><time>2021-01-07T11:50:22Z</time><cmt>3.7 kmh</cmt></trkpt>
<trkpt lat="51.697398" lon="03.803329"><ele>5</ele><time>2021-01-07T11:50:23Z</time><cmt>3.8 kmh</cmt></trkpt>
<trkpt lat="51.697395" lon="03.803339"><ele>6</ele><time>2021-01-07T11:50:24Z</time><cmt>2.6 kmh</cmt></trkpt>
<trkpt lat="51.697393" lon="03.803345"><ele>6</ele><time>2021-01-07T11:50:25Z</time><cmt>1.9 kmh</cmt></trkpt>
<trkpt lat="51.697390" lon="03.803348"><ele>6</ele><time>2021-01-07T11:50:26Z</time><cmt>1.7 kmh</cmt></trkpt>
<trkpt lat="51.697391" lon="03.803354"><ele>6</ele><time>2021-01-07T11:50:27Z</time><cmt>1.4 kmh</cmt></trkpt>
<trkpt lat="51.697390" lon="03.803360"><ele>6</ele><time>2021-01-07T11:50:28Z</time><cmt>1.6 kmh</cmt></trkpt>
<trkpt lat="51.697389" lon="03.803364"><ele>6</ele><time>2021-01-07T11:50:29Z</time><cmt>1.4 kmh</cmt></trkpt>
<trkpt lat="51.697388" lon="03.803364"><ele>6</ele><time>2021-01-07T11:50:30Z</time><cmt>0.4 kmh</cmt></trkpt>
<trkpt lat="51.697388" lon="03.803366"><ele>6</ele><time>2021-01-07T11:50:31Z</time><cmt>0.2 kmh</cmt></trkpt>
<trkpt lat="51.697387" lon="03.803368"><ele>6</ele><time>2021-01-07T11:50:32Z</time><cmt>0.5 kmh</cmt></trkpt>
<trkpt lat="51.697386" lon="03.803372"><ele>6</ele><time>2021-01-07T11:50:33Z</time><cmt>0.9 kmh</cmt></trkpt>
<trkpt lat="51.697386" lon="03.803378"><ele>6</ele><time>2021-01-07T11:50:34Z</time><cmt>1.5 kmh</cmt></trkpt>
<trkpt lat="51.697389" lon="03.803387"><ele>6</ele><time>2021-01-07T11:50:35Z</time><cmt>2.2 kmh</cmt></trkpt>
<trkpt lat="51.697392" lon="03.803399"><ele>6</ele><time>2021-01-07T11:50:36Z</time><cmt>3.1 kmh</cmt></trkpt>
<trkpt lat="51.697394" lon="03.803410"><ele>6</ele><time>2021-01-07T11:50:37Z</time><cmt>2.6 kmh</cmt></trkpt>
<trkpt lat="51.697395" lon="03.803418"><ele>6</ele><time>2021-01-07T11:50:38Z</time><cmt>2.1 kmh</cmt></trkpt>
<trkpt lat="51.697395" lon="03.803421"><ele>6</ele><time>2021-01-07T11:50:39Z</time><cmt>1.5 kmh</cmt></trkpt>
<trkpt lat="51.697393" lon="03.803419"><ele>5</ele><time>2021-01-07T11:50:40Z</time><cmt>1.0 kmh</cmt></trkpt>
<trkpt lat="51.697391" lon="03.803414"><ele>5</ele><time>2021-01-07T11:50:41Z</time><cmt>1.4 kmh</cmt></trkpt>
<trkpt lat="51.697389" lon="03.803407"><ele>5</ele><time>2021-01-07T11:50:42Z</time><cmt>1.8 kmh</cmt></trkpt>
<trkpt lat="51.697387" lon="03.803401"><ele>5</ele><time>2021-01-07T11:50:43Z</time><cmt>1.5 kmh</cmt></trkpt>
<trkpt lat="51.697387" lon="03.803401"><ele>5</ele><time>2021-01-07T11:50:44Z</time><cmt>0.7 kmh</cmt></trkpt>
<trkpt lat="51.697389" lon="03.803403"><ele>5</ele><time>2021-01-07T11:50:45Z</time><cmt>0.8 kmh</cmt></trkpt>
<trkpt lat="51.697392" lon="03.803411"><ele>5</ele><time>2021-01-07T11:50:46Z</time><cmt>1.2 kmh</cmt></trkpt>
<trkpt lat="51.697399" lon="03.803424"><ele>5</ele><time>2021-01-07T11:50:47Z</time><cmt>3.6 kmh</cmt></trkpt>
<trkpt lat="51.697404" lon="03.803437"><ele>5</ele><time>2021-01-07T11:50:48Z</time><cmt>4.4 kmh</cmt></trkpt>
<trkpt lat="51.697403" lon="03.803455"><ele>4</ele><time>2021-01-07T11:50:49Z</time><cmt>3.5 kmh</cmt></trkpt>
<trkpt lat="51.697404" lon="03.803470"><ele>4</ele><time>2021-01-07T11:50:50Z</time><cmt>3.5 kmh</cmt></trkpt>
<trkpt lat="51.697405" lon="03.803483"><ele>4</ele><time>2021-01-07T11:50:51Z</time><cmt>3.8 kmh</cmt></trkpt>
<trkpt lat="51.697404" lon="03.803497"><ele>4</ele><time>2021-01-07T11:50:52Z</time><cmt>3.7 kmh</cmt></trkpt>
<trkpt lat="51.697402" lon="03.803512"><ele>4</ele><time>2021-01-07T11:50:53Z</time><cmt>4.0 kmh</cmt></trkpt>
<trkpt lat="51.697399" lon="03.803528"><ele>4</ele><time>2021-01-07T11:50:54Z</time><cmt>4.2 kmh</cmt></trkpt>
<trkpt lat="51.697398" lon="03.803544"><ele>4</ele><time>2021-01-07T11:50:55Z</time><cmt>4.4 kmh</cmt></trkpt>
<trkpt lat="51.697397" lon="03.803556"><ele>4</ele><time>2021-01-07T11:50:56Z</time><cmt>2.9 kmh</cmt></trkpt>
<trkpt lat="51.697392" lon="03.803574"><ele>4</ele><time>2021-01-07T11:50:57Z</time><cmt>3.4 kmh</cmt></trkpt>
<trkpt lat="51.697387" lon="03.803593"><ele>3</ele><time>2021-01-07T11:50:58Z</time><cmt>5.0 kmh</cmt></trkpt>
<trkpt lat="51.697384" lon="03.803607"><ele>3</ele><time>2021-01-07T11:50:59Z</time><cmt>4.8 kmh</cmt></trkpt>
<trkpt lat="51.697381" lon="03.803622"><ele>3</ele><time>2021-01-07T11:51:00Z</time><cmt>4.1 kmh</cmt></trkpt>
<trkpt lat="51.697380" lon="03.803633"><ele>3</ele><time>2021-01-07T11:51:01Z</time><cmt>3.6 kmh</cmt></trkpt>
<trkpt lat="51.697379" lon="03.803644"><ele>3</ele><time>2021-01-07T11:51:02Z</time><cmt>2.5 kmh</cmt></trkpt>
<trkpt lat="51.697375" lon="03.803650"><ele>3</ele><time>2021-01-07T11:51:03Z</time><cmt>2.2 kmh</cmt></trkpt>
<trkpt lat="51.697371" lon="03.803655"><ele>3</ele><time>2021-01-07T11:51:04Z</time><cmt>2.1 kmh</cmt></trkpt>
<trkpt lat="51.697369" lon="03.803661"><ele>3</ele><time>2021-01-07T11:51:05Z</time><cmt>1.9 kmh</cmt></trkpt>
<trkpt lat="51.697367" lon="03.803666"><ele>3</ele><time>2021-01-07T11:51:06Z</time><cmt>1.7 kmh</cmt></trkpt>
<trkpt lat="51.697366" lon="03.803670"><ele>3</ele><time>2021-01-07T11:51:07Z</time><cmt>1.3 kmh</cmt></trkpt>
<trkpt lat="51.697365" lon="03.803673"><ele>3</ele><time>2021-01-07T11:51:08Z</time><cmt>0.8 kmh</cmt></trkpt>
<trkpt lat="51.697363" lon="03.803676"><ele>2</ele><time>2021-01-07T11:51:09Z</time><cmt>0.8 kmh</cmt></trkpt>
<trkpt lat="51.697362" lon="03.803679"><ele>2</ele><time>2021-01-07T11:51:10Z</time><cmt>1.0 kmh</cmt></trkpt>
<trkpt lat="51.697361" lon="03.803681"><ele>2</ele><time>2021-01-07T11:51:11Z</time><cmt>0.7 kmh</cmt></trkpt>
<trkpt lat="51.697360" lon="03.803683"><ele>2</ele><time>2021-01-07T11:51:12Z</time><cmt>0.6 kmh</cmt></trkpt>
<trkpt lat="51.697359" lon="03.803683"><ele>2</ele><time>2021-01-07T11:51:13Z</time><cmt>0.6 kmh</cmt></trkpt>
<trkpt lat="51.697358" lon="03.803683"><ele>2</ele><time>2021-01-07T11:51:14Z</time><cmt>0.5 kmh</cmt></trkpt>
<trkpt lat="51.697357" lon="03.803683"><ele>1</ele><time>2021-01-07T11:51:15Z</time><cmt>0.4 kmh</cmt></trkpt>
<trkpt lat="51.697356" lon="03.803684"><ele>1</ele><time>2021-01-07T11:51:16Z</time><cmt>0.1 kmh</cmt></trkpt>
<trkpt lat="51.697355" lon="03.803684"><ele>1</ele><time>2021-01-07T11:51:17Z</time><cmt>0.3 kmh</cmt></trkpt>
<trkpt lat="51.697354" lon="03.803684"><ele>1</ele><time>2021-01-07T11:51:18Z</time><cmt>0.4 kmh</cmt></trkpt>
<trkpt lat="51.697353" lon="03.803684"><ele>1</ele><time>2021-01-07T11:51:19Z</time><cmt>0.2 kmh</cmt></trkpt>
<trkpt lat="51.697352" lon="03.803686"><ele>1</ele><time>2021-01-07T11:51:20Z</time><cmt>0.3 kmh</cmt></trkpt>
<trkpt lat="51.697350" lon="03.803690"><ele>1</ele><time>2021-01-07T11:51:21Z</time><cmt>0.6 kmh</cmt></trkpt>
<trkpt lat="51.697348" lon="03.803698"><ele>1</ele><time>2021-01-07T11:51:22Z</time><cmt>1.5 kmh</cmt></trkpt>
<trkpt lat="51.697346" lon="03.803706"><ele>1</ele><time>2021-01-07T11:51:23Z</time><cmt>2.2 kmh</cmt></trkpt>
<trkpt lat="51.697343" lon="03.803715"><ele>1</ele><time>2021-01-07T11:51:24Z</time><cmt>2.6 kmh</cmt></trkpt>
<trkpt lat="51.697338" lon="03.803725"><ele>1</ele><time>2021-01-07T11:51:25Z</time><cmt>3.2 kmh</cmt></trkpt>
<trkpt lat="51.697335" lon="03.803734"><ele>1</ele><time>2021-01-07T11:51:26Z</time><cmt>3.0 kmh</cmt></trkpt>
<trkpt lat="51.697331" lon="03.803743"><ele>1</ele><time>2021-01-07T11:51:27Z</time><cmt>2.3 kmh</cmt></trkpt>
<trkpt lat="51.697328" lon="03.803752"><ele>1</ele><time>2021-01-07T11:51:28Z</time><cmt>2.3 kmh</cmt></trkpt>
<trkpt lat="51.697325" lon="03.803759"><ele>1</ele><time>2021-01-07T11:51:29Z</time><cmt>2.5 kmh</cmt></trkpt>
<trkpt lat="51.697320" lon="03.803769"><ele>1</ele><time>2021-01-07T11:51:30Z</time><cmt>3.0 kmh</cmt></trkpt>
<trkpt lat="51.697315" lon="03.803777"><ele>1</ele><time>2021-01-07T11:51:31Z</time><cmt>3.2 kmh</cmt></trkpt>
<trkpt lat="51.697309" lon="03.803785"><ele>1</ele><time>2021-01-07T11:51:32Z</time><cmt>3.1 kmh</cmt></trkpt>
<trkpt lat="51.697305" lon="03.803793"><ele>1</ele><time>2021-01-07T11:51:33Z</time><cmt>3.1 kmh</cmt></trkpt>
<trkpt lat="51.697299" lon="03.803803"><ele>1</ele><time>2021-01-07T11:51:34Z</time><cmt>2.6 kmh</cmt></trkpt>
<trkpt lat="51.697292" lon="03.803812"><ele>1</ele><time>2021-01-07T11:51:35Z</time><cmt>2.9 kmh</cmt></trkpt>
<trkpt lat="51.697287" lon="03.803820"><ele>1</ele><time>2021-01-07T11:51:36Z</time><cmt>3.5 kmh</cmt></trkpt>
<trkpt lat="51.697280" lon="03.803828"><ele>1</ele><time>2021-01-07T11:51:37Z</time><cmt>3.4 kmh</cmt></trkpt>
<trkpt lat="51.697273" lon="03.803836"><ele>1</ele><time>2021-01-07T11:51:38Z</time><cmt>3.7 kmh</cmt></trkpt>
<trkpt lat="51.697266" lon="03.803843"><ele>1</ele><time>2021-01-07T11:51:39Z</time><cmt>3.7 kmh</cmt></trkpt>
<trkpt lat="51.697262" lon="03.803846"><ele>1</ele><time>2021-01-07T11:51:40Z</time><cmt>2.2 kmh</cmt></trkpt>
<trkpt lat="51.697258" lon="03.803848"><ele>1</ele><time>2021-01-07T11:51:41Z</time><cmt>1.5 kmh</cmt></trkpt>
<trkpt lat="51.697253" lon="03.803853"><ele>1</ele><time>2021-01-07T11:51:42Z</time><cmt>2.2 kmh</cmt></trkpt>
<trkpt lat="51.697246" lon="03.803859"><ele>1</ele><time>2021-01-07T11:51:43Z</time><cmt>3.0 kmh</cmt></trkpt>
<trkpt lat="51.697239" lon="03.803868"><ele>1</ele><time>2021-01-07T11:51:44Z</time><cmt>3.5 kmh</cmt></trkpt>
<trkpt lat="51.697233" lon="03.803876"><ele>1</ele><time>2021-01-07T11:51:45Z</time><cmt>3.7 kmh</cmt></trkpt>
<trkpt lat="51.697226" lon="03.803882"><ele>1</ele><time>2021-01-07T11:51:46Z</time><cmt>2.8 kmh</cmt></trkpt>
<trkpt lat="51.697219" lon="03.803888"><ele>0</ele><time>2021-01-07T11:51:47Z</time><cmt>2.8 kmh</cmt></trkpt>
<trkpt lat="51.697211" lon="03.803898"><ele>0</ele><time>2021-01-07T11:51:48Z</time><cmt>3.8 kmh</cmt></trkpt>
<trkpt lat="51.697204" lon="03.803908"><ele>0</ele><time>2021-01-07T11:51:49Z</time><cmt>4.2 kmh</cmt></trkpt>
<trkpt lat="51.697196" lon="03.803917"><ele>0</ele><time>2021-01-07T11:51:50Z</time><cmt>4.1 kmh</cmt></trkpt>
<trkpt lat="51.697189" lon="03.803927"><ele>0</ele><time>2021-01-07T11:51:51Z</time><cmt>4.0 kmh</cmt></trkpt>
<trkpt lat="51.697183" lon="03.803936"><ele>0</ele><time>2021-01-07T11:51:52Z</time><cmt>3.8 kmh</cmt></trkpt>
<trkpt lat="51.697178" lon="03.803946"><ele>0</ele><time>2021-01-07T11:51:53Z</time><cmt>2.8 kmh</cmt></trkpt>
<trkpt lat="51.697173" lon="03.803957"><ele>0</ele><time>2021-01-07T11:51:54Z</time><cmt>2.8 kmh</cmt></trkpt>
<trkpt lat="51.697167" lon="03.803967"><ele>0</ele><time>2021-01-07T11:51:55Z</time><cmt>3.7 kmh</cmt></trkpt>
<trkpt lat="51.697159" lon="03.803981"><ele>0</ele><time>2021-01-07T11:51:56Z</time><cmt>4.6 kmh</cmt></trkpt>
<trkpt lat="51.697151" lon="03.803995"><ele>0</ele><time>2021-01-07T11:51:57Z</time><cmt>5.0 kmh</cmt></trkpt>
<trkpt lat="51.697145" lon="03.804008"><ele>0</ele><time>2021-01-07T11:51:58Z</time><cmt>4.6 kmh</cmt></trkpt>
<trkpt lat="51.697139" lon="03.804021"><ele>0</ele><time>2021-01-07T11:51:59Z</time><cmt>3.5 kmh</cmt></trkpt>
<trkpt lat="51.697133" lon="03.804035"><ele>0</ele><time>2021-01-07T11:52:00Z</time><cmt>3.5 kmh</cmt></trkpt>
<trkpt lat="51.697128" lon="03.804048"><ele>0</ele><time>2021-01-07T11:52:01Z</time><cmt>4.3 kmh</cmt></trkpt>
<trkpt lat="51.697122" lon="03.804060"><ele>0</ele><time>2021-01-07T11:52:02Z</time><cmt>4.2 kmh</cmt></trkpt>
<trkpt lat="51.697116" lon="03.804072"><ele>0</ele><time>2021-01-07T11:52:03Z</time><cmt>4.2 kmh</cmt></trkpt>
<trkpt lat="51.697110" lon="03.804083"><ele>0</ele><time>2021-01-07T11:52:04Z</time><cmt>4.0 kmh</cmt></trkpt>
<trkpt lat="51.697104" lon="03.804096"><ele>0</ele><time>2021-01-07T11:52:05Z</time><cmt>3.2 kmh</cmt></trkpt>
<trkpt lat="51.697099" lon="03.804107"><ele>0</ele><time>2021-01-07T11:52:06Z</time><cmt>3.2 kmh</cmt></trkpt>
<trkpt lat="51.697094" lon="03.804117"><ele>0</ele><time>2021-01-07T11:52:07Z</time><cmt>3.5 kmh</cmt></trkpt>
<trkpt lat="51.697090" lon="03.804127"><ele>0</ele><time>2021-01-07T11:52:08Z</time><cmt>3.3 kmh</cmt></trkpt>
<trkpt lat="51.697087" lon="03.804133"><ele>0</ele><time>2021-01-07T11:52:09Z</time><cmt>2.7 kmh</cmt></trkpt>
<trkpt lat="51.697084" lon="03.804140"><ele>0</ele><time>2021-01-07T11:52:10Z</time><cmt>2.1 kmh</cmt></trkpt>
<trkpt lat="51.697081" lon="03.804144"><ele>0</ele><time>2021-01-07T11:52:11Z</time><cmt>1.9 kmh</cmt></trkpt>
<trkpt lat="51.697084" lon="03.804151"><ele>0</ele><time>2021-01-07T11:52:12Z</time><cmt>1.5 kmh</cmt></trkpt>
<trkpt lat="51.697084" lon="03.804163"><ele>1</ele><time>2021-01-07T11:52:13Z</time><cmt>2.1 kmh</cmt></trkpt>
<trkpt lat="51.697083" lon="03.804174"><ele>1</ele><time>2021-01-07T11:52:14Z</time><cmt>3.0 kmh</cmt></trkpt>
<trkpt lat="51.697083" lon="03.804186"><ele>1</ele><time>2021-01-07T11:52:15Z</time><cmt>3.2 kmh</cmt></trkpt>
<trkpt lat="51.697083" lon="03.804200"><ele>1</ele><time>2021-01-07T11:52:16Z</time><cmt>3.5 kmh</cmt></trkpt>
<trkpt lat="51.697081" lon="03.804215"><ele>1</ele><time>2021-01-07T11:52:17Z</time><cmt>3.9 kmh</cmt></trkpt>
<trkpt lat="51.697078" lon="03.804231"><ele>1</ele><time>2021-01-07T11:52:18Z</time><cmt>3.4 kmh</cmt></trkpt>
<trkpt lat="51.697075" lon="03.804248"><ele>1</ele><time>2021-01-07T11:52:19Z</time><cmt>3.6 kmh</cmt></trkpt>
<trkpt lat="51.697071" lon="03.804267"><ele>2</ele><time>2021-01-07T11:52:20Z</time><cmt>5.0 kmh</cmt></trkpt>
<trkpt lat="51.697066" lon="03.804286"><ele>2</ele><time>2021-01-07T11:52:21Z</time><cmt>5.0 kmh</cmt></trkpt>
<trkpt lat="51.697061" lon="03.804303"><ele>2</ele><time>2021-01-07T11:52:22Z</time><cmt>5.0 kmh</cmt></trkpt>
<trkpt lat="51.697057" lon="03.804317"><ele>2</ele><time>2021-01-07T11:52:23Z</time><cmt>4.4 kmh</cmt></trkpt>
<trkpt lat="51.697052" lon="03.804330"><ele>2</ele><time>2021-01-07T11:52:24Z</time><cmt>3.2 kmh</cmt></trkpt>
<trkpt lat="51.697046" lon="03.804344"><ele>2</ele><time>2021-01-07T11:52:25Z</time><cmt>3.5 kmh</cmt></trkpt>
<trkpt lat="51.697038" lon="03.804361"><ele>2</ele><time>2021-01-07T11:52:26Z</time><cmt>5.0 kmh</cmt></trkpt>
<trkpt lat="51.697032" lon="03.804375"><ele>2</ele><time>2021-01-07T11:52:27Z</time><cmt>5.0 kmh</cmt></trkpt>
<trkpt lat="51.697028" lon="03.804388"><ele>2</ele><time>2021-01-07T11:52:28Z</time><cmt>4.2 kmh</cmt></trkpt>
<trkpt lat="51.697023" lon="03.804401"><ele>2</ele><time>2021-01-07T11:52:29Z</time><cmt>4.1 kmh</cmt></trkpt>
<trkpt lat="51.697018" lon="03.804416"><ele>2</ele><time>2021-01-07T11:52:30Z</time><cmt>4.3 kmh</cmt></trkpt>
<trkpt lat="51.697011" lon="03.804432"><ele>2</ele><time>2021-01-07T11:52:31Z</time><cmt>3.9 kmh</cmt></trkpt>
<trkpt lat="51.697006" lon="03.804447"><ele>2</ele><time>2021-01-07T11:52:32Z</time><cmt>3.9 kmh</cmt></trkpt>
<trkpt lat="51.697000" lon="03.804464"><ele>2</ele><time>2021-01-07T11:52:33Z</time><cmt>4.9 kmh</cmt></trkpt>
<trkpt lat="51.696994" lon="03.804481"><ele>2</ele><time>2021-01-07T11:52:34Z</time><cmt>5.0 kmh</cmt></trkpt>
<trkpt lat="51.696989" lon="03.804497"><ele>2</ele><time>2021-01-07T11:52:35Z</time><cmt>5.0 kmh</cmt></trkpt>
<trkpt lat="51.696983" lon="03.804512"><ele>2</ele><time>2021-01-07T11:52:36Z</time><cmt>4.7 kmh</cmt></trkpt>
<trkpt lat="51.696974" lon="03.804529"><ele>2</ele><time>2021-01-07T11:52:37Z</time><cmt>4.2 kmh</cmt></trkpt>
<trkpt lat="51.696968" lon="03.804545"><ele>2</ele><time>2021-01-07T11:52:38Z</time><cmt>4.5 kmh</cmt></trkpt>
<trkpt lat="51.696958" lon="03.804565"><ele>2</ele><time>2021-01-07T11:52:39Z</time><cmt>5.0 kmh</cmt></trkpt>
<trkpt lat="51.696951" lon="03.804581"><ele>2</ele><time>2021-01-07T11:52:40Z</time><cmt>5.0 kmh</cmt></trkpt>
<trkpt lat="51.696945" lon="03.804596"><ele>2</ele><time>2021-01-07T11:52:41Z</time><cmt>5.0 kmh</cmt></trkpt>
<trkpt lat="51.696939" lon="03.804613"><ele>2</ele><time>2021-01-07T11:52:42Z</time><cmt>4.9 kmh</cmt></trkpt>
<trkpt lat="51.696935" lon="03.804626"><ele>1</ele><time>2021-01-07T11:52:43Z</time><cmt>3.6 kmh</cmt></trkpt>
<trkpt lat="51.696932" lon="03.804639"><ele>1</ele><time>2021-01-07T11:52:44Z</time><cmt>3.1 kmh</cmt></trkpt>
<trkpt lat="51.696929" lon="03.804653"><ele>1</ele><time>2021-01-07T11:52:45Z</time><cmt>3.8 kmh</cmt></trkpt>
<trkpt lat="51.696926" lon="03.804666"><ele>1</ele><time>2021-01-07T11:52:46Z</time><cmt>3.8 kmh</cmt></trkpt>
<trkpt lat="51.696923" lon="03.804679"><ele>1</ele><time>2021-01-07T11:52:47Z</time><cmt>3.7 kmh</cmt></trkpt>
<trkpt lat="51.696921" lon="03.804690"><ele>1</ele><time>2021-01-07T11:52:48Z</time><cmt>3.4 kmh</cmt></trkpt>
<trkpt lat="51.696918" lon="03.804702"><ele>1</ele><time>2021-01-07T11:52:49Z</time><cmt>3.3 kmh</cmt></trkpt>
<trkpt lat="51.696912" lon="03.804717"><ele>1</ele><time>2021-01-07T11:52:50Z</time><cmt>3.3 kmh</cmt></trkpt>
<trkpt lat="51.696908" lon="03.804730"><ele>1</ele><time>2021-01-07T11:52:51Z</time><cmt>3.4 kmh</cmt></trkpt>
<trkpt lat="51.696905" lon="03.804741"><ele>1</ele><time>2021-01-07T11:52:52Z</time><cmt>3.6 kmh</cmt></trkpt>
<trkpt lat="51.696902" lon="03.804752"><ele>1</ele><time>2021-01-07T11:52:53Z</time><cmt>3.2 kmh</cmt></trkpt>
<trkpt lat="51.696899" lon="03.804764"><ele>1</ele><time>2021-01-07T11:52:54Z</time><cmt>3.5 kmh</cmt></trkpt>
<trkpt lat="51.696894" lon="03.804778"><ele>1</ele><time>2021-01-07T11:52:55Z</time><cmt>4.0 kmh</cmt></trkpt>
<trkpt lat="51.696890" lon="03.804793"><ele>1</ele><time>2021-01-07T11:52:56Z</time><cmt>3.5 kmh</cmt></trkpt>
<trkpt lat="51.696885" lon="03.804810"><ele>1</ele><time>2021-01-07T11:52:57Z</time><cmt>3.7 kmh</cmt></trkpt>
<trkpt lat="51.696880" lon="03.804826"><ele>1</ele><time>2021-01-07T11:52:58Z</time><cmt>4.9 kmh</cmt></trkpt>
<trkpt lat="51.696876" lon="03.804839"><ele>1</ele><time>2021-01-07T11:52:59Z</time><cmt>4.4 kmh</cmt></trkpt>
<trkpt lat="51.696872" lon="03.804850"><ele>2</ele><time>2021-01-07T11:53:00Z</time><cmt>3.6 kmh</cmt></trkpt>
<trkpt lat="51.696867" lon="03.804860"><ele>2</ele><time>2021-01-07T11:53:01Z</time><cmt>3.3 kmh</cmt></trkpt>
<trkpt lat="51.696863" lon="03.804872"><ele>2</ele><time>2021-01-07T11:53:02Z</time><cmt>2.8 kmh</cmt></trkpt>
<trkpt lat="51.696860" lon="03.804883"><ele>2</ele><time>2021-01-07T11:53:03Z</time><cmt>2.8 kmh</cmt></trkpt>
<trkpt lat="51.696854" lon="03.804894"><ele>2</ele><time>2021-01-07T11:53:04Z</time><cmt>3.5 kmh</cmt></trkpt>
<trkpt lat="51.696852" lon="03.804898"><ele>2</ele><time>2021-01-07T11:53:05Z</time><cmt>2.6 kmh</cmt></trkpt>
<trkpt lat="51.696851" lon="03.804900"><ele>2</ele><time>2021-01-07T11:53:06Z</time><cmt>1.0 kmh</cmt></trkpt>
<trkpt lat="51.696851" lon="03.804901"><ele>2</ele><time>2021-01-07T11:53:07Z</time><cmt>0.3 kmh</cmt></trkpt>
<trkpt lat="51.696851" lon="03.804900"><ele>2</ele><time>2021-01-07T11:53:09Z</time><cmt>0.0 kmh</cmt></trkpt>
<trkpt lat="51.696851" lon="03.804900"><ele>2</ele><time>2021-01-07T11:53:10Z</time><cmt>0.0 kmh</cmt></trkpt>
<trkpt lat="51.696851" lon="03.804900"><ele>2</ele><time>2021-01-07T11:53:11Z</time><cmt>0.0 kmh</cmt></trkpt>
<trkpt lat="51.696851" lon="03.804900"><ele>2</ele><time>2021-01-07T11:53:12Z</time><cmt>0.0 kmh</cmt></trkpt>
<trkpt lat="51.696851" lon="03.804900"><ele>2</ele><time>2021-01-07T11:53:13Z</time><cmt>0.0 kmh</cmt></trkpt>
<trkpt lat="51.696850" lon="03.804900"><ele>2</ele><time>2021-01-07T11:53:14Z</time><cmt>0.2 kmh</cmt></trkpt>
<trkpt lat="51.696849" lon="03.804901"><ele>2</ele><time>2021-01-07T11:53:15Z</time><cmt>0.4 kmh</cmt></trkpt>
<trkpt lat="51.696848" lon="03.804901"><ele>3</ele><time>2021-01-07T11:53:16Z</time><cmt>0.4 kmh</cmt></trkpt>
<trkpt lat="51.696847" lon="03.804902"><ele>3</ele><time>2021-01-07T11:53:17Z</time><cmt>0.4 kmh</cmt></trkpt>
<trkpt lat="51.696845" lon="03.804904"><ele>3</ele><time>2021-01-07T11:53:18Z</time><cmt>0.5 kmh</cmt></trkpt>
<trkpt lat="51.696844" lon="03.804905"><ele>3</ele><time>2021-01-07T11:53:19Z</time><cmt>0.5 kmh</cmt></trkpt>
<trkpt lat="51.696843" lon="03.804907"><ele>3</ele><time>2021-01-07T11:53:20Z</time><cmt>0.6 kmh</cmt></trkpt>
<trkpt lat="51.696842" lon="03.804908"><ele>3</ele><time>2021-01-07T11:53:21Z</time><cmt>0.7 kmh</cmt></trkpt>
<trkpt lat="51.696840" lon="03.804909"><ele>3</ele><time>2021-01-07T11:53:22Z</time><cmt>0.6 kmh</cmt></trkpt>
<trkpt lat="51.696839" lon="03.804910"><ele>3</ele><time>2021-01-07T11:53:23Z</time><cmt>0.5 kmh</cmt></trkpt>
<trkpt lat="51.696838" lon="03.804912"><ele>3</ele><time>2021-01-07T11:53:24Z</time><cmt>0.6 kmh</cmt></trkpt>
<trkpt lat="51.696836" lon="03.804914"><ele>3</ele><time>2021-01-07T11:53:25Z</time><cmt>0.7 kmh</cmt></trkpt>
<trkpt lat="51.696835" lon="03.804915"><ele>3</ele><time>2021-01-07T11:53:26Z</time><cmt>0.6 kmh</cmt></trkpt>
<trkpt lat="51.696834" lon="03.804916"><ele>3</ele><time>2021-01-07T11:53:27Z</time><cmt>0.5 kmh</cmt></trkpt>
<trkpt lat="51.696833" lon="03.804918"><ele>4</ele><time>2021-01-07T11:53:28Z</time><cmt>0.4 kmh</cmt></trkpt>
<trkpt lat="51.696832" lon="03.804919"><ele>4</ele><time>2021-01-07T11:53:29Z</time><cmt>0.4 kmh</cmt></trkpt>
<trkpt lat="51.696831" lon="03.804921"><ele>4</ele><time>2021-01-07T11:53:30Z</time><cmt>0.6 kmh</cmt></trkpt>
<trkpt lat="51.696830" lon="03.804922"><ele>4</ele><time>2021-01-07T11:53:31Z</time><cmt>0.7 kmh</cmt></trkpt>
<trkpt lat="51.696828" lon="03.804924"><ele>4</ele><time>2021-01-07T11:53:32Z</time><cmt>0.6 kmh</cmt></trkpt>
<trkpt lat="51.696827" lon="03.804925"><ele>4</ele><time>2021-01-07T11:53:33Z</time><cmt>0.6 kmh</cmt></trkpt>
<trkpt lat="51.696826" lon="03.804926"><ele>4</ele><time>2021-01-07T11:53:34Z</time><cmt>0.5 kmh</cmt></trkpt>
<trkpt lat="51.696825" lon="03.804927"><ele>4</ele><time>2021-01-07T11:53:35Z</time><cmt>0.4 kmh</cmt></trkpt>
<trkpt lat="51.696825" lon="03.804927"><ele>4</ele><time>2021-01-07T11:53:36Z</time><cmt>0.2 kmh</cmt></trkpt>
<trkpt lat="51.696825" lon="03.804927"><ele>4</ele><time>2021-01-07T11:53:37Z</time><cmt>0.0 kmh</cmt></trkpt>
<trkpt lat="51.696824" lon="03.804927"><ele>4</ele><time>2021-01-07T11:53:38Z</time><cmt>0.2 kmh</cmt></trkpt>
<trkpt lat="51.696824" lon="03.804928"><ele>4</ele><time>2021-01-07T11:53:39Z</time><cmt>0.2 kmh</cmt></trkpt>
<trkpt lat="51.696825" lon="03.804925"><ele>4</ele><time>2021-01-07T11:53:40Z</time><cmt>0.4 kmh</cmt></trkpt>
<trkpt lat="51.696826" lon="03.804924"><ele>4</ele><time>2021-01-07T11:53:41Z</time><cmt>0.4 kmh</cmt></trkpt>
<trkpt lat="51.696829" lon="03.804921"><ele>4</ele><time>2021-01-07T11:53:42Z</time><cmt>0.7 kmh</cmt></trkpt>
<trkpt lat="51.696835" lon="03.804917"><ele>4</ele><time>2021-01-07T11:53:43Z</time><cmt>1.4 kmh</cmt></trkpt>
<trkpt lat="51.696842" lon="03.804911"><ele>4</ele><time>2021-01-07T11:53:44Z</time><cmt>3.1 kmh</cmt></trkpt>
<trkpt lat="51.696850" lon="03.804904"><ele>4</ele><time>2021-01-07T11:53:45Z</time><cmt>3.6 kmh</cmt></trkpt>
<trkpt lat="51.696857" lon="03.804898"><ele>4</ele><time>2021-01-07T11:53:46Z</time><cmt>3.7 kmh</cmt></trkpt>
<trkpt lat="51.696863" lon="03.804893"><ele>4</ele><time>2021-01-07T11:53:47Z</time><cmt>2.6 kmh</cmt></trkpt>
<trkpt lat="51.696870" lon="03.804886"><ele>4</ele><time>2021-01-07T11:53:48Z</time><cmt>2.6 kmh</cmt></trkpt>
<trkpt lat="51.696879" lon="03.804880"><ele>4</ele><time>2021-01-07T11:53:49Z</time><cmt>3.8 kmh</cmt></trkpt>
<trkpt lat="51.696885" lon="03.804875"><ele>4</ele><time>2021-01-07T11:53:50Z</time><cmt>3.6 kmh</cmt></trkpt>
<trkpt lat="51.696893" lon="03.804869"><ele>4</ele><time>2021-01-07T11:53:51Z</time><cmt>3.4 kmh</cmt></trkpt>
<trkpt lat="51.696901" lon="03.804863"><ele>4</ele><time>2021-01-07T11:53:52Z</time><cmt>3.7 kmh</cmt></trkpt>
<trkpt lat="51.696909" lon="03.804856"><ele>4</ele><time>2021-01-07T11:53:53Z</time><cmt>3.1 kmh</cmt></trkpt>
<trkpt lat="51.696917" lon="03.804849"><ele>4</ele><time>2021-01-07T11:53:54Z</time><cmt>3.2 kmh</cmt></trkpt>
<trkpt lat="51.696925" lon="03.804842"><ele>3</ele><time>2021-01-07T11:53:55Z</time><cmt>3.9 kmh</cmt></trkpt>
<trkpt lat="51.696933" lon="03.804835"><ele>3</ele><time>2021-01-07T11:53:56Z</time><cmt>3.9 kmh</cmt></trkpt>
<trkpt lat="51.696940" lon="03.804829"><ele>3</ele><time>2021-01-07T11:53:57Z</time><cmt>3.7 kmh</cmt></trkpt>
<trkpt lat="51.696948" lon="03.804824"><ele>3</ele><time>2021-01-07T11:53:58Z</time><cmt>3.6 kmh</cmt></trkpt>
<trkpt lat="51.696956" lon="03.804819"><ele>3</ele><time>2021-01-07T11:53:59Z</time><cmt>2.9 kmh</cmt></trkpt>
<trkpt lat="51.696964" lon="03.804817"><ele>3</ele><time>2021-01-07T11:54:00Z</time><cmt>3.0 kmh</cmt></trkpt>
<trkpt lat="51.696972" lon="03.804815"><ele>3</ele><time>2021-01-07T11:54:01Z</time><cmt>3.4 kmh</cmt></trkpt>
<trkpt lat="51.696980" lon="03.804813"><ele>3</ele><time>2021-01-07T11:54:02Z</time><cmt>3.4 kmh</cmt></trkpt>
<trkpt lat="51.696988" lon="03.804810"><ele>2</ele><time>2021-01-07T11:54:03Z</time><cmt>3.6 kmh</cmt></trkpt>
<trkpt lat="51.696996" lon="03.804806"><ele>2</ele><time>2021-01-07T11:54:04Z</time><cmt>3.7 kmh</cmt></trkpt>
<trkpt lat="51.697005" lon="03.804799"><ele>2</ele><time>2021-01-07T11:54:05Z</time><cmt>4.0 kmh</cmt></trkpt>
<trkpt lat="51.697016" lon="03.804791"><ele>2</ele><time>2021-01-07T11:54:06Z</time><cmt>3.8 kmh</cmt></trkpt>
<trkpt lat="51.697026" lon="03.804782"><ele>2</ele><time>2021-01-07T11:54:07Z</time><cmt>4.1 kmh</cmt></trkpt>
<trkpt lat="51.697035" lon="03.804776"><ele>2</ele><time>2021-01-07T11:54:08Z</time><cmt>4.6 kmh</cmt></trkpt>
<trkpt lat="51.697045" lon="03.804770"><ele>2</ele><time>2021-01-07T11:54:09Z</time><cmt>4.3 kmh</cmt></trkpt>
<trkpt lat="51.697053" lon="03.804766"><ele>2</ele><time>2021-01-07T11:54:10Z</time><cmt>4.1 kmh</cmt></trkpt>
<trkpt lat="51.697060" lon="03.804761"><ele>2</ele><time>2021-01-07T11:54:11Z</time><cmt>3.6 kmh</cmt></trkpt>
<trkpt lat="51.697066" lon="03.804755"><ele>2</ele><time>2021-01-07T11:54:12Z</time><cmt>2.6 kmh</cmt></trkpt>
<trkpt lat="51.697072" lon="03.804749"><ele>2</ele><time>2021-01-07T11:54:13Z</time><cmt>2.3 kmh</cmt></trkpt>
<trkpt lat="51.697077" lon="03.804743"><ele>2</ele><time>2021-01-07T11:54:14Z</time><cmt>2.8 kmh</cmt></trkpt>
<trkpt lat="51.697083" lon="03.804738"><ele>1</ele><time>2021-01-07T11:54:15Z</time><cmt>2.8 kmh</cmt></trkpt>
<trkpt lat="51.697088" lon="03.804734"><ele>1</ele><time>2021-01-07T11:54:16Z</time><cmt>2.6 kmh</cmt></trkpt>
<trkpt lat="51.697094" lon="03.804729"><ele>1</ele><time>2021-01-07T11:54:17Z</time><cmt>2.6 kmh</cmt></trkpt>
<trkpt lat="51.697099" lon="03.804727"><ele>1</ele><time>2021-01-07T11:54:18Z</time><cmt>2.5 kmh</cmt></trkpt>
<trkpt lat="51.697104" lon="03.804727"><ele>1</ele><time>2021-01-07T11:54:19Z</time><cmt>1.9 kmh</cmt></trkpt>
<trkpt lat="51.697109" lon="03.804730"><ele>1</ele><time>2021-01-07T11:54:20Z</time><cmt>1.9 kmh</cmt></trkpt>
<trkpt lat="51.697112" lon="03.804736"><ele>1</ele><time>2021-01-07T11:54:21Z</time><cmt>2.1 kmh</cmt></trkpt>
<trkpt lat="51.697119" lon="03.804746"><ele>1</ele><time>2021-01-07T11:54:22Z</time><cmt>3.0 kmh</cmt></trkpt>
<trkpt lat="51.697131" lon="03.804760"><ele>1</ele><time>2021-01-07T11:54:23Z</time><cmt>5.0 kmh</cmt></trkpt>
<trkpt lat="51.697143" lon="03.804774"><ele>1</ele><time>2021-01-07T11:54:24Z</time><cmt>5.0 kmh</cmt></trkpt>
<trkpt lat="51.697149" lon="03.804785"><ele>2</ele><time>2021-01-07T11:54:25Z</time><cmt>4.1 kmh</cmt></trkpt>
<trkpt lat="51.697148" lon="03.804792"><ele>2</ele><time>2021-01-07T11:54:26Z</time><cmt>2.4 kmh</cmt></trkpt>
<trkpt lat="51.697148" lon="03.804795"><ele>2</ele><time>2021-01-07T11:54:27Z</time><cmt>1.4 kmh</cmt></trkpt>
<trkpt lat="51.697148" lon="03.804796"><ele>2</ele><time>2021-01-07T11:54:28Z</time><cmt>0.4 kmh</cmt></trkpt>
<trkpt lat="51.697149" lon="03.804796"><ele>2</ele><time>2021-01-07T11:54:29Z</time><cmt>0.0 kmh</cmt></trkpt>
<trkpt lat="51.697150" lon="03.804797"><ele>2</ele><time>2021-01-07T11:54:30Z</time><cmt>0.3 kmh</cmt></trkpt>
<trkpt lat="51.697148" lon="03.804804"><ele>2</ele><time>2021-01-07T11:54:31Z</time><cmt>1.3 kmh</cmt></trkpt>
<trkpt lat="51.697149" lon="03.804811"><ele>2</ele><time>2021-01-07T11:54:32Z</time><cmt>1.6 kmh</cmt></trkpt>
<trkpt lat="51.697152" lon="03.804815"><ele>2</ele><time>2021-01-07T11:54:33Z</time><cmt>1.4 kmh</cmt></trkpt>
<trkpt lat="51.697154" lon="03.804815"><ele>2</ele><time>2021-01-07T11:54:34Z</time><cmt>1.1 kmh</cmt></trkpt>
<trkpt lat="51.697156" lon="03.804812"><ele>2</ele><time>2021-01-07T11:54:35Z</time><cmt>1.0 kmh</cmt></trkpt>
<trkpt lat="51.697156" lon="03.804807"><ele>2</ele><time>2021-01-07T11:54:36Z</time><cmt>1.2 kmh</cmt></trkpt>
<trkpt lat="51.697157" lon="03.804803"><ele>2</ele><time>2021-01-07T11:54:37Z</time><cmt>1.2 kmh</cmt></trkpt>
<trkpt lat="51.697156" lon="03.804797"><ele>2</ele><time>2021-01-07T11:54:38Z</time><cmt>1.1 kmh</cmt></trkpt>
<trkpt lat="51.697154" lon="03.804793"><ele>2</ele><time>2021-01-07T11:54:39Z</time><cmt>1.1 kmh</cmt></trkpt>
<trkpt lat="51.697153" lon="03.804791"><ele>2</ele><time>2021-01-07T11:54:40Z</time><cmt>1.0 kmh</cmt></trkpt>
<trkpt lat="51.697153" lon="03.804794"><ele>2</ele><time>2021-01-07T11:54:41Z</time><cmt>0.7 kmh</cmt></trkpt>
<trkpt lat="51.697154" lon="03.804800"><ele>2</ele><time>2021-01-07T11:54:42Z</time><cmt>1.2 kmh</cmt></trkpt>
<trkpt lat="51.697155" lon="03.804806"><ele>2</ele><time>2021-01-07T11:54:43Z</time><cmt>1.6 kmh</cmt></trkpt>
<trkpt lat="51.697153" lon="03.804815"><ele>2</ele><time>2021-01-07T11:54:44Z</time><cmt>1.7 kmh</cmt></trkpt>
<trkpt lat="51.697151" lon="03.804829"><ele>2</ele><time>2021-01-07T11:54:45Z</time><cmt>2.5 kmh</cmt></trkpt>
<trkpt lat="51.697150" lon="03.804847"><ele>2</ele><time>2021-01-07T11:54:46Z</time><cmt>4.3 kmh</cmt></trkpt>
<trkpt lat="51.697151" lon="03.804863"><ele>2</ele><time>2021-01-07T11:54:47Z</time><cmt>4.6 kmh</cmt></trkpt>
<trkpt lat="51.697154" lon="03.804879"><ele>2</ele><time>2021-01-07T11:54:48Z</time><cmt>4.4 kmh</cmt></trkpt>
<trkpt lat="51.697158" lon="03.804894"><ele>2</ele><time>2021-01-07T11:54:49Z</time><cmt>4.4 kmh</cmt></trkpt>
<trkpt lat="51.697155" lon="03.804911"><ele>2</ele><time>2021-01-07T11:54:50Z</time><cmt>3.6 kmh</cmt></trkpt>
<trkpt lat="51.697152" lon="03.804927"><ele>2</ele><time>2021-01-07T11:54:51Z</time><cmt>3.7 kmh</cmt></trkpt>
<trkpt lat="51.697151" lon="03.804942"><ele>2</ele><time>2021-01-07T11:54:52Z</time><cmt>4.3 kmh</cmt></trkpt>
<trkpt lat="51.697149" lon="03.804957"><ele>2</ele><time>2021-01-07T11:54:53Z</time><cmt>4.0 kmh</cmt></trkpt>
<trkpt lat="51.697147" lon="03.804970"><ele>2</ele><time>2021-01-07T11:54:54Z</time><cmt>3.8 kmh</cmt></trkpt>
<trkpt lat="51.697144" lon="03.804985"><ele>2</ele><time>2021-01-07T11:54:55Z</time><cmt>4.0 kmh</cmt></trkpt>
<trkpt lat="51.697141" lon="03.805000"><ele>3</ele><time>2021-01-07T11:54:56Z</time><cmt>4.2 kmh</cmt></trkpt>
<trkpt lat="51.697139" lon="03.805015"><ele>3</ele><time>2021-01-07T11:54:57Z</time><cmt>3.3 kmh</cmt></trkpt>
<trkpt lat="51.697139" lon="03.805029"><ele>3</ele><time>2021-01-07T11:54:58Z</time><cmt>3.1 kmh</cmt></trkpt>
<trkpt lat="51.697143" lon="03.805044"><ele>3</ele><time>2021-01-07T11:54:59Z</time><cmt>4.0 kmh</cmt></trkpt>
<trkpt lat="51.697146" lon="03.805057"><ele>3</ele><time>2021-01-07T11:55:00Z</time><cmt>4.1 kmh</cmt></trkpt>
<trkpt lat="51.697149" lon="03.805070"><ele>3</ele><time>2021-01-07T11:55:01Z</time><cmt>3.8 kmh</cmt></trkpt>
<trkpt lat="51.697150" lon="03.805087"><ele>3</ele><time>2021-01-07T11:55:02Z</time><cmt>4.0 kmh</cmt></trkpt>
<trkpt lat="51.697155" lon="03.805103"><ele>4</ele><time>2021-01-07T11:55:03Z</time><cmt>3.7 kmh</cmt></trkpt>
<trkpt lat="51.697171" lon="03.805135"><ele>4</ele><time>2021-01-07T11:55:06Z</time><cmt>3.7 kmh</cmt></trkpt>
<trkpt lat="51.697183" lon="03.805174"><ele>5</ele><time>2021-01-07T11:55:09Z</time><cmt>3.9 kmh</cmt></trkpt>
<trkpt lat="51.697191" lon="03.805220"><ele>6</ele><time>2021-01-07T11:55:12Z</time><cmt>3.6 kmh</cmt></trkpt>
<trkpt lat="51.697204" lon="03.805266"><ele>7</ele><time>2021-01-07T11:55:15Z</time><cmt>4.5 kmh</cmt></trkpt>
<trkpt lat="51.697214" lon="03.805309"><ele>8</ele><time>2021-01-07T11:55:18Z</time><cmt>3.5 kmh</cmt></trkpt>
<trkpt lat="51.697216" lon="03.805352"><ele>8</ele><time>2021-01-07T11:55:20Z</time><cmt>5.0 kmh</cmt></trkpt>
<trkpt lat="51.697216" lon="03.805369"><ele>8</ele><time>2021-01-07T11:55:21Z</time><cmt>5.0 kmh</cmt></trkpt>
<trkpt lat="51.697221" lon="03.805386"><ele>8</ele><time>2021-01-07T11:55:22Z</time><cmt>3.8 kmh</cmt></trkpt>
<trkpt lat="51.697221" lon="03.805407"><ele>9</ele><time>2021-01-07T11:55:23Z</time><cmt>4.3 kmh</cmt></trkpt>
<trkpt lat="51.697217" lon="03.805431"><ele>8</ele><time>2021-01-07T11:55:24Z</time><cmt>5.0 kmh</cmt></trkpt>
<trkpt lat="51.697215" lon="03.805456"><ele>8</ele><time>2021-01-07T11:55:25Z</time><cmt>5.0 kmh</cmt></trkpt>
<trkpt lat="51.697215" lon="03.805479"><ele>8</ele><time>2021-01-07T11:55:26Z</time><cmt>5.0 kmh</cmt></trkpt>
<trkpt lat="51.697213" lon="03.805503"><ele>8</ele><time>2021-01-07T11:55:27Z</time><cmt>5.0 kmh</cmt></trkpt>
<trkpt lat="51.697211" lon="03.805526"><ele>8</ele><time>2021-01-07T11:55:28Z</time><cmt>5.0 kmh</cmt></trkpt>
<trkpt lat="51.697211" lon="03.805547"><ele>7</ele><time>2021-01-07T11:55:29Z</time><cmt>4.8 kmh</cmt></trkpt>
<trkpt lat="51.697211" lon="03.805565"><ele>7</ele><time>2021-01-07T11:55:30Z</time><cmt>4.2 kmh</cmt></trkpt>
<trkpt lat="51.697210" lon="03.805619"><ele>6</ele><time>2021-01-07T11:55:33Z</time><cmt>4.8 kmh</cmt></trkpt>
<trkpt lat="51.697208" lon="03.805661"><ele>6</ele><time>2021-01-07T11:55:35Z</time><cmt>5.0 kmh</cmt></trkpt>
<trkpt lat="51.697213" lon="03.805712"><ele>5</ele><time>2021-01-07T11:55:38Z</time><cmt>4.7 kmh</cmt></trkpt>
<trkpt lat="51.697215" lon="03.805768"><ele>4</ele><time>2021-01-07T11:55:41Z</time><cmt>4.2 kmh</cmt></trkpt>
<trkpt lat="51.697221" lon="03.805819"><ele>4</ele><time>2021-01-07T11:55:44Z</time><cmt>4.7 kmh</cmt></trkpt>
<trkpt lat="51.697238" lon="03.805857"><ele>4</ele><time>2021-01-07T11:55:46Z</time><cmt>5.0 kmh</cmt></trkpt>
<trkpt lat="51.697247" lon="03.805890"><ele>4</ele><time>2021-01-07T11:55:48Z</time><cmt>3.9 kmh</cmt></trkpt>
<trkpt lat="51.697262" lon="03.805945"><ele>4</ele><time>2021-01-07T11:55:51Z</time><cmt>5.0 kmh</cmt></trkpt>
<trkpt lat="51.697261" lon="03.805965"><ele>4</ele><time>2021-01-07T11:55:52Z</time><cmt>5.0 kmh</cmt></trkpt>
<trkpt lat="51.697262" lon="03.805984"><ele>4</ele><time>2021-01-07T11:55:53Z</time><cmt>5.0 kmh</cmt></trkpt>
<trkpt lat="51.697269" lon="03.806003"><ele>4</ele><time>2021-01-07T11:55:54Z</time><cmt>4.4 kmh</cmt></trkpt>
<trkpt lat="51.697274" lon="03.806021"><ele>4</ele><time>2021-01-07T11:55:55Z</time><cmt>4.4 kmh</cmt></trkpt>
<trkpt lat="51.697276" lon="03.806038"><ele>4</ele><time>2021-01-07T11:55:56Z</time><cmt>5.0 kmh</cmt></trkpt>
<trkpt lat="51.697277" lon="03.806057"><ele>4</ele><time>2021-01-07T11:55:57Z</time><cmt>4.9 kmh</cmt></trkpt>
<trkpt lat="51.697279" lon="03.806075"><ele>4</ele><time>2021-01-07T11:55:58Z</time><cmt>4.9 kmh</cmt></trkpt>
<trkpt lat="51.697282" lon="03.806090"><ele>4</ele><time>2021-01-07T11:55:59Z</time><cmt>4.6 kmh</cmt></trkpt>
<trkpt lat="51.697287" lon="03.806129"><ele>4</ele><time>2021-01-07T11:56:02Z</time><cmt>3.0 kmh</cmt></trkpt>
<trkpt lat="51.697291" lon="03.806184"><ele>4</ele><time>2021-01-07T11:56:05Z</time><cmt>5.0 kmh</cmt></trkpt>
<trkpt lat="51.697303" lon="03.806214"><ele>4</ele><time>2021-01-07T11:56:06Z</time><cmt>5.0 kmh</cmt></trkpt>
<trkpt lat="51.697310" lon="03.806231"><ele>4</ele><time>2021-01-07T11:56:07Z</time><cmt>5.0 kmh</cmt></trkpt>
<trkpt lat="51.697310" lon="03.806253"><ele>4</ele><time>2021-01-07T11:56:08Z</time><cmt>4.5 kmh</cmt></trkpt>
<trkpt lat="51.697312" lon="03.806273"><ele>4</ele><time>2021-01-07T11:56:09Z</time><cmt>5.0 kmh</cmt></trkpt>
<trkpt lat="51.697316" lon="03.806291"><ele>5</ele><time>2021-01-07T11:56:10Z</time><cmt>5.0 kmh</cmt></trkpt>
<trkpt lat="51.697318" lon="03.806310"><ele>5</ele><time>2021-01-07T11:56:11Z</time><cmt>5.0 kmh</cmt></trkpt>
<trkpt lat="51.697319" lon="03.806329"><ele>5</ele><time>2021-01-07T11:56:12Z</time><cmt>5.0 kmh</cmt></trkpt>
<trkpt lat="51.697318" lon="03.806351"><ele>5</ele><time>2021-01-07T11:56:13Z</time><cmt>4.4 kmh</cmt></trkpt>
<trkpt lat="51.697318" lon="03.806371"><ele>5</ele><time>2021-01-07T11:56:14Z</time><cmt>4.6 kmh</cmt></trkpt>
<trkpt lat="51.697320" lon="03.806390"><ele>5</ele><time>2021-01-07T11:56:15Z</time><cmt>5.0 kmh</cmt></trkpt>
<trkpt lat="51.697321" lon="03.806410"><ele>5</ele><time>2021-01-07T11:56:16Z</time><cmt>5.0 kmh</cmt></trkpt>
<trkpt lat="51.697323" lon="03.806427"><ele>5</ele><time>2021-01-07T11:56:17Z</time><cmt>5.0 kmh</cmt></trkpt>
<trkpt lat="51.697325" lon="03.806480"><ele>5</ele><time>2021-01-07T11:56:20Z</time><cmt>4.1 kmh</cmt></trkpt>
<trkpt lat="51.697322" lon="03.806529"><ele>5</ele><time>2021-01-07T11:56:22Z</time><cmt>5.0 kmh</cmt></trkpt>
<trkpt lat="51.697320" lon="03.806576"><ele>5</ele><time>2021-01-07T11:56:24Z</time><cmt>5.0 kmh</cmt></trkpt>
<trkpt lat="51.697317" lon="03.806621"><ele>5</ele><time>2021-01-07T11:56:26Z</time><cmt>5.0 kmh</cmt></trkpt>
<trkpt lat="51.697321" lon="03.806678"><ele>5</ele><time>2021-01-07T11:56:29Z</time><cmt>5.0 kmh</cmt></trkpt>
<trkpt lat="51.697329" lon="03.806725"><ele>5</ele><time>2021-01-07T11:56:32Z</time><cmt>3.7 kmh</cmt></trkpt>
<trkpt lat="51.697334" lon="03.806777"><ele>4</ele><time>2021-01-07T11:56:35Z</time><cmt>4.7 kmh</cmt></trkpt>
<trkpt lat="51.697341" lon="03.806843"><ele>4</ele><time>2021-01-07T11:56:38Z</time><cmt>5.0 kmh</cmt></trkpt>
<trkpt lat="51.697339" lon="03.806864"><ele>4</ele><time>2021-01-07T11:56:39Z</time><cmt>5.0 kmh</cmt></trkpt>
<trkpt lat="51.697337" lon="03.806888"><ele>4</ele><time>2021-01-07T11:56:40Z</time><cmt>5.0 kmh</cmt></trkpt>
<trkpt lat="51.697335" lon="03.806911"><ele>4</ele><time>2021-01-07T11:56:41Z</time><cmt>5.0 kmh</cmt></trkpt>
<trkpt lat="51.697337" lon="03.806931"><ele>4</ele><time>2021-01-07T11:56:42Z</time><cmt>5.0 kmh</cmt></trkpt>
<trkpt lat="51.697339" lon="03.806951"><ele>4</ele><time>2021-01-07T11:56:43Z</time><cmt>5.0 kmh</cmt></trkpt>
<trkpt lat="51.697341" lon="03.806972"><ele>4</ele><time>2021-01-07T11:56:44Z</time><cmt>5.0 kmh</cmt></trkpt>
<trkpt lat="51.697343" lon="03.806992"><ele>4</ele><time>2021-01-07T11:56:45Z</time><cmt>4.4 kmh</cmt></trkpt>
<trkpt lat="51.697343" lon="03.807013"><ele>4</ele><time>2021-01-07T11:56:46Z</time><cmt>4.5 kmh</cmt></trkpt>
<trkpt lat="51.697343" lon="03.807034"><ele>3</ele><time>2021-01-07T11:56:47Z</time><cmt>5.0 kmh</cmt></trkpt>
<trkpt lat="51.697344" lon="03.807054"><ele>3</ele><time>2021-01-07T11:56:48Z</time><cmt>5.0 kmh</cmt></trkpt>
<trkpt lat="51.697345" lon="03.807073"><ele>3</ele><time>2021-01-07T11:56:49Z</time><cmt>5.0 kmh</cmt></trkpt>
<trkpt lat="51.697346" lon="03.807094"><ele>3</ele><time>2021-01-07T11:56:50Z</time><cmt>5.0 kmh</cmt></trkpt>
<trkpt lat="51.697347" lon="03.807113"><ele>3</ele><time>2021-01-07T11:56:51Z</time><cmt>4.3 kmh</cmt></trkpt>
<trkpt lat="51.697350" lon="03.807131"><ele>3</ele><time>2021-01-07T11:56:52Z</time><cmt>4.1 kmh</cmt></trkpt>
<trkpt lat="51.697354" lon="03.807147"><ele>3</ele><time>2021-01-07T11:56:53Z</time><cmt>4.7 kmh</cmt></trkpt>
<trkpt lat="51.697355" lon="03.807165"><ele>3</ele><time>2021-01-07T11:56:54Z</time><cmt>4.7 kmh</cmt></trkpt>
<trkpt lat="51.697356" lon="03.807183"><ele>3</ele><time>2021-01-07T11:56:55Z</time><cmt>4.9 kmh</cmt></trkpt>
<trkpt lat="51.697359" lon="03.807200"><ele>3</ele><time>2021-01-07T11:56:56Z</time><cmt>4.8 kmh</cmt></trkpt>
<trkpt lat="51.697362" lon="03.807216"><ele>3</ele><time>2021-01-07T11:56:57Z</time><cmt>3.7 kmh</cmt></trkpt>
<trkpt lat="51.697365" lon="03.807235"><ele>2</ele><time>2021-01-07T11:56:58Z</time><cmt>3.9 kmh</cmt></trkpt>
<trkpt lat="51.697367" lon="03.807255"><ele>2</ele><time>2021-01-07T11:56:59Z</time><cmt>5.0 kmh</cmt></trkpt>
<trkpt lat="51.697368" lon="03.807273"><ele>2</ele><time>2021-01-07T11:57:00Z</time><cmt>5.0 kmh</cmt></trkpt>
<trkpt lat="51.697371" lon="03.807290"><ele>2</ele><time>2021-01-07T11:57:01Z</time><cmt>4.9 kmh</cmt></trkpt>
<trkpt lat="51.697374" lon="03.807306"><ele>2</ele><time>2021-01-07T11:57:02Z</time><cmt>4.6 kmh</cmt></trkpt>
<trkpt lat="51.697376" lon="03.807322"><ele>2</ele><time>2021-01-07T11:57:03Z</time><cmt>4.4 kmh</cmt></trkpt>
<trkpt lat="51.697378" lon="03.807341"><ele>2</ele><time>2021-01-07T11:57:04Z</time><cmt>3.8 kmh</cmt></trkpt>
<trkpt lat="51.697381" lon="03.807360"><ele>2</ele><time>2021-01-07T11:57:05Z</time><cmt>4.1 kmh</cmt></trkpt>
<trkpt lat="51.697382" lon="03.807380"><ele>2</ele><time>2021-01-07T11:57:06Z</time><cmt>5.0 kmh</cmt></trkpt>
<trkpt lat="51.697383" lon="03.807400"><ele>2</ele><time>2021-01-07T11:57:07Z</time><cmt>5.0 kmh</cmt></trkpt>
<trkpt lat="51.697384" lon="03.807420"><ele>2</ele><time>2021-01-07T11:57:08Z</time><cmt>5.0 kmh</cmt></trkpt>
<trkpt lat="51.697384" lon="03.807441"><ele>2</ele><time>2021-01-07T11:57:09Z</time><cmt>5.0 kmh</cmt></trkpt>
<trkpt lat="51.697384" lon="03.807461"><ele>2</ele><time>2021-01-07T11:57:10Z</time><cmt>4.4 kmh</cmt></trkpt>
<trkpt lat="51.697384" lon="03.807481"><ele>2</ele><time>2021-01-07T11:57:11Z</time><cmt>4.3 kmh</cmt></trkpt>
<trkpt lat="51.697386" lon="03.807501"><ele>2</ele><time>2021-01-07T11:57:12Z</time><cmt>5.0 kmh</cmt></trkpt>
<trkpt lat="51.697388" lon="03.807520"><ele>2</ele><time>2021-01-07T11:57:13Z</time><cmt>5.0 kmh</cmt></trkpt>
<trkpt lat="51.697393" lon="03.807540"><ele>2</ele><time>2021-01-07T11:57:14Z</time><cmt>5.1 kmh</cmt></trkpt>
<trkpt lat="51.697399" lon="03.807563"><ele>2</ele><time>2021-01-07T11:57:15Z</time><cmt>5.1 kmh</cmt></trkpt>
<trkpt lat="51.697405" lon="03.807584"><ele>2</ele><time>2021-01-07T11:57:16Z</time><cmt>5.0 kmh</cmt></trkpt>
<trkpt lat="51.697413" lon="03.807602"><ele>2</ele><time>2021-01-07T11:57:17Z</time><cmt>4.9 kmh</cmt></trkpt>
<trkpt lat="51.697414" lon="03.807622"><ele>3</ele><time>2021-01-07T11:57:18Z</time><cmt>5.0 kmh</cmt></trkpt>
<trkpt lat="51.697414" lon="03.807642"><ele>3</ele><time>2021-01-07T11:57:19Z</time><cmt>5.0 kmh</cmt></trkpt>
<trkpt lat="51.697411" lon="03.807665"><ele>3</ele><time>2021-01-07T11:57:20Z</time><cmt>5.0 kmh</cmt></trkpt>
<trkpt lat="51.697413" lon="03.807686"><ele>3</ele><time>2021-01-07T11:57:21Z</time><cmt>5.0 kmh</cmt></trkpt>
<trkpt lat="51.697416" lon="03.807705"><ele>4</ele><time>2021-01-07T11:57:22Z</time><cmt>5.0 kmh</cmt></trkpt>
<trkpt lat="51.697419" lon="03.807724"><ele>4</ele><time>2021-01-07T11:57:23Z</time><cmt>4.1 kmh</cmt></trkpt>
<trkpt lat="51.697421" lon="03.807742"><ele>4</ele><time>2021-01-07T11:57:24Z</time><cmt>4.0 kmh</cmt></trkpt>
<trkpt lat="51.697423" lon="03.807760"><ele>4</ele><time>2021-01-07T11:57:25Z</time><cmt>4.9 kmh</cmt></trkpt>
<trkpt lat="51.697425" lon="03.807777"><ele>5</ele><time>2021-01-07T11:57:26Z</time><cmt>4.9 kmh</cmt></trkpt>
<trkpt lat="51.697429" lon="03.807793"><ele>5</ele><time>2021-01-07T11:57:27Z</time><cmt>4.7 kmh</cmt></trkpt>
<trkpt lat="51.697430" lon="03.807809"><ele>5</ele><time>2021-01-07T11:57:28Z</time><cmt>4.4 kmh</cmt></trkpt>
<trkpt lat="51.697431" lon="03.807826"><ele>5</ele><time>2021-01-07T11:57:29Z</time><cmt>3.5 kmh</cmt></trkpt>
<trkpt lat="51.697432" lon="03.807843"><ele>6</ele><time>2021-01-07T11:57:30Z</time><cmt>3.6 kmh</cmt></trkpt>
<trkpt lat="51.697433" lon="03.807861"><ele>6</ele><time>2021-01-07T11:57:31Z</time><cmt>4.8 kmh</cmt></trkpt>
<trkpt lat="51.697433" lon="03.807881"><ele>6</ele><time>2021-01-07T11:57:32Z</time><cmt>5.0 kmh</cmt></trkpt>
<trkpt lat="51.697432" lon="03.807900"><ele>7</ele><time>2021-01-07T11:57:33Z</time><cmt>5.0 kmh</cmt></trkpt>
<trkpt lat="51.697432" lon="03.807918"><ele>7</ele><time>2021-01-07T11:57:34Z</time><cmt>5.0 kmh</cmt></trkpt>
<trkpt lat="51.697432" lon="03.807937"><ele>7</ele><time>2021-01-07T11:57:35Z</time><cmt>4.9 kmh</cmt></trkpt>
<trkpt lat="51.697431" lon="03.807956"><ele>7</ele><time>2021-01-07T11:57:36Z</time><cmt>4.1 kmh</cmt></trkpt>
<trkpt lat="51.697430" lon="03.807974"><ele>8</ele><time>2021-01-07T11:57:37Z</time><cmt>4.0 kmh</cmt></trkpt>
<trkpt lat="51.697431" lon="03.807991"><ele>8</ele><time>2021-01-07T11:57:38Z</time><cmt>4.7 kmh</cmt></trkpt>
<trkpt lat="51.697432" lon="03.808007"><ele>8</ele><time>2021-01-07T11:57:39Z</time><cmt>4.4 kmh</cmt></trkpt>
<trkpt lat="51.697435" lon="03.808026"><ele>8</ele><time>2021-01-07T11:57:40Z</time><cmt>4.7 kmh</cmt></trkpt>
<trkpt lat="51.697436" lon="03.808044"><ele>9</ele><time>2021-01-07T11:57:41Z</time><cmt>5.0 kmh</cmt></trkpt>
<trkpt lat="51.697436" lon="03.808061"><ele>9</ele><time>2021-01-07T11:57:42Z</time><cmt>3.8 kmh</cmt></trkpt>
<trkpt lat="51.697435" lon="03.808079"><ele>9</ele><time>2021-01-07T11:57:43Z</time><cmt>3.7 kmh</cmt></trkpt>
<trkpt lat="51.697434" lon="03.808097"><ele>10</ele><time>2021-01-07T11:57:44Z</time><cmt>4.8 kmh</cmt></trkpt>
<trkpt lat="51.697434" lon="03.808115"><ele>10</ele><time>2021-01-07T11:57:45Z</time><cmt>4.8 kmh</cmt></trkpt>
<trkpt lat="51.697427" lon="03.808143"><ele>10</ele><time>2021-01-07T11:57:46Z</time><cmt>5.0 kmh</cmt></trkpt>
<trkpt lat="51.697421" lon="03.808169"><ele>10</ele><time>2021-01-07T11:57:47Z</time><cmt>5.0 kmh</cmt></trkpt>
<trkpt lat="51.697417" lon="03.808192"><ele>10</ele><time>2021-01-07T11:57:48Z</time><cmt>5.0 kmh</cmt></trkpt>
<trkpt lat="51.697414" lon="03.808213"><ele>10</ele><time>2021-01-07T11:57:49Z</time><cmt>4.8 kmh</cmt></trkpt>
<trkpt lat="51.697413" lon="03.808232"><ele>10</ele><time>2021-01-07T11:57:50Z</time><cmt>5.0 kmh</cmt></trkpt>
<trkpt lat="51.697411" lon="03.808249"><ele>10</ele><time>2021-01-07T11:57:51Z</time><cmt>4.9 kmh</cmt></trkpt>
<trkpt lat="51.697408" lon="03.808278"><ele>10</ele><time>2021-01-07T11:57:52Z</time><cmt>5.0 kmh</cmt></trkpt>
<trkpt lat="51.697407" lon="03.808303"><ele>10</ele><time>2021-01-07T11:57:53Z</time><cmt>5.0 kmh</cmt></trkpt>
<trkpt lat="51.697405" lon="03.808324"><ele>10</ele><time>2021-01-07T11:57:54Z</time><cmt>5.0 kmh</cmt></trkpt>
<trkpt lat="51.697406" lon="03.808341"><ele>10</ele><time>2021-01-07T11:57:55Z</time><cmt>4.1 kmh</cmt></trkpt>
<trkpt lat="51.697401" lon="03.808364"><ele>10</ele><time>2021-01-07T11:57:56Z</time><cmt>4.4 kmh</cmt></trkpt>
<trkpt lat="51.697401" lon="03.808382"><ele>10</ele><time>2021-01-07T11:57:57Z</time><cmt>5.0 kmh</cmt></trkpt>
<trkpt lat="51.697394" lon="03.808406"><ele>10</ele><time>2021-01-07T11:57:58Z</time><cmt>5.0 kmh</cmt></trkpt>
<trkpt lat="51.697391" lon="03.808429"><ele>10</ele><time>2021-01-07T11:57:59Z</time><cmt>5.0 kmh</cmt></trkpt>
<trkpt lat="51.697389" lon="03.808449"><ele>10</ele><time>2021-01-07T11:58:00Z</time><cmt>5.0 kmh</cmt></trkpt>
<trkpt lat="51.697389" lon="03.808467"><ele>10</ele><time>2021-01-07T11:58:01Z</time><cmt>4.2 kmh</cmt></trkpt>
<trkpt lat="51.697390" lon="03.808486"><ele>9</ele><time>2021-01-07T11:58:02Z</time><cmt>4.0 kmh</cmt></trkpt>
<trkpt lat="51.697390" lon="03.808505"><ele>9</ele><time>2021-01-07T11:58:03Z</time><cmt>5.0 kmh</cmt></trkpt>
<trkpt lat="51.697389" lon="03.808524"><ele>9</ele><time>2021-01-07T11:58:04Z</time><cmt>5.0 kmh</cmt></trkpt>
<trkpt lat="51.697389" lon="03.808543"><ele>9</ele><time>2021-01-07T11:58:05Z</time><cmt>5.0 kmh</cmt></trkpt>
<trkpt lat="51.697387" lon="03.808563"><ele>9</ele><time>2021-01-07T11:58:06Z</time><cmt>5.0 kmh</cmt></trkpt>
<trkpt lat="51.697386" lon="03.808581"><ele>9</ele><time>2021-01-07T11:58:07Z</time><cmt>4.1 kmh</cmt></trkpt>
<trkpt lat="51.697384" lon="03.808599"><ele>9</ele><time>2021-01-07T11:58:08Z</time><cmt>3.9 kmh</cmt></trkpt>
<trkpt lat="51.697384" lon="03.808616"><ele>9</ele><time>2021-01-07T11:58:09Z</time><cmt>4.7 kmh</cmt></trkpt>
<trkpt lat="51.697384" lon="03.808633"><ele>9</ele><time>2021-01-07T11:58:10Z</time><cmt>4.5 kmh</cmt></trkpt>
<trkpt lat="51.697386" lon="03.808645"><ele>9</ele><time>2021-01-07T11:58:11Z</time><cmt>3.9 kmh</cmt></trkpt>
<trkpt lat="51.697386" lon="03.808660"><ele>9</ele><time>2021-01-07T11:58:12Z</time><cmt>3.7 kmh</cmt></trkpt>
<trkpt lat="51.697385" lon="03.808678"><ele>9</ele><time>2021-01-07T11:58:13Z</time><cmt>3.6 kmh</cmt></trkpt>
<trkpt lat="51.697384" lon="03.808697"><ele>10</ele><time>2021-01-07T11:58:14Z</time><cmt>4.0 kmh</cmt></trkpt>
<trkpt lat="51.697382" lon="03.808717"><ele>10</ele><time>2021-01-07T11:58:15Z</time><cmt>5.0 kmh</cmt></trkpt>
<trkpt lat="51.697382" lon="03.808734"><ele>10</ele><time>2021-01-07T11:58:16Z</time><cmt>5.0 kmh</cmt></trkpt>
<trkpt lat="51.697381" lon="03.808752"><ele>10</ele><time>2021-01-07T11:58:17Z</time><cmt>4.7 kmh</cmt></trkpt>
<trkpt lat="51.697380" lon="03.808771"><ele>10</ele><time>2021-01-07T11:58:18Z</time><cmt>4.9 kmh</cmt></trkpt>
<trkpt lat="51.697380" lon="03.808789"><ele>10</ele><time>2021-01-07T11:58:19Z</time><cmt>4.9 kmh</cmt></trkpt>
<trkpt lat="51.697378" lon="03.808808"><ele>10</ele><time>2021-01-07T11:58:20Z</time><cmt>4.0 kmh</cmt></trkpt>
<trkpt lat="51.697377" lon="03.808826"><ele>10</ele><time>2021-01-07T11:58:21Z</time><cmt>4.1 kmh</cmt></trkpt>
<trkpt lat="51.697376" lon="03.808844"><ele>10</ele><time>2021-01-07T11:58:22Z</time><cmt>4.8 kmh</cmt></trkpt>
<trkpt lat="51.697376" lon="03.808862"><ele>10</ele><time>2021-01-07T11:58:23Z</time><cmt>4.8 kmh</cmt></trkpt>
<trkpt lat="51.697377" lon="03.808881"><ele>11</ele><time>2021-01-07T11:58:24Z</time><cmt>4.9 kmh</cmt></trkpt>
<trkpt lat="51.697377" lon="03.808899"><ele>11</ele><time>2021-01-07T11:58:25Z</time><cmt>5.0 kmh</cmt></trkpt>
<trkpt lat="51.697379" lon="03.808918"><ele>11</ele><time>2021-01-07T11:58:26Z</time><cmt>4.1 kmh</cmt></trkpt>
<trkpt lat="51.697380" lon="03.808935"><ele>11</ele><time>2021-01-07T11:58:27Z</time><cmt>3.9 kmh</cmt></trkpt>
<trkpt lat="51.697381" lon="03.808953"><ele>11</ele><time>2021-01-07T11:58:28Z</time><cmt>4.7 kmh</cmt></trkpt>
<trkpt lat="51.697386" lon="03.808972"><ele>11</ele><time>2021-01-07T11:58:29Z</time><cmt>5.0 kmh</cmt></trkpt>
<trkpt lat="51.697390" lon="03.808991"><ele>11</ele><time>2021-01-07T11:58:30Z</time><cmt>5.0 kmh</cmt></trkpt>
<trkpt lat="51.697390" lon="03.809011"><ele>12</ele><time>2021-01-07T11:58:31Z</time><cmt>5.0 kmh</cmt></trkpt>
<trkpt lat="51.697390" lon="03.809032"><ele>12</ele><time>2021-01-07T11:58:32Z</time><cmt>4.4 kmh</cmt></trkpt>
<trkpt lat="51.697389" lon="03.809052"><ele>12</ele><time>2021-01-07T11:58:33Z</time><cmt>4.3 kmh</cmt></trkpt>
<trkpt lat="51.697394" lon="03.809065"><ele>12</ele><time>2021-01-07T11:58:34Z</time><cmt>4.7 kmh</cmt></trkpt>
<trkpt lat="51.697395" lon="03.809084"><ele>12</ele><time>2021-01-07T11:58:35Z</time><cmt>4.5 kmh</cmt></trkpt>
<trkpt lat="51.697395" lon="03.809102"><ele>12</ele><time>2021-01-07T11:58:36Z</time><cmt>4.9 kmh</cmt></trkpt>
<trkpt lat="51.697395" lon="03.809121"><ele>12</ele><time>2021-01-07T11:58:37Z</time><cmt>5.0 kmh</cmt></trkpt>
<trkpt lat="51.697395" lon="03.809133"><ele>12</ele><time>2021-01-07T11:58:38Z</time><cmt>4.0 kmh</cmt></trkpt>
<trkpt lat="51.697396" lon="03.809144"><ele>12</ele><time>2021-01-07T11:58:39Z</time><cmt>2.5 kmh</cmt></trkpt>
<trkpt lat="51.697397" lon="03.809151"><ele>12</ele><time>2021-01-07T11:58:40Z</time><cmt>2.0 kmh</cmt></trkpt>
<trkpt lat="51.697395" lon="03.809156"><ele>12</ele><time>2021-01-07T11:58:41Z</time><cmt>1.8 kmh</cmt></trkpt>
<trkpt lat="51.697394" lon="03.809161"><ele>12</ele><time>2021-01-07T11:58:42Z</time><cmt>1.4 kmh</cmt></trkpt>
<trkpt lat="51.697393" lon="03.809166"><ele>12</ele><time>2021-01-07T11:58:43Z</time><cmt>1.3 kmh</cmt></trkpt>
<trkpt lat="51.697390" lon="03.809173"><ele>12</ele><time>2021-01-07T11:58:44Z</time><cmt>1.8 kmh</cmt></trkpt>
<trkpt lat="51.697391" lon="03.809182"><ele>12</ele><time>2021-01-07T11:58:45Z</time><cmt>1.8 kmh</cmt></trkpt>
<trkpt lat="51.697391" lon="03.809196"><ele>12</ele><time>2021-01-07T11:58:46Z</time><cmt>2.4 kmh</cmt></trkpt>
<trkpt lat="51.697394" lon="03.809207"><ele>12</ele><time>2021-01-07T11:58:47Z</time><cmt>3.4 kmh</cmt></trkpt>
<trkpt lat="51.697396" lon="03.809222"><ele>12</ele><time>2021-01-07T11:58:48Z</time><cmt>3.7 kmh</cmt></trkpt>
<trkpt lat="51.697397" lon="03.809240"><ele>12</ele><time>2021-01-07T11:58:49Z</time><cmt>4.6 kmh</cmt></trkpt>
<trkpt lat="51.697399" lon="03.809257"><ele>12</ele><time>2021-01-07T11:58:50Z</time><cmt>4.8 kmh</cmt></trkpt>
<trkpt lat="51.697402" lon="03.809275"><ele>12</ele><time>2021-01-07T11:58:51Z</time><cmt>4.7 kmh</cmt></trkpt>
<trkpt lat="51.697403" lon="03.809292"><ele>12</ele><time>2021-01-07T11:58:52Z</time><cmt>3.8 kmh</cmt></trkpt>
<trkpt lat="51.697405" lon="03.809308"><ele>12</ele><time>2021-01-07T11:58:53Z</time><cmt>3.6 kmh</cmt></trkpt>
<trkpt lat="51.697406" lon="03.809327"><ele>12</ele><time>2021-01-07T11:58:54Z</time><cmt>4.8 kmh</cmt></trkpt>
<trkpt lat="51.697407" lon="03.809345"><ele>12</ele><time>2021-01-07T11:58:55Z</time><cmt>5.0 kmh</cmt></trkpt>
<trkpt lat="51.697409" lon="03.809363"><ele>12</ele><time>2021-01-07T11:58:56Z</time><cmt>5.3 kmh</cmt></trkpt>
<trkpt lat="51.697412" lon="03.809380"><ele>12</ele><time>2021-01-07T11:58:57Z</time><cmt>5.3 kmh</cmt></trkpt>
<trkpt lat="51.697412" lon="03.809398"><ele>12</ele><time>2021-01-07T11:58:58Z</time><cmt>3.8 kmh</cmt></trkpt>
<trkpt lat="51.697413" lon="03.809417"><ele>11</ele><time>2021-01-07T11:58:59Z</time><cmt>4.0 kmh</cmt></trkpt>
<trkpt lat="51.697415" lon="03.809433"><ele>11</ele><time>2021-01-07T11:59:00Z</time><cmt>4.8 kmh</cmt></trkpt>
<trkpt lat="51.697418" lon="03.809449"><ele>11</ele><time>2021-01-07T11:59:01Z</time><cmt>4.5 kmh</cmt></trkpt>
<trkpt lat="51.697420" lon="03.809466"><ele>11</ele><time>2021-01-07T11:59:02Z</time><cmt>4.5 kmh</cmt></trkpt>
<trkpt lat="51.697423" lon="03.809483"><ele>11</ele><time>2021-01-07T11:59:03Z</time><cmt>4.7 kmh</cmt></trkpt>
<trkpt lat="51.697424" lon="03.809502"><ele>11</ele><time>2021-01-07T11:59:04Z</time><cmt>3.9 kmh</cmt></trkpt>
<trkpt lat="51.697425" lon="03.809519"><ele>11</ele><time>2021-01-07T11:59:05Z</time><cmt>3.9 kmh</cmt></trkpt>
<trkpt lat="51.697426" lon="03.809537"><ele>11</ele><time>2021-01-07T11:59:06Z</time><cmt>4.7 kmh</cmt></trkpt>
<trkpt lat="51.697427" lon="03.809556"><ele>11</ele><time>2021-01-07T11:59:07Z</time><cmt>4.9 kmh</cmt></trkpt>
<trkpt lat="51.697426" lon="03.809576"><ele>11</ele><time>2021-01-07T11:59:08Z</time><cmt>5.0 kmh</cmt></trkpt>
<trkpt lat="51.697428" lon="03.809595"><ele>11</ele><time>2021-01-07T11:59:09Z</time><cmt>5.0 kmh</cmt></trkpt>
<trkpt lat="51.697430" lon="03.809612"><ele>11</ele><time>2021-01-07T11:59:10Z</time><cmt>4.9 kmh</cmt></trkpt>
<trkpt lat="51.697432" lon="03.809630"><ele>10</ele><time>2021-01-07T11:59:11Z</time><cmt>3.8 kmh</cmt></trkpt>
<trkpt lat="51.697434" lon="03.809647"><ele>10</ele><time>2021-01-07T11:59:12Z</time><cmt>3.8 kmh</cmt></trkpt>
<trkpt lat="51.697437" lon="03.809666"><ele>10</ele><time>2021-01-07T11:59:13Z</time><cmt>5.0 kmh</cmt></trkpt>
<trkpt lat="51.697440" lon="03.809685"><ele>10</ele><time>2021-01-07T11:59:14Z</time><cmt>5.0 kmh</cmt></trkpt>
<trkpt lat="51.697444" lon="03.809702"><ele>10</ele><time>2021-01-07T11:59:15Z</time><cmt>5.0 kmh</cmt></trkpt>
<trkpt lat="51.697446" lon="03.809719"><ele>10</ele><time>2021-01-07T11:59:16Z</time><cmt>4.7 kmh</cmt></trkpt>
<trkpt lat="51.697447" lon="03.809735"><ele>10</ele><time>2021-01-07T11:59:17Z</time><cmt>3.5 kmh</cmt></trkpt>
<trkpt lat="51.697447" lon="03.809751"><ele>10</ele><time>2021-01-07T11:59:18Z</time><cmt>3.5 kmh</cmt></trkpt>
<trkpt lat="51.697448" lon="03.809766"><ele>10</ele><time>2021-01-07T11:59:19Z</time><cmt>4.2 kmh</cmt></trkpt>
<trkpt lat="51.697448" lon="03.809781"><ele>9</ele><time>2021-01-07T11:59:20Z</time><cmt>4.0 kmh</cmt></trkpt>
<trkpt lat="51.697450" lon="03.809794"><ele>9</ele><time>2021-01-07T11:59:21Z</time><cmt>3.8 kmh</cmt></trkpt>
<trkpt lat="51.697451" lon="03.809807"><ele>9</ele><time>2021-01-07T11:59:22Z</time><cmt>3.5 kmh</cmt></trkpt>
<trkpt lat="51.697452" lon="03.809816"><ele>9</ele><time>2021-01-07T11:59:23Z</time><cmt>2.4 kmh</cmt></trkpt>
<trkpt lat="51.697461" lon="03.809824"><ele>9</ele><time>2021-01-07T11:59:24Z</time><cmt>2.7 kmh</cmt></trkpt>
<trkpt lat="51.697465" lon="03.809829"><ele>9</ele><time>2021-01-07T11:59:25Z</time><cmt>3.2 kmh</cmt></trkpt>
<trkpt lat="51.697467" lon="03.809831"><ele>9</ele><time>2021-01-07T11:59:26Z</time><cmt>1.7 kmh</cmt></trkpt>
<trkpt lat="51.697468" lon="03.809833"><ele>9</ele><time>2021-01-07T11:59:27Z</time><cmt>1.0 kmh</cmt></trkpt>
<trkpt lat="51.697471" lon="03.809835"><ele>9</ele><time>2021-01-07T11:59:28Z</time><cmt>0.9 kmh</cmt></trkpt>
<trkpt lat="51.697473" lon="03.809840"><ele>9</ele><time>2021-01-07T11:59:29Z</time><cmt>1.3 kmh</cmt></trkpt>
<trkpt lat="51.697475" lon="03.809849"><ele>9</ele><time>2021-01-07T11:59:30Z</time><cmt>1.7 kmh</cmt></trkpt>
<trkpt lat="51.697480" lon="03.809862"><ele>9</ele><time>2021-01-07T11:59:31Z</time><cmt>2.7 kmh</cmt></trkpt>
<trkpt lat="51.697482" lon="03.809877"><ele>10</ele><time>2021-01-07T11:59:32Z</time><cmt>4.1 kmh</cmt></trkpt>
<trkpt lat="51.697485" lon="03.809892"><ele>10</ele><time>2021-01-07T11:59:33Z</time><cmt>4.1 kmh</cmt></trkpt>
<trkpt lat="51.697488" lon="03.809907"><ele>10</ele><time>2021-01-07T11:59:34Z</time><cmt>4.2 kmh</cmt></trkpt>
<trkpt lat="51.697491" lon="03.809923"><ele>10</ele><time>2021-01-07T11:59:35Z</time><cmt>4.3 kmh</cmt></trkpt>
<trkpt lat="51.697492" lon="03.809941"><ele>10</ele><time>2021-01-07T11:59:36Z</time><cmt>3.7 kmh</cmt></trkpt>
<trkpt lat="51.697493" lon="03.809963"><ele>10</ele><time>2021-01-07T11:59:37Z</time><cmt>4.3 kmh</cmt></trkpt>
<trkpt lat="51.697494" lon="03.809981"><ele>9</ele><time>2021-01-07T11:59:38Z</time><cmt>5.0 kmh</cmt></trkpt>
<trkpt lat="51.697496" lon="03.809997"><ele>9</ele><time>2021-01-07T11:59:39Z</time><cmt>4.6 kmh</cmt></trkpt>
<trkpt lat="51.697500" lon="03.810011"><ele>9</ele><time>2021-01-07T11:59:40Z</time><cmt>4.3 kmh</cmt></trkpt>
<trkpt lat="51.697505" lon="03.810026"><ele>9</ele><time>2021-01-07T11:59:41Z</time><cmt>4.3 kmh</cmt></trkpt>
<trkpt lat="51.697510" lon="03.810039"><ele>9</ele><time>2021-01-07T11:59:42Z</time><cmt>3.4 kmh</cmt></trkpt>
<trkpt lat="51.697515" lon="03.810051"><ele>8</ele><time>2021-01-07T11:59:43Z</time><cmt>3.2 kmh</cmt></trkpt>
<trkpt lat="51.697521" lon="03.810064"><ele>8</ele><time>2021-01-07T11:59:44Z</time><cmt>4.1 kmh</cmt></trkpt>
<trkpt lat="51.697526" lon="03.810077"><ele>8</ele><time>2021-01-07T11:59:45Z</time><cmt>4.1 kmh</cmt></trkpt>
<trkpt lat="51.697531" lon="03.810090"><ele>8</ele><time>2021-01-07T11:59:46Z</time><cmt>4.1 kmh</cmt></trkpt>
<trkpt lat="51.697535" lon="03.810105"><ele>8</ele><time>2021-01-07T11:59:47Z</time><cmt>4.3 kmh</cmt></trkpt>
<trkpt lat="51.697538" lon="03.810121"><ele>7</ele><time>2021-01-07T11:59:48Z</time><cmt>4.4 kmh</cmt></trkpt>
<trkpt lat="51.697540" lon="03.810138"><ele>7</ele><time>2021-01-07T11:59:49Z</time><cmt>3.7 kmh</cmt></trkpt>
<trkpt lat="51.697541" lon="03.810155"><ele>7</ele><time>2021-01-07T11:59:50Z</time><cmt>3.7 kmh</cmt></trkpt>
<trkpt lat="51.697542" lon="03.810169"><ele>7</ele><time>2021-01-07T11:59:51Z</time><cmt>4.2 kmh</cmt></trkpt>
<trkpt lat="51.697544" lon="03.810184"><ele>6</ele><time>2021-01-07T11:59:52Z</time><cmt>4.0 kmh</cmt></trkpt>
<trkpt lat="51.697544" lon="03.810200"><ele>6</ele><time>2021-01-07T11:59:53Z</time><cmt>4.1 kmh</cmt></trkpt>
<trkpt lat="51.697556" lon="03.810218"><ele>6</ele><time>2021-01-07T11:59:54Z</time><cmt>5.0 kmh</cmt></trkpt>
<trkpt lat="51.697561" lon="03.810234"><ele>5</ele><time>2021-01-07T11:59:55Z</time><cmt>4.7 kmh</cmt></trkpt>
<trkpt lat="51.697571" lon="03.810250"><ele>5</ele><time>2021-01-07T11:59:56Z</time><cmt>4.4 kmh</cmt></trkpt>
<trkpt lat="51.697572" lon="03.810268"><ele>5</ele><time>2021-01-07T11:59:57Z</time><cmt>5.0 kmh</cmt></trkpt>
<trkpt lat="51.697574" lon="03.810285"><ele>5</ele><time>2021-01-07T11:59:58Z</time><cmt>4.7 kmh</cmt></trkpt>
<trkpt lat="51.697576" lon="03.810301"><ele>5</ele><time>2021-01-07T11:59:59Z</time><cmt>4.5 kmh</cmt></trkpt>
<trkpt lat="51.697577" lon="03.810318"><ele>5</ele><time>2021-01-07T12:00:00Z</time><cmt>4.5 kmh</cmt></trkpt>
<trkpt lat="51.697578" lon="03.810336"><ele>5</ele><time>2021-01-07T12:00:01Z</time><cmt>3.8 kmh</cmt></trkpt>
<trkpt lat="51.697579" lon="03.810357"><ele>4</ele><time>2021-01-07T12:00:02Z</time><cmt>4.2 kmh</cmt></trkpt>
<trkpt lat="51.697579" lon="03.810376"><ele>4</ele><time>2021-01-07T12:00:03Z</time><cmt>5.0 kmh</cmt></trkpt>
<trkpt lat="51.697579" lon="03.810395"><ele>4</ele><time>2021-01-07T12:00:04Z</time><cmt>5.0 kmh</cmt></trkpt>
<trkpt lat="51.697581" lon="03.810410"><ele>4</ele><time>2021-01-07T12:00:05Z</time><cmt>4.6 kmh</cmt></trkpt>
<trkpt lat="51.697582" lon="03.810426"><ele>4</ele><time>2021-01-07T12:00:06Z</time><cmt>4.3 kmh</cmt></trkpt>
<trkpt lat="51.697582" lon="03.810445"><ele>4</ele><time>2021-01-07T12:00:07Z</time><cmt>4.6 kmh</cmt></trkpt>
<trkpt lat="51.697585" lon="03.810463"><ele>4</ele><time>2021-01-07T12:00:08Z</time><cmt>4.0 kmh</cmt></trkpt>
<trkpt lat="51.697586" lon="03.810482"><ele>3</ele><time>2021-01-07T12:00:09Z</time><cmt>4.1 kmh</cmt></trkpt>
<trkpt lat="51.697586" lon="03.810500"><ele>3</ele><time>2021-01-07T12:00:10Z</time><cmt>4.9 kmh</cmt></trkpt>
<trkpt lat="51.697587" lon="03.810518"><ele>3</ele><time>2021-01-07T12:00:11Z</time><cmt>4.8 kmh</cmt></trkpt>
<trkpt lat="51.697584" lon="03.810538"><ele>3</ele><time>2021-01-07T12:00:12Z</time><cmt>5.0 kmh</cmt></trkpt>
<trkpt lat="51.697589" lon="03.810554"><ele>3</ele><time>2021-01-07T12:00:13Z</time><cmt>5.0 kmh</cmt></trkpt>
<trkpt lat="51.697595" lon="03.810568"><ele>3</ele><time>2021-01-07T12:00:14Z</time><cmt>3.8 kmh</cmt></trkpt>
<trkpt lat="51.697605" lon="03.810584"><ele>3</ele><time>2021-01-07T12:00:15Z</time><cmt>4.3 kmh</cmt></trkpt>
<trkpt lat="51.697615" lon="03.810600"><ele>3</ele><time>2021-01-07T12:00:16Z</time><cmt>5.0 kmh</cmt></trkpt>
<trkpt lat="51.697618" lon="03.810616"><ele>3</ele><time>2021-01-07T12:00:17Z</time><cmt>5.0 kmh</cmt></trkpt>
<trkpt lat="51.697623" lon="03.810632"><ele>3</ele><time>2021-01-07T12:00:18Z</time><cmt>4.6 kmh</cmt></trkpt>
<trkpt lat="51.697628" lon="03.810647"><ele>3</ele><time>2021-01-07T12:00:19Z</time><cmt>4.6 kmh</cmt></trkpt>
<trkpt lat="51.697632" lon="03.810662"><ele>3</ele><time>2021-01-07T12:00:20Z</time><cmt>4.5 kmh</cmt></trkpt>
<trkpt lat="51.697636" lon="03.810677"><ele>3</ele><time>2021-01-07T12:00:21Z</time><cmt>3.5 kmh</cmt></trkpt>
<trkpt lat="51.697642" lon="03.810694"><ele>3</ele><time>2021-01-07T12:00:22Z</time><cmt>3.9 kmh</cmt></trkpt>
<trkpt lat="51.697647" lon="03.810713"><ele>3</ele><time>2021-01-07T12:00:23Z</time><cmt>5.0 kmh</cmt></trkpt>
<trkpt lat="51.697653" lon="03.810731"><ele>3</ele><time>2021-01-07T12:00:24Z</time><cmt>5.0 kmh</cmt></trkpt>
<trkpt lat="51.697663" lon="03.810751"><ele>4</ele><time>2021-01-07T12:00:25Z</time><cmt>5.0 kmh</cmt></trkpt>
<trkpt lat="51.697670" lon="03.810769"><ele>4</ele><time>2021-01-07T12:00:26Z</time><cmt>5.0 kmh</cmt></trkpt>
<trkpt lat="51.697673" lon="03.810787"><ele>4</ele><time>2021-01-07T12:00:27Z</time><cmt>4.2 kmh</cmt></trkpt>
<trkpt lat="51.697673" lon="03.810802"><ele>4</ele><time>2021-01-07T12:00:28Z</time><cmt>3.7 kmh</cmt></trkpt>
<trkpt lat="51.697672" lon="03.810817"><ele>5</ele><time>2021-01-07T12:00:29Z</time><cmt>4.0 kmh</cmt></trkpt>
<trkpt lat="51.697673" lon="03.810832"><ele>5</ele><time>2021-01-07T12:00:30Z</time><cmt>4.1 kmh</cmt></trkpt>
<trkpt lat="51.697676" lon="03.810848"><ele>5</ele><time>2021-01-07T12:00:31Z</time><cmt>4.2 kmh</cmt></trkpt>
<trkpt lat="51.697681" lon="03.810862"><ele>5</ele><time>2021-01-07T12:00:32Z</time><cmt>4.3 kmh</cmt></trkpt>
<trkpt lat="51.697684" lon="03.810872"><ele>5</ele><time>2021-01-07T12:00:33Z</time><cmt>3.0 kmh</cmt></trkpt>
<trkpt lat="51.697686" lon="03.810892"><ele>5</ele><time>2021-01-07T12:00:34Z</time><cmt>3.5 kmh</cmt></trkpt>
<trkpt lat="51.697687" lon="03.810909"><ele>6</ele><time>2021-01-07T12:00:35Z</time><cmt>5.0 kmh</cmt></trkpt>
<trkpt lat="51.697691" lon="03.810925"><ele>6</ele><time>2021-01-07T12:00:36Z</time><cmt>4.6 kmh</cmt></trkpt>
<trkpt lat="51.697692" lon="03.810942"><ele>6</ele><time>2021-01-07T12:00:37Z</time><cmt>4.6 kmh</cmt></trkpt>
<trkpt lat="51.697692" lon="03.810957"><ele>6</ele><time>2021-01-07T12:00:38Z</time><cmt>4.2 kmh</cmt></trkpt>
<trkpt lat="51.697690" lon="03.810971"><ele>6</ele><time>2021-01-07T12:00:39Z</time><cmt>3.9 kmh</cmt></trkpt>
<trkpt lat="51.697689" lon="03.810984"><ele>6</ele><time>2021-01-07T12:00:40Z</time><cmt>2.9 kmh</cmt></trkpt>
<trkpt lat="51.697686" lon="03.810997"><ele>7</ele><time>2021-01-07T12:00:41Z</time><cmt>2.9 kmh</cmt></trkpt>
<trkpt lat="51.697682" lon="03.811011"><ele>7</ele><time>2021-01-07T12:00:42Z</time><cmt>4.0 kmh</cmt></trkpt>
<trkpt lat="51.697682" lon="03.811027"><ele>7</ele><time>2021-01-07T12:00:43Z</time><cmt>4.2 kmh</cmt></trkpt>
<trkpt lat="51.697679" lon="03.811047"><ele>7</ele><time>2021-01-07T12:00:44Z</time><cmt>4.9 kmh</cmt></trkpt>
<trkpt lat="51.697678" lon="03.811063"><ele>7</ele><time>2021-01-07T12:00:45Z</time><cmt>5.0 kmh</cmt></trkpt>
<trkpt lat="51.697676" lon="03.811079"><ele>7</ele><time>2021-01-07T12:00:46Z</time><cmt>3.4 kmh</cmt></trkpt>
<trkpt lat="51.697675" lon="03.811093"><ele>7</ele><time>2021-01-07T12:00:47Z</time><cmt>3.2 kmh</cmt></trkpt>
<trkpt lat="51.697674" lon="03.811107"><ele>7</ele><time>2021-01-07T12:00:48Z</time><cmt>3.9 kmh</cmt></trkpt>
<trkpt lat="51.697672" lon="03.811124"><ele>7</ele><time>2021-01-07T12:00:49Z</time><cmt>4.1 kmh</cmt></trkpt>
<trkpt lat="51.697671" lon="03.811141"><ele>7</ele><time>2021-01-07T12:00:50Z</time><cmt>4.5 kmh</cmt></trkpt>
<trkpt lat="51.697668" lon="03.811160"><ele>7</ele><time>2021-01-07T12:00:51Z</time><cmt>4.9 kmh</cmt></trkpt>
<trkpt lat="51.697663" lon="03.811177"><ele>7</ele><time>2021-01-07T12:00:52Z</time><cmt>4.0 kmh</cmt></trkpt>
<trkpt lat="51.697660" lon="03.811190"><ele>7</ele><time>2021-01-07T12:00:53Z</time><cmt>3.5 kmh</cmt></trkpt>
<trkpt lat="51.697658" lon="03.811198"><ele>7</ele><time>2021-01-07T12:00:54Z</time><cmt>3.1 kmh</cmt></trkpt>
<trkpt lat="51.697660" lon="03.811202"><ele>7</ele><time>2021-01-07T12:00:55Z</time><cmt>1.8 kmh</cmt></trkpt>
<trkpt lat="51.697662" lon="03.811204"><ele>7</ele><time>2021-01-07T12:00:56Z</time><cmt>1.3 kmh</cmt></trkpt>
<trkpt lat="51.697665" lon="03.811207"><ele>6</ele><time>2021-01-07T12:00:57Z</time><cmt>1.4 kmh</cmt></trkpt>
<trkpt lat="51.697667" lon="03.811209"><ele>6</ele><time>2021-01-07T12:00:58Z</time><cmt>1.3 kmh</cmt></trkpt>
<trkpt lat="51.697669" lon="03.811212"><ele>6</ele><time>2021-01-07T12:00:59Z</time><cmt>1.0 kmh</cmt></trkpt>
<trkpt lat="51.697671" lon="03.811216"><ele>6</ele><time>2021-01-07T12:01:00Z</time><cmt>1.0 kmh</cmt></trkpt>
<trkpt lat="51.697672" lon="03.811222"><ele>6</ele><time>2021-01-07T12:01:01Z</time><cmt>1.5 kmh</cmt></trkpt>
<trkpt lat="51.697673" lon="03.811232"><ele>6</ele><time>2021-01-07T12:01:02Z</time><cmt>2.2 kmh</cmt></trkpt>
<trkpt lat="51.697674" lon="03.811244"><ele>6</ele><time>2021-01-07T12:01:03Z</time><cmt>2.9 kmh</cmt></trkpt>
<trkpt lat="51.697674" lon="03.811256"><ele>6</ele><time>2021-01-07T12:01:04Z</time><cmt>3.2 kmh</cmt></trkpt>
<trkpt lat="51.697673" lon="03.811267"><ele>6</ele><time>2021-01-07T12:01:05Z</time><cmt>2.5 kmh</cmt></trkpt>
<trkpt lat="51.697672" lon="03.811278"><ele>6</ele><time>2021-01-07T12:01:06Z</time><cmt>2.4 kmh</cmt></trkpt>
<trkpt lat="51.697671" lon="03.811291"><ele>6</ele><time>2021-01-07T12:01:07Z</time><cmt>3.2 kmh</cmt></trkpt>
<trkpt lat="51.697668" lon="03.811308"><ele>5</ele><time>2021-01-07T12:01:08Z</time><cmt>4.1 kmh</cmt></trkpt>
<trkpt lat="51.697664" lon="03.811326"><ele>5</ele><time>2021-01-07T12:01:09Z</time><cmt>4.9 kmh</cmt></trkpt>
<trkpt lat="51.697659" lon="03.811346"><ele>5</ele><time>2021-01-07T12:01:10Z</time><cmt>5.0 kmh</cmt></trkpt>
<trkpt lat="51.697652" lon="03.811371"><ele>5</ele><time>2021-01-07T12:01:11Z</time><cmt>5.0 kmh</cmt></trkpt>
<trkpt lat="51.697646" lon="03.811398"><ele>4</ele><time>2021-01-07T12:01:12Z</time><cmt>5.0 kmh</cmt></trkpt>
<trkpt lat="51.697643" lon="03.811418"><ele>4</ele><time>2021-01-07T12:01:13Z</time><cmt>5.0 kmh</cmt></trkpt>
<trkpt lat="51.697641" lon="03.811435"><ele>4</ele><time>2021-01-07T12:01:14Z</time><cmt>5.0 kmh</cmt></trkpt>
<trkpt lat="51.697640" lon="03.811452"><ele>4</ele><time>2021-01-07T12:01:15Z</time><cmt>4.6 kmh</cmt></trkpt>
<trkpt lat="51.697640" lon="03.811468"><ele>4</ele><time>2021-01-07T12:01:16Z</time><cmt>4.4 kmh</cmt></trkpt>
<trkpt lat="51.697642" lon="03.811486"><ele>4</ele><time>2021-01-07T12:01:17Z</time><cmt>4.5 kmh</cmt></trkpt>
<trkpt lat="51.697642" lon="03.811502"><ele>4</ele><time>2021-01-07T12:01:18Z</time><cmt>3.7 kmh</cmt></trkpt>
<trkpt lat="51.697642" lon="03.811519"><ele>4</ele><time>2021-01-07T12:01:19Z</time><cmt>3.6 kmh</cmt></trkpt>
<trkpt lat="51.697645" lon="03.811533"><ele>4</ele><time>2021-01-07T12:01:20Z</time><cmt>4.1 kmh</cmt></trkpt>
<trkpt lat="51.697647" lon="03.811545"><ele>4</ele><time>2021-01-07T12:01:21Z</time><cmt>3.6 kmh</cmt></trkpt>
<trkpt lat="51.697647" lon="03.811558"><ele>4</ele><time>2021-01-07T12:01:22Z</time><cmt>3.5 kmh</cmt></trkpt>
<trkpt lat="51.697646" lon="03.811573"><ele>4</ele><time>2021-01-07T12:01:23Z</time><cmt>3.7 kmh</cmt></trkpt>
<trkpt lat="51.697645" lon="03.811587"><ele>4</ele><time>2021-01-07T12:01:24Z</time><cmt>3.1 kmh</cmt></trkpt>
<trkpt lat="51.697644" lon="03.811601"><ele>4</ele><time>2021-01-07T12:01:25Z</time><cmt>3.1 kmh</cmt></trkpt>
<trkpt lat="51.697643" lon="03.811615"><ele>4</ele><time>2021-01-07T12:01:26Z</time><cmt>3.8 kmh</cmt></trkpt>
<trkpt lat="51.697643" lon="03.811627"><ele>4</ele><time>2021-01-07T12:01:27Z</time><cmt>3.5 kmh</cmt></trkpt>
<trkpt lat="51.697641" lon="03.811635"><ele>4</ele><time>2021-01-07T12:01:28Z</time><cmt>2.7 kmh</cmt></trkpt>
<trkpt lat="51.697639" lon="03.811640"><ele>4</ele><time>2021-01-07T12:01:29Z</time><cmt>2.0 kmh</cmt></trkpt>
<trkpt lat="51.697636" lon="03.811646"><ele>4</ele><time>2021-01-07T12:01:30Z</time><cmt>1.6 kmh</cmt></trkpt>
<trkpt lat="51.697633" lon="03.811653"><ele>4</ele><time>2021-01-07T12:01:31Z</time><cmt>1.7 kmh</cmt></trkpt>
<trkpt lat="51.697629" lon="03.811659"><ele>4</ele><time>2021-01-07T12:01:32Z</time><cmt>2.2 kmh</cmt></trkpt>
<trkpt lat="51.697626" lon="03.811664"><ele>4</ele><time>2021-01-07T12:01:33Z</time><cmt>2.0 kmh</cmt></trkpt>
<trkpt lat="51.697624" lon="03.811669"><ele>4</ele><time>2021-01-07T12:01:34Z</time><cmt>1.7 kmh</cmt></trkpt>
<trkpt lat="51.697625" lon="03.811668"><ele>4</ele><time>2021-01-07T12:01:35Z</time><cmt>0.8 kmh</cmt></trkpt>
<trkpt lat="51.697626" lon="03.811669"><ele>4</ele><time>2021-01-07T12:01:36Z</time><cmt>0.8 kmh</cmt></trkpt>
<trkpt lat="51.697627" lon="03.811675"><ele>4</ele><time>2021-01-07T12:01:37Z</time><cmt>0.7 kmh</cmt></trkpt>
<trkpt lat="51.697627" lon="03.811684"><ele>4</ele><time>2021-01-07T12:01:38Z</time><cmt>1.7 kmh</cmt></trkpt>
<trkpt lat="51.697629" lon="03.811694"><ele>4</ele><time>2021-01-07T12:01:39Z</time><cmt>2.7 kmh</cmt></trkpt>
<trkpt lat="51.697631" lon="03.811707"><ele>4</ele><time>2021-01-07T12:01:40Z</time><cmt>3.2 kmh</cmt></trkpt>
<trkpt lat="51.697634" lon="03.811722"><ele>4</ele><time>2021-01-07T12:01:41Z</time><cmt>3.8 kmh</cmt></trkpt>
<trkpt lat="51.697639" lon="03.811738"><ele>4</ele><time>2021-01-07T12:01:42Z</time><cmt>4.4 kmh</cmt></trkpt>
<trkpt lat="51.697645" lon="03.811753"><ele>4</ele><time>2021-01-07T12:01:43Z</time><cmt>3.8 kmh</cmt></trkpt>
<trkpt lat="51.697649" lon="03.811772"><ele>3</ele><time>2021-01-07T12:01:44Z</time><cmt>4.1 kmh</cmt></trkpt>
<trkpt lat="51.697653" lon="03.811789"><ele>3</ele><time>2021-01-07T12:01:45Z</time><cmt>5.0 kmh</cmt></trkpt>
<trkpt lat="51.697660" lon="03.811806"><ele>3</ele><time>2021-01-07T12:01:46Z</time><cmt>5.0 kmh</cmt></trkpt>
<trkpt lat="51.697667" lon="03.811823"><ele>3</ele><time>2021-01-07T12:01:47Z</time><cmt>5.0 kmh</cmt></trkpt>
<trkpt lat="51.697674" lon="03.811841"><ele>3</ele><time>2021-01-07T12:01:48Z</time><cmt>5.0 kmh</cmt></trkpt>
<trkpt lat="51.697677" lon="03.811860"><ele>3</ele><time>2021-01-07T12:01:49Z</time><cmt>4.4 kmh</cmt></trkpt>
<trkpt lat="51.697683" lon="03.811877"><ele>3</ele><time>2021-01-07T12:01:50Z</time><cmt>4.2 kmh</cmt></trkpt>
<trkpt lat="51.697684" lon="03.811894"><ele>3</ele><time>2021-01-07T12:01:51Z</time><cmt>4.8 kmh</cmt></trkpt>
<trkpt lat="51.697692" lon="03.811911"><ele>3</ele><time>2021-01-07T12:01:52Z</time><cmt>5.0 kmh</cmt></trkpt>
<trkpt lat="51.697696" lon="03.811929"><ele>3</ele><time>2021-01-07T12:01:53Z</time><cmt>5.0 kmh</cmt></trkpt>
<trkpt lat="51.697702" lon="03.811947"><ele>3</ele><time>2021-01-07T12:01:54Z</time><cmt>5.0 kmh</cmt></trkpt>
<trkpt lat="51.697705" lon="03.811965"><ele>4</ele><time>2021-01-07T12:01:55Z</time><cmt>5.0 kmh</cmt></trkpt>
<trkpt lat="51.697709" lon="03.811983"><ele>4</ele><time>2021-01-07T12:01:56Z</time><cmt>4.1 kmh</cmt></trkpt>
<trkpt lat="51.697712" lon="03.812001"><ele>4</ele><time>2021-01-07T12:01:57Z</time><cmt>4.0 kmh</cmt></trkpt>
<trkpt lat="51.697716" lon="03.812018"><ele>4</ele><time>2021-01-07T12:01:58Z</time><cmt>4.9 kmh</cmt></trkpt>
<trkpt lat="51.697724" lon="03.812038"><ele>4</ele><time>2021-01-07T12:01:59Z</time><cmt>5.0 kmh</cmt></trkpt>
<trkpt lat="51.697731" lon="03.812055"><ele>4</ele><time>2021-01-07T12:02:00Z</time><cmt>5.0 kmh</cmt></trkpt>
<trkpt lat="51.697736" lon="03.812072"><ele>5</ele><time>2021-01-07T12:02:01Z</time><cmt>5.0 kmh</cmt></trkpt>
<trkpt lat="51.697739" lon="03.812088"><ele>5</ele><time>2021-01-07T12:02:02Z</time><cmt>3.8 kmh</cmt></trkpt>
<trkpt lat="51.697742" lon="03.812105"><ele>5</ele><time>2021-01-07T12:02:03Z</time><cmt>3.7 kmh</cmt></trkpt>
<trkpt lat="51.697743" lon="03.812121"><ele>6</ele><time>2021-01-07T12:02:04Z</time><cmt>4.5 kmh</cmt></trkpt>
<trkpt lat="51.697748" lon="03.812139"><ele>6</ele><time>2021-01-07T12:02:05Z</time><cmt>4.8 kmh</cmt></trkpt>
<trkpt lat="51.697755" lon="03.812157"><ele>6</ele><time>2021-01-07T12:02:06Z</time><cmt>5.0 kmh</cmt></trkpt>
<trkpt lat="51.697759" lon="03.812174"><ele>6</ele><time>2021-01-07T12:02:07Z</time><cmt>5.0 kmh</cmt></trkpt>
<trkpt lat="51.697760" lon="03.812189"><ele>7</ele><time>2021-01-07T12:02:08Z</time><cmt>4.4 kmh</cmt></trkpt>
<trkpt lat="51.697760" lon="03.812203"><ele>7</ele><time>2021-01-07T12:02:09Z</time><cmt>3.2 kmh</cmt></trkpt>
<trkpt lat="51.697762" lon="03.812217"><ele>7</ele><time>2021-01-07T12:02:10Z</time><cmt>3.1 kmh</cmt></trkpt>
<trkpt lat="51.697766" lon="03.812230"><ele>7</ele><time>2021-01-07T12:02:11Z</time><cmt>3.8 kmh</cmt></trkpt>
<trkpt lat="51.697769" lon="03.812247"><ele>8</ele><time>2021-01-07T12:02:12Z</time><cmt>4.2 kmh</cmt></trkpt>
<trkpt lat="51.697774" lon="03.812264"><ele>8</ele><time>2021-01-07T12:02:13Z</time><cmt>4.8 kmh</cmt></trkpt>
<trkpt lat="51.697773" lon="03.812282"><ele>8</ele><time>2021-01-07T12:02:14Z</time><cmt>5.0 kmh</cmt></trkpt>
<trkpt lat="51.697771" lon="03.812301"><ele>8</ele><time>2021-01-07T12:02:15Z</time><cmt>4.0 kmh</cmt></trkpt>
<trkpt lat="51.697771" lon="03.812318"><ele>8</ele><time>2021-01-07T12:02:16Z</time><cmt>3.9 kmh</cmt></trkpt>
<trkpt lat="51.697768" lon="03.812336"><ele>8</ele><time>2021-01-07T12:02:17Z</time><cmt>4.8 kmh</cmt></trkpt>
<trkpt lat="51.697767" lon="03.812353"><ele>8</ele><time>2021-01-07T12:02:18Z</time><cmt>4.7 kmh</cmt></trkpt>
<trkpt lat="51.697765" lon="03.812372"><ele>8</ele><time>2021-01-07T12:02:19Z</time><cmt>4.9 kmh</cmt></trkpt>
<trkpt lat="51.697766" lon="03.812394"><ele>7</ele><time>2021-01-07T12:02:20Z</time><cmt>5.0 kmh</cmt></trkpt>
<trkpt lat="51.697768" lon="03.812411"><ele>7</ele><time>2021-01-07T12:02:21Z</time><cmt>4.2 kmh</cmt></trkpt>
<trkpt lat="51.697777" lon="03.812426"><ele>7</ele><time>2021-01-07T12:02:22Z</time><cmt>4.1 kmh</cmt></trkpt>
<trkpt lat="51.697786" lon="03.812440"><ele>7</ele><time>2021-01-07T12:02:23Z</time><cmt>5.0 kmh</cmt></trkpt>
<trkpt lat="51.697792" lon="03.812455"><ele>7</ele><time>2021-01-07T12:02:24Z</time><cmt>5.0 kmh</cmt></trkpt>
<trkpt lat="51.697795" lon="03.812469"><ele>7</ele><time>2021-01-07T12:02:25Z</time><cmt>4.3 kmh</cmt></trkpt>
<trkpt lat="51.697796" lon="03.812482"><ele>7</ele><time>2021-01-07T12:02:26Z</time><cmt>3.7 kmh</cmt></trkpt>
<trkpt lat="51.697797" lon="03.812493"><ele>7</ele><time>2021-01-07T12:02:27Z</time><cmt>3.1 kmh</cmt></trkpt>
<trkpt lat="51.697798" lon="03.812502"><ele>7</ele><time>2021-01-07T12:02:28Z</time><cmt>2.2 kmh</cmt></trkpt>
<trkpt lat="51.697800" lon="03.812513"><ele>7</ele><time>2021-01-07T12:02:29Z</time><cmt>2.2 kmh</cmt></trkpt>
<trkpt lat="51.697802" lon="03.812523"><ele>7</ele><time>2021-01-07T12:02:30Z</time><cmt>2.8 kmh</cmt></trkpt>
<trkpt lat="51.697805" lon="03.812530"><ele>7</ele><time>2021-01-07T12:02:31Z</time><cmt>2.5 kmh</cmt></trkpt>
<trkpt lat="51.697807" lon="03.812538"><ele>7</ele><time>2021-01-07T12:02:32Z</time><cmt>2.3 kmh</cmt></trkpt>
<trkpt lat="51.697810" lon="03.812547"><ele>7</ele><time>2021-01-07T12:02:33Z</time><cmt>2.4 kmh</cmt></trkpt>
<trkpt lat="51.697813" lon="03.812556"><ele>6</ele><time>2021-01-07T12:02:34Z</time><cmt>2.2 kmh</cmt></trkpt>
<trkpt lat="51.697815" lon="03.812565"><ele>6</ele><time>2021-01-07T12:02:35Z</time><cmt>2.2 kmh</cmt></trkpt>
<trkpt lat="51.697819" lon="03.812574"><ele>6</ele><time>2021-01-07T12:02:36Z</time><cmt>2.7 kmh</cmt></trkpt>
<trkpt lat="51.697821" lon="03.812585"><ele>6</ele><time>2021-01-07T12:02:37Z</time><cmt>3.0 kmh</cmt></trkpt>
<trkpt lat="51.697823" lon="03.812597"><ele>6</ele><time>2021-01-07T12:02:38Z</time><cmt>3.2 kmh</cmt></trkpt>
<trkpt lat="51.697825" lon="03.812611"><ele>5</ele><time>2021-01-07T12:02:39Z</time><cmt>3.6 kmh</cmt></trkpt>
<trkpt lat="51.697828" lon="03.812624"><ele>5</ele><time>2021-01-07T12:02:40Z</time><cmt>3.0 kmh</cmt></trkpt>
<trkpt lat="51.697832" lon="03.812636"><ele>5</ele><time>2021-01-07T12:02:41Z</time><cmt>2.9 kmh</cmt></trkpt>
<trkpt lat="51.697836" lon="03.812647"><ele>5</ele><time>2021-01-07T12:02:42Z</time><cmt>3.6 kmh</cmt></trkpt>
<trkpt lat="51.697840" lon="03.812659"><ele>4</ele><time>2021-01-07T12:02:43Z</time><cmt>3.6 kmh</cmt></trkpt>
<trkpt lat="51.697844" lon="03.812672"><ele>4</ele><time>2021-01-07T12:02:44Z</time><cmt>3.8 kmh</cmt></trkpt>
<trkpt lat="51.697846" lon="03.812688"><ele>4</ele><time>2021-01-07T12:02:45Z</time><cmt>4.0 kmh</cmt></trkpt>
<trkpt lat="51.697850" lon="03.812702"><ele>3</ele><time>2021-01-07T12:02:46Z</time><cmt>4.2 kmh</cmt></trkpt>
<trkpt lat="51.697854" lon="03.812714"><ele>3</ele><time>2021-01-07T12:02:47Z</time><cmt>3.1 kmh</cmt></trkpt>
<trkpt lat="51.697858" lon="03.812726"><ele>3</ele><time>2021-01-07T12:02:48Z</time><cmt>3.0 kmh</cmt></trkpt>
<trkpt lat="51.697864" lon="03.812740"><ele>3</ele><time>2021-01-07T12:02:49Z</time><cmt>4.2 kmh</cmt></trkpt>
<trkpt lat="51.697871" lon="03.812754"><ele>2</ele><time>2021-01-07T12:02:50Z</time><cmt>4.7 kmh</cmt></trkpt>
<trkpt lat="51.697876" lon="03.812769"><ele>2</ele><time>2021-01-07T12:02:51Z</time><cmt>4.6 kmh</cmt></trkpt>
<trkpt lat="51.697881" lon="03.812784"><ele>2</ele><time>2021-01-07T12:02:52Z</time><cmt>4.6 kmh</cmt></trkpt>
<trkpt lat="51.697884" lon="03.812799"><ele>2</ele><time>2021-01-07T12:02:53Z</time><cmt>3.5 kmh</cmt></trkpt>
<trkpt lat="51.697887" lon="03.812811"><ele>2</ele><time>2021-01-07T12:02:54Z</time><cmt>3.0 kmh</cmt></trkpt>
<trkpt lat="51.697891" lon="03.812824"><ele>2</ele><time>2021-01-07T12:02:55Z</time><cmt>3.6 kmh</cmt></trkpt>
<trkpt lat="51.697896" lon="03.812835"><ele>2</ele><time>2021-01-07T12:02:56Z</time><cmt>3.9 kmh</cmt></trkpt>
<trkpt lat="51.697903" lon="03.812847"><ele>2</ele><time>2021-01-07T12:02:57Z</time><cmt>4.1 kmh</cmt></trkpt>
<trkpt lat="51.697910" lon="03.812857"><ele>2</ele><time>2021-01-07T12:02:58Z</time><cmt>4.2 kmh</cmt></trkpt>
<trkpt lat="51.697917" lon="03.812866"><ele>2</ele><time>2021-01-07T12:02:59Z</time><cmt>3.2 kmh</cmt></trkpt>
<trkpt lat="51.697923" lon="03.812875"><ele>2</ele><time>2021-01-07T12:03:00Z</time><cmt>2.8 kmh</cmt></trkpt>
<trkpt lat="51.697928" lon="03.812882"><ele>2</ele><time>2021-01-07T12:03:01Z</time><cmt>3.1 kmh</cmt></trkpt>
<trkpt lat="51.697934" lon="03.812887"><ele>2</ele><time>2021-01-07T12:03:02Z</time><cmt>3.0 kmh</cmt></trkpt>
<trkpt lat="51.697941" lon="03.812891"><ele>2</ele><time>2021-01-07T12:03:03Z</time><cmt>3.0 kmh</cmt></trkpt>
<trkpt lat="51.697947" lon="03.812896"><ele>2</ele><time>2021-01-07T12:03:04Z</time><cmt>3.1 kmh</cmt></trkpt>
<trkpt lat="51.697954" lon="03.812903"><ele>2</ele><time>2021-01-07T12:03:05Z</time><cmt>3.2 kmh</cmt></trkpt>
<trkpt lat="51.697961" lon="03.812910"><ele>2</ele><time>2021-01-07T12:03:06Z</time><cmt>2.7 kmh</cmt></trkpt>
<trkpt lat="51.697968" lon="03.812917"><ele>2</ele><time>2021-01-07T12:03:07Z</time><cmt>2.9 kmh</cmt></trkpt>
<trkpt lat="51.697975" lon="03.812925"><ele>2</ele><time>2021-01-07T12:03:08Z</time><cmt>3.8 kmh</cmt></trkpt>
<trkpt lat="51.697983" lon="03.812933"><ele>2</ele><time>2021-01-07T12:03:09Z</time><cmt>3.9 kmh</cmt></trkpt>
<trkpt lat="51.697989" lon="03.812942"><ele>2</ele><time>2021-01-07T12:03:10Z</time><cmt>3.8 kmh</cmt></trkpt>
<trkpt lat="51.697995" lon="03.812953"><ele>2</ele><time>2021-01-07T12:03:11Z</time><cmt>3.7 kmh</cmt></trkpt>
<trkpt lat="51.698001" lon="03.812963"><ele>2</ele><time>2021-01-07T12:03:12Z</time><cmt>3.0 kmh</cmt></trkpt>
<trkpt lat="51.698007" lon="03.812973"><ele>2</ele><time>2021-01-07T12:03:13Z</time><cmt>2.9 kmh</cmt></trkpt>
<trkpt lat="51.698009" lon="03.812980"><ele>2</ele><time>2021-01-07T12:03:14Z</time><cmt>2.9 kmh</cmt></trkpt>
<trkpt lat="51.698010" lon="03.812984"><ele>2</ele><time>2021-01-07T12:03:15Z</time><cmt>1.7 kmh</cmt></trkpt>
<trkpt lat="51.698012" lon="03.812987"><ele>2</ele><time>2021-01-07T12:03:16Z</time><cmt>1.1 kmh</cmt></trkpt>
<trkpt lat="51.698014" lon="03.812990"><ele>2</ele><time>2021-01-07T12:03:17Z</time><cmt>1.1 kmh</cmt></trkpt>
<trkpt lat="51.698017" lon="03.812993"><ele>2</ele><time>2021-01-07T12:03:18Z</time><cmt>1.0 kmh</cmt></trkpt>
<trkpt lat="51.698021" lon="03.812994"><ele>1</ele><time>2021-01-07T12:03:19Z</time><cmt>1.2 kmh</cmt></trkpt>
<trkpt lat="51.698036" lon="03.812997"><ele>1</ele><time>2021-01-07T12:03:20Z</time><cmt>4.2 kmh</cmt></trkpt>
<trkpt lat="51.698042" lon="03.813001"><ele>1</ele><time>2021-01-07T12:03:21Z</time><cmt>4.8 kmh</cmt></trkpt>
<trkpt lat="51.698045" lon="03.813005"><ele>1</ele><time>2021-01-07T12:03:22Z</time><cmt>2.3 kmh</cmt></trkpt>
<trkpt lat="51.698046" lon="03.813013"><ele>1</ele><time>2021-01-07T12:03:23Z</time><cmt>2.0 kmh</cmt></trkpt>
<trkpt lat="51.698050" lon="03.813018"><ele>2</ele><time>2021-01-07T12:03:24Z</time><cmt>2.2 kmh</cmt></trkpt>
<trkpt lat="51.698054" lon="03.813025"><ele>2</ele><time>2021-01-07T12:03:25Z</time><cmt>1.9 kmh</cmt></trkpt>
<trkpt lat="51.698059" lon="03.813032"><ele>2</ele><time>2021-01-07T12:03:26Z</time><cmt>2.2 kmh</cmt></trkpt>
<trkpt lat="51.698063" lon="03.813041"><ele>2</ele><time>2021-01-07T12:03:27Z</time><cmt>2.9 kmh</cmt></trkpt>
<trkpt lat="51.698065" lon="03.813053"><ele>2</ele><time>2021-01-07T12:03:28Z</time><cmt>3.1 kmh</cmt></trkpt>
<trkpt lat="51.698066" lon="03.813067"><ele>2</ele><time>2021-01-07T12:03:29Z</time><cmt>3.5 kmh</cmt></trkpt>
<trkpt lat="51.698072" lon="03.813083"><ele>2</ele><time>2021-01-07T12:03:30Z</time><cmt>4.4 kmh</cmt></trkpt>
<trkpt lat="51.698075" lon="03.813100"><ele>2</ele><time>2021-01-07T12:03:31Z</time><cmt>3.9 kmh</cmt></trkpt>
<trkpt lat="51.698073" lon="03.813117"><ele>2</ele><time>2021-01-07T12:03:32Z</time><cmt>3.8 kmh</cmt></trkpt>
<trkpt lat="51.698069" lon="03.813132"><ele>2</ele><time>2021-01-07T12:03:33Z</time><cmt>4.4 kmh</cmt></trkpt>
<trkpt lat="51.698065" lon="03.813146"><ele>3</ele><time>2021-01-07T12:03:34Z</time><cmt>4.2 kmh</cmt></trkpt>
<trkpt lat="51.698061" lon="03.813159"><ele>3</ele><time>2021-01-07T12:03:35Z</time><cmt>4.1 kmh</cmt></trkpt>
<trkpt lat="51.698057" lon="03.813173"><ele>3</ele><time>2021-01-07T12:03:36Z</time><cmt>4.0 kmh</cmt></trkpt>
<trkpt lat="51.698055" lon="03.813187"><ele>3</ele><time>2021-01-07T12:03:37Z</time><cmt>3.2 kmh</cmt></trkpt>
<trkpt lat="51.698053" lon="03.813203"><ele>4</ele><time>2021-01-07T12:03:38Z</time><cmt>3.3 kmh</cmt></trkpt>
<trkpt lat="51.698050" lon="03.813221"><ele>4</ele><time>2021-01-07T12:03:39Z</time><cmt>5.5 kmh</cmt></trkpt>
<trkpt lat="51.698047" lon="03.813241"><ele>4</ele><time>2021-01-07T12:03:40Z</time><cmt>5.5 kmh</cmt></trkpt>
<trkpt lat="51.698046" lon="03.813260"><ele>4</ele><time>2021-01-07T12:03:41Z</time><cmt>5.0 kmh</cmt></trkpt>
<trkpt lat="51.698046" lon="03.813280"><ele>4</ele><time>2021-01-07T12:03:42Z</time><cmt>5.0 kmh</cmt></trkpt>
<trkpt lat="51.698045" lon="03.813303"><ele>5</ele><time>2021-01-07T12:03:43Z</time><cmt>5.0 kmh</cmt></trkpt>
<trkpt lat="51.698041" lon="03.813328"><ele>5</ele><time>2021-01-07T12:03:44Z</time><cmt>5.0 kmh</cmt></trkpt>
<trkpt lat="51.698036" lon="03.813352"><ele>5</ele><time>2021-01-07T12:03:45Z</time><cmt>5.0 kmh</cmt></trkpt>
<trkpt lat="51.698028" lon="03.813380"><ele>5</ele><time>2021-01-07T12:03:46Z</time><cmt>5.0 kmh</cmt></trkpt>
<trkpt lat="51.698019" lon="03.813405"><ele>5</ele><time>2021-01-07T12:03:47Z</time><cmt>5.0 kmh</cmt></trkpt>
<trkpt lat="51.698011" lon="03.813433"><ele>4</ele><time>2021-01-07T12:03:48Z</time><cmt>5.0 kmh</cmt></trkpt>
<trkpt lat="51.698006" lon="03.813455"><ele>4</ele><time>2021-01-07T12:03:49Z</time><cmt>5.0 kmh</cmt></trkpt>
<trkpt lat="51.698003" lon="03.813474"><ele>4</ele><time>2021-01-07T12:03:50Z</time><cmt>4.6 kmh</cmt></trkpt>
<trkpt lat="51.698001" lon="03.813492"><ele>4</ele><time>2021-01-07T12:03:51Z</time><cmt>4.1 kmh</cmt></trkpt>
<trkpt lat="51.697998" lon="03.813509"><ele>4</ele><time>2021-01-07T12:03:52Z</time><cmt>4.8 kmh</cmt></trkpt>
<trkpt lat="51.697995" lon="03.813525"><ele>3</ele><time>2021-01-07T12:03:53Z</time><cmt>4.6 kmh</cmt></trkpt>
<trkpt lat="51.697994" lon="03.813542"><ele>3</ele><time>2021-01-07T12:03:54Z</time><cmt>4.5 kmh</cmt></trkpt>
<trkpt lat="51.697992" lon="03.813558"><ele>3</ele><time>2021-01-07T12:03:55Z</time><cmt>4.4 kmh</cmt></trkpt>
<trkpt lat="51.697991" lon="03.813576"><ele>3</ele><time>2021-01-07T12:03:56Z</time><cmt>4.6 kmh</cmt></trkpt>
<trkpt lat="51.697988" lon="03.813594"><ele>3</ele><time>2021-01-07T12:03:57Z</time><cmt>3.9 kmh</cmt></trkpt>
<trkpt lat="51.697986" lon="03.813613"><ele>3</ele><time>2021-01-07T12:03:58Z</time><cmt>4.0 kmh</cmt></trkpt>
<trkpt lat="51.697984" lon="03.813630"><ele>3</ele><time>2021-01-07T12:03:59Z</time><cmt>4.9 kmh</cmt></trkpt>
<trkpt lat="51.697980" lon="03.813647"><ele>3</ele><time>2021-01-07T12:04:00Z</time><cmt>4.8 kmh</cmt></trkpt>
<trkpt lat="51.697978" lon="03.813663"><ele>3</ele><time>2021-01-07T12:04:01Z</time><cmt>4.6 kmh</cmt></trkpt>
<trkpt lat="51.697975" lon="03.813681"><ele>3</ele><time>2021-01-07T12:04:02Z</time><cmt>4.6 kmh</cmt></trkpt>
<trkpt lat="51.697972" lon="03.813698"><ele>3</ele><time>2021-01-07T12:04:03Z</time><cmt>3.8 kmh</cmt></trkpt>
<trkpt lat="51.697970" lon="03.813714"><ele>3</ele><time>2021-01-07T12:04:04Z</time><cmt>3.7 kmh</cmt></trkpt>
<trkpt lat="51.697967" lon="03.813730"><ele>4</ele><time>2021-01-07T12:04:05Z</time><cmt>4.4 kmh</cmt></trkpt>
<trkpt lat="51.697965" lon="03.813745"><ele>4</ele><time>2021-01-07T12:04:06Z</time><cmt>4.3 kmh</cmt></trkpt>
<trkpt lat="51.697961" lon="03.813762"><ele>4</ele><time>2021-01-07T12:04:07Z</time><cmt>4.5 kmh</cmt></trkpt>
<trkpt lat="51.697959" lon="03.813779"><ele>4</ele><time>2021-01-07T12:04:08Z</time><cmt>4.6 kmh</cmt></trkpt>
<trkpt lat="51.697956" lon="03.813796"><ele>4</ele><time>2021-01-07T12:04:09Z</time><cmt>3.7 kmh</cmt></trkpt>
<trkpt lat="51.697952" lon="03.813813"><ele>4</ele><time>2021-01-07T12:04:10Z</time><cmt>3.9 kmh</cmt></trkpt>
<trkpt lat="51.697946" lon="03.813835"><ele>4</ele><time>2021-01-07T12:04:11Z</time><cmt>5.0 kmh</cmt></trkpt>
<trkpt lat="51.697939" lon="03.813859"><ele>4</ele><time>2021-01-07T12:04:12Z</time><cmt>5.0 kmh</cmt></trkpt>
<trkpt lat="51.697933" lon="03.813878"><ele>4</ele><time>2021-01-07T12:04:13Z</time><cmt>5.0 kmh</cmt></trkpt>
<trkpt lat="51.697929" lon="03.813894"><ele>4</ele><time>2021-01-07T12:04:14Z</time><cmt>5.0 kmh</cmt></trkpt>
<trkpt lat="51.697924" lon="03.813912"><ele>4</ele><time>2021-01-07T12:04:15Z</time><cmt>4.9 kmh</cmt></trkpt>
<trkpt lat="51.697920" lon="03.813929"><ele>4</ele><time>2021-01-07T12:04:16Z</time><cmt>4.1 kmh</cmt></trkpt>
<trkpt lat="51.697915" lon="03.813947"><ele>4</ele><time>2021-01-07T12:04:17Z</time><cmt>4.1 kmh</cmt></trkpt>
<trkpt lat="51.697911" lon="03.813965"><ele>4</ele><time>2021-01-07T12:04:18Z</time><cmt>5.0 kmh</cmt></trkpt>
<trkpt lat="51.697907" lon="03.813982"><ele>4</ele><time>2021-01-07T12:04:19Z</time><cmt>4.9 kmh</cmt></trkpt>
<trkpt lat="51.697903" lon="03.813999"><ele>4</ele><time>2021-01-07T12:04:20Z</time><cmt>4.9 kmh</cmt></trkpt>
<trkpt lat="51.697900" lon="03.814016"><ele>4</ele><time>2021-01-07T12:04:21Z</time><cmt>4.9 kmh</cmt></trkpt>
<trkpt lat="51.697895" lon="03.814034"><ele>4</ele><time>2021-01-07T12:04:22Z</time><cmt>4.0 kmh</cmt></trkpt>
<trkpt lat="51.697891" lon="03.814051"><ele>4</ele><time>2021-01-07T12:04:23Z</time><cmt>4.0 kmh</cmt></trkpt>
<trkpt lat="51.697886" lon="03.814069"><ele>4</ele><time>2021-01-07T12:04:24Z</time><cmt>5.0 kmh</cmt></trkpt>
<trkpt lat="51.697882" lon="03.814083"><ele>4</ele><time>2021-01-07T12:04:25Z</time><cmt>4.7 kmh</cmt></trkpt>
<trkpt lat="51.697878" lon="03.814098"><ele>4</ele><time>2021-01-07T12:04:26Z</time><cmt>4.3 kmh</cmt></trkpt>
<trkpt lat="51.697874" lon="03.814114"><ele>4</ele><time>2021-01-07T12:04:27Z</time><cmt>4.4 kmh</cmt></trkpt>
<trkpt lat="51.697868" lon="03.814131"><ele>4</ele><time>2021-01-07T12:04:28Z</time><cmt>3.9 kmh</cmt></trkpt>
<trkpt lat="51.697865" lon="03.814142"><ele>4</ele><time>2021-01-07T12:04:29Z</time><cmt>3.4 kmh</cmt></trkpt>
<trkpt lat="51.697867" lon="03.814138"><ele>4</ele><time>2021-01-07T12:04:30Z</time><cmt>2.3 kmh</cmt></trkpt>
<trkpt lat="51.697867" lon="03.814137"><ele>4</ele><time>2021-01-07T12:04:31Z</time><cmt>0.6 kmh</cmt></trkpt>
<trkpt lat="51.697868" lon="03.814143"><ele>5</ele><time>2021-01-07T12:04:32Z</time><cmt>0.9 kmh</cmt></trkpt>
<trkpt lat="51.697867" lon="03.814152"><ele>5</ele><time>2021-01-07T12:04:33Z</time><cmt>1.3 kmh</cmt></trkpt>
<trkpt lat="51.697865" lon="03.814163"><ele>5</ele><time>2021-01-07T12:04:34Z</time><cmt>2.7 kmh</cmt></trkpt>
<trkpt lat="51.697863" lon="03.814175"><ele>5</ele><time>2021-01-07T12:04:35Z</time><cmt>2.5 kmh</cmt></trkpt>
<trkpt lat="51.697862" lon="03.814186"><ele>6</ele><time>2021-01-07T12:04:36Z</time><cmt>2.5 kmh</cmt></trkpt>
<trkpt lat="51.697861" lon="03.814194"><ele>6</ele><time>2021-01-07T12:04:37Z</time><cmt>2.7 kmh</cmt></trkpt>
<trkpt lat="51.697861" lon="03.814202"><ele>6</ele><time>2021-01-07T12:04:38Z</time><cmt>2.1 kmh</cmt></trkpt>
<trkpt lat="51.697862" lon="03.814204"><ele>6</ele><time>2021-01-07T12:04:39Z</time><cmt>1.3 kmh</cmt></trkpt>
<trkpt lat="51.697862" lon="03.814205"><ele>6</ele><time>2021-01-07T12:04:40Z</time><cmt>0.4 kmh</cmt></trkpt>
<trkpt lat="51.697862" lon="03.814205"><ele>7</ele><time>2021-01-07T12:04:41Z</time><cmt>0.0 kmh</cmt></trkpt>
<trkpt lat="51.697863" lon="03.814205"><ele>7</ele><time>2021-01-07T12:04:42Z</time><cmt>0.0 kmh</cmt></trkpt>
<trkpt lat="51.697863" lon="03.814208"><ele>7</ele><time>2021-01-07T12:04:43Z</time><cmt>0.4 kmh</cmt></trkpt>
<trkpt lat="51.697857" lon="03.814214"><ele>7</ele><time>2021-01-07T12:04:44Z</time><cmt>1.9 kmh</cmt></trkpt>
<trkpt lat="51.697848" lon="03.814226"><ele>7</ele><time>2021-01-07T12:04:45Z</time><cmt>3.9 kmh</cmt></trkpt>
<trkpt lat="51.697841" lon="03.814239"><ele>7</ele><time>2021-01-07T12:04:46Z</time><cmt>4.8 kmh</cmt></trkpt>
<trkpt lat="51.697834" lon="03.814249"><ele>7</ele><time>2021-01-07T12:04:47Z</time><cmt>3.5 kmh</cmt></trkpt>
<trkpt lat="51.697829" lon="03.814259"><ele>7</ele><time>2021-01-07T12:04:48Z</time><cmt>2.9 kmh</cmt></trkpt>
<trkpt lat="51.697825" lon="03.814270"><ele>7</ele><time>2021-01-07T12:04:49Z</time><cmt>3.4 kmh</cmt></trkpt>
<trkpt lat="51.697820" lon="03.814282"><ele>6</ele><time>2021-01-07T12:04:50Z</time><cmt>3.7 kmh</cmt></trkpt>
<trkpt lat="51.697816" lon="03.814295"><ele>6</ele><time>2021-01-07T12:04:51Z</time><cmt>3.9 kmh</cmt></trkpt>
<trkpt lat="51.697811" lon="03.814308"><ele>6</ele><time>2021-01-07T12:04:52Z</time><cmt>4.0 kmh</cmt></trkpt>
<trkpt lat="51.697806" lon="03.814321"><ele>6</ele><time>2021-01-07T12:04:53Z</time><cmt>4.1 kmh</cmt></trkpt>
<trkpt lat="51.697801" lon="03.814335"><ele>6</ele><time>2021-01-07T12:04:54Z</time><cmt>3.4 kmh</cmt></trkpt>
<trkpt lat="51.697797" lon="03.814348"><ele>6</ele><time>2021-01-07T12:04:55Z</time><cmt>3.3 kmh</cmt></trkpt>
<trkpt lat="51.697793" lon="03.814360"><ele>6</ele><time>2021-01-07T12:04:56Z</time><cmt>3.7 kmh</cmt></trkpt>
<trkpt lat="51.697790" lon="03.814370"><ele>6</ele><time>2021-01-07T12:04:57Z</time><cmt>3.3 kmh</cmt></trkpt>
<trkpt lat="51.697788" lon="03.814380"><ele>5</ele><time>2021-01-07T12:04:58Z</time><cmt>2.9 kmh</cmt></trkpt>
<trkpt lat="51.697786" lon="03.814389"><ele>5</ele><time>2021-01-07T12:04:59Z</time><cmt>2.7 kmh</cmt></trkpt>
<trkpt lat="51.697784" lon="03.814397"><ele>5</ele><time>2021-01-07T12:05:00Z</time><cmt>2.0 kmh</cmt></trkpt>
<trkpt lat="51.697782" lon="03.814404"><ele>5</ele><time>2021-01-07T12:05:01Z</time><cmt>1.7 kmh</cmt></trkpt>
<trkpt lat="51.697782" lon="03.814407"><ele>5</ele><time>2021-01-07T12:05:02Z</time><cmt>1.4 kmh</cmt></trkpt>
<trkpt lat="51.697782" lon="03.814409"><ele>5</ele><time>2021-01-07T12:05:03Z</time><cmt>0.7 kmh</cmt></trkpt>
<trkpt lat="51.697785" lon="03.814411"><ele>5</ele><time>2021-01-07T12:05:04Z</time><cmt>1.0 kmh</cmt></trkpt>
<trkpt lat="51.697789" lon="03.814413"><ele>5</ele><time>2021-01-07T12:05:05Z</time><cmt>1.6 kmh</cmt></trkpt>
<trkpt lat="51.697792" lon="03.814415"><ele>5</ele><time>2021-01-07T12:05:06Z</time><cmt>1.3 kmh</cmt></trkpt>
<trkpt lat="51.697794" lon="03.814420"><ele>5</ele><time>2021-01-07T12:05:07Z</time><cmt>1.2 kmh</cmt></trkpt>
<trkpt lat="51.697793" lon="03.814428"><ele>6</ele><time>2021-01-07T12:05:08Z</time><cmt>1.9 kmh</cmt></trkpt>
<trkpt lat="51.697792" lon="03.814440"><ele>6</ele><time>2021-01-07T12:05:09Z</time><cmt>2.7 kmh</cmt></trkpt>
<trkpt lat="51.697790" lon="03.814453"><ele>6</ele><time>2021-01-07T12:05:10Z</time><cmt>3.4 kmh</cmt></trkpt>
<trkpt lat="51.697787" lon="03.814469"><ele>6</ele><time>2021-01-07T12:05:11Z</time><cmt>4.0 kmh</cmt></trkpt>
<trkpt lat="51.697784" lon="03.814485"><ele>6</ele><time>2021-01-07T12:05:12Z</time><cmt>4.4 kmh</cmt></trkpt>
<trkpt lat="51.697781" lon="03.814499"><ele>6</ele><time>2021-01-07T12:05:13Z</time><cmt>3.4 kmh</cmt></trkpt>
<trkpt lat="51.697777" lon="03.814513"><ele>7</ele><time>2021-01-07T12:05:14Z</time><cmt>3.3 kmh</cmt></trkpt>
<trkpt lat="51.697772" lon="03.814528"><ele>7</ele><time>2021-01-07T12:05:15Z</time><cmt>4.4 kmh</cmt></trkpt>
<trkpt lat="51.697766" lon="03.814545"><ele>7</ele><time>2021-01-07T12:05:16Z</time><cmt>4.9 kmh</cmt></trkpt>
<trkpt lat="51.697761" lon="03.814561"><ele>7</ele><time>2021-01-07T12:05:17Z</time><cmt>4.9 kmh</cmt></trkpt>
<trkpt lat="51.697757" lon="03.814576"><ele>8</ele><time>2021-01-07T12:05:18Z</time><cmt>4.5 kmh</cmt></trkpt>
<trkpt lat="51.697752" lon="03.814591"><ele>8</ele><time>2021-01-07T12:05:19Z</time><cmt>3.6 kmh</cmt></trkpt>
<trkpt lat="51.697748" lon="03.814606"><ele>8</ele><time>2021-01-07T12:05:20Z</time><cmt>3.6 kmh</cmt></trkpt>
<trkpt lat="51.697743" lon="03.814621"><ele>8</ele><time>2021-01-07T12:05:21Z</time><cmt>4.4 kmh</cmt></trkpt>
<trkpt lat="51.697739" lon="03.814635"><ele>8</ele><time>2021-01-07T12:05:22Z</time><cmt>4.4 kmh</cmt></trkpt>
<trkpt lat="51.697735" lon="03.814649"><ele>9</ele><time>2021-01-07T12:05:23Z</time><cmt>4.3 kmh</cmt></trkpt>
<trkpt lat="51.697730" lon="03.814663"><ele>9</ele><time>2021-01-07T12:05:24Z</time><cmt>4.2 kmh</cmt></trkpt>
<trkpt lat="51.697724" lon="03.814679"><ele>9</ele><time>2021-01-07T12:05:25Z</time><cmt>3.7 kmh</cmt></trkpt>
<trkpt lat="51.697718" lon="03.814697"><ele>9</ele><time>2021-01-07T12:05:26Z</time><cmt>4.1 kmh</cmt></trkpt>
<trkpt lat="51.697710" lon="03.814715"><ele>9</ele><time>2021-01-07T12:05:27Z</time><cmt>5.0 kmh</cmt></trkpt>
<trkpt lat="51.697704" lon="03.814733"><ele>9</ele><time>2021-01-07T12:05:28Z</time><cmt>5.0 kmh</cmt></trkpt>
<trkpt lat="51.697696" lon="03.814752"><ele>10</ele><time>2021-01-07T12:05:29Z</time><cmt>5.0 kmh</cmt></trkpt>
<trkpt lat="51.697689" lon="03.814771"><ele>10</ele><time>2021-01-07T12:05:30Z</time><cmt>5.0 kmh</cmt></trkpt>
<trkpt lat="51.697682" lon="03.814790"><ele>10</ele><time>2021-01-07T12:05:31Z</time><cmt>5.0 kmh</cmt></trkpt>
<trkpt lat="51.697674" lon="03.814811"><ele>9</ele><time>2021-01-07T12:05:32Z</time><cmt>5.3 kmh</cmt></trkpt>
<trkpt lat="51.697667" lon="03.814830"><ele>9</ele><time>2021-01-07T12:05:33Z</time><cmt>5.0 kmh</cmt></trkpt>
<trkpt lat="51.697660" lon="03.814848"><ele>9</ele><time>2021-01-07T12:05:34Z</time><cmt>5.0 kmh</cmt></trkpt>
<trkpt lat="51.697654" lon="03.814866"><ele>9</ele><time>2021-01-07T12:05:35Z</time><cmt>5.0 kmh</cmt></trkpt>
<trkpt lat="51.697648" lon="03.814882"><ele>9</ele><time>2021-01-07T12:05:36Z</time><cmt>5.0 kmh</cmt></trkpt>
<trkpt lat="51.697640" lon="03.814904"><ele>9</ele><time>2021-01-07T12:05:37Z</time><cmt>5.0 kmh</cmt></trkpt>
<trkpt lat="51.697629" lon="03.814930"><ele>9</ele><time>2021-01-07T12:05:38Z</time><cmt>5.0 kmh</cmt></trkpt>
<trkpt lat="51.697622" lon="03.814947"><ele>9</ele><time>2021-01-07T12:05:39Z</time><cmt>5.0 kmh</cmt></trkpt>
<trkpt lat="51.697614" lon="03.814969"><ele>9</ele><time>2021-01-07T12:05:40Z</time><cmt>5.0 kmh</cmt></trkpt>
<trkpt lat="51.697607" lon="03.814990"><ele>8</ele><time>2021-01-07T12:05:41Z</time><cmt>5.0 kmh</cmt></trkpt>
<trkpt lat="51.697600" lon="03.815008"><ele>8</ele><time>2021-01-07T12:05:42Z</time><cmt>5.0 kmh</cmt></trkpt>
<trkpt lat="51.697594" lon="03.815026"><ele>8</ele><time>2021-01-07T12:05:43Z</time><cmt>5.0 kmh</cmt></trkpt>
<trkpt lat="51.697587" lon="03.815044"><ele>8</ele><time>2021-01-07T12:05:44Z</time><cmt>4.5 kmh</cmt></trkpt>
<trkpt lat="51.697579" lon="03.815066"><ele>8</ele><time>2021-01-07T12:05:45Z</time><cmt>5.3 kmh</cmt></trkpt>
<trkpt lat="51.697572" lon="03.815084"><ele>8</ele><time>2021-01-07T12:05:46Z</time><cmt>5.3 kmh</cmt></trkpt>
<trkpt lat="51.697567" lon="03.815101"><ele>8</ele><time>2021-01-07T12:05:47Z</time><cmt>5.0 kmh</cmt></trkpt>
<trkpt lat="51.697561" lon="03.815117"><ele>8</ele><time>2021-01-07T12:05:48Z</time><cmt>5.0 kmh</cmt></trkpt>
<trkpt lat="51.697555" lon="03.815133"><ele>8</ele><time>2021-01-07T12:05:49Z</time><cmt>5.0 kmh</cmt></trkpt>
<trkpt lat="51.697549" lon="03.815148"><ele>8</ele><time>2021-01-07T12:05:50Z</time><cmt>4.8 kmh</cmt></trkpt>
<trkpt lat="51.697544" lon="03.815163"><ele>8</ele><time>2021-01-07T12:05:51Z</time><cmt>3.7 kmh</cmt></trkpt>
<trkpt lat="51.697539" lon="03.815179"><ele>8</ele><time>2021-01-07T12:05:52Z</time><cmt>3.7 kmh</cmt></trkpt>
<trkpt lat="51.697535" lon="03.815193"><ele>8</ele><time>2021-01-07T12:05:53Z</time><cmt>4.5 kmh</cmt></trkpt>
<trkpt lat="51.697529" lon="03.815209"><ele>8</ele><time>2021-01-07T12:05:54Z</time><cmt>4.6 kmh</cmt></trkpt>
<trkpt lat="51.697522" lon="03.815228"><ele>8</ele><time>2021-01-07T12:05:55Z</time><cmt>5.0 kmh</cmt></trkpt>
<trkpt lat="51.697515" lon="03.815246"><ele>8</ele><time>2021-01-07T12:05:56Z</time><cmt>5.0 kmh</cmt></trkpt>
<trkpt lat="51.697509" lon="03.815263"><ele>7</ele><time>2021-01-07T12:05:57Z</time><cmt>4.4 kmh</cmt></trkpt>
<trkpt lat="51.697503" lon="03.815278"><ele>7</ele><time>2021-01-07T12:05:58Z</time><cmt>4.1 kmh</cmt></trkpt>
<trkpt lat="51.697498" lon="03.815292"><ele>7</ele><time>2021-01-07T12:05:59Z</time><cmt>4.6 kmh</cmt></trkpt>
<trkpt lat="51.697493" lon="03.815306"><ele>7</ele><time>2021-01-07T12:06:00Z</time><cmt>4.2 kmh</cmt></trkpt>
<trkpt lat="51.697488" lon="03.815320"><ele>7</ele><time>2021-01-07T12:06:01Z</time><cmt>4.3 kmh</cmt></trkpt>
<trkpt lat="51.697482" lon="03.815336"><ele>7</ele><time>2021-01-07T12:06:02Z</time><cmt>4.6 kmh</cmt></trkpt>
<trkpt lat="51.697477" lon="03.815352"><ele>6</ele><time>2021-01-07T12:06:03Z</time><cmt>3.9 kmh</cmt></trkpt>
<trkpt lat="51.697474" lon="03.815363"><ele>6</ele><time>2021-01-07T12:06:04Z</time><cmt>3.2 kmh</cmt></trkpt>
<trkpt lat="51.697468" lon="03.815375"><ele>6</ele><time>2021-01-07T12:06:05Z</time><cmt>3.7 kmh</cmt></trkpt>
<trkpt lat="51.697465" lon="03.815378"><ele>6</ele><time>2021-01-07T12:06:06Z</time><cmt>2.8 kmh</cmt></trkpt>
<trkpt lat="51.697464" lon="03.815381"><ele>6</ele><time>2021-01-07T12:06:07Z</time><cmt>1.1 kmh</cmt></trkpt>
<trkpt lat="51.697464" lon="03.815382"><ele>5</ele><time>2021-01-07T12:06:08Z</time><cmt>0.6 kmh</cmt></trkpt>
<trkpt lat="51.697463" lon="03.815386"><ele>5</ele><time>2021-01-07T12:06:09Z</time><cmt>0.8 kmh</cmt></trkpt>
<trkpt lat="51.697461" lon="03.815392"><ele>5</ele><time>2021-01-07T12:06:10Z</time><cmt>1.2 kmh</cmt></trkpt>
<trkpt lat="51.697457" lon="03.815402"><ele>5</ele><time>2021-01-07T12:06:11Z</time><cmt>2.0 kmh</cmt></trkpt>
<trkpt lat="51.697454" lon="03.815414"><ele>5</ele><time>2021-01-07T12:06:12Z</time><cmt>3.4 kmh</cmt></trkpt>
<trkpt lat="51.697449" lon="03.815427"><ele>5</ele><time>2021-01-07T12:06:13Z</time><cmt>3.7 kmh</cmt></trkpt>
<trkpt lat="51.697443" lon="03.815440"><ele>5</ele><time>2021-01-07T12:06:14Z</time><cmt>4.1 kmh</cmt></trkpt>
<trkpt lat="51.697438" lon="03.815454"><ele>5</ele><time>2021-01-07T12:06:15Z</time><cmt>4.4 kmh</cmt></trkpt>
<trkpt lat="51.697433" lon="03.815469"><ele>4</ele><time>2021-01-07T12:06:16Z</time><cmt>3.6 kmh</cmt></trkpt>
<trkpt lat="51.697428" lon="03.815483"><ele>4</ele><time>2021-01-07T12:06:17Z</time><cmt>3.6 kmh</cmt></trkpt>
<trkpt lat="51.697422" lon="03.815497"><ele>4</ele><time>2021-01-07T12:06:18Z</time><cmt>4.5 kmh</cmt></trkpt>
<trkpt lat="51.697415" lon="03.815512"><ele>4</ele><time>2021-01-07T12:06:19Z</time><cmt>4.6 kmh</cmt></trkpt>
<trkpt lat="51.697409" lon="03.815527"><ele>4</ele><time>2021-01-07T12:06:20Z</time><cmt>4.8 kmh</cmt></trkpt>
<trkpt lat="51.697403" lon="03.815542"><ele>4</ele><time>2021-01-07T12:06:21Z</time><cmt>4.8 kmh</cmt></trkpt>
<trkpt lat="51.697397" lon="03.815556"><ele>4</ele><time>2021-01-07T12:06:22Z</time><cmt>3.7 kmh</cmt></trkpt>
<trkpt lat="51.697391" lon="03.815569"><ele>4</ele><time>2021-01-07T12:06:23Z</time><cmt>3.6 kmh</cmt></trkpt>
<trkpt lat="51.697384" lon="03.815581"><ele>4</ele><time>2021-01-07T12:06:24Z</time><cmt>4.4 kmh</cmt></trkpt>
<trkpt lat="51.697378" lon="03.815594"><ele>4</ele><time>2021-01-07T12:06:25Z</time><cmt>4.3 kmh</cmt></trkpt>
<trkpt lat="51.697372" lon="03.815613"><ele>4</ele><time>2021-01-07T12:06:26Z</time><cmt>5.0 kmh</cmt></trkpt>
<trkpt lat="51.697370" lon="03.815627"><ele>4</ele><time>2021-01-07T12:06:27Z</time><cmt>4.8 kmh</cmt></trkpt>
<trkpt lat="51.697368" lon="03.815638"><ele>4</ele><time>2021-01-07T12:06:28Z</time><cmt>3.4 kmh</cmt></trkpt>
<trkpt lat="51.697365" lon="03.815651"><ele>4</ele><time>2021-01-07T12:06:29Z</time><cmt>2.7 kmh</cmt></trkpt>
<trkpt lat="51.697364" lon="03.815663"><ele>4</ele><time>2021-01-07T12:06:30Z</time><cmt>2.8 kmh</cmt></trkpt>
<trkpt lat="51.697359" lon="03.815678"><ele>4</ele><time>2021-01-07T12:06:31Z</time><cmt>3.8 kmh</cmt></trkpt>
<trkpt lat="51.697357" lon="03.815687"><ele>4</ele><time>2021-01-07T12:06:32Z</time><cmt>3.5 kmh</cmt></trkpt>
<trkpt lat="51.697353" lon="03.815697"><ele>4</ele><time>2021-01-07T12:06:33Z</time><cmt>2.9 kmh</cmt></trkpt>
<trkpt lat="51.697348" lon="03.815709"><ele>4</ele><time>2021-01-07T12:06:34Z</time><cmt>3.6 kmh</cmt></trkpt>
<trkpt lat="51.697341" lon="03.815725"><ele>4</ele><time>2021-01-07T12:06:35Z</time><cmt>3.6 kmh</cmt></trkpt>
<trkpt lat="51.697335" lon="03.815739"><ele>4</ele><time>2021-01-07T12:06:36Z</time><cmt>3.9 kmh</cmt></trkpt>
<trkpt lat="51.697329" lon="03.815754"><ele>4</ele><time>2021-01-07T12:06:37Z</time><cmt>4.7 kmh</cmt></trkpt>
<trkpt lat="51.697324" lon="03.815770"><ele>4</ele><time>2021-01-07T12:06:38Z</time><cmt>4.7 kmh</cmt></trkpt>
<trkpt lat="51.697321" lon="03.815785"><ele>4</ele><time>2021-01-07T12:06:39Z</time><cmt>4.5 kmh</cmt></trkpt>
<trkpt lat="51.697317" lon="03.815800"><ele>4</ele><time>2021-01-07T12:06:40Z</time><cmt>4.3 kmh</cmt></trkpt>
<trkpt lat="51.697312" lon="03.815813"><ele>4</ele><time>2021-01-07T12:06:41Z</time><cmt>3.4 kmh</cmt></trkpt>
<trkpt lat="51.697306" lon="03.815827"><ele>4</ele><time>2021-01-07T12:06:42Z</time><cmt>3.5 kmh</cmt></trkpt>
<trkpt lat="51.697300" lon="03.815841"><ele>4</ele><time>2021-01-07T12:06:43Z</time><cmt>4.4 kmh</cmt></trkpt>
<trkpt lat="51.697295" lon="03.815854"><ele>4</ele><time>2021-01-07T12:06:44Z</time><cmt>4.2 kmh</cmt></trkpt>
<trkpt lat="51.697291" lon="03.815865"><ele>4</ele><time>2021-01-07T12:06:45Z</time><cmt>3.9 kmh</cmt></trkpt>
<trkpt lat="51.697286" lon="03.815877"><ele>4</ele><time>2021-01-07T12:06:46Z</time><cmt>3.8 kmh</cmt></trkpt>
<trkpt lat="51.697281" lon="03.815889"><ele>4</ele><time>2021-01-07T12:06:47Z</time><cmt>3.8 kmh</cmt></trkpt>
<trkpt lat="51.697276" lon="03.815902"><ele>4</ele><time>2021-01-07T12:06:48Z</time><cmt>3.1 kmh</cmt></trkpt>
<trkpt lat="51.697270" lon="03.815914"><ele>3</ele><time>2021-01-07T12:06:49Z</time><cmt>3.2 kmh</cmt></trkpt>
<trkpt lat="51.697265" lon="03.815927"><ele>3</ele><time>2021-01-07T12:06:50Z</time><cmt>4.1 kmh</cmt></trkpt>
<trkpt lat="51.697260" lon="03.815940"><ele>3</ele><time>2021-01-07T12:06:51Z</time><cmt>4.0 kmh</cmt></trkpt>
<trkpt lat="51.697256" lon="03.815951"><ele>3</ele><time>2021-01-07T12:06:52Z</time><cmt>3.7 kmh</cmt></trkpt>
<trkpt lat="51.697253" lon="03.815963"><ele>3</ele><time>2021-01-07T12:06:53Z</time><cmt>3.5 kmh</cmt></trkpt>
<trkpt lat="51.697249" lon="03.815976"><ele>3</ele><time>2021-01-07T12:06:54Z</time><cmt>2.9 kmh</cmt></trkpt>
<trkpt lat="51.697243" lon="03.815990"><ele>3</ele><time>2021-01-07T12:06:55Z</time><cmt>3.3 kmh</cmt></trkpt>
<trkpt lat="51.697239" lon="03.816003"><ele>3</ele><time>2021-01-07T12:06:56Z</time><cmt>4.2 kmh</cmt></trkpt>
<trkpt lat="51.697236" lon="03.816013"><ele>3</ele><time>2021-01-07T12:06:57Z</time><cmt>3.4 kmh</cmt></trkpt>
<trkpt lat="51.697233" lon="03.816022"><ele>3</ele><time>2021-01-07T12:06:58Z</time><cmt>2.9 kmh</cmt></trkpt>
<trkpt lat="51.697228" lon="03.816035"><ele>3</ele><time>2021-01-07T12:06:59Z</time><cmt>3.4 kmh</cmt></trkpt>
<trkpt lat="51.697223" lon="03.816046"><ele>3</ele><time>2021-01-07T12:07:00Z</time><cmt>3.0 kmh</cmt></trkpt>
<trkpt lat="51.697220" lon="03.816055"><ele>3</ele><time>2021-01-07T12:07:01Z</time><cmt>2.6 kmh</cmt></trkpt>
<trkpt lat="51.697216" lon="03.816065"><ele>3</ele><time>2021-01-07T12:07:02Z</time><cmt>3.1 kmh</cmt></trkpt>
<trkpt lat="51.697211" lon="03.816076"><ele>3</ele><time>2021-01-07T12:07:03Z</time><cmt>3.3 kmh</cmt></trkpt>
<trkpt lat="51.697206" lon="03.816085"><ele>3</ele><time>2021-01-07T12:07:04Z</time><cmt>3.4 kmh</cmt></trkpt>
<trkpt lat="51.697203" lon="03.816091"><ele>3</ele><time>2021-01-07T12:07:05Z</time><cmt>2.6 kmh</cmt></trkpt>
<trkpt lat="51.697195" lon="03.816109"><ele>3</ele><time>2021-01-07T12:07:06Z</time><cmt>4.0 kmh</cmt></trkpt>
<trkpt lat="51.697191" lon="03.816120"><ele>3</ele><time>2021-01-07T12:07:07Z</time><cmt>3.8 kmh</cmt></trkpt>
<trkpt lat="51.697189" lon="03.816131"><ele>3</ele><time>2021-01-07T12:07:08Z</time><cmt>2.6 kmh</cmt></trkpt>
<trkpt lat="51.697187" lon="03.816141"><ele>3</ele><time>2021-01-07T12:07:09Z</time><cmt>3.0 kmh</cmt></trkpt>
<trkpt lat="51.697186" lon="03.816150"><ele>3</ele><time>2021-01-07T12:07:10Z</time><cmt>2.7 kmh</cmt></trkpt>
<trkpt lat="51.697183" lon="03.816162"><ele>3</ele><time>2021-01-07T12:07:11Z</time><cmt>2.8 kmh</cmt></trkpt>
<trkpt lat="51.697180" lon="03.816172"><ele>3</ele><time>2021-01-07T12:07:12Z</time><cmt>3.1 kmh</cmt></trkpt>
<trkpt lat="51.697178" lon="03.816177"><ele>3</ele><time>2021-01-07T12:07:13Z</time><cmt>1.8 kmh</cmt></trkpt>
<trkpt lat="51.697177" lon="03.816178"><ele>3</ele><time>2021-01-07T12:07:14Z</time><cmt>0.8 kmh</cmt></trkpt>
<trkpt lat="51.697176" lon="03.816178"><ele>3</ele><time>2021-01-07T12:07:15Z</time><cmt>0.5 kmh</cmt></trkpt>
<trkpt lat="51.697175" lon="03.816179"><ele>3</ele><time>2021-01-07T12:07:16Z</time><cmt>0.4 kmh</cmt></trkpt>
<trkpt lat="51.697173" lon="03.816181"><ele>3</ele><time>2021-01-07T12:07:17Z</time><cmt>0.7 kmh</cmt></trkpt>
<trkpt lat="51.697172" lon="03.816181"><ele>3</ele><time>2021-01-07T12:07:18Z</time><cmt>0.9 kmh</cmt></trkpt>
<trkpt lat="51.697171" lon="03.816181"><ele>3</ele><time>2021-01-07T12:07:19Z</time><cmt>0.4 kmh</cmt></trkpt>
<trkpt lat="51.697172" lon="03.816180"><ele>2</ele><time>2021-01-07T12:07:20Z</time><cmt>0.1 kmh</cmt></trkpt>
<trkpt lat="51.697173" lon="03.816179"><ele>2</ele><time>2021-01-07T12:07:21Z</time><cmt>0.4 kmh</cmt></trkpt>
<trkpt lat="51.697174" lon="03.816179"><ele>2</ele><time>2021-01-07T12:07:22Z</time><cmt>0.5 kmh</cmt></trkpt>
<trkpt lat="51.697175" lon="03.816179"><ele>2</ele><time>2021-01-07T12:07:23Z</time><cmt>0.5 kmh</cmt></trkpt>
<trkpt lat="51.697177" lon="03.816178"><ele>2</ele><time>2021-01-07T12:07:24Z</time><cmt>0.4 kmh</cmt></trkpt>
<trkpt lat="51.697176" lon="03.816180"><ele>2</ele><time>2021-01-07T12:07:25Z</time><cmt>0.4 kmh</cmt></trkpt>
<trkpt lat="51.697177" lon="03.816182"><ele>2</ele><time>2021-01-07T12:07:26Z</time><cmt>0.4 kmh</cmt></trkpt>
<trkpt lat="51.697198" lon="03.816183"><ele>2</ele><time>2021-01-07T12:07:32Z</time><cmt>2.7 kmh</cmt></trkpt>
<trkpt lat="51.697201" lon="03.816183"><ele>2</ele><time>2021-01-07T12:07:33Z</time><cmt>3.1 kmh</cmt></trkpt>
<trkpt lat="51.697203" lon="03.816183"><ele>3</ele><time>2021-01-07T12:07:34Z</time><cmt>1.1 kmh</cmt></trkpt>
<trkpt lat="51.697206" lon="03.816183"><ele>3</ele><time>2021-01-07T12:07:35Z</time><cmt>0.9 kmh</cmt></trkpt>
<trkpt lat="51.697231" lon="03.816220"><ele>3</ele><time>2021-01-07T12:07:59Z</time><cmt>5.0 kmh</cmt></trkpt>
<trkpt lat="51.697332" lon="03.816324"><ele>3</ele><time>2021-01-07T12:08:33Z</time><cmt>5.0 kmh</cmt></trkpt>
<trkpt lat="51.697362" lon="03.816357"><ele>1</ele><time>2021-01-07T12:08:36Z</time><cmt>4.5 kmh</cmt></trkpt>
<trkpt lat="51.697363" lon="03.816390"><ele>1</ele><time>2021-01-07T12:08:38Z</time><cmt>5.0 kmh</cmt></trkpt>
<trkpt lat="51.697361" lon="03.816401"><ele>1</ele><time>2021-01-07T12:08:39Z</time><cmt>4.0 kmh</cmt></trkpt>
<trkpt lat="51.697358" lon="03.816412"><ele>1</ele><time>2021-01-07T12:08:40Z</time><cmt>3.2 kmh</cmt></trkpt>
<trkpt lat="51.697355" lon="03.816423"><ele>1</ele><time>2021-01-07T12:08:41Z</time><cmt>3.2 kmh</cmt></trkpt>
<trkpt lat="51.697353" lon="03.816436"><ele>1</ele><time>2021-01-07T12:08:42Z</time><cmt>2.7 kmh</cmt></trkpt>
<trkpt lat="51.697351" lon="03.816448"><ele>1</ele><time>2021-01-07T12:08:43Z</time><cmt>2.8 kmh</cmt></trkpt>
<trkpt lat="51.697346" lon="03.816460"><ele>1</ele><time>2021-01-07T12:08:44Z</time><cmt>3.6 kmh</cmt></trkpt>
<trkpt lat="51.697343" lon="03.816473"><ele>1</ele><time>2021-01-07T12:08:45Z</time><cmt>3.8 kmh</cmt></trkpt>
<trkpt lat="51.697340" lon="03.816486"><ele>1</ele><time>2021-01-07T12:08:46Z</time><cmt>3.7 kmh</cmt></trkpt>
<trkpt lat="51.697340" lon="03.816498"><ele>1</ele><time>2021-01-07T12:08:47Z</time><cmt>3.3 kmh</cmt></trkpt>
<trkpt lat="51.697338" lon="03.816509"><ele>1</ele><time>2021-01-07T12:08:48Z</time><cmt>3.1 kmh</cmt></trkpt>
<trkpt lat="51.697336" lon="03.816520"><ele>1</ele><time>2021-01-07T12:08:49Z</time><cmt>2.5 kmh</cmt></trkpt>
<trkpt lat="51.697334" lon="03.816531"><ele>1</ele><time>2021-01-07T12:08:50Z</time><cmt>2.5 kmh</cmt></trkpt>
<trkpt lat="51.697331" lon="03.816540"><ele>1</ele><time>2021-01-07T12:08:51Z</time><cmt>2.9 kmh</cmt></trkpt>
<trkpt lat="51.697328" lon="03.816548"><ele>0</ele><time>2021-01-07T12:08:52Z</time><cmt>2.5 kmh</cmt></trkpt>
<trkpt lat="51.697326" lon="03.816554"><ele>0</ele><time>2021-01-07T12:08:53Z</time><cmt>2.1 kmh</cmt></trkpt>
<trkpt lat="51.697323" lon="03.816562"><ele>0</ele><time>2021-01-07T12:08:54Z</time><cmt>2.2 kmh</cmt></trkpt>
<trkpt lat="51.697322" lon="03.816568"><ele>0</ele><time>2021-01-07T12:08:55Z</time><cmt>1.6 kmh</cmt></trkpt>
<trkpt lat="51.697320" lon="03.816574"><ele>0</ele><time>2021-01-07T12:08:56Z</time><cmt>1.3 kmh</cmt></trkpt>
<trkpt lat="51.697317" lon="03.816584"><ele>0</ele><time>2021-01-07T12:08:57Z</time><cmt>2.4 kmh</cmt></trkpt>
<trkpt lat="51.697312" lon="03.816599"><ele>0</ele><time>2021-01-07T12:08:58Z</time><cmt>3.8 kmh</cmt></trkpt>
<trkpt lat="51.697306" lon="03.816619"><ele>0</ele><time>2021-01-07T12:08:59Z</time><cmt>5.0 kmh</cmt></trkpt>
<trkpt lat="51.697302" lon="03.816631"><ele>0</ele><time>2021-01-07T12:09:00Z</time><cmt>4.8 kmh</cmt></trkpt>
<trkpt lat="51.697299" lon="03.816643"><ele>0</ele><time>2021-01-07T12:09:01Z</time><cmt>2.9 kmh</cmt></trkpt>
<trkpt lat="51.697296" lon="03.816652"><ele>0</ele><time>2021-01-07T12:09:02Z</time><cmt>2.4 kmh</cmt></trkpt>
<trkpt lat="51.697293" lon="03.816663"><ele>0</ele><time>2021-01-07T12:09:03Z</time><cmt>2.9 kmh</cmt></trkpt>
<trkpt lat="51.697289" lon="03.816674"><ele>0</ele><time>2021-01-07T12:09:04Z</time><cmt>3.4 kmh</cmt></trkpt>
<trkpt lat="51.697285" lon="03.816686"><ele>0</ele><time>2021-01-07T12:09:05Z</time><cmt>3.5 kmh</cmt></trkpt>
<trkpt lat="51.697279" lon="03.816699"><ele>0</ele><time>2021-01-07T12:09:06Z</time><cmt>4.0 kmh</cmt></trkpt>
<trkpt lat="51.697273" lon="03.816713"><ele>0</ele><time>2021-01-07T12:09:07Z</time><cmt>4.4 kmh</cmt></trkpt>
<trkpt lat="51.697267" lon="03.816727"><ele>0</ele><time>2021-01-07T12:09:08Z</time><cmt>3.6 kmh</cmt></trkpt>
<trkpt lat="51.697260" lon="03.816741"><ele>0</ele><time>2021-01-07T12:09:09Z</time><cmt>3.7 kmh</cmt></trkpt>
<trkpt lat="51.697252" lon="03.816756"><ele>0</ele><time>2021-01-07T12:09:10Z</time><cmt>5.0 kmh</cmt></trkpt>
<trkpt lat="51.697246" lon="03.816769"><ele>0</ele><time>2021-01-07T12:09:11Z</time><cmt>4.9 kmh</cmt></trkpt>
<trkpt lat="51.697239" lon="03.816784"><ele>0</ele><time>2021-01-07T12:09:12Z</time><cmt>4.7 kmh</cmt></trkpt>
<trkpt lat="51.697231" lon="03.816798"><ele>0</ele><time>2021-01-07T12:09:13Z</time><cmt>5.0 kmh</cmt></trkpt>
<trkpt lat="51.697222" lon="03.816815"><ele>0</ele><time>2021-01-07T12:09:14Z</time><cmt>4.4 kmh</cmt></trkpt>
<trkpt lat="51.697212" lon="03.816829"><ele>0</ele><time>2021-01-07T12:09:15Z</time><cmt>4.7 kmh</cmt></trkpt>
<trkpt lat="51.697203" lon="03.816841"><ele>0</ele><time>2021-01-07T12:09:16Z</time><cmt>5.0 kmh</cmt></trkpt>
<trkpt lat="51.697196" lon="03.816853"><ele>0</ele><time>2021-01-07T12:09:17Z</time><cmt>4.8 kmh</cmt></trkpt>
<trkpt lat="51.697189" lon="03.816868"><ele>0</ele><time>2021-01-07T12:09:18Z</time><cmt>4.7 kmh</cmt></trkpt>
<trkpt lat="51.697182" lon="03.816881"><ele>0</ele><time>2021-01-07T12:09:19Z</time><cmt>4.7 kmh</cmt></trkpt>
<trkpt lat="51.697177" lon="03.816891"><ele>0</ele><time>2021-01-07T12:09:20Z</time><cmt>3.2 kmh</cmt></trkpt>
<trkpt lat="51.697171" lon="03.816901"><ele>0</ele><time>2021-01-07T12:09:21Z</time><cmt>2.9 kmh</cmt></trkpt>
<trkpt lat="51.697164" lon="03.816915"><ele>0</ele><time>2021-01-07T12:09:22Z</time><cmt>4.2 kmh</cmt></trkpt>
<trkpt lat="51.697157" lon="03.816930"><ele>0</ele><time>2021-01-07T12:09:23Z</time><cmt>4.8 kmh</cmt></trkpt>
<trkpt lat="51.697152" lon="03.816942"><ele>0</ele><time>2021-01-07T12:09:24Z</time><cmt>4.5 kmh</cmt></trkpt>
<trkpt lat="51.697145" lon="03.816958"><ele>0</ele><time>2021-01-07T12:09:25Z</time><cmt>4.6 kmh</cmt></trkpt>
<trkpt lat="51.697139" lon="03.816972"><ele>0</ele><time>2021-01-07T12:09:26Z</time><cmt>4.9 kmh</cmt></trkpt>
<trkpt lat="51.697133" lon="03.816986"><ele>0</ele><time>2021-01-07T12:09:27Z</time><cmt>3.7 kmh</cmt></trkpt>
<trkpt lat="51.697127" lon="03.817003"><ele>0</ele><time>2021-01-07T12:09:28Z</time><cmt>3.9 kmh</cmt></trkpt>
<trkpt lat="51.697121" lon="03.817021"><ele>0</ele><time>2021-01-07T12:09:29Z</time><cmt>5.0 kmh</cmt></trkpt>
<trkpt lat="51.697117" lon="03.817037"><ele>0</ele><time>2021-01-07T12:09:30Z</time><cmt>5.0 kmh</cmt></trkpt>
<trkpt lat="51.697113" lon="03.817052"><ele>0</ele><time>2021-01-07T12:09:31Z</time><cmt>4.5 kmh</cmt></trkpt>
<trkpt lat="51.697107" lon="03.817070"><ele>0</ele><time>2021-01-07T12:09:32Z</time><cmt>5.0 kmh</cmt></trkpt>
<trkpt lat="51.697101" lon="03.817086"><ele>0</ele><time>2021-01-07T12:09:33Z</time><cmt>4.2 kmh</cmt></trkpt>
<trkpt lat="51.697093" lon="03.817101"><ele>0</ele><time>2021-01-07T12:09:34Z</time><cmt>4.1 kmh</cmt></trkpt>
<trkpt lat="51.697087" lon="03.817113"><ele>0</ele><time>2021-01-07T12:09:35Z</time><cmt>4.5 kmh</cmt></trkpt>
<trkpt lat="51.697080" lon="03.817126"><ele>0</ele><time>2021-01-07T12:09:36Z</time><cmt>4.3 kmh</cmt></trkpt>
<trkpt lat="51.697072" lon="03.817142"><ele>0</ele><time>2021-01-07T12:09:37Z</time><cmt>5.0 kmh</cmt></trkpt>
<trkpt lat="51.697062" lon="03.817158"><ele>0</ele><time>2021-01-07T12:09:38Z</time><cmt>5.0 kmh</cmt></trkpt>
<trkpt lat="51.697053" lon="03.817172"><ele>0</ele><time>2021-01-07T12:09:39Z</time><cmt>4.6 kmh</cmt></trkpt>
<trkpt lat="51.697045" lon="03.817186"><ele>0</ele><time>2021-01-07T12:09:40Z</time><cmt>4.3 kmh</cmt></trkpt>
<trkpt lat="51.697039" lon="03.817197"><ele>0</ele><time>2021-01-07T12:09:41Z</time><cmt>4.5 kmh</cmt></trkpt>
<trkpt lat="51.697032" lon="03.817210"><ele>0</ele><time>2021-01-07T12:09:42Z</time><cmt>4.2 kmh</cmt></trkpt>
<trkpt lat="51.697025" lon="03.817224"><ele>0</ele><time>2021-01-07T12:09:43Z</time><cmt>4.8 kmh</cmt></trkpt>
<trkpt lat="51.697017" lon="03.817239"><ele>0</ele><time>2021-01-07T12:09:44Z</time><cmt>5.0 kmh</cmt></trkpt>
<trkpt lat="51.697008" lon="03.817254"><ele>0</ele><time>2021-01-07T12:09:45Z</time><cmt>5.0 kmh</cmt></trkpt>
<trkpt lat="51.697001" lon="03.817267"><ele>0</ele><time>2021-01-07T12:09:46Z</time><cmt>4.1 kmh</cmt></trkpt>
<trkpt lat="51.696994" lon="03.817280"><ele>0</ele><time>2021-01-07T12:09:47Z</time><cmt>3.7 kmh</cmt></trkpt>
<trkpt lat="51.696990" lon="03.817288"><ele>0</ele><time>2021-01-07T12:09:48Z</time><cmt>3.7 kmh</cmt></trkpt>
<trkpt lat="51.696985" lon="03.817299"><ele>0</ele><time>2021-01-07T12:09:49Z</time><cmt>3.3 kmh</cmt></trkpt>
<trkpt lat="51.696981" lon="03.817309"><ele>0</ele><time>2021-01-07T12:09:50Z</time><cmt>3.4 kmh</cmt></trkpt>
<trkpt lat="51.696975" lon="03.817320"><ele>0</ele><time>2021-01-07T12:09:51Z</time><cmt>3.5 kmh</cmt></trkpt>
<trkpt lat="51.696969" lon="03.817333"><ele>0</ele><time>2021-01-07T12:09:52Z</time><cmt>3.3 kmh</cmt></trkpt>
<trkpt lat="51.696965" lon="03.817342"><ele>0</ele><time>2021-01-07T12:09:53Z</time><cmt>3.0 kmh</cmt></trkpt>
<trkpt lat="51.696960" lon="03.817352"><ele>0</ele><time>2021-01-07T12:09:54Z</time><cmt>3.3 kmh</cmt></trkpt>
<trkpt lat="51.696954" lon="03.817363"><ele>0</ele><time>2021-01-07T12:09:55Z</time><cmt>3.6 kmh</cmt></trkpt>
<trkpt lat="51.696947" lon="03.817376"><ele>0</ele><time>2021-01-07T12:09:56Z</time><cmt>4.2 kmh</cmt></trkpt>
<trkpt lat="51.696941" lon="03.817389"><ele>0</ele><time>2021-01-07T12:09:57Z</time><cmt>4.5 kmh</cmt></trkpt>
<trkpt lat="51.696935" lon="03.817399"><ele>0</ele><time>2021-01-07T12:09:58Z</time><cmt>3.2 kmh</cmt></trkpt>
<trkpt lat="51.696927" lon="03.817411"><ele>0</ele><time>2021-01-07T12:09:59Z</time><cmt>3.4 kmh</cmt></trkpt>
<trkpt lat="51.696920" lon="03.817422"><ele>0</ele><time>2021-01-07T12:10:00Z</time><cmt>4.5 kmh</cmt></trkpt>
<trkpt lat="51.696916" lon="03.817429"><ele>0</ele><time>2021-01-07T12:10:01Z</time><cmt>3.4 kmh</cmt></trkpt>
<trkpt lat="51.696913" lon="03.817434"><ele>0</ele><time>2021-01-07T12:10:02Z</time><cmt>2.2 kmh</cmt></trkpt>
<trkpt lat="51.696910" lon="03.817440"><ele>0</ele><time>2021-01-07T12:10:03Z</time><cmt>1.9 kmh</cmt></trkpt>
<trkpt lat="51.696906" lon="03.817451"><ele>0</ele><time>2021-01-07T12:10:04Z</time><cmt>2.6 kmh</cmt></trkpt>
<trkpt lat="51.696901" lon="03.817463"><ele>0</ele><time>2021-01-07T12:10:05Z</time><cmt>2.9 kmh</cmt></trkpt>
<trkpt lat="51.696894" lon="03.817478"><ele>0</ele><time>2021-01-07T12:10:06Z</time><cmt>3.6 kmh</cmt></trkpt>
<trkpt lat="51.696887" lon="03.817489"><ele>0</ele><time>2021-01-07T12:10:07Z</time><cmt>4.6 kmh</cmt></trkpt>
<trkpt lat="51.696879" lon="03.817502"><ele>0</ele><time>2021-01-07T12:10:08Z</time><cmt>4.5 kmh</cmt></trkpt>
<trkpt lat="51.696871" lon="03.817513"><ele>0</ele><time>2021-01-07T12:10:09Z</time><cmt>4.6 kmh</cmt></trkpt>
<trkpt lat="51.696867" lon="03.817519"><ele>0</ele><time>2021-01-07T12:10:10Z</time><cmt>3.4 kmh</cmt></trkpt>
<trkpt lat="51.696862" lon="03.817529"><ele>0</ele><time>2021-01-07T12:10:11Z</time><cmt>2.4 kmh</cmt></trkpt>
<trkpt lat="51.696859" lon="03.817534"><ele>0</ele><time>2021-01-07T12:10:12Z</time><cmt>2.1 kmh</cmt></trkpt>
<trkpt lat="51.696857" lon="03.817539"><ele>0</ele><time>2021-01-07T12:10:13Z</time><cmt>1.8 kmh</cmt></trkpt>
<trkpt lat="51.696853" lon="03.817546"><ele>0</ele><time>2021-01-07T12:10:14Z</time><cmt>2.1 kmh</cmt></trkpt>
<trkpt lat="51.696849" lon="03.817554"><ele>0</ele><time>2021-01-07T12:10:15Z</time><cmt>2.6 kmh</cmt></trkpt>
<trkpt lat="51.696844" lon="03.817562"><ele>0</ele><time>2021-01-07T12:10:16Z</time><cmt>2.9 kmh</cmt></trkpt>
<trkpt lat="51.696840" lon="03.817571"><ele>0</ele><time>2021-01-07T12:10:17Z</time><cmt>2.4 kmh</cmt></trkpt>
<trkpt lat="51.696834" lon="03.817580"><ele>0</ele><time>2021-01-07T12:10:18Z</time><cmt>2.5 kmh</cmt></trkpt>
<trkpt lat="51.696829" lon="03.817589"><ele>0</ele><time>2021-01-07T12:10:19Z</time><cmt>3.5 kmh</cmt></trkpt>
<trkpt lat="51.696817" lon="03.817607"><ele>0</ele><time>2021-01-07T12:10:20Z</time><cmt>5.0 kmh</cmt></trkpt>
<trkpt lat="51.696804" lon="03.817627"><ele>0</ele><time>2021-01-07T12:10:21Z</time><cmt>5.0 kmh</cmt></trkpt>
<trkpt lat="51.696792" lon="03.817646"><ele>0</ele><time>2021-01-07T12:10:22Z</time><cmt>5.0 kmh</cmt></trkpt>
<trkpt lat="51.696782" lon="03.817662"><ele>0</ele><time>2021-01-07T12:10:23Z</time><cmt>5.0 kmh</cmt></trkpt>
<trkpt lat="51.696771" lon="03.817680"><ele>0</ele><time>2021-01-07T12:10:24Z</time><cmt>5.0 kmh</cmt></trkpt>
<trkpt lat="51.696762" lon="03.817696"><ele>0</ele><time>2021-01-07T12:10:25Z</time><cmt>5.0 kmh</cmt></trkpt>
<trkpt lat="51.696754" lon="03.817711"><ele>0</ele><time>2021-01-07T12:10:26Z</time><cmt>5.0 kmh</cmt></trkpt>
<trkpt lat="51.696745" lon="03.817727"><ele>0</ele><time>2021-01-07T12:10:27Z</time><cmt>5.0 kmh</cmt></trkpt>
<trkpt lat="51.696736" lon="03.817741"><ele>0</ele><time>2021-01-07T12:10:28Z</time><cmt>5.0 kmh</cmt></trkpt>
<trkpt lat="51.696729" lon="03.817753"><ele>0</ele><time>2021-01-07T12:10:29Z</time><cmt>4.9 kmh</cmt></trkpt>
<trkpt lat="51.696723" lon="03.817765"><ele>0</ele><time>2021-01-07T12:10:30Z</time><cmt>3.4 kmh</cmt></trkpt>
<trkpt lat="51.696715" lon="03.817776"><ele>0</ele><time>2021-01-07T12:10:31Z</time><cmt>3.3 kmh</cmt></trkpt>
<trkpt lat="51.696708" lon="03.817785"><ele>0</ele><time>2021-01-07T12:10:32Z</time><cmt>4.1 kmh</cmt></trkpt>
<trkpt lat="51.696702" lon="03.817793"><ele>0</ele><time>2021-01-07T12:10:33Z</time><cmt>3.7 kmh</cmt></trkpt>
<trkpt lat="51.696697" lon="03.817800"><ele>0</ele><time>2021-01-07T12:10:34Z</time><cmt>3.2 kmh</cmt></trkpt>
<trkpt lat="51.696694" lon="03.817803"><ele>0</ele><time>2021-01-07T12:10:35Z</time><cmt>2.2 kmh</cmt></trkpt>
<trkpt lat="51.696693" lon="03.817804"><ele>0</ele><time>2021-01-07T12:10:36Z</time><cmt>0.9 kmh</cmt></trkpt>
<trkpt lat="51.696692" lon="03.817804"><ele>0</ele><time>2021-01-07T12:10:37Z</time><cmt>0.4 kmh</cmt></trkpt>
<trkpt lat="51.696691" lon="03.817805"><ele>0</ele><time>2021-01-07T12:10:38Z</time><cmt>0.2 kmh</cmt></trkpt>
<trkpt lat="51.696691" lon="03.817806"><ele>0</ele><time>2021-01-07T12:10:39Z</time><cmt>0.0 kmh</cmt></trkpt>
<trkpt lat="51.696690" lon="03.817808"><ele>0</ele><time>2021-01-07T12:10:40Z</time><cmt>0.4 kmh</cmt></trkpt>
<trkpt lat="51.696687" lon="03.817812"><ele>0</ele><time>2021-01-07T12:10:41Z</time><cmt>1.1 kmh</cmt></trkpt>
<trkpt lat="51.696685" lon="03.817817"><ele>0</ele><time>2021-01-07T12:10:42Z</time><cmt>1.5 kmh</cmt></trkpt>
<trkpt lat="51.696680" lon="03.817824"><ele>0</ele><time>2021-01-07T12:10:43Z</time><cmt>2.2 kmh</cmt></trkpt>
<trkpt lat="51.696675" lon="03.817832"><ele>0</ele><time>2021-01-07T12:10:44Z</time><cmt>2.3 kmh</cmt></trkpt>
<trkpt lat="51.696670" lon="03.817843"><ele>0</ele><time>2021-01-07T12:10:45Z</time><cmt>2.7 kmh</cmt></trkpt>
<trkpt lat="51.696664" lon="03.817857"><ele>0</ele><time>2021-01-07T12:10:46Z</time><cmt>4.0 kmh</cmt></trkpt>
<trkpt lat="51.696658" lon="03.817870"><ele>0</ele><time>2021-01-07T12:10:47Z</time><cmt>4.4 kmh</cmt></trkpt>
<trkpt lat="51.696652" lon="03.817882"><ele>0</ele><time>2021-01-07T12:10:48Z</time><cmt>4.4 kmh</cmt></trkpt>
<trkpt lat="51.696643" lon="03.817901"><ele>0</ele><time>2021-01-07T12:10:49Z</time><cmt>5.0 kmh</cmt></trkpt>
<trkpt lat="51.696636" lon="03.817915"><ele>0</ele><time>2021-01-07T12:10:50Z</time><cmt>4.4 kmh</cmt></trkpt>
<trkpt lat="51.696631" lon="03.817925"><ele>0</ele><time>2021-01-07T12:10:51Z</time><cmt>3.4 kmh</cmt></trkpt>
<trkpt lat="51.696623" lon="03.817940"><ele>0</ele><time>2021-01-07T12:10:52Z</time><cmt>4.4 kmh</cmt></trkpt>
<trkpt lat="51.696618" lon="03.817950"><ele>0</ele><time>2021-01-07T12:10:53Z</time><cmt>4.3 kmh</cmt></trkpt>
<trkpt lat="51.696612" lon="03.817959"><ele>0</ele><time>2021-01-07T12:10:54Z</time><cmt>3.4 kmh</cmt></trkpt>
<trkpt lat="51.696606" lon="03.817968"><ele>0</ele><time>2021-01-07T12:10:55Z</time><cmt>3.6 kmh</cmt></trkpt>
<trkpt lat="51.696599" lon="03.817979"><ele>0</ele><time>2021-01-07T12:10:56Z</time><cmt>4.0 kmh</cmt></trkpt>
<trkpt lat="51.696591" lon="03.817990"><ele>0</ele><time>2021-01-07T12:10:57Z</time><cmt>3.6 kmh</cmt></trkpt>
<trkpt lat="51.696584" lon="03.818001"><ele>0</ele><time>2021-01-07T12:10:58Z</time><cmt>3.5 kmh</cmt></trkpt>
<trkpt lat="51.696578" lon="03.818014"><ele>0</ele><time>2021-01-07T12:10:59Z</time><cmt>4.3 kmh</cmt></trkpt>
<trkpt lat="51.696573" lon="03.818027"><ele>0</ele><time>2021-01-07T12:11:00Z</time><cmt>4.2 kmh</cmt></trkpt>
<trkpt lat="51.696570" lon="03.818038"><ele>0</ele><time>2021-01-07T12:11:01Z</time><cmt>3.6 kmh</cmt></trkpt>
<trkpt lat="51.696567" lon="03.818047"><ele>0</ele><time>2021-01-07T12:11:02Z</time><cmt>3.0 kmh</cmt></trkpt>
<trkpt lat="51.696562" lon="03.818056"><ele>0</ele><time>2021-01-07T12:11:03Z</time><cmt>2.3 kmh</cmt></trkpt>
<trkpt lat="51.696557" lon="03.818066"><ele>0</ele><time>2021-01-07T12:11:04Z</time><cmt>2.6 kmh</cmt></trkpt>
<trkpt lat="51.696550" lon="03.818079"><ele>0</ele><time>2021-01-07T12:11:05Z</time><cmt>4.2 kmh</cmt></trkpt>
<trkpt lat="51.696543" lon="03.818092"><ele>0</ele><time>2021-01-07T12:11:06Z</time><cmt>4.7 kmh</cmt></trkpt>
<trkpt lat="51.696537" lon="03.818101"><ele>0</ele><time>2021-01-07T12:11:07Z</time><cmt>4.0 kmh</cmt></trkpt>
<trkpt lat="51.696531" lon="03.818109"><ele>0</ele><time>2021-01-07T12:11:08Z</time><cmt>3.4 kmh</cmt></trkpt>
<trkpt lat="51.696525" lon="03.818118"><ele>0</ele><time>2021-01-07T12:11:09Z</time><cmt>3.3 kmh</cmt></trkpt>
<trkpt lat="51.696519" lon="03.818133"><ele>0</ele><time>2021-01-07T12:11:10Z</time><cmt>3.3 kmh</cmt></trkpt>
<trkpt lat="51.696510" lon="03.818151"><ele>0</ele><time>2021-01-07T12:11:11Z</time><cmt>4.3 kmh</cmt></trkpt>
<trkpt lat="51.696503" lon="03.818164"><ele>0</ele><time>2021-01-07T12:11:12Z</time><cmt>5.0 kmh</cmt></trkpt>
<trkpt lat="51.696496" lon="03.818174"><ele>0</ele><time>2021-01-07T12:11:13Z</time><cmt>4.2 kmh</cmt></trkpt>
<trkpt lat="51.696490" lon="03.818185"><ele>0</ele><time>2021-01-07T12:11:14Z</time><cmt>3.9 kmh</cmt></trkpt>
<trkpt lat="51.696484" lon="03.818197"><ele>0</ele><time>2021-01-07T12:11:15Z</time><cmt>4.1 kmh</cmt></trkpt>
<trkpt lat="51.696476" lon="03.818212"><ele>0</ele><time>2021-01-07T12:11:16Z</time><cmt>3.8 kmh</cmt></trkpt>
<trkpt lat="51.696468" lon="03.818223"><ele>0</ele><time>2021-01-07T12:11:17Z</time><cmt>3.9 kmh</cmt></trkpt>
<trkpt lat="51.696459" lon="03.818242"><ele>0</ele><time>2021-01-07T12:11:18Z</time><cmt>5.0 kmh</cmt></trkpt>
<trkpt lat="51.696452" lon="03.818256"><ele>0</ele><time>2021-01-07T12:11:19Z</time><cmt>5.0 kmh</cmt></trkpt>
<trkpt lat="51.696447" lon="03.818266"><ele>0</ele><time>2021-01-07T12:11:20Z</time><cmt>4.2 kmh</cmt></trkpt>
<trkpt lat="51.696441" lon="03.818279"><ele>0</ele><time>2021-01-07T12:11:21Z</time><cmt>3.9 kmh</cmt></trkpt>
<trkpt lat="51.696436" lon="03.818289"><ele>0</ele><time>2021-01-07T12:11:22Z</time><cmt>3.1 kmh</cmt></trkpt>
<trkpt lat="51.696429" lon="03.818300"><ele>0</ele><time>2021-01-07T12:11:23Z</time><cmt>3.0 kmh</cmt></trkpt>
<trkpt lat="51.696421" lon="03.818316"><ele>0</ele><time>2021-01-07T12:11:24Z</time><cmt>4.9 kmh</cmt></trkpt>
<trkpt lat="51.696412" lon="03.818331"><ele>0</ele><time>2021-01-07T12:11:25Z</time><cmt>5.0 kmh</cmt></trkpt>
<trkpt lat="51.696406" lon="03.818339"><ele>0</ele><time>2021-01-07T12:11:26Z</time><cmt>4.4 kmh</cmt></trkpt>
<trkpt lat="51.696400" lon="03.818347"><ele>0</ele><time>2021-01-07T12:11:27Z</time><cmt>3.3 kmh</cmt></trkpt>
<trkpt lat="51.696395" lon="03.818355"><ele>0</ele><time>2021-01-07T12:11:28Z</time><cmt>3.2 kmh</cmt></trkpt>
<trkpt lat="51.696387" lon="03.818365"><ele>0</ele><time>2021-01-07T12:11:29Z</time><cmt>2.9 kmh</cmt></trkpt>
<trkpt lat="51.696380" lon="03.818379"><ele>0</ele><time>2021-01-07T12:11:30Z</time><cmt>3.6 kmh</cmt></trkpt>
<trkpt lat="51.696374" lon="03.818390"><ele>0</ele><time>2021-01-07T12:11:31Z</time><cmt>4.5 kmh</cmt></trkpt>
<trkpt lat="51.696367" lon="03.818402"><ele>0</ele><time>2021-01-07T12:11:32Z</time><cmt>4.1 kmh</cmt></trkpt>
<trkpt lat="51.696358" lon="03.818417"><ele>0</ele><time>2021-01-07T12:11:33Z</time><cmt>5.0 kmh</cmt></trkpt>
<trkpt lat="51.696348" lon="03.818434"><ele>0</ele><time>2021-01-07T12:11:34Z</time><cmt>5.0 kmh</cmt></trkpt>
<trkpt lat="51.696339" lon="03.818449"><ele>0</ele><time>2021-01-07T12:11:35Z</time><cmt>4.7 kmh</cmt></trkpt>
<trkpt lat="51.696333" lon="03.818461"><ele>0</ele><time>2021-01-07T12:11:36Z</time><cmt>4.0 kmh</cmt></trkpt>
<trkpt lat="51.696328" lon="03.818471"><ele>0</ele><time>2021-01-07T12:11:37Z</time><cmt>3.9 kmh</cmt></trkpt>
<trkpt lat="51.696324" lon="03.818479"><ele>0</ele><time>2021-01-07T12:11:38Z</time><cmt>3.0 kmh</cmt></trkpt>
<trkpt lat="51.696320" lon="03.818486"><ele>0</ele><time>2021-01-07T12:11:39Z</time><cmt>2.7 kmh</cmt></trkpt>
<trkpt lat="51.696313" lon="03.818495"><ele>0</ele><time>2021-01-07T12:11:40Z</time><cmt>3.2 kmh</cmt></trkpt>
<trkpt lat="51.696305" lon="03.818505"><ele>0</ele><time>2021-01-07T12:11:41Z</time><cmt>3.3 kmh</cmt></trkpt>
<trkpt lat="51.696298" lon="03.818517"><ele>0</ele><time>2021-01-07T12:11:42Z</time><cmt>3.5 kmh</cmt></trkpt>
<trkpt lat="51.696291" lon="03.818528"><ele>0</ele><time>2021-01-07T12:11:43Z</time><cmt>4.4 kmh</cmt></trkpt>
<trkpt lat="51.696284" lon="03.818538"><ele>0</ele><time>2021-01-07T12:11:44Z</time><cmt>4.0 kmh</cmt></trkpt>
<trkpt lat="51.696278" lon="03.818548"><ele>0</ele><time>2021-01-07T12:11:45Z</time><cmt>3.9 kmh</cmt></trkpt>
<trkpt lat="51.696272" lon="03.818558"><ele>0</ele><time>2021-01-07T12:11:46Z</time><cmt>3.8 kmh</cmt></trkpt>
<trkpt lat="51.696265" lon="03.818570"><ele>0</ele><time>2021-01-07T12:11:47Z</time><cmt>4.1 kmh</cmt></trkpt>
<trkpt lat="51.696255" lon="03.818588"><ele>1</ele><time>2021-01-07T12:11:48Z</time><cmt>4.3 kmh</cmt></trkpt>
<trkpt lat="51.696247" lon="03.818601"><ele>1</ele><time>2021-01-07T12:11:49Z</time><cmt>4.4 kmh</cmt></trkpt>
<trkpt lat="51.696240" lon="03.818612"><ele>1</ele><time>2021-01-07T12:11:50Z</time><cmt>4.5 kmh</cmt></trkpt>
<trkpt lat="51.696234" lon="03.818624"><ele>1</ele><time>2021-01-07T12:11:51Z</time><cmt>4.3 kmh</cmt></trkpt>
<trkpt lat="51.696227" lon="03.818635"><ele>1</ele><time>2021-01-07T12:11:52Z</time><cmt>4.1 kmh</cmt></trkpt>
<trkpt lat="51.696222" lon="03.818640"><ele>2</ele><time>2021-01-07T12:11:53Z</time><cmt>3.4 kmh</cmt></trkpt>
<trkpt lat="51.696214" lon="03.818652"><ele>2</ele><time>2021-01-07T12:11:54Z</time><cmt>3.0 kmh</cmt></trkpt>
<trkpt lat="51.696205" lon="03.818667"><ele>2</ele><time>2021-01-07T12:11:55Z</time><cmt>4.2 kmh</cmt></trkpt>
<trkpt lat="51.696197" lon="03.818680"><ele>2</ele><time>2021-01-07T12:11:56Z</time><cmt>5.0 kmh</cmt></trkpt>
<trkpt lat="51.696189" lon="03.818690"><ele>2</ele><time>2021-01-07T12:11:57Z</time><cmt>4.6 kmh</cmt></trkpt>
<trkpt lat="51.696183" lon="03.818701"><ele>3</ele><time>2021-01-07T12:11:58Z</time><cmt>4.2 kmh</cmt></trkpt>
<trkpt lat="51.696175" lon="03.818711"><ele>3</ele><time>2021-01-07T12:11:59Z</time><cmt>4.1 kmh</cmt></trkpt>
<trkpt lat="51.696167" lon="03.818722"><ele>3</ele><time>2021-01-07T12:12:00Z</time><cmt>3.5 kmh</cmt></trkpt>
<trkpt lat="51.696160" lon="03.818734"><ele>3</ele><time>2021-01-07T12:12:01Z</time><cmt>3.6 kmh</cmt></trkpt>
<trkpt lat="51.696152" lon="03.818748"><ele>3</ele><time>2021-01-07T12:12:02Z</time><cmt>4.7 kmh</cmt></trkpt>
<trkpt lat="51.696145" lon="03.818762"><ele>3</ele><time>2021-01-07T12:12:03Z</time><cmt>5.0 kmh</cmt></trkpt>
<trkpt lat="51.696138" lon="03.818777"><ele>3</ele><time>2021-01-07T12:12:04Z</time><cmt>5.0 kmh</cmt></trkpt>
<trkpt lat="51.696132" lon="03.818791"><ele>3</ele><time>2021-01-07T12:12:05Z</time><cmt>4.8 kmh</cmt></trkpt>
<trkpt lat="51.696125" lon="03.818805"><ele>3</ele><time>2021-01-07T12:12:06Z</time><cmt>4.7 kmh</cmt></trkpt>
<trkpt lat="51.696118" lon="03.818816"><ele>3</ele><time>2021-01-07T12:12:07Z</time><cmt>3.5 kmh</cmt></trkpt>
<trkpt lat="51.696112" lon="03.818827"><ele>3</ele><time>2021-01-07T12:12:08Z</time><cmt>3.3 kmh</cmt></trkpt>
<trkpt lat="51.696105" lon="03.818838"><ele>3</ele><time>2021-01-07T12:12:09Z</time><cmt>4.1 kmh</cmt></trkpt>
<trkpt lat="51.696097" lon="03.818850"><ele>3</ele><time>2021-01-07T12:12:10Z</time><cmt>4.5 kmh</cmt></trkpt>
<trkpt lat="51.696089" lon="03.818861"><ele>3</ele><time>2021-01-07T12:12:11Z</time><cmt>4.6 kmh</cmt></trkpt>
<trkpt lat="51.696082" lon="03.818870"><ele>3</ele><time>2021-01-07T12:12:12Z</time><cmt>4.2 kmh</cmt></trkpt>
<trkpt lat="51.696076" lon="03.818879"><ele>3</ele><time>2021-01-07T12:12:13Z</time><cmt>2.9 kmh</cmt></trkpt>
<trkpt lat="51.696072" lon="03.818890"><ele>3</ele><time>2021-01-07T12:12:14Z</time><cmt>2.7 kmh</cmt></trkpt>
<trkpt lat="51.696069" lon="03.818900"><ele>3</ele><time>2021-01-07T12:12:15Z</time><cmt>3.2 kmh</cmt></trkpt>
<trkpt lat="51.696066" lon="03.818910"><ele>3</ele><time>2021-01-07T12:12:16Z</time><cmt>2.9 kmh</cmt></trkpt>
<trkpt lat="51.696061" lon="03.818920"><ele>4</ele><time>2021-01-07T12:12:17Z</time><cmt>3.1 kmh</cmt></trkpt>
<trkpt lat="51.696055" lon="03.818932"><ele>4</ele><time>2021-01-07T12:12:18Z</time><cmt>3.7 kmh</cmt></trkpt>
<trkpt lat="51.696048" lon="03.818946"><ele>4</ele><time>2021-01-07T12:12:19Z</time><cmt>3.6 kmh</cmt></trkpt>
<trkpt lat="51.696042" lon="03.818959"><ele>4</ele><time>2021-01-07T12:12:20Z</time><cmt>3.7 kmh</cmt></trkpt>
<trkpt lat="51.696035" lon="03.818971"><ele>4</ele><time>2021-01-07T12:12:21Z</time><cmt>4.4 kmh</cmt></trkpt>
<trkpt lat="51.696028" lon="03.818983"><ele>4</ele><time>2021-01-07T12:12:22Z</time><cmt>4.4 kmh</cmt></trkpt>
<trkpt lat="51.696021" lon="03.818994"><ele>4</ele><time>2021-01-07T12:12:23Z</time><cmt>4.4 kmh</cmt></trkpt>
<trkpt lat="51.696014" lon="03.819005"><ele>4</ele><time>2021-01-07T12:12:24Z</time><cmt>4.3 kmh</cmt></trkpt>
<trkpt lat="51.696006" lon="03.819015"><ele>5</ele><time>2021-01-07T12:12:25Z</time><cmt>4.3 kmh</cmt></trkpt>
<trkpt lat="51.695998" lon="03.819025"><ele>5</ele><time>2021-01-07T12:12:26Z</time><cmt>3.5 kmh</cmt></trkpt>
<trkpt lat="51.695990" lon="03.819037"><ele>5</ele><time>2021-01-07T12:12:27Z</time><cmt>3.6 kmh</cmt></trkpt>
<trkpt lat="51.695982" lon="03.819050"><ele>5</ele><time>2021-01-07T12:12:28Z</time><cmt>4.8 kmh</cmt></trkpt>
<trkpt lat="51.695973" lon="03.819064"><ele>5</ele><time>2021-01-07T12:12:29Z</time><cmt>5.0 kmh</cmt></trkpt>
<trkpt lat="51.695965" lon="03.819078"><ele>5</ele><time>2021-01-07T12:12:30Z</time><cmt>5.0 kmh</cmt></trkpt>
<trkpt lat="51.695957" lon="03.819090"><ele>5</ele><time>2021-01-07T12:12:31Z</time><cmt>5.0 kmh</cmt></trkpt>
<trkpt lat="51.695948" lon="03.819101"><ele>5</ele><time>2021-01-07T12:12:32Z</time><cmt>3.8 kmh</cmt></trkpt>
<trkpt lat="51.695941" lon="03.819113"><ele>5</ele><time>2021-01-07T12:12:33Z</time><cmt>3.7 kmh</cmt></trkpt>
<trkpt lat="51.695934" lon="03.819126"><ele>5</ele><time>2021-01-07T12:12:34Z</time><cmt>4.5 kmh</cmt></trkpt>
<trkpt lat="51.695926" lon="03.819139"><ele>5</ele><time>2021-01-07T12:12:35Z</time><cmt>4.6 kmh</cmt></trkpt>
<trkpt lat="51.695919" lon="03.819152"><ele>5</ele><time>2021-01-07T12:12:36Z</time><cmt>4.8 kmh</cmt></trkpt>
<trkpt lat="51.695910" lon="03.819167"><ele>5</ele><time>2021-01-07T12:12:37Z</time><cmt>5.3 kmh</cmt></trkpt>
<trkpt lat="51.695902" lon="03.819182"><ele>5</ele><time>2021-01-07T12:12:38Z</time><cmt>5.3 kmh</cmt></trkpt>
<trkpt lat="51.695894" lon="03.819197"><ele>5</ele><time>2021-01-07T12:12:39Z</time><cmt>4.3 kmh</cmt></trkpt>
<trkpt lat="51.695886" lon="03.819211"><ele>5</ele><time>2021-01-07T12:12:40Z</time><cmt>4.2 kmh</cmt></trkpt>
<trkpt lat="51.695877" lon="03.819225"><ele>5</ele><time>2021-01-07T12:12:41Z</time><cmt>5.0 kmh</cmt></trkpt>
<trkpt lat="51.695868" lon="03.819237"><ele>5</ele><time>2021-01-07T12:12:42Z</time><cmt>5.0 kmh</cmt></trkpt>
<trkpt lat="51.695860" lon="03.819248"><ele>5</ele><time>2021-01-07T12:12:43Z</time><cmt>4.8 kmh</cmt></trkpt>
<trkpt lat="51.695852" lon="03.819260"><ele>5</ele><time>2021-01-07T12:12:44Z</time><cmt>4.7 kmh</cmt></trkpt>
<trkpt lat="51.695844" lon="03.819273"><ele>5</ele><time>2021-01-07T12:12:45Z</time><cmt>3.8 kmh</cmt></trkpt>
<trkpt lat="51.695836" lon="03.819285"><ele>5</ele><time>2021-01-07T12:12:46Z</time><cmt>3.8 kmh</cmt></trkpt>
<trkpt lat="51.695828" lon="03.819297"><ele>5</ele><time>2021-01-07T12:12:47Z</time><cmt>4.7 kmh</cmt></trkpt>
<trkpt lat="51.695820" lon="03.819310"><ele>4</ele><time>2021-01-07T12:12:48Z</time><cmt>4.9 kmh</cmt></trkpt>
<trkpt lat="51.695813" lon="03.819321"><ele>4</ele><time>2021-01-07T12:12:49Z</time><cmt>4.6 kmh</cmt></trkpt>
<trkpt lat="51.695807" lon="03.819333"><ele>4</ele><time>2021-01-07T12:12:50Z</time><cmt>4.2 kmh</cmt></trkpt>
<trkpt lat="51.695799" lon="03.819345"><ele>4</ele><time>2021-01-07T12:12:51Z</time><cmt>3.5 kmh</cmt></trkpt>
<trkpt lat="51.695792" lon="03.819357"><ele>4</ele><time>2021-01-07T12:12:52Z</time><cmt>3.6 kmh</cmt></trkpt>
<trkpt lat="51.695785" lon="03.819369"><ele>4</ele><time>2021-01-07T12:12:53Z</time><cmt>4.4 kmh</cmt></trkpt>
<trkpt lat="51.695778" lon="03.819381"><ele>4</ele><time>2021-01-07T12:12:54Z</time><cmt>4.4 kmh</cmt></trkpt>
<trkpt lat="51.695770" lon="03.819393"><ele>4</ele><time>2021-01-07T12:12:55Z</time><cmt>4.6 kmh</cmt></trkpt>
<trkpt lat="51.695762" lon="03.819404"><ele>4</ele><time>2021-01-07T12:12:56Z</time><cmt>4.5 kmh</cmt></trkpt>
<trkpt lat="51.695754" lon="03.819416"><ele>4</ele><time>2021-01-07T12:12:57Z</time><cmt>4.6 kmh</cmt></trkpt>
<trkpt lat="51.695746" lon="03.819429"><ele>5</ele><time>2021-01-07T12:12:58Z</time><cmt>3.8 kmh</cmt></trkpt>
<trkpt lat="51.695739" lon="03.819441"><ele>5</ele><time>2021-01-07T12:12:59Z</time><cmt>3.7 kmh</cmt></trkpt>
<trkpt lat="51.695731" lon="03.819453"><ele>5</ele><time>2021-01-07T12:13:00Z</time><cmt>4.6 kmh</cmt></trkpt>
<trkpt lat="51.695723" lon="03.819466"><ele>5</ele><time>2021-01-07T12:13:01Z</time><cmt>4.8 kmh</cmt></trkpt>
<trkpt lat="51.695717" lon="03.819477"><ele>5</ele><time>2021-01-07T12:13:02Z</time><cmt>4.4 kmh</cmt></trkpt>
<trkpt lat="51.695711" lon="03.819486"><ele>5</ele><time>2021-01-07T12:13:03Z</time><cmt>3.8 kmh</cmt></trkpt>
<trkpt lat="51.695705" lon="03.819497"><ele>5</ele><time>2021-01-07T12:13:04Z</time><cmt>3.0 kmh</cmt></trkpt>
<trkpt lat="51.695697" lon="03.819508"><ele>5</ele><time>2021-01-07T12:13:05Z</time><cmt>3.4 kmh</cmt></trkpt>
<trkpt lat="51.695690" lon="03.819518"><ele>5</ele><time>2021-01-07T12:13:06Z</time><cmt>4.3 kmh</cmt></trkpt>
<trkpt lat="51.695682" lon="03.819529"><ele>5</ele><time>2021-01-07T12:13:07Z</time><cmt>4.2 kmh</cmt></trkpt>
<trkpt lat="51.695675" lon="03.819540"><ele>5</ele><time>2021-01-07T12:13:08Z</time><cmt>4.2 kmh</cmt></trkpt>
<trkpt lat="51.695669" lon="03.819550"><ele>5</ele><time>2021-01-07T12:13:09Z</time><cmt>4.1 kmh</cmt></trkpt>
<trkpt lat="51.695661" lon="03.819561"><ele>5</ele><time>2021-01-07T12:13:10Z</time><cmt>3.3 kmh</cmt></trkpt>
<trkpt lat="51.695653" lon="03.819573"><ele>5</ele><time>2021-01-07T12:13:11Z</time><cmt>3.6 kmh</cmt></trkpt>
<trkpt lat="51.695645" lon="03.819584"><ele>5</ele><time>2021-01-07T12:13:12Z</time><cmt>4.7 kmh</cmt></trkpt>
<trkpt lat="51.695637" lon="03.819595"><ele>5</ele><time>2021-01-07T12:13:13Z</time><cmt>4.6 kmh</cmt></trkpt>
<trkpt lat="51.695629" lon="03.819606"><ele>6</ele><time>2021-01-07T12:13:14Z</time><cmt>4.6 kmh</cmt></trkpt>
<trkpt lat="51.695622" lon="03.819618"><ele>6</ele><time>2021-01-07T12:13:15Z</time><cmt>4.6 kmh</cmt></trkpt>
<trkpt lat="51.695615" lon="03.819630"><ele>6</ele><time>2021-01-07T12:13:16Z</time><cmt>4.4 kmh</cmt></trkpt>
<trkpt lat="51.695607" lon="03.819642"><ele>6</ele><time>2021-01-07T12:13:17Z</time><cmt>3.7 kmh</cmt></trkpt>
<trkpt lat="51.695599" lon="03.819654"><ele>6</ele><time>2021-01-07T12:13:18Z</time><cmt>3.7 kmh</cmt></trkpt>
<trkpt lat="51.695590" lon="03.819666"><ele>6</ele><time>2021-01-07T12:13:19Z</time><cmt>4.7 kmh</cmt></trkpt>
<trkpt lat="51.695583" lon="03.819678"><ele>6</ele><time>2021-01-07T12:13:20Z</time><cmt>4.7 kmh</cmt></trkpt>
<trkpt lat="51.695575" lon="03.819687"><ele>6</ele><time>2021-01-07T12:13:21Z</time><cmt>4.3 kmh</cmt></trkpt>
<trkpt lat="51.695567" lon="03.819698"><ele>6</ele><time>2021-01-07T12:13:22Z</time><cmt>4.3 kmh</cmt></trkpt>
<trkpt lat="51.695559" lon="03.819709"><ele>6</ele><time>2021-01-07T12:13:23Z</time><cmt>3.6 kmh</cmt></trkpt>
<trkpt lat="51.695551" lon="03.819722"><ele>6</ele><time>2021-01-07T12:13:24Z</time><cmt>3.7 kmh</cmt></trkpt>
<trkpt lat="51.695543" lon="03.819734"><ele>6</ele><time>2021-01-07T12:13:25Z</time><cmt>4.7 kmh</cmt></trkpt>
<trkpt lat="51.695536" lon="03.819746"><ele>6</ele><time>2021-01-07T12:13:26Z</time><cmt>4.6 kmh</cmt></trkpt>
<trkpt lat="51.695527" lon="03.819759"><ele>6</ele><time>2021-01-07T12:13:27Z</time><cmt>4.8 kmh</cmt></trkpt>
<trkpt lat="51.695519" lon="03.819773"><ele>6</ele><time>2021-01-07T12:13:28Z</time><cmt>5.0 kmh</cmt></trkpt>
<trkpt lat="51.695511" lon="03.819785"><ele>6</ele><time>2021-01-07T12:13:29Z</time><cmt>4.0 kmh</cmt></trkpt>
<trkpt lat="51.695504" lon="03.819798"><ele>6</ele><time>2021-01-07T12:13:30Z</time><cmt>3.7 kmh</cmt></trkpt>
<trkpt lat="51.695497" lon="03.819809"><ele>6</ele><time>2021-01-07T12:13:31Z</time><cmt>4.4 kmh</cmt></trkpt>
<trkpt lat="51.695490" lon="03.819821"><ele>6</ele><time>2021-01-07T12:13:32Z</time><cmt>4.3 kmh</cmt></trkpt>
<trkpt lat="51.695482" lon="03.819832"><ele>6</ele><time>2021-01-07T12:13:33Z</time><cmt>4.5 kmh</cmt></trkpt>
<trkpt lat="51.695474" lon="03.819844"><ele>6</ele><time>2021-01-07T12:13:34Z</time><cmt>4.6 kmh</cmt></trkpt>
<trkpt lat="51.695466" lon="03.819856"><ele>6</ele><time>2021-01-07T12:13:35Z</time><cmt>4.7 kmh</cmt></trkpt>
<trkpt lat="51.695458" lon="03.819867"><ele>6</ele><time>2021-01-07T12:13:36Z</time><cmt>3.7 kmh</cmt></trkpt>
<trkpt lat="51.695450" lon="03.819880"><ele>6</ele><time>2021-01-07T12:13:37Z</time><cmt>3.8 kmh</cmt></trkpt>
<trkpt lat="51.695442" lon="03.819892"><ele>6</ele><time>2021-01-07T12:13:38Z</time><cmt>4.7 kmh</cmt></trkpt>
<trkpt lat="51.695435" lon="03.819904"><ele>6</ele><time>2021-01-07T12:13:39Z</time><cmt>4.5 kmh</cmt></trkpt>
<trkpt lat="51.695426" lon="03.819919"><ele>6</ele><time>2021-01-07T12:13:40Z</time><cmt>5.0 kmh</cmt></trkpt>
<trkpt lat="51.695418" lon="03.819934"><ele>6</ele><time>2021-01-07T12:13:41Z</time><cmt>5.0 kmh</cmt></trkpt>
<trkpt lat="51.695410" lon="03.819947"><ele>6</ele><time>2021-01-07T12:13:42Z</time><cmt>4.0 kmh</cmt></trkpt>
<trkpt lat="51.695403" lon="03.819960"><ele>6</ele><time>2021-01-07T12:13:43Z</time><cmt>3.8 kmh</cmt></trkpt>
<trkpt lat="51.695395" lon="03.819973"><ele>6</ele><time>2021-01-07T12:13:44Z</time><cmt>4.8 kmh</cmt></trkpt>
<trkpt lat="51.695387" lon="03.819985"><ele>6</ele><time>2021-01-07T12:13:45Z</time><cmt>4.7 kmh</cmt></trkpt>
<trkpt lat="51.695380" lon="03.819995"><ele>6</ele><time>2021-01-07T12:13:46Z</time><cmt>4.3 kmh</cmt></trkpt>
<trkpt lat="51.695373" lon="03.820007"><ele>6</ele><time>2021-01-07T12:13:47Z</time><cmt>4.3 kmh</cmt></trkpt>
<trkpt lat="51.695365" lon="03.820021"><ele>6</ele><time>2021-01-07T12:13:48Z</time><cmt>3.9 kmh</cmt></trkpt>
<trkpt lat="51.695357" lon="03.820034"><ele>6</ele><time>2021-01-07T12:13:49Z</time><cmt>3.9 kmh</cmt></trkpt>
<trkpt lat="51.695350" lon="03.820046"><ele>6</ele><time>2021-01-07T12:13:50Z</time><cmt>4.6 kmh</cmt></trkpt>
<trkpt lat="51.695342" lon="03.820057"><ele>6</ele><time>2021-01-07T12:13:51Z</time><cmt>4.4 kmh</cmt></trkpt>
<trkpt lat="51.695335" lon="03.820068"><ele>6</ele><time>2021-01-07T12:13:52Z</time><cmt>4.2 kmh</cmt></trkpt>
<trkpt lat="51.695328" lon="03.820080"><ele>6</ele><time>2021-01-07T12:13:53Z</time><cmt>4.3 kmh</cmt></trkpt>
<trkpt lat="51.695321" lon="03.820092"><ele>6</ele><time>2021-01-07T12:13:54Z</time><cmt>4.6 kmh</cmt></trkpt>
<trkpt lat="51.695313" lon="03.820106"><ele>6</ele><time>2021-01-07T12:13:55Z</time><cmt>3.8 kmh</cmt></trkpt>
<trkpt lat="51.695307" lon="03.820118"><ele>6</ele><time>2021-01-07T12:13:56Z</time><cmt>3.7 kmh</cmt></trkpt>
<trkpt lat="51.695299" lon="03.820132"><ele>6</ele><time>2021-01-07T12:13:57Z</time><cmt>4.7 kmh</cmt></trkpt>
<trkpt lat="51.695291" lon="03.820144"><ele>6</ele><time>2021-01-07T12:13:58Z</time><cmt>4.8 kmh</cmt></trkpt>
<trkpt lat="51.695283" lon="03.820156"><ele>6</ele><time>2021-01-07T12:13:59Z</time><cmt>4.7 kmh</cmt></trkpt>
<trkpt lat="51.695275" lon="03.820168"><ele>6</ele><time>2021-01-07T12:14:00Z</time><cmt>4.7 kmh</cmt></trkpt>
<trkpt lat="51.695267" lon="03.820179"><ele>6</ele><time>2021-01-07T12:14:01Z</time><cmt>3.7 kmh</cmt></trkpt>
<trkpt lat="51.695259" lon="03.820192"><ele>6</ele><time>2021-01-07T12:14:02Z</time><cmt>3.7 kmh</cmt></trkpt>
<trkpt lat="51.695251" lon="03.820205"><ele>6</ele><time>2021-01-07T12:14:03Z</time><cmt>4.9 kmh</cmt></trkpt>
<trkpt lat="51.695244" lon="03.820217"><ele>6</ele><time>2021-01-07T12:14:04Z</time><cmt>4.8 kmh</cmt></trkpt>
<trkpt lat="51.695238" lon="03.820228"><ele>6</ele><time>2021-01-07T12:14:05Z</time><cmt>4.3 kmh</cmt></trkpt>
<trkpt lat="51.695230" lon="03.820239"><ele>6</ele><time>2021-01-07T12:14:06Z</time><cmt>4.1 kmh</cmt></trkpt>
<trkpt lat="51.695223" lon="03.820248"><ele>6</ele><time>2021-01-07T12:14:07Z</time><cmt>3.3 kmh</cmt></trkpt>
<trkpt lat="51.695215" lon="03.820260"><ele>6</ele><time>2021-01-07T12:14:08Z</time><cmt>3.4 kmh</cmt></trkpt>
<trkpt lat="51.695208" lon="03.820272"><ele>6</ele><time>2021-01-07T12:14:09Z</time><cmt>4.6 kmh</cmt></trkpt>
<trkpt lat="51.695200" lon="03.820285"><ele>6</ele><time>2021-01-07T12:14:10Z</time><cmt>4.8 kmh</cmt></trkpt>
<trkpt lat="51.695192" lon="03.820298"><ele>6</ele><time>2021-01-07T12:14:11Z</time><cmt>4.8 kmh</cmt></trkpt>
<trkpt lat="51.695184" lon="03.820311"><ele>6</ele><time>2021-01-07T12:14:12Z</time><cmt>4.9 kmh</cmt></trkpt>
<trkpt lat="51.695176" lon="03.820324"><ele>6</ele><time>2021-01-07T12:14:13Z</time><cmt>4.8 kmh</cmt></trkpt>
<trkpt lat="51.695169" lon="03.820336"><ele>6</ele><time>2021-01-07T12:14:14Z</time><cmt>3.7 kmh</cmt></trkpt>
<trkpt lat="51.695162" lon="03.820347"><ele>6</ele><time>2021-01-07T12:14:15Z</time><cmt>3.5 kmh</cmt></trkpt>
<trkpt lat="51.695155" lon="03.820357"><ele>6</ele><time>2021-01-07T12:14:16Z</time><cmt>4.1 kmh</cmt></trkpt>
<trkpt lat="51.695148" lon="03.820369"><ele>6</ele><time>2021-01-07T12:14:17Z</time><cmt>4.3 kmh</cmt></trkpt>
<trkpt lat="51.695141" lon="03.820380"><ele>6</ele><time>2021-01-07T12:14:18Z</time><cmt>4.3 kmh</cmt></trkpt>
<trkpt lat="51.695135" lon="03.820390"><ele>6</ele><time>2021-01-07T12:14:19Z</time><cmt>4.0 kmh</cmt></trkpt>
<trkpt lat="51.695128" lon="03.820399"><ele>6</ele><time>2021-01-07T12:14:20Z</time><cmt>3.0 kmh</cmt></trkpt>
<trkpt lat="51.695122" lon="03.820408"><ele>6</ele><time>2021-01-07T12:14:21Z</time><cmt>3.0 kmh</cmt></trkpt>
<trkpt lat="51.695115" lon="03.820417"><ele>6</ele><time>2021-01-07T12:14:22Z</time><cmt>3.7 kmh</cmt></trkpt>
<trkpt lat="51.695109" lon="03.820428"><ele>6</ele><time>2021-01-07T12:14:23Z</time><cmt>3.8 kmh</cmt></trkpt>
<trkpt lat="51.695102" lon="03.820439"><ele>6</ele><time>2021-01-07T12:14:24Z</time><cmt>4.1 kmh</cmt></trkpt>
<trkpt lat="51.695094" lon="03.820450"><ele>6</ele><time>2021-01-07T12:14:25Z</time><cmt>4.3 kmh</cmt></trkpt>
<trkpt lat="51.695087" lon="03.820461"><ele>6</ele><time>2021-01-07T12:14:26Z</time><cmt>3.6 kmh</cmt></trkpt>
<trkpt lat="51.695079" lon="03.820471"><ele>6</ele><time>2021-01-07T12:14:27Z</time><cmt>3.4 kmh</cmt></trkpt>
<trkpt lat="51.695071" lon="03.820483"><ele>6</ele><time>2021-01-07T12:14:28Z</time><cmt>4.4 kmh</cmt></trkpt>
<trkpt lat="51.695064" lon="03.820496"><ele>6</ele><time>2021-01-07T12:14:29Z</time><cmt>4.6 kmh</cmt></trkpt>
<trkpt lat="51.695056" lon="03.820510"><ele>6</ele><time>2021-01-07T12:14:30Z</time><cmt>4.9 kmh</cmt></trkpt>
<trkpt lat="51.695049" lon="03.820524"><ele>6</ele><time>2021-01-07T12:14:31Z</time><cmt>5.0 kmh</cmt></trkpt>
<trkpt lat="51.695042" lon="03.820535"><ele>6</ele><time>2021-01-07T12:14:32Z</time><cmt>4.5 kmh</cmt></trkpt>
<trkpt lat="51.695035" lon="03.820547"><ele>6</ele><time>2021-01-07T12:14:33Z</time><cmt>3.5 kmh</cmt></trkpt>
<trkpt lat="51.695027" lon="03.820558"><ele>6</ele><time>2021-01-07T12:14:34Z</time><cmt>3.5 kmh</cmt></trkpt>
<trkpt lat="51.695020" lon="03.820568"><ele>6</ele><time>2021-01-07T12:14:35Z</time><cmt>4.3 kmh</cmt></trkpt>
<trkpt lat="51.695011" lon="03.820578"><ele>6</ele><time>2021-01-07T12:14:36Z</time><cmt>4.4 kmh</cmt></trkpt>
<trkpt lat="51.695002" lon="03.820591"><ele>6</ele><time>2021-01-07T12:14:37Z</time><cmt>4.9 kmh</cmt></trkpt>
<trkpt lat="51.694993" lon="03.820604"><ele>6</ele><time>2021-01-07T12:14:38Z</time><cmt>5.0 kmh</cmt></trkpt>
<trkpt lat="51.694984" lon="03.820617"><ele>6</ele><time>2021-01-07T12:14:39Z</time><cmt>4.1 kmh</cmt></trkpt>
<trkpt lat="51.694976" lon="03.820629"><ele>7</ele><time>2021-01-07T12:14:40Z</time><cmt>4.0 kmh</cmt></trkpt>
<trkpt lat="51.694966" lon="03.820643"><ele>7</ele><time>2021-01-07T12:14:41Z</time><cmt>5.0 kmh</cmt></trkpt>
<trkpt lat="51.694957" lon="03.820657"><ele>7</ele><time>2021-01-07T12:14:42Z</time><cmt>5.0 kmh</cmt></trkpt>
<trkpt lat="51.694949" lon="03.820672"><ele>7</ele><time>2021-01-07T12:14:43Z</time><cmt>5.0 kmh</cmt></trkpt>
<trkpt lat="51.694942" lon="03.820685"><ele>7</ele><time>2021-01-07T12:14:44Z</time><cmt>5.0 kmh</cmt></trkpt>
<trkpt lat="51.694935" lon="03.820696"><ele>7</ele><time>2021-01-07T12:14:45Z</time><cmt>4.5 kmh</cmt></trkpt>
<trkpt lat="51.694926" lon="03.820707"><ele>7</ele><time>2021-01-07T12:14:46Z</time><cmt>3.6 kmh</cmt></trkpt>
<trkpt lat="51.694917" lon="03.820718"><ele>7</ele><time>2021-01-07T12:14:47Z</time><cmt>3.8 kmh</cmt></trkpt>
<trkpt lat="51.694908" lon="03.820731"><ele>7</ele><time>2021-01-07T12:14:48Z</time><cmt>5.0 kmh</cmt></trkpt>
<trkpt lat="51.694898" lon="03.820745"><ele>7</ele><time>2021-01-07T12:14:49Z</time><cmt>5.0 kmh</cmt></trkpt>
<trkpt lat="51.694888" lon="03.820758"><ele>7</ele><time>2021-01-07T12:14:50Z</time><cmt>5.0 kmh</cmt></trkpt>
<trkpt lat="51.694879" lon="03.820770"><ele>7</ele><time>2021-01-07T12:14:51Z</time><cmt>5.0 kmh</cmt></trkpt>
<trkpt lat="51.694871" lon="03.820782"><ele>7</ele><time>2021-01-07T12:14:52Z</time><cmt>3.8 kmh</cmt></trkpt>
<trkpt lat="51.694863" lon="03.820795"><ele>7</ele><time>2021-01-07T12:14:53Z</time><cmt>3.8 kmh</cmt></trkpt>
<trkpt lat="51.694855" lon="03.820808"><ele>7</ele><time>2021-01-07T12:14:54Z</time><cmt>4.9 kmh</cmt></trkpt>
<trkpt lat="51.694847" lon="03.820819"><ele>7</ele><time>2021-01-07T12:14:55Z</time><cmt>4.7 kmh</cmt></trkpt>
<trkpt lat="51.694839" lon="03.820829"><ele>7</ele><time>2021-01-07T12:14:56Z</time><cmt>4.4 kmh</cmt></trkpt>
<trkpt lat="51.694831" lon="03.820839"><ele>7</ele><time>2021-01-07T12:14:57Z</time><cmt>4.4 kmh</cmt></trkpt>
<trkpt lat="51.694824" lon="03.820850"><ele>7</ele><time>2021-01-07T12:14:58Z</time><cmt>3.5 kmh</cmt></trkpt>
<trkpt lat="51.694816" lon="03.820861"><ele>7</ele><time>2021-01-07T12:14:59Z</time><cmt>3.5 kmh</cmt></trkpt>
<trkpt lat="51.694808" lon="03.820874"><ele>7</ele><time>2021-01-07T12:15:00Z</time><cmt>4.6 kmh</cmt></trkpt>
<trkpt lat="51.694801" lon="03.820886"><ele>7</ele><time>2021-01-07T12:15:01Z</time><cmt>4.8 kmh</cmt></trkpt>
<trkpt lat="51.694792" lon="03.820899"><ele>7</ele><time>2021-01-07T12:15:02Z</time><cmt>4.9 kmh</cmt></trkpt>
<trkpt lat="51.694784" lon="03.820910"><ele>7</ele><time>2021-01-07T12:15:03Z</time><cmt>4.8 kmh</cmt></trkpt>
<trkpt lat="51.694775" lon="03.820921"><ele>7</ele><time>2021-01-07T12:15:04Z</time><cmt>4.7 kmh</cmt></trkpt>
<trkpt lat="51.694767" lon="03.820932"><ele>7</ele><time>2021-01-07T12:15:05Z</time><cmt>3.7 kmh</cmt></trkpt>
<trkpt lat="51.694761" lon="03.820940"><ele>7</ele><time>2021-01-07T12:15:06Z</time><cmt>3.3 kmh</cmt></trkpt>
<trkpt lat="51.694753" lon="03.820950"><ele>7</ele><time>2021-01-07T12:15:07Z</time><cmt>3.9 kmh</cmt></trkpt>
<trkpt lat="51.694744" lon="03.820962"><ele>7</ele><time>2021-01-07T12:15:08Z</time><cmt>4.6 kmh</cmt></trkpt>
<trkpt lat="51.694736" lon="03.820976"><ele>7</ele><time>2021-01-07T12:15:09Z</time><cmt>5.0 kmh</cmt></trkpt>
<trkpt lat="51.694729" lon="03.820989"><ele>7</ele><time>2021-01-07T12:15:10Z</time><cmt>4.8 kmh</cmt></trkpt>
<trkpt lat="51.694721" lon="03.821001"><ele>7</ele><time>2021-01-07T12:15:11Z</time><cmt>3.8 kmh</cmt></trkpt>
<trkpt lat="51.694714" lon="03.821013"><ele>7</ele><time>2021-01-07T12:15:12Z</time><cmt>3.6 kmh</cmt></trkpt>
<trkpt lat="51.694707" lon="03.821024"><ele>7</ele><time>2021-01-07T12:15:13Z</time><cmt>4.4 kmh</cmt></trkpt>
<trkpt lat="51.694699" lon="03.821035"><ele>7</ele><time>2021-01-07T12:15:14Z</time><cmt>4.5 kmh</cmt></trkpt>
<trkpt lat="51.694691" lon="03.821046"><ele>7</ele><time>2021-01-07T12:15:15Z</time><cmt>4.5 kmh</cmt></trkpt>
<trkpt lat="51.694682" lon="03.821059"><ele>7</ele><time>2021-01-07T12:15:16Z</time><cmt>4.8 kmh</cmt></trkpt>
<trkpt lat="51.694674" lon="03.821071"><ele>7</ele><time>2021-01-07T12:15:17Z</time><cmt>3.9 kmh</cmt></trkpt>
<trkpt lat="51.694665" lon="03.821082"><ele>7</ele><time>2021-01-07T12:15:18Z</time><cmt>3.8 kmh</cmt></trkpt>
<trkpt lat="51.694658" lon="03.821093"><ele>6</ele><time>2021-01-07T12:15:19Z</time><cmt>4.6 kmh</cmt></trkpt>
<trkpt lat="51.694650" lon="03.821104"><ele>6</ele><time>2021-01-07T12:15:20Z</time><cmt>4.5 kmh</cmt></trkpt>
<trkpt lat="51.694642" lon="03.821116"><ele>6</ele><time>2021-01-07T12:15:21Z</time><cmt>4.6 kmh</cmt></trkpt>
<trkpt lat="51.694633" lon="03.821129"><ele>6</ele><time>2021-01-07T12:15:22Z</time><cmt>4.9 kmh</cmt></trkpt>
<trkpt lat="51.694625" lon="03.821141"><ele>6</ele><time>2021-01-07T12:15:23Z</time><cmt>4.9 kmh</cmt></trkpt>
<trkpt lat="51.694617" lon="03.821154"><ele>6</ele><time>2021-01-07T12:15:24Z</time><cmt>3.8 kmh</cmt></trkpt>
<trkpt lat="51.694610" lon="03.821164"><ele>6</ele><time>2021-01-07T12:15:25Z</time><cmt>3.5 kmh</cmt></trkpt>
<trkpt lat="51.694603" lon="03.821174"><ele>6</ele><time>2021-01-07T12:15:26Z</time><cmt>4.2 kmh</cmt></trkpt>
<trkpt lat="51.694594" lon="03.821186"><ele>6</ele><time>2021-01-07T12:15:27Z</time><cmt>4.5 kmh</cmt></trkpt>
<trkpt lat="51.694585" lon="03.821198"><ele>6</ele><time>2021-01-07T12:15:28Z</time><cmt>4.9 kmh</cmt></trkpt>
<trkpt lat="51.694577" lon="03.821209"><ele>6</ele><time>2021-01-07T12:15:29Z</time><cmt>4.8 kmh</cmt></trkpt>
<trkpt lat="51.694569" lon="03.821220"><ele>5</ele><time>2021-01-07T12:15:30Z</time><cmt>3.7 kmh</cmt></trkpt>
<trkpt lat="51.694562" lon="03.821231"><ele>5</ele><time>2021-01-07T12:15:31Z</time><cmt>3.6 kmh</cmt></trkpt>
<trkpt lat="51.694553" lon="03.821242"><ele>5</ele><time>2021-01-07T12:15:32Z</time><cmt>4.5 kmh</cmt></trkpt>
<trkpt lat="51.694545" lon="03.821252"><ele>5</ele><time>2021-01-07T12:15:33Z</time><cmt>4.5 kmh</cmt></trkpt>
<trkpt lat="51.694537" lon="03.821263"><ele>5</ele><time>2021-01-07T12:15:34Z</time><cmt>4.4 kmh</cmt></trkpt>
<trkpt lat="51.694530" lon="03.821274"><ele>5</ele><time>2021-01-07T12:15:35Z</time><cmt>4.4 kmh</cmt></trkpt>
<trkpt lat="51.694523" lon="03.821284"><ele>5</ele><time>2021-01-07T12:15:36Z</time><cmt>3.3 kmh</cmt></trkpt>
<trkpt lat="51.694516" lon="03.821294"><ele>5</ele><time>2021-01-07T12:15:37Z</time><cmt>3.2 kmh</cmt></trkpt>
<trkpt lat="51.694508" lon="03.821309"><ele>5</ele><time>2021-01-07T12:15:38Z</time><cmt>4.6 kmh</cmt></trkpt>
<trkpt lat="51.694500" lon="03.821323"><ele>5</ele><time>2021-01-07T12:15:39Z</time><cmt>5.0 kmh</cmt></trkpt>
<trkpt lat="51.694491" lon="03.821335"><ele>5</ele><time>2021-01-07T12:15:40Z</time><cmt>5.0 kmh</cmt></trkpt>
<trkpt lat="51.694482" lon="03.821348"><ele>4</ele><time>2021-01-07T12:15:41Z</time><cmt>5.0 kmh</cmt></trkpt>
<trkpt lat="51.694473" lon="03.821360"><ele>4</ele><time>2021-01-07T12:15:42Z</time><cmt>5.0 kmh</cmt></trkpt>
<trkpt lat="51.694464" lon="03.821371"><ele>4</ele><time>2021-01-07T12:15:43Z</time><cmt>4.0 kmh</cmt></trkpt>
<trkpt lat="51.694456" lon="03.821383"><ele>4</ele><time>2021-01-07T12:15:44Z</time><cmt>3.9 kmh</cmt></trkpt>
<trkpt lat="51.694447" lon="03.821396"><ele>4</ele><time>2021-01-07T12:15:45Z</time><cmt>5.0 kmh</cmt></trkpt>
<trkpt lat="51.694438" lon="03.821410"><ele>4</ele><time>2021-01-07T12:15:46Z</time><cmt>5.0 kmh</cmt></trkpt>
<trkpt lat="51.694429" lon="03.821423"><ele>4</ele><time>2021-01-07T12:15:47Z</time><cmt>5.0 kmh</cmt></trkpt>
<trkpt lat="51.694422" lon="03.821432"><ele>4</ele><time>2021-01-07T12:15:48Z</time><cmt>4.5 kmh</cmt></trkpt>
<trkpt lat="51.694414" lon="03.821443"><ele>4</ele><time>2021-01-07T12:15:49Z</time><cmt>3.4 kmh</cmt></trkpt>
<trkpt lat="51.694405" lon="03.821452"><ele>4</ele><time>2021-01-07T12:15:50Z</time><cmt>3.6 kmh</cmt></trkpt>
<trkpt lat="51.694396" lon="03.821461"><ele>4</ele><time>2021-01-07T12:15:51Z</time><cmt>4.4 kmh</cmt></trkpt>
<trkpt lat="51.694388" lon="03.821469"><ele>4</ele><time>2021-01-07T12:15:52Z</time><cmt>4.3 kmh</cmt></trkpt>
<trkpt lat="51.694379" lon="03.821477"><ele>4</ele><time>2021-01-07T12:15:53Z</time><cmt>4.3 kmh</cmt></trkpt>
<trkpt lat="51.694371" lon="03.821485"><ele>5</ele><time>2021-01-07T12:15:54Z</time><cmt>4.2 kmh</cmt></trkpt>
<trkpt lat="51.694362" lon="03.821498"><ele>5</ele><time>2021-01-07T12:15:55Z</time><cmt>3.7 kmh</cmt></trkpt>
<trkpt lat="51.694353" lon="03.821512"><ele>5</ele><time>2021-01-07T12:15:56Z</time><cmt>4.2 kmh</cmt></trkpt>
<trkpt lat="51.694344" lon="03.821524"><ele>5</ele><time>2021-01-07T12:15:57Z</time><cmt>5.0 kmh</cmt></trkpt>
<trkpt lat="51.694336" lon="03.821535"><ele>5</ele><time>2021-01-07T12:15:58Z</time><cmt>4.9 kmh</cmt></trkpt>
<trkpt lat="51.694328" lon="03.821547"><ele>5</ele><time>2021-01-07T12:15:59Z</time><cmt>4.7 kmh</cmt></trkpt>
<trkpt lat="51.694319" lon="03.821559"><ele>5</ele><time>2021-01-07T12:16:00Z</time><cmt>4.9 kmh</cmt></trkpt>
<trkpt lat="51.694309" lon="03.821572"><ele>5</ele><time>2021-01-07T12:16:01Z</time><cmt>5.0 kmh</cmt></trkpt>
<trkpt lat="51.694300" lon="03.821583"><ele>5</ele><time>2021-01-07T12:16:02Z</time><cmt>4.1 kmh</cmt></trkpt>
<trkpt lat="51.694291" lon="03.821593"><ele>5</ele><time>2021-01-07T12:16:03Z</time><cmt>4.0 kmh</cmt></trkpt>
<trkpt lat="51.694282" lon="03.821602"><ele>5</ele><time>2021-01-07T12:16:04Z</time><cmt>4.7 kmh</cmt></trkpt>
<trkpt lat="51.694274" lon="03.821611"><ele>5</ele><time>2021-01-07T12:16:05Z</time><cmt>4.3 kmh</cmt></trkpt>
<trkpt lat="51.694266" lon="03.821619"><ele>5</ele><time>2021-01-07T12:16:06Z</time><cmt>4.1 kmh</cmt></trkpt>
<trkpt lat="51.694258" lon="03.821628"><ele>5</ele><time>2021-01-07T12:16:07Z</time><cmt>4.2 kmh</cmt></trkpt>
<trkpt lat="51.694249" lon="03.821637"><ele>5</ele><time>2021-01-07T12:16:08Z</time><cmt>3.5 kmh</cmt></trkpt>
<trkpt lat="51.694241" lon="03.821647"><ele>5</ele><time>2021-01-07T12:16:09Z</time><cmt>3.5 kmh</cmt></trkpt>
<trkpt lat="51.694232" lon="03.821657"><ele>5</ele><time>2021-01-07T12:16:10Z</time><cmt>4.5 kmh</cmt></trkpt>
<trkpt lat="51.694223" lon="03.821668"><ele>5</ele><time>2021-01-07T12:16:11Z</time><cmt>4.9 kmh</cmt></trkpt>
<trkpt lat="51.694214" lon="03.821677"><ele>5</ele><time>2021-01-07T12:16:12Z</time><cmt>4.8 kmh</cmt></trkpt>
<trkpt lat="51.694203" lon="03.821694"><ele>4</ele><time>2021-01-07T12:16:13Z</time><cmt>5.0 kmh</cmt></trkpt>
<trkpt lat="51.694194" lon="03.821707"><ele>4</ele><time>2021-01-07T12:16:14Z</time><cmt>4.7 kmh</cmt></trkpt>
<trkpt lat="51.694184" lon="03.821721"><ele>4</ele><time>2021-01-07T12:16:15Z</time><cmt>4.3 kmh</cmt></trkpt>
<trkpt lat="51.694175" lon="03.821733"><ele>4</ele><time>2021-01-07T12:16:16Z</time><cmt>5.0 kmh</cmt></trkpt>
<trkpt lat="51.694166" lon="03.821743"><ele>4</ele><time>2021-01-07T12:16:17Z</time><cmt>5.0 kmh</cmt></trkpt>
<trkpt lat="51.694156" lon="03.821753"><ele>4</ele><time>2021-01-07T12:16:18Z</time><cmt>4.9 kmh</cmt></trkpt>
<trkpt lat="51.694146" lon="03.821763"><ele>4</ele><time>2021-01-07T12:16:19Z</time><cmt>4.9 kmh</cmt></trkpt>
<trkpt lat="51.694136" lon="03.821772"><ele>4</ele><time>2021-01-07T12:16:20Z</time><cmt>5.0 kmh</cmt></trkpt>
<trkpt lat="51.694127" lon="03.821780"><ele>4</ele><time>2021-01-07T12:16:21Z</time><cmt>3.9 kmh</cmt></trkpt>
<trkpt lat="51.694118" lon="03.821788"><ele>4</ele><time>2021-01-07T12:16:22Z</time><cmt>3.6 kmh</cmt></trkpt>
<trkpt lat="51.694109" lon="03.821795"><ele>4</ele><time>2021-01-07T12:16:23Z</time><cmt>4.2 kmh</cmt></trkpt>
<trkpt lat="51.694101" lon="03.821802"><ele>4</ele><time>2021-01-07T12:16:24Z</time><cmt>4.1 kmh</cmt></trkpt>
<trkpt lat="51.694092" lon="03.821810"><ele>4</ele><time>2021-01-07T12:16:25Z</time><cmt>4.3 kmh</cmt></trkpt>
<trkpt lat="51.694083" lon="03.821817"><ele>4</ele><time>2021-01-07T12:16:26Z</time><cmt>4.3 kmh</cmt></trkpt>
<trkpt lat="51.694074" lon="03.821824"><ele>4</ele><time>2021-01-07T12:16:27Z</time><cmt>3.4 kmh</cmt></trkpt>
<trkpt lat="51.694066" lon="03.821832"><ele>5</ele><time>2021-01-07T12:16:28Z</time><cmt>3.3 kmh</cmt></trkpt>
<trkpt lat="51.694058" lon="03.821839"><ele>5</ele><time>2021-01-07T12:16:29Z</time><cmt>4.0 kmh</cmt></trkpt>
<trkpt lat="51.694050" lon="03.821847"><ele>5</ele><time>2021-01-07T12:16:30Z</time><cmt>4.0 kmh</cmt></trkpt>
<trkpt lat="51.694042" lon="03.821856"><ele>5</ele><time>2021-01-07T12:16:31Z</time><cmt>4.1 kmh</cmt></trkpt>
<trkpt lat="51.694033" lon="03.821865"><ele>5</ele><time>2021-01-07T12:16:32Z</time><cmt>4.4 kmh</cmt></trkpt>
<trkpt lat="51.694023" lon="03.821873"><ele>5</ele><time>2021-01-07T12:16:33Z</time><cmt>3.7 kmh</cmt></trkpt>
<trkpt lat="51.694014" lon="03.821882"><ele>5</ele><time>2021-01-07T12:16:34Z</time><cmt>3.8 kmh</cmt></trkpt>
<trkpt lat="51.694005" lon="03.821891"><ele>6</ele><time>2021-01-07T12:16:35Z</time><cmt>4.6 kmh</cmt></trkpt>
<trkpt lat="51.693996" lon="03.821899"><ele>6</ele><time>2021-01-07T12:16:36Z</time><cmt>4.4 kmh</cmt></trkpt>
<trkpt lat="51.693987" lon="03.821908"><ele>6</ele><time>2021-01-07T12:16:37Z</time><cmt>4.4 kmh</cmt></trkpt>
<trkpt lat="51.693979" lon="03.821919"><ele>6</ele><time>2021-01-07T12:16:38Z</time><cmt>4.6 kmh</cmt></trkpt>
<trkpt lat="51.693970" lon="03.821929"><ele>6</ele><time>2021-01-07T12:16:39Z</time><cmt>4.7 kmh</cmt></trkpt>
<trkpt lat="51.693961" lon="03.821939"><ele>6</ele><time>2021-01-07T12:16:40Z</time><cmt>3.7 kmh</cmt></trkpt>
<trkpt lat="51.693953" lon="03.821949"><ele>6</ele><time>2021-01-07T12:16:41Z</time><cmt>3.6 kmh</cmt></trkpt>
<trkpt lat="51.693944" lon="03.821959"><ele>6</ele><time>2021-01-07T12:16:42Z</time><cmt>4.6 kmh</cmt></trkpt>
<trkpt lat="51.693934" lon="03.821969"><ele>6</ele><time>2021-01-07T12:16:43Z</time><cmt>4.8 kmh</cmt></trkpt>
<trkpt lat="51.693924" lon="03.821980"><ele>7</ele><time>2021-01-07T12:16:44Z</time><cmt>5.0 kmh</cmt></trkpt>
<trkpt lat="51.693914" lon="03.821992"><ele>7</ele><time>2021-01-07T12:16:45Z</time><cmt>5.0 kmh</cmt></trkpt>
<trkpt lat="51.693905" lon="03.822000"><ele>7</ele><time>2021-01-07T12:16:46Z</time><cmt>4.0 kmh</cmt></trkpt>
<trkpt lat="51.693897" lon="03.822006"><ele>7</ele><time>2021-01-07T12:16:47Z</time><cmt>3.3 kmh</cmt></trkpt>
<trkpt lat="51.693888" lon="03.822013"><ele>7</ele><time>2021-01-07T12:16:48Z</time><cmt>3.9 kmh</cmt></trkpt>
<trkpt lat="51.693879" lon="03.822022"><ele>7</ele><time>2021-01-07T12:16:49Z</time><cmt>4.3 kmh</cmt></trkpt>
<trkpt lat="51.693870" lon="03.822032"><ele>7</ele><time>2021-01-07T12:16:50Z</time><cmt>4.6 kmh</cmt></trkpt>
<trkpt lat="51.693860" lon="03.822043"><ele>7</ele><time>2021-01-07T12:16:51Z</time><cmt>5.0 kmh</cmt></trkpt>
<trkpt lat="51.693851" lon="03.822054"><ele>7</ele><time>2021-01-07T12:16:52Z</time><cmt>4.1 kmh</cmt></trkpt>
<trkpt lat="51.693843" lon="03.822064"><ele>7</ele><time>2021-01-07T12:16:53Z</time><cmt>3.7 kmh</cmt></trkpt>
<trkpt lat="51.693835" lon="03.822073"><ele>7</ele><time>2021-01-07T12:16:54Z</time><cmt>4.3 kmh</cmt></trkpt>
<trkpt lat="51.693826" lon="03.822082"><ele>7</ele><time>2021-01-07T12:16:55Z</time><cmt>4.3 kmh</cmt></trkpt>
<trkpt lat="51.693817" lon="03.822093"><ele>7</ele><time>2021-01-07T12:16:56Z</time><cmt>4.6 kmh</cmt></trkpt>
<trkpt lat="51.693808" lon="03.822103"><ele>7</ele><time>2021-01-07T12:16:57Z</time><cmt>4.7 kmh</cmt></trkpt>
<trkpt lat="51.693800" lon="03.822113"><ele>7</ele><time>2021-01-07T12:16:58Z</time><cmt>4.6 kmh</cmt></trkpt>
<trkpt lat="51.693792" lon="03.822123"><ele>7</ele><time>2021-01-07T12:16:59Z</time><cmt>3.6 kmh</cmt></trkpt>
<trkpt lat="51.693784" lon="03.822134"><ele>7</ele><time>2021-01-07T12:17:00Z</time><cmt>3.5 kmh</cmt></trkpt>
<trkpt lat="51.693776" lon="03.822145"><ele>7</ele><time>2021-01-07T12:17:01Z</time><cmt>4.6 kmh</cmt></trkpt>
<trkpt lat="51.693767" lon="03.822155"><ele>7</ele><time>2021-01-07T12:17:02Z</time><cmt>4.6 kmh</cmt></trkpt>
<trkpt lat="51.693758" lon="03.822163"><ele>7</ele><time>2021-01-07T12:17:03Z</time><cmt>4.5 kmh</cmt></trkpt>
<trkpt lat="51.693749" lon="03.822172"><ele>7</ele><time>2021-01-07T12:17:04Z</time><cmt>4.4 kmh</cmt></trkpt>
<trkpt lat="51.693740" lon="03.822181"><ele>7</ele><time>2021-01-07T12:17:05Z</time><cmt>3.6 kmh</cmt></trkpt>
<trkpt lat="51.693732" lon="03.822193"><ele>7</ele><time>2021-01-07T12:17:06Z</time><cmt>3.8 kmh</cmt></trkpt>
<trkpt lat="51.693723" lon="03.822204"><ele>7</ele><time>2021-01-07T12:17:07Z</time><cmt>4.8 kmh</cmt></trkpt>
<trkpt lat="51.693714" lon="03.822214"><ele>7</ele><time>2021-01-07T12:17:08Z</time><cmt>4.7 kmh</cmt></trkpt>
<trkpt lat="51.693704" lon="03.822226"><ele>7</ele><time>2021-01-07T12:17:09Z</time><cmt>4.9 kmh</cmt></trkpt>
<trkpt lat="51.693694" lon="03.822238"><ele>7</ele><time>2021-01-07T12:17:10Z</time><cmt>5.0 kmh</cmt></trkpt>
<trkpt lat="51.693685" lon="03.822247"><ele>7</ele><time>2021-01-07T12:17:11Z</time><cmt>5.0 kmh</cmt></trkpt>
<trkpt lat="51.693676" lon="03.822256"><ele>7</ele><time>2021-01-07T12:17:12Z</time><cmt>3.7 kmh</cmt></trkpt>
<trkpt lat="51.693667" lon="03.822265"><ele>7</ele><time>2021-01-07T12:17:13Z</time><cmt>3.7 kmh</cmt></trkpt>
<trkpt lat="51.693656" lon="03.822275"><ele>7</ele><time>2021-01-07T12:17:14Z</time><cmt>4.9 kmh</cmt></trkpt>
<trkpt lat="51.693646" lon="03.822286"><ele>7</ele><time>2021-01-07T12:17:15Z</time><cmt>5.0 kmh</cmt></trkpt>
<trkpt lat="51.693637" lon="03.822296"><ele>7</ele><time>2021-01-07T12:17:16Z</time><cmt>5.0 kmh</cmt></trkpt>
<trkpt lat="51.693628" lon="03.822306"><ele>7</ele><time>2021-01-07T12:17:17Z</time><cmt>4.8 kmh</cmt></trkpt>
<trkpt lat="51.693619" lon="03.822314"><ele>7</ele><time>2021-01-07T12:17:18Z</time><cmt>3.6 kmh</cmt></trkpt>
<trkpt lat="51.693610" lon="03.822325"><ele>7</ele><time>2021-01-07T12:17:19Z</time><cmt>3.7 kmh</cmt></trkpt>
<trkpt lat="51.693601" lon="03.822334"><ele>7</ele><time>2021-01-07T12:17:20Z</time><cmt>4.6 kmh</cmt></trkpt>
<trkpt lat="51.693593" lon="03.822344"><ele>7</ele><time>2021-01-07T12:17:21Z</time><cmt>4.4 kmh</cmt></trkpt>
<trkpt lat="51.693585" lon="03.822353"><ele>7</ele><time>2021-01-07T12:17:22Z</time><cmt>4.3 kmh</cmt></trkpt>
<trkpt lat="51.693577" lon="03.822363"><ele>6</ele><time>2021-01-07T12:17:23Z</time><cmt>4.2 kmh</cmt></trkpt>
<trkpt lat="51.693568" lon="03.822373"><ele>6</ele><time>2021-01-07T12:17:24Z</time><cmt>3.6 kmh</cmt></trkpt>
<trkpt lat="51.693560" lon="03.822383"><ele>6</ele><time>2021-01-07T12:17:25Z</time><cmt>3.7 kmh</cmt></trkpt>
<trkpt lat="51.693552" lon="03.822393"><ele>6</ele><time>2021-01-07T12:17:26Z</time><cmt>4.4 kmh</cmt></trkpt>
<trkpt lat="51.693543" lon="03.822403"><ele>6</ele><time>2021-01-07T12:17:27Z</time><cmt>4.6 kmh</cmt></trkpt>
<trkpt lat="51.693533" lon="03.822414"><ele>6</ele><time>2021-01-07T12:17:28Z</time><cmt>5.0 kmh</cmt></trkpt>
<trkpt lat="51.693522" lon="03.822422"><ele>6</ele><time>2021-01-07T12:17:29Z</time><cmt>5.0 kmh</cmt></trkpt>
<trkpt lat="51.693512" lon="03.822428"><ele>6</ele><time>2021-01-07T12:17:30Z</time><cmt>4.8 kmh</cmt></trkpt>
<trkpt lat="51.693503" lon="03.822436"><ele>6</ele><time>2021-01-07T12:17:31Z</time><cmt>3.7 kmh</cmt></trkpt>
<trkpt lat="51.693494" lon="03.822445"><ele>6</ele><time>2021-01-07T12:17:32Z</time><cmt>3.6 kmh</cmt></trkpt>
<trkpt lat="51.693486" lon="03.822455"><ele>7</ele><time>2021-01-07T12:17:33Z</time><cmt>4.4 kmh</cmt></trkpt>
<trkpt lat="51.693477" lon="03.822465"><ele>7</ele><time>2021-01-07T12:17:34Z</time><cmt>4.5 kmh</cmt></trkpt>
<trkpt lat="51.693468" lon="03.822478"><ele>7</ele><time>2021-01-07T12:17:35Z</time><cmt>5.0 kmh</cmt></trkpt>
<trkpt lat="51.693459" lon="03.822485"><ele>7</ele><time>2021-01-07T12:17:36Z</time><cmt>4.8 kmh</cmt></trkpt>
<trkpt lat="51.693450" lon="03.822491"><ele>7</ele><time>2021-01-07T12:17:37Z</time><cmt>3.3 kmh</cmt></trkpt>
<trkpt lat="51.693442" lon="03.822498"><ele>7</ele><time>2021-01-07T12:17:38Z</time><cmt>3.3 kmh</cmt></trkpt>
<trkpt lat="51.693433" lon="03.822509"><ele>7</ele><time>2021-01-07T12:17:39Z</time><cmt>4.5 kmh</cmt></trkpt>
<trkpt lat="51.693424" lon="03.822519"><ele>7</ele><time>2021-01-07T12:17:40Z</time><cmt>4.8 kmh</cmt></trkpt>
<trkpt lat="51.693415" lon="03.822529"><ele>7</ele><time>2021-01-07T12:17:41Z</time><cmt>4.8 kmh</cmt></trkpt>
<trkpt lat="51.693406" lon="03.822539"><ele>7</ele><time>2021-01-07T12:17:42Z</time><cmt>4.7 kmh</cmt></trkpt>
<trkpt lat="51.693397" lon="03.822548"><ele>7</ele><time>2021-01-07T12:17:43Z</time><cmt>3.7 kmh</cmt></trkpt>
<trkpt lat="51.693388" lon="03.822558"><ele>7</ele><time>2021-01-07T12:17:44Z</time><cmt>3.8 kmh</cmt></trkpt>
<trkpt lat="51.693377" lon="03.822569"><ele>7</ele><time>2021-01-07T12:17:45Z</time><cmt>5.0 kmh</cmt></trkpt>
<trkpt lat="51.693368" lon="03.822580"><ele>7</ele><time>2021-01-07T12:17:46Z</time><cmt>5.0 kmh</cmt></trkpt>
<trkpt lat="51.693359" lon="03.822591"><ele>7</ele><time>2021-01-07T12:17:47Z</time><cmt>4.9 kmh</cmt></trkpt>
<trkpt lat="51.693351" lon="03.822603"><ele>7</ele><time>2021-01-07T12:17:48Z</time><cmt>4.8 kmh</cmt></trkpt>
<trkpt lat="51.693343" lon="03.822616"><ele>7</ele><time>2021-01-07T12:17:49Z</time><cmt>4.8 kmh</cmt></trkpt>
<trkpt lat="51.693334" lon="03.822629"><ele>7</ele><time>2021-01-07T12:17:50Z</time><cmt>4.0 kmh</cmt></trkpt>
<trkpt lat="51.693325" lon="03.822641"><ele>7</ele><time>2021-01-07T12:17:51Z</time><cmt>4.0 kmh</cmt></trkpt>
<trkpt lat="51.693316" lon="03.822653"><ele>7</ele><time>2021-01-07T12:17:52Z</time><cmt>5.0 kmh</cmt></trkpt>
<trkpt lat="51.693307" lon="03.822662"><ele>7</ele><time>2021-01-07T12:17:53Z</time><cmt>4.8 kmh</cmt></trkpt>
<trkpt lat="51.693298" lon="03.822672"><ele>7</ele><time>2021-01-07T12:17:54Z</time><cmt>4.8 kmh</cmt></trkpt>
<trkpt lat="51.693288" lon="03.822683"><ele>7</ele><time>2021-01-07T12:17:55Z</time><cmt>5.0 kmh</cmt></trkpt>
<trkpt lat="51.693278" lon="03.822694"><ele>7</ele><time>2021-01-07T12:17:56Z</time><cmt>4.1 kmh</cmt></trkpt>
<trkpt lat="51.693268" lon="03.822706"><ele>7</ele><time>2021-01-07T12:17:57Z</time><cmt>4.3 kmh</cmt></trkpt>
<trkpt lat="51.693258" lon="03.822718"><ele>7</ele><time>2021-01-07T12:17:58Z</time><cmt>5.0 kmh</cmt></trkpt>
<trkpt lat="51.693247" lon="03.822731"><ele>7</ele><time>2021-01-07T12:17:59Z</time><cmt>5.0 kmh</cmt></trkpt>
<trkpt lat="51.693237" lon="03.822744"><ele>7</ele><time>2021-01-07T12:18:00Z</time><cmt>5.0 kmh</cmt></trkpt>
<trkpt lat="51.693227" lon="03.822757"><ele>7</ele><time>2021-01-07T12:18:01Z</time><cmt>5.0 kmh</cmt></trkpt>
<trkpt lat="51.693217" lon="03.822768"><ele>7</ele><time>2021-01-07T12:18:02Z</time><cmt>4.2 kmh</cmt></trkpt>
<trkpt lat="51.693208" lon="03.822778"><ele>7</ele><time>2021-01-07T12:18:03Z</time><cmt>4.0 kmh</cmt></trkpt>
<trkpt lat="51.693199" lon="03.822789"><ele>7</ele><time>2021-01-07T12:18:04Z</time><cmt>4.8 kmh</cmt></trkpt>
<trkpt lat="51.693189" lon="03.822800"><ele>7</ele><time>2021-01-07T12:18:05Z</time><cmt>4.9 kmh</cmt></trkpt>
<trkpt lat="51.693180" lon="03.822809"><ele>7</ele><time>2021-01-07T12:18:06Z</time><cmt>5.0 kmh</cmt></trkpt>
<trkpt lat="51.693170" lon="03.822819"><ele>7</ele><time>2021-01-07T12:18:07Z</time><cmt>4.9 kmh</cmt></trkpt>
<trkpt lat="51.693160" lon="03.822829"><ele>7</ele><time>2021-01-07T12:18:08Z</time><cmt>5.0 kmh</cmt></trkpt>
<trkpt lat="51.693150" lon="03.822840"><ele>7</ele><time>2021-01-07T12:18:09Z</time><cmt>4.0 kmh</cmt></trkpt>
<trkpt lat="51.693141" lon="03.822851"><ele>7</ele><time>2021-01-07T12:18:10Z</time><cmt>4.0 kmh</cmt></trkpt>
<trkpt lat="51.693131" lon="03.822862"><ele>7</ele><time>2021-01-07T12:18:11Z</time><cmt>5.0 kmh</cmt></trkpt>
<trkpt lat="51.693122" lon="03.822873"><ele>7</ele><time>2021-01-07T12:18:12Z</time><cmt>4.9 kmh</cmt></trkpt>
<trkpt lat="51.693113" lon="03.822883"><ele>7</ele><time>2021-01-07T12:18:13Z</time><cmt>5.0 kmh</cmt></trkpt>
<trkpt lat="51.693102" lon="03.822895"><ele>8</ele><time>2021-01-07T12:18:14Z</time><cmt>5.0 kmh</cmt></trkpt>
<trkpt lat="51.693092" lon="03.822907"><ele>8</ele><time>2021-01-07T12:18:15Z</time><cmt>5.1 kmh</cmt></trkpt>
<trkpt lat="51.693081" lon="03.822919"><ele>8</ele><time>2021-01-07T12:18:16Z</time><cmt>5.1 kmh</cmt></trkpt>
<trkpt lat="51.693071" lon="03.822932"><ele>8</ele><time>2021-01-07T12:18:17Z</time><cmt>5.1 kmh</cmt></trkpt>
<trkpt lat="51.693061" lon="03.822945"><ele>8</ele><time>2021-01-07T12:18:18Z</time><cmt>5.1 kmh</cmt></trkpt>
<trkpt lat="51.693050" lon="03.822958"><ele>8</ele><time>2021-01-07T12:18:19Z</time><cmt>5.3 kmh</cmt></trkpt>
<trkpt lat="51.693040" lon="03.822972"><ele>8</ele><time>2021-01-07T12:18:20Z</time><cmt>5.0 kmh</cmt></trkpt>
<trkpt lat="51.693029" lon="03.822984"><ele>8</ele><time>2021-01-07T12:18:21Z</time><cmt>5.0 kmh</cmt></trkpt>
<trkpt lat="51.693020" lon="03.822994"><ele>8</ele><time>2021-01-07T12:18:22Z</time><cmt>4.2 kmh</cmt></trkpt>
<trkpt lat="51.693010" lon="03.823004"><ele>8</ele><time>2021-01-07T12:18:23Z</time><cmt>4.9 kmh</cmt></trkpt>
<trkpt lat="51.693002" lon="03.823015"><ele>8</ele><time>2021-01-07T12:18:24Z</time><cmt>4.8 kmh</cmt></trkpt>
<trkpt lat="51.692993" lon="03.823024"><ele>8</ele><time>2021-01-07T12:18:25Z</time><cmt>4.7 kmh</cmt></trkpt>
<trkpt lat="51.692983" lon="03.823034"><ele>8</ele><time>2021-01-07T12:18:26Z</time><cmt>4.7 kmh</cmt></trkpt>
<trkpt lat="51.692975" lon="03.823045"><ele>8</ele><time>2021-01-07T12:18:27Z</time><cmt>4.7 kmh</cmt></trkpt>
<trkpt lat="51.692967" lon="03.823055"><ele>8</ele><time>2021-01-07T12:18:28Z</time><cmt>3.6 kmh</cmt></trkpt>
<trkpt lat="51.692959" lon="03.823068"><ele>8</ele><time>2021-01-07T12:18:29Z</time><cmt>3.7 kmh</cmt></trkpt>
<trkpt lat="51.692951" lon="03.823080"><ele>8</ele><time>2021-01-07T12:18:30Z</time><cmt>4.9 kmh</cmt></trkpt>
<trkpt lat="51.692942" lon="03.823091"><ele>8</ele><time>2021-01-07T12:18:31Z</time><cmt>4.9 kmh</cmt></trkpt>
<trkpt lat="51.692932" lon="03.823103"><ele>7</ele><time>2021-01-07T12:18:32Z</time><cmt>5.0 kmh</cmt></trkpt>
<trkpt lat="51.692921" lon="03.823116"><ele>7</ele><time>2021-01-07T12:18:33Z</time><cmt>5.0 kmh</cmt></trkpt>
<trkpt lat="51.692911" lon="03.823129"><ele>7</ele><time>2021-01-07T12:18:34Z</time><cmt>5.1 kmh</cmt></trkpt>
<trkpt lat="51.692900" lon="03.823140"><ele>7</ele><time>2021-01-07T12:18:35Z</time><cmt>5.1 kmh</cmt></trkpt>
<trkpt lat="51.692889" lon="03.823153"><ele>7</ele><time>2021-01-07T12:18:36Z</time><cmt>5.0 kmh</cmt></trkpt>
<trkpt lat="51.692880" lon="03.823164"><ele>7</ele><time>2021-01-07T12:18:37Z</time><cmt>5.0 kmh</cmt></trkpt>
<trkpt lat="51.692870" lon="03.823174"><ele>7</ele><time>2021-01-07T12:18:38Z</time><cmt>5.0 kmh</cmt></trkpt>
<trkpt lat="51.692859" lon="03.823182"><ele>6</ele><time>2021-01-07T12:18:39Z</time><cmt>5.0 kmh</cmt></trkpt>
<trkpt lat="51.692848" lon="03.823191"><ele>6</ele><time>2021-01-07T12:18:40Z</time><cmt>5.0 kmh</cmt></trkpt>
<trkpt lat="51.692837" lon="03.823200"><ele>6</ele><time>2021-01-07T12:18:41Z</time><cmt>4.3 kmh</cmt></trkpt>
<trkpt lat="51.692826" lon="03.823209"><ele>6</ele><time>2021-01-07T12:18:42Z</time><cmt>5.0 kmh</cmt></trkpt>
<trkpt lat="51.692815" lon="03.823218"><ele>6</ele><time>2021-01-07T12:18:43Z</time><cmt>5.0 kmh</cmt></trkpt>
<trkpt lat="51.692805" lon="03.823227"><ele>6</ele><time>2021-01-07T12:18:44Z</time><cmt>5.0 kmh</cmt></trkpt>
<trkpt lat="51.692794" lon="03.823235"><ele>6</ele><time>2021-01-07T12:18:45Z</time><cmt>5.0 kmh</cmt></trkpt>
<trkpt lat="51.692784" lon="03.823244"><ele>6</ele><time>2021-01-07T12:18:46Z</time><cmt>5.0 kmh</cmt></trkpt>
<trkpt lat="51.692775" lon="03.823253"><ele>5</ele><time>2021-01-07T12:18:47Z</time><cmt>3.9 kmh</cmt></trkpt>
<trkpt lat="51.692765" lon="03.823264"><ele>5</ele><time>2021-01-07T12:18:48Z</time><cmt>3.9 kmh</cmt></trkpt>
<trkpt lat="51.692755" lon="03.823275"><ele>5</ele><time>2021-01-07T12:18:49Z</time><cmt>5.0 kmh</cmt></trkpt>
<trkpt lat="51.692744" lon="03.823284"><ele>5</ele><time>2021-01-07T12:18:50Z</time><cmt>5.0 kmh</cmt></trkpt>
<trkpt lat="51.692733" lon="03.823292"><ele>5</ele><time>2021-01-07T12:18:51Z</time><cmt>5.0 kmh</cmt></trkpt>
<trkpt lat="51.692722" lon="03.823299"><ele>5</ele><time>2021-01-07T12:18:52Z</time><cmt>5.0 kmh</cmt></trkpt>
<trkpt lat="51.692711" lon="03.823305"><ele>5</ele><time>2021-01-07T12:18:53Z</time><cmt>4.1 kmh</cmt></trkpt>
<trkpt lat="51.692700" lon="03.823312"><ele>5</ele><time>2021-01-07T12:18:54Z</time><cmt>4.1 kmh</cmt></trkpt>
<trkpt lat="51.692690" lon="03.823319"><ele>5</ele><time>2021-01-07T12:18:55Z</time><cmt>4.9 kmh</cmt></trkpt>
<trkpt lat="51.692681" lon="03.823328"><ele>5</ele><time>2021-01-07T12:18:56Z</time><cmt>4.7 kmh</cmt></trkpt>
<trkpt lat="51.692672" lon="03.823336"><ele>5</ele><time>2021-01-07T12:18:57Z</time><cmt>4.6 kmh</cmt></trkpt>
<trkpt lat="51.692663" lon="03.823343"><ele>5</ele><time>2021-01-07T12:18:58Z</time><cmt>4.4 kmh</cmt></trkpt>
<trkpt lat="51.692655" lon="03.823350"><ele>5</ele><time>2021-01-07T12:18:59Z</time><cmt>3.2 kmh</cmt></trkpt>
<trkpt lat="51.692647" lon="03.823358"><ele>5</ele><time>2021-01-07T12:19:00Z</time><cmt>3.1 kmh</cmt></trkpt>
<trkpt lat="51.692638" lon="03.823366"><ele>5</ele><time>2021-01-07T12:19:01Z</time><cmt>4.2 kmh</cmt></trkpt>
<trkpt lat="51.692628" lon="03.823373"><ele>5</ele><time>2021-01-07T12:19:02Z</time><cmt>4.5 kmh</cmt></trkpt>
<trkpt lat="51.692618" lon="03.823380"><ele>5</ele><time>2021-01-07T12:19:03Z</time><cmt>4.7 kmh</cmt></trkpt>
<trkpt lat="51.692608" lon="03.823388"><ele>5</ele><time>2021-01-07T12:19:04Z</time><cmt>4.7 kmh</cmt></trkpt>
<trkpt lat="51.692598" lon="03.823395"><ele>6</ele><time>2021-01-07T12:19:05Z</time><cmt>4.8 kmh</cmt></trkpt>
<trkpt lat="51.692588" lon="03.823402"><ele>6</ele><time>2021-01-07T12:19:06Z</time><cmt>3.9 kmh</cmt></trkpt>
<trkpt lat="51.692577" lon="03.823409"><ele>6</ele><time>2021-01-07T12:19:07Z</time><cmt>3.8 kmh</cmt></trkpt>
<trkpt lat="51.692568" lon="03.823415"><ele>6</ele><time>2021-01-07T12:19:08Z</time><cmt>4.5 kmh</cmt></trkpt>
<trkpt lat="51.692560" lon="03.823423"><ele>6</ele><time>2021-01-07T12:19:09Z</time><cmt>4.1 kmh</cmt></trkpt>
<trkpt lat="51.692552" lon="03.823431"><ele>6</ele><time>2021-01-07T12:19:10Z</time><cmt>4.1 kmh</cmt></trkpt>
<trkpt lat="51.692544" lon="03.823439"><ele>6</ele><time>2021-01-07T12:19:11Z</time><cmt>4.2 kmh</cmt></trkpt>
<trkpt lat="51.692536" lon="03.823446"><ele>6</ele><time>2021-01-07T12:19:12Z</time><cmt>3.3 kmh</cmt></trkpt>
<trkpt lat="51.692528" lon="03.823453"><ele>6</ele><time>2021-01-07T12:19:13Z</time><cmt>3.2 kmh</cmt></trkpt>
<trkpt lat="51.692521" lon="03.823460"><ele>6</ele><time>2021-01-07T12:19:14Z</time><cmt>3.7 kmh</cmt></trkpt>
<trkpt lat="51.692516" lon="03.823465"><ele>7</ele><time>2021-01-07T12:19:15Z</time><cmt>2.9 kmh</cmt></trkpt>
<trkpt lat="51.692514" lon="03.823468"><ele>7</ele><time>2021-01-07T12:19:16Z</time><cmt>1.9 kmh</cmt></trkpt>
<trkpt lat="51.692511" lon="03.823470"><ele>7</ele><time>2021-01-07T12:19:17Z</time><cmt>1.4 kmh</cmt></trkpt>
<trkpt lat="51.692507" lon="03.823474"><ele>7</ele><time>2021-01-07T12:19:18Z</time><cmt>1.8 kmh</cmt></trkpt>
<trkpt lat="51.692502" lon="03.823478"><ele>7</ele><time>2021-01-07T12:19:19Z</time><cmt>1.7 kmh</cmt></trkpt>
<trkpt lat="51.692499" lon="03.823481"><ele>7</ele><time>2021-01-07T12:19:20Z</time><cmt>1.6 kmh</cmt></trkpt>
<trkpt lat="51.692494" lon="03.823484"><ele>7</ele><time>2021-01-07T12:19:21Z</time><cmt>1.9 kmh</cmt></trkpt>
<trkpt lat="51.692487" lon="03.823488"><ele>7</ele><time>2021-01-07T12:19:22Z</time><cmt>2.6 kmh</cmt></trkpt>
<trkpt lat="51.692479" lon="03.823494"><ele>7</ele><time>2021-01-07T12:19:23Z</time><cmt>3.5 kmh</cmt></trkpt>
<trkpt lat="51.692471" lon="03.823498"><ele>8</ele><time>2021-01-07T12:19:24Z</time><cmt>3.7 kmh</cmt></trkpt>
<trkpt lat="51.692463" lon="03.823503"><ele>8</ele><time>2021-01-07T12:19:25Z</time><cmt>2.9 kmh</cmt></trkpt>
<trkpt lat="51.692456" lon="03.823508"><ele>8</ele><time>2021-01-07T12:19:26Z</time><cmt>2.9 kmh</cmt></trkpt>
<trkpt lat="51.692448" lon="03.823513"><ele>8</ele><time>2021-01-07T12:19:27Z</time><cmt>3.5 kmh</cmt></trkpt>
<trkpt lat="51.692441" lon="03.823518"><ele>8</ele><time>2021-01-07T12:19:28Z</time><cmt>3.4 kmh</cmt></trkpt>
<trkpt lat="51.692434" lon="03.823525"><ele>8</ele><time>2021-01-07T12:19:29Z</time><cmt>3.6 kmh</cmt></trkpt>
<trkpt lat="51.692426" lon="03.823532"><ele>8</ele><time>2021-01-07T12:19:30Z</time><cmt>3.8 kmh</cmt></trkpt>
<trkpt lat="51.692418" lon="03.823536"><ele>8</ele><time>2021-01-07T12:19:31Z</time><cmt>3.0 kmh</cmt></trkpt>
<trkpt lat="51.692411" lon="03.823542"><ele>8</ele><time>2021-01-07T12:19:32Z</time><cmt>2.9 kmh</cmt></trkpt>
<trkpt lat="51.692404" lon="03.823548"><ele>8</ele><time>2021-01-07T12:19:33Z</time><cmt>3.4 kmh</cmt></trkpt>
<trkpt lat="51.692401" lon="03.823552"><ele>8</ele><time>2021-01-07T12:19:34Z</time><cmt>2.5 kmh</cmt></trkpt>
<trkpt lat="51.692400" lon="03.823553"><ele>8</ele><time>2021-01-07T12:19:35Z</time><cmt>0.9 kmh</cmt></trkpt>
<trkpt lat="51.692400" lon="03.823553"><ele>9</ele><time>2021-01-07T12:19:36Z</time><cmt>0.0 kmh</cmt></trkpt>
<trkpt lat="51.692399" lon="03.823555"><ele>9</ele><time>2021-01-07T12:19:37Z</time><cmt>0.0 kmh</cmt></trkpt>
<trkpt lat="51.692399" lon="03.823556"><ele>9</ele><time>2021-01-07T12:19:38Z</time><cmt>0.0 kmh</cmt></trkpt>
<trkpt lat="51.692399" lon="03.823557"><ele>9</ele><time>2021-01-07T12:19:39Z</time><cmt>0.0 kmh</cmt></trkpt>
<trkpt lat="51.692399" lon="03.823558"><ele>9</ele><time>2021-01-07T12:19:40Z</time><cmt>0.0 kmh</cmt></trkpt>
<trkpt lat="51.692399" lon="03.823559"><ele>9</ele><time>2021-01-07T12:19:41Z</time><cmt>0.0 kmh</cmt></trkpt>
<trkpt lat="51.692400" lon="03.823559"><ele>9</ele><time>2021-01-07T12:19:42Z</time><cmt>0.0 kmh</cmt></trkpt>
<trkpt lat="51.692400" lon="03.823559"><ele>9</ele><time>2021-01-07T12:19:43Z</time><cmt>0.0 kmh</cmt></trkpt>
<trkpt lat="51.692399" lon="03.823561"><ele>9</ele><time>2021-01-07T12:19:44Z</time><cmt>0.2 kmh</cmt></trkpt>
<trkpt lat="51.692399" lon="03.823562"><ele>9</ele><time>2021-01-07T12:19:45Z</time><cmt>0.4 kmh</cmt></trkpt>
<trkpt lat="51.692398" lon="03.823565"><ele>9</ele><time>2021-01-07T12:19:46Z</time><cmt>0.5 kmh</cmt></trkpt>
<trkpt lat="51.692398" lon="03.823567"><ele>9</ele><time>2021-01-07T12:19:47Z</time><cmt>0.6 kmh</cmt></trkpt>
<trkpt lat="51.692399" lon="03.823567"><ele>9</ele><time>2021-01-07T12:19:48Z</time><cmt>0.6 kmh</cmt></trkpt>
<trkpt lat="51.692399" lon="03.823568"><ele>9</ele><time>2021-01-07T12:19:49Z</time><cmt>0.2 kmh</cmt></trkpt>
<trkpt lat="51.692399" lon="03.823568"><ele>9</ele><time>2021-01-07T12:19:50Z</time><cmt>0.0 kmh</cmt></trkpt>
<trkpt lat="51.692399" lon="03.823567"><ele>9</ele><time>2021-01-07T12:19:51Z</time><cmt>0.1 kmh</cmt></trkpt>
<trkpt lat="51.692400" lon="03.823566"><ele>9</ele><time>2021-01-07T12:19:52Z</time><cmt>0.2 kmh</cmt></trkpt>
<trkpt lat="51.692400" lon="03.823566"><ele>9</ele><time>2021-01-07T12:19:53Z</time><cmt>0.0 kmh</cmt></trkpt>
<trkpt lat="51.692400" lon="03.823566"><ele>9</ele><time>2021-01-07T12:19:54Z</time><cmt>0.0 kmh</cmt></trkpt>
<trkpt lat="51.692401" lon="03.823568"><ele>9</ele><time>2021-01-07T12:19:55Z</time><cmt>0.0 kmh</cmt></trkpt>
<trkpt lat="51.692401" lon="03.823570"><ele>9</ele><time>2021-01-07T12:19:56Z</time><cmt>0.2 kmh</cmt></trkpt>
<trkpt lat="51.692401" lon="03.823571"><ele>9</ele><time>2021-01-07T12:19:57Z</time><cmt>0.1 kmh</cmt></trkpt>
<trkpt lat="51.692401" lon="03.823572"><ele>9</ele><time>2021-01-07T12:19:58Z</time><cmt>0.0 kmh</cmt></trkpt>
<trkpt lat="51.692401" lon="03.823572"><ele>9</ele><time>2021-01-07T12:19:59Z</time><cmt>0.0 kmh</cmt></trkpt>
<trkpt lat="51.692400" lon="03.823572"><ele>9</ele><time>2021-01-07T12:20:00Z</time><cmt>0.0 kmh</cmt></trkpt>
<trkpt lat="51.692399" lon="03.823571"><ele>9</ele><time>2021-01-07T12:20:01Z</time><cmt>0.3 kmh</cmt></trkpt>
<trkpt lat="51.692399" lon="03.823571"><ele>8</ele><time>2021-01-07T12:20:02Z</time><cmt>0.3 kmh</cmt></trkpt>
<trkpt lat="51.692398" lon="03.823570"><ele>8</ele><time>2021-01-07T12:20:03Z</time><cmt>0.1 kmh</cmt></trkpt>
<trkpt lat="51.692396" lon="03.823571"><ele>8</ele><time>2021-01-07T12:20:04Z</time><cmt>0.5 kmh</cmt></trkpt>
<trkpt lat="51.692392" lon="03.823575"><ele>8</ele><time>2021-01-07T12:20:05Z</time><cmt>1.6 kmh</cmt></trkpt>
<trkpt lat="51.692385" lon="03.823582"><ele>8</ele><time>2021-01-07T12:20:06Z</time><cmt>3.0 kmh</cmt></trkpt>
<trkpt lat="51.692376" lon="03.823592"><ele>8</ele><time>2021-01-07T12:20:07Z</time><cmt>4.0 kmh</cmt></trkpt>
<trkpt lat="51.692368" lon="03.823602"><ele>8</ele><time>2021-01-07T12:20:08Z</time><cmt>4.5 kmh</cmt></trkpt>
<trkpt lat="51.692358" lon="03.823611"><ele>7</ele><time>2021-01-07T12:20:09Z</time><cmt>3.7 kmh</cmt></trkpt>
<trkpt lat="51.692348" lon="03.823621"><ele>7</ele><time>2021-01-07T12:20:10Z</time><cmt>4.0 kmh</cmt></trkpt>
<trkpt lat="51.692338" lon="03.823629"><ele>7</ele><time>2021-01-07T12:20:11Z</time><cmt>5.0 kmh</cmt></trkpt>
<trkpt lat="51.692328" lon="03.823639"><ele>7</ele><time>2021-01-07T12:20:12Z</time><cmt>5.0 kmh</cmt></trkpt>
<trkpt lat="51.692317" lon="03.823649"><ele>7</ele><time>2021-01-07T12:20:13Z</time><cmt>5.0 kmh</cmt></trkpt>
<trkpt lat="51.692307" lon="03.823660"><ele>7</ele><time>2021-01-07T12:20:14Z</time><cmt>5.0 kmh</cmt></trkpt>
<trkpt lat="51.692296" lon="03.823669"><ele>6</ele><time>2021-01-07T12:20:15Z</time><cmt>5.0 kmh</cmt></trkpt>
<trkpt lat="51.692287" lon="03.823677"><ele>6</ele><time>2021-01-07T12:20:16Z</time><cmt>3.9 kmh</cmt></trkpt>
<trkpt lat="51.692278" lon="03.823686"><ele>6</ele><time>2021-01-07T12:20:17Z</time><cmt>3.7 kmh</cmt></trkpt>
<trkpt lat="51.692269" lon="03.823695"><ele>6</ele><time>2021-01-07T12:20:18Z</time><cmt>4.6 kmh</cmt></trkpt>
<trkpt lat="51.692260" lon="03.823704"><ele>6</ele><time>2021-01-07T12:20:19Z</time><cmt>4.6 kmh</cmt></trkpt>
<trkpt lat="51.692251" lon="03.823712"><ele>6</ele><time>2021-01-07T12:20:20Z</time><cmt>4.4 kmh</cmt></trkpt>
<trkpt lat="51.692242" lon="03.823719"><ele>6</ele><time>2021-01-07T12:20:21Z</time><cmt>4.2 kmh</cmt></trkpt>
<trkpt lat="51.692234" lon="03.823729"><ele>5</ele><time>2021-01-07T12:20:22Z</time><cmt>3.5 kmh</cmt></trkpt>
<trkpt lat="51.692226" lon="03.823739"><ele>5</ele><time>2021-01-07T12:20:23Z</time><cmt>3.5 kmh</cmt></trkpt>
<trkpt lat="51.692218" lon="03.823746"><ele>5</ele><time>2021-01-07T12:20:24Z</time><cmt>4.1 kmh</cmt></trkpt>
<trkpt lat="51.692210" lon="03.823753"><ele>5</ele><time>2021-01-07T12:20:25Z</time><cmt>3.9 kmh</cmt></trkpt>
<trkpt lat="51.692202" lon="03.823761"><ele>5</ele><time>2021-01-07T12:20:26Z</time><cmt>4.0 kmh</cmt></trkpt>
<trkpt lat="51.692194" lon="03.823768"><ele>5</ele><time>2021-01-07T12:20:27Z</time><cmt>4.0 kmh</cmt></trkpt>
<trkpt lat="51.692186" lon="03.823774"><ele>5</ele><time>2021-01-07T12:20:28Z</time><cmt>3.1 kmh</cmt></trkpt>
<trkpt lat="51.692178" lon="03.823781"><ele>5</ele><time>2021-01-07T12:20:29Z</time><cmt>3.1 kmh</cmt></trkpt>
<trkpt lat="51.692169" lon="03.823789"><ele>5</ele><time>2021-01-07T12:20:30Z</time><cmt>4.1 kmh</cmt></trkpt>
<trkpt lat="51.692161" lon="03.823797"><ele>5</ele><time>2021-01-07T12:20:31Z</time><cmt>4.2 kmh</cmt></trkpt>
<trkpt lat="51.692153" lon="03.823803"><ele>5</ele><time>2021-01-07T12:20:32Z</time><cmt>4.0 kmh</cmt></trkpt>
<trkpt lat="51.692145" lon="03.823809"><ele>5</ele><time>2021-01-07T12:20:33Z</time><cmt>3.9 kmh</cmt></trkpt>
<trkpt lat="51.692137" lon="03.823815"><ele>5</ele><time>2021-01-07T12:20:34Z</time><cmt>3.7 kmh</cmt></trkpt>
<trkpt lat="51.692132" lon="03.823818"><ele>6</ele><time>2021-01-07T12:20:35Z</time><cmt>2.4 kmh</cmt></trkpt>
<trkpt lat="51.692128" lon="03.823821"><ele>6</ele><time>2021-01-07T12:20:36Z</time><cmt>1.7 kmh</cmt></trkpt>
<trkpt lat="51.692124" lon="03.823828"><ele>6</ele><time>2021-01-07T12:20:37Z</time><cmt>2.2 kmh</cmt></trkpt>
<trkpt lat="51.692118" lon="03.823837"><ele>6</ele><time>2021-01-07T12:20:38Z</time><cmt>3.1 kmh</cmt></trkpt>
<trkpt lat="51.692112" lon="03.823846"><ele>6</ele><time>2021-01-07T12:20:39Z</time><cmt>3.6 kmh</cmt></trkpt>
<trkpt lat="51.692106" lon="03.823852"><ele>6</ele><time>2021-01-07T12:20:40Z</time><cmt>3.2 kmh</cmt></trkpt>
<trkpt lat="51.692101" lon="03.823859"><ele>6</ele><time>2021-01-07T12:20:41Z</time><cmt>2.3 kmh</cmt></trkpt>
<trkpt lat="51.692096" lon="03.823866"><ele>6</ele><time>2021-01-07T12:20:42Z</time><cmt>2.3 kmh</cmt></trkpt>
<trkpt lat="51.692091" lon="03.823874"><ele>6</ele><time>2021-01-07T12:20:43Z</time><cmt>3.1 kmh</cmt></trkpt>
<trkpt lat="51.692087" lon="03.823883"><ele>6</ele><time>2021-01-07T12:20:44Z</time><cmt>3.1 kmh</cmt></trkpt>
<trkpt lat="51.692087" lon="03.823889"><ele>6</ele><time>2021-01-07T12:20:45Z</time><cmt>2.2 kmh</cmt></trkpt>
<trkpt lat="51.692084" lon="03.823895"><ele>6</ele><time>2021-01-07T12:20:46Z</time><cmt>1.7 kmh</cmt></trkpt>
<trkpt lat="51.692079" lon="03.823902"><ele>6</ele><time>2021-01-07T12:20:47Z</time><cmt>1.9 kmh</cmt></trkpt>
<trkpt lat="51.692073" lon="03.823909"><ele>6</ele><time>2021-01-07T12:20:48Z</time><cmt>2.5 kmh</cmt></trkpt>
<trkpt lat="51.692064" lon="03.823915"><ele>6</ele><time>2021-01-07T12:20:49Z</time><cmt>3.8 kmh</cmt></trkpt>
<trkpt lat="51.692054" lon="03.823921"><ele>6</ele><time>2021-01-07T12:20:50Z</time><cmt>4.4 kmh</cmt></trkpt>
<trkpt lat="51.692043" lon="03.823932"><ele>6</ele><time>2021-01-07T12:20:51Z</time><cmt>4.9 kmh</cmt></trkpt>
<trkpt lat="51.692033" lon="03.823943"><ele>6</ele><time>2021-01-07T12:20:52Z</time><cmt>5.0 kmh</cmt></trkpt>
<trkpt lat="51.692023" lon="03.823954"><ele>6</ele><time>2021-01-07T12:20:53Z</time><cmt>5.0 kmh</cmt></trkpt>
<trkpt lat="51.692012" lon="03.823963"><ele>7</ele><time>2021-01-07T12:20:54Z</time><cmt>4.2 kmh</cmt></trkpt>
<trkpt lat="51.692002" lon="03.823973"><ele>7</ele><time>2021-01-07T12:20:55Z</time><cmt>4.2 kmh</cmt></trkpt>
<trkpt lat="51.691992" lon="03.823983"><ele>7</ele><time>2021-01-07T12:20:56Z</time><cmt>5.0 kmh</cmt></trkpt>
<trkpt lat="51.691982" lon="03.823994"><ele>7</ele><time>2021-01-07T12:20:57Z</time><cmt>5.0 kmh</cmt></trkpt>
<trkpt lat="51.691973" lon="03.824005"><ele>7</ele><time>2021-01-07T12:20:58Z</time><cmt>5.0 kmh</cmt></trkpt>
<trkpt lat="51.691964" lon="03.824017"><ele>7</ele><time>2021-01-07T12:20:59Z</time><cmt>5.0 kmh</cmt></trkpt>
<trkpt lat="51.691954" lon="03.824028"><ele>7</ele><time>2021-01-07T12:21:00Z</time><cmt>4.0 kmh</cmt></trkpt>
<trkpt lat="51.691945" lon="03.824038"><ele>7</ele><time>2021-01-07T12:21:01Z</time><cmt>4.0 kmh</cmt></trkpt>
<trkpt lat="51.691934" lon="03.824049"><ele>7</ele><time>2021-01-07T12:21:02Z</time><cmt>5.0 kmh</cmt></trkpt>
<trkpt lat="51.691924" lon="03.824060"><ele>7</ele><time>2021-01-07T12:21:03Z</time><cmt>5.0 kmh</cmt></trkpt>
<trkpt lat="51.691914" lon="03.824073"><ele>7</ele><time>2021-01-07T12:21:04Z</time><cmt>5.0 kmh</cmt></trkpt>
<trkpt lat="51.691904" lon="03.824084"><ele>7</ele><time>2021-01-07T12:21:05Z</time><cmt>5.0 kmh</cmt></trkpt>
<trkpt lat="51.691895" lon="03.824095"><ele>7</ele><time>2021-01-07T12:21:06Z</time><cmt>4.0 kmh</cmt></trkpt>
<trkpt lat="51.691886" lon="03.824105"><ele>7</ele><time>2021-01-07T12:21:07Z</time><cmt>3.9 kmh</cmt></trkpt>
<trkpt lat="51.691877" lon="03.824116"><ele>7</ele><time>2021-01-07T12:21:08Z</time><cmt>4.7 kmh</cmt></trkpt>
<trkpt lat="51.691867" lon="03.824126"><ele>7</ele><time>2021-01-07T12:21:09Z</time><cmt>4.9 kmh</cmt></trkpt>
<trkpt lat="51.691858" lon="03.824138"><ele>7</ele><time>2021-01-07T12:21:10Z</time><cmt>5.0 kmh</cmt></trkpt>
<trkpt lat="51.691849" lon="03.824150"><ele>7</ele><time>2021-01-07T12:21:11Z</time><cmt>5.0 kmh</cmt></trkpt>
<trkpt lat="51.691840" lon="03.824162"><ele>7</ele><time>2021-01-07T12:21:12Z</time><cmt>5.0 kmh</cmt></trkpt>
<trkpt lat="51.691830" lon="03.824176"><ele>7</ele><time>2021-01-07T12:21:13Z</time><cmt>4.3 kmh</cmt></trkpt>
<trkpt lat="51.691820" lon="03.824190"><ele>7</ele><time>2021-01-07T12:21:14Z</time><cmt>4.5 kmh</cmt></trkpt>
<trkpt lat="51.691810" lon="03.824202"><ele>7</ele><time>2021-01-07T12:21:15Z</time><cmt>5.0 kmh</cmt></trkpt>
<trkpt lat="51.691800" lon="03.824216"><ele>7</ele><time>2021-01-07T12:21:16Z</time><cmt>5.0 kmh</cmt></trkpt>
<trkpt lat="51.691788" lon="03.824232"><ele>7</ele><time>2021-01-07T12:21:17Z</time><cmt>5.0 kmh</cmt></trkpt>
<trkpt lat="51.691775" lon="03.824252"><ele>7</ele><time>2021-01-07T12:21:18Z</time><cmt>5.0 kmh</cmt></trkpt>
<trkpt lat="51.691764" lon="03.824265"><ele>7</ele><time>2021-01-07T12:21:19Z</time><cmt>5.0 kmh</cmt></trkpt>
<trkpt lat="51.691755" lon="03.824277"><ele>7</ele><time>2021-01-07T12:21:20Z</time><cmt>4.5 kmh</cmt></trkpt>
<trkpt lat="51.691746" lon="03.824288"><ele>7</ele><time>2021-01-07T12:21:21Z</time><cmt>5.0 kmh</cmt></trkpt>
<trkpt lat="51.691736" lon="03.824301"><ele>6</ele><time>2021-01-07T12:21:22Z</time><cmt>5.3 kmh</cmt></trkpt>
<trkpt lat="51.691726" lon="03.824314"><ele>6</ele><time>2021-01-07T12:21:23Z</time><cmt>5.3 kmh</cmt></trkpt>
<trkpt lat="51.691717" lon="03.824326"><ele>6</ele><time>2021-01-07T12:21:24Z</time><cmt>5.0 kmh</cmt></trkpt>
<trkpt lat="51.691708" lon="03.824337"><ele>6</ele><time>2021-01-07T12:21:25Z</time><cmt>4.0 kmh</cmt></trkpt>
<trkpt lat="51.691698" lon="03.824350"><ele>6</ele><time>2021-01-07T12:21:26Z</time><cmt>4.2 kmh</cmt></trkpt>
<trkpt lat="51.691687" lon="03.824362"><ele>6</ele><time>2021-01-07T12:21:27Z</time><cmt>5.0 kmh</cmt></trkpt>
<trkpt lat="51.691678" lon="03.824373"><ele>6</ele><time>2021-01-07T12:21:28Z</time><cmt>5.0 kmh</cmt></trkpt>
<trkpt lat="51.691669" lon="03.824385"><ele>6</ele><time>2021-01-07T12:21:29Z</time><cmt>5.0 kmh</cmt></trkpt>
<trkpt lat="51.691660" lon="03.824397"><ele>6</ele><time>2021-01-07T12:21:30Z</time><cmt>5.0 kmh</cmt></trkpt>
<trkpt lat="51.691651" lon="03.824410"><ele>6</ele><time>2021-01-07T12:21:31Z</time><cmt>5.0 kmh</cmt></trkpt>
<trkpt lat="51.691642" lon="03.824424"><ele>6</ele><time>2021-01-07T12:21:32Z</time><cmt>4.3 kmh</cmt></trkpt>
<trkpt lat="51.691632" lon="03.824437"><ele>6</ele><time>2021-01-07T12:21:33Z</time><cmt>4.4 kmh</cmt></trkpt>
<trkpt lat="51.691623" lon="03.824449"><ele>6</ele><time>2021-01-07T12:21:34Z</time><cmt>5.0 kmh</cmt></trkpt>
<trkpt lat="51.691614" lon="03.824460"><ele>6</ele><time>2021-01-07T12:21:35Z</time><cmt>5.0 kmh</cmt></trkpt>
<trkpt lat="51.691605" lon="03.824473"><ele>6</ele><time>2021-01-07T12:21:36Z</time><cmt>5.0 kmh</cmt></trkpt>
<trkpt lat="51.691595" lon="03.824484"><ele>6</ele><time>2021-01-07T12:21:37Z</time><cmt>5.0 kmh</cmt></trkpt>
<trkpt lat="51.691585" lon="03.824495"><ele>6</ele><time>2021-01-07T12:21:38Z</time><cmt>4.1 kmh</cmt></trkpt>
<trkpt lat="51.691576" lon="03.824507"><ele>6</ele><time>2021-01-07T12:21:39Z</time><cmt>4.2 kmh</cmt></trkpt>
<trkpt lat="51.691566" lon="03.824519"><ele>6</ele><time>2021-01-07T12:21:40Z</time><cmt>5.0 kmh</cmt></trkpt>
<trkpt lat="51.691556" lon="03.824529"><ele>6</ele><time>2021-01-07T12:21:41Z</time><cmt>5.0 kmh</cmt></trkpt>
<trkpt lat="51.691547" lon="03.824542"><ele>6</ele><time>2021-01-07T12:21:42Z</time><cmt>5.0 kmh</cmt></trkpt>
<trkpt lat="51.691538" lon="03.824552"><ele>6</ele><time>2021-01-07T12:21:43Z</time><cmt>5.0 kmh</cmt></trkpt>
<trkpt lat="51.691529" lon="03.824561"><ele>6</ele><time>2021-01-07T12:21:44Z</time><cmt>3.8 kmh</cmt></trkpt>
<trkpt lat="51.691520" lon="03.824571"><ele>6</ele><time>2021-01-07T12:21:45Z</time><cmt>3.8 kmh</cmt></trkpt>
<trkpt lat="51.691511" lon="03.824581"><ele>6</ele><time>2021-01-07T12:21:46Z</time><cmt>4.8 kmh</cmt></trkpt>
<trkpt lat="51.691501" lon="03.824591"><ele>6</ele><time>2021-01-07T12:21:47Z</time><cmt>4.9 kmh</cmt></trkpt>
<trkpt lat="51.691491" lon="03.824601"><ele>6</ele><time>2021-01-07T12:21:48Z</time><cmt>5.0 kmh</cmt></trkpt>
<trkpt lat="51.691482" lon="03.824609"><ele>6</ele><time>2021-01-07T12:21:49Z</time><cmt>4.8 kmh</cmt></trkpt>
<trkpt lat="51.691472" lon="03.824618"><ele>6</ele><time>2021-01-07T12:21:50Z</time><cmt>4.6 kmh</cmt></trkpt>
<trkpt lat="51.691463" lon="03.824628"><ele>6</ele><time>2021-01-07T12:21:51Z</time><cmt>3.8 kmh</cmt></trkpt>
<trkpt lat="51.691453" lon="03.824639"><ele>6</ele><time>2021-01-07T12:21:52Z</time><cmt>5.1 kmh</cmt></trkpt>
<trkpt lat="51.691443" lon="03.824651"><ele>6</ele><time>2021-01-07T12:21:53Z</time><cmt>5.1 kmh</cmt></trkpt>
<trkpt lat="51.691434" lon="03.824661"><ele>6</ele><time>2021-01-07T12:21:54Z</time><cmt>5.0 kmh</cmt></trkpt>
<trkpt lat="51.691425" lon="03.824673"><ele>6</ele><time>2021-01-07T12:21:55Z</time><cmt>4.9 kmh</cmt></trkpt>
<trkpt lat="51.691417" lon="03.824687"><ele>6</ele><time>2021-01-07T12:21:56Z</time><cmt>5.0 kmh</cmt></trkpt>
<trkpt lat="51.691408" lon="03.824700"><ele>6</ele><time>2021-01-07T12:21:57Z</time><cmt>4.1 kmh</cmt></trkpt>
<trkpt lat="51.691398" lon="03.824712"><ele>6</ele><time>2021-01-07T12:21:58Z</time><cmt>4.2 kmh</cmt></trkpt>
<trkpt lat="51.691389" lon="03.824723"><ele>6</ele><time>2021-01-07T12:21:59Z</time><cmt>5.0 kmh</cmt></trkpt>
<trkpt lat="51.691378" lon="03.824734"><ele>6</ele><time>2021-01-07T12:22:00Z</time><cmt>5.0 kmh</cmt></trkpt>
<trkpt lat="51.691367" lon="03.824744"><ele>6</ele><time>2021-01-07T12:22:01Z</time><cmt>5.0 kmh</cmt></trkpt>
<trkpt lat="51.691357" lon="03.824756"><ele>6</ele><time>2021-01-07T12:22:02Z</time><cmt>5.0 kmh</cmt></trkpt>
<trkpt lat="51.691347" lon="03.824768"><ele>6</ele><time>2021-01-07T12:22:03Z</time><cmt>5.0 kmh</cmt></trkpt>
<trkpt lat="51.691337" lon="03.824778"><ele>6</ele><time>2021-01-07T12:22:04Z</time><cmt>4.2 kmh</cmt></trkpt>
<trkpt lat="51.691327" lon="03.824786"><ele>5</ele><time>2021-01-07T12:22:05Z</time><cmt>4.0 kmh</cmt></trkpt>
<trkpt lat="51.691318" lon="03.824794"><ele>5</ele><time>2021-01-07T12:22:06Z</time><cmt>4.6 kmh</cmt></trkpt>
<trkpt lat="51.691307" lon="03.824804"><ele>5</ele><time>2021-01-07T12:22:07Z</time><cmt>5.3 kmh</cmt></trkpt>
<trkpt lat="51.691296" lon="03.824816"><ele>5</ele><time>2021-01-07T12:22:08Z</time><cmt>5.3 kmh</cmt></trkpt>
<trkpt lat="51.691286" lon="03.824825"><ele>5</ele><time>2021-01-07T12:22:09Z</time><cmt>5.0 kmh</cmt></trkpt>
<trkpt lat="51.691277" lon="03.824832"><ele>5</ele><time>2021-01-07T12:22:10Z</time><cmt>3.7 kmh</cmt></trkpt>
<trkpt lat="51.691268" lon="03.824840"><ele>5</ele><time>2021-01-07T12:22:11Z</time><cmt>3.5 kmh</cmt></trkpt>
<trkpt lat="51.691258" lon="03.824847"><ele>5</ele><time>2021-01-07T12:22:12Z</time><cmt>4.5 kmh</cmt></trkpt>
<trkpt lat="51.691246" lon="03.824863"><ele>5</ele><time>2021-01-07T12:22:13Z</time><cmt>5.0 kmh</cmt></trkpt>
<trkpt lat="51.691235" lon="03.824873"><ele>5</ele><time>2021-01-07T12:22:14Z</time><cmt>5.0 kmh</cmt></trkpt>
<trkpt lat="51.691224" lon="03.824881"><ele>5</ele><time>2021-01-07T12:22:15Z</time><cmt>5.0 kmh</cmt></trkpt>
<trkpt lat="51.691214" lon="03.824887"><ele>5</ele><time>2021-01-07T12:22:16Z</time><cmt>3.9 kmh</cmt></trkpt>
<trkpt lat="51.691204" lon="03.824895"><ele>5</ele><time>2021-01-07T12:22:17Z</time><cmt>3.8 kmh</cmt></trkpt>
<trkpt lat="51.691194" lon="03.824905"><ele>5</ele><time>2021-01-07T12:22:18Z</time><cmt>5.0 kmh</cmt></trkpt>
<trkpt lat="51.691185" lon="03.824914"><ele>5</ele><time>2021-01-07T12:22:19Z</time><cmt>4.8 kmh</cmt></trkpt>
<trkpt lat="51.691176" lon="03.824925"><ele>5</ele><time>2021-01-07T12:22:20Z</time><cmt>4.7 kmh</cmt></trkpt>
<trkpt lat="51.691168" lon="03.824938"><ele>5</ele><time>2021-01-07T12:22:21Z</time><cmt>4.9 kmh</cmt></trkpt>
<trkpt lat="51.691160" lon="03.824949"><ele>5</ele><time>2021-01-07T12:22:22Z</time><cmt>4.7 kmh</cmt></trkpt>
<trkpt lat="51.691153" lon="03.824960"><ele>5</ele><time>2021-01-07T12:22:23Z</time><cmt>3.5 kmh</cmt></trkpt>
<trkpt lat="51.691145" lon="03.824970"><ele>5</ele><time>2021-01-07T12:22:24Z</time><cmt>3.4 kmh</cmt></trkpt>
<trkpt lat="51.691137" lon="03.824980"><ele>5</ele><time>2021-01-07T12:22:25Z</time><cmt>4.4 kmh</cmt></trkpt>
<trkpt lat="51.691128" lon="03.824991"><ele>5</ele><time>2021-01-07T12:22:26Z</time><cmt>4.7 kmh</cmt></trkpt>
<trkpt lat="51.691120" lon="03.825002"><ele>5</ele><time>2021-01-07T12:22:27Z</time><cmt>4.6 kmh</cmt></trkpt>
<trkpt lat="51.691113" lon="03.825010"><ele>5</ele><time>2021-01-07T12:22:28Z</time><cmt>4.2 kmh</cmt></trkpt>
<trkpt lat="51.691106" lon="03.825016"><ele>5</ele><time>2021-01-07T12:22:29Z</time><cmt>2.9 kmh</cmt></trkpt>
<trkpt lat="51.691103" lon="03.825019"><ele>5</ele><time>2021-01-07T12:22:30Z</time><cmt>1.9 kmh</cmt></trkpt>
<trkpt lat="51.691102" lon="03.825021"><ele>5</ele><time>2021-01-07T12:22:31Z</time><cmt>1.2 kmh</cmt></trkpt>
<trkpt lat="51.691099" lon="03.825023"><ele>4</ele><time>2021-01-07T12:22:32Z</time><cmt>1.0 kmh</cmt></trkpt>
<trkpt lat="51.691096" lon="03.825027"><ele>4</ele><time>2021-01-07T12:22:33Z</time><cmt>1.5 kmh</cmt></trkpt>
<trkpt lat="51.691091" lon="03.825034"><ele>4</ele><time>2021-01-07T12:22:34Z</time><cmt>2.4 kmh</cmt></trkpt>
<trkpt lat="51.691083" lon="03.825042"><ele>4</ele><time>2021-01-07T12:22:35Z</time><cmt>2.7 kmh</cmt></trkpt>
<trkpt lat="51.691075" lon="03.825050"><ele>4</ele><time>2021-01-07T12:22:36Z</time><cmt>3.2 kmh</cmt></trkpt>
<trkpt lat="51.691066" lon="03.825058"><ele>4</ele><time>2021-01-07T12:22:37Z</time><cmt>4.3 kmh</cmt></trkpt>
<trkpt lat="51.691056" lon="03.825065"><ele>4</ele><time>2021-01-07T12:22:38Z</time><cmt>4.7 kmh</cmt></trkpt>
<trkpt lat="51.691044" lon="03.825071"><ele>4</ele><time>2021-01-07T12:22:39Z</time><cmt>5.0 kmh</cmt></trkpt>
<trkpt lat="51.691034" lon="03.825077"><ele>3</ele><time>2021-01-07T12:22:40Z</time><cmt>4.9 kmh</cmt></trkpt>
<trkpt lat="51.691024" lon="03.825080"><ele>3</ele><time>2021-01-07T12:22:41Z</time><cmt>4.5 kmh</cmt></trkpt>
<trkpt lat="51.691014" lon="03.825085"><ele>3</ele><time>2021-01-07T12:22:42Z</time><cmt>3.6 kmh</cmt></trkpt>
<trkpt lat="51.691004" lon="03.825089"><ele>3</ele><time>2021-01-07T12:22:43Z</time><cmt>3.7 kmh</cmt></trkpt>
<trkpt lat="51.690994" lon="03.825095"><ele>3</ele><time>2021-01-07T12:22:44Z</time><cmt>4.4 kmh</cmt></trkpt>
<trkpt lat="51.690985" lon="03.825102"><ele>3</ele><time>2021-01-07T12:22:45Z</time><cmt>4.4 kmh</cmt></trkpt>
<trkpt lat="51.690974" lon="03.825106"><ele>3</ele><time>2021-01-07T12:22:46Z</time><cmt>4.7 kmh</cmt></trkpt>
<trkpt lat="51.690962" lon="03.825110"><ele>3</ele><time>2021-01-07T12:22:47Z</time><cmt>5.0 kmh</cmt></trkpt>
<trkpt lat="51.690951" lon="03.825113"><ele>3</ele><time>2021-01-07T12:22:48Z</time><cmt>4.1 kmh</cmt></trkpt>
<trkpt lat="51.690939" lon="03.825116"><ele>3</ele><time>2021-01-07T12:22:49Z</time><cmt>4.1 kmh</cmt></trkpt>
<trkpt lat="51.690927" lon="03.825118"><ele>4</ele><time>2021-01-07T12:22:50Z</time><cmt>5.0 kmh</cmt></trkpt>
<trkpt lat="51.690915" lon="03.825121"><ele>4</ele><time>2021-01-07T12:22:51Z</time><cmt>5.0 kmh</cmt></trkpt>
<trkpt lat="51.690903" lon="03.825124"><ele>4</ele><time>2021-01-07T12:22:52Z</time><cmt>5.0 kmh</cmt></trkpt>
<trkpt lat="51.690892" lon="03.825130"><ele>4</ele><time>2021-01-07T12:22:53Z</time><cmt>5.0 kmh</cmt></trkpt>
<trkpt lat="51.690880" lon="03.825139"><ele>4</ele><time>2021-01-07T12:22:54Z</time><cmt>4.3 kmh</cmt></trkpt>
<trkpt lat="51.690869" lon="03.825146"><ele>4</ele><time>2021-01-07T12:22:55Z</time><cmt>4.2 kmh</cmt></trkpt>
<trkpt lat="51.690858" lon="03.825151"><ele>4</ele><time>2021-01-07T12:22:56Z</time><cmt>5.0 kmh</cmt></trkpt>
<trkpt lat="51.690846" lon="03.825156"><ele>4</ele><time>2021-01-07T12:22:57Z</time><cmt>5.1 kmh</cmt></trkpt>
<trkpt lat="51.690835" lon="03.825160"><ele>4</ele><time>2021-01-07T12:22:58Z</time><cmt>5.1 kmh</cmt></trkpt>
<trkpt lat="51.690824" lon="03.825164"><ele>4</ele><time>2021-01-07T12:22:59Z</time><cmt>4.9 kmh</cmt></trkpt>
<trkpt lat="51.690813" lon="03.825168"><ele>5</ele><time>2021-01-07T12:23:00Z</time><cmt>4.7 kmh</cmt></trkpt>
<trkpt lat="51.690802" lon="03.825173"><ele>5</ele><time>2021-01-07T12:23:01Z</time><cmt>3.9 kmh</cmt></trkpt>
<trkpt lat="51.690791" lon="03.825177"><ele>5</ele><time>2021-01-07T12:23:02Z</time><cmt>3.9 kmh</cmt></trkpt>
<trkpt lat="51.690781" lon="03.825183"><ele>5</ele><time>2021-01-07T12:23:03Z</time><cmt>4.9 kmh</cmt></trkpt>
<trkpt lat="51.690769" lon="03.825189"><ele>5</ele><time>2021-01-07T12:23:04Z</time><cmt>5.0 kmh</cmt></trkpt>
<trkpt lat="51.690758" lon="03.825192"><ele>5</ele><time>2021-01-07T12:23:05Z</time><cmt>5.0 kmh</cmt></trkpt>
<trkpt lat="51.690747" lon="03.825199"><ele>5</ele><time>2021-01-07T12:23:06Z</time><cmt>4.8 kmh</cmt></trkpt>
<trkpt lat="51.690737" lon="03.825205"><ele>5</ele><time>2021-01-07T12:23:07Z</time><cmt>3.8 kmh</cmt></trkpt>
<trkpt lat="51.690727" lon="03.825210"><ele>5</ele><time>2021-01-07T12:23:08Z</time><cmt>3.7 kmh</cmt></trkpt>
<trkpt lat="51.690716" lon="03.825214"><ele>6</ele><time>2021-01-07T12:23:09Z</time><cmt>4.7 kmh</cmt></trkpt>
<trkpt lat="51.690705" lon="03.825219"><ele>6</ele><time>2021-01-07T12:23:10Z</time><cmt>4.8 kmh</cmt></trkpt>
<trkpt lat="51.690694" lon="03.825224"><ele>6</ele><time>2021-01-07T12:23:11Z</time><cmt>5.0 kmh</cmt></trkpt>
<trkpt lat="51.690683" lon="03.825229"><ele>6</ele><time>2021-01-07T12:23:12Z</time><cmt>5.0 kmh</cmt></trkpt>
<trkpt lat="51.690672" lon="03.825234"><ele>6</ele><time>2021-01-07T12:23:13Z</time><cmt>4.0 kmh</cmt></trkpt>
<trkpt lat="51.690661" lon="03.825239"><ele>6</ele><time>2021-01-07T12:23:14Z</time><cmt>4.0 kmh</cmt></trkpt>
<trkpt lat="51.690649" lon="03.825244"><ele>6</ele><time>2021-01-07T12:23:15Z</time><cmt>5.0 kmh</cmt></trkpt>
<trkpt lat="51.690638" lon="03.825250"><ele>6</ele><time>2021-01-07T12:23:16Z</time><cmt>5.0 kmh</cmt></trkpt>
<trkpt lat="51.690628" lon="03.825256"><ele>6</ele><time>2021-01-07T12:23:17Z</time><cmt>5.0 kmh</cmt></trkpt>
<trkpt lat="51.690616" lon="03.825260"><ele>7</ele><time>2021-01-07T12:23:18Z</time><cmt>5.0 kmh</cmt></trkpt>
<trkpt lat="51.690605" lon="03.825265"><ele>7</ele><time>2021-01-07T12:23:19Z</time><cmt>4.9 kmh</cmt></trkpt>
<trkpt lat="51.690595" lon="03.825270"><ele>7</ele><time>2021-01-07T12:23:20Z</time><cmt>3.8 kmh</cmt></trkpt>
<trkpt lat="51.690585" lon="03.825276"><ele>7</ele><time>2021-01-07T12:23:21Z</time><cmt>3.7 kmh</cmt></trkpt>
<trkpt lat="51.690575" lon="03.825283"><ele>7</ele><time>2021-01-07T12:23:22Z</time><cmt>4.7 kmh</cmt></trkpt>
<trkpt lat="51.690565" lon="03.825289"><ele>7</ele><time>2021-01-07T12:23:23Z</time><cmt>4.7 kmh</cmt></trkpt>
<trkpt lat="51.690554" lon="03.825296"><ele>7</ele><time>2021-01-07T12:23:24Z</time><cmt>4.7 kmh</cmt></trkpt>
<trkpt lat="51.690544" lon="03.825302"><ele>7</ele><time>2021-01-07T12:23:25Z</time><cmt>4.7 kmh</cmt></trkpt>
<trkpt lat="51.690534" lon="03.825309"><ele>7</ele><time>2021-01-07T12:23:26Z</time><cmt>3.8 kmh</cmt></trkpt>
<trkpt lat="51.690524" lon="03.825316"><ele>7</ele><time>2021-01-07T12:23:27Z</time><cmt>3.9 kmh</cmt></trkpt>
<trkpt lat="51.690513" lon="03.825322"><ele>7</ele><time>2021-01-07T12:23:28Z</time><cmt>5.0 kmh</cmt></trkpt>
<trkpt lat="51.690502" lon="03.825329"><ele>6</ele><time>2021-01-07T12:23:29Z</time><cmt>5.0 kmh</cmt></trkpt>
<trkpt lat="51.690492" lon="03.825335"><ele>6</ele><time>2021-01-07T12:23:30Z</time><cmt>4.8 kmh</cmt></trkpt>
<trkpt lat="51.690481" lon="03.825343"><ele>6</ele><time>2021-01-07T12:23:31Z</time><cmt>4.7 kmh</cmt></trkpt>
<trkpt lat="51.690471" lon="03.825350"><ele>6</ele><time>2021-01-07T12:23:32Z</time><cmt>4.8 kmh</cmt></trkpt>
<trkpt lat="51.690461" lon="03.825358"><ele>6</ele><time>2021-01-07T12:23:33Z</time><cmt>3.9 kmh</cmt></trkpt>
<trkpt lat="51.690451" lon="03.825367"><ele>6</ele><time>2021-01-07T12:23:34Z</time><cmt>4.0 kmh</cmt></trkpt>
<trkpt lat="51.690440" lon="03.825375"><ele>6</ele><time>2021-01-07T12:23:35Z</time><cmt>5.0 kmh</cmt></trkpt>
<trkpt lat="51.690430" lon="03.825381"><ele>6</ele><time>2021-01-07T12:23:36Z</time><cmt>4.8 kmh</cmt></trkpt>
<trkpt lat="51.690420" lon="03.825387"><ele>6</ele><time>2021-01-07T12:23:37Z</time><cmt>4.7 kmh</cmt></trkpt>
<trkpt lat="51.690409" lon="03.825393"><ele>5</ele><time>2021-01-07T12:23:38Z</time><cmt>4.7 kmh</cmt></trkpt>
<trkpt lat="51.690399" lon="03.825397"><ele>5</ele><time>2021-01-07T12:23:39Z</time><cmt>3.7 kmh</cmt></trkpt>
<trkpt lat="51.690389" lon="03.825402"><ele>5</ele><time>2021-01-07T12:23:40Z</time><cmt>3.6 kmh</cmt></trkpt>
<trkpt lat="51.690379" lon="03.825406"><ele>5</ele><time>2021-01-07T12:23:41Z</time><cmt>4.5 kmh</cmt></trkpt>
<trkpt lat="51.690369" lon="03.825411"><ele>5</ele><time>2021-01-07T12:23:42Z</time><cmt>4.4 kmh</cmt></trkpt>
<trkpt lat="51.690359" lon="03.825416"><ele>5</ele><time>2021-01-07T12:23:43Z</time><cmt>4.6 kmh</cmt></trkpt>
<trkpt lat="51.690348" lon="03.825423"><ele>5</ele><time>2021-01-07T12:23:44Z</time><cmt>4.8 kmh</cmt></trkpt>
<trkpt lat="51.690338" lon="03.825430"><ele>5</ele><time>2021-01-07T12:23:45Z</time><cmt>3.8 kmh</cmt></trkpt>
<trkpt lat="51.690329" lon="03.825437"><ele>5</ele><time>2021-01-07T12:23:46Z</time><cmt>3.7 kmh</cmt></trkpt>
<trkpt lat="51.690319" lon="03.825445"><ele>5</ele><time>2021-01-07T12:23:47Z</time><cmt>4.6 kmh</cmt></trkpt>
<trkpt lat="51.690309" lon="03.825452"><ele>5</ele><time>2021-01-07T12:23:48Z</time><cmt>4.8 kmh</cmt></trkpt>
<trkpt lat="51.690299" lon="03.825459"><ele>5</ele><time>2021-01-07T12:23:49Z</time><cmt>4.7 kmh</cmt></trkpt>
<trkpt lat="51.690290" lon="03.825465"><ele>5</ele><time>2021-01-07T12:23:50Z</time><cmt>4.5 kmh</cmt></trkpt>
<trkpt lat="51.690280" lon="03.825470"><ele>5</ele><time>2021-01-07T12:23:51Z</time><cmt>3.6 kmh</cmt></trkpt>
<trkpt lat="51.690270" lon="03.825474"><ele>5</ele><time>2021-01-07T12:23:52Z</time><cmt>3.6 kmh</cmt></trkpt>
<trkpt lat="51.690261" lon="03.825480"><ele>5</ele><time>2021-01-07T12:23:53Z</time><cmt>4.3 kmh</cmt></trkpt>
<trkpt lat="51.690253" lon="03.825487"><ele>5</ele><time>2021-01-07T12:23:54Z</time><cmt>4.0 kmh</cmt></trkpt>
<trkpt lat="51.690244" lon="03.825495"><ele>4</ele><time>2021-01-07T12:23:55Z</time><cmt>4.1 kmh</cmt></trkpt>
<trkpt lat="51.690235" lon="03.825502"><ele>4</ele><time>2021-01-07T12:23:56Z</time><cmt>4.2 kmh</cmt></trkpt>
<trkpt lat="51.690227" lon="03.825510"><ele>4</ele><time>2021-01-07T12:23:57Z</time><cmt>4.3 kmh</cmt></trkpt>
<trkpt lat="51.690218" lon="03.825518"><ele>4</ele><time>2021-01-07T12:23:58Z</time><cmt>3.5 kmh</cmt></trkpt>
<trkpt lat="51.690208" lon="03.825526"><ele>4</ele><time>2021-01-07T12:23:59Z</time><cmt>3.6 kmh</cmt></trkpt>
<trkpt lat="51.690196" lon="03.825535"><ele>4</ele><time>2021-01-07T12:24:00Z</time><cmt>5.0 kmh</cmt></trkpt>
<trkpt lat="51.690186" lon="03.825537"><ele>4</ele><time>2021-01-07T12:24:01Z</time><cmt>5.0 kmh</cmt></trkpt>
<trkpt lat="51.690176" lon="03.825539"><ele>5</ele><time>2021-01-07T12:24:02Z</time><cmt>4.2 kmh</cmt></trkpt>
<trkpt lat="51.690167" lon="03.825544"><ele>5</ele><time>2021-01-07T12:24:03Z</time><cmt>4.4 kmh</cmt></trkpt>
<trkpt lat="51.690158" lon="03.825548"><ele>5</ele><time>2021-01-07T12:24:04Z</time><cmt>3.3 kmh</cmt></trkpt>
<trkpt lat="51.690152" lon="03.825551"><ele>5</ele><time>2021-01-07T12:24:05Z</time><cmt>2.7 kmh</cmt></trkpt>
<trkpt lat="51.690147" lon="03.825554"><ele>5</ele><time>2021-01-07T12:24:06Z</time><cmt>2.5 kmh</cmt></trkpt>
<trkpt lat="51.690141" lon="03.825559"><ele>5</ele><time>2021-01-07T12:24:07Z</time><cmt>2.5 kmh</cmt></trkpt>
<trkpt lat="51.690135" lon="03.825565"><ele>5</ele><time>2021-01-07T12:24:08Z</time><cmt>3.0 kmh</cmt></trkpt>
<trkpt lat="51.690129" lon="03.825569"><ele>5</ele><time>2021-01-07T12:24:09Z</time><cmt>3.1 kmh</cmt></trkpt>
<trkpt lat="51.690122" lon="03.825573"><ele>5</ele><time>2021-01-07T12:24:10Z</time><cmt>2.4 kmh</cmt></trkpt>
<trkpt lat="51.690112" lon="03.825582"><ele>5</ele><time>2021-01-07T12:24:11Z</time><cmt>3.2 kmh</cmt></trkpt>
<trkpt lat="51.690106" lon="03.825588"><ele>5</ele><time>2021-01-07T12:24:12Z</time><cmt>4.0 kmh</cmt></trkpt>
<trkpt lat="51.690099" lon="03.825595"><ele>5</ele><time>2021-01-07T12:24:13Z</time><cmt>3.3 kmh</cmt></trkpt>
<trkpt lat="51.690092" lon="03.825602"><ele>5</ele><time>2021-01-07T12:24:14Z</time><cmt>3.6 kmh</cmt></trkpt>
<trkpt lat="51.690085" lon="03.825607"><ele>4</ele><time>2021-01-07T12:24:15Z</time><cmt>3.5 kmh</cmt></trkpt>
<trkpt lat="51.690076" lon="03.825621"><ele>4</ele><time>2021-01-07T12:24:16Z</time><cmt>4.3 kmh</cmt></trkpt>
<trkpt lat="51.690069" lon="03.825633"><ele>4</ele><time>2021-01-07T12:24:17Z</time><cmt>3.9 kmh</cmt></trkpt>
<trkpt lat="51.690065" lon="03.825642"><ele>4</ele><time>2021-01-07T12:24:18Z</time><cmt>3.0 kmh</cmt></trkpt>
<trkpt lat="51.690060" lon="03.825651"><ele>4</ele><time>2021-01-07T12:24:19Z</time><cmt>3.1 kmh</cmt></trkpt>
<trkpt lat="51.690055" lon="03.825658"><ele>4</ele><time>2021-01-07T12:24:20Z</time><cmt>2.9 kmh</cmt></trkpt>
<trkpt lat="51.690049" lon="03.825663"><ele>4</ele><time>2021-01-07T12:24:21Z</time><cmt>3.0 kmh</cmt></trkpt>
<trkpt lat="51.690041" lon="03.825667"><ele>3</ele><time>2021-01-07T12:24:22Z</time><cmt>3.4 kmh</cmt></trkpt>
<trkpt lat="51.690031" lon="03.825672"><ele>3</ele><time>2021-01-07T12:24:23Z</time><cmt>3.1 kmh</cmt></trkpt>
<trkpt lat="51.690021" lon="03.825677"><ele>3</ele><time>2021-01-07T12:24:24Z</time><cmt>3.6 kmh</cmt></trkpt>
<trkpt lat="51.690008" lon="03.825686"><ele>3</ele><time>2021-01-07T12:24:25Z</time><cmt>5.0 kmh</cmt></trkpt>
<trkpt lat="51.689994" lon="03.825693"><ele>3</ele><time>2021-01-07T12:24:26Z</time><cmt>5.0 kmh</cmt></trkpt>
<trkpt lat="51.689982" lon="03.825697"><ele>3</ele><time>2021-01-07T12:24:27Z</time><cmt>5.0 kmh</cmt></trkpt>
<trkpt lat="51.689971" lon="03.825699"><ele>3</ele><time>2021-01-07T12:24:28Z</time><cmt>5.0 kmh</cmt></trkpt>
<trkpt lat="51.689959" lon="03.825702"><ele>3</ele><time>2021-01-07T12:24:29Z</time><cmt>4.0 kmh</cmt></trkpt>
<trkpt lat="51.689948" lon="03.825706"><ele>3</ele><time>2021-01-07T12:24:30Z</time><cmt>4.0 kmh</cmt></trkpt>
<trkpt lat="51.689937" lon="03.825710"><ele>3</ele><time>2021-01-07T12:24:31Z</time><cmt>4.9 kmh</cmt></trkpt>
<trkpt lat="51.689926" lon="03.825714"><ele>3</ele><time>2021-01-07T12:24:32Z</time><cmt>4.9 kmh</cmt></trkpt>
<trkpt lat="51.689916" lon="03.825720"><ele>2</ele><time>2021-01-07T12:24:33Z</time><cmt>4.8 kmh</cmt></trkpt>
<trkpt lat="51.689905" lon="03.825724"><ele>2</ele><time>2021-01-07T12:24:34Z</time><cmt>4.7 kmh</cmt></trkpt>
<trkpt lat="51.689894" lon="03.825729"><ele>2</ele><time>2021-01-07T12:24:35Z</time><cmt>4.8 kmh</cmt></trkpt>
<trkpt lat="51.689884" lon="03.825733"><ele>2</ele><time>2021-01-07T12:24:36Z</time><cmt>3.8 kmh</cmt></trkpt>
<trkpt lat="51.689873" lon="03.825739"><ele>2</ele><time>2021-01-07T12:24:37Z</time><cmt>3.8 kmh</cmt></trkpt>
<trkpt lat="51.689862" lon="03.825744"><ele>2</ele><time>2021-01-07T12:24:38Z</time><cmt>4.9 kmh</cmt></trkpt>
<trkpt lat="51.689851" lon="03.825749"><ele>1</ele><time>2021-01-07T12:24:39Z</time><cmt>4.9 kmh</cmt></trkpt>
<trkpt lat="51.689841" lon="03.825755"><ele>1</ele><time>2021-01-07T12:24:40Z</time><cmt>4.8 kmh</cmt></trkpt>
<trkpt lat="51.689830" lon="03.825760"><ele>1</ele><time>2021-01-07T12:24:41Z</time><cmt>4.8 kmh</cmt></trkpt>
<trkpt lat="51.689819" lon="03.825766"><ele>1</ele><time>2021-01-07T12:24:42Z</time><cmt>4.0 kmh</cmt></trkpt>
<trkpt lat="51.689807" lon="03.825770"><ele>1</ele><time>2021-01-07T12:24:43Z</time><cmt>4.1 kmh</cmt></trkpt>
<trkpt lat="51.689795" lon="03.825775"><ele>1</ele><time>2021-01-07T12:24:44Z</time><cmt>5.0 kmh</cmt></trkpt>
<trkpt lat="51.689782" lon="03.825779"><ele>1</ele><time>2021-01-07T12:24:45Z</time><cmt>5.0 kmh</cmt></trkpt>
<trkpt lat="51.689770" lon="03.825783"><ele>1</ele><time>2021-01-07T12:24:46Z</time><cmt>5.0 kmh</cmt></trkpt>
<trkpt lat="51.689759" lon="03.825787"><ele>1</ele><time>2021-01-07T12:24:47Z</time><cmt>5.0 kmh</cmt></trkpt>
<trkpt lat="51.689747" lon="03.825791"><ele>0</ele><time>2021-01-07T12:24:48Z</time><cmt>5.0 kmh</cmt></trkpt>
<trkpt lat="51.689735" lon="03.825796"><ele>0</ele><time>2021-01-07T12:24:49Z</time><cmt>4.1 kmh</cmt></trkpt>
<trkpt lat="51.689723" lon="03.825802"><ele>0</ele><time>2021-01-07T12:24:50Z</time><cmt>4.3 kmh</cmt></trkpt>
<trkpt lat="51.689711" lon="03.825807"><ele>0</ele><time>2021-01-07T12:24:51Z</time><cmt>5.0 kmh</cmt></trkpt>
<trkpt lat="51.689698" lon="03.825812"><ele>0</ele><time>2021-01-07T12:24:52Z</time><cmt>5.0 kmh</cmt></trkpt>
<trkpt lat="51.689686" lon="03.825817"><ele>0</ele><time>2021-01-07T12:24:53Z</time><cmt>5.0 kmh</cmt></trkpt>
<trkpt lat="51.689673" lon="03.825822"><ele>0</ele><time>2021-01-07T12:24:54Z</time><cmt>5.0 kmh</cmt></trkpt>
<trkpt lat="51.689661" lon="03.825828"><ele>0</ele><time>2021-01-07T12:24:55Z</time><cmt>4.5 kmh</cmt></trkpt>
<trkpt lat="51.689648" lon="03.825833"><ele>0</ele><time>2021-01-07T12:24:56Z</time><cmt>4.4 kmh</cmt></trkpt>
<trkpt lat="51.689636" lon="03.825838"><ele>0</ele><time>2021-01-07T12:24:57Z</time><cmt>5.0 kmh</cmt></trkpt>
<trkpt lat="51.689624" lon="03.825844"><ele>0</ele><time>2021-01-07T12:24:58Z</time><cmt>5.0 kmh</cmt></trkpt>
<trkpt lat="51.689612" lon="03.825849"><ele>0</ele><time>2021-01-07T12:24:59Z</time><cmt>5.0 kmh</cmt></trkpt>
<trkpt lat="51.689598" lon="03.825855"><ele>0</ele><time>2021-01-07T12:25:00Z</time><cmt>5.2 kmh</cmt></trkpt>
<trkpt lat="51.689585" lon="03.825861"><ele>0</ele><time>2021-01-07T12:25:01Z</time><cmt>5.2 kmh</cmt></trkpt>
<trkpt lat="51.689572" lon="03.825865"><ele>0</ele><time>2021-01-07T12:25:02Z</time><cmt>4.6 kmh</cmt></trkpt>
<trkpt lat="51.689559" lon="03.825869"><ele>1</ele><time>2021-01-07T12:25:03Z</time><cmt>5.0 kmh</cmt></trkpt>
<trkpt lat="51.689546" lon="03.825873"><ele>1</ele><time>2021-01-07T12:25:04Z</time><cmt>5.0 kmh</cmt></trkpt>
<trkpt lat="51.689533" lon="03.825878"><ele>1</ele><time>2021-01-07T12:25:05Z</time><cmt>5.0 kmh</cmt></trkpt>
<trkpt lat="51.689521" lon="03.825883"><ele>1</ele><time>2021-01-07T12:25:06Z</time><cmt>5.0 kmh</cmt></trkpt>
<trkpt lat="51.689509" lon="03.825887"><ele>1</ele><time>2021-01-07T12:25:07Z</time><cmt>5.0 kmh</cmt></trkpt>
<trkpt lat="51.689496" lon="03.825892"><ele>1</ele><time>2021-01-07T12:25:08Z</time><cmt>4.4 kmh</cmt></trkpt>
<trkpt lat="51.689483" lon="03.825897"><ele>1</ele><time>2021-01-07T12:25:09Z</time><cmt>4.5 kmh</cmt></trkpt>
<trkpt lat="51.689471" lon="03.825902"><ele>1</ele><time>2021-01-07T12:25:10Z</time><cmt>5.0 kmh</cmt></trkpt>
<trkpt lat="51.689460" lon="03.825904"><ele>1</ele><time>2021-01-07T12:25:11Z</time><cmt>5.0 kmh</cmt></trkpt>
<trkpt lat="51.689447" lon="03.825906"><ele>2</ele><time>2021-01-07T12:25:12Z</time><cmt>5.2 kmh</cmt></trkpt>
<trkpt lat="51.689433" lon="03.825912"><ele>2</ele><time>2021-01-07T12:25:13Z</time><cmt>5.1 kmh</cmt></trkpt>
<trkpt lat="51.689421" lon="03.825917"><ele>2</ele><time>2021-01-07T12:25:14Z</time><cmt>5.1 kmh</cmt></trkpt>
<trkpt lat="51.689409" lon="03.825921"><ele>2</ele><time>2021-01-07T12:25:15Z</time><cmt>4.2 kmh</cmt></trkpt>
<trkpt lat="51.689398" lon="03.825925"><ele>2</ele><time>2021-01-07T12:25:16Z</time><cmt>5.0 kmh</cmt></trkpt>
<trkpt lat="51.689387" lon="03.825927"><ele>2</ele><time>2021-01-07T12:25:17Z</time><cmt>4.8 kmh</cmt></trkpt>
<trkpt lat="51.689375" lon="03.825930"><ele>3</ele><time>2021-01-07T12:25:18Z</time><cmt>4.9 kmh</cmt></trkpt>
<trkpt lat="51.689363" lon="03.825933"><ele>3</ele><time>2021-01-07T12:25:19Z</time><cmt>5.0 kmh</cmt></trkpt>
<trkpt lat="51.689350" lon="03.825938"><ele>3</ele><time>2021-01-07T12:25:20Z</time><cmt>4.4 kmh</cmt></trkpt>
<trkpt lat="51.689338" lon="03.825941"><ele>3</ele><time>2021-01-07T12:25:21Z</time><cmt>4.4 kmh</cmt></trkpt>
<trkpt lat="51.689325" lon="03.825945"><ele>3</ele><time>2021-01-07T12:25:22Z</time><cmt>5.0 kmh</cmt></trkpt>
<trkpt lat="51.689312" lon="03.825949"><ele>3</ele><time>2021-01-07T12:25:23Z</time><cmt>5.0 kmh</cmt></trkpt>
<trkpt lat="51.689300" lon="03.825954"><ele>3</ele><time>2021-01-07T12:25:24Z</time><cmt>5.0 kmh</cmt></trkpt>
<trkpt lat="51.689287" lon="03.825958"><ele>4</ele><time>2021-01-07T12:25:25Z</time><cmt>5.0 kmh</cmt></trkpt>
<trkpt lat="51.689274" lon="03.825961"><ele>4</ele><time>2021-01-07T12:25:26Z</time><cmt>5.0 kmh</cmt></trkpt>
<trkpt lat="51.689261" lon="03.825963"><ele>4</ele><time>2021-01-07T12:25:27Z</time><cmt>4.6 kmh</cmt></trkpt>
<trkpt lat="51.689248" lon="03.825968"><ele>4</ele><time>2021-01-07T12:25:28Z</time><cmt>5.1 kmh</cmt></trkpt>
<trkpt lat="51.689235" lon="03.825973"><ele>4</ele><time>2021-01-07T12:25:29Z</time><cmt>5.0 kmh</cmt></trkpt>
<trkpt lat="51.689222" lon="03.825979"><ele>4</ele><time>2021-01-07T12:25:30Z</time><cmt>5.0 kmh</cmt></trkpt>
<trkpt lat="51.689211" lon="03.825984"><ele>5</ele><time>2021-01-07T12:25:31Z</time><cmt>5.0 kmh</cmt></trkpt>
<trkpt lat="51.689199" lon="03.825988"><ele>5</ele><time>2021-01-07T12:25:32Z</time><cmt>5.0 kmh</cmt></trkpt>
<trkpt lat="51.689187" lon="03.825992"><ele>5</ele><time>2021-01-07T12:25:33Z</time><cmt>4.2 kmh</cmt></trkpt>
<trkpt lat="51.689175" lon="03.825995"><ele>5</ele><time>2021-01-07T12:25:34Z</time><cmt>4.3 kmh</cmt></trkpt>
<trkpt lat="51.689163" lon="03.826000"><ele>5</ele><time>2021-01-07T12:25:35Z</time><cmt>5.0 kmh</cmt></trkpt>
<trkpt lat="51.689151" lon="03.826004"><ele>6</ele><time>2021-01-07T12:25:36Z</time><cmt>5.0 kmh</cmt></trkpt>
<trkpt lat="51.689140" lon="03.826010"><ele>6</ele><time>2021-01-07T12:25:37Z</time><cmt>5.0 kmh</cmt></trkpt>
<trkpt lat="51.689128" lon="03.826015"><ele>6</ele><time>2021-01-07T12:25:38Z</time><cmt>5.0 kmh</cmt></trkpt>
<trkpt lat="51.689116" lon="03.826017"><ele>6</ele><time>2021-01-07T12:25:39Z</time><cmt>4.1 kmh</cmt></trkpt>
<trkpt lat="51.689105" lon="03.826021"><ele>6</ele><time>2021-01-07T12:25:40Z</time><cmt>4.1 kmh</cmt></trkpt>
<trkpt lat="51.689093" lon="03.826025"><ele>6</ele><time>2021-01-07T12:25:41Z</time><cmt>5.0 kmh</cmt></trkpt>
<trkpt lat="51.689083" lon="03.826031"><ele>6</ele><time>2021-01-07T12:25:42Z</time><cmt>5.0 kmh</cmt></trkpt>
<trkpt lat="51.689072" lon="03.826037"><ele>6</ele><time>2021-01-07T12:25:43Z</time><cmt>4.9 kmh</cmt></trkpt>
<trkpt lat="51.689060" lon="03.826042"><ele>6</ele><time>2021-01-07T12:25:44Z</time><cmt>5.0 kmh</cmt></trkpt>
<trkpt lat="51.689049" lon="03.826046"><ele>6</ele><time>2021-01-07T12:25:45Z</time><cmt>5.0 kmh</cmt></trkpt>
<trkpt lat="51.689039" lon="03.826050"><ele>6</ele><time>2021-01-07T12:25:46Z</time><cmt>3.7 kmh</cmt></trkpt>
<trkpt lat="51.689029" lon="03.826055"><ele>6</ele><time>2021-01-07T12:25:47Z</time><cmt>3.7 kmh</cmt></trkpt>
<trkpt lat="51.689017" lon="03.826061"><ele>6</ele><time>2021-01-07T12:25:48Z</time><cmt>4.9 kmh</cmt></trkpt>
<trkpt lat="51.689006" lon="03.826067"><ele>6</ele><time>2021-01-07T12:25:49Z</time><cmt>5.0 kmh</cmt></trkpt>
<trkpt lat="51.688994" lon="03.826073"><ele>6</ele><time>2021-01-07T12:25:50Z</time><cmt>5.0 kmh</cmt></trkpt>
<trkpt lat="51.688982" lon="03.826076"><ele>6</ele><time>2021-01-07T12:25:51Z</time><cmt>5.0 kmh</cmt></trkpt>
<trkpt lat="51.688972" lon="03.826080"><ele>6</ele><time>2021-01-07T12:25:52Z</time><cmt>3.9 kmh</cmt></trkpt>
<trkpt lat="51.688961" lon="03.826085"><ele>6</ele><time>2021-01-07T12:25:53Z</time><cmt>3.7 kmh</cmt></trkpt>
<trkpt lat="51.688951" lon="03.826088"><ele>6</ele><time>2021-01-07T12:25:54Z</time><cmt>4.7 kmh</cmt></trkpt>
<trkpt lat="51.688940" lon="03.826094"><ele>6</ele><time>2021-01-07T12:25:55Z</time><cmt>4.8 kmh</cmt></trkpt>
<trkpt lat="51.688928" lon="03.826101"><ele>6</ele><time>2021-01-07T12:25:56Z</time><cmt>5.0 kmh</cmt></trkpt>
<trkpt lat="51.688917" lon="03.826104"><ele>6</ele><time>2021-01-07T12:25:57Z</time><cmt>5.0 kmh</cmt></trkpt>
<trkpt lat="51.688905" lon="03.826108"><ele>6</ele><time>2021-01-07T12:25:58Z</time><cmt>4.1 kmh</cmt></trkpt>
<trkpt lat="51.688894" lon="03.826112"><ele>6</ele><time>2021-01-07T12:25:59Z</time><cmt>4.1 kmh</cmt></trkpt>
<trkpt lat="51.688882" lon="03.826116"><ele>6</ele><time>2021-01-07T12:26:00Z</time><cmt>5.0 kmh</cmt></trkpt>
<trkpt lat="51.688871" lon="03.826121"><ele>6</ele><time>2021-01-07T12:26:01Z</time><cmt>5.0 kmh</cmt></trkpt>
<trkpt lat="51.688860" lon="03.826125"><ele>6</ele><time>2021-01-07T12:26:02Z</time><cmt>4.9 kmh</cmt></trkpt>
<trkpt lat="51.688849" lon="03.826128"><ele>6</ele><time>2021-01-07T12:26:03Z</time><cmt>4.8 kmh</cmt></trkpt>
<trkpt lat="51.688838" lon="03.826133"><ele>6</ele><time>2021-01-07T12:26:04Z</time><cmt>4.9 kmh</cmt></trkpt>
<trkpt lat="51.688827" lon="03.826136"><ele>5</ele><time>2021-01-07T12:26:05Z</time><cmt>3.9 kmh</cmt></trkpt>
<trkpt lat="51.688816" lon="03.826139"><ele>5</ele><time>2021-01-07T12:26:06Z</time><cmt>3.8 kmh</cmt></trkpt>
<trkpt lat="51.688805" lon="03.826142"><ele>5</ele><time>2021-01-07T12:26:07Z</time><cmt>4.6 kmh</cmt></trkpt>
<trkpt lat="51.688795" lon="03.826147"><ele>5</ele><time>2021-01-07T12:26:08Z</time><cmt>4.7 kmh</cmt></trkpt>
<trkpt lat="51.688783" lon="03.826152"><ele>5</ele><time>2021-01-07T12:26:09Z</time><cmt>4.9 kmh</cmt></trkpt>
<trkpt lat="51.688771" lon="03.826155"><ele>5</ele><time>2021-01-07T12:26:10Z</time><cmt>5.0 kmh</cmt></trkpt>
<trkpt lat="51.688759" lon="03.826160"><ele>5</ele><time>2021-01-07T12:26:11Z</time><cmt>4.4 kmh</cmt></trkpt>
<trkpt lat="51.688747" lon="03.826164"><ele>5</ele><time>2021-01-07T12:26:12Z</time><cmt>4.2 kmh</cmt></trkpt>
<trkpt lat="51.688736" lon="03.826167"><ele>5</ele><time>2021-01-07T12:26:13Z</time><cmt>5.0 kmh</cmt></trkpt>
<trkpt lat="51.688724" lon="03.826171"><ele>5</ele><time>2021-01-07T12:26:14Z</time><cmt>5.0 kmh</cmt></trkpt>
<trkpt lat="51.688712" lon="03.826175"><ele>5</ele><time>2021-01-07T12:26:15Z</time><cmt>5.0 kmh</cmt></trkpt>
<trkpt lat="51.688701" lon="03.826178"><ele>5</ele><time>2021-01-07T12:26:16Z</time><cmt>5.0 kmh</cmt></trkpt>
<trkpt lat="51.688690" lon="03.826179"><ele>5</ele><time>2021-01-07T12:26:17Z</time><cmt>4.0 kmh</cmt></trkpt>
<trkpt lat="51.688678" lon="03.826182"><ele>5</ele><time>2021-01-07T12:26:18Z</time><cmt>4.1 kmh</cmt></trkpt>
<trkpt lat="51.688666" lon="03.826186"><ele>5</ele><time>2021-01-07T12:26:19Z</time><cmt>5.0 kmh</cmt></trkpt>
<trkpt lat="51.688654" lon="03.826189"><ele>5</ele><time>2021-01-07T12:26:20Z</time><cmt>5.0 kmh</cmt></trkpt>
<trkpt lat="51.688642" lon="03.826194"><ele>5</ele><time>2021-01-07T12:26:21Z</time><cmt>5.0 kmh</cmt></trkpt>
<trkpt lat="51.688629" lon="03.826197"><ele>5</ele><time>2021-01-07T12:26:22Z</time><cmt>5.0 kmh</cmt></trkpt>
<trkpt lat="51.688617" lon="03.826200"><ele>5</ele><time>2021-01-07T12:26:23Z</time><cmt>5.0 kmh</cmt></trkpt>
<trkpt lat="51.688605" lon="03.826204"><ele>5</ele><time>2021-01-07T12:26:24Z</time><cmt>4.3 kmh</cmt></trkpt>
<trkpt lat="51.688593" lon="03.826208"><ele>6</ele><time>2021-01-07T12:26:25Z</time><cmt>4.2 kmh</cmt></trkpt>
<trkpt lat="51.688582" lon="03.826212"><ele>6</ele><time>2021-01-07T12:26:26Z</time><cmt>5.0 kmh</cmt></trkpt>
<trkpt lat="51.688571" lon="03.826217"><ele>6</ele><time>2021-01-07T12:26:27Z</time><cmt>4.9 kmh</cmt></trkpt>
<trkpt lat="51.688560" lon="03.826221"><ele>6</ele><time>2021-01-07T12:26:28Z</time><cmt>4.8 kmh</cmt></trkpt>
<trkpt lat="51.688550" lon="03.826224"><ele>6</ele><time>2021-01-07T12:26:29Z</time><cmt>4.8 kmh</cmt></trkpt>
<trkpt lat="51.688538" lon="03.826224"><ele>6</ele><time>2021-01-07T12:26:30Z</time><cmt>3.9 kmh</cmt></trkpt>
<trkpt lat="51.688526" lon="03.826223"><ele>6</ele><time>2021-01-07T12:26:31Z</time><cmt>4.0 kmh</cmt></trkpt>
<trkpt lat="51.688514" lon="03.826223"><ele>6</ele><time>2021-01-07T12:26:32Z</time><cmt>5.0 kmh</cmt></trkpt>
<trkpt lat="51.688502" lon="03.826224"><ele>6</ele><time>2021-01-07T12:26:33Z</time><cmt>5.0 kmh</cmt></trkpt>
<trkpt lat="51.688489" lon="03.826226"><ele>6</ele><time>2021-01-07T12:26:34Z</time><cmt>5.0 kmh</cmt></trkpt>
<trkpt lat="51.688478" lon="03.826228"><ele>7</ele><time>2021-01-07T12:26:35Z</time><cmt>5.0 kmh</cmt></trkpt>
<trkpt lat="51.688466" lon="03.826230"><ele>7</ele><time>2021-01-07T12:26:36Z</time><cmt>4.0 kmh</cmt></trkpt>
<trkpt lat="51.688455" lon="03.826231"><ele>7</ele><time>2021-01-07T12:26:37Z</time><cmt>4.0 kmh</cmt></trkpt>
<trkpt lat="51.688443" lon="03.826232"><ele>7</ele><time>2021-01-07T12:26:38Z</time><cmt>5.0 kmh</cmt></trkpt>
<trkpt lat="51.688432" lon="03.826233"><ele>7</ele><time>2021-01-07T12:26:39Z</time><cmt>5.0 kmh</cmt></trkpt>
<trkpt lat="51.688419" lon="03.826234"><ele>7</ele><time>2021-01-07T12:26:40Z</time><cmt>5.0 kmh</cmt></trkpt>
<trkpt lat="51.688407" lon="03.826235"><ele>7</ele><time>2021-01-07T12:26:41Z</time><cmt>5.0 kmh</cmt></trkpt>
<trkpt lat="51.688394" lon="03.826236"><ele>6</ele><time>2021-01-07T12:26:42Z</time><cmt>5.0 kmh</cmt></trkpt>
<trkpt lat="51.688382" lon="03.826237"><ele>6</ele><time>2021-01-07T12:26:43Z</time><cmt>4.3 kmh</cmt></trkpt>
<trkpt lat="51.688370" lon="03.826237"><ele>6</ele><time>2021-01-07T12:26:44Z</time><cmt>4.2 kmh</cmt></trkpt>
<trkpt lat="51.688358" lon="03.826237"><ele>6</ele><time>2021-01-07T12:26:45Z</time><cmt>5.0 kmh</cmt></trkpt>
<trkpt lat="51.688347" lon="03.826240"><ele>6</ele><time>2021-01-07T12:26:46Z</time><cmt>5.0 kmh</cmt></trkpt>
<trkpt lat="51.688335" lon="03.826241"><ele>6</ele><time>2021-01-07T12:26:47Z</time><cmt>4.9 kmh</cmt></trkpt>
<trkpt lat="51.688324" lon="03.826241"><ele>5</ele><time>2021-01-07T12:26:48Z</time><cmt>4.9 kmh</cmt></trkpt>
<trkpt lat="51.688314" lon="03.826242"><ele>5</ele><time>2021-01-07T12:26:49Z</time><cmt>3.7 kmh</cmt></trkpt>
<trkpt lat="51.688304" lon="03.826243"><ele>5</ele><time>2021-01-07T12:26:50Z</time><cmt>3.4 kmh</cmt></trkpt>
<trkpt lat="51.688294" lon="03.826243"><ele>5</ele><time>2021-01-07T12:26:51Z</time><cmt>4.2 kmh</cmt></trkpt>
<trkpt lat="51.688284" lon="03.826240"><ele>4</ele><time>2021-01-07T12:26:52Z</time><cmt>4.4 kmh</cmt></trkpt>
<trkpt lat="51.688273" lon="03.826237"><ele>4</ele><time>2021-01-07T12:26:53Z</time><cmt>4.8 kmh</cmt></trkpt>
<trkpt lat="51.688259" lon="03.826231"><ele>4</ele><time>2021-01-07T12:26:54Z</time><cmt>5.0 kmh</cmt></trkpt>
<trkpt lat="51.688246" lon="03.826225"><ele>4</ele><time>2021-01-07T12:26:55Z</time><cmt>4.7 kmh</cmt></trkpt>
<trkpt lat="51.688233" lon="03.826218"><ele>3</ele><time>2021-01-07T12:26:56Z</time><cmt>4.8 kmh</cmt></trkpt>
<trkpt lat="51.688220" lon="03.826212"><ele>3</ele><time>2021-01-07T12:26:57Z</time><cmt>5.0 kmh</cmt></trkpt>
<trkpt lat="51.688205" lon="03.826206"><ele>3</ele><time>2021-01-07T12:26:58Z</time><cmt>5.0 kmh</cmt></trkpt>
<trkpt lat="51.688192" lon="03.826200"><ele>3</ele><time>2021-01-07T12:26:59Z</time><cmt>5.0 kmh</cmt></trkpt>
<trkpt lat="51.688179" lon="03.826195"><ele>3</ele><time>2021-01-07T12:27:00Z</time><cmt>5.0 kmh</cmt></trkpt>
<trkpt lat="51.688165" lon="03.826189"><ele>3</ele><time>2021-01-07T12:27:01Z</time><cmt>5.0 kmh</cmt></trkpt>
<trkpt lat="51.688150" lon="03.826185"><ele>3</ele><time>2021-01-07T12:27:02Z</time><cmt>5.2 kmh</cmt></trkpt>
<trkpt lat="51.688138" lon="03.826184"><ele>3</ele><time>2021-01-07T12:27:03Z</time><cmt>5.2 kmh</cmt></trkpt>
<trkpt lat="51.688125" lon="03.826183"><ele>4</ele><time>2021-01-07T12:27:04Z</time><cmt>5.0 kmh</cmt></trkpt>
<trkpt lat="51.688114" lon="03.826183"><ele>4</ele><time>2021-01-07T12:27:05Z</time><cmt>5.0 kmh</cmt></trkpt>
<trkpt lat="51.688102" lon="03.826184"><ele>4</ele><time>2021-01-07T12:27:06Z</time><cmt>5.0 kmh</cmt></trkpt>
<trkpt lat="51.688092" lon="03.826185"><ele>4</ele><time>2021-01-07T12:27:07Z</time><cmt>4.6 kmh</cmt></trkpt>
<trkpt lat="51.688083" lon="03.826186"><ele>4</ele><time>2021-01-07T12:27:08Z</time><cmt>3.4 kmh</cmt></trkpt>
<trkpt lat="51.688072" lon="03.826189"><ele>4</ele><time>2021-01-07T12:27:09Z</time><cmt>3.6 kmh</cmt></trkpt>
<trkpt lat="51.688061" lon="03.826192"><ele>4</ele><time>2021-01-07T12:27:10Z</time><cmt>4.8 kmh</cmt></trkpt>
<trkpt lat="51.688050" lon="03.826194"><ele>4</ele><time>2021-01-07T12:27:11Z</time><cmt>4.8 kmh</cmt></trkpt>
<trkpt lat="51.688039" lon="03.826196"><ele>4</ele><time>2021-01-07T12:27:12Z</time><cmt>4.8 kmh</cmt></trkpt>
<trkpt lat="51.688028" lon="03.826197"><ele>4</ele><time>2021-01-07T12:27:13Z</time><cmt>4.7 kmh</cmt></trkpt>
<trkpt lat="51.688017" lon="03.826198"><ele>4</ele><time>2021-01-07T12:27:14Z</time><cmt>4.7 kmh</cmt></trkpt>
<trkpt lat="51.688006" lon="03.826199"><ele>4</ele><time>2021-01-07T12:27:15Z</time><cmt>3.9 kmh</cmt></trkpt>
<trkpt lat="51.687995" lon="03.826201"><ele>4</ele><time>2021-01-07T12:27:16Z</time><cmt>3.9 kmh</cmt></trkpt>
<trkpt lat="51.687984" lon="03.826201"><ele>4</ele><time>2021-01-07T12:27:17Z</time><cmt>4.7 kmh</cmt></trkpt>
<trkpt lat="51.687974" lon="03.826202"><ele>4</ele><time>2021-01-07T12:27:18Z</time><cmt>4.4 kmh</cmt></trkpt>
<trkpt lat="51.687964" lon="03.826203"><ele>4</ele><time>2021-01-07T12:27:19Z</time><cmt>4.4 kmh</cmt></trkpt>
<trkpt lat="51.687953" lon="03.826204"><ele>4</ele><time>2021-01-07T12:27:20Z</time><cmt>4.5 kmh</cmt></trkpt>
<trkpt lat="51.687943" lon="03.826205"><ele>3</ele><time>2021-01-07T12:27:21Z</time><cmt>3.6 kmh</cmt></trkpt>
<trkpt lat="51.687933" lon="03.826205"><ele>3</ele><time>2021-01-07T12:27:22Z</time><cmt>3.5 kmh</cmt></trkpt>
<trkpt lat="51.687922" lon="03.826205"><ele>3</ele><time>2021-01-07T12:27:23Z</time><cmt>4.5 kmh</cmt></trkpt>
<trkpt lat="51.687912" lon="03.826205"><ele>3</ele><time>2021-01-07T12:27:24Z</time><cmt>4.6 kmh</cmt></trkpt>
<trkpt lat="51.687901" lon="03.826206"><ele>3</ele><time>2021-01-07T12:27:25Z</time><cmt>4.6 kmh</cmt></trkpt>
<trkpt lat="51.687890" lon="03.826208"><ele>3</ele><time>2021-01-07T12:27:26Z</time><cmt>4.6 kmh</cmt></trkpt>
<trkpt lat="51.687879" lon="03.826208"><ele>3</ele><time>2021-01-07T12:27:27Z</time><cmt>3.8 kmh</cmt></trkpt>
<trkpt lat="51.687868" lon="03.826209"><ele>3</ele><time>2021-01-07T12:27:28Z</time><cmt>3.8 kmh</cmt></trkpt>
<trkpt lat="51.687857" lon="03.826209"><ele>2</ele><time>2021-01-07T12:27:29Z</time><cmt>4.8 kmh</cmt></trkpt>
<trkpt lat="51.687846" lon="03.826209"><ele>2</ele><time>2021-01-07T12:27:30Z</time><cmt>4.8 kmh</cmt></trkpt>
<trkpt lat="51.687835" lon="03.826207"><ele>2</ele><time>2021-01-07T12:27:31Z</time><cmt>4.8 kmh</cmt></trkpt>
<trkpt lat="51.687823" lon="03.826206"><ele>2</ele><time>2021-01-07T12:27:32Z</time><cmt>4.9 kmh</cmt></trkpt>
<trkpt lat="51.687811" lon="03.826204"><ele>2</ele><time>2021-01-07T12:27:33Z</time><cmt>5.0 kmh</cmt></trkpt>
<trkpt lat="51.687800" lon="03.826202"><ele>2</ele><time>2021-01-07T12:27:34Z</time><cmt>4.0 kmh</cmt></trkpt>
<trkpt lat="51.687788" lon="03.826199"><ele>1</ele><time>2021-01-07T12:27:35Z</time><cmt>4.0 kmh</cmt></trkpt>
<trkpt lat="51.687777" lon="03.826195"><ele>1</ele><time>2021-01-07T12:27:36Z</time><cmt>5.0 kmh</cmt></trkpt>
<trkpt lat="51.687765" lon="03.826190"><ele>1</ele><time>2021-01-07T12:27:37Z</time><cmt>5.0 kmh</cmt></trkpt>
<trkpt lat="51.687753" lon="03.826186"><ele>1</ele><time>2021-01-07T12:27:38Z</time><cmt>5.0 kmh</cmt></trkpt>
<trkpt lat="51.687741" lon="03.826182"><ele>1</ele><time>2021-01-07T12:27:39Z</time><cmt>5.0 kmh</cmt></trkpt>
<trkpt lat="51.687730" lon="03.826179"><ele>1</ele><time>2021-01-07T12:27:40Z</time><cmt>4.0 kmh</cmt></trkpt>
<trkpt lat="51.687718" lon="03.826176"><ele>1</ele><time>2021-01-07T12:27:41Z</time><cmt>4.1 kmh</cmt></trkpt>
<trkpt lat="51.687706" lon="03.826174"><ele>1</ele><time>2021-01-07T12:27:42Z</time><cmt>5.0 kmh</cmt></trkpt>
<trkpt lat="51.687693" lon="03.826172"><ele>1</ele><time>2021-01-07T12:27:43Z</time><cmt>5.0 kmh</cmt></trkpt>
<trkpt lat="51.687680" lon="03.826169"><ele>1</ele><time>2021-01-07T12:27:44Z</time><cmt>5.0 kmh</cmt></trkpt>
<trkpt lat="51.687668" lon="03.826165"><ele>1</ele><time>2021-01-07T12:27:45Z</time><cmt>5.0 kmh</cmt></trkpt>
<trkpt lat="51.687656" lon="03.826160"><ele>2</ele><time>2021-01-07T12:27:46Z</time><cmt>4.3 kmh</cmt></trkpt>
<trkpt lat="51.687644" lon="03.826156"><ele>2</ele><time>2021-01-07T12:27:47Z</time><cmt>4.3 kmh</cmt></trkpt>
<trkpt lat="51.687632" lon="03.826151"><ele>2</ele><time>2021-01-07T12:27:48Z</time><cmt>5.0 kmh</cmt></trkpt>
<trkpt lat="51.687621" lon="03.826145"><ele>2</ele><time>2021-01-07T12:27:49Z</time><cmt>5.0 kmh</cmt></trkpt>
<trkpt lat="51.687610" lon="03.826139"><ele>2</ele><time>2021-01-07T12:27:50Z</time><cmt>5.0 kmh</cmt></trkpt>
<trkpt lat="51.687598" lon="03.826133"><ele>2</ele><time>2021-01-07T12:27:51Z</time><cmt>5.0 kmh</cmt></trkpt>
<trkpt lat="51.687586" lon="03.826129"><ele>2</ele><time>2021-01-07T12:27:52Z</time><cmt>5.0 kmh</cmt></trkpt>
<trkpt lat="51.687575" lon="03.826125"><ele>2</ele><time>2021-01-07T12:27:53Z</time><cmt>4.0 kmh</cmt></trkpt>
<trkpt lat="51.687568" lon="03.826123"><ele>3</ele><time>2021-01-07T12:27:54Z</time><cmt>3.2 kmh</cmt></trkpt>
<trkpt lat="51.687563" lon="03.826122"><ele>3</ele><time>2021-01-07T12:27:55Z</time><cmt>2.6 kmh</cmt></trkpt>
<trkpt lat="51.687562" lon="03.826122"><ele>3</ele><time>2021-01-07T12:27:56Z</time><cmt>1.3 kmh</cmt></trkpt>
<trkpt lat="51.687561" lon="03.826122"><ele>3</ele><time>2021-01-07T12:27:57Z</time><cmt>0.6 kmh</cmt></trkpt>
<trkpt lat="51.687560" lon="03.826122"><ele>3</ele><time>2021-01-07T12:27:58Z</time><cmt>0.4 kmh</cmt></trkpt>
<trkpt lat="51.687559" lon="03.826122"><ele>3</ele><time>2021-01-07T12:27:59Z</time><cmt>0.2 kmh</cmt></trkpt>
<trkpt lat="51.687558" lon="03.826122"><ele>4</ele><time>2021-01-07T12:28:00Z</time><cmt>0.0 kmh</cmt></trkpt>
<trkpt lat="51.687557" lon="03.826122"><ele>4</ele><time>2021-01-07T12:28:01Z</time><cmt>0.2 kmh</cmt></trkpt>
<trkpt lat="51.687556" lon="03.826123"><ele>4</ele><time>2021-01-07T12:28:02Z</time><cmt>0.4 kmh</cmt></trkpt>
<trkpt lat="51.687553" lon="03.826123"><ele>4</ele><time>2021-01-07T12:28:03Z</time><cmt>0.8 kmh</cmt></trkpt>
<trkpt lat="51.687549" lon="03.826122"><ele>4</ele><time>2021-01-07T12:28:04Z</time><cmt>1.4 kmh</cmt></trkpt>
<trkpt lat="51.687545" lon="03.826121"><ele>4</ele><time>2021-01-07T12:28:05Z</time><cmt>1.4 kmh</cmt></trkpt>
<trkpt lat="51.687542" lon="03.826121"><ele>4</ele><time>2021-01-07T12:28:06Z</time><cmt>1.2 kmh</cmt></trkpt>
<trkpt lat="51.687538" lon="03.826121"><ele>4</ele><time>2021-01-07T12:28:07Z</time><cmt>1.5 kmh</cmt></trkpt>
<trkpt lat="51.687532" lon="03.826119"><ele>5</ele><time>2021-01-07T12:28:08Z</time><cmt>2.2 kmh</cmt></trkpt>
<trkpt lat="51.687524" lon="03.826118"><ele>5</ele><time>2021-01-07T12:28:09Z</time><cmt>3.1 kmh</cmt></trkpt>
<trkpt lat="51.687516" lon="03.826116"><ele>5</ele><time>2021-01-07T12:28:10Z</time><cmt>3.5 kmh</cmt></trkpt>
<trkpt lat="51.687508" lon="03.826113"><ele>5</ele><time>2021-01-07T12:28:11Z</time><cmt>3.5 kmh</cmt></trkpt>
<trkpt lat="51.687502" lon="03.826111"><ele>5</ele><time>2021-01-07T12:28:12Z</time><cmt>2.4 kmh</cmt></trkpt>
<trkpt lat="51.687498" lon="03.826109"><ele>5</ele><time>2021-01-07T12:28:13Z</time><cmt>1.9 kmh</cmt></trkpt>
<trkpt lat="51.687494" lon="03.826108"><ele>5</ele><time>2021-01-07T12:28:14Z</time><cmt>1.8 kmh</cmt></trkpt>
<trkpt lat="51.687492" lon="03.826107"><ele>5</ele><time>2021-01-07T12:28:15Z</time><cmt>1.2 kmh</cmt></trkpt>
<trkpt lat="51.687492" lon="03.826107"><ele>5</ele><time>2021-01-07T12:28:16Z</time><cmt>0.4 kmh</cmt></trkpt>
<trkpt lat="51.687492" lon="03.826108"><ele>6</ele><time>2021-01-07T12:28:17Z</time><cmt>0.0 kmh</cmt></trkpt>
<trkpt lat="51.687491" lon="03.826109"><ele>6</ele><time>2021-01-07T12:28:18Z</time><cmt>0.1 kmh</cmt></trkpt>
<trkpt lat="51.687491" lon="03.826110"><ele>6</ele><time>2021-01-07T12:28:19Z</time><cmt>0.3 kmh</cmt></trkpt>
<trkpt lat="51.687491" lon="03.826110"><ele>6</ele><time>2021-01-07T12:28:20Z</time><cmt>0.2 kmh</cmt></trkpt>
<trkpt lat="51.687491" lon="03.826110"><ele>6</ele><time>2021-01-07T12:28:21Z</time><cmt>0.0 kmh</cmt></trkpt>
<trkpt lat="51.687491" lon="03.826111"><ele>6</ele><time>2021-01-07T12:28:22Z</time><cmt>0.0 kmh</cmt></trkpt>
<trkpt lat="51.687491" lon="03.826112"><ele>6</ele><time>2021-01-07T12:28:23Z</time><cmt>0.0 kmh</cmt></trkpt>
<trkpt lat="51.687491" lon="03.826113"><ele>6</ele><time>2021-01-07T12:28:24Z</time><cmt>0.0 kmh</cmt></trkpt>
<trkpt lat="51.687490" lon="03.826113"><ele>6</ele><time>2021-01-07T12:28:25Z</time><cmt>0.0 kmh</cmt></trkpt>
<trkpt lat="51.687490" lon="03.826113"><ele>6</ele><time>2021-01-07T12:28:26Z</time><cmt>0.0 kmh</cmt></trkpt>
<trkpt lat="51.687489" lon="03.826113"><ele>6</ele><time>2021-01-07T12:28:27Z</time><cmt>0.3 kmh</cmt></trkpt>
<trkpt lat="51.687485" lon="03.826113"><ele>6</ele><time>2021-01-07T12:28:28Z</time><cmt>1.2 kmh</cmt></trkpt>
<trkpt lat="51.687477" lon="03.826112"><ele>6</ele><time>2021-01-07T12:28:29Z</time><cmt>2.7 kmh</cmt></trkpt>
<trkpt lat="51.687468" lon="03.826109"><ele>6</ele><time>2021-01-07T12:28:30Z</time><cmt>3.8 kmh</cmt></trkpt>
<trkpt lat="51.687458" lon="03.826108"><ele>6</ele><time>2021-01-07T12:28:31Z</time><cmt>3.2 kmh</cmt></trkpt>
<trkpt lat="51.687449" lon="03.826107"><ele>6</ele><time>2021-01-07T12:28:32Z</time><cmt>3.3 kmh</cmt></trkpt>
<trkpt lat="51.687441" lon="03.826106"><ele>6</ele><time>2021-01-07T12:28:33Z</time><cmt>3.8 kmh</cmt></trkpt>
<trkpt lat="51.687432" lon="03.826106"><ele>6</ele><time>2021-01-07T12:28:34Z</time><cmt>3.6 kmh</cmt></trkpt>
<trkpt lat="51.687424" lon="03.826104"><ele>6</ele><time>2021-01-07T12:28:35Z</time><cmt>3.5 kmh</cmt></trkpt>
<trkpt lat="51.687418" lon="03.826103"><ele>6</ele><time>2021-01-07T12:28:36Z</time><cmt>3.1 kmh</cmt></trkpt>
<trkpt lat="51.687413" lon="03.826102"><ele>6</ele><time>2021-01-07T12:28:37Z</time><cmt>1.9 kmh</cmt></trkpt>
<trkpt lat="51.687411" lon="03.826102"><ele>6</ele><time>2021-01-07T12:28:38Z</time><cmt>1.1 kmh</cmt></trkpt>
<trkpt lat="51.687411" lon="03.826101"><ele>6</ele><time>2021-01-07T12:28:39Z</time><cmt>0.5 kmh</cmt></trkpt>
<trkpt lat="51.687411" lon="03.826101"><ele>6</ele><time>2021-01-07T12:28:40Z</time><cmt>0.0 kmh</cmt></trkpt>
<trkpt lat="51.687412" lon="03.826101"><ele>6</ele><time>2021-01-07T12:28:41Z</time><cmt>0.0 kmh</cmt></trkpt>
<trkpt lat="51.687412" lon="03.826101"><ele>6</ele><time>2021-01-07T12:28:42Z</time><cmt>0.0 kmh</cmt></trkpt>
<trkpt lat="51.687413" lon="03.826102"><ele>6</ele><time>2021-01-07T12:28:43Z</time><cmt>0.0 kmh</cmt></trkpt>
<trkpt lat="51.687413" lon="03.826102"><ele>6</ele><time>2021-01-07T12:28:44Z</time><cmt>0.0 kmh</cmt></trkpt>
<trkpt lat="51.687413" lon="03.826103"><ele>6</ele><time>2021-01-07T12:28:45Z</time><cmt>0.1 kmh</cmt></trkpt>
<trkpt lat="51.687414" lon="03.826104"><ele>6</ele><time>2021-01-07T12:28:46Z</time><cmt>0.4 kmh</cmt></trkpt>
<trkpt lat="51.687413" lon="03.826105"><ele>6</ele><time>2021-01-07T12:28:47Z</time><cmt>0.2 kmh</cmt></trkpt>
<trkpt lat="51.687411" lon="03.826099"><ele>6</ele><time>2021-01-07T12:28:48Z</time><cmt>0.7 kmh</cmt></trkpt>
<trkpt lat="51.687408" lon="03.826090"><ele>6</ele><time>2021-01-07T12:28:49Z</time><cmt>1.6 kmh</cmt></trkpt>
<trkpt lat="51.687402" lon="03.826081"><ele>6</ele><time>2021-01-07T12:28:50Z</time><cmt>2.5 kmh</cmt></trkpt>
<trkpt lat="51.687393" lon="03.826070"><ele>6</ele><time>2021-01-07T12:28:51Z</time><cmt>3.2 kmh</cmt></trkpt>
<trkpt lat="51.687385" lon="03.826057"><ele>6</ele><time>2021-01-07T12:28:52Z</time><cmt>4.8 kmh</cmt></trkpt>
<trkpt lat="51.687378" lon="03.826044"><ele>6</ele><time>2021-01-07T12:28:53Z</time><cmt>4.8 kmh</cmt></trkpt>
<trkpt lat="51.687371" lon="03.826031"><ele>6</ele><time>2021-01-07T12:28:54Z</time><cmt>4.7 kmh</cmt></trkpt>
<trkpt lat="51.687364" lon="03.826017"><ele>6</ele><time>2021-01-07T12:28:55Z</time><cmt>4.7 kmh</cmt></trkpt>
<trkpt lat="51.687357" lon="03.826003"><ele>6</ele><time>2021-01-07T12:28:56Z</time><cmt>3.8 kmh</cmt></trkpt>
<trkpt lat="51.687351" lon="03.825990"><ele>6</ele><time>2021-01-07T12:28:57Z</time><cmt>3.7 kmh</cmt></trkpt>
<trkpt lat="51.687345" lon="03.825977"><ele>6</ele><time>2021-01-07T12:28:58Z</time><cmt>4.4 kmh</cmt></trkpt>
<trkpt lat="51.687338" lon="03.825965"><ele>6</ele><time>2021-01-07T12:28:59Z</time><cmt>4.5 kmh</cmt></trkpt>
<trkpt lat="51.687329" lon="03.825953"><ele>6</ele><time>2021-01-07T12:29:00Z</time><cmt>4.7 kmh</cmt></trkpt>
<trkpt lat="51.687320" lon="03.825943"><ele>6</ele><time>2021-01-07T12:29:01Z</time><cmt>4.8 kmh</cmt></trkpt>
<trkpt lat="51.687310" lon="03.825934"><ele>6</ele><time>2021-01-07T12:29:02Z</time><cmt>4.8 kmh</cmt></trkpt>
<trkpt lat="51.687300" lon="03.825925"><ele>6</ele><time>2021-01-07T12:29:03Z</time><cmt>3.9 kmh</cmt></trkpt>
<trkpt lat="51.687290" lon="03.825916"><ele>6</ele><time>2021-01-07T12:29:04Z</time><cmt>4.0 kmh</cmt></trkpt>
<trkpt lat="51.687279" lon="03.825908"><ele>6</ele><time>2021-01-07T12:29:05Z</time><cmt>5.0 kmh</cmt></trkpt>
<trkpt lat="51.687269" lon="03.825900"><ele>6</ele><time>2021-01-07T12:29:06Z</time><cmt>5.0 kmh</cmt></trkpt>
<trkpt lat="51.687259" lon="03.825891"><ele>6</ele><time>2021-01-07T12:29:07Z</time><cmt>4.9 kmh</cmt></trkpt>
<trkpt lat="51.687249" lon="03.825883"><ele>6</ele><time>2021-01-07T12:29:08Z</time><cmt>4.8 kmh</cmt></trkpt>
<trkpt lat="51.687238" lon="03.825876"><ele>6</ele><time>2021-01-07T12:29:09Z</time><cmt>4.0 kmh</cmt></trkpt>
<trkpt lat="51.687227" lon="03.825868"><ele>6</ele><time>2021-01-07T12:29:10Z</time><cmt>4.2 kmh</cmt></trkpt>
<trkpt lat="51.687215" lon="03.825859"><ele>6</ele><time>2021-01-07T12:29:11Z</time><cmt>5.0 kmh</cmt></trkpt>
<trkpt lat="51.687204" lon="03.825851"><ele>6</ele><time>2021-01-07T12:29:12Z</time><cmt>5.0 kmh</cmt></trkpt>
<trkpt lat="51.687193" lon="03.825843"><ele>6</ele><time>2021-01-07T12:29:13Z</time><cmt>5.0 kmh</cmt></trkpt>
<trkpt lat="51.687182" lon="03.825835"><ele>6</ele><time>2021-01-07T12:29:14Z</time><cmt>5.0 kmh</cmt></trkpt>
<trkpt lat="51.687171" lon="03.825828"><ele>6</ele><time>2021-01-07T12:29:15Z</time><cmt>4.2 kmh</cmt></trkpt>
<trkpt lat="51.687160" lon="03.825822"><ele>6</ele><time>2021-01-07T12:29:16Z</time><cmt>4.1 kmh</cmt></trkpt>
<trkpt lat="51.687149" lon="03.825815"><ele>6</ele><time>2021-01-07T12:29:17Z</time><cmt>5.0 kmh</cmt></trkpt>
<trkpt lat="51.687138" lon="03.825809"><ele>6</ele><time>2021-01-07T12:29:18Z</time><cmt>5.0 kmh</cmt></trkpt>
<trkpt lat="51.687127" lon="03.825803"><ele>6</ele><time>2021-01-07T12:29:19Z</time><cmt>5.0 kmh</cmt></trkpt>
<trkpt lat="51.687115" lon="03.825797"><ele>6</ele><time>2021-01-07T12:29:20Z</time><cmt>5.0 kmh</cmt></trkpt>
<trkpt lat="51.687104" lon="03.825790"><ele>6</ele><time>2021-01-07T12:29:21Z</time><cmt>5.0 kmh</cmt></trkpt>
<trkpt lat="51.687094" lon="03.825781"><ele>6</ele><time>2021-01-07T12:29:22Z</time><cmt>4.1 kmh</cmt></trkpt>
<trkpt lat="51.687083" lon="03.825774"><ele>7</ele><time>2021-01-07T12:29:23Z</time><cmt>4.0 kmh</cmt></trkpt>
<trkpt lat="51.687073" lon="03.825768"><ele>7</ele><time>2021-01-07T12:29:24Z</time><cmt>4.8 kmh</cmt></trkpt>
<trkpt lat="51.687063" lon="03.825761"><ele>7</ele><time>2021-01-07T12:29:25Z</time><cmt>4.8 kmh</cmt></trkpt>
<trkpt lat="51.687051" lon="03.825753"><ele>7</ele><time>2021-01-07T12:29:26Z</time><cmt>5.0 kmh</cmt></trkpt>
<trkpt lat="51.687041" lon="03.825744"><ele>7</ele><time>2021-01-07T12:29:27Z</time><cmt>5.0 kmh</cmt></trkpt>
<trkpt lat="51.687030" lon="03.825736"><ele>7</ele><time>2021-01-07T12:29:28Z</time><cmt>4.1 kmh</cmt></trkpt>
<trkpt lat="51.687019" lon="03.825728"><ele>7</ele><time>2021-01-07T12:29:29Z</time><cmt>4.0 kmh</cmt></trkpt>
<trkpt lat="51.687009" lon="03.825721"><ele>7</ele><time>2021-01-07T12:29:30Z</time><cmt>4.9 kmh</cmt></trkpt>
<trkpt lat="51.686999" lon="03.825715"><ele>7</ele><time>2021-01-07T12:29:31Z</time><cmt>4.8 kmh</cmt></trkpt>
<trkpt lat="51.686988" lon="03.825709"><ele>7</ele><time>2021-01-07T12:29:32Z</time><cmt>4.8 kmh</cmt></trkpt>
<trkpt lat="51.686977" lon="03.825704"><ele>7</ele><time>2021-01-07T12:29:33Z</time><cmt>4.8 kmh</cmt></trkpt>
<trkpt lat="51.686966" lon="03.825701"><ele>7</ele><time>2021-01-07T12:29:34Z</time><cmt>3.9 kmh</cmt></trkpt>
<trkpt lat="51.686956" lon="03.825699"><ele>7</ele><time>2021-01-07T12:29:35Z</time><cmt>3.8 kmh</cmt></trkpt>
<trkpt lat="51.686947" lon="03.825700"><ele>7</ele><time>2021-01-07T12:29:36Z</time><cmt>4.2 kmh</cmt></trkpt>
<trkpt lat="51.686939" lon="03.825701"><ele>7</ele><time>2021-01-07T12:29:37Z</time><cmt>3.6 kmh</cmt></trkpt>
<trkpt lat="51.686932" lon="03.825703"><ele>7</ele><time>2021-01-07T12:29:38Z</time><cmt>3.2 kmh</cmt></trkpt>
<trkpt lat="51.686925" lon="03.825706"><ele>7</ele><time>2021-01-07T12:29:39Z</time><cmt>3.2 kmh</cmt></trkpt>
<trkpt lat="51.686917" lon="03.825709"><ele>7</ele><time>2021-01-07T12:29:40Z</time><cmt>3.3 kmh</cmt></trkpt>
<trkpt lat="51.686911" lon="03.825712"><ele>7</ele><time>2021-01-07T12:29:41Z</time><cmt>2.5 kmh</cmt></trkpt>
<trkpt lat="51.686905" lon="03.825718"><ele>7</ele><time>2021-01-07T12:29:42Z</time><cmt>2.2 kmh</cmt></trkpt>
<trkpt lat="51.686902" lon="03.825725"><ele>7</ele><time>2021-01-07T12:29:43Z</time><cmt>2.6 kmh</cmt></trkpt>
<trkpt lat="51.686900" lon="03.825733"><ele>7</ele><time>2021-01-07T12:29:44Z</time><cmt>2.4 kmh</cmt></trkpt>
<trkpt lat="51.686900" lon="03.825742"><ele>7</ele><time>2021-01-07T12:29:45Z</time><cmt>2.3 kmh</cmt></trkpt>
<trkpt lat="51.686901" lon="03.825750"><ele>7</ele><time>2021-01-07T12:29:46Z</time><cmt>2.3 kmh</cmt></trkpt>
<trkpt lat="51.686902" lon="03.825758"><ele>7</ele><time>2021-01-07T12:29:47Z</time><cmt>1.7 kmh</cmt></trkpt>
<trkpt lat="51.686902" lon="03.825767"><ele>7</ele><time>2021-01-07T12:29:48Z</time><cmt>1.8 kmh</cmt></trkpt>
<trkpt lat="51.686902" lon="03.825775"><ele>7</ele><time>2021-01-07T12:29:49Z</time><cmt>2.2 kmh</cmt></trkpt>
<trkpt lat="51.686901" lon="03.825783"><ele>7</ele><time>2021-01-07T12:29:50Z</time><cmt>2.2 kmh</cmt></trkpt>
<trkpt lat="51.686900" lon="03.825792"><ele>7</ele><time>2021-01-07T12:29:51Z</time><cmt>2.4 kmh</cmt></trkpt>
<trkpt lat="51.686899" lon="03.825802"><ele>7</ele><time>2021-01-07T12:29:52Z</time><cmt>2.5 kmh</cmt></trkpt>
<trkpt lat="51.686899" lon="03.825812"><ele>7</ele><time>2021-01-07T12:29:53Z</time><cmt>2.2 kmh</cmt></trkpt>
<trkpt lat="51.686897" lon="03.825824"><ele>7</ele><time>2021-01-07T12:29:54Z</time><cmt>2.4 kmh</cmt></trkpt>
<trkpt lat="51.686895" lon="03.825836"><ele>7</ele><time>2021-01-07T12:29:55Z</time><cmt>3.3 kmh</cmt></trkpt>
<trkpt lat="51.686892" lon="03.825849"><ele>6</ele><time>2021-01-07T12:29:56Z</time><cmt>3.6 kmh</cmt></trkpt>
<trkpt lat="51.686888" lon="03.825863"><ele>6</ele><time>2021-01-07T12:29:57Z</time><cmt>3.9 kmh</cmt></trkpt>
<trkpt lat="51.686884" lon="03.825876"><ele>6</ele><time>2021-01-07T12:29:58Z</time><cmt>3.9 kmh</cmt></trkpt>
<trkpt lat="51.686880" lon="03.825889"><ele>6</ele><time>2021-01-07T12:29:59Z</time><cmt>3.8 kmh</cmt></trkpt>
<trkpt lat="51.686877" lon="03.825902"><ele>6</ele><time>2021-01-07T12:30:00Z</time><cmt>3.1 kmh</cmt></trkpt>
<trkpt lat="51.686874" lon="03.825917"><ele>6</ele><time>2021-01-07T12:30:01Z</time><cmt>3.2 kmh</cmt></trkpt>
<trkpt lat="51.686872" lon="03.825934"><ele>6</ele><time>2021-01-07T12:30:02Z</time><cmt>4.4 kmh</cmt></trkpt>
<trkpt lat="51.686869" lon="03.825952"><ele>6</ele><time>2021-01-07T12:30:03Z</time><cmt>4.8 kmh</cmt></trkpt>
<trkpt lat="51.686866" lon="03.825969"><ele>6</ele><time>2021-01-07T12:30:04Z</time><cmt>4.8 kmh</cmt></trkpt>
<trkpt lat="51.686863" lon="03.825986"><ele>5</ele><time>2021-01-07T12:30:05Z</time><cmt>4.7 kmh</cmt></trkpt>
<trkpt lat="51.686861" lon="03.826002"><ele>5</ele><time>2021-01-07T12:30:06Z</time><cmt>3.7 kmh</cmt></trkpt>
<trkpt lat="51.686857" lon="03.826016"><ele>5</ele><time>2021-01-07T12:30:07Z</time><cmt>3.4 kmh</cmt></trkpt>
<trkpt lat="51.686852" lon="03.826030"><ele>5</ele><time>2021-01-07T12:30:08Z</time><cmt>4.2 kmh</cmt></trkpt>
<trkpt lat="51.686847" lon="03.826044"><ele>5</ele><time>2021-01-07T12:30:09Z</time><cmt>4.3 kmh</cmt></trkpt>
<trkpt lat="51.686842" lon="03.826060"><ele>5</ele><time>2021-01-07T12:30:10Z</time><cmt>4.5 kmh</cmt></trkpt>
<trkpt lat="51.686839" lon="03.826077"><ele>5</ele><time>2021-01-07T12:30:11Z</time><cmt>4.7 kmh</cmt></trkpt>
<trkpt lat="51.686836" lon="03.826095"><ele>5</ele><time>2021-01-07T12:30:12Z</time><cmt>3.9 kmh</cmt></trkpt>
<trkpt lat="51.686833" lon="03.826114"><ele>5</ele><time>2021-01-07T12:30:13Z</time><cmt>5.0 kmh</cmt></trkpt>
<trkpt lat="51.686830" lon="03.826135"><ele>5</ele><time>2021-01-07T12:30:14Z</time><cmt>5.6 kmh</cmt></trkpt>
<trkpt lat="51.686825" lon="03.826156"><ele>5</ele><time>2021-01-07T12:30:15Z</time><cmt>5.3 kmh</cmt></trkpt>
<trkpt lat="51.686821" lon="03.826175"><ele>5</ele><time>2021-01-07T12:30:16Z</time><cmt>5.0 kmh</cmt></trkpt>
<trkpt lat="51.686816" lon="03.826194"><ele>5</ele><time>2021-01-07T12:30:17Z</time><cmt>5.0 kmh</cmt></trkpt>
<trkpt lat="51.686811" lon="03.826213"><ele>5</ele><time>2021-01-07T12:30:18Z</time><cmt>5.0 kmh</cmt></trkpt>
<trkpt lat="51.686807" lon="03.826231"><ele>5</ele><time>2021-01-07T12:30:19Z</time><cmt>5.0 kmh</cmt></trkpt>
<trkpt lat="51.686803" lon="03.826251"><ele>5</ele><time>2021-01-07T12:30:20Z</time><cmt>5.1 kmh</cmt></trkpt>
<trkpt lat="51.686799" lon="03.826270"><ele>5</ele><time>2021-01-07T12:30:21Z</time><cmt>5.1 kmh</cmt></trkpt>
<trkpt lat="51.686795" lon="03.826289"><ele>5</ele><time>2021-01-07T12:30:22Z</time><cmt>5.0 kmh</cmt></trkpt>
<trkpt lat="51.686791" lon="03.826307"><ele>5</ele><time>2021-01-07T12:30:23Z</time><cmt>5.0 kmh</cmt></trkpt>
<trkpt lat="51.686788" lon="03.826325"><ele>5</ele><time>2021-01-07T12:30:24Z</time><cmt>5.0 kmh</cmt></trkpt>
<trkpt lat="51.686783" lon="03.826342"><ele>5</ele><time>2021-01-07T12:30:25Z</time><cmt>4.1 kmh</cmt></trkpt>
<trkpt lat="51.686779" lon="03.826360"><ele>5</ele><time>2021-01-07T12:30:26Z</time><cmt>4.0 kmh</cmt></trkpt>
<trkpt lat="51.686776" lon="03.826378"><ele>5</ele><time>2021-01-07T12:30:27Z</time><cmt>5.0 kmh</cmt></trkpt>
<trkpt lat="51.686772" lon="03.826397"><ele>5</ele><time>2021-01-07T12:30:28Z</time><cmt>5.0 kmh</cmt></trkpt>
<trkpt lat="51.686769" lon="03.826414"><ele>5</ele><time>2021-01-07T12:30:29Z</time><cmt>5.0 kmh</cmt></trkpt>
<trkpt lat="51.686766" lon="03.826433"><ele>5</ele><time>2021-01-07T12:30:30Z</time><cmt>5.0 kmh</cmt></trkpt>
<trkpt lat="51.686761" lon="03.826451"><ele>5</ele><time>2021-01-07T12:30:31Z</time><cmt>5.0 kmh</cmt></trkpt>
<trkpt lat="51.686756" lon="03.826470"><ele>5</ele><time>2021-01-07T12:30:32Z</time><cmt>5.0 kmh</cmt></trkpt>
<trkpt lat="51.686751" lon="03.826488"><ele>5</ele><time>2021-01-07T12:30:33Z</time><cmt>5.0 kmh</cmt></trkpt>
<trkpt lat="51.686747" lon="03.826505"><ele>5</ele><time>2021-01-07T12:30:34Z</time><cmt>5.0 kmh</cmt></trkpt>
<trkpt lat="51.686743" lon="03.826524"><ele>5</ele><time>2021-01-07T12:30:35Z</time><cmt>5.1 kmh</cmt></trkpt>
<trkpt lat="51.686738" lon="03.826543"><ele>6</ele><time>2021-01-07T12:30:36Z</time><cmt>5.1 kmh</cmt></trkpt>
<trkpt lat="51.686734" lon="03.826561"><ele>6</ele><time>2021-01-07T12:30:37Z</time><cmt>5.0 kmh</cmt></trkpt>
<trkpt lat="51.686730" lon="03.826577"><ele>6</ele><time>2021-01-07T12:30:38Z</time><cmt>4.0 kmh</cmt></trkpt>
<trkpt lat="51.686726" lon="03.826594"><ele>6</ele><time>2021-01-07T12:30:39Z</time><cmt>3.8 kmh</cmt></trkpt>
<trkpt lat="51.686723" lon="03.826611"><ele>6</ele><time>2021-01-07T12:30:40Z</time><cmt>4.7 kmh</cmt></trkpt>
<trkpt lat="51.686720" lon="03.826628"><ele>6</ele><time>2021-01-07T12:30:41Z</time><cmt>4.7 kmh</cmt></trkpt>
<trkpt lat="51.686717" lon="03.826645"><ele>6</ele><time>2021-01-07T12:30:42Z</time><cmt>4.8 kmh</cmt></trkpt>
<trkpt lat="51.686713" lon="03.826663"><ele>6</ele><time>2021-01-07T12:30:43Z</time><cmt>4.9 kmh</cmt></trkpt>
<trkpt lat="51.686709" lon="03.826680"><ele>6</ele><time>2021-01-07T12:30:44Z</time><cmt>4.0 kmh</cmt></trkpt>
<trkpt lat="51.686705" lon="03.826698"><ele>6</ele><time>2021-01-07T12:30:45Z</time><cmt>4.0 kmh</cmt></trkpt>
<trkpt lat="51.686700" lon="03.826714"><ele>6</ele><time>2021-01-07T12:30:46Z</time><cmt>5.0 kmh</cmt></trkpt>
<trkpt lat="51.686696" lon="03.826731"><ele>6</ele><time>2021-01-07T12:30:47Z</time><cmt>4.9 kmh</cmt></trkpt>
<trkpt lat="51.686693" lon="03.826748"><ele>5</ele><time>2021-01-07T12:30:48Z</time><cmt>4.8 kmh</cmt></trkpt>
<trkpt lat="51.686690" lon="03.826765"><ele>5</ele><time>2021-01-07T12:30:49Z</time><cmt>4.8 kmh</cmt></trkpt>
<trkpt lat="51.686688" lon="03.826783"><ele>5</ele><time>2021-01-07T12:30:50Z</time><cmt>4.7 kmh</cmt></trkpt>
<trkpt lat="51.686684" lon="03.826800"><ele>5</ele><time>2021-01-07T12:30:51Z</time><cmt>3.8 kmh</cmt></trkpt>
<trkpt lat="51.686681" lon="03.826818"><ele>5</ele><time>2021-01-07T12:30:52Z</time><cmt>5.0 kmh</cmt></trkpt>
<trkpt lat="51.686677" lon="03.826837"><ele>5</ele><time>2021-01-07T12:30:53Z</time><cmt>5.0 kmh</cmt></trkpt>
<trkpt lat="51.686674" lon="03.826855"><ele>5</ele><time>2021-01-07T12:30:54Z</time><cmt>5.0 kmh</cmt></trkpt>
<trkpt lat="51.686670" lon="03.826872"><ele>5</ele><time>2021-01-07T12:30:55Z</time><cmt>4.9 kmh</cmt></trkpt>
<trkpt lat="51.686667" lon="03.826888"><ele>5</ele><time>2021-01-07T12:30:56Z</time><cmt>4.6 kmh</cmt></trkpt>
<trkpt lat="51.686664" lon="03.826903"><ele>5</ele><time>2021-01-07T12:30:57Z</time><cmt>3.6 kmh</cmt></trkpt>
<trkpt lat="51.686661" lon="03.826921"><ele>5</ele><time>2021-01-07T12:30:58Z</time><cmt>3.8 kmh</cmt></trkpt>
<trkpt lat="51.686657" lon="03.826940"><ele>4</ele><time>2021-01-07T12:30:59Z</time><cmt>5.0 kmh</cmt></trkpt>
<trkpt lat="51.686653" lon="03.826958"><ele>4</ele><time>2021-01-07T12:31:00Z</time><cmt>5.0 kmh</cmt></trkpt>
<trkpt lat="51.686650" lon="03.826977"><ele>4</ele><time>2021-01-07T12:31:01Z</time><cmt>5.0 kmh</cmt></trkpt>
<trkpt lat="51.686646" lon="03.826996"><ele>4</ele><time>2021-01-07T12:31:02Z</time><cmt>5.0 kmh</cmt></trkpt>
<trkpt lat="51.686642" lon="03.827014"><ele>4</ele><time>2021-01-07T12:31:03Z</time><cmt>4.2 kmh</cmt></trkpt>
<trkpt lat="51.686638" lon="03.827033"><ele>4</ele><time>2021-01-07T12:31:04Z</time><cmt>4.2 kmh</cmt></trkpt>
<trkpt lat="51.686635" lon="03.827050"><ele>4</ele><time>2021-01-07T12:31:05Z</time><cmt>5.0 kmh</cmt></trkpt>
<trkpt lat="51.686631" lon="03.827067"><ele>4</ele><time>2021-01-07T12:31:06Z</time><cmt>4.8 kmh</cmt></trkpt>
<trkpt lat="51.686627" lon="03.827084"><ele>4</ele><time>2021-01-07T12:31:07Z</time><cmt>4.7 kmh</cmt></trkpt>
<trkpt lat="51.686623" lon="03.827100"><ele>4</ele><time>2021-01-07T12:31:08Z</time><cmt>4.8 kmh</cmt></trkpt>
<trkpt lat="51.686618" lon="03.827117"><ele>4</ele><time>2021-01-07T12:31:09Z</time><cmt>4.8 kmh</cmt></trkpt>
<trkpt lat="51.686615" lon="03.827134"><ele>4</ele><time>2021-01-07T12:31:10Z</time><cmt>3.9 kmh</cmt></trkpt>
<trkpt lat="51.686611" lon="03.827152"><ele>4</ele><time>2021-01-07T12:31:11Z</time><cmt>4.0 kmh</cmt></trkpt>
<trkpt lat="51.686607" lon="03.827168"><ele>3</ele><time>2021-01-07T12:31:12Z</time><cmt>4.8 kmh</cmt></trkpt>
<trkpt lat="51.686603" lon="03.827185"><ele>3</ele><time>2021-01-07T12:31:13Z</time><cmt>4.8 kmh</cmt></trkpt>
<trkpt lat="51.686598" lon="03.827202"><ele>3</ele><time>2021-01-07T12:31:14Z</time><cmt>4.9 kmh</cmt></trkpt>
<trkpt lat="51.686594" lon="03.827217"><ele>3</ele><time>2021-01-07T12:31:15Z</time><cmt>4.7 kmh</cmt></trkpt>
<trkpt lat="51.686591" lon="03.827233"><ele>3</ele><time>2021-01-07T12:31:16Z</time><cmt>3.5 kmh</cmt></trkpt>
<trkpt lat="51.686589" lon="03.827250"><ele>3</ele><time>2021-01-07T12:31:17Z</time><cmt>3.7 kmh</cmt></trkpt>
<trkpt lat="51.686587" lon="03.827267"><ele>3</ele><time>2021-01-07T12:31:18Z</time><cmt>4.7 kmh</cmt></trkpt>
<trkpt lat="51.686584" lon="03.827282"><ele>3</ele><time>2021-01-07T12:31:19Z</time><cmt>4.4 kmh</cmt></trkpt>
<trkpt lat="51.686582" lon="03.827296"><ele>3</ele><time>2021-01-07T12:31:20Z</time><cmt>4.0 kmh</cmt></trkpt>
<trkpt lat="51.686580" lon="03.827310"><ele>2</ele><time>2021-01-07T12:31:21Z</time><cmt>3.9 kmh</cmt></trkpt>
<trkpt lat="51.686577" lon="03.827325"><ele>2</ele><time>2021-01-07T12:31:22Z</time><cmt>3.3 kmh</cmt></trkpt>
<trkpt lat="51.686573" lon="03.827341"><ele>2</ele><time>2021-01-07T12:31:23Z</time><cmt>3.6 kmh</cmt></trkpt>
<trkpt lat="51.686569" lon="03.827358"><ele>2</ele><time>2021-01-07T12:31:24Z</time><cmt>4.7 kmh</cmt></trkpt>
<trkpt lat="51.686565" lon="03.827375"><ele>2</ele><time>2021-01-07T12:31:25Z</time><cmt>4.8 kmh</cmt></trkpt>
<trkpt lat="51.686562" lon="03.827392"><ele>2</ele><time>2021-01-07T12:31:26Z</time><cmt>4.8 kmh</cmt></trkpt>
<trkpt lat="51.686558" lon="03.827409"><ele>2</ele><time>2021-01-07T12:31:27Z</time><cmt>4.8 kmh</cmt></trkpt>
<trkpt lat="51.686555" lon="03.827426"><ele>1</ele><time>2021-01-07T12:31:28Z</time><cmt>4.8 kmh</cmt></trkpt>
<trkpt lat="51.686551" lon="03.827443"><ele>1</ele><time>2021-01-07T12:31:29Z</time><cmt>3.8 kmh</cmt></trkpt>
<trkpt lat="51.686547" lon="03.827460"><ele>1</ele><time>2021-01-07T12:31:30Z</time><cmt>3.9 kmh</cmt></trkpt>
<trkpt lat="51.686544" lon="03.827479"><ele>1</ele><time>2021-01-07T12:31:31Z</time><cmt>5.0 kmh</cmt></trkpt>
<trkpt lat="51.686540" lon="03.827497"><ele>1</ele><time>2021-01-07T12:31:32Z</time><cmt>5.0 kmh</cmt></trkpt>
<trkpt lat="51.686536" lon="03.827515"><ele>1</ele><time>2021-01-07T12:31:33Z</time><cmt>5.0 kmh</cmt></trkpt>
<trkpt lat="51.686533" lon="03.827535"><ele>1</ele><time>2021-01-07T12:31:34Z</time><cmt>5.1 kmh</cmt></trkpt>
<trkpt lat="51.686529" lon="03.827555"><ele>1</ele><time>2021-01-07T12:31:35Z</time><cmt>5.0 kmh</cmt></trkpt>
<trkpt lat="51.686526" lon="03.827573"><ele>1</ele><time>2021-01-07T12:31:36Z</time><cmt>5.0 kmh</cmt></trkpt>
<trkpt lat="51.686523" lon="03.827591"><ele>1</ele><time>2021-01-07T12:31:37Z</time><cmt>5.0 kmh</cmt></trkpt>
<trkpt lat="51.686520" lon="03.827609"><ele>1</ele><time>2021-01-07T12:31:38Z</time><cmt>5.0 kmh</cmt></trkpt>
<trkpt lat="51.686517" lon="03.827629"><ele>1</ele><time>2021-01-07T12:31:39Z</time><cmt>5.0 kmh</cmt></trkpt>
<trkpt lat="51.686513" lon="03.827648"><ele>1</ele><time>2021-01-07T12:31:40Z</time><cmt>5.0 kmh</cmt></trkpt>
<trkpt lat="51.686509" lon="03.827666"><ele>1</ele><time>2021-01-07T12:31:41Z</time><cmt>4.2 kmh</cmt></trkpt>
<trkpt lat="51.686505" lon="03.827682"><ele>1</ele><time>2021-01-07T12:31:42Z</time><cmt>4.0 kmh</cmt></trkpt>
<trkpt lat="51.686500" lon="03.827699"><ele>1</ele><time>2021-01-07T12:31:43Z</time><cmt>4.9 kmh</cmt></trkpt>
<trkpt lat="51.686496" lon="03.827717"><ele>1</ele><time>2021-01-07T12:31:44Z</time><cmt>4.9 kmh</cmt></trkpt>
<trkpt lat="51.686492" lon="03.827734"><ele>1</ele><time>2021-01-07T12:31:45Z</time><cmt>5.0 kmh</cmt></trkpt>
<trkpt lat="51.686487" lon="03.827752"><ele>1</ele><time>2021-01-07T12:31:46Z</time><cmt>5.0 kmh</cmt></trkpt>
<trkpt lat="51.686482" lon="03.827771"><ele>1</ele><time>2021-01-07T12:31:47Z</time><cmt>5.1 kmh</cmt></trkpt>
<trkpt lat="51.686477" lon="03.827789"><ele>1</ele><time>2021-01-07T12:31:48Z</time><cmt>5.1 kmh</cmt></trkpt>
<trkpt lat="51.686472" lon="03.827808"><ele>1</ele><time>2021-01-07T12:31:49Z</time><cmt>4.3 kmh</cmt></trkpt>
<trkpt lat="51.686467" lon="03.827826"><ele>1</ele><time>2021-01-07T12:31:50Z</time><cmt>5.0 kmh</cmt></trkpt>
<trkpt lat="51.686463" lon="03.827843"><ele>1</ele><time>2021-01-07T12:31:51Z</time><cmt>5.0 kmh</cmt></trkpt>
<trkpt lat="51.686459" lon="03.827861"><ele>1</ele><time>2021-01-07T12:31:52Z</time><cmt>5.0 kmh</cmt></trkpt>
<trkpt lat="51.686456" lon="03.827878"><ele>1</ele><time>2021-01-07T12:31:53Z</time><cmt>4.9 kmh</cmt></trkpt>
<trkpt lat="51.686452" lon="03.827894"><ele>1</ele><time>2021-01-07T12:31:54Z</time><cmt>3.8 kmh</cmt></trkpt>
<trkpt lat="51.686448" lon="03.827910"><ele>1</ele><time>2021-01-07T12:31:55Z</time><cmt>3.7 kmh</cmt></trkpt>
<trkpt lat="51.686443" lon="03.827926"><ele>1</ele><time>2021-01-07T12:31:56Z</time><cmt>4.7 kmh</cmt></trkpt>
<trkpt lat="51.686439" lon="03.827946"><ele>1</ele><time>2021-01-07T12:31:57Z</time><cmt>5.1 kmh</cmt></trkpt>
<trkpt lat="51.686435" lon="03.827965"><ele>1</ele><time>2021-01-07T12:31:58Z</time><cmt>5.1 kmh</cmt></trkpt>
<trkpt lat="51.686431" lon="03.827984"><ele>1</ele><time>2021-01-07T12:31:59Z</time><cmt>5.0 kmh</cmt></trkpt>
<trkpt lat="51.686426" lon="03.828002"><ele>1</ele><time>2021-01-07T12:32:00Z</time><cmt>4.2 kmh</cmt></trkpt>
<trkpt lat="51.686421" lon="03.828019"><ele>1</ele><time>2021-01-07T12:32:01Z</time><cmt>4.1 kmh</cmt></trkpt>
<trkpt lat="51.686416" lon="03.828036"><ele>1</ele><time>2021-01-07T12:32:02Z</time><cmt>5.0 kmh</cmt></trkpt>
<trkpt lat="51.686411" lon="03.828053"><ele>1</ele><time>2021-01-07T12:32:03Z</time><cmt>5.0 kmh</cmt></trkpt>
<trkpt lat="51.686407" lon="03.828071"><ele>1</ele><time>2021-01-07T12:32:04Z</time><cmt>5.0 kmh</cmt></trkpt>
<trkpt lat="51.686403" lon="03.828090"><ele>1</ele><time>2021-01-07T12:32:05Z</time><cmt>5.0 kmh</cmt></trkpt>
<trkpt lat="51.686399" lon="03.828109"><ele>1</ele><time>2021-01-07T12:32:06Z</time><cmt>5.0 kmh</cmt></trkpt>
<trkpt lat="51.686395" lon="03.828127"><ele>1</ele><time>2021-01-07T12:32:07Z</time><cmt>4.2 kmh</cmt></trkpt>
<trkpt lat="51.686390" lon="03.828144"><ele>1</ele><time>2021-01-07T12:32:08Z</time><cmt>4.1 kmh</cmt></trkpt>
<trkpt lat="51.686386" lon="03.828162"><ele>1</ele><time>2021-01-07T12:32:09Z</time><cmt>5.0 kmh</cmt></trkpt>
<trkpt lat="51.686381" lon="03.828178"><ele>1</ele><time>2021-01-07T12:32:10Z</time><cmt>5.0 kmh</cmt></trkpt>
<trkpt lat="51.686376" lon="03.828195"><ele>1</ele><time>2021-01-07T12:32:11Z</time><cmt>4.9 kmh</cmt></trkpt>
<trkpt lat="51.686371" lon="03.828211"><ele>1</ele><time>2021-01-07T12:32:12Z</time><cmt>4.9 kmh</cmt></trkpt>
<trkpt lat="51.686367" lon="03.828228"><ele>1</ele><time>2021-01-07T12:32:13Z</time><cmt>3.9 kmh</cmt></trkpt>
<trkpt lat="51.686362" lon="03.828244"><ele>1</ele><time>2021-01-07T12:32:14Z</time><cmt>3.9 kmh</cmt></trkpt>
<trkpt lat="51.686357" lon="03.828261"><ele>1</ele><time>2021-01-07T12:32:15Z</time><cmt>4.9 kmh</cmt></trkpt>
<trkpt lat="51.686352" lon="03.828279"><ele>1</ele><time>2021-01-07T12:32:16Z</time><cmt>5.0 kmh</cmt></trkpt>
<trkpt lat="51.686347" lon="03.828296"><ele>1</ele><time>2021-01-07T12:32:17Z</time><cmt>5.0 kmh</cmt></trkpt>
<trkpt lat="51.686342" lon="03.828312"><ele>1</ele><time>2021-01-07T12:32:18Z</time><cmt>4.9 kmh</cmt></trkpt>
<trkpt lat="51.686338" lon="03.828329"><ele>2</ele><time>2021-01-07T12:32:19Z</time><cmt>3.9 kmh</cmt></trkpt>
<trkpt lat="51.686333" lon="03.828347"><ele>2</ele><time>2021-01-07T12:32:20Z</time><cmt>4.0 kmh</cmt></trkpt>
<trkpt lat="51.686328" lon="03.828364"><ele>2</ele><time>2021-01-07T12:32:21Z</time><cmt>5.0 kmh</cmt></trkpt>
<trkpt lat="51.686323" lon="03.828381"><ele>2</ele><time>2021-01-07T12:32:22Z</time><cmt>5.0 kmh</cmt></trkpt>
<trkpt lat="51.686319" lon="03.828398"><ele>2</ele><time>2021-01-07T12:32:23Z</time><cmt>5.0 kmh</cmt></trkpt>
<trkpt lat="51.686314" lon="03.828416"><ele>2</ele><time>2021-01-07T12:32:24Z</time><cmt>5.0 kmh</cmt></trkpt>
<trkpt lat="51.686309" lon="03.828434"><ele>2</ele><time>2021-01-07T12:32:25Z</time><cmt>5.0 kmh</cmt></trkpt>
<trkpt lat="51.686303" lon="03.828452"><ele>2</ele><time>2021-01-07T12:32:26Z</time><cmt>5.2 kmh</cmt></trkpt>
<trkpt lat="51.686297" lon="03.828470"><ele>2</ele><time>2021-01-07T12:32:27Z</time><cmt>5.2 kmh</cmt></trkpt>
<trkpt lat="51.686292" lon="03.828487"><ele>2</ele><time>2021-01-07T12:32:28Z</time><cmt>5.0 kmh</cmt></trkpt>
<trkpt lat="51.686286" lon="03.828504"><ele>2</ele><time>2021-01-07T12:32:29Z</time><cmt>5.0 kmh</cmt></trkpt>
<trkpt lat="51.686280" lon="03.828520"><ele>2</ele><time>2021-01-07T12:32:30Z</time><cmt>5.0 kmh</cmt></trkpt>
<trkpt lat="51.686275" lon="03.828537"><ele>2</ele><time>2021-01-07T12:32:31Z</time><cmt>5.0 kmh</cmt></trkpt>
<trkpt lat="51.686270" lon="03.828554"><ele>2</ele><time>2021-01-07T12:32:32Z</time><cmt>4.1 kmh</cmt></trkpt>
<trkpt lat="51.686266" lon="03.828571"><ele>2</ele><time>2021-01-07T12:32:33Z</time><cmt>4.0 kmh</cmt></trkpt>
<trkpt lat="51.686261" lon="03.828588"><ele>2</ele><time>2021-01-07T12:32:34Z</time><cmt>4.9 kmh</cmt></trkpt>
<trkpt lat="51.686257" lon="03.828605"><ele>2</ele><time>2021-01-07T12:32:35Z</time><cmt>4.9 kmh</cmt></trkpt>
<trkpt lat="51.686253" lon="03.828623"><ele>2</ele><time>2021-01-07T12:32:36Z</time><cmt>5.0 kmh</cmt></trkpt>
<trkpt lat="51.686249" lon="03.828640"><ele>2</ele><time>2021-01-07T12:32:37Z</time><cmt>4.9 kmh</cmt></trkpt>
<trkpt lat="51.686245" lon="03.828655"><ele>2</ele><time>2021-01-07T12:32:38Z</time><cmt>4.6 kmh</cmt></trkpt>
<trkpt lat="51.686239" lon="03.828670"><ele>2</ele><time>2021-01-07T12:32:39Z</time><cmt>3.6 kmh</cmt></trkpt>
<trkpt lat="51.686233" lon="03.828685"><ele>2</ele><time>2021-01-07T12:32:40Z</time><cmt>3.7 kmh</cmt></trkpt>
<trkpt lat="51.686228" lon="03.828699"><ele>2</ele><time>2021-01-07T12:32:41Z</time><cmt>4.6 kmh</cmt></trkpt>
<trkpt lat="51.686222" lon="03.828713"><ele>2</ele><time>2021-01-07T12:32:42Z</time><cmt>4.5 kmh</cmt></trkpt>
<trkpt lat="51.686217" lon="03.828730"><ele>2</ele><time>2021-01-07T12:32:43Z</time><cmt>4.7 kmh</cmt></trkpt>
<trkpt lat="51.686212" lon="03.828747"><ele>2</ele><time>2021-01-07T12:32:44Z</time><cmt>5.0 kmh</cmt></trkpt>
<trkpt lat="51.686207" lon="03.828765"><ele>2</ele><time>2021-01-07T12:32:45Z</time><cmt>4.1 kmh</cmt></trkpt>
<trkpt lat="51.686203" lon="03.828782"><ele>2</ele><time>2021-01-07T12:32:46Z</time><cmt>4.0 kmh</cmt></trkpt>
<trkpt lat="51.686198" lon="03.828798"><ele>2</ele><time>2021-01-07T12:32:47Z</time><cmt>4.9 kmh</cmt></trkpt>
<trkpt lat="51.686193" lon="03.828815"><ele>2</ele><time>2021-01-07T12:32:48Z</time><cmt>4.9 kmh</cmt></trkpt>
<trkpt lat="51.686188" lon="03.828832"><ele>2</ele><time>2021-01-07T12:32:49Z</time><cmt>4.9 kmh</cmt></trkpt>
<trkpt lat="51.686184" lon="03.828848"><ele>2</ele><time>2021-01-07T12:32:50Z</time><cmt>4.8 kmh</cmt></trkpt>
<trkpt lat="51.686180" lon="03.828864"><ele>2</ele><time>2021-01-07T12:32:51Z</time><cmt>3.7 kmh</cmt></trkpt>
<trkpt lat="51.686176" lon="03.828881"><ele>2</ele><time>2021-01-07T12:32:52Z</time><cmt>3.8 kmh</cmt></trkpt>
<trkpt lat="51.686172" lon="03.828900"><ele>2</ele><time>2021-01-07T12:32:53Z</time><cmt>5.1 kmh</cmt></trkpt>
<trkpt lat="51.686166" lon="03.828918"><ele>2</ele><time>2021-01-07T12:32:54Z</time><cmt>5.1 kmh</cmt></trkpt>
<trkpt lat="51.686161" lon="03.828936"><ele>3</ele><time>2021-01-07T12:32:55Z</time><cmt>5.0 kmh</cmt></trkpt>
<trkpt lat="51.686155" lon="03.828953"><ele>3</ele><time>2021-01-07T12:32:56Z</time><cmt>5.0 kmh</cmt></trkpt>
<trkpt lat="51.686150" lon="03.828970"><ele>3</ele><time>2021-01-07T12:32:57Z</time><cmt>5.0 kmh</cmt></trkpt>
<trkpt lat="51.686145" lon="03.828988"><ele>3</ele><time>2021-01-07T12:32:58Z</time><cmt>4.0 kmh</cmt></trkpt>
<trkpt lat="51.686141" lon="03.829005"><ele>3</ele><time>2021-01-07T12:32:59Z</time><cmt>4.0 kmh</cmt></trkpt>
<trkpt lat="51.686137" lon="03.829023"><ele>3</ele><time>2021-01-07T12:33:00Z</time><cmt>5.0 kmh</cmt></trkpt>
<trkpt lat="51.686133" lon="03.829042"><ele>3</ele><time>2021-01-07T12:33:01Z</time><cmt>5.0 kmh</cmt></trkpt>
<trkpt lat="51.686128" lon="03.829060"><ele>3</ele><time>2021-01-07T12:33:02Z</time><cmt>5.0 kmh</cmt></trkpt>
<trkpt lat="51.686124" lon="03.829076"><ele>3</ele><time>2021-01-07T12:33:03Z</time><cmt>5.0 kmh</cmt></trkpt>
<trkpt lat="51.686119" lon="03.829093"><ele>3</ele><time>2021-01-07T12:33:04Z</time><cmt>3.9 kmh</cmt></trkpt>
<trkpt lat="51.686114" lon="03.829110"><ele>3</ele><time>2021-01-07T12:33:05Z</time><cmt>4.0 kmh</cmt></trkpt>
<trkpt lat="51.686108" lon="03.829126"><ele>3</ele><time>2021-01-07T12:33:06Z</time><cmt>5.0 kmh</cmt></trkpt>
<trkpt lat="51.686103" lon="03.829139"><ele>3</ele><time>2021-01-07T12:33:07Z</time><cmt>4.5 kmh</cmt></trkpt>
<trkpt lat="51.686099" lon="03.829153"><ele>3</ele><time>2021-01-07T12:33:08Z</time><cmt>4.1 kmh</cmt></trkpt>
<trkpt lat="51.686095" lon="03.829167"><ele>3</ele><time>2021-01-07T12:33:09Z</time><cmt>4.1 kmh</cmt></trkpt>
<trkpt lat="51.686091" lon="03.829182"><ele>3</ele><time>2021-01-07T12:33:10Z</time><cmt>3.4 kmh</cmt></trkpt>
<trkpt lat="51.686087" lon="03.829198"><ele>3</ele><time>2021-01-07T12:33:11Z</time><cmt>3.6 kmh</cmt></trkpt>
<trkpt lat="51.686083" lon="03.829214"><ele>3</ele><time>2021-01-07T12:33:12Z</time><cmt>4.6 kmh</cmt></trkpt>
<trkpt lat="51.686079" lon="03.829229"><ele>3</ele><time>2021-01-07T12:33:13Z</time><cmt>4.6 kmh</cmt></trkpt>
<trkpt lat="51.686074" lon="03.829244"><ele>3</ele><time>2021-01-07T12:33:14Z</time><cmt>4.5 kmh</cmt></trkpt>
<trkpt lat="51.686069" lon="03.829259"><ele>3</ele><time>2021-01-07T12:33:15Z</time><cmt>4.5 kmh</cmt></trkpt>
<trkpt lat="51.686066" lon="03.829275"><ele>3</ele><time>2021-01-07T12:33:16Z</time><cmt>4.5 kmh</cmt></trkpt>
<trkpt lat="51.686062" lon="03.829293"><ele>3</ele><time>2021-01-07T12:33:17Z</time><cmt>3.8 kmh</cmt></trkpt>
<trkpt lat="51.686058" lon="03.829311"><ele>3</ele><time>2021-01-07T12:33:18Z</time><cmt>4.1 kmh</cmt></trkpt>
<trkpt lat="51.686053" lon="03.829330"><ele>3</ele><time>2021-01-07T12:33:19Z</time><cmt>5.1 kmh</cmt></trkpt>
<trkpt lat="51.686048" lon="03.829349"><ele>3</ele><time>2021-01-07T12:33:20Z</time><cmt>5.1 kmh</cmt></trkpt>
<trkpt lat="51.686043" lon="03.829368"><ele>3</ele><time>2021-01-07T12:33:21Z</time><cmt>5.1 kmh</cmt></trkpt>
<trkpt lat="51.686038" lon="03.829385"><ele>3</ele><time>2021-01-07T12:33:22Z</time><cmt>5.0 kmh</cmt></trkpt>
<trkpt lat="51.686034" lon="03.829402"><ele>3</ele><time>2021-01-07T12:33:23Z</time><cmt>3.9 kmh</cmt></trkpt>
<trkpt lat="51.686030" lon="03.829419"><ele>3</ele><time>2021-01-07T12:33:24Z</time><cmt>3.9 kmh</cmt></trkpt>
<trkpt lat="51.686026" lon="03.829436"><ele>3</ele><time>2021-01-07T12:33:25Z</time><cmt>4.9 kmh</cmt></trkpt>
<trkpt lat="51.686021" lon="03.829452"><ele>3</ele><time>2021-01-07T12:33:26Z</time><cmt>4.9 kmh</cmt></trkpt>
<trkpt lat="51.686015" lon="03.829469"><ele>3</ele><time>2021-01-07T12:33:27Z</time><cmt>5.0 kmh</cmt></trkpt>
<trkpt lat="51.686010" lon="03.829486"><ele>3</ele><time>2021-01-07T12:33:28Z</time><cmt>5.0 kmh</cmt></trkpt>
<trkpt lat="51.686005" lon="03.829503"><ele>3</ele><time>2021-01-07T12:33:29Z</time><cmt>4.1 kmh</cmt></trkpt>
<trkpt lat="51.686000" lon="03.829520"><ele>3</ele><time>2021-01-07T12:33:30Z</time><cmt>4.1 kmh</cmt></trkpt>
<trkpt lat="51.685994" lon="03.829537"><ele>3</ele><time>2021-01-07T12:33:31Z</time><cmt>5.0 kmh</cmt></trkpt>
<trkpt lat="51.685989" lon="03.829554"><ele>3</ele><time>2021-01-07T12:33:32Z</time><cmt>5.0 kmh</cmt></trkpt>
<trkpt lat="51.685984" lon="03.829572"><ele>3</ele><time>2021-01-07T12:33:33Z</time><cmt>5.0 kmh</cmt></trkpt>
<trkpt lat="51.685979" lon="03.829589"><ele>3</ele><time>2021-01-07T12:33:34Z</time><cmt>5.0 kmh</cmt></trkpt>
<trkpt lat="51.685974" lon="03.829606"><ele>3</ele><time>2021-01-07T12:33:35Z</time><cmt>5.0 kmh</cmt></trkpt>
<trkpt lat="51.685969" lon="03.829622"><ele>3</ele><time>2021-01-07T12:33:36Z</time><cmt>4.0 kmh</cmt></trkpt>
<trkpt lat="51.685964" lon="03.829638"><ele>3</ele><time>2021-01-07T12:33:37Z</time><cmt>3.8 kmh</cmt></trkpt>
<trkpt lat="51.685960" lon="03.829655"><ele>3</ele><time>2021-01-07T12:33:38Z</time><cmt>4.8 kmh</cmt></trkpt>
<trkpt lat="51.685956" lon="03.829670"><ele>3</ele><time>2021-01-07T12:33:39Z</time><cmt>4.6 kmh</cmt></trkpt>
<trkpt lat="51.685952" lon="03.829686"><ele>3</ele><time>2021-01-07T12:33:40Z</time><cmt>4.5 kmh</cmt></trkpt>
<trkpt lat="51.685947" lon="03.829702"><ele>3</ele><time>2021-01-07T12:33:41Z</time><cmt>4.6 kmh</cmt></trkpt>
<trkpt lat="51.685942" lon="03.829718"><ele>3</ele><time>2021-01-07T12:33:42Z</time><cmt>3.8 kmh</cmt></trkpt>
<trkpt lat="51.685937" lon="03.829734"><ele>3</ele><time>2021-01-07T12:33:43Z</time><cmt>3.9 kmh</cmt></trkpt>
<trkpt lat="51.685932" lon="03.829750"><ele>3</ele><time>2021-01-07T12:33:44Z</time><cmt>4.8 kmh</cmt></trkpt>
<trkpt lat="51.685926" lon="03.829766"><ele>3</ele><time>2021-01-07T12:33:45Z</time><cmt>4.9 kmh</cmt></trkpt>
<trkpt lat="51.685921" lon="03.829782"><ele>3</ele><time>2021-01-07T12:33:46Z</time><cmt>4.9 kmh</cmt></trkpt>
<trkpt lat="51.685916" lon="03.829799"><ele>3</ele><time>2021-01-07T12:33:47Z</time><cmt>4.8 kmh</cmt></trkpt>
<trkpt lat="51.685912" lon="03.829815"><ele>3</ele><time>2021-01-07T12:33:48Z</time><cmt>3.8 kmh</cmt></trkpt>
<trkpt lat="51.685909" lon="03.829831"><ele>3</ele><time>2021-01-07T12:33:49Z</time><cmt>3.7 kmh</cmt></trkpt>
<trkpt lat="51.685905" lon="03.829847"><ele>3</ele><time>2021-01-07T12:33:50Z</time><cmt>4.6 kmh</cmt></trkpt>
<trkpt lat="51.685902" lon="03.829864"><ele>3</ele><time>2021-01-07T12:33:51Z</time><cmt>4.7 kmh</cmt></trkpt>
<trkpt lat="51.685898" lon="03.829880"><ele>3</ele><time>2021-01-07T12:33:52Z</time><cmt>4.7 kmh</cmt></trkpt>
<trkpt lat="51.685894" lon="03.829896"><ele>3</ele><time>2021-01-07T12:33:53Z</time><cmt>4.6 kmh</cmt></trkpt>
<trkpt lat="51.685889" lon="03.829911"><ele>3</ele><time>2021-01-07T12:33:54Z</time><cmt>4.6 kmh</cmt></trkpt>
<trkpt lat="51.685884" lon="03.829927"><ele>3</ele><time>2021-01-07T12:33:55Z</time><cmt>3.7 kmh</cmt></trkpt>
<trkpt lat="51.685880" lon="03.829943"><ele>3</ele><time>2021-01-07T12:33:56Z</time><cmt>3.8 kmh</cmt></trkpt>
<trkpt lat="51.685876" lon="03.829959"><ele>3</ele><time>2021-01-07T12:33:57Z</time><cmt>4.6 kmh</cmt></trkpt>
<trkpt lat="51.685872" lon="03.829974"><ele>3</ele><time>2021-01-07T12:33:58Z</time><cmt>4.4 kmh</cmt></trkpt>
<trkpt lat="51.685867" lon="03.829989"><ele>3</ele><time>2021-01-07T12:33:59Z</time><cmt>4.4 kmh</cmt></trkpt>
<trkpt lat="51.685862" lon="03.830005"><ele>3</ele><time>2021-01-07T12:34:00Z</time><cmt>4.6 kmh</cmt></trkpt>
<trkpt lat="51.685857" lon="03.830021"><ele>3</ele><time>2021-01-07T12:34:01Z</time><cmt>3.9 kmh</cmt></trkpt>
<trkpt lat="51.685853" lon="03.830038"><ele>3</ele><time>2021-01-07T12:34:02Z</time><cmt>3.9 kmh</cmt></trkpt>
<trkpt lat="51.685850" lon="03.830054"><ele>3</ele><time>2021-01-07T12:34:03Z</time><cmt>4.7 kmh</cmt></trkpt>
<trkpt lat="51.685846" lon="03.830071"><ele>3</ele><time>2021-01-07T12:34:04Z</time><cmt>4.7 kmh</cmt></trkpt>
<trkpt lat="51.685841" lon="03.830088"><ele>3</ele><time>2021-01-07T12:34:05Z</time><cmt>5.0 kmh</cmt></trkpt>
<trkpt lat="51.685836" lon="03.830105"><ele>3</ele><time>2021-01-07T12:34:06Z</time><cmt>5.0 kmh</cmt></trkpt>
<trkpt lat="51.685832" lon="03.830122"><ele>3</ele><time>2021-01-07T12:34:07Z</time><cmt>4.8 kmh</cmt></trkpt>
<trkpt lat="51.685828" lon="03.830137"><ele>3</ele><time>2021-01-07T12:34:08Z</time><cmt>3.7 kmh</cmt></trkpt>
<trkpt lat="51.685824" lon="03.830152"><ele>3</ele><time>2021-01-07T12:34:09Z</time><cmt>3.6 kmh</cmt></trkpt>
<trkpt lat="51.685819" lon="03.830166"><ele>3</ele><time>2021-01-07T12:34:10Z</time><cmt>4.3 kmh</cmt></trkpt>
<trkpt lat="51.685813" lon="03.830182"><ele>3</ele><time>2021-01-07T12:34:11Z</time><cmt>4.6 kmh</cmt></trkpt>
<trkpt lat="51.685808" lon="03.830199"><ele>3</ele><time>2021-01-07T12:34:12Z</time><cmt>5.0 kmh</cmt></trkpt>
<trkpt lat="51.685802" lon="03.830215"><ele>3</ele><time>2021-01-07T12:34:13Z</time><cmt>5.0 kmh</cmt></trkpt>
<trkpt lat="51.685797" lon="03.830231"><ele>3</ele><time>2021-01-07T12:34:14Z</time><cmt>4.0 kmh</cmt></trkpt>
<trkpt lat="51.685791" lon="03.830245"><ele>3</ele><time>2021-01-07T12:34:15Z</time><cmt>3.8 kmh</cmt></trkpt>
<trkpt lat="51.685786" lon="03.830259"><ele>3</ele><time>2021-01-07T12:34:16Z</time><cmt>4.5 kmh</cmt></trkpt>
<trkpt lat="51.685780" lon="03.830273"><ele>3</ele><time>2021-01-07T12:34:17Z</time><cmt>4.4 kmh</cmt></trkpt>
<trkpt lat="51.685775" lon="03.830288"><ele>3</ele><time>2021-01-07T12:34:18Z</time><cmt>4.4 kmh</cmt></trkpt>
<trkpt lat="51.685770" lon="03.830303"><ele>3</ele><time>2021-01-07T12:34:19Z</time><cmt>4.6 kmh</cmt></trkpt>
<trkpt lat="51.685765" lon="03.830318"><ele>3</ele><time>2021-01-07T12:34:20Z</time><cmt>3.7 kmh</cmt></trkpt>
<trkpt lat="51.685760" lon="03.830333"><ele>3</ele><time>2021-01-07T12:34:21Z</time><cmt>3.6 kmh</cmt></trkpt>
<trkpt lat="51.685756" lon="03.830349"><ele>3</ele><time>2021-01-07T12:34:22Z</time><cmt>4.5 kmh</cmt></trkpt>
<trkpt lat="51.685753" lon="03.830364"><ele>3</ele><time>2021-01-07T12:34:23Z</time><cmt>4.4 kmh</cmt></trkpt>
<trkpt lat="51.685749" lon="03.830378"><ele>3</ele><time>2021-01-07T12:34:24Z</time><cmt>4.2 kmh</cmt></trkpt>
<trkpt lat="51.685746" lon="03.830394"><ele>3</ele><time>2021-01-07T12:34:25Z</time><cmt>4.3 kmh</cmt></trkpt>
<trkpt lat="51.685741" lon="03.830410"><ele>3</ele><time>2021-01-07T12:34:26Z</time><cmt>4.6 kmh</cmt></trkpt>
<trkpt lat="51.685736" lon="03.830427"><ele>3</ele><time>2021-01-07T12:34:27Z</time><cmt>4.0 kmh</cmt></trkpt>
<trkpt lat="51.685731" lon="03.830445"><ele>3</ele><time>2021-01-07T12:34:28Z</time><cmt>4.1 kmh</cmt></trkpt>
<trkpt lat="51.685726" lon="03.830463"><ele>3</ele><time>2021-01-07T12:34:29Z</time><cmt>5.1 kmh</cmt></trkpt>
<trkpt lat="51.685721" lon="03.830481"><ele>3</ele><time>2021-01-07T12:34:30Z</time><cmt>5.1 kmh</cmt></trkpt>
<trkpt lat="51.685717" lon="03.830498"><ele>3</ele><time>2021-01-07T12:34:31Z</time><cmt>5.0 kmh</cmt></trkpt>
<trkpt lat="51.685712" lon="03.830514"><ele>3</ele><time>2021-01-07T12:34:32Z</time><cmt>4.9 kmh</cmt></trkpt>
<trkpt lat="51.685706" lon="03.830529"><ele>3</ele><time>2021-01-07T12:34:33Z</time><cmt>3.8 kmh</cmt></trkpt>
<trkpt lat="51.685702" lon="03.830544"><ele>3</ele><time>2021-01-07T12:34:34Z</time><cmt>3.7 kmh</cmt></trkpt>
<trkpt lat="51.685697" lon="03.830560"><ele>3</ele><time>2021-01-07T12:34:35Z</time><cmt>4.6 kmh</cmt></trkpt>
<trkpt lat="51.685693" lon="03.830577"><ele>3</ele><time>2021-01-07T12:34:36Z</time><cmt>4.7 kmh</cmt></trkpt>
<trkpt lat="51.685689" lon="03.830594"><ele>3</ele><time>2021-01-07T12:34:37Z</time><cmt>4.8 kmh</cmt></trkpt>
<trkpt lat="51.685685" lon="03.830610"><ele>3</ele><time>2021-01-07T12:34:38Z</time><cmt>4.7 kmh</cmt></trkpt>
<trkpt lat="51.685681" lon="03.830627"><ele>3</ele><time>2021-01-07T12:34:39Z</time><cmt>3.8 kmh</cmt></trkpt>
<trkpt lat="51.685677" lon="03.830643"><ele>3</ele><time>2021-01-07T12:34:40Z</time><cmt>3.8 kmh</cmt></trkpt>
<trkpt lat="51.685673" lon="03.830660"><ele>3</ele><time>2021-01-07T12:34:41Z</time><cmt>4.8 kmh</cmt></trkpt>
<trkpt lat="51.685668" lon="03.830676"><ele>4</ele><time>2021-01-07T12:34:42Z</time><cmt>4.9 kmh</cmt></trkpt>
<trkpt lat="51.685663" lon="03.830693"><ele>4</ele><time>2021-01-07T12:34:43Z</time><cmt>4.9 kmh</cmt></trkpt>
<trkpt lat="51.685659" lon="03.830710"><ele>4</ele><time>2021-01-07T12:34:44Z</time><cmt>4.8 kmh</cmt></trkpt>
<trkpt lat="51.685655" lon="03.830727"><ele>4</ele><time>2021-01-07T12:34:45Z</time><cmt>4.8 kmh</cmt></trkpt>
<trkpt lat="51.685650" lon="03.830743"><ele>4</ele><time>2021-01-07T12:34:46Z</time><cmt>3.9 kmh</cmt></trkpt>
<trkpt lat="51.685646" lon="03.830758"><ele>4</ele><time>2021-01-07T12:34:47Z</time><cmt>3.8 kmh</cmt></trkpt>
<trkpt lat="51.685642" lon="03.830774"><ele>4</ele><time>2021-01-07T12:34:48Z</time><cmt>4.6 kmh</cmt></trkpt>
<trkpt lat="51.685638" lon="03.830791"><ele>4</ele><time>2021-01-07T12:34:49Z</time><cmt>4.7 kmh</cmt></trkpt>
<trkpt lat="51.685633" lon="03.830807"><ele>4</ele><time>2021-01-07T12:34:50Z</time><cmt>4.8 kmh</cmt></trkpt>
<trkpt lat="51.685629" lon="03.830824"><ele>4</ele><time>2021-01-07T12:34:51Z</time><cmt>4.8 kmh</cmt></trkpt>
<trkpt lat="51.685625" lon="03.830840"><ele>4</ele><time>2021-01-07T12:34:52Z</time><cmt>3.8 kmh</cmt></trkpt>
<trkpt lat="51.685620" lon="03.830857"><ele>4</ele><time>2021-01-07T12:34:53Z</time><cmt>3.8 kmh</cmt></trkpt>
<trkpt lat="51.685616" lon="03.830874"><ele>4</ele><time>2021-01-07T12:34:54Z</time><cmt>4.9 kmh</cmt></trkpt>
<trkpt lat="51.685611" lon="03.830891"><ele>4</ele><time>2021-01-07T12:34:55Z</time><cmt>5.0 kmh</cmt></trkpt>
<trkpt lat="51.685607" lon="03.830909"><ele>4</ele><time>2021-01-07T12:34:56Z</time><cmt>5.0 kmh</cmt></trkpt>
<trkpt lat="51.685603" lon="03.830925"><ele>4</ele><time>2021-01-07T12:34:57Z</time><cmt>4.8 kmh</cmt></trkpt>
<trkpt lat="51.685599" lon="03.830939"><ele>4</ele><time>2021-01-07T12:34:58Z</time><cmt>3.6 kmh</cmt></trkpt>
<trkpt lat="51.685595" lon="03.830954"><ele>4</ele><time>2021-01-07T12:34:59Z</time><cmt>3.4 kmh</cmt></trkpt>
<trkpt lat="51.685591" lon="03.830969"><ele>4</ele><time>2021-01-07T12:35:00Z</time><cmt>4.3 kmh</cmt></trkpt>
<trkpt lat="51.685586" lon="03.830985"><ele>4</ele><time>2021-01-07T12:35:01Z</time><cmt>4.6 kmh</cmt></trkpt>
<trkpt lat="51.685582" lon="03.831001"><ele>4</ele><time>2021-01-07T12:35:02Z</time><cmt>4.7 kmh</cmt></trkpt>
<trkpt lat="51.685578" lon="03.831017"><ele>4</ele><time>2021-01-07T12:35:03Z</time><cmt>4.5 kmh</cmt></trkpt>
<trkpt lat="51.685574" lon="03.831032"><ele>4</ele><time>2021-01-07T12:35:04Z</time><cmt>4.4 kmh</cmt></trkpt>
<trkpt lat="51.685570" lon="03.831046"><ele>4</ele><time>2021-01-07T12:35:05Z</time><cmt>3.5 kmh</cmt></trkpt>
<trkpt lat="51.685566" lon="03.831061"><ele>4</ele><time>2021-01-07T12:35:06Z</time><cmt>3.5 kmh</cmt></trkpt>
<trkpt lat="51.685562" lon="03.831075"><ele>4</ele><time>2021-01-07T12:35:07Z</time><cmt>4.3 kmh</cmt></trkpt>
<trkpt lat="51.685558" lon="03.831090"><ele>4</ele><time>2021-01-07T12:35:08Z</time><cmt>4.2 kmh</cmt></trkpt>
<trkpt lat="51.685553" lon="03.831106"><ele>4</ele><time>2021-01-07T12:35:09Z</time><cmt>4.5 kmh</cmt></trkpt>
<trkpt lat="51.685548" lon="03.831122"><ele>4</ele><time>2021-01-07T12:35:10Z</time><cmt>4.7 kmh</cmt></trkpt>
<trkpt lat="51.685544" lon="03.831138"><ele>4</ele><time>2021-01-07T12:35:11Z</time><cmt>3.8 kmh</cmt></trkpt>
<trkpt lat="51.685540" lon="03.831153"><ele>4</ele><time>2021-01-07T12:35:12Z</time><cmt>3.6 kmh</cmt></trkpt>
<trkpt lat="51.685536" lon="03.831168"><ele>4</ele><time>2021-01-07T12:35:13Z</time><cmt>4.4 kmh</cmt></trkpt>
<trkpt lat="51.685532" lon="03.831183"><ele>4</ele><time>2021-01-07T12:35:14Z</time><cmt>4.4 kmh</cmt></trkpt>
<trkpt lat="51.685527" lon="03.831198"><ele>4</ele><time>2021-01-07T12:35:15Z</time><cmt>4.5 kmh</cmt></trkpt>
<trkpt lat="51.685523" lon="03.831214"><ele>4</ele><time>2021-01-07T12:35:16Z</time><cmt>4.6 kmh</cmt></trkpt>
<trkpt lat="51.685519" lon="03.831230"><ele>4</ele><time>2021-01-07T12:35:17Z</time><cmt>3.7 kmh</cmt></trkpt>
<trkpt lat="51.685515" lon="03.831245"><ele>4</ele><time>2021-01-07T12:35:18Z</time><cmt>3.6 kmh</cmt></trkpt>
<trkpt lat="51.685510" lon="03.831261"><ele>4</ele><time>2021-01-07T12:35:19Z</time><cmt>4.5 kmh</cmt></trkpt>
<trkpt lat="51.685505" lon="03.831278"><ele>4</ele><time>2021-01-07T12:35:20Z</time><cmt>5.3 kmh</cmt></trkpt>
<trkpt lat="51.685500" lon="03.831295"><ele>4</ele><time>2021-01-07T12:35:21Z</time><cmt>5.3 kmh</cmt></trkpt>
<trkpt lat="51.685496" lon="03.831311"><ele>4</ele><time>2021-01-07T12:35:22Z</time><cmt>4.8 kmh</cmt></trkpt>
<trkpt lat="51.685492" lon="03.831325"><ele>4</ele><time>2021-01-07T12:35:23Z</time><cmt>4.3 kmh</cmt></trkpt>
<trkpt lat="51.685488" lon="03.831338"><ele>4</ele><time>2021-01-07T12:35:24Z</time><cmt>3.2 kmh</cmt></trkpt>
<trkpt lat="51.685484" lon="03.831352"><ele>4</ele><time>2021-01-07T12:35:25Z</time><cmt>3.2 kmh</cmt></trkpt>
<trkpt lat="51.685479" lon="03.831366"><ele>4</ele><time>2021-01-07T12:35:26Z</time><cmt>4.2 kmh</cmt></trkpt>
<trkpt lat="51.685475" lon="03.831381"><ele>4</ele><time>2021-01-07T12:35:27Z</time><cmt>4.3 kmh</cmt></trkpt>
<trkpt lat="51.685471" lon="03.831397"><ele>4</ele><time>2021-01-07T12:35:28Z</time><cmt>4.5 kmh</cmt></trkpt>
<trkpt lat="51.685465" lon="03.831415"><ele>4</ele><time>2021-01-07T12:35:29Z</time><cmt>5.0 kmh</cmt></trkpt>
<trkpt lat="51.685460" lon="03.831432"><ele>4</ele><time>2021-01-07T12:35:30Z</time><cmt>4.1 kmh</cmt></trkpt>
<trkpt lat="51.685456" lon="03.831449"><ele>4</ele><time>2021-01-07T12:35:31Z</time><cmt>4.0 kmh</cmt></trkpt>
<trkpt lat="51.685451" lon="03.831466"><ele>4</ele><time>2021-01-07T12:35:32Z</time><cmt>5.0 kmh</cmt></trkpt>
<trkpt lat="51.685447" lon="03.831482"><ele>4</ele><time>2021-01-07T12:35:33Z</time><cmt>4.8 kmh</cmt></trkpt>
<trkpt lat="51.685443" lon="03.831497"><ele>4</ele><time>2021-01-07T12:35:34Z</time><cmt>4.5 kmh</cmt></trkpt>
<trkpt lat="51.685439" lon="03.831512"><ele>4</ele><time>2021-01-07T12:35:35Z</time><cmt>4.4 kmh</cmt></trkpt>
<trkpt lat="51.685435" lon="03.831529"><ele>4</ele><time>2021-01-07T12:35:36Z</time><cmt>4.6 kmh</cmt></trkpt>
<trkpt lat="51.685430" lon="03.831546"><ele>4</ele><time>2021-01-07T12:35:37Z</time><cmt>3.9 kmh</cmt></trkpt>
<trkpt lat="51.685425" lon="03.831564"><ele>4</ele><time>2021-01-07T12:35:38Z</time><cmt>4.1 kmh</cmt></trkpt>
<trkpt lat="51.685421" lon="03.831580"><ele>4</ele><time>2021-01-07T12:35:39Z</time><cmt>5.0 kmh</cmt></trkpt>
<trkpt lat="51.685416" lon="03.831595"><ele>3</ele><time>2021-01-07T12:35:40Z</time><cmt>4.5 kmh</cmt></trkpt>
<trkpt lat="51.685412" lon="03.831609"><ele>3</ele><time>2021-01-07T12:35:41Z</time><cmt>4.3 kmh</cmt></trkpt>
<trkpt lat="51.685407" lon="03.831623"><ele>3</ele><time>2021-01-07T12:35:42Z</time><cmt>4.2 kmh</cmt></trkpt>
<trkpt lat="51.685403" lon="03.831637"><ele>3</ele><time>2021-01-07T12:35:43Z</time><cmt>3.4 kmh</cmt></trkpt>
<trkpt lat="51.685398" lon="03.831653"><ele>3</ele><time>2021-01-07T12:35:44Z</time><cmt>3.6 kmh</cmt></trkpt>
<trkpt lat="51.685393" lon="03.831667"><ele>3</ele><time>2021-01-07T12:35:45Z</time><cmt>4.5 kmh</cmt></trkpt>
<trkpt lat="51.685391" lon="03.831677"><ele>3</ele><time>2021-01-07T12:35:46Z</time><cmt>3.4 kmh</cmt></trkpt>
<trkpt lat="51.685378" lon="03.831706"><ele>3</ele><time>2021-01-07T12:35:47Z</time><cmt>5.0 kmh</cmt></trkpt>
<trkpt lat="51.685372" lon="03.831720"><ele>3</ele><time>2021-01-07T12:35:48Z</time><cmt>5.0 kmh</cmt></trkpt>
<trkpt lat="51.685370" lon="03.831728"><ele>4</ele><time>2021-01-07T12:35:49Z</time><cmt>2.6 kmh</cmt></trkpt>
<trkpt lat="51.685369" lon="03.831733"><ele>4</ele><time>2021-01-07T12:35:50Z</time><cmt>1.5 kmh</cmt></trkpt>
<trkpt lat="51.685368" lon="03.831736"><ele>4</ele><time>2021-01-07T12:35:51Z</time><cmt>1.3 kmh</cmt></trkpt>
<trkpt lat="51.685368" lon="03.831740"><ele>4</ele><time>2021-01-07T12:35:52Z</time><cmt>1.0 kmh</cmt></trkpt>
<trkpt lat="51.685368" lon="03.831744"><ele>4</ele><time>2021-01-07T12:35:53Z</time><cmt>1.0 kmh</cmt></trkpt>
<trkpt lat="51.685369" lon="03.831747"><ele>4</ele><time>2021-01-07T12:35:54Z</time><cmt>0.9 kmh</cmt></trkpt>
<trkpt lat="51.685369" lon="03.831750"><ele>5</ele><time>2021-01-07T12:35:55Z</time><cmt>0.9 kmh</cmt></trkpt>
<trkpt lat="51.685368" lon="03.831754"><ele>5</ele><time>2021-01-07T12:35:56Z</time><cmt>0.7 kmh</cmt></trkpt>
<trkpt lat="51.685366" lon="03.831759"><ele>5</ele><time>2021-01-07T12:35:57Z</time><cmt>1.0 kmh</cmt></trkpt>
<trkpt lat="51.685362" lon="03.831767"><ele>5</ele><time>2021-01-07T12:35:58Z</time><cmt>2.2 kmh</cmt></trkpt>
<trkpt lat="51.685358" lon="03.831780"><ele>5</ele><time>2021-01-07T12:35:59Z</time><cmt>3.3 kmh</cmt></trkpt>
<trkpt lat="51.685352" lon="03.831796"><ele>5</ele><time>2021-01-07T12:36:00Z</time><cmt>4.4 kmh</cmt></trkpt>
<trkpt lat="51.685347" lon="03.831812"><ele>5</ele><time>2021-01-07T12:36:01Z</time><cmt>4.8 kmh</cmt></trkpt>
<trkpt lat="51.685342" lon="03.831826"><ele>5</ele><time>2021-01-07T12:36:02Z</time><cmt>3.7 kmh</cmt></trkpt>
<trkpt lat="51.685337" lon="03.831841"><ele>5</ele><time>2021-01-07T12:36:03Z</time><cmt>3.6 kmh</cmt></trkpt>
<trkpt lat="51.685333" lon="03.831856"><ele>5</ele><time>2021-01-07T12:36:04Z</time><cmt>4.4 kmh</cmt></trkpt>
<trkpt lat="51.685329" lon="03.831870"><ele>5</ele><time>2021-01-07T12:36:05Z</time><cmt>4.3 kmh</cmt></trkpt>
<trkpt lat="51.685324" lon="03.831883"><ele>5</ele><time>2021-01-07T12:36:06Z</time><cmt>4.1 kmh</cmt></trkpt>
<trkpt lat="51.685319" lon="03.831897"><ele>5</ele><time>2021-01-07T12:36:07Z</time><cmt>4.1 kmh</cmt></trkpt>
<trkpt lat="51.685314" lon="03.831910"><ele>5</ele><time>2021-01-07T12:36:08Z</time><cmt>3.4 kmh</cmt></trkpt>
<trkpt lat="51.685311" lon="03.831920"><ele>5</ele><time>2021-01-07T12:36:09Z</time><cmt>2.8 kmh</cmt></trkpt>
<trkpt lat="51.685308" lon="03.831928"><ele>5</ele><time>2021-01-07T12:36:10Z</time><cmt>2.6 kmh</cmt></trkpt>
<trkpt lat="51.685306" lon="03.831933"><ele>5</ele><time>2021-01-07T12:36:11Z</time><cmt>2.0 kmh</cmt></trkpt>
<trkpt lat="51.685306" lon="03.831936"><ele>5</ele><time>2021-01-07T12:36:12Z</time><cmt>1.3 kmh</cmt></trkpt>
<trkpt lat="51.685305" lon="03.831942"><ele>5</ele><time>2021-01-07T12:36:13Z</time><cmt>1.3 kmh</cmt></trkpt>
<trkpt lat="51.685303" lon="03.831952"><ele>5</ele><time>2021-01-07T12:36:14Z</time><cmt>2.1 kmh</cmt></trkpt>
<trkpt lat="51.685298" lon="03.831963"><ele>5</ele><time>2021-01-07T12:36:15Z</time><cmt>2.5 kmh</cmt></trkpt>
<trkpt lat="51.685293" lon="03.831975"><ele>5</ele><time>2021-01-07T12:36:16Z</time><cmt>3.1 kmh</cmt></trkpt>
<trkpt lat="51.685288" lon="03.831990"><ele>5</ele><time>2021-01-07T12:36:17Z</time><cmt>4.2 kmh</cmt></trkpt>
<trkpt lat="51.685282" lon="03.832005"><ele>5</ele><time>2021-01-07T12:36:18Z</time><cmt>4.6 kmh</cmt></trkpt>
<trkpt lat="51.685277" lon="03.832019"><ele>5</ele><time>2021-01-07T12:36:19Z</time><cmt>4.6 kmh</cmt></trkpt>
<trkpt lat="51.685272" lon="03.832034"><ele>5</ele><time>2021-01-07T12:36:20Z</time><cmt>4.4 kmh</cmt></trkpt>
<trkpt lat="51.685268" lon="03.832050"><ele>5</ele><time>2021-01-07T12:36:21Z</time><cmt>3.7 kmh</cmt></trkpt>
<trkpt lat="51.685264" lon="03.832068"><ele>5</ele><time>2021-01-07T12:36:22Z</time><cmt>3.8 kmh</cmt></trkpt>
<trkpt lat="51.685261" lon="03.832085"><ele>5</ele><time>2021-01-07T12:36:23Z</time><cmt>4.9 kmh</cmt></trkpt>
<trkpt lat="51.685257" lon="03.832101"><ele>5</ele><time>2021-01-07T12:36:24Z</time><cmt>4.7 kmh</cmt></trkpt>
<trkpt lat="51.685253" lon="03.832117"><ele>5</ele><time>2021-01-07T12:36:25Z</time><cmt>4.6 kmh</cmt></trkpt>
<trkpt lat="51.685248" lon="03.832134"><ele>5</ele><time>2021-01-07T12:36:26Z</time><cmt>4.8 kmh</cmt></trkpt>
<trkpt lat="51.685243" lon="03.832151"><ele>5</ele><time>2021-01-07T12:36:27Z</time><cmt>4.0 kmh</cmt></trkpt>
<trkpt lat="51.685239" lon="03.832168"><ele>5</ele><time>2021-01-07T12:36:28Z</time><cmt>4.0 kmh</cmt></trkpt>
<trkpt lat="51.685234" lon="03.832184"><ele>5</ele><time>2021-01-07T12:36:29Z</time><cmt>4.7 kmh</cmt></trkpt>
<trkpt lat="51.685230" lon="03.832198"><ele>5</ele><time>2021-01-07T12:36:30Z</time><cmt>4.4 kmh</cmt></trkpt>
<trkpt lat="51.685225" lon="03.832213"><ele>5</ele><time>2021-01-07T12:36:31Z</time><cmt>4.4 kmh</cmt></trkpt>
<trkpt lat="51.685221" lon="03.832228"><ele>5</ele><time>2021-01-07T12:36:32Z</time><cmt>4.4 kmh</cmt></trkpt>
<trkpt lat="51.685217" lon="03.832244"><ele>5</ele><time>2021-01-07T12:36:33Z</time><cmt>4.5 kmh</cmt></trkpt>
<trkpt lat="51.685213" lon="03.832260"><ele>5</ele><time>2021-01-07T12:36:34Z</time><cmt>3.6 kmh</cmt></trkpt>
<trkpt lat="51.685209" lon="03.832275"><ele>5</ele><time>2021-01-07T12:36:35Z</time><cmt>3.5 kmh</cmt></trkpt>
<trkpt lat="51.685204" lon="03.832290"><ele>5</ele><time>2021-01-07T12:36:36Z</time><cmt>4.5 kmh</cmt></trkpt>
<trkpt lat="51.685199" lon="03.832306"><ele>5</ele><time>2021-01-07T12:36:37Z</time><cmt>4.6 kmh</cmt></trkpt>
<trkpt lat="51.685194" lon="03.832321"><ele>5</ele><time>2021-01-07T12:36:38Z</time><cmt>4.6 kmh</cmt></trkpt>
<trkpt lat="51.685190" lon="03.832336"><ele>5</ele><time>2021-01-07T12:36:39Z</time><cmt>4.5 kmh</cmt></trkpt>
<trkpt lat="51.685186" lon="03.832350"><ele>5</ele><time>2021-01-07T12:36:40Z</time><cmt>3.5 kmh</cmt></trkpt>
<trkpt lat="51.685181" lon="03.832364"><ele>5</ele><time>2021-01-07T12:36:41Z</time><cmt>3.4 kmh</cmt></trkpt>
<trkpt lat="51.685176" lon="03.832379"><ele>5</ele><time>2021-01-07T12:36:42Z</time><cmt>4.4 kmh</cmt></trkpt>
<trkpt lat="51.685171" lon="03.832394"><ele>4</ele><time>2021-01-07T12:36:43Z</time><cmt>4.6 kmh</cmt></trkpt>
<trkpt lat="51.685164" lon="03.832410"><ele>4</ele><time>2021-01-07T12:36:44Z</time><cmt>4.9 kmh</cmt></trkpt>
<trkpt lat="51.685159" lon="03.832426"><ele>4</ele><time>2021-01-07T12:36:45Z</time><cmt>5.0 kmh</cmt></trkpt>
<trkpt lat="51.685154" lon="03.832443"><ele>4</ele><time>2021-01-07T12:36:46Z</time><cmt>4.9 kmh</cmt></trkpt>
<trkpt lat="51.685150" lon="03.832460"><ele>4</ele><time>2021-01-07T12:36:47Z</time><cmt>3.9 kmh</cmt></trkpt>
<trkpt lat="51.685146" lon="03.832476"><ele>4</ele><time>2021-01-07T12:36:48Z</time><cmt>3.8 kmh</cmt></trkpt>
<trkpt lat="51.685142" lon="03.832493"><ele>4</ele><time>2021-01-07T12:36:49Z</time><cmt>4.8 kmh</cmt></trkpt>
<trkpt lat="51.685138" lon="03.832510"><ele>4</ele><time>2021-01-07T12:36:50Z</time><cmt>4.7 kmh</cmt></trkpt>
<trkpt lat="51.685135" lon="03.832524"><ele>4</ele><time>2021-01-07T12:36:51Z</time><cmt>4.4 kmh</cmt></trkpt>
<trkpt lat="51.685132" lon="03.832537"><ele>4</ele><time>2021-01-07T12:36:52Z</time><cmt>4.0 kmh</cmt></trkpt>
<trkpt lat="51.685127" lon="03.832551"><ele>4</ele><time>2021-01-07T12:36:53Z</time><cmt>3.1 kmh</cmt></trkpt>
<trkpt lat="51.685123" lon="03.832565"><ele>4</ele><time>2021-01-07T12:36:54Z</time><cmt>3.3 kmh</cmt></trkpt>
<trkpt lat="51.685118" lon="03.832580"><ele>4</ele><time>2021-01-07T12:36:55Z</time><cmt>4.4 kmh</cmt></trkpt>
<trkpt lat="51.685113" lon="03.832595"><ele>4</ele><time>2021-01-07T12:36:56Z</time><cmt>4.5 kmh</cmt></trkpt>
<trkpt lat="51.685108" lon="03.832611"><ele>4</ele><time>2021-01-07T12:36:57Z</time><cmt>4.6 kmh</cmt></trkpt>
<trkpt lat="51.685105" lon="03.832625"><ele>4</ele><time>2021-01-07T12:36:58Z</time><cmt>4.4 kmh</cmt></trkpt>
<trkpt lat="51.685101" lon="03.832641"><ele>4</ele><time>2021-01-07T12:36:59Z</time><cmt>3.5 kmh</cmt></trkpt>
<trkpt lat="51.685097" lon="03.832658"><ele>4</ele><time>2021-01-07T12:37:00Z</time><cmt>3.8 kmh</cmt></trkpt>
<trkpt lat="51.685092" lon="03.832675"><ele>4</ele><time>2021-01-07T12:37:01Z</time><cmt>4.9 kmh</cmt></trkpt>
<trkpt lat="51.685088" lon="03.832691"><ele>4</ele><time>2021-01-07T12:37:02Z</time><cmt>4.8 kmh</cmt></trkpt>
<trkpt lat="51.685084" lon="03.832707"><ele>4</ele><time>2021-01-07T12:37:03Z</time><cmt>4.7 kmh</cmt></trkpt>
<trkpt lat="51.685081" lon="03.832723"><ele>4</ele><time>2021-01-07T12:37:04Z</time><cmt>4.5 kmh</cmt></trkpt>
<trkpt lat="51.685077" lon="03.832739"><ele>4</ele><time>2021-01-07T12:37:05Z</time><cmt>4.6 kmh</cmt></trkpt>
<trkpt lat="51.685072" lon="03.832756"><ele>4</ele><time>2021-01-07T12:37:06Z</time><cmt>3.8 kmh</cmt></trkpt>
<trkpt lat="51.685068" lon="03.832773"><ele>4</ele><time>2021-01-07T12:37:07Z</time><cmt>3.9 kmh</cmt></trkpt>
<trkpt lat="51.685063" lon="03.832790"><ele>4</ele><time>2021-01-07T12:37:08Z</time><cmt>5.0 kmh</cmt></trkpt>
<trkpt lat="51.685057" lon="03.832807"><ele>4</ele><time>2021-01-07T12:37:09Z</time><cmt>5.0 kmh</cmt></trkpt>
<trkpt lat="51.685052" lon="03.832823"><ele>4</ele><time>2021-01-07T12:37:10Z</time><cmt>4.9 kmh</cmt></trkpt>
<trkpt lat="51.685047" lon="03.832838"><ele>4</ele><time>2021-01-07T12:37:11Z</time><cmt>4.7 kmh</cmt></trkpt>
<trkpt lat="51.685042" lon="03.832854"><ele>4</ele><time>2021-01-07T12:37:12Z</time><cmt>3.8 kmh</cmt></trkpt>
<trkpt lat="51.685037" lon="03.832870"><ele>4</ele><time>2021-01-07T12:37:13Z</time><cmt>3.8 kmh</cmt></trkpt>
<trkpt lat="51.685032" lon="03.832885"><ele>4</ele><time>2021-01-07T12:37:14Z</time><cmt>4.7 kmh</cmt></trkpt>
<trkpt lat="51.685028" lon="03.832901"><ele>4</ele><time>2021-01-07T12:37:15Z</time><cmt>4.6 kmh</cmt></trkpt>
<trkpt lat="51.685024" lon="03.832918"><ele>4</ele><time>2021-01-07T12:37:16Z</time><cmt>4.7 kmh</cmt></trkpt>
<trkpt lat="51.685019" lon="03.832935"><ele>4</ele><time>2021-01-07T12:37:17Z</time><cmt>4.9 kmh</cmt></trkpt>
<trkpt lat="51.685015" lon="03.832951"><ele>4</ele><time>2021-01-07T12:37:18Z</time><cmt>3.8 kmh</cmt></trkpt>
<trkpt lat="51.685010" lon="03.832966"><ele>4</ele><time>2021-01-07T12:37:19Z</time><cmt>3.7 kmh</cmt></trkpt>
<trkpt lat="51.685006" lon="03.832981"><ele>3</ele><time>2021-01-07T12:37:20Z</time><cmt>4.5 kmh</cmt></trkpt>
<trkpt lat="51.685002" lon="03.832997"><ele>3</ele><time>2021-01-07T12:37:21Z</time><cmt>4.5 kmh</cmt></trkpt>
<trkpt lat="51.684998" lon="03.833012"><ele>3</ele><time>2021-01-07T12:37:22Z</time><cmt>4.4 kmh</cmt></trkpt>
<trkpt lat="51.684995" lon="03.833028"><ele>3</ele><time>2021-01-07T12:37:23Z</time><cmt>4.4 kmh</cmt></trkpt>
<trkpt lat="51.684991" lon="03.833043"><ele>3</ele><time>2021-01-07T12:37:24Z</time><cmt>4.3 kmh</cmt></trkpt>
<trkpt lat="51.684987" lon="03.833057"><ele>3</ele><time>2021-01-07T12:37:25Z</time><cmt>3.4 kmh</cmt></trkpt>
<trkpt lat="51.684984" lon="03.833072"><ele>3</ele><time>2021-01-07T12:37:26Z</time><cmt>3.3 kmh</cmt></trkpt>
<trkpt lat="51.684979" lon="03.833087"><ele>3</ele><time>2021-01-07T12:37:27Z</time><cmt>4.3 kmh</cmt></trkpt>
<trkpt lat="51.684975" lon="03.833102"><ele>3</ele><time>2021-01-07T12:37:28Z</time><cmt>4.4 kmh</cmt></trkpt>
<trkpt lat="51.684971" lon="03.833116"><ele>3</ele><time>2021-01-07T12:37:29Z</time><cmt>4.3 kmh</cmt></trkpt>
<trkpt lat="51.684968" lon="03.833131"><ele>3</ele><time>2021-01-07T12:37:30Z</time><cmt>4.2 kmh</cmt></trkpt>
<trkpt lat="51.684964" lon="03.833146"><ele>3</ele><time>2021-01-07T12:37:31Z</time><cmt>3.5 kmh</cmt></trkpt>
<trkpt lat="51.684959" lon="03.833162"><ele>3</ele><time>2021-01-07T12:37:32Z</time><cmt>3.7 kmh</cmt></trkpt>
<trkpt lat="51.684955" lon="03.833178"><ele>3</ele><time>2021-01-07T12:37:33Z</time><cmt>4.7 kmh</cmt></trkpt>
<trkpt lat="51.684950" lon="03.833194"><ele>3</ele><time>2021-01-07T12:37:34Z</time><cmt>4.8 kmh</cmt></trkpt>
<trkpt lat="51.684945" lon="03.833210"><ele>2</ele><time>2021-01-07T12:37:35Z</time><cmt>4.8 kmh</cmt></trkpt>
<trkpt lat="51.684941" lon="03.833226"><ele>2</ele><time>2021-01-07T12:37:36Z</time><cmt>4.6 kmh</cmt></trkpt>
<trkpt lat="51.684937" lon="03.833240"><ele>2</ele><time>2021-01-07T12:37:37Z</time><cmt>3.5 kmh</cmt></trkpt>
<trkpt lat="51.684933" lon="03.833254"><ele>2</ele><time>2021-01-07T12:37:38Z</time><cmt>3.3 kmh</cmt></trkpt>
<trkpt lat="51.684929" lon="03.833268"><ele>2</ele><time>2021-01-07T12:37:39Z</time><cmt>4.1 kmh</cmt></trkpt>
<trkpt lat="51.684925" lon="03.833283"><ele>2</ele><time>2021-01-07T12:37:40Z</time><cmt>4.2 kmh</cmt></trkpt>
<trkpt lat="51.684921" lon="03.833297"><ele>2</ele><time>2021-01-07T12:37:41Z</time><cmt>4.2 kmh</cmt></trkpt>
<trkpt lat="51.684917" lon="03.833313"><ele>2</ele><time>2021-01-07T12:37:42Z</time><cmt>4.4 kmh</cmt></trkpt>
<trkpt lat="51.684913" lon="03.833329"><ele>2</ele><time>2021-01-07T12:37:43Z</time><cmt>4.6 kmh</cmt></trkpt>
<trkpt lat="51.684909" lon="03.833346"><ele>2</ele><time>2021-01-07T12:37:44Z</time><cmt>3.8 kmh</cmt></trkpt>
<trkpt lat="51.684905" lon="03.833363"><ele>2</ele><time>2021-01-07T12:37:45Z</time><cmt>3.9 kmh</cmt></trkpt>
<trkpt lat="51.684900" lon="03.833379"><ele>2</ele><time>2021-01-07T12:37:46Z</time><cmt>4.8 kmh</cmt></trkpt>
<trkpt lat="51.684895" lon="03.833395"><ele>2</ele><time>2021-01-07T12:37:47Z</time><cmt>4.7 kmh</cmt></trkpt>
<trkpt lat="51.684890" lon="03.833410"><ele>2</ele><time>2021-01-07T12:37:48Z</time><cmt>4.6 kmh</cmt></trkpt>
<trkpt lat="51.684885" lon="03.833426"><ele>2</ele><time>2021-01-07T12:37:49Z</time><cmt>4.7 kmh</cmt></trkpt>
<trkpt lat="51.684881" lon="03.833442"><ele>2</ele><time>2021-01-07T12:37:50Z</time><cmt>3.8 kmh</cmt></trkpt>
<trkpt lat="51.684877" lon="03.833458"><ele>2</ele><time>2021-01-07T12:37:51Z</time><cmt>3.7 kmh</cmt></trkpt>
<trkpt lat="51.684873" lon="03.833474"><ele>2</ele><time>2021-01-07T12:37:52Z</time><cmt>4.6 kmh</cmt></trkpt>
<trkpt lat="51.684869" lon="03.833490"><ele>2</ele><time>2021-01-07T12:37:53Z</time><cmt>4.6 kmh</cmt></trkpt>
<trkpt lat="51.684865" lon="03.833506"><ele>2</ele><time>2021-01-07T12:37:54Z</time><cmt>4.6 kmh</cmt></trkpt>
<trkpt lat="51.684861" lon="03.833521"><ele>2</ele><time>2021-01-07T12:37:55Z</time><cmt>4.5 kmh</cmt></trkpt>
<trkpt lat="51.684857" lon="03.833536"><ele>2</ele><time>2021-01-07T12:37:56Z</time><cmt>3.6 kmh</cmt></trkpt>
<trkpt lat="51.684853" lon="03.833551"><ele>2</ele><time>2021-01-07T12:37:57Z</time><cmt>3.5 kmh</cmt></trkpt>
<trkpt lat="51.684848" lon="03.833566"><ele>2</ele><time>2021-01-07T12:37:58Z</time><cmt>4.3 kmh</cmt></trkpt>
<trkpt lat="51.684845" lon="03.833580"><ele>2</ele><time>2021-01-07T12:37:59Z</time><cmt>4.2 kmh</cmt></trkpt>
<trkpt lat="51.684841" lon="03.833594"><ele>2</ele><time>2021-01-07T12:38:00Z</time><cmt>4.2 kmh</cmt></trkpt>
<trkpt lat="51.684837" lon="03.833609"><ele>2</ele><time>2021-01-07T12:38:01Z</time><cmt>4.2 kmh</cmt></trkpt>
<trkpt lat="51.684833" lon="03.833625"><ele>2</ele><time>2021-01-07T12:38:02Z</time><cmt>4.4 kmh</cmt></trkpt>
<trkpt lat="51.684829" lon="03.833640"><ele>2</ele><time>2021-01-07T12:38:03Z</time><cmt>3.6 kmh</cmt></trkpt>
<trkpt lat="51.684826" lon="03.833656"><ele>2</ele><time>2021-01-07T12:38:04Z</time><cmt>3.6 kmh</cmt></trkpt>
<trkpt lat="51.684821" lon="03.833672"><ele>2</ele><time>2021-01-07T12:38:05Z</time><cmt>4.6 kmh</cmt></trkpt>
<trkpt lat="51.684817" lon="03.833687"><ele>2</ele><time>2021-01-07T12:38:06Z</time><cmt>4.5 kmh</cmt></trkpt>
<trkpt lat="51.684813" lon="03.833702"><ele>2</ele><time>2021-01-07T12:38:07Z</time><cmt>4.4 kmh</cmt></trkpt>
<trkpt lat="51.684809" lon="03.833718"><ele>2</ele><time>2021-01-07T12:38:08Z</time><cmt>4.5 kmh</cmt></trkpt>
<trkpt lat="51.684804" lon="03.833733"><ele>2</ele><time>2021-01-07T12:38:09Z</time><cmt>3.6 kmh</cmt></trkpt>
<trkpt lat="51.684800" lon="03.833747"><ele>2</ele><time>2021-01-07T12:38:10Z</time><cmt>3.4 kmh</cmt></trkpt>
<trkpt lat="51.684795" lon="03.833761"><ele>1</ele><time>2021-01-07T12:38:11Z</time><cmt>4.3 kmh</cmt></trkpt>
<trkpt lat="51.684791" lon="03.833776"><ele>1</ele><time>2021-01-07T12:38:12Z</time><cmt>4.4 kmh</cmt></trkpt>
<trkpt lat="51.684787" lon="03.833791"><ele>1</ele><time>2021-01-07T12:38:13Z</time><cmt>4.3 kmh</cmt></trkpt>
<trkpt lat="51.684784" lon="03.833806"><ele>1</ele><time>2021-01-07T12:38:14Z</time><cmt>4.3 kmh</cmt></trkpt>
<trkpt lat="51.684780" lon="03.833822"><ele>1</ele><time>2021-01-07T12:38:15Z</time><cmt>4.4 kmh</cmt></trkpt>
<trkpt lat="51.684776" lon="03.833837"><ele>1</ele><time>2021-01-07T12:38:16Z</time><cmt>3.6 kmh</cmt></trkpt>
<trkpt lat="51.684772" lon="03.833853"><ele>1</ele><time>2021-01-07T12:38:17Z</time><cmt>3.6 kmh</cmt></trkpt>
<trkpt lat="51.684768" lon="03.833869"><ele>1</ele><time>2021-01-07T12:38:18Z</time><cmt>4.6 kmh</cmt></trkpt>
<trkpt lat="51.684764" lon="03.833885"><ele>1</ele><time>2021-01-07T12:38:19Z</time><cmt>4.6 kmh</cmt></trkpt>
<trkpt lat="51.684760" lon="03.833900"><ele>1</ele><time>2021-01-07T12:38:20Z</time><cmt>4.5 kmh</cmt></trkpt>
<trkpt lat="51.684755" lon="03.833915"><ele>1</ele><time>2021-01-07T12:38:21Z</time><cmt>4.5 kmh</cmt></trkpt>
<trkpt lat="51.684751" lon="03.833931"><ele>1</ele><time>2021-01-07T12:38:22Z</time><cmt>3.7 kmh</cmt></trkpt>
<trkpt lat="51.684746" lon="03.833948"><ele>1</ele><time>2021-01-07T12:38:23Z</time><cmt>3.8 kmh</cmt></trkpt>
<trkpt lat="51.684741" lon="03.833964"><ele>1</ele><time>2021-01-07T12:38:24Z</time><cmt>4.8 kmh</cmt></trkpt>
<trkpt lat="51.684736" lon="03.833980"><ele>1</ele><time>2021-01-07T12:38:25Z</time><cmt>4.8 kmh</cmt></trkpt>
<trkpt lat="51.684732" lon="03.833996"><ele>1</ele><time>2021-01-07T12:38:26Z</time><cmt>4.8 kmh</cmt></trkpt>
<trkpt lat="51.684728" lon="03.834012"><ele>1</ele><time>2021-01-07T12:38:27Z</time><cmt>4.7 kmh</cmt></trkpt>
<trkpt lat="51.684724" lon="03.834028"><ele>1</ele><time>2021-01-07T12:38:28Z</time><cmt>3.7 kmh</cmt></trkpt>
<trkpt lat="51.684719" lon="03.834044"><ele>1</ele><time>2021-01-07T12:38:29Z</time><cmt>3.8 kmh</cmt></trkpt>
<trkpt lat="51.684713" lon="03.834060"><ele>1</ele><time>2021-01-07T12:38:30Z</time><cmt>4.9 kmh</cmt></trkpt>
<trkpt lat="51.684708" lon="03.834077"><ele>1</ele><time>2021-01-07T12:38:31Z</time><cmt>4.9 kmh</cmt></trkpt>
<trkpt lat="51.684703" lon="03.834094"><ele>1</ele><time>2021-01-07T12:38:32Z</time><cmt>5.0 kmh</cmt></trkpt>
<trkpt lat="51.684699" lon="03.834112"><ele>1</ele><time>2021-01-07T12:38:33Z</time><cmt>5.0 kmh</cmt></trkpt>
<trkpt lat="51.684695" lon="03.834129"><ele>1</ele><time>2021-01-07T12:38:34Z</time><cmt>5.0 kmh</cmt></trkpt>
<trkpt lat="51.684691" lon="03.834145"><ele>1</ele><time>2021-01-07T12:38:35Z</time><cmt>3.9 kmh</cmt></trkpt>
<trkpt lat="51.684687" lon="03.834160"><ele>1</ele><time>2021-01-07T12:38:36Z</time><cmt>3.7 kmh</cmt></trkpt>
<trkpt lat="51.684683" lon="03.834174"><ele>0</ele><time>2021-01-07T12:38:37Z</time><cmt>4.3 kmh</cmt></trkpt>
<trkpt lat="51.684678" lon="03.834188"><ele>0</ele><time>2021-01-07T12:38:38Z</time><cmt>4.2 kmh</cmt></trkpt>
<trkpt lat="51.684674" lon="03.834203"><ele>0</ele><time>2021-01-07T12:38:39Z</time><cmt>4.2 kmh</cmt></trkpt>
<trkpt lat="51.684670" lon="03.834218"><ele>0</ele><time>2021-01-07T12:38:40Z</time><cmt>4.3 kmh</cmt></trkpt>
<trkpt lat="51.684666" lon="03.834234"><ele>0</ele><time>2021-01-07T12:38:41Z</time><cmt>3.6 kmh</cmt></trkpt>
<trkpt lat="51.684662" lon="03.834249"><ele>0</ele><time>2021-01-07T12:38:42Z</time><cmt>3.6 kmh</cmt></trkpt>
<trkpt lat="51.684657" lon="03.834265"><ele>0</ele><time>2021-01-07T12:38:43Z</time><cmt>4.6 kmh</cmt></trkpt>
<trkpt lat="51.684652" lon="03.834281"><ele>0</ele><time>2021-01-07T12:38:44Z</time><cmt>4.7 kmh</cmt></trkpt>
<trkpt lat="51.684648" lon="03.834296"><ele>0</ele><time>2021-01-07T12:38:45Z</time><cmt>4.6 kmh</cmt></trkpt>
<trkpt lat="51.684644" lon="03.834312"><ele>0</ele><time>2021-01-07T12:38:46Z</time><cmt>4.6 kmh</cmt></trkpt>
<trkpt lat="51.684639" lon="03.834329"><ele>0</ele><time>2021-01-07T12:38:47Z</time><cmt>3.8 kmh</cmt></trkpt>
<trkpt lat="51.684634" lon="03.834346"><ele>0</ele><time>2021-01-07T12:38:48Z</time><cmt>3.9 kmh</cmt></trkpt>
<trkpt lat="51.684628" lon="03.834362"><ele>0</ele><time>2021-01-07T12:38:49Z</time><cmt>5.0 kmh</cmt></trkpt>
<trkpt lat="51.684622" lon="03.834379"><ele>0</ele><time>2021-01-07T12:38:50Z</time><cmt>5.0 kmh</cmt></trkpt>
<trkpt lat="51.684617" lon="03.834394"><ele>0</ele><time>2021-01-07T12:38:51Z</time><cmt>5.0 kmh</cmt></trkpt>
<trkpt lat="51.684611" lon="03.834409"><ele>0</ele><time>2021-01-07T12:38:52Z</time><cmt>4.8 kmh</cmt></trkpt>
<trkpt lat="51.684605" lon="03.834423"><ele>0</ele><time>2021-01-07T12:38:53Z</time><cmt>4.6 kmh</cmt></trkpt>
<trkpt lat="51.684600" lon="03.834437"><ele>0</ele><time>2021-01-07T12:38:54Z</time><cmt>3.5 kmh</cmt></trkpt>
<trkpt lat="51.684596" lon="03.834451"><ele>0</ele><time>2021-01-07T12:38:55Z</time><cmt>3.4 kmh</cmt></trkpt>
<trkpt lat="51.684592" lon="03.834466"><ele>0</ele><time>2021-01-07T12:38:56Z</time><cmt>4.2 kmh</cmt></trkpt>
<trkpt lat="51.684590" lon="03.834482"><ele>0</ele><time>2021-01-07T12:38:57Z</time><cmt>4.3 kmh</cmt></trkpt>
<trkpt lat="51.684586" lon="03.834498"><ele>0</ele><time>2021-01-07T12:38:58Z</time><cmt>4.4 kmh</cmt></trkpt>
<trkpt lat="51.684582" lon="03.834515"><ele>0</ele><time>2021-01-07T12:38:59Z</time><cmt>4.7 kmh</cmt></trkpt>
<trkpt lat="51.684578" lon="03.834531"><ele>0</ele><time>2021-01-07T12:39:00Z</time><cmt>3.9 kmh</cmt></trkpt>
<trkpt lat="51.684575" lon="03.834547"><ele>0</ele><time>2021-01-07T12:39:01Z</time><cmt>3.7 kmh</cmt></trkpt>
<trkpt lat="51.684571" lon="03.834562"><ele>0</ele><time>2021-01-07T12:39:02Z</time><cmt>4.4 kmh</cmt></trkpt>
<trkpt lat="51.684567" lon="03.834578"><ele>0</ele><time>2021-01-07T12:39:03Z</time><cmt>4.5 kmh</cmt></trkpt>
<trkpt lat="51.684562" lon="03.834593"><ele>0</ele><time>2021-01-07T12:39:04Z</time><cmt>4.5 kmh</cmt></trkpt>
<trkpt lat="51.684558" lon="03.834607"><ele>0</ele><time>2021-01-07T12:39:05Z</time><cmt>4.3 kmh</cmt></trkpt>
<trkpt lat="51.684553" lon="03.834621"><ele>0</ele><time>2021-01-07T12:39:06Z</time><cmt>3.4 kmh</cmt></trkpt>
<trkpt lat="51.684549" lon="03.834636"><ele>0</ele><time>2021-01-07T12:39:07Z</time><cmt>3.4 kmh</cmt></trkpt>
<trkpt lat="51.684545" lon="03.834651"><ele>0</ele><time>2021-01-07T12:39:08Z</time><cmt>4.4 kmh</cmt></trkpt>
<trkpt lat="51.684541" lon="03.834666"><ele>0</ele><time>2021-01-07T12:39:09Z</time><cmt>4.4 kmh</cmt></trkpt>
<trkpt lat="51.684537" lon="03.834681"><ele>0</ele><time>2021-01-07T12:39:10Z</time><cmt>4.3 kmh</cmt></trkpt>
<trkpt lat="51.684534" lon="03.834696"><ele>0</ele><time>2021-01-07T12:39:11Z</time><cmt>4.3 kmh</cmt></trkpt>
<trkpt lat="51.684532" lon="03.834711"><ele>0</ele><time>2021-01-07T12:39:12Z</time><cmt>4.2 kmh</cmt></trkpt>
<trkpt lat="51.684528" lon="03.834726"><ele>0</ele><time>2021-01-07T12:39:13Z</time><cmt>3.4 kmh</cmt></trkpt>
<trkpt lat="51.684524" lon="03.834740"><ele>0</ele><time>2021-01-07T12:39:14Z</time><cmt>3.4 kmh</cmt></trkpt>
<trkpt lat="51.684519" lon="03.834756"><ele>0</ele><time>2021-01-07T12:39:15Z</time><cmt>4.6 kmh</cmt></trkpt>
<trkpt lat="51.684513" lon="03.834773"><ele>0</ele><time>2021-01-07T12:39:16Z</time><cmt>4.9 kmh</cmt></trkpt>
<trkpt lat="51.684507" lon="03.834789"><ele>0</ele><time>2021-01-07T12:39:17Z</time><cmt>5.0 kmh</cmt></trkpt>
<trkpt lat="51.684500" lon="03.834804"><ele>0</ele><time>2021-01-07T12:39:18Z</time><cmt>5.0 kmh</cmt></trkpt>
<trkpt lat="51.684495" lon="03.834819"><ele>0</ele><time>2021-01-07T12:39:19Z</time><cmt>3.8 kmh</cmt></trkpt>
<trkpt lat="51.684490" lon="03.834835"><ele>0</ele><time>2021-01-07T12:39:20Z</time><cmt>3.7 kmh</cmt></trkpt>
<trkpt lat="51.684487" lon="03.834852"><ele>0</ele><time>2021-01-07T12:39:21Z</time><cmt>4.7 kmh</cmt></trkpt>
<trkpt lat="51.684483" lon="03.834870"><ele>0</ele><time>2021-01-07T12:39:22Z</time><cmt>5.0 kmh</cmt></trkpt>
<trkpt lat="51.684479" lon="03.834888"><ele>0</ele><time>2021-01-07T12:39:23Z</time><cmt>5.0 kmh</cmt></trkpt>
<trkpt lat="51.684474" lon="03.834905"><ele>0</ele><time>2021-01-07T12:39:24Z</time><cmt>5.0 kmh</cmt></trkpt>
<trkpt lat="51.684468" lon="03.834921"><ele>0</ele><time>2021-01-07T12:39:25Z</time><cmt>3.9 kmh</cmt></trkpt>
<trkpt lat="51.684463" lon="03.834936"><ele>0</ele><time>2021-01-07T12:39:26Z</time><cmt>3.9 kmh</cmt></trkpt>
<trkpt lat="51.684457" lon="03.834951"><ele>0</ele><time>2021-01-07T12:39:27Z</time><cmt>4.8 kmh</cmt></trkpt>
<trkpt lat="51.684451" lon="03.834967"><ele>0</ele><time>2021-01-07T12:39:28Z</time><cmt>4.8 kmh</cmt></trkpt>
<trkpt lat="51.684447" lon="03.834982"><ele>0</ele><time>2021-01-07T12:39:29Z</time><cmt>4.7 kmh</cmt></trkpt>
<trkpt lat="51.684443" lon="03.834998"><ele>0</ele><time>2021-01-07T12:39:30Z</time><cmt>4.5 kmh</cmt></trkpt>
<trkpt lat="51.684440" lon="03.835015"><ele>0</ele><time>2021-01-07T12:39:31Z</time><cmt>4.6 kmh</cmt></trkpt>
<trkpt lat="51.684437" lon="03.835033"><ele>0</ele><time>2021-01-07T12:39:32Z</time><cmt>3.9 kmh</cmt></trkpt>
<trkpt lat="51.684433" lon="03.835051"><ele>0</ele><time>2021-01-07T12:39:33Z</time><cmt>4.1 kmh</cmt></trkpt>
<trkpt lat="51.684428" lon="03.835069"><ele>0</ele><time>2021-01-07T12:39:34Z</time><cmt>5.0 kmh</cmt></trkpt>
<trkpt lat="51.684423" lon="03.835084"><ele>0</ele><time>2021-01-07T12:39:35Z</time><cmt>4.9 kmh</cmt></trkpt>
<trkpt lat="51.684418" lon="03.835100"><ele>0</ele><time>2021-01-07T12:39:36Z</time><cmt>4.7 kmh</cmt></trkpt>
<trkpt lat="51.684412" lon="03.835116"><ele>0</ele><time>2021-01-07T12:39:37Z</time><cmt>4.9 kmh</cmt></trkpt>
<trkpt lat="51.684405" lon="03.835132"><ele>0</ele><time>2021-01-07T12:39:38Z</time><cmt>4.1 kmh</cmt></trkpt>
<trkpt lat="51.684400" lon="03.835149"><ele>0</ele><time>2021-01-07T12:39:39Z</time><cmt>4.1 kmh</cmt></trkpt>
<trkpt lat="51.684395" lon="03.835166"><ele>0</ele><time>2021-01-07T12:39:40Z</time><cmt>4.9 kmh</cmt></trkpt>
<trkpt lat="51.684391" lon="03.835183"><ele>0</ele><time>2021-01-07T12:39:41Z</time><cmt>4.9 kmh</cmt></trkpt>
<trkpt lat="51.684387" lon="03.835199"><ele>0</ele><time>2021-01-07T12:39:42Z</time><cmt>4.9 kmh</cmt></trkpt>
<trkpt lat="51.684382" lon="03.835215"><ele>0</ele><time>2021-01-07T12:39:43Z</time><cmt>4.7 kmh</cmt></trkpt>
<trkpt lat="51.684378" lon="03.835231"><ele>0</ele><time>2021-01-07T12:39:44Z</time><cmt>3.6 kmh</cmt></trkpt>
<trkpt lat="51.684374" lon="03.835247"><ele>0</ele><time>2021-01-07T12:39:45Z</time><cmt>3.8 kmh</cmt></trkpt>
<trkpt lat="51.684370" lon="03.835264"><ele>0</ele><time>2021-01-07T12:39:46Z</time><cmt>4.8 kmh</cmt></trkpt>
<trkpt lat="51.684365" lon="03.835280"><ele>0</ele><time>2021-01-07T12:39:47Z</time><cmt>4.7 kmh</cmt></trkpt>
<trkpt lat="51.684361" lon="03.835295"><ele>0</ele><time>2021-01-07T12:39:48Z</time><cmt>4.6 kmh</cmt></trkpt>
<trkpt lat="51.684357" lon="03.835312"><ele>0</ele><time>2021-01-07T12:39:49Z</time><cmt>4.7 kmh</cmt></trkpt>
<trkpt lat="51.684352" lon="03.835329"><ele>0</ele><time>2021-01-07T12:39:50Z</time><cmt>4.8 kmh</cmt></trkpt>
<trkpt lat="51.684347" lon="03.835345"><ele>0</ele><time>2021-01-07T12:39:51Z</time><cmt>3.8 kmh</cmt></trkpt>
<trkpt lat="51.684343" lon="03.835360"><ele>0</ele><time>2021-01-07T12:39:52Z</time><cmt>3.8 kmh</cmt></trkpt>
<trkpt lat="51.684338" lon="03.835376"><ele>0</ele><time>2021-01-07T12:39:53Z</time><cmt>4.6 kmh</cmt></trkpt>
<trkpt lat="51.684334" lon="03.835391"><ele>0</ele><time>2021-01-07T12:39:54Z</time><cmt>4.6 kmh</cmt></trkpt>
<trkpt lat="51.684329" lon="03.835408"><ele>0</ele><time>2021-01-07T12:39:55Z</time><cmt>4.7 kmh</cmt></trkpt>
<trkpt lat="51.684325" lon="03.835426"><ele>0</ele><time>2021-01-07T12:39:56Z</time><cmt>5.0 kmh</cmt></trkpt>
<trkpt lat="51.684321" lon="03.835444"><ele>0</ele><time>2021-01-07T12:39:57Z</time><cmt>4.1 kmh</cmt></trkpt>
<trkpt lat="51.684315" lon="03.835460"><ele>0</ele><time>2021-01-07T12:39:58Z</time><cmt>4.0 kmh</cmt></trkpt>
<trkpt lat="51.684309" lon="03.835476"><ele>0</ele><time>2021-01-07T12:39:59Z</time><cmt>5.0 kmh</cmt></trkpt>
<trkpt lat="51.684304" lon="03.835493"><ele>0</ele><time>2021-01-07T12:40:00Z</time><cmt>5.0 kmh</cmt></trkpt>
<trkpt lat="51.684299" lon="03.835509"><ele>0</ele><time>2021-01-07T12:40:01Z</time><cmt>5.0 kmh</cmt></trkpt>
<trkpt lat="51.684294" lon="03.835526"><ele>0</ele><time>2021-01-07T12:40:02Z</time><cmt>5.0 kmh</cmt></trkpt>
<trkpt lat="51.684288" lon="03.835542"><ele>0</ele><time>2021-01-07T12:40:03Z</time><cmt>5.0 kmh</cmt></trkpt>
<trkpt lat="51.684283" lon="03.835557"><ele>0</ele><time>2021-01-07T12:40:04Z</time><cmt>3.9 kmh</cmt></trkpt>
<trkpt lat="51.684279" lon="03.835573"><ele>0</ele><time>2021-01-07T12:40:05Z</time><cmt>3.7 kmh</cmt></trkpt>
<trkpt lat="51.684275" lon="03.835590"><ele>0</ele><time>2021-01-07T12:40:06Z</time><cmt>4.7 kmh</cmt></trkpt>
<trkpt lat="51.684270" lon="03.835607"><ele>0</ele><time>2021-01-07T12:40:07Z</time><cmt>4.9 kmh</cmt></trkpt>
<trkpt lat="51.684266" lon="03.835624"><ele>0</ele><time>2021-01-07T12:40:08Z</time><cmt>4.9 kmh</cmt></trkpt>
<trkpt lat="51.684261" lon="03.835640"><ele>0</ele><time>2021-01-07T12:40:09Z</time><cmt>4.8 kmh</cmt></trkpt>
<trkpt lat="51.684256" lon="03.835656"><ele>0</ele><time>2021-01-07T12:40:10Z</time><cmt>3.8 kmh</cmt></trkpt>
<trkpt lat="51.684251" lon="03.835673"><ele>0</ele><time>2021-01-07T12:40:11Z</time><cmt>3.9 kmh</cmt></trkpt>
<trkpt lat="51.684247" lon="03.835689"><ele>0</ele><time>2021-01-07T12:40:12Z</time><cmt>4.8 kmh</cmt></trkpt>
<trkpt lat="51.684243" lon="03.835705"><ele>0</ele><time>2021-01-07T12:40:13Z</time><cmt>4.7 kmh</cmt></trkpt>
<trkpt lat="51.684238" lon="03.835721"><ele>0</ele><time>2021-01-07T12:40:14Z</time><cmt>4.7 kmh</cmt></trkpt>
<trkpt lat="51.684234" lon="03.835737"><ele>0</ele><time>2021-01-07T12:40:15Z</time><cmt>4.6 kmh</cmt></trkpt>
<trkpt lat="51.684230" lon="03.835753"><ele>0</ele><time>2021-01-07T12:40:16Z</time><cmt>3.7 kmh</cmt></trkpt>
<trkpt lat="51.684224" lon="03.835768"><ele>0</ele><time>2021-01-07T12:40:17Z</time><cmt>3.8 kmh</cmt></trkpt>
<trkpt lat="51.684218" lon="03.835783"><ele>0</ele><time>2021-01-07T12:40:18Z</time><cmt>4.7 kmh</cmt></trkpt>
<trkpt lat="51.684213" lon="03.835798"><ele>0</ele><time>2021-01-07T12:40:19Z</time><cmt>4.6 kmh</cmt></trkpt>
<trkpt lat="51.684209" lon="03.835815"><ele>0</ele><time>2021-01-07T12:40:20Z</time><cmt>4.7 kmh</cmt></trkpt>
<trkpt lat="51.684205" lon="03.835830"><ele>0</ele><time>2021-01-07T12:40:21Z</time><cmt>4.6 kmh</cmt></trkpt>
<trkpt lat="51.684201" lon="03.835845"><ele>0</ele><time>2021-01-07T12:40:22Z</time><cmt>3.5 kmh</cmt></trkpt>
<trkpt lat="51.684197" lon="03.835860"><ele>0</ele><time>2021-01-07T12:40:23Z</time><cmt>3.4 kmh</cmt></trkpt>
<trkpt lat="51.684193" lon="03.835873"><ele>0</ele><time>2021-01-07T12:40:24Z</time><cmt>4.2 kmh</cmt></trkpt>
<trkpt lat="51.684188" lon="03.835887"><ele>0</ele><time>2021-01-07T12:40:25Z</time><cmt>4.2 kmh</cmt></trkpt>
<trkpt lat="51.684184" lon="03.835902"><ele>0</ele><time>2021-01-07T12:40:26Z</time><cmt>4.3 kmh</cmt></trkpt>
<trkpt lat="51.684180" lon="03.835917"><ele>0</ele><time>2021-01-07T12:40:27Z</time><cmt>4.3 kmh</cmt></trkpt>
<trkpt lat="51.684177" lon="03.835932"><ele>0</ele><time>2021-01-07T12:40:28Z</time><cmt>4.3 kmh</cmt></trkpt>
<trkpt lat="51.684173" lon="03.835947"><ele>0</ele><time>2021-01-07T12:40:29Z</time><cmt>3.4 kmh</cmt></trkpt>
<trkpt lat="51.684169" lon="03.835960"><ele>0</ele><time>2021-01-07T12:40:30Z</time><cmt>3.2 kmh</cmt></trkpt>
<trkpt lat="51.684165" lon="03.835974"><ele>0</ele><time>2021-01-07T12:40:31Z</time><cmt>4.1 kmh</cmt></trkpt>
<trkpt lat="51.684160" lon="03.835989"><ele>0</ele><time>2021-01-07T12:40:32Z</time><cmt>4.3 kmh</cmt></trkpt>
<trkpt lat="51.684155" lon="03.836004"><ele>0</ele><time>2021-01-07T12:40:33Z</time><cmt>4.5 kmh</cmt></trkpt>
<trkpt lat="51.684150" lon="03.836020"><ele>0</ele><time>2021-01-07T12:40:34Z</time><cmt>4.6 kmh</cmt></trkpt>
<trkpt lat="51.684146" lon="03.836035"><ele>0</ele><time>2021-01-07T12:40:35Z</time><cmt>3.7 kmh</cmt></trkpt>
<trkpt lat="51.684142" lon="03.836051"><ele>0</ele><time>2021-01-07T12:40:36Z</time><cmt>3.7 kmh</cmt></trkpt>
<trkpt lat="51.684138" lon="03.836068"><ele>0</ele><time>2021-01-07T12:40:37Z</time><cmt>4.6 kmh</cmt></trkpt>
<trkpt lat="51.684134" lon="03.836085"><ele>0</ele><time>2021-01-07T12:40:38Z</time><cmt>4.9 kmh</cmt></trkpt>
<trkpt lat="51.684129" lon="03.836103"><ele>0</ele><time>2021-01-07T12:40:39Z</time><cmt>5.0 kmh</cmt></trkpt>
<trkpt lat="51.684124" lon="03.836120"><ele>0</ele><time>2021-01-07T12:40:40Z</time><cmt>5.0 kmh</cmt></trkpt>
<trkpt lat="51.684120" lon="03.836135"><ele>0</ele><time>2021-01-07T12:40:41Z</time><cmt>4.7 kmh</cmt></trkpt>
<trkpt lat="51.684116" lon="03.836151"><ele>0</ele><time>2021-01-07T12:40:42Z</time><cmt>3.6 kmh</cmt></trkpt>
<trkpt lat="51.684111" lon="03.836167"><ele>0</ele><time>2021-01-07T12:40:43Z</time><cmt>3.7 kmh</cmt></trkpt>
<trkpt lat="51.684106" lon="03.836182"><ele>0</ele><time>2021-01-07T12:40:44Z</time><cmt>4.7 kmh</cmt></trkpt>
<trkpt lat="51.684101" lon="03.836197"><ele>0</ele><time>2021-01-07T12:40:45Z</time><cmt>4.7 kmh</cmt></trkpt>
<trkpt lat="51.684096" lon="03.836212"><ele>0</ele><time>2021-01-07T12:40:46Z</time><cmt>4.5 kmh</cmt></trkpt>
<trkpt lat="51.684092" lon="03.836227"><ele>0</ele><time>2021-01-07T12:40:47Z</time><cmt>4.4 kmh</cmt></trkpt>
<trkpt lat="51.684088" lon="03.836243"><ele>0</ele><time>2021-01-07T12:40:48Z</time><cmt>3.6 kmh</cmt></trkpt>
<trkpt lat="51.684084" lon="03.836260"><ele>0</ele><time>2021-01-07T12:40:49Z</time><cmt>3.8 kmh</cmt></trkpt>
<trkpt lat="51.684080" lon="03.836276"><ele>0</ele><time>2021-01-07T12:40:50Z</time><cmt>4.7 kmh</cmt></trkpt>
<trkpt lat="51.684076" lon="03.836292"><ele>0</ele><time>2021-01-07T12:40:51Z</time><cmt>4.7 kmh</cmt></trkpt>
<trkpt lat="51.684071" lon="03.836309"><ele>0</ele><time>2021-01-07T12:40:52Z</time><cmt>4.9 kmh</cmt></trkpt>
<trkpt lat="51.684066" lon="03.836326"><ele>0</ele><time>2021-01-07T12:40:53Z</time><cmt>5.0 kmh</cmt></trkpt>
<trkpt lat="51.684060" lon="03.836343"><ele>0</ele><time>2021-01-07T12:40:54Z</time><cmt>4.0 kmh</cmt></trkpt>
<trkpt lat="51.684054" lon="03.836360"><ele>0</ele><time>2021-01-07T12:40:55Z</time><cmt>5.0 kmh</cmt></trkpt>
<trkpt lat="51.684049" lon="03.836378"><ele>0</ele><time>2021-01-07T12:40:56Z</time><cmt>5.0 kmh</cmt></trkpt>
<trkpt lat="51.684044" lon="03.836396"><ele>0</ele><time>2021-01-07T12:40:57Z</time><cmt>5.0 kmh</cmt></trkpt>
<trkpt lat="51.684039" lon="03.836413"><ele>0</ele><time>2021-01-07T12:40:58Z</time><cmt>5.0 kmh</cmt></trkpt>
<trkpt lat="51.684035" lon="03.836429"><ele>0</ele><time>2021-01-07T12:40:59Z</time><cmt>4.9 kmh</cmt></trkpt>
<trkpt lat="51.684030" lon="03.836446"><ele>0</ele><time>2021-01-07T12:41:00Z</time><cmt>4.9 kmh</cmt></trkpt>
<trkpt lat="51.684026" lon="03.836463"><ele>0</ele><time>2021-01-07T12:41:01Z</time><cmt>3.9 kmh</cmt></trkpt>
<trkpt lat="51.684021" lon="03.836480"><ele>0</ele><time>2021-01-07T12:41:02Z</time><cmt>4.0 kmh</cmt></trkpt>
<trkpt lat="51.684016" lon="03.836497"><ele>0</ele><time>2021-01-07T12:41:03Z</time><cmt>5.0 kmh</cmt></trkpt>
<trkpt lat="51.684011" lon="03.836514"><ele>0</ele><time>2021-01-07T12:41:04Z</time><cmt>5.0 kmh</cmt></trkpt>
<trkpt lat="51.684006" lon="03.836532"><ele>0</ele><time>2021-01-07T12:41:05Z</time><cmt>5.0 kmh</cmt></trkpt>
<trkpt lat="51.684001" lon="03.836550"><ele>0</ele><time>2021-01-07T12:41:06Z</time><cmt>5.0 kmh</cmt></trkpt>
<trkpt lat="51.683995" lon="03.836567"><ele>0</ele><time>2021-01-07T12:41:07Z</time><cmt>4.3 kmh</cmt></trkpt>
<trkpt lat="51.683990" lon="03.836584"><ele>0</ele><time>2021-01-07T12:41:08Z</time><cmt>4.1 kmh</cmt></trkpt>
<trkpt lat="51.683985" lon="03.836599"><ele>0</ele><time>2021-01-07T12:41:09Z</time><cmt>4.7 kmh</cmt></trkpt>
<trkpt lat="51.683981" lon="03.836615"><ele>0</ele><time>2021-01-07T12:41:10Z</time><cmt>4.7 kmh</cmt></trkpt>
<trkpt lat="51.683976" lon="03.836632"><ele>0</ele><time>2021-01-07T12:41:11Z</time><cmt>4.8 kmh</cmt></trkpt>
<trkpt lat="51.683971" lon="03.836648"><ele>0</ele><time>2021-01-07T12:41:12Z</time><cmt>4.8 kmh</cmt></trkpt>
<trkpt lat="51.683966" lon="03.836663"><ele>0</ele><time>2021-01-07T12:41:13Z</time><cmt>4.7 kmh</cmt></trkpt>
<trkpt lat="51.683962" lon="03.836679"><ele>0</ele><time>2021-01-07T12:41:14Z</time><cmt>3.7 kmh</cmt></trkpt>
<trkpt lat="51.683957" lon="03.836693"><ele>0</ele><time>2021-01-07T12:41:15Z</time><cmt>3.6 kmh</cmt></trkpt>
<trkpt lat="51.683952" lon="03.836709"><ele>0</ele><time>2021-01-07T12:41:16Z</time><cmt>4.5 kmh</cmt></trkpt>
<trkpt lat="51.683948" lon="03.836725"><ele>0</ele><time>2021-01-07T12:41:17Z</time><cmt>4.6 kmh</cmt></trkpt>
<trkpt lat="51.683944" lon="03.836741"><ele>0</ele><time>2021-01-07T12:41:18Z</time><cmt>4.7 kmh</cmt></trkpt>
<trkpt lat="51.683940" lon="03.836758"><ele>0</ele><time>2021-01-07T12:41:19Z</time><cmt>4.8 kmh</cmt></trkpt>
<trkpt lat="51.683936" lon="03.836774"><ele>0</ele><time>2021-01-07T12:41:20Z</time><cmt>3.8 kmh</cmt></trkpt>
<trkpt lat="51.683932" lon="03.836790"><ele>0</ele><time>2021-01-07T12:41:21Z</time><cmt>3.7 kmh</cmt></trkpt>
<trkpt lat="51.683927" lon="03.836805"><ele>0</ele><time>2021-01-07T12:41:22Z</time><cmt>4.6 kmh</cmt></trkpt>
<trkpt lat="51.683922" lon="03.836822"><ele>0</ele><time>2021-01-07T12:41:23Z</time><cmt>4.8 kmh</cmt></trkpt>
<trkpt lat="51.683917" lon="03.836839"><ele>0</ele><time>2021-01-07T12:41:24Z</time><cmt>5.0 kmh</cmt></trkpt>
<trkpt lat="51.683912" lon="03.836857"><ele>0</ele><time>2021-01-07T12:41:25Z</time><cmt>5.0 kmh</cmt></trkpt>
<trkpt lat="51.683907" lon="03.836875"><ele>0</ele><time>2021-01-07T12:41:26Z</time><cmt>4.2 kmh</cmt></trkpt>
<trkpt lat="51.683902" lon="03.836893"><ele>0</ele><time>2021-01-07T12:41:27Z</time><cmt>4.2 kmh</cmt></trkpt>
<trkpt lat="51.683897" lon="03.836910"><ele>0</ele><time>2021-01-07T12:41:28Z</time><cmt>5.0 kmh</cmt></trkpt>
<trkpt lat="51.683892" lon="03.836926"><ele>0</ele><time>2021-01-07T12:41:29Z</time><cmt>5.0 kmh</cmt></trkpt>
<trkpt lat="51.683888" lon="03.836941"><ele>0</ele><time>2021-01-07T12:41:30Z</time><cmt>4.6 kmh</cmt></trkpt>
<trkpt lat="51.683884" lon="03.836957"><ele>0</ele><time>2021-01-07T12:41:31Z</time><cmt>4.5 kmh</cmt></trkpt>
<trkpt lat="51.683880" lon="03.836974"><ele>0</ele><time>2021-01-07T12:41:32Z</time><cmt>4.7 kmh</cmt></trkpt>
<trkpt lat="51.683875" lon="03.836990"><ele>0</ele><time>2021-01-07T12:41:33Z</time><cmt>3.8 kmh</cmt></trkpt>
<trkpt lat="51.683870" lon="03.837007"><ele>0</ele><time>2021-01-07T12:41:34Z</time><cmt>3.9 kmh</cmt></trkpt>
<trkpt lat="51.683865" lon="03.837022"><ele>0</ele><time>2021-01-07T12:41:35Z</time><cmt>4.7 kmh</cmt></trkpt>
<trkpt lat="51.683861" lon="03.837035"><ele>0</ele><time>2021-01-07T12:41:36Z</time><cmt>4.3 kmh</cmt></trkpt>
<trkpt lat="51.683856" lon="03.837049"><ele>0</ele><time>2021-01-07T12:41:37Z</time><cmt>4.2 kmh</cmt></trkpt>
<trkpt lat="51.683851" lon="03.837065"><ele>0</ele><time>2021-01-07T12:41:38Z</time><cmt>4.4 kmh</cmt></trkpt>
<trkpt lat="51.683847" lon="03.837080"><ele>0</ele><time>2021-01-07T12:41:39Z</time><cmt>3.7 kmh</cmt></trkpt>
<trkpt lat="51.683842" lon="03.837096"><ele>0</ele><time>2021-01-07T12:41:40Z</time><cmt>3.7 kmh</cmt></trkpt>
<trkpt lat="51.683838" lon="03.837112"><ele>0</ele><time>2021-01-07T12:41:41Z</time><cmt>4.6 kmh</cmt></trkpt>
<trkpt lat="51.683834" lon="03.837127"><ele>0</ele><time>2021-01-07T12:41:42Z</time><cmt>4.4 kmh</cmt></trkpt>
<trkpt lat="51.683830" lon="03.837142"><ele>0</ele><time>2021-01-07T12:41:43Z</time><cmt>4.4 kmh</cmt></trkpt>
<trkpt lat="51.683825" lon="03.837157"><ele>0</ele><time>2021-01-07T12:41:44Z</time><cmt>4.4 kmh</cmt></trkpt>
<trkpt lat="51.683821" lon="03.837171"><ele>0</ele><time>2021-01-07T12:41:45Z</time><cmt>3.5 kmh</cmt></trkpt>
<trkpt lat="51.683817" lon="03.837185"><ele>0</ele><time>2021-01-07T12:41:46Z</time><cmt>3.4 kmh</cmt></trkpt>
<trkpt lat="51.683812" lon="03.837199"><ele>0</ele><time>2021-01-07T12:41:47Z</time><cmt>4.2 kmh</cmt></trkpt>
<trkpt lat="51.683807" lon="03.837214"><ele>0</ele><time>2021-01-07T12:41:48Z</time><cmt>4.4 kmh</cmt></trkpt>
<trkpt lat="51.683803" lon="03.837230"><ele>0</ele><time>2021-01-07T12:41:49Z</time><cmt>4.6 kmh</cmt></trkpt>
<trkpt lat="51.683798" lon="03.837245"><ele>0</ele><time>2021-01-07T12:41:50Z</time><cmt>4.6 kmh</cmt></trkpt>
<trkpt lat="51.683794" lon="03.837260"><ele>0</ele><time>2021-01-07T12:41:51Z</time><cmt>4.4 kmh</cmt></trkpt>
<trkpt lat="51.683790" lon="03.837275"><ele>0</ele><time>2021-01-07T12:41:52Z</time><cmt>3.5 kmh</cmt></trkpt>
<trkpt lat="51.683786" lon="03.837291"><ele>0</ele><time>2021-01-07T12:41:53Z</time><cmt>3.6 kmh</cmt></trkpt>
<trkpt lat="51.683782" lon="03.837307"><ele>0</ele><time>2021-01-07T12:41:54Z</time><cmt>4.5 kmh</cmt></trkpt>
<trkpt lat="51.683777" lon="03.837323"><ele>0</ele><time>2021-01-07T12:41:55Z</time><cmt>4.6 kmh</cmt></trkpt>
<trkpt lat="51.683773" lon="03.837340"><ele>0</ele><time>2021-01-07T12:41:56Z</time><cmt>4.9 kmh</cmt></trkpt>
<trkpt lat="51.683768" lon="03.837358"><ele>0</ele><time>2021-01-07T12:41:57Z</time><cmt>5.0 kmh</cmt></trkpt>
<trkpt lat="51.683763" lon="03.837375"><ele>0</ele><time>2021-01-07T12:41:58Z</time><cmt>4.1 kmh</cmt></trkpt>
<trkpt lat="51.683758" lon="03.837392"><ele>0</ele><time>2021-01-07T12:41:59Z</time><cmt>4.0 kmh</cmt></trkpt>
<trkpt lat="51.683753" lon="03.837409"><ele>0</ele><time>2021-01-07T12:42:00Z</time><cmt>5.0 kmh</cmt></trkpt>
<trkpt lat="51.683749" lon="03.837426"><ele>0</ele><time>2021-01-07T12:42:01Z</time><cmt>4.9 kmh</cmt></trkpt>
<trkpt lat="51.683744" lon="03.837442"><ele>0</ele><time>2021-01-07T12:42:02Z</time><cmt>4.8 kmh</cmt></trkpt>
<trkpt lat="51.683738" lon="03.837458"><ele>0</ele><time>2021-01-07T12:42:03Z</time><cmt>4.9 kmh</cmt></trkpt>
<trkpt lat="51.683733" lon="03.837475"><ele>0</ele><time>2021-01-07T12:42:04Z</time><cmt>4.0 kmh</cmt></trkpt>
<trkpt lat="51.683729" lon="03.837491"><ele>0</ele><time>2021-01-07T12:42:05Z</time><cmt>3.9 kmh</cmt></trkpt>
<trkpt lat="51.683724" lon="03.837507"><ele>0</ele><time>2021-01-07T12:42:06Z</time><cmt>4.7 kmh</cmt></trkpt>
<trkpt lat="51.683719" lon="03.837523"><ele>0</ele><time>2021-01-07T12:42:07Z</time><cmt>4.7 kmh</cmt></trkpt>
<trkpt lat="51.683714" lon="03.837540"><ele>0</ele><time>2021-01-07T12:42:08Z</time><cmt>5.0 kmh</cmt></trkpt>
<trkpt lat="51.683707" lon="03.837557"><ele>0</ele><time>2021-01-07T12:42:09Z</time><cmt>5.0 kmh</cmt></trkpt>
<trkpt lat="51.683701" lon="03.837575"><ele>0</ele><time>2021-01-07T12:42:10Z</time><cmt>5.0 kmh</cmt></trkpt>
<trkpt lat="51.683696" lon="03.837592"><ele>0</ele><time>2021-01-07T12:42:11Z</time><cmt>4.2 kmh</cmt></trkpt>
<trkpt lat="51.683691" lon="03.837609"><ele>0</ele><time>2021-01-07T12:42:12Z</time><cmt>4.1 kmh</cmt></trkpt>
<trkpt lat="51.683686" lon="03.837625"><ele>0</ele><time>2021-01-07T12:42:13Z</time><cmt>4.9 kmh</cmt></trkpt>
<trkpt lat="51.683682" lon="03.837641"><ele>0</ele><time>2021-01-07T12:42:14Z</time><cmt>4.7 kmh</cmt></trkpt>
<trkpt lat="51.683677" lon="03.837656"><ele>0</ele><time>2021-01-07T12:42:15Z</time><cmt>4.7 kmh</cmt></trkpt>
<trkpt lat="51.683671" lon="03.837672"><ele>0</ele><time>2021-01-07T12:42:16Z</time><cmt>4.7 kmh</cmt></trkpt>
<trkpt lat="51.683667" lon="03.837687"><ele>0</ele><time>2021-01-07T12:42:17Z</time><cmt>3.7 kmh</cmt></trkpt>
<trkpt lat="51.683663" lon="03.837702"><ele>0</ele><time>2021-01-07T12:42:18Z</time><cmt>3.6 kmh</cmt></trkpt>
<trkpt lat="51.683660" lon="03.837718"><ele>0</ele><time>2021-01-07T12:42:19Z</time><cmt>4.4 kmh</cmt></trkpt>
<trkpt lat="51.683657" lon="03.837734"><ele>0</ele><time>2021-01-07T12:42:20Z</time><cmt>4.5 kmh</cmt></trkpt>
<trkpt lat="51.683653" lon="03.837750"><ele>0</ele><time>2021-01-07T12:42:21Z</time><cmt>4.5 kmh</cmt></trkpt>
<trkpt lat="51.683649" lon="03.837767"><ele>0</ele><time>2021-01-07T12:42:22Z</time><cmt>4.6 kmh</cmt></trkpt>
<trkpt lat="51.683645" lon="03.837783"><ele>0</ele><time>2021-01-07T12:42:23Z</time><cmt>3.8 kmh</cmt></trkpt>
<trkpt lat="51.683640" lon="03.837798"><ele>0</ele><time>2021-01-07T12:42:24Z</time><cmt>3.7 kmh</cmt></trkpt>
<trkpt lat="51.683635" lon="03.837812"><ele>0</ele><time>2021-01-07T12:42:25Z</time><cmt>4.4 kmh</cmt></trkpt>
<trkpt lat="51.683631" lon="03.837826"><ele>0</ele><time>2021-01-07T12:42:26Z</time><cmt>4.2 kmh</cmt></trkpt>
<trkpt lat="51.683627" lon="03.837841"><ele>0</ele><time>2021-01-07T12:42:27Z</time><cmt>4.2 kmh</cmt></trkpt>
<trkpt lat="51.683624" lon="03.837857"><ele>0</ele><time>2021-01-07T12:42:28Z</time><cmt>4.5 kmh</cmt></trkpt>
<trkpt lat="51.683620" lon="03.837873"><ele>0</ele><time>2021-01-07T12:42:29Z</time><cmt>4.5 kmh</cmt></trkpt>
<trkpt lat="51.683615" lon="03.837889"><ele>0</ele><time>2021-01-07T12:42:30Z</time><cmt>3.7 kmh</cmt></trkpt>
<trkpt lat="51.683610" lon="03.837904"><ele>0</ele><time>2021-01-07T12:42:31Z</time><cmt>3.7 kmh</cmt></trkpt>
<trkpt lat="51.683605" lon="03.837919"><ele>0</ele><time>2021-01-07T12:42:32Z</time><cmt>4.6 kmh</cmt></trkpt>
<trkpt lat="51.683599" lon="03.837933"><ele>0</ele><time>2021-01-07T12:42:33Z</time><cmt>4.5 kmh</cmt></trkpt>
<trkpt lat="51.683595" lon="03.837947"><ele>0</ele><time>2021-01-07T12:42:34Z</time><cmt>4.2 kmh</cmt></trkpt>
<trkpt lat="51.683591" lon="03.837960"><ele>0</ele><time>2021-01-07T12:42:35Z</time><cmt>4.0 kmh</cmt></trkpt>
<trkpt lat="51.683587" lon="03.837975"><ele>0</ele><time>2021-01-07T12:42:36Z</time><cmt>3.4 kmh</cmt></trkpt>
<trkpt lat="51.683584" lon="03.837989"><ele>0</ele><time>2021-01-07T12:42:37Z</time><cmt>3.4 kmh</cmt></trkpt>
<trkpt lat="51.683581" lon="03.838001"><ele>0</ele><time>2021-01-07T12:42:38Z</time><cmt>3.6 kmh</cmt></trkpt>
<trkpt lat="51.683579" lon="03.838012"><ele>0</ele><time>2021-01-07T12:42:39Z</time><cmt>3.2 kmh</cmt></trkpt>
<trkpt lat="51.683567" lon="03.838044"><ele>0</ele><time>2021-01-07T12:42:40Z</time><cmt>5.0 kmh</cmt></trkpt>
<trkpt lat="51.683560" lon="03.838066"><ele>0</ele><time>2021-01-07T12:42:41Z</time><cmt>5.0 kmh</cmt></trkpt>
<trkpt lat="51.683556" lon="03.838081"><ele>0</ele><time>2021-01-07T12:42:42Z</time><cmt>4.3 kmh</cmt></trkpt>
<trkpt lat="51.683552" lon="03.838095"><ele>0</ele><time>2021-01-07T12:42:43Z</time><cmt>3.4 kmh</cmt></trkpt>
<trkpt lat="51.683548" lon="03.838109"><ele>0</ele><time>2021-01-07T12:42:44Z</time><cmt>4.1 kmh</cmt></trkpt>
<trkpt lat="51.683543" lon="03.838124"><ele>0</ele><time>2021-01-07T12:42:45Z</time><cmt>4.4 kmh</cmt></trkpt>
<trkpt lat="51.683539" lon="03.838141"><ele>0</ele><time>2021-01-07T12:42:46Z</time><cmt>4.7 kmh</cmt></trkpt>
<trkpt lat="51.683535" lon="03.838156"><ele>0</ele><time>2021-01-07T12:42:47Z</time><cmt>4.6 kmh</cmt></trkpt>
<trkpt lat="51.683530" lon="03.838171"><ele>0</ele><time>2021-01-07T12:42:48Z</time><cmt>4.5 kmh</cmt></trkpt>
<trkpt lat="51.683524" lon="03.838185"><ele>0</ele><time>2021-01-07T12:42:49Z</time><cmt>3.6 kmh</cmt></trkpt>
<trkpt lat="51.683519" lon="03.838199"><ele>0</ele><time>2021-01-07T12:42:50Z</time><cmt>3.5 kmh</cmt></trkpt>
<trkpt lat="51.683514" lon="03.838215"><ele>0</ele><time>2021-01-07T12:42:51Z</time><cmt>4.5 kmh</cmt></trkpt>
<trkpt lat="51.683510" lon="03.838231"><ele>0</ele><time>2021-01-07T12:42:52Z</time><cmt>4.7 kmh</cmt></trkpt>
<trkpt lat="51.683506" lon="03.838246"><ele>0</ele><time>2021-01-07T12:42:53Z</time><cmt>4.6 kmh</cmt></trkpt>
<trkpt lat="51.683502" lon="03.838261"><ele>0</ele><time>2021-01-07T12:42:54Z</time><cmt>4.3 kmh</cmt></trkpt>
<trkpt lat="51.683498" lon="03.838276"><ele>0</ele><time>2021-01-07T12:42:55Z</time><cmt>3.5 kmh</cmt></trkpt>
<trkpt lat="51.683493" lon="03.838291"><ele>0</ele><time>2021-01-07T12:42:56Z</time><cmt>3.6 kmh</cmt></trkpt>
<trkpt lat="51.683489" lon="03.838305"><ele>0</ele><time>2021-01-07T12:42:57Z</time><cmt>4.3 kmh</cmt></trkpt>
<trkpt lat="51.683485" lon="03.838319"><ele>0</ele><time>2021-01-07T12:42:58Z</time><cmt>4.2 kmh</cmt></trkpt>
<trkpt lat="51.683480" lon="03.838332"><ele>0</ele><time>2021-01-07T12:42:59Z</time><cmt>4.2 kmh</cmt></trkpt>
<trkpt lat="51.683474" lon="03.838346"><ele>0</ele><time>2021-01-07T12:43:00Z</time><cmt>4.3 kmh</cmt></trkpt>
<trkpt lat="51.683470" lon="03.838360"><ele>0</ele><time>2021-01-07T12:43:01Z</time><cmt>4.3 kmh</cmt></trkpt>
<trkpt lat="51.683465" lon="03.838374"><ele>0</ele><time>2021-01-07T12:43:02Z</time><cmt>3.5 kmh</cmt></trkpt>
<trkpt lat="51.683462" lon="03.838387"><ele>0</ele><time>2021-01-07T12:43:03Z</time><cmt>3.1 kmh</cmt></trkpt>
<trkpt lat="51.683460" lon="03.838397"><ele>0</ele><time>2021-01-07T12:43:04Z</time><cmt>3.2 kmh</cmt></trkpt>
<trkpt lat="51.683459" lon="03.838407"><ele>0</ele><time>2021-01-07T12:43:05Z</time><cmt>2.8 kmh</cmt></trkpt>
<trkpt lat="51.683459" lon="03.838419"><ele>0</ele><time>2021-01-07T12:43:06Z</time><cmt>2.9 kmh</cmt></trkpt>
<trkpt lat="51.683459" lon="03.838430"><ele>0</ele><time>2021-01-07T12:43:07Z</time><cmt>3.1 kmh</cmt></trkpt>
<trkpt lat="51.683459" lon="03.838444"><ele>0</ele><time>2021-01-07T12:43:08Z</time><cmt>2.7 kmh</cmt></trkpt>
<trkpt lat="51.683458" lon="03.838458"><ele>0</ele><time>2021-01-07T12:43:09Z</time><cmt>3.0 kmh</cmt></trkpt>
<trkpt lat="51.683458" lon="03.838472"><ele>0</ele><time>2021-01-07T12:43:10Z</time><cmt>3.8 kmh</cmt></trkpt>
<trkpt lat="51.683455" lon="03.838487"><ele>0</ele><time>2021-01-07T12:43:11Z</time><cmt>4.0 kmh</cmt></trkpt>
<trkpt lat="51.683432" lon="03.838537"><ele>0</ele><time>2021-01-07T12:43:12Z</time><cmt>5.0 kmh</cmt></trkpt>
<trkpt lat="51.683414" lon="03.838575"><ele>1</ele><time>2021-01-07T12:43:13Z</time><cmt>5.0 kmh</cmt></trkpt>
<trkpt lat="51.683405" lon="03.838596"><ele>1</ele><time>2021-01-07T12:43:14Z</time><cmt>5.0 kmh</cmt></trkpt>
<trkpt lat="51.683402" lon="03.838609"><ele>2</ele><time>2021-01-07T12:43:15Z</time><cmt>4.3 kmh</cmt></trkpt>
<trkpt lat="51.683400" lon="03.838623"><ele>2</ele><time>2021-01-07T12:43:16Z</time><cmt>3.7 kmh</cmt></trkpt>
<trkpt lat="51.683400" lon="03.838640"><ele>3</ele><time>2021-01-07T12:43:17Z</time><cmt>4.1 kmh</cmt></trkpt>
<trkpt lat="51.683401" lon="03.838655"><ele>4</ele><time>2021-01-07T12:43:18Z</time><cmt>4.3 kmh</cmt></trkpt>
<trkpt lat="51.683400" lon="03.838670"><ele>4</ele><time>2021-01-07T12:43:19Z</time><cmt>4.0 kmh</cmt></trkpt>
<trkpt lat="51.683399" lon="03.838683"><ele>4</ele><time>2021-01-07T12:43:20Z</time><cmt>3.7 kmh</cmt></trkpt>
<trkpt lat="51.683398" lon="03.838697"><ele>5</ele><time>2021-01-07T12:43:21Z</time><cmt>3.0 kmh</cmt></trkpt>
<trkpt lat="51.683395" lon="03.838711"><ele>5</ele><time>2021-01-07T12:43:22Z</time><cmt>3.1 kmh</cmt></trkpt>
<trkpt lat="51.683390" lon="03.838723"><ele>5</ele><time>2021-01-07T12:43:23Z</time><cmt>4.0 kmh</cmt></trkpt>
<trkpt lat="51.683382" lon="03.838731"><ele>6</ele><time>2021-01-07T12:43:24Z</time><cmt>3.9 kmh</cmt></trkpt>
<trkpt lat="51.683375" lon="03.838738"><ele>6</ele><time>2021-01-07T12:43:25Z</time><cmt>3.8 kmh</cmt></trkpt>
<trkpt lat="51.683368" lon="03.838744"><ele>6</ele><time>2021-01-07T12:43:26Z</time><cmt>3.6 kmh</cmt></trkpt>
<trkpt lat="51.683361" lon="03.838750"><ele>6</ele><time>2021-01-07T12:43:27Z</time><cmt>2.7 kmh</cmt></trkpt>
<trkpt lat="51.683355" lon="03.838757"><ele>6</ele><time>2021-01-07T12:43:28Z</time><cmt>2.7 kmh</cmt></trkpt>
<trkpt lat="51.683350" lon="03.838767"><ele>6</ele><time>2021-01-07T12:43:29Z</time><cmt>3.3 kmh</cmt></trkpt>
<trkpt lat="51.683345" lon="03.838775"><ele>6</ele><time>2021-01-07T12:43:30Z</time><cmt>3.2 kmh</cmt></trkpt>
<trkpt lat="51.683340" lon="03.838783"><ele>7</ele><time>2021-01-07T12:43:31Z</time><cmt>3.0 kmh</cmt></trkpt>
<trkpt lat="51.683338" lon="03.838793"><ele>7</ele><time>2021-01-07T12:43:32Z</time><cmt>2.9 kmh</cmt></trkpt>
<trkpt lat="51.683338" lon="03.838804"><ele>7</ele><time>2021-01-07T12:43:33Z</time><cmt>2.3 kmh</cmt></trkpt>
<trkpt lat="51.683339" lon="03.838816"><ele>7</ele><time>2021-01-07T12:43:34Z</time><cmt>2.5 kmh</cmt></trkpt>
<trkpt lat="51.683339" lon="03.838828"><ele>7</ele><time>2021-01-07T12:43:35Z</time><cmt>3.3 kmh</cmt></trkpt>
<trkpt lat="51.683341" lon="03.838841"><ele>7</ele><time>2021-01-07T12:43:36Z</time><cmt>3.3 kmh</cmt></trkpt>
<trkpt lat="51.683344" lon="03.838852"><ele>7</ele><time>2021-01-07T12:43:37Z</time><cmt>3.4 kmh</cmt></trkpt>
<trkpt lat="51.683347" lon="03.838865"><ele>7</ele><time>2021-01-07T12:43:38Z</time><cmt>3.5 kmh</cmt></trkpt>
<trkpt lat="51.683351" lon="03.838878"><ele>7</ele><time>2021-01-07T12:43:39Z</time><cmt>3.7 kmh</cmt></trkpt>
<trkpt lat="51.683355" lon="03.838890"><ele>7</ele><time>2021-01-07T12:43:40Z</time><cmt>3.1 kmh</cmt></trkpt>
<trkpt lat="51.683359" lon="03.838904"><ele>7</ele><time>2021-01-07T12:43:41Z</time><cmt>3.2 kmh</cmt></trkpt>
<trkpt lat="51.683361" lon="03.838918"><ele>7</ele><time>2021-01-07T12:43:42Z</time><cmt>3.9 kmh</cmt></trkpt>
<trkpt lat="51.683363" lon="03.838934"><ele>7</ele><time>2021-01-07T12:43:43Z</time><cmt>4.0 kmh</cmt></trkpt>
<trkpt lat="51.683364" lon="03.838949"><ele>7</ele><time>2021-01-07T12:43:44Z</time><cmt>4.2 kmh</cmt></trkpt>
<trkpt lat="51.683365" lon="03.838966"><ele>7</ele><time>2021-01-07T12:43:45Z</time><cmt>4.4 kmh</cmt></trkpt>
<trkpt lat="51.683367" lon="03.838978"><ele>7</ele><time>2021-01-07T12:43:46Z</time><cmt>3.2 kmh</cmt></trkpt>
<trkpt lat="51.683370" lon="03.838989"><ele>7</ele><time>2021-01-07T12:43:47Z</time><cmt>2.6 kmh</cmt></trkpt>
<trkpt lat="51.683374" lon="03.838998"><ele>7</ele><time>2021-01-07T12:43:48Z</time><cmt>3.0 kmh</cmt></trkpt>
<trkpt lat="51.683377" lon="03.839008"><ele>7</ele><time>2021-01-07T12:43:49Z</time><cmt>3.1 kmh</cmt></trkpt>
<trkpt lat="51.683380" lon="03.839019"><ele>7</ele><time>2021-01-07T12:43:50Z</time><cmt>3.1 kmh</cmt></trkpt>
<trkpt lat="51.683382" lon="03.839029"><ele>7</ele><time>2021-01-07T12:43:51Z</time><cmt>3.0 kmh</cmt></trkpt>
<trkpt lat="51.683385" lon="03.839039"><ele>7</ele><time>2021-01-07T12:43:52Z</time><cmt>2.3 kmh</cmt></trkpt>
<trkpt lat="51.683387" lon="03.839046"><ele>7</ele><time>2021-01-07T12:43:53Z</time><cmt>2.0 kmh</cmt></trkpt>
<trkpt lat="51.683388" lon="03.839051"><ele>7</ele><time>2021-01-07T12:43:54Z</time><cmt>1.8 kmh</cmt></trkpt>
<trkpt lat="51.683389" lon="03.839052"><ele>6</ele><time>2021-01-07T12:43:55Z</time><cmt>0.9 kmh</cmt></trkpt>
<trkpt lat="51.683389" lon="03.839052"><ele>6</ele><time>2021-01-07T12:43:56Z</time><cmt>0.3 kmh</cmt></trkpt>
<trkpt lat="51.683389" lon="03.839052"><ele>6</ele><time>2021-01-07T12:43:57Z</time><cmt>0.0 kmh</cmt></trkpt>
<trkpt lat="51.683389" lon="03.839052"><ele>6</ele><time>2021-01-07T12:43:58Z</time><cmt>0.0 kmh</cmt></trkpt>
<trkpt lat="51.683389" lon="03.839052"><ele>6</ele><time>2021-01-07T12:43:59Z</time><cmt>0.0 kmh</cmt></trkpt>
<trkpt lat="51.683389" lon="03.839052"><ele>6</ele><time>2021-01-07T12:44:00Z</time><cmt>0.0 kmh</cmt></trkpt>
<trkpt lat="51.683388" lon="03.839052"><ele>6</ele><time>2021-01-07T12:44:01Z</time><cmt>0.0 kmh</cmt></trkpt>
<trkpt lat="51.683387" lon="03.839053"><ele>6</ele><time>2021-01-07T12:44:02Z</time><cmt>0.2 kmh</cmt></trkpt>
<trkpt lat="51.683386" lon="03.839053"><ele>6</ele><time>2021-01-07T12:44:03Z</time><cmt>0.5 kmh</cmt></trkpt>
<trkpt lat="51.683383" lon="03.839054"><ele>6</ele><time>2021-01-07T12:44:04Z</time><cmt>0.8 kmh</cmt></trkpt>
<trkpt lat="51.683382" lon="03.839056"><ele>6</ele><time>2021-01-07T12:44:05Z</time><cmt>0.7 kmh</cmt></trkpt>
<trkpt lat="51.683380" lon="03.839063"><ele>6</ele><time>2021-01-07T12:44:06Z</time><cmt>1.2 kmh</cmt></trkpt>
<trkpt lat="51.683377" lon="03.839070"><ele>6</ele><time>2021-01-07T12:44:07Z</time><cmt>2.0 kmh</cmt></trkpt>
<trkpt lat="51.683375" lon="03.839077"><ele>6</ele><time>2021-01-07T12:44:08Z</time><cmt>2.1 kmh</cmt></trkpt>
<trkpt lat="51.683372" lon="03.839083"><ele>6</ele><time>2021-01-07T12:44:09Z</time><cmt>2.0 kmh</cmt></trkpt>
<trkpt lat="51.683371" lon="03.839088"><ele>6</ele><time>2021-01-07T12:44:10Z</time><cmt>1.7 kmh</cmt></trkpt>
<trkpt lat="51.683369" lon="03.839093"><ele>6</ele><time>2021-01-07T12:44:11Z</time><cmt>1.2 kmh</cmt></trkpt>
<trkpt lat="51.683368" lon="03.839098"><ele>6</ele><time>2021-01-07T12:44:12Z</time><cmt>1.1 kmh</cmt></trkpt>
<trkpt lat="51.683367" lon="03.839102"><ele>7</ele><time>2021-01-07T12:44:13Z</time><cmt>1.2 kmh</cmt></trkpt>
<trkpt lat="51.683366" lon="03.839106"><ele>7</ele><time>2021-01-07T12:44:14Z</time><cmt>1.1 kmh</cmt></trkpt>
<trkpt lat="51.683365" lon="03.839109"><ele>7</ele><time>2021-01-07T12:44:15Z</time><cmt>1.0 kmh</cmt></trkpt>
<trkpt lat="51.683365" lon="03.839112"><ele>7</ele><time>2021-01-07T12:44:16Z</time><cmt>0.9 kmh</cmt></trkpt>
<trkpt lat="51.683364" lon="03.839115"><ele>7</ele><time>2021-01-07T12:44:17Z</time><cmt>0.8 kmh</cmt></trkpt>
<trkpt lat="51.683364" lon="03.839116"><ele>8</ele><time>2021-01-07T12:44:18Z</time><cmt>0.5 kmh</cmt></trkpt>
<trkpt lat="51.683363" lon="03.839114"><ele>8</ele><time>2021-01-07T12:44:19Z</time><cmt>0.4 kmh</cmt></trkpt>
<trkpt lat="51.683362" lon="03.839111"><ele>8</ele><time>2021-01-07T12:44:20Z</time><cmt>0.7 kmh</cmt></trkpt>
<trkpt lat="51.683360" lon="03.839105"><ele>8</ele><time>2021-01-07T12:44:21Z</time><cmt>1.3 kmh</cmt></trkpt>
<trkpt lat="51.683358" lon="03.839100"><ele>8</ele><time>2021-01-07T12:44:22Z</time><cmt>1.6 kmh</cmt></trkpt>
<trkpt lat="51.683356" lon="03.839097"><ele>8</ele><time>2021-01-07T12:44:23Z</time><cmt>1.5 kmh</cmt></trkpt>
<trkpt lat="51.683354" lon="03.839094"><ele>9</ele><time>2021-01-07T12:44:24Z</time><cmt>1.1 kmh</cmt></trkpt>
<trkpt lat="51.683350" lon="03.839089"><ele>9</ele><time>2021-01-07T12:44:25Z</time><cmt>1.3 kmh</cmt></trkpt>
<trkpt lat="51.683346" lon="03.839084"><ele>9</ele><time>2021-01-07T12:44:26Z</time><cmt>2.1 kmh</cmt></trkpt>
<trkpt lat="51.683343" lon="03.839078"><ele>9</ele><time>2021-01-07T12:44:27Z</time><cmt>2.2 kmh</cmt></trkpt>
<trkpt lat="51.683339" lon="03.839072"><ele>9</ele><time>2021-01-07T12:44:28Z</time><cmt>2.2 kmh</cmt></trkpt>
<trkpt lat="51.683335" lon="03.839065"><ele>9</ele><time>2021-01-07T12:44:29Z</time><cmt>2.4 kmh</cmt></trkpt>
<trkpt lat="51.683332" lon="03.839059"><ele>9</ele><time>2021-01-07T12:44:30Z</time><cmt>1.8 kmh</cmt></trkpt>
<trkpt lat="51.683329" lon="03.839053"><ele>9</ele><time>2021-01-07T12:44:31Z</time><cmt>1.7 kmh</cmt></trkpt>
<trkpt lat="51.683326" lon="03.839046"><ele>9</ele><time>2021-01-07T12:44:32Z</time><cmt>2.1 kmh</cmt></trkpt>
<trkpt lat="51.683323" lon="03.839038"><ele>9</ele><time>2021-01-07T12:44:33Z</time><cmt>2.4 kmh</cmt></trkpt>
<trkpt lat="51.683320" lon="03.839030"><ele>9</ele><time>2021-01-07T12:44:34Z</time><cmt>2.4 kmh</cmt></trkpt>
<trkpt lat="51.683317" lon="03.839024"><ele>9</ele><time>2021-01-07T12:44:35Z</time><cmt>2.3 kmh</cmt></trkpt>
<trkpt lat="51.683316" lon="03.839019"><ele>9</ele><time>2021-01-07T12:44:36Z</time><cmt>1.7 kmh</cmt></trkpt>
<trkpt lat="51.683317" lon="03.839018"><ele>9</ele><time>2021-01-07T12:44:37Z</time><cmt>0.7 kmh</cmt></trkpt>
<trkpt lat="51.683316" lon="03.839019"><ele>9</ele><time>2021-01-07T12:44:38Z</time><cmt>0.2 kmh</cmt></trkpt>
<trkpt lat="51.683313" lon="03.839016"><ele>9</ele><time>2021-01-07T12:44:39Z</time><cmt>0.6 kmh</cmt></trkpt>
<trkpt lat="51.683309" lon="03.839013"><ele>9</ele><time>2021-01-07T12:44:40Z</time><cmt>1.2 kmh</cmt></trkpt>
<trkpt lat="51.683306" lon="03.839010"><ele>8</ele><time>2021-01-07T12:44:41Z</time><cmt>1.7 kmh</cmt></trkpt>
<trkpt lat="51.683305" lon="03.839008"><ele>8</ele><time>2021-01-07T12:44:42Z</time><cmt>0.9 kmh</cmt></trkpt>
<trkpt lat="51.683305" lon="03.839009"><ele>8</ele><time>2021-01-07T12:44:43Z</time><cmt>0.2 kmh</cmt></trkpt>
<trkpt lat="51.683303" lon="03.839011"><ele>8</ele><time>2021-01-07T12:44:44Z</time><cmt>0.4 kmh</cmt></trkpt>
<trkpt lat="51.683299" lon="03.839012"><ele>8</ele><time>2021-01-07T12:44:45Z</time><cmt>1.3 kmh</cmt></trkpt>
<trkpt lat="51.683295" lon="03.839013"><ele>8</ele><time>2021-01-07T12:44:46Z</time><cmt>1.7 kmh</cmt></trkpt>
<trkpt lat="51.683291" lon="03.839017"><ele>8</ele><time>2021-01-07T12:44:47Z</time><cmt>1.9 kmh</cmt></trkpt>
<trkpt lat="51.683287" lon="03.839020"><ele>8</ele><time>2021-01-07T12:44:48Z</time><cmt>1.9 kmh</cmt></trkpt>
<trkpt lat="51.683284" lon="03.839022"><ele>7</ele><time>2021-01-07T12:44:49Z</time><cmt>1.4 kmh</cmt></trkpt>
<trkpt lat="51.683282" lon="03.839025"><ele>7</ele><time>2021-01-07T12:44:50Z</time><cmt>1.0 kmh</cmt></trkpt>
<trkpt lat="51.683281" lon="03.839029"><ele>7</ele><time>2021-01-07T12:44:51Z</time><cmt>1.2 kmh</cmt></trkpt>
<trkpt lat="51.683279" lon="03.839036"><ele>7</ele><time>2021-01-07T12:44:52Z</time><cmt>1.6 kmh</cmt></trkpt>
<trkpt lat="51.683277" lon="03.839044"><ele>7</ele><time>2021-01-07T12:44:53Z</time><cmt>2.0 kmh</cmt></trkpt>
<trkpt lat="51.683274" lon="03.839053"><ele>6</ele><time>2021-01-07T12:44:54Z</time><cmt>2.5 kmh</cmt></trkpt>
<trkpt lat="51.683271" lon="03.839062"><ele>6</ele><time>2021-01-07T12:44:55Z</time><cmt>2.8 kmh</cmt></trkpt>
<trkpt lat="51.683267" lon="03.839073"><ele>6</ele><time>2021-01-07T12:44:56Z</time><cmt>2.5 kmh</cmt></trkpt>
<trkpt lat="51.683264" lon="03.839084"><ele>6</ele><time>2021-01-07T12:44:57Z</time><cmt>2.7 kmh</cmt></trkpt>
<trkpt lat="51.683262" lon="03.839096"><ele>6</ele><time>2021-01-07T12:44:58Z</time><cmt>3.3 kmh</cmt></trkpt>
<trkpt lat="51.683259" lon="03.839109"><ele>6</ele><time>2021-01-07T12:44:59Z</time><cmt>3.6 kmh</cmt></trkpt>
<trkpt lat="51.683255" lon="03.839123"><ele>5</ele><time>2021-01-07T12:45:00Z</time><cmt>3.9 kmh</cmt></trkpt>
<trkpt lat="51.683251" lon="03.839137"><ele>5</ele><time>2021-01-07T12:45:01Z</time><cmt>4.0 kmh</cmt></trkpt>
<trkpt lat="51.683247" lon="03.839151"><ele>5</ele><time>2021-01-07T12:45:02Z</time><cmt>3.3 kmh</cmt></trkpt>
<trkpt lat="51.683243" lon="03.839164"><ele>5</ele><time>2021-01-07T12:45:03Z</time><cmt>3.2 kmh</cmt></trkpt>
<trkpt lat="51.683239" lon="03.839176"><ele>5</ele><time>2021-01-07T12:45:04Z</time><cmt>3.8 kmh</cmt></trkpt>
<trkpt lat="51.683236" lon="03.839190"><ele>5</ele><time>2021-01-07T12:45:05Z</time><cmt>3.7 kmh</cmt></trkpt>
<trkpt lat="51.683233" lon="03.839205"><ele>4</ele><time>2021-01-07T12:45:06Z</time><cmt>4.0 kmh</cmt></trkpt>
<trkpt lat="51.683229" lon="03.839220"><ele>4</ele><time>2021-01-07T12:45:07Z</time><cmt>4.3 kmh</cmt></trkpt>
<trkpt lat="51.683225" lon="03.839235"><ele>4</ele><time>2021-01-07T12:45:08Z</time><cmt>4.4 kmh</cmt></trkpt>
<trkpt lat="51.683220" lon="03.839250"><ele>4</ele><time>2021-01-07T12:45:09Z</time><cmt>3.6 kmh</cmt></trkpt>
<trkpt lat="51.683215" lon="03.839265"><ele>4</ele><time>2021-01-07T12:45:10Z</time><cmt>3.7 kmh</cmt></trkpt>
<trkpt lat="51.683210" lon="03.839281"><ele>4</ele><time>2021-01-07T12:45:11Z</time><cmt>4.6 kmh</cmt></trkpt>
<trkpt lat="51.683206" lon="03.839296"><ele>4</ele><time>2021-01-07T12:45:12Z</time><cmt>4.6 kmh</cmt></trkpt>
<trkpt lat="51.683202" lon="03.839311"><ele>4</ele><time>2021-01-07T12:45:13Z</time><cmt>4.4 kmh</cmt></trkpt>
<trkpt lat="51.683198" lon="03.839325"><ele>4</ele><time>2021-01-07T12:45:14Z</time><cmt>4.2 kmh</cmt></trkpt>
<trkpt lat="51.683194" lon="03.839340"><ele>4</ele><time>2021-01-07T12:45:15Z</time><cmt>3.4 kmh</cmt></trkpt>
<trkpt lat="51.683190" lon="03.839355"><ele>3</ele><time>2021-01-07T12:45:16Z</time><cmt>3.6 kmh</cmt></trkpt>
<trkpt lat="51.683186" lon="03.839370"><ele>3</ele><time>2021-01-07T12:45:17Z</time><cmt>4.4 kmh</cmt></trkpt>
<trkpt lat="51.683183" lon="03.839383"><ele>3</ele><time>2021-01-07T12:45:18Z</time><cmt>4.0 kmh</cmt></trkpt>
<trkpt lat="51.683181" lon="03.839394"><ele>3</ele><time>2021-01-07T12:45:19Z</time><cmt>3.4 kmh</cmt></trkpt>
<trkpt lat="51.683179" lon="03.839405"><ele>3</ele><time>2021-01-07T12:45:20Z</time><cmt>3.0 kmh</cmt></trkpt>
<trkpt lat="51.683178" lon="03.839415"><ele>3</ele><time>2021-01-07T12:45:21Z</time><cmt>2.3 kmh</cmt></trkpt>
<trkpt lat="51.683176" lon="03.839428"><ele>3</ele><time>2021-01-07T12:45:22Z</time><cmt>2.6 kmh</cmt></trkpt>
<trkpt lat="51.683172" lon="03.839442"><ele>3</ele><time>2021-01-07T12:45:23Z</time><cmt>3.9 kmh</cmt></trkpt>
<trkpt lat="51.683167" lon="03.839457"><ele>3</ele><time>2021-01-07T12:45:24Z</time><cmt>4.3 kmh</cmt></trkpt>
<trkpt lat="51.683164" lon="03.839470"><ele>2</ele><time>2021-01-07T12:45:25Z</time><cmt>4.1 kmh</cmt></trkpt>
<trkpt lat="51.683158" lon="03.839483"><ele>2</ele><time>2021-01-07T12:45:26Z</time><cmt>4.0 kmh</cmt></trkpt>
<trkpt lat="51.683153" lon="03.839490"><ele>3</ele><time>2021-01-07T12:45:27Z</time><cmt>3.5 kmh</cmt></trkpt>
<trkpt lat="51.683147" lon="03.839506"><ele>3</ele><time>2021-01-07T12:45:28Z</time><cmt>3.2 kmh</cmt></trkpt>
<trkpt lat="51.683143" lon="03.839519"><ele>3</ele><time>2021-01-07T12:45:29Z</time><cmt>3.6 kmh</cmt></trkpt>
<trkpt lat="51.683139" lon="03.839533"><ele>3</ele><time>2021-01-07T12:45:30Z</time><cmt>3.9 kmh</cmt></trkpt>
<trkpt lat="51.683134" lon="03.839546"><ele>3</ele><time>2021-01-07T12:45:31Z</time><cmt>4.0 kmh</cmt></trkpt>
<trkpt lat="51.683130" lon="03.839559"><ele>3</ele><time>2021-01-07T12:45:32Z</time><cmt>4.0 kmh</cmt></trkpt>
<trkpt lat="51.683126" lon="03.839572"><ele>3</ele><time>2021-01-07T12:45:33Z</time><cmt>3.9 kmh</cmt></trkpt>
<trkpt lat="51.683121" lon="03.839585"><ele>3</ele><time>2021-01-07T12:45:34Z</time><cmt>3.1 kmh</cmt></trkpt>
<trkpt lat="51.683117" lon="03.839596"><ele>3</ele><time>2021-01-07T12:45:35Z</time><cmt>3.0 kmh</cmt></trkpt>
<trkpt lat="51.683114" lon="03.839610"><ele>3</ele><time>2021-01-07T12:45:36Z</time><cmt>3.7 kmh</cmt></trkpt>
<trkpt lat="51.683112" lon="03.839624"><ele>3</ele><time>2021-01-07T12:45:37Z</time><cmt>3.9 kmh</cmt></trkpt>
<trkpt lat="51.683109" lon="03.839639"><ele>3</ele><time>2021-01-07T12:45:38Z</time><cmt>4.1 kmh</cmt></trkpt>
<trkpt lat="51.683106" lon="03.839653"><ele>3</ele><time>2021-01-07T12:45:39Z</time><cmt>4.0 kmh</cmt></trkpt>
<trkpt lat="51.683103" lon="03.839668"><ele>3</ele><time>2021-01-07T12:45:40Z</time><cmt>3.2 kmh</cmt></trkpt>
<trkpt lat="51.683099" lon="03.839682"><ele>3</ele><time>2021-01-07T12:45:41Z</time><cmt>3.4 kmh</cmt></trkpt>
<trkpt lat="51.683094" lon="03.839697"><ele>3</ele><time>2021-01-07T12:45:42Z</time><cmt>4.3 kmh</cmt></trkpt>
<trkpt lat="51.683090" lon="03.839712"><ele>3</ele><time>2021-01-07T12:45:43Z</time><cmt>4.3 kmh</cmt></trkpt>
<trkpt lat="51.683085" lon="03.839726"><ele>3</ele><time>2021-01-07T12:45:44Z</time><cmt>4.4 kmh</cmt></trkpt>
<trkpt lat="51.683081" lon="03.839739"><ele>3</ele><time>2021-01-07T12:45:45Z</time><cmt>4.1 kmh</cmt></trkpt>
<trkpt lat="51.683077" lon="03.839751"><ele>3</ele><time>2021-01-07T12:45:46Z</time><cmt>3.8 kmh</cmt></trkpt>
<trkpt lat="51.683074" lon="03.839765"><ele>3</ele><time>2021-01-07T12:45:47Z</time><cmt>3.1 kmh</cmt></trkpt>
<trkpt lat="51.683070" lon="03.839780"><ele>3</ele><time>2021-01-07T12:45:48Z</time><cmt>3.3 kmh</cmt></trkpt>
<trkpt lat="51.683067" lon="03.839795"><ele>3</ele><time>2021-01-07T12:45:49Z</time><cmt>4.3 kmh</cmt></trkpt>
<trkpt lat="51.683063" lon="03.839811"><ele>3</ele><time>2021-01-07T12:45:50Z</time><cmt>4.3 kmh</cmt></trkpt>
<trkpt lat="51.683059" lon="03.839826"><ele>3</ele><time>2021-01-07T12:45:51Z</time><cmt>4.3 kmh</cmt></trkpt>
<trkpt lat="51.683055" lon="03.839841"><ele>3</ele><time>2021-01-07T12:45:52Z</time><cmt>4.4 kmh</cmt></trkpt>
<trkpt lat="51.683051" lon="03.839856"><ele>3</ele><time>2021-01-07T12:45:53Z</time><cmt>3.5 kmh</cmt></trkpt>
<trkpt lat="51.683047" lon="03.839871"><ele>3</ele><time>2021-01-07T12:45:54Z</time><cmt>3.5 kmh</cmt></trkpt>
<trkpt lat="51.683042" lon="03.839886"><ele>3</ele><time>2021-01-07T12:45:55Z</time><cmt>4.4 kmh</cmt></trkpt>
<trkpt lat="51.683038" lon="03.839900"><ele>3</ele><time>2021-01-07T12:45:56Z</time><cmt>4.4 kmh</cmt></trkpt>
<trkpt lat="51.683033" lon="03.839913"><ele>3</ele><time>2021-01-07T12:45:57Z</time><cmt>4.1 kmh</cmt></trkpt>
<trkpt lat="51.683030" lon="03.839926"><ele>3</ele><time>2021-01-07T12:45:58Z</time><cmt>3.8 kmh</cmt></trkpt>
<trkpt lat="51.683026" lon="03.839937"><ele>3</ele><time>2021-01-07T12:45:59Z</time><cmt>2.8 kmh</cmt></trkpt>
<trkpt lat="51.683023" lon="03.839948"><ele>3</ele><time>2021-01-07T12:46:00Z</time><cmt>2.6 kmh</cmt></trkpt>
<trkpt lat="51.683022" lon="03.839956"><ele>3</ele><time>2021-01-07T12:46:01Z</time><cmt>2.7 kmh</cmt></trkpt>
<trkpt lat="51.683017" lon="03.839968"><ele>3</ele><time>2021-01-07T12:46:02Z</time><cmt>3.0 kmh</cmt></trkpt>
<trkpt lat="51.683015" lon="03.839975"><ele>3</ele><time>2021-01-07T12:46:03Z</time><cmt>3.0 kmh</cmt></trkpt>
<trkpt lat="51.683014" lon="03.839979"><ele>3</ele><time>2021-01-07T12:46:04Z</time><cmt>1.7 kmh</cmt></trkpt>
<trkpt lat="51.683011" lon="03.839983"><ele>3</ele><time>2021-01-07T12:46:05Z</time><cmt>1.2 kmh</cmt></trkpt>
<trkpt lat="51.683009" lon="03.839989"><ele>3</ele><time>2021-01-07T12:46:06Z</time><cmt>1.4 kmh</cmt></trkpt>
<trkpt lat="51.683008" lon="03.839996"><ele>3</ele><time>2021-01-07T12:46:07Z</time><cmt>1.6 kmh</cmt></trkpt>
<trkpt lat="51.683008" lon="03.840000"><ele>3</ele><time>2021-01-07T12:46:08Z</time><cmt>1.4 kmh</cmt></trkpt>
<trkpt lat="51.683008" lon="03.840001"><ele>3</ele><time>2021-01-07T12:46:09Z</time><cmt>0.8 kmh</cmt></trkpt>
<trkpt lat="51.683009" lon="03.840001"><ele>3</ele><time>2021-01-07T12:46:10Z</time><cmt>0.4 kmh</cmt></trkpt>
<trkpt lat="51.683010" lon="03.840001"><ele>3</ele><time>2021-01-07T12:46:11Z</time><cmt>0.2 kmh</cmt></trkpt>
<trkpt lat="51.683010" lon="03.840001"><ele>3</ele><time>2021-01-07T12:46:12Z</time><cmt>0.0 kmh</cmt></trkpt>
<trkpt lat="51.683010" lon="03.840000"><ele>3</ele><time>2021-01-07T12:46:13Z</time><cmt>0.0 kmh</cmt></trkpt>
<trkpt lat="51.683011" lon="03.840000"><ele>3</ele><time>2021-01-07T12:46:14Z</time><cmt>0.0 kmh</cmt></trkpt>
<trkpt lat="51.683011" lon="03.840000"><ele>3</ele><time>2021-01-07T12:46:15Z</time><cmt>0.0 kmh</cmt></trkpt>
<trkpt lat="51.683011" lon="03.839999"><ele>3</ele><time>2021-01-07T12:46:16Z</time><cmt>0.0 kmh</cmt></trkpt>
<trkpt lat="51.683011" lon="03.839999"><ele>3</ele><time>2021-01-07T12:46:17Z</time><cmt>0.0 kmh</cmt></trkpt>
<trkpt lat="51.683012" lon="03.839999"><ele>3</ele><time>2021-01-07T12:46:18Z</time><cmt>0.0 kmh</cmt></trkpt>
<trkpt lat="51.683012" lon="03.839999"><ele>3</ele><time>2021-01-07T12:46:19Z</time><cmt>0.0 kmh</cmt></trkpt>
<trkpt lat="51.683012" lon="03.839999"><ele>3</ele><time>2021-01-07T12:46:20Z</time><cmt>0.0 kmh</cmt></trkpt>
<trkpt lat="51.683012" lon="03.839999"><ele>3</ele><time>2021-01-07T12:46:21Z</time><cmt>0.0 kmh</cmt></trkpt>
<trkpt lat="51.683012" lon="03.839999"><ele>3</ele><time>2021-01-07T12:46:22Z</time><cmt>0.0 kmh</cmt></trkpt>
<trkpt lat="51.683012" lon="03.839998"><ele>3</ele><time>2021-01-07T12:46:23Z</time><cmt>0.0 kmh</cmt></trkpt>
<trkpt lat="51.683012" lon="03.839998"><ele>3</ele><time>2021-01-07T12:46:24Z</time><cmt>0.0 kmh</cmt></trkpt>
<trkpt lat="51.683012" lon="03.839998"><ele>3</ele><time>2021-01-07T12:46:25Z</time><cmt>0.0 kmh</cmt></trkpt>
<trkpt lat="51.683012" lon="03.839998"><ele>3</ele><time>2021-01-07T12:46:26Z</time><cmt>0.0 kmh</cmt></trkpt>
<trkpt lat="51.683012" lon="03.839998"><ele>3</ele><time>2021-01-07T12:46:29Z</time><cmt>0.0 kmh</cmt></trkpt>
<trkpt lat="51.683012" lon="03.839998"><ele>3</ele><time>2021-01-07T12:46:31Z</time><cmt>0.0 kmh</cmt></trkpt>
<trkpt lat="51.683012" lon="03.839998"><ele>3</ele><time>2021-01-07T12:46:33Z</time><cmt>0.0 kmh</cmt></trkpt>
<trkpt lat="51.683012" lon="03.839998"><ele>3</ele><time>2021-01-07T12:46:34Z</time><cmt>0.0 kmh</cmt></trkpt>
<trkpt lat="51.683012" lon="03.839998"><ele>3</ele><time>2021-01-07T12:46:36Z</time><cmt>0.0 kmh</cmt></trkpt>
<trkpt lat="51.683012" lon="03.839999"><ele>3</ele><time>2021-01-07T12:46:37Z</time><cmt>0.0 kmh</cmt></trkpt>
<trkpt lat="51.683012" lon="03.839999"><ele>3</ele><time>2021-01-07T12:46:38Z</time><cmt>0.0 kmh</cmt></trkpt>
<trkpt lat="51.683012" lon="03.839999"><ele>3</ele><time>2021-01-07T12:46:39Z</time><cmt>0.0 kmh</cmt></trkpt>
<trkpt lat="51.683012" lon="03.839998"><ele>3</ele><time>2021-01-07T12:46:40Z</time><cmt>0.0 kmh</cmt></trkpt>
<trkpt lat="51.683012" lon="03.839998"><ele>3</ele><time>2021-01-07T12:46:43Z</time><cmt>0.0 kmh</cmt></trkpt>
<trkpt lat="51.683012" lon="03.839998"><ele>3</ele><time>2021-01-07T12:46:44Z</time><cmt>0.0 kmh</cmt></trkpt>
<trkpt lat="51.683012" lon="03.839998"><ele>3</ele><time>2021-01-07T12:46:45Z</time><cmt>0.0 kmh</cmt></trkpt>
<trkpt lat="51.683012" lon="03.839998"><ele>3</ele><time>2021-01-07T12:46:46Z</time><cmt>0.0 kmh</cmt></trkpt>
<trkpt lat="51.683012" lon="03.839999"><ele>3</ele><time>2021-01-07T12:46:47Z</time><cmt>0.0 kmh</cmt></trkpt>
<trkpt lat="51.683012" lon="03.839999"><ele>3</ele><time>2021-01-07T12:46:48Z</time><cmt>0.0 kmh</cmt></trkpt>
<trkpt lat="51.683012" lon="03.839999"><ele>3</ele><time>2021-01-07T12:46:49Z</time><cmt>0.0 kmh</cmt></trkpt>
<trkpt lat="51.683013" lon="03.839999"><ele>4</ele><time>2021-01-07T12:46:50Z</time><cmt>0.0 kmh</cmt></trkpt>
<trkpt lat="51.683013" lon="03.839999"><ele>4</ele><time>2021-01-07T12:46:51Z</time><cmt>0.0 kmh</cmt></trkpt>
<trkpt lat="51.683013" lon="03.839999"><ele>4</ele><time>2021-01-07T12:46:52Z</time><cmt>0.0 kmh</cmt></trkpt>
<trkpt lat="51.683013" lon="03.839999"><ele>4</ele><time>2021-01-07T12:46:53Z</time><cmt>0.0 kmh</cmt></trkpt>
<trkpt lat="51.683014" lon="03.839999"><ele>4</ele><time>2021-01-07T12:46:54Z</time><cmt>0.0 kmh</cmt></trkpt>
<trkpt lat="51.683014" lon="03.839999"><ele>4</ele><time>2021-01-07T12:46:55Z</time><cmt>0.0 kmh</cmt></trkpt>
<trkpt lat="51.683014" lon="03.839999"><ele>4</ele><time>2021-01-07T12:46:56Z</time><cmt>0.0 kmh</cmt></trkpt>
<trkpt lat="51.683014" lon="03.839999"><ele>4</ele><time>2021-01-07T12:46:57Z</time><cmt>0.0 kmh</cmt></trkpt>
<trkpt lat="51.683015" lon="03.839999"><ele>4</ele><time>2021-01-07T12:46:58Z</time><cmt>0.0 kmh</cmt></trkpt>
<trkpt lat="51.683015" lon="03.839999"><ele>4</ele><time>2021-01-07T12:46:59Z</time><cmt>0.0 kmh</cmt></trkpt>
<trkpt lat="51.683015" lon="03.839999"><ele>4</ele><time>2021-01-07T12:47:00Z</time><cmt>0.0 kmh</cmt></trkpt>
<trkpt lat="51.683015" lon="03.840000"><ele>4</ele><time>2021-01-07T12:47:01Z</time><cmt>0.0 kmh</cmt></trkpt>
<trkpt lat="51.683013" lon="03.840003"><ele>4</ele><time>2021-01-07T12:47:02Z</time><cmt>0.4 kmh</cmt></trkpt>
<trkpt lat="51.683010" lon="03.840009"><ele>4</ele><time>2021-01-07T12:47:03Z</time><cmt>0.9 kmh</cmt></trkpt>
<trkpt lat="51.683007" lon="03.840017"><ele>4</ele><time>2021-01-07T12:47:04Z</time><cmt>1.9 kmh</cmt></trkpt>
<trkpt lat="51.683003" lon="03.840028"><ele>4</ele><time>2021-01-07T12:47:05Z</time><cmt>3.0 kmh</cmt></trkpt>
<trkpt lat="51.682999" lon="03.840042"><ele>4</ele><time>2021-01-07T12:47:06Z</time><cmt>3.7 kmh</cmt></trkpt>
<trkpt lat="51.682995" lon="03.840056"><ele>4</ele><time>2021-01-07T12:47:07Z</time><cmt>4.1 kmh</cmt></trkpt>
<trkpt lat="51.682991" lon="03.840071"><ele>4</ele><time>2021-01-07T12:47:08Z</time><cmt>4.2 kmh</cmt></trkpt>
<trkpt lat="51.682987" lon="03.840086"><ele>4</ele><time>2021-01-07T12:47:09Z</time><cmt>3.5 kmh</cmt></trkpt>
<trkpt lat="51.682983" lon="03.840100"><ele>4</ele><time>2021-01-07T12:47:10Z</time><cmt>3.5 kmh</cmt></trkpt>
<trkpt lat="51.682979" lon="03.840115"><ele>4</ele><time>2021-01-07T12:47:11Z</time><cmt>4.3 kmh</cmt></trkpt>
<trkpt lat="51.682975" lon="03.840129"><ele>4</ele><time>2021-01-07T12:47:12Z</time><cmt>4.3 kmh</cmt></trkpt>
<trkpt lat="51.682970" lon="03.840144"><ele>4</ele><time>2021-01-07T12:47:13Z</time><cmt>4.4 kmh</cmt></trkpt>
<trkpt lat="51.682965" lon="03.840156"><ele>4</ele><time>2021-01-07T12:47:14Z</time><cmt>4.1 kmh</cmt></trkpt>
<trkpt lat="51.682962" lon="03.840169"><ele>4</ele><time>2021-01-07T12:47:15Z</time><cmt>3.8 kmh</cmt></trkpt>
<trkpt lat="51.682957" lon="03.840182"><ele>4</ele><time>2021-01-07T12:47:16Z</time><cmt>3.1 kmh</cmt></trkpt>
<trkpt lat="51.682953" lon="03.840197"><ele>4</ele><time>2021-01-07T12:47:17Z</time><cmt>3.4 kmh</cmt></trkpt>
<trkpt lat="51.682949" lon="03.840211"><ele>4</ele><time>2021-01-07T12:47:18Z</time><cmt>4.2 kmh</cmt></trkpt>
<trkpt lat="51.682946" lon="03.840225"><ele>4</ele><time>2021-01-07T12:47:19Z</time><cmt>4.1 kmh</cmt></trkpt>
<trkpt lat="51.682942" lon="03.840239"><ele>4</ele><time>2021-01-07T12:47:20Z</time><cmt>4.1 kmh</cmt></trkpt>
<trkpt lat="51.682938" lon="03.840253"><ele>4</ele><time>2021-01-07T12:47:21Z</time><cmt>4.0 kmh</cmt></trkpt>
<trkpt lat="51.682934" lon="03.840266"><ele>4</ele><time>2021-01-07T12:47:22Z</time><cmt>3.2 kmh</cmt></trkpt>
<trkpt lat="51.682931" lon="03.840278"><ele>4</ele><time>2021-01-07T12:47:23Z</time><cmt>3.0 kmh</cmt></trkpt>
<trkpt lat="51.682927" lon="03.840291"><ele>4</ele><time>2021-01-07T12:47:24Z</time><cmt>3.6 kmh</cmt></trkpt>
<trkpt lat="51.682923" lon="03.840304"><ele>4</ele><time>2021-01-07T12:47:25Z</time><cmt>3.8 kmh</cmt></trkpt>
<trkpt lat="51.682920" lon="03.840317"><ele>4</ele><time>2021-01-07T12:47:26Z</time><cmt>3.8 kmh</cmt></trkpt>
<trkpt lat="51.682917" lon="03.840330"><ele>4</ele><time>2021-01-07T12:47:27Z</time><cmt>3.8 kmh</cmt></trkpt>
<trkpt lat="51.682913" lon="03.840342"><ele>4</ele><time>2021-01-07T12:47:28Z</time><cmt>3.0 kmh</cmt></trkpt>
<trkpt lat="51.682910" lon="03.840354"><ele>4</ele><time>2021-01-07T12:47:29Z</time><cmt>2.8 kmh</cmt></trkpt>
<trkpt lat="51.682907" lon="03.840366"><ele>4</ele><time>2021-01-07T12:47:30Z</time><cmt>3.4 kmh</cmt></trkpt>
<trkpt lat="51.682903" lon="03.840378"><ele>4</ele><time>2021-01-07T12:47:31Z</time><cmt>3.5 kmh</cmt></trkpt>
<trkpt lat="51.682900" lon="03.840390"><ele>4</ele><time>2021-01-07T12:47:32Z</time><cmt>3.5 kmh</cmt></trkpt>
<trkpt lat="51.682897" lon="03.840402"><ele>4</ele><time>2021-01-07T12:47:33Z</time><cmt>3.5 kmh</cmt></trkpt>
<trkpt lat="51.682894" lon="03.840415"><ele>4</ele><time>2021-01-07T12:47:34Z</time><cmt>3.7 kmh</cmt></trkpt>
<trkpt lat="51.682891" lon="03.840428"><ele>4</ele><time>2021-01-07T12:47:35Z</time><cmt>3.0 kmh</cmt></trkpt>
<trkpt lat="51.682888" lon="03.840441"><ele>4</ele><time>2021-01-07T12:47:36Z</time><cmt>3.0 kmh</cmt></trkpt>
<trkpt lat="51.682885" lon="03.840454"><ele>4</ele><time>2021-01-07T12:47:37Z</time><cmt>3.7 kmh</cmt></trkpt>
<trkpt lat="51.682882" lon="03.840466"><ele>4</ele><time>2021-01-07T12:47:38Z</time><cmt>3.6 kmh</cmt></trkpt>
<trkpt lat="51.682879" lon="03.840477"><ele>3</ele><time>2021-01-07T12:47:39Z</time><cmt>3.4 kmh</cmt></trkpt>
<trkpt lat="51.682875" lon="03.840488"><ele>3</ele><time>2021-01-07T12:47:40Z</time><cmt>3.2 kmh</cmt></trkpt>
<trkpt lat="51.682872" lon="03.840496"><ele>3</ele><time>2021-01-07T12:47:41Z</time><cmt>2.3 kmh</cmt></trkpt>
<trkpt lat="51.682870" lon="03.840502"><ele>4</ele><time>2021-01-07T12:47:42Z</time><cmt>1.7 kmh</cmt></trkpt>
<trkpt lat="51.682868" lon="03.840507"><ele>4</ele><time>2021-01-07T12:47:43Z</time><cmt>1.7 kmh</cmt></trkpt>
<trkpt lat="51.682868" lon="03.840511"><ele>4</ele><time>2021-01-07T12:47:44Z</time><cmt>1.3 kmh</cmt></trkpt>
<trkpt lat="51.682867" lon="03.840513"><ele>4</ele><time>2021-01-07T12:47:45Z</time><cmt>0.9 kmh</cmt></trkpt>
<trkpt lat="51.682867" lon="03.840516"><ele>4</ele><time>2021-01-07T12:47:46Z</time><cmt>0.7 kmh</cmt></trkpt>
<trkpt lat="51.682866" lon="03.840517"><ele>4</ele><time>2021-01-07T12:47:47Z</time><cmt>0.5 kmh</cmt></trkpt>
<trkpt lat="51.682866" lon="03.840519"><ele>4</ele><time>2021-01-07T12:47:48Z</time><cmt>0.5 kmh</cmt></trkpt>
<trkpt lat="51.682864" lon="03.840523"><ele>4</ele><time>2021-01-07T12:47:49Z</time><cmt>1.0 kmh</cmt></trkpt>
<trkpt lat="51.682861" lon="03.840532"><ele>5</ele><time>2021-01-07T12:47:50Z</time><cmt>2.0 kmh</cmt></trkpt>
<trkpt lat="51.682857" lon="03.840544"><ele>5</ele><time>2021-01-07T12:47:51Z</time><cmt>3.2 kmh</cmt></trkpt>
<trkpt lat="51.682853" lon="03.840556"><ele>5</ele><time>2021-01-07T12:47:52Z</time><cmt>3.7 kmh</cmt></trkpt>
<trkpt lat="51.682849" lon="03.840569"><ele>5</ele><time>2021-01-07T12:47:53Z</time><cmt>3.8 kmh</cmt></trkpt>
<trkpt lat="51.682845" lon="03.840582"><ele>5</ele><time>2021-01-07T12:47:54Z</time><cmt>3.0 kmh</cmt></trkpt>
<trkpt lat="51.682841" lon="03.840594"><ele>5</ele><time>2021-01-07T12:47:55Z</time><cmt>3.1 kmh</cmt></trkpt>
<trkpt lat="51.682837" lon="03.840606"><ele>5</ele><time>2021-01-07T12:47:56Z</time><cmt>3.7 kmh</cmt></trkpt>
<trkpt lat="51.682834" lon="03.840619"><ele>5</ele><time>2021-01-07T12:47:57Z</time><cmt>3.6 kmh</cmt></trkpt>
<trkpt lat="51.682831" lon="03.840631"><ele>5</ele><time>2021-01-07T12:47:58Z</time><cmt>3.5 kmh</cmt></trkpt>
<trkpt lat="51.682827" lon="03.840642"><ele>5</ele><time>2021-01-07T12:47:59Z</time><cmt>3.5 kmh</cmt></trkpt>
<trkpt lat="51.682824" lon="03.840655"><ele>5</ele><time>2021-01-07T12:48:00Z</time><cmt>2.9 kmh</cmt></trkpt>
<trkpt lat="51.682820" lon="03.840669"><ele>5</ele><time>2021-01-07T12:48:01Z</time><cmt>3.2 kmh</cmt></trkpt>
<trkpt lat="51.682816" lon="03.840684"><ele>5</ele><time>2021-01-07T12:48:02Z</time><cmt>4.2 kmh</cmt></trkpt>
<trkpt lat="51.682813" lon="03.840698"><ele>4</ele><time>2021-01-07T12:48:03Z</time><cmt>4.2 kmh</cmt></trkpt>
<trkpt lat="51.682809" lon="03.840713"><ele>4</ele><time>2021-01-07T12:48:04Z</time><cmt>4.2 kmh</cmt></trkpt>
<trkpt lat="51.682805" lon="03.840727"><ele>4</ele><time>2021-01-07T12:48:05Z</time><cmt>4.1 kmh</cmt></trkpt>
<trkpt lat="51.682802" lon="03.840738"><ele>4</ele><time>2021-01-07T12:48:06Z</time><cmt>3.7 kmh</cmt></trkpt>
<trkpt lat="51.682799" lon="03.840748"><ele>4</ele><time>2021-01-07T12:48:07Z</time><cmt>2.5 kmh</cmt></trkpt>
<trkpt lat="51.682797" lon="03.840759"><ele>4</ele><time>2021-01-07T12:48:08Z</time><cmt>2.4 kmh</cmt></trkpt>
<trkpt lat="51.682794" lon="03.840771"><ele>4</ele><time>2021-01-07T12:48:09Z</time><cmt>3.2 kmh</cmt></trkpt>
<trkpt lat="51.682790" lon="03.840783"><ele>4</ele><time>2021-01-07T12:48:10Z</time><cmt>3.5 kmh</cmt></trkpt>
<trkpt lat="51.682786" lon="03.840795"><ele>4</ele><time>2021-01-07T12:48:11Z</time><cmt>3.6 kmh</cmt></trkpt>
<trkpt lat="51.682782" lon="03.840805"><ele>4</ele><time>2021-01-07T12:48:12Z</time><cmt>3.5 kmh</cmt></trkpt>
<trkpt lat="51.682779" lon="03.840816"><ele>4</ele><time>2021-01-07T12:48:13Z</time><cmt>2.6 kmh</cmt></trkpt>
<trkpt lat="51.682776" lon="03.840828"><ele>4</ele><time>2021-01-07T12:48:14Z</time><cmt>2.7 kmh</cmt></trkpt>
<trkpt lat="51.682774" lon="03.840833"><ele>4</ele><time>2021-01-07T12:48:15Z</time><cmt>2.6 kmh</cmt></trkpt>
<trkpt lat="51.682773" lon="03.840834"><ele>4</ele><time>2021-01-07T12:48:16Z</time><cmt>0.8 kmh</cmt></trkpt>
<trkpt lat="51.682772" lon="03.840834"><ele>4</ele><time>2021-01-07T12:48:17Z</time><cmt>0.2 kmh</cmt></trkpt>
<trkpt lat="51.682770" lon="03.840837"><ele>4</ele><time>2021-01-07T12:48:18Z</time><cmt>0.7 kmh</cmt></trkpt>
<trkpt lat="51.682768" lon="03.840844"><ele>4</ele><time>2021-01-07T12:48:19Z</time><cmt>1.3 kmh</cmt></trkpt>
<trkpt lat="51.682766" lon="03.840855"><ele>4</ele><time>2021-01-07T12:48:20Z</time><cmt>2.1 kmh</cmt></trkpt>
<trkpt lat="51.682763" lon="03.840868"><ele>4</ele><time>2021-01-07T12:48:21Z</time><cmt>3.3 kmh</cmt></trkpt>
<trkpt lat="51.682759" lon="03.840882"><ele>4</ele><time>2021-01-07T12:48:22Z</time><cmt>3.9 kmh</cmt></trkpt>
<trkpt lat="51.682755" lon="03.840897"><ele>4</ele><time>2021-01-07T12:48:23Z</time><cmt>4.2 kmh</cmt></trkpt>
<trkpt lat="51.682750" lon="03.840911"><ele>4</ele><time>2021-01-07T12:48:24Z</time><cmt>4.3 kmh</cmt></trkpt>
<trkpt lat="51.682746" lon="03.840926"><ele>4</ele><time>2021-01-07T12:48:25Z</time><cmt>4.3 kmh</cmt></trkpt>
<trkpt lat="51.682743" lon="03.840941"><ele>4</ele><time>2021-01-07T12:48:26Z</time><cmt>3.4 kmh</cmt></trkpt>
<trkpt lat="51.682739" lon="03.840956"><ele>4</ele><time>2021-01-07T12:48:27Z</time><cmt>3.5 kmh</cmt></trkpt>
<trkpt lat="51.682736" lon="03.840971"><ele>4</ele><time>2021-01-07T12:48:28Z</time><cmt>4.3 kmh</cmt></trkpt>
<trkpt lat="51.682734" lon="03.840987"><ele>3</ele><time>2021-01-07T12:48:29Z</time><cmt>4.4 kmh</cmt></trkpt>
<trkpt lat="51.682731" lon="03.841004"><ele>3</ele><time>2021-01-07T12:48:30Z</time><cmt>4.4 kmh</cmt></trkpt>
<trkpt lat="51.682728" lon="03.841018"><ele>3</ele><time>2021-01-07T12:48:31Z</time><cmt>4.3 kmh</cmt></trkpt>
<trkpt lat="51.682723" lon="03.841033"><ele>3</ele><time>2021-01-07T12:48:32Z</time><cmt>3.4 kmh</cmt></trkpt>
<trkpt lat="51.682719" lon="03.841047"><ele>3</ele><time>2021-01-07T12:48:33Z</time><cmt>3.4 kmh</cmt></trkpt>
<trkpt lat="51.682714" lon="03.841061"><ele>3</ele><time>2021-01-07T12:48:34Z</time><cmt>4.3 kmh</cmt></trkpt>
<trkpt lat="51.682707" lon="03.841079"><ele>3</ele><time>2021-01-07T12:48:35Z</time><cmt>5.0 kmh</cmt></trkpt>
<trkpt lat="51.682702" lon="03.841097"><ele>3</ele><time>2021-01-07T12:48:36Z</time><cmt>5.0 kmh</cmt></trkpt>
<trkpt lat="51.682698" lon="03.841115"><ele>3</ele><time>2021-01-07T12:48:37Z</time><cmt>5.0 kmh</cmt></trkpt>
<trkpt lat="51.682693" lon="03.841133"><ele>3</ele><time>2021-01-07T12:48:38Z</time><cmt>4.1 kmh</cmt></trkpt>
<trkpt lat="51.682688" lon="03.841152"><ele>3</ele><time>2021-01-07T12:48:39Z</time><cmt>4.3 kmh</cmt></trkpt>
<trkpt lat="51.682683" lon="03.841169"><ele>3</ele><time>2021-01-07T12:48:40Z</time><cmt>5.0 kmh</cmt></trkpt>
<trkpt lat="51.682678" lon="03.841184"><ele>3</ele><time>2021-01-07T12:48:41Z</time><cmt>4.9 kmh</cmt></trkpt>
<trkpt lat="51.682673" lon="03.841199"><ele>3</ele><time>2021-01-07T12:48:42Z</time><cmt>4.6 kmh</cmt></trkpt>
<trkpt lat="51.682668" lon="03.841214"><ele>3</ele><time>2021-01-07T12:48:43Z</time><cmt>4.5 kmh</cmt></trkpt>
<trkpt lat="51.682663" lon="03.841230"><ele>3</ele><time>2021-01-07T12:48:44Z</time><cmt>4.8 kmh</cmt></trkpt>
<trkpt lat="51.682659" lon="03.841246"><ele>3</ele><time>2021-01-07T12:48:45Z</time><cmt>3.8 kmh</cmt></trkpt>
<trkpt lat="51.682654" lon="03.841262"><ele>3</ele><time>2021-01-07T12:48:46Z</time><cmt>3.7 kmh</cmt></trkpt>
<trkpt lat="51.682650" lon="03.841280"><ele>3</ele><time>2021-01-07T12:48:47Z</time><cmt>4.9 kmh</cmt></trkpt>
<trkpt lat="51.682645" lon="03.841297"><ele>3</ele><time>2021-01-07T12:48:48Z</time><cmt>5.0 kmh</cmt></trkpt>
<trkpt lat="51.682640" lon="03.841313"><ele>3</ele><time>2021-01-07T12:48:49Z</time><cmt>4.9 kmh</cmt></trkpt>
<trkpt lat="51.682636" lon="03.841329"><ele>3</ele><time>2021-01-07T12:48:50Z</time><cmt>4.7 kmh</cmt></trkpt>
<trkpt lat="51.682631" lon="03.841344"><ele>3</ele><time>2021-01-07T12:48:51Z</time><cmt>3.7 kmh</cmt></trkpt>
<trkpt lat="51.682627" lon="03.841359"><ele>3</ele><time>2021-01-07T12:48:52Z</time><cmt>3.6 kmh</cmt></trkpt>
<trkpt lat="51.682622" lon="03.841374"><ele>3</ele><time>2021-01-07T12:48:53Z</time><cmt>4.4 kmh</cmt></trkpt>
<trkpt lat="51.682617" lon="03.841389"><ele>3</ele><time>2021-01-07T12:48:54Z</time><cmt>4.5 kmh</cmt></trkpt>
<trkpt lat="51.682613" lon="03.841405"><ele>3</ele><time>2021-01-07T12:48:55Z</time><cmt>4.7 kmh</cmt></trkpt>
<trkpt lat="51.682609" lon="03.841422"><ele>3</ele><time>2021-01-07T12:48:56Z</time><cmt>4.8 kmh</cmt></trkpt>
<trkpt lat="51.682605" lon="03.841440"><ele>3</ele><time>2021-01-07T12:48:57Z</time><cmt>3.9 kmh</cmt></trkpt>
<trkpt lat="51.682601" lon="03.841457"><ele>3</ele><time>2021-01-07T12:48:58Z</time><cmt>3.9 kmh</cmt></trkpt>
<trkpt lat="51.682596" lon="03.841473"><ele>3</ele><time>2021-01-07T12:48:59Z</time><cmt>4.9 kmh</cmt></trkpt>
<trkpt lat="51.682591" lon="03.841489"><ele>3</ele><time>2021-01-07T12:49:00Z</time><cmt>4.9 kmh</cmt></trkpt>
<trkpt lat="51.682586" lon="03.841506"><ele>3</ele><time>2021-01-07T12:49:01Z</time><cmt>4.9 kmh</cmt></trkpt>
<trkpt lat="51.682581" lon="03.841523"><ele>3</ele><time>2021-01-07T12:49:02Z</time><cmt>5.0 kmh</cmt></trkpt>
<trkpt lat="51.682577" lon="03.841540"><ele>3</ele><time>2021-01-07T12:49:03Z</time><cmt>4.9 kmh</cmt></trkpt>
<trkpt lat="51.682573" lon="03.841556"><ele>3</ele><time>2021-01-07T12:49:04Z</time><cmt>3.8 kmh</cmt></trkpt>
<trkpt lat="51.682569" lon="03.841572"><ele>3</ele><time>2021-01-07T12:49:05Z</time><cmt>3.8 kmh</cmt></trkpt>
<trkpt lat="51.682564" lon="03.841588"><ele>3</ele><time>2021-01-07T12:49:06Z</time><cmt>4.8 kmh</cmt></trkpt>
<trkpt lat="51.682559" lon="03.841604"><ele>3</ele><time>2021-01-07T12:49:07Z</time><cmt>4.8 kmh</cmt></trkpt>
<trkpt lat="51.682554" lon="03.841620"><ele>3</ele><time>2021-01-07T12:49:08Z</time><cmt>4.7 kmh</cmt></trkpt>
<trkpt lat="51.682549" lon="03.841636"><ele>3</ele><time>2021-01-07T12:49:09Z</time><cmt>4.8 kmh</cmt></trkpt>
<trkpt lat="51.682543" lon="03.841653"><ele>3</ele><time>2021-01-07T12:49:10Z</time><cmt>5.0 kmh</cmt></trkpt>
<trkpt lat="51.682537" lon="03.841672"><ele>2</ele><time>2021-01-07T12:49:11Z</time><cmt>5.0 kmh</cmt></trkpt>
<trkpt lat="51.682533" lon="03.841689"><ele>2</ele><time>2021-01-07T12:49:12Z</time><cmt>5.0 kmh</cmt></trkpt>
<trkpt lat="51.682528" lon="03.841706"><ele>2</ele><time>2021-01-07T12:49:13Z</time><cmt>5.0 kmh</cmt></trkpt>
<trkpt lat="51.682523" lon="03.841724"><ele>2</ele><time>2021-01-07T12:49:14Z</time><cmt>5.0 kmh</cmt></trkpt>
<trkpt lat="51.682518" lon="03.841741"><ele>2</ele><time>2021-01-07T12:49:15Z</time><cmt>5.0 kmh</cmt></trkpt>
<trkpt lat="51.682513" lon="03.841758"><ele>2</ele><time>2021-01-07T12:49:16Z</time><cmt>4.0 kmh</cmt></trkpt>
<trkpt lat="51.682509" lon="03.841775"><ele>2</ele><time>2021-01-07T12:49:17Z</time><cmt>3.9 kmh</cmt></trkpt>
<trkpt lat="51.682504" lon="03.841791"><ele>2</ele><time>2021-01-07T12:49:18Z</time><cmt>4.9 kmh</cmt></trkpt>
<trkpt lat="51.682500" lon="03.841808"><ele>2</ele><time>2021-01-07T12:49:19Z</time><cmt>4.9 kmh</cmt></trkpt>
<trkpt lat="51.682495" lon="03.841825"><ele>2</ele><time>2021-01-07T12:49:20Z</time><cmt>4.9 kmh</cmt></trkpt>
<trkpt lat="51.682491" lon="03.841843"><ele>2</ele><time>2021-01-07T12:49:21Z</time><cmt>5.0 kmh</cmt></trkpt>
<trkpt lat="51.682487" lon="03.841861"><ele>2</ele><time>2021-01-07T12:49:22Z</time><cmt>5.0 kmh</cmt></trkpt>
<trkpt lat="51.682483" lon="03.841879"><ele>2</ele><time>2021-01-07T12:49:23Z</time><cmt>4.2 kmh</cmt></trkpt>
<trkpt lat="51.682478" lon="03.841897"><ele>1</ele><time>2021-01-07T12:49:24Z</time><cmt>4.2 kmh</cmt></trkpt>
<trkpt lat="51.682473" lon="03.841914"><ele>1</ele><time>2021-01-07T12:49:25Z</time><cmt>5.0 kmh</cmt></trkpt>
<trkpt lat="51.682468" lon="03.841930"><ele>1</ele><time>2021-01-07T12:49:26Z</time><cmt>4.9 kmh</cmt></trkpt>
<trkpt lat="51.682464" lon="03.841946"><ele>1</ele><time>2021-01-07T12:49:27Z</time><cmt>4.7 kmh</cmt></trkpt>
<trkpt lat="51.682459" lon="03.841962"><ele>1</ele><time>2021-01-07T12:49:28Z</time><cmt>4.8 kmh</cmt></trkpt>
<trkpt lat="51.682454" lon="03.841980"><ele>1</ele><time>2021-01-07T12:49:29Z</time><cmt>5.0 kmh</cmt></trkpt>
<trkpt lat="51.682447" lon="03.841997"><ele>1</ele><time>2021-01-07T12:49:30Z</time><cmt>5.0 kmh</cmt></trkpt>
<trkpt lat="51.682441" lon="03.842013"><ele>1</ele><time>2021-01-07T12:49:31Z</time><cmt>5.0 kmh</cmt></trkpt>
<trkpt lat="51.682436" lon="03.842028"><ele>1</ele><time>2021-01-07T12:49:32Z</time><cmt>4.9 kmh</cmt></trkpt>
<trkpt lat="51.682430" lon="03.842045"><ele>1</ele><time>2021-01-07T12:49:33Z</time><cmt>4.9 kmh</cmt></trkpt>
<trkpt lat="51.682426" lon="03.842062"><ele>1</ele><time>2021-01-07T12:49:34Z</time><cmt>5.0 kmh</cmt></trkpt>
<trkpt lat="51.682422" lon="03.842079"><ele>1</ele><time>2021-01-07T12:49:35Z</time><cmt>3.9 kmh</cmt></trkpt>
<trkpt lat="51.682419" lon="03.842096"><ele>1</ele><time>2021-01-07T12:49:36Z</time><cmt>3.9 kmh</cmt></trkpt>
<trkpt lat="51.682414" lon="03.842113"><ele>1</ele><time>2021-01-07T12:49:37Z</time><cmt>4.9 kmh</cmt></trkpt>
<trkpt lat="51.682410" lon="03.842130"><ele>1</ele><time>2021-01-07T12:49:38Z</time><cmt>5.0 kmh</cmt></trkpt>
<trkpt lat="51.682405" lon="03.842146"><ele>1</ele><time>2021-01-07T12:49:39Z</time><cmt>4.8 kmh</cmt></trkpt>
<trkpt lat="51.682401" lon="03.842160"><ele>1</ele><time>2021-01-07T12:49:40Z</time><cmt>4.3 kmh</cmt></trkpt>
<trkpt lat="51.682397" lon="03.842171"><ele>1</ele><time>2021-01-07T12:49:41Z</time><cmt>3.8 kmh</cmt></trkpt>
<trkpt lat="51.682393" lon="03.842179"><ele>1</ele><time>2021-01-07T12:49:42Z</time><cmt>2.5 kmh</cmt></trkpt>
<trkpt lat="51.682387" lon="03.842193"><ele>1</ele><time>2021-01-07T12:49:43Z</time><cmt>2.9 kmh</cmt></trkpt>
<trkpt lat="51.682388" lon="03.842195"><ele>1</ele><time>2021-01-07T12:49:44Z</time><cmt>2.5 kmh</cmt></trkpt>
<trkpt lat="51.682390" lon="03.842193"><ele>1</ele><time>2021-01-07T12:49:45Z</time><cmt>0.7 kmh</cmt></trkpt>
<trkpt lat="51.682391" lon="03.842191"><ele>1</ele><time>2021-01-07T12:49:46Z</time><cmt>0.9 kmh</cmt></trkpt>
<trkpt lat="51.682393" lon="03.842188"><ele>1</ele><time>2021-01-07T12:49:47Z</time><cmt>0.9 kmh</cmt></trkpt>
<trkpt lat="51.682394" lon="03.842189"><ele>1</ele><time>2021-01-07T12:49:48Z</time><cmt>0.4 kmh</cmt></trkpt>
<trkpt lat="51.682394" lon="03.842191"><ele>1</ele><time>2021-01-07T12:49:49Z</time><cmt>0.0 kmh</cmt></trkpt>
<trkpt lat="51.682395" lon="03.842191"><ele>1</ele><time>2021-01-07T12:49:50Z</time><cmt>0.2 kmh</cmt></trkpt>
<trkpt lat="51.682397" lon="03.842191"><ele>1</ele><time>2021-01-07T12:49:51Z</time><cmt>0.4 kmh</cmt></trkpt>
<trkpt lat="51.682398" lon="03.842191"><ele>1</ele><time>2021-01-07T12:49:52Z</time><cmt>0.4 kmh</cmt></trkpt>
<trkpt lat="51.682399" lon="03.842191"><ele>1</ele><time>2021-01-07T12:49:53Z</time><cmt>0.2 kmh</cmt></trkpt>
<trkpt lat="51.682398" lon="03.842192"><ele>1</ele><time>2021-01-07T12:49:54Z</time><cmt>0.0 kmh</cmt></trkpt>
<trkpt lat="51.682398" lon="03.842194"><ele>1</ele><time>2021-01-07T12:49:55Z</time><cmt>0.3 kmh</cmt></trkpt>
<trkpt lat="51.682394" lon="03.842198"><ele>1</ele><time>2021-01-07T12:49:56Z</time><cmt>1.1 kmh</cmt></trkpt>
<trkpt lat="51.682389" lon="03.842209"><ele>1</ele><time>2021-01-07T12:49:57Z</time><cmt>2.8 kmh</cmt></trkpt>
<trkpt lat="51.682383" lon="03.842222"><ele>1</ele><time>2021-01-07T12:49:58Z</time><cmt>4.0 kmh</cmt></trkpt>
<trkpt lat="51.682377" lon="03.842237"><ele>1</ele><time>2021-01-07T12:49:59Z</time><cmt>4.5 kmh</cmt></trkpt>
<trkpt lat="51.682371" lon="03.842253"><ele>1</ele><time>2021-01-07T12:50:00Z</time><cmt>4.9 kmh</cmt></trkpt>
<trkpt lat="51.682366" lon="03.842269"><ele>1</ele><time>2021-01-07T12:50:01Z</time><cmt>4.0 kmh</cmt></trkpt>
<trkpt lat="51.682361" lon="03.842286"><ele>1</ele><time>2021-01-07T12:50:02Z</time><cmt>3.9 kmh</cmt></trkpt>
<trkpt lat="51.682356" lon="03.842303"><ele>1</ele><time>2021-01-07T12:50:03Z</time><cmt>4.9 kmh</cmt></trkpt>
<trkpt lat="51.682350" lon="03.842319"><ele>1</ele><time>2021-01-07T12:50:04Z</time><cmt>5.0 kmh</cmt></trkpt>
<trkpt lat="51.682344" lon="03.842335"><ele>1</ele><time>2021-01-07T12:50:05Z</time><cmt>5.0 kmh</cmt></trkpt>
<trkpt lat="51.682339" lon="03.842352"><ele>1</ele><time>2021-01-07T12:50:06Z</time><cmt>5.0 kmh</cmt></trkpt>
<trkpt lat="51.682333" lon="03.842370"><ele>1</ele><time>2021-01-07T12:50:07Z</time><cmt>4.2 kmh</cmt></trkpt>
<trkpt lat="51.682328" lon="03.842388"><ele>1</ele><time>2021-01-07T12:50:08Z</time><cmt>4.3 kmh</cmt></trkpt>
<trkpt lat="51.682323" lon="03.842406"><ele>1</ele><time>2021-01-07T12:50:09Z</time><cmt>5.0 kmh</cmt></trkpt>
<trkpt lat="51.682318" lon="03.842424"><ele>1</ele><time>2021-01-07T12:50:10Z</time><cmt>5.0 kmh</cmt></trkpt>
<trkpt lat="51.682312" lon="03.842443"><ele>1</ele><time>2021-01-07T12:50:11Z</time><cmt>5.2 kmh</cmt></trkpt>
<trkpt lat="51.682307" lon="03.842461"><ele>1</ele><time>2021-01-07T12:50:12Z</time><cmt>5.2 kmh</cmt></trkpt>
<trkpt lat="51.682301" lon="03.842478"><ele>1</ele><time>2021-01-07T12:50:13Z</time><cmt>5.0 kmh</cmt></trkpt>
<trkpt lat="51.682297" lon="03.842494"><ele>1</ele><time>2021-01-07T12:50:14Z</time><cmt>3.9 kmh</cmt></trkpt>
<trkpt lat="51.682293" lon="03.842511"><ele>1</ele><time>2021-01-07T12:50:15Z</time><cmt>3.9 kmh</cmt></trkpt>
<trkpt lat="51.682289" lon="03.842528"><ele>1</ele><time>2021-01-07T12:50:16Z</time><cmt>4.8 kmh</cmt></trkpt>
<trkpt lat="51.682285" lon="03.842545"><ele>1</ele><time>2021-01-07T12:50:17Z</time><cmt>4.8 kmh</cmt></trkpt>
<trkpt lat="51.682280" lon="03.842561"><ele>1</ele><time>2021-01-07T12:50:18Z</time><cmt>4.8 kmh</cmt></trkpt>
<trkpt lat="51.682275" lon="03.842576"><ele>1</ele><time>2021-01-07T12:50:19Z</time><cmt>4.6 kmh</cmt></trkpt>
<trkpt lat="51.682271" lon="03.842590"><ele>1</ele><time>2021-01-07T12:50:20Z</time><cmt>3.5 kmh</cmt></trkpt>
<trkpt lat="51.682267" lon="03.842606"><ele>1</ele><time>2021-01-07T12:50:21Z</time><cmt>3.6 kmh</cmt></trkpt>
<trkpt lat="51.682262" lon="03.842623"><ele>1</ele><time>2021-01-07T12:50:22Z</time><cmt>4.8 kmh</cmt></trkpt>
<trkpt lat="51.682256" lon="03.842640"><ele>1</ele><time>2021-01-07T12:50:23Z</time><cmt>5.0 kmh</cmt></trkpt>
<trkpt lat="51.682251" lon="03.842657"><ele>1</ele><time>2021-01-07T12:50:24Z</time><cmt>5.0 kmh</cmt></trkpt>
<trkpt lat="51.682246" lon="03.842674"><ele>1</ele><time>2021-01-07T12:50:25Z</time><cmt>4.9 kmh</cmt></trkpt>
<trkpt lat="51.682242" lon="03.842690"><ele>1</ele><time>2021-01-07T12:50:26Z</time><cmt>3.9 kmh</cmt></trkpt>
<trkpt lat="51.682237" lon="03.842705"><ele>1</ele><time>2021-01-07T12:50:27Z</time><cmt>3.8 kmh</cmt></trkpt>
<trkpt lat="51.682232" lon="03.842721"><ele>1</ele><time>2021-01-07T12:50:28Z</time><cmt>4.6 kmh</cmt></trkpt>
<trkpt lat="51.682228" lon="03.842736"><ele>1</ele><time>2021-01-07T12:50:29Z</time><cmt>4.4 kmh</cmt></trkpt>
<trkpt lat="51.682224" lon="03.842751"><ele>1</ele><time>2021-01-07T12:50:30Z</time><cmt>4.4 kmh</cmt></trkpt>
<trkpt lat="51.682220" lon="03.842768"><ele>1</ele><time>2021-01-07T12:50:31Z</time><cmt>4.7 kmh</cmt></trkpt>
<trkpt lat="51.682215" lon="03.842785"><ele>1</ele><time>2021-01-07T12:50:32Z</time><cmt>4.9 kmh</cmt></trkpt>
<trkpt lat="51.682211" lon="03.842800"><ele>1</ele><time>2021-01-07T12:50:33Z</time><cmt>3.7 kmh</cmt></trkpt>
<trkpt lat="51.682205" lon="03.842817"><ele>1</ele><time>2021-01-07T12:50:34Z</time><cmt>3.9 kmh</cmt></trkpt>
<trkpt lat="51.682201" lon="03.842834"><ele>1</ele><time>2021-01-07T12:50:35Z</time><cmt>5.0 kmh</cmt></trkpt>
<trkpt lat="51.682196" lon="03.842850"><ele>1</ele><time>2021-01-07T12:50:36Z</time><cmt>4.8 kmh</cmt></trkpt>
<trkpt lat="51.682192" lon="03.842867"><ele>1</ele><time>2021-01-07T12:50:37Z</time><cmt>4.8 kmh</cmt></trkpt>
<trkpt lat="51.682187" lon="03.842884"><ele>1</ele><time>2021-01-07T12:50:38Z</time><cmt>5.0 kmh</cmt></trkpt>
<trkpt lat="51.682183" lon="03.842902"><ele>1</ele><time>2021-01-07T12:50:39Z</time><cmt>4.1 kmh</cmt></trkpt>
<trkpt lat="51.682179" lon="03.842918"><ele>1</ele><time>2021-01-07T12:50:40Z</time><cmt>3.9 kmh</cmt></trkpt>
<trkpt lat="51.682174" lon="03.842934"><ele>1</ele><time>2021-01-07T12:50:41Z</time><cmt>4.6 kmh</cmt></trkpt>
<trkpt lat="51.682169" lon="03.842949"><ele>1</ele><time>2021-01-07T12:50:42Z</time><cmt>4.6 kmh</cmt></trkpt>
<trkpt lat="51.682164" lon="03.842966"><ele>1</ele><time>2021-01-07T12:50:43Z</time><cmt>4.8 kmh</cmt></trkpt>
<trkpt lat="51.682160" lon="03.842982"><ele>1</ele><time>2021-01-07T12:50:44Z</time><cmt>4.8 kmh</cmt></trkpt>
<trkpt lat="51.682155" lon="03.842999"><ele>1</ele><time>2021-01-07T12:50:45Z</time><cmt>3.9 kmh</cmt></trkpt>
<trkpt lat="51.682150" lon="03.843015"><ele>1</ele><time>2021-01-07T12:50:46Z</time><cmt>4.0 kmh</cmt></trkpt>
<trkpt lat="51.682144" lon="03.843032"><ele>1</ele><time>2021-01-07T12:50:47Z</time><cmt>4.9 kmh</cmt></trkpt>
<trkpt lat="51.682140" lon="03.843048"><ele>1</ele><time>2021-01-07T12:50:48Z</time><cmt>4.9 kmh</cmt></trkpt>
<trkpt lat="51.682136" lon="03.843065"><ele>1</ele><time>2021-01-07T12:50:49Z</time><cmt>4.8 kmh</cmt></trkpt>
<trkpt lat="51.682131" lon="03.843082"><ele>1</ele><time>2021-01-07T12:50:50Z</time><cmt>4.9 kmh</cmt></trkpt>
<trkpt lat="51.682127" lon="03.843099"><ele>1</ele><time>2021-01-07T12:50:51Z</time><cmt>4.9 kmh</cmt></trkpt>
<trkpt lat="51.682122" lon="03.843116"><ele>1</ele><time>2021-01-07T12:50:52Z</time><cmt>4.0 kmh</cmt></trkpt>
<trkpt lat="51.682117" lon="03.843132"><ele>1</ele><time>2021-01-07T12:50:53Z</time><cmt>3.9 kmh</cmt></trkpt>
<trkpt lat="51.682112" lon="03.843147"><ele>1</ele><time>2021-01-07T12:50:54Z</time><cmt>4.7 kmh</cmt></trkpt>
<trkpt lat="51.682107" lon="03.843164"><ele>1</ele><time>2021-01-07T12:50:55Z</time><cmt>4.7 kmh</cmt></trkpt>
<trkpt lat="51.682103" lon="03.843181"><ele>1</ele><time>2021-01-07T12:50:56Z</time><cmt>4.9 kmh</cmt></trkpt>
<trkpt lat="51.682099" lon="03.843198"><ele>1</ele><time>2021-01-07T12:50:57Z</time><cmt>4.9 kmh</cmt></trkpt>
<trkpt lat="51.682095" lon="03.843214"><ele>1</ele><time>2021-01-07T12:50:58Z</time><cmt>3.8 kmh</cmt></trkpt>
<trkpt lat="51.682090" lon="03.843229"><ele>1</ele><time>2021-01-07T12:50:59Z</time><cmt>3.7 kmh</cmt></trkpt>
<trkpt lat="51.682085" lon="03.843244"><ele>1</ele><time>2021-01-07T12:51:00Z</time><cmt>4.5 kmh</cmt></trkpt>
<trkpt lat="51.682080" lon="03.843260"><ele>1</ele><time>2021-01-07T12:51:01Z</time><cmt>4.6 kmh</cmt></trkpt>
<trkpt lat="51.682076" lon="03.843277"><ele>1</ele><time>2021-01-07T12:51:02Z</time><cmt>4.9 kmh</cmt></trkpt>
<trkpt lat="51.682071" lon="03.843295"><ele>1</ele><time>2021-01-07T12:51:03Z</time><cmt>5.0 kmh</cmt></trkpt>
<trkpt lat="51.682066" lon="03.843311"><ele>1</ele><time>2021-01-07T12:51:04Z</time><cmt>4.0 kmh</cmt></trkpt>
<trkpt lat="51.682062" lon="03.843328"><ele>1</ele><time>2021-01-07T12:51:05Z</time><cmt>3.9 kmh</cmt></trkpt>
<trkpt lat="51.682057" lon="03.843344"><ele>1</ele><time>2021-01-07T12:51:06Z</time><cmt>4.8 kmh</cmt></trkpt>
<trkpt lat="51.682052" lon="03.843361"><ele>1</ele><time>2021-01-07T12:51:07Z</time><cmt>4.9 kmh</cmt></trkpt>
<trkpt lat="51.682048" lon="03.843377"><ele>1</ele><time>2021-01-07T12:51:08Z</time><cmt>4.9 kmh</cmt></trkpt>
<trkpt lat="51.682043" lon="03.843394"><ele>1</ele><time>2021-01-07T12:51:09Z</time><cmt>4.9 kmh</cmt></trkpt>
<trkpt lat="51.682038" lon="03.843412"><ele>1</ele><time>2021-01-07T12:51:10Z</time><cmt>5.0 kmh</cmt></trkpt>
<trkpt lat="51.682034" lon="03.843429"><ele>1</ele><time>2021-01-07T12:51:11Z</time><cmt>4.0 kmh</cmt></trkpt>
<trkpt lat="51.682029" lon="03.843445"><ele>1</ele><time>2021-01-07T12:51:12Z</time><cmt>3.9 kmh</cmt></trkpt>
<trkpt lat="51.682025" lon="03.843460"><ele>1</ele><time>2021-01-07T12:51:13Z</time><cmt>4.6 kmh</cmt></trkpt>
<trkpt lat="51.682019" lon="03.843475"><ele>1</ele><time>2021-01-07T12:51:14Z</time><cmt>4.6 kmh</cmt></trkpt>
<trkpt lat="51.682014" lon="03.843491"><ele>1</ele><time>2021-01-07T12:51:15Z</time><cmt>4.7 kmh</cmt></trkpt>
<trkpt lat="51.682009" lon="03.843507"><ele>1</ele><time>2021-01-07T12:51:16Z</time><cmt>4.7 kmh</cmt></trkpt>
<trkpt lat="51.682005" lon="03.843524"><ele>1</ele><time>2021-01-07T12:51:17Z</time><cmt>3.9 kmh</cmt></trkpt>
<trkpt lat="51.682000" lon="03.843541"><ele>1</ele><time>2021-01-07T12:51:18Z</time><cmt>4.0 kmh</cmt></trkpt>
<trkpt lat="51.681995" lon="03.843558"><ele>1</ele><time>2021-01-07T12:51:19Z</time><cmt>5.0 kmh</cmt></trkpt>
<trkpt lat="51.681990" lon="03.843574"><ele>1</ele><time>2021-01-07T12:51:20Z</time><cmt>5.0 kmh</cmt></trkpt>
<trkpt lat="51.681984" lon="03.843591"><ele>1</ele><time>2021-01-07T12:51:21Z</time><cmt>5.0 kmh</cmt></trkpt>
<trkpt lat="51.681978" lon="03.843607"><ele>1</ele><time>2021-01-07T12:51:22Z</time><cmt>5.0 kmh</cmt></trkpt>
<trkpt lat="51.681973" lon="03.843623"><ele>1</ele><time>2021-01-07T12:51:23Z</time><cmt>4.0 kmh</cmt></trkpt>
<trkpt lat="51.681968" lon="03.843639"><ele>1</ele><time>2021-01-07T12:51:24Z</time><cmt>3.9 kmh</cmt></trkpt>
<trkpt lat="51.681963" lon="03.843655"><ele>1</ele><time>2021-01-07T12:51:25Z</time><cmt>4.8 kmh</cmt></trkpt>
<trkpt lat="51.681959" lon="03.843672"><ele>1</ele><time>2021-01-07T12:51:26Z</time><cmt>4.8 kmh</cmt></trkpt>
<trkpt lat="51.681955" lon="03.843689"><ele>1</ele><time>2021-01-07T12:51:27Z</time><cmt>4.8 kmh</cmt></trkpt>
<trkpt lat="51.681951" lon="03.843705"><ele>1</ele><time>2021-01-07T12:51:28Z</time><cmt>4.7 kmh</cmt></trkpt>
<trkpt lat="51.681947" lon="03.843721"><ele>1</ele><time>2021-01-07T12:51:29Z</time><cmt>4.6 kmh</cmt></trkpt>
<trkpt lat="51.681942" lon="03.843737"><ele>1</ele><time>2021-01-07T12:51:30Z</time><cmt>3.7 kmh</cmt></trkpt>
<trkpt lat="51.681937" lon="03.843754"><ele>1</ele><time>2021-01-07T12:51:31Z</time><cmt>3.9 kmh</cmt></trkpt>
<trkpt lat="51.681931" lon="03.843772"><ele>1</ele><time>2021-01-07T12:51:32Z</time><cmt>5.0 kmh</cmt></trkpt>
<trkpt lat="51.681926" lon="03.843788"><ele>1</ele><time>2021-01-07T12:51:33Z</time><cmt>5.0 kmh</cmt></trkpt>
<trkpt lat="51.681921" lon="03.843804"><ele>1</ele><time>2021-01-07T12:51:34Z</time><cmt>4.9 kmh</cmt></trkpt>
<trkpt lat="51.681915" lon="03.843820"><ele>1</ele><time>2021-01-07T12:51:35Z</time><cmt>4.9 kmh</cmt></trkpt>
<trkpt lat="51.681910" lon="03.843836"><ele>1</ele><time>2021-01-07T12:51:36Z</time><cmt>3.9 kmh</cmt></trkpt>
<trkpt lat="51.681905" lon="03.843851"><ele>1</ele><time>2021-01-07T12:51:37Z</time><cmt>3.7 kmh</cmt></trkpt>
<trkpt lat="51.681901" lon="03.843867"><ele>1</ele><time>2021-01-07T12:51:38Z</time><cmt>4.6 kmh</cmt></trkpt>
<trkpt lat="51.681896" lon="03.843883"><ele>1</ele><time>2021-01-07T12:51:39Z</time><cmt>4.8 kmh</cmt></trkpt>
<trkpt lat="51.681892" lon="03.843899"><ele>1</ele><time>2021-01-07T12:51:40Z</time><cmt>4.7 kmh</cmt></trkpt>
<trkpt lat="51.681887" lon="03.843915"><ele>1</ele><time>2021-01-07T12:51:41Z</time><cmt>4.6 kmh</cmt></trkpt>
<trkpt lat="51.681883" lon="03.843931"><ele>1</ele><time>2021-01-07T12:51:42Z</time><cmt>4.7 kmh</cmt></trkpt>
<trkpt lat="51.681879" lon="03.843948"><ele>1</ele><time>2021-01-07T12:51:43Z</time><cmt>3.9 kmh</cmt></trkpt>
<trkpt lat="51.681873" lon="03.843964"><ele>1</ele><time>2021-01-07T12:51:44Z</time><cmt>4.0 kmh</cmt></trkpt>
<trkpt lat="51.681867" lon="03.843981"><ele>1</ele><time>2021-01-07T12:51:45Z</time><cmt>4.9 kmh</cmt></trkpt>
<trkpt lat="51.681863" lon="03.843995"><ele>1</ele><time>2021-01-07T12:51:46Z</time><cmt>4.7 kmh</cmt></trkpt>
<trkpt lat="51.681857" lon="03.844010"><ele>1</ele><time>2021-01-07T12:51:47Z</time><cmt>4.6 kmh</cmt></trkpt>
<trkpt lat="51.681851" lon="03.844026"><ele>1</ele><time>2021-01-07T12:51:48Z</time><cmt>4.9 kmh</cmt></trkpt>
<trkpt lat="51.681844" lon="03.844043"><ele>1</ele><time>2021-01-07T12:51:49Z</time><cmt>4.1 kmh</cmt></trkpt>
<trkpt lat="51.681839" lon="03.844059"><ele>1</ele><time>2021-01-07T12:51:50Z</time><cmt>4.0 kmh</cmt></trkpt>
<trkpt lat="51.681834" lon="03.844074"><ele>1</ele><time>2021-01-07T12:51:51Z</time><cmt>4.8 kmh</cmt></trkpt>
<trkpt lat="51.681829" lon="03.844089"><ele>1</ele><time>2021-01-07T12:51:52Z</time><cmt>4.7 kmh</cmt></trkpt>
<trkpt lat="51.681823" lon="03.844104"><ele>1</ele><time>2021-01-07T12:51:53Z</time><cmt>4.7 kmh</cmt></trkpt>
<trkpt lat="51.681817" lon="03.844119"><ele>1</ele><time>2021-01-07T12:51:54Z</time><cmt>4.6 kmh</cmt></trkpt>
<trkpt lat="51.681811" lon="03.844133"><ele>1</ele><time>2021-01-07T12:51:55Z</time><cmt>3.7 kmh</cmt></trkpt>
<trkpt lat="51.681805" lon="03.844147"><ele>1</ele><time>2021-01-07T12:51:56Z</time><cmt>3.7 kmh</cmt></trkpt>
<trkpt lat="51.681798" lon="03.844162"><ele>1</ele><time>2021-01-07T12:51:57Z</time><cmt>4.7 kmh</cmt></trkpt>
<trkpt lat="51.681792" lon="03.844176"><ele>1</ele><time>2021-01-07T12:51:58Z</time><cmt>4.7 kmh</cmt></trkpt>
<trkpt lat="51.681786" lon="03.844192"><ele>1</ele><time>2021-01-07T12:51:59Z</time><cmt>4.9 kmh</cmt></trkpt>
<trkpt lat="51.681780" lon="03.844208"><ele>1</ele><time>2021-01-07T12:52:00Z</time><cmt>4.9 kmh</cmt></trkpt>
<trkpt lat="51.681773" lon="03.844224"><ele>1</ele><time>2021-01-07T12:52:01Z</time><cmt>5.0 kmh</cmt></trkpt>
<trkpt lat="51.681766" lon="03.844241"><ele>1</ele><time>2021-01-07T12:52:02Z</time><cmt>5.3 kmh</cmt></trkpt>
<trkpt lat="51.681759" lon="03.844258"><ele>1</ele><time>2021-01-07T12:52:03Z</time><cmt>5.3 kmh</cmt></trkpt>
<trkpt lat="51.681752" lon="03.844275"><ele>1</ele><time>2021-01-07T12:52:04Z</time><cmt>5.0 kmh</cmt></trkpt>
<trkpt lat="51.681745" lon="03.844290"><ele>1</ele><time>2021-01-07T12:52:05Z</time><cmt>5.0 kmh</cmt></trkpt>
<trkpt lat="51.681739" lon="03.844306"><ele>1</ele><time>2021-01-07T12:52:06Z</time><cmt>5.0 kmh</cmt></trkpt>
<trkpt lat="51.681733" lon="03.844322"><ele>0</ele><time>2021-01-07T12:52:07Z</time><cmt>5.0 kmh</cmt></trkpt>
<trkpt lat="51.681727" lon="03.844338"><ele>0</ele><time>2021-01-07T12:52:08Z</time><cmt>4.0 kmh</cmt></trkpt>
<trkpt lat="51.681720" lon="03.844353"><ele>0</ele><time>2021-01-07T12:52:09Z</time><cmt>4.0 kmh</cmt></trkpt>
<trkpt lat="51.681714" lon="03.844368"><ele>0</ele><time>2021-01-07T12:52:10Z</time><cmt>5.0 kmh</cmt></trkpt>
<trkpt lat="51.681706" lon="03.844384"><ele>0</ele><time>2021-01-07T12:52:11Z</time><cmt>5.0 kmh</cmt></trkpt>
<trkpt lat="51.681699" lon="03.844400"><ele>0</ele><time>2021-01-07T12:52:12Z</time><cmt>5.0 kmh</cmt></trkpt>
<trkpt lat="51.681691" lon="03.844417"><ele>0</ele><time>2021-01-07T12:52:13Z</time><cmt>5.0 kmh</cmt></trkpt>
<trkpt lat="51.681685" lon="03.844433"><ele>0</ele><time>2021-01-07T12:52:14Z</time><cmt>4.2 kmh</cmt></trkpt>
<trkpt lat="51.681679" lon="03.844449"><ele>0</ele><time>2021-01-07T12:52:15Z</time><cmt>4.0 kmh</cmt></trkpt>
<trkpt lat="51.681672" lon="03.844464"><ele>0</ele><time>2021-01-07T12:52:16Z</time><cmt>5.0 kmh</cmt></trkpt>
<trkpt lat="51.681665" lon="03.844479"><ele>0</ele><time>2021-01-07T12:52:17Z</time><cmt>5.0 kmh</cmt></trkpt>
<trkpt lat="51.681658" lon="03.844497"><ele>0</ele><time>2021-01-07T12:52:18Z</time><cmt>5.0 kmh</cmt></trkpt>
<trkpt lat="51.681650" lon="03.844514"><ele>0</ele><time>2021-01-07T12:52:19Z</time><cmt>5.0 kmh</cmt></trkpt>
<trkpt lat="51.681642" lon="03.844531"><ele>0</ele><time>2021-01-07T12:52:20Z</time><cmt>5.0 kmh</cmt></trkpt>
<trkpt lat="51.681635" lon="03.844547"><ele>0</ele><time>2021-01-07T12:52:21Z</time><cmt>4.5 kmh</cmt></trkpt>
<trkpt lat="51.681628" lon="03.844563"><ele>0</ele><time>2021-01-07T12:52:22Z</time><cmt>4.3 kmh</cmt></trkpt>
<trkpt lat="51.681620" lon="03.844579"><ele>0</ele><time>2021-01-07T12:52:23Z</time><cmt>5.0 kmh</cmt></trkpt>
<trkpt lat="51.681613" lon="03.844595"><ele>0</ele><time>2021-01-07T12:52:24Z</time><cmt>5.0 kmh</cmt></trkpt>
<trkpt lat="51.681606" lon="03.844610"><ele>0</ele><time>2021-01-07T12:52:25Z</time><cmt>5.0 kmh</cmt></trkpt>
<trkpt lat="51.681598" lon="03.844626"><ele>0</ele><time>2021-01-07T12:52:26Z</time><cmt>5.0 kmh</cmt></trkpt>
<trkpt lat="51.681591" lon="03.844642"><ele>0</ele><time>2021-01-07T12:52:27Z</time><cmt>4.3 kmh</cmt></trkpt>
<trkpt lat="51.681585" lon="03.844659"><ele>0</ele><time>2021-01-07T12:52:28Z</time><cmt>4.3 kmh</cmt></trkpt>
<trkpt lat="51.681578" lon="03.844676"><ele>1</ele><time>2021-01-07T12:52:29Z</time><cmt>5.0 kmh</cmt></trkpt>
<trkpt lat="51.681571" lon="03.844693"><ele>1</ele><time>2021-01-07T12:52:30Z</time><cmt>5.0 kmh</cmt></trkpt>
<trkpt lat="51.681563" lon="03.844710"><ele>1</ele><time>2021-01-07T12:52:31Z</time><cmt>5.0 kmh</cmt></trkpt>
<trkpt lat="51.681555" lon="03.844727"><ele>1</ele><time>2021-01-07T12:52:32Z</time><cmt>5.0 kmh</cmt></trkpt>
<trkpt lat="51.681549" lon="03.844743"><ele>1</ele><time>2021-01-07T12:52:33Z</time><cmt>4.3 kmh</cmt></trkpt>
<trkpt lat="51.681542" lon="03.844759"><ele>1</ele><time>2021-01-07T12:52:34Z</time><cmt>4.1 kmh</cmt></trkpt>
<trkpt lat="51.681535" lon="03.844775"><ele>1</ele><time>2021-01-07T12:52:35Z</time><cmt>5.0 kmh</cmt></trkpt>
<trkpt lat="51.681528" lon="03.844789"><ele>1</ele><time>2021-01-07T12:52:36Z</time><cmt>5.0 kmh</cmt></trkpt>
<trkpt lat="51.681522" lon="03.844804"><ele>1</ele><time>2021-01-07T12:52:37Z</time><cmt>4.8 kmh</cmt></trkpt>
<trkpt lat="51.681515" lon="03.844819"><ele>1</ele><time>2021-01-07T12:52:38Z</time><cmt>4.9 kmh</cmt></trkpt>
<trkpt lat="51.681508" lon="03.844835"><ele>1</ele><time>2021-01-07T12:52:39Z</time><cmt>5.0 kmh</cmt></trkpt>
<trkpt lat="51.681502" lon="03.844850"><ele>1</ele><time>2021-01-07T12:52:40Z</time><cmt>4.0 kmh</cmt></trkpt>
<trkpt lat="51.681496" lon="03.844865"><ele>1</ele><time>2021-01-07T12:52:41Z</time><cmt>3.9 kmh</cmt></trkpt>
<trkpt lat="51.681490" lon="03.844880"><ele>1</ele><time>2021-01-07T12:52:42Z</time><cmt>4.9 kmh</cmt></trkpt>
<trkpt lat="51.681483" lon="03.844895"><ele>1</ele><time>2021-01-07T12:52:43Z</time><cmt>4.9 kmh</cmt></trkpt>
<trkpt lat="51.681475" lon="03.844911"><ele>1</ele><time>2021-01-07T12:52:44Z</time><cmt>5.0 kmh</cmt></trkpt>
<trkpt lat="51.681468" lon="03.844926"><ele>1</ele><time>2021-01-07T12:52:45Z</time><cmt>5.0 kmh</cmt></trkpt>
<trkpt lat="51.681460" lon="03.844942"><ele>1</ele><time>2021-01-07T12:52:46Z</time><cmt>4.3 kmh</cmt></trkpt>
<trkpt lat="51.681453" lon="03.844957"><ele>1</ele><time>2021-01-07T12:52:47Z</time><cmt>4.2 kmh</cmt></trkpt>
<trkpt lat="51.681445" lon="03.844971"><ele>1</ele><time>2021-01-07T12:52:48Z</time><cmt>5.0 kmh</cmt></trkpt>
<trkpt lat="51.681438" lon="03.844986"><ele>1</ele><time>2021-01-07T12:52:49Z</time><cmt>5.0 kmh</cmt></trkpt>
<trkpt lat="51.681431" lon="03.845002"><ele>1</ele><time>2021-01-07T12:52:50Z</time><cmt>5.0 kmh</cmt></trkpt>
<trkpt lat="51.681424" lon="03.845017"><ele>1</ele><time>2021-01-07T12:52:51Z</time><cmt>5.0 kmh</cmt></trkpt>
<trkpt lat="51.681419" lon="03.845034"><ele>1</ele><time>2021-01-07T12:52:52Z</time><cmt>4.0 kmh</cmt></trkpt>
<trkpt lat="51.681412" lon="03.845050"><ele>1</ele><time>2021-01-07T12:52:53Z</time><cmt>4.1 kmh</cmt></trkpt>
<trkpt lat="51.681405" lon="03.845067"><ele>1</ele><time>2021-01-07T12:52:54Z</time><cmt>5.2 kmh</cmt></trkpt>
<trkpt lat="51.681397" lon="03.845083"><ele>1</ele><time>2021-01-07T12:52:55Z</time><cmt>5.2 kmh</cmt></trkpt>
<trkpt lat="51.681390" lon="03.845098"><ele>1</ele><time>2021-01-07T12:52:56Z</time><cmt>5.0 kmh</cmt></trkpt>
<trkpt lat="51.681384" lon="03.845111"><ele>1</ele><time>2021-01-07T12:52:57Z</time><cmt>4.8 kmh</cmt></trkpt>
<trkpt lat="51.681377" lon="03.845126"><ele>1</ele><time>2021-01-07T12:52:58Z</time><cmt>4.6 kmh</cmt></trkpt>
<trkpt lat="51.681372" lon="03.845140"><ele>1</ele><time>2021-01-07T12:52:59Z</time><cmt>3.7 kmh</cmt></trkpt>
<trkpt lat="51.681365" lon="03.845155"><ele>1</ele><time>2021-01-07T12:53:00Z</time><cmt>3.8 kmh</cmt></trkpt>
<trkpt lat="51.681358" lon="03.845170"><ele>1</ele><time>2021-01-07T12:53:01Z</time><cmt>4.9 kmh</cmt></trkpt>
<trkpt lat="51.681352" lon="03.845184"><ele>1</ele><time>2021-01-07T12:53:02Z</time><cmt>4.9 kmh</cmt></trkpt>
<trkpt lat="51.681345" lon="03.845200"><ele>1</ele><time>2021-01-07T12:53:03Z</time><cmt>4.9 kmh</cmt></trkpt>
<trkpt lat="51.681338" lon="03.845215"><ele>1</ele><time>2021-01-07T12:53:04Z</time><cmt>5.0 kmh</cmt></trkpt>
<trkpt lat="51.681332" lon="03.845230"><ele>1</ele><time>2021-01-07T12:53:05Z</time><cmt>4.0 kmh</cmt></trkpt>
<trkpt lat="51.681325" lon="03.845246"><ele>1</ele><time>2021-01-07T12:53:06Z</time><cmt>4.0 kmh</cmt></trkpt>
<trkpt lat="51.681318" lon="03.845260"><ele>1</ele><time>2021-01-07T12:53:07Z</time><cmt>4.9 kmh</cmt></trkpt>
<trkpt lat="51.681312" lon="03.845275"><ele>1</ele><time>2021-01-07T12:53:08Z</time><cmt>4.9 kmh</cmt></trkpt>
<trkpt lat="51.681305" lon="03.845290"><ele>1</ele><time>2021-01-07T12:53:09Z</time><cmt>4.9 kmh</cmt></trkpt>
<trkpt lat="51.681298" lon="03.845305"><ele>1</ele><time>2021-01-07T12:53:10Z</time><cmt>5.0 kmh</cmt></trkpt>
<trkpt lat="51.681292" lon="03.845319"><ele>1</ele><time>2021-01-07T12:53:11Z</time><cmt>3.8 kmh</cmt></trkpt>
<trkpt lat="51.681284" lon="03.845334"><ele>1</ele><time>2021-01-07T12:53:12Z</time><cmt>4.0 kmh</cmt></trkpt>
<trkpt lat="51.681277" lon="03.845349"><ele>1</ele><time>2021-01-07T12:53:13Z</time><cmt>5.0 kmh</cmt></trkpt>
<trkpt lat="51.681271" lon="03.845366"><ele>1</ele><time>2021-01-07T12:53:14Z</time><cmt>5.0 kmh</cmt></trkpt>
<trkpt lat="51.681264" lon="03.845382"><ele>1</ele><time>2021-01-07T12:53:15Z</time><cmt>5.0 kmh</cmt></trkpt>
<trkpt lat="51.681258" lon="03.845399"><ele>1</ele><time>2021-01-07T12:53:16Z</time><cmt>5.0 kmh</cmt></trkpt>
<trkpt lat="51.681251" lon="03.845414"><ele>1</ele><time>2021-01-07T12:53:17Z</time><cmt>5.0 kmh</cmt></trkpt>
<trkpt lat="51.681245" lon="03.845429"><ele>1</ele><time>2021-01-07T12:53:18Z</time><cmt>4.0 kmh</cmt></trkpt>
<trkpt lat="51.681238" lon="03.845444"><ele>1</ele><time>2021-01-07T12:53:19Z</time><cmt>3.9 kmh</cmt></trkpt>
<trkpt lat="51.681230" lon="03.845459"><ele>1</ele><time>2021-01-07T12:53:20Z</time><cmt>5.0 kmh</cmt></trkpt>
<trkpt lat="51.681223" lon="03.845475"><ele>1</ele><time>2021-01-07T12:53:21Z</time><cmt>5.0 kmh</cmt></trkpt>
<trkpt lat="51.681217" lon="03.845491"><ele>1</ele><time>2021-01-07T12:53:22Z</time><cmt>5.0 kmh</cmt></trkpt>
<trkpt lat="51.681211" lon="03.845507"><ele>1</ele><time>2021-01-07T12:53:23Z</time><cmt>5.0 kmh</cmt></trkpt>
<trkpt lat="51.681205" lon="03.845523"><ele>1</ele><time>2021-01-07T12:53:24Z</time><cmt>4.0 kmh</cmt></trkpt>
<trkpt lat="51.681198" lon="03.845538"><ele>1</ele><time>2021-01-07T12:53:25Z</time><cmt>4.1 kmh</cmt></trkpt>
<trkpt lat="51.681190" lon="03.845553"><ele>2</ele><time>2021-01-07T12:53:26Z</time><cmt>5.0 kmh</cmt></trkpt>
<trkpt lat="51.681183" lon="03.845569"><ele>2</ele><time>2021-01-07T12:53:27Z</time><cmt>5.0 kmh</cmt></trkpt>
<trkpt lat="51.681176" lon="03.845583"><ele>2</ele><time>2021-01-07T12:53:28Z</time><cmt>4.9 kmh</cmt></trkpt>
<trkpt lat="51.681169" lon="03.845597"><ele>2</ele><time>2021-01-07T12:53:29Z</time><cmt>4.8 kmh</cmt></trkpt>
<trkpt lat="51.681163" lon="03.845611"><ele>2</ele><time>2021-01-07T12:53:30Z</time><cmt>4.8 kmh</cmt></trkpt>
<trkpt lat="51.681157" lon="03.845626"><ele>2</ele><time>2021-01-07T12:53:31Z</time><cmt>3.8 kmh</cmt></trkpt>
<trkpt lat="51.681151" lon="03.845640"><ele>2</ele><time>2021-01-07T12:53:32Z</time><cmt>3.8 kmh</cmt></trkpt>
<trkpt lat="51.681145" lon="03.845656"><ele>2</ele><time>2021-01-07T12:53:33Z</time><cmt>4.8 kmh</cmt></trkpt>
<trkpt lat="51.681139" lon="03.845671"><ele>2</ele><time>2021-01-07T12:53:34Z</time><cmt>4.9 kmh</cmt></trkpt>
<trkpt lat="51.681132" lon="03.845687"><ele>2</ele><time>2021-01-07T12:53:35Z</time><cmt>5.0 kmh</cmt></trkpt>
<trkpt lat="51.681124" lon="03.845701"><ele>2</ele><time>2021-01-07T12:53:36Z</time><cmt>5.0 kmh</cmt></trkpt>
<trkpt lat="51.681117" lon="03.845716"><ele>2</ele><time>2021-01-07T12:53:37Z</time><cmt>4.1 kmh</cmt></trkpt>
<trkpt lat="51.681110" lon="03.845732"><ele>2</ele><time>2021-01-07T12:53:38Z</time><cmt>4.1 kmh</cmt></trkpt>
<trkpt lat="51.681103" lon="03.845746"><ele>2</ele><time>2021-01-07T12:53:39Z</time><cmt>5.0 kmh</cmt></trkpt>
<trkpt lat="51.681096" lon="03.845760"><ele>2</ele><time>2021-01-07T12:53:40Z</time><cmt>4.8 kmh</cmt></trkpt>
<trkpt lat="51.681090" lon="03.845774"><ele>2</ele><time>2021-01-07T12:53:41Z</time><cmt>4.7 kmh</cmt></trkpt>
<trkpt lat="51.681083" lon="03.845789"><ele>2</ele><time>2021-01-07T12:53:42Z</time><cmt>4.8 kmh</cmt></trkpt>
<trkpt lat="51.681076" lon="03.845804"><ele>2</ele><time>2021-01-07T12:53:43Z</time><cmt>4.0 kmh</cmt></trkpt>
<trkpt lat="51.681069" lon="03.845820"><ele>2</ele><time>2021-01-07T12:53:44Z</time><cmt>4.1 kmh</cmt></trkpt>
<trkpt lat="51.681062" lon="03.845835"><ele>2</ele><time>2021-01-07T12:53:45Z</time><cmt>5.0 kmh</cmt></trkpt>
<trkpt lat="51.681055" lon="03.845850"><ele>2</ele><time>2021-01-07T12:53:46Z</time><cmt>5.0 kmh</cmt></trkpt>
<trkpt lat="51.681048" lon="03.845864"><ele>2</ele><time>2021-01-07T12:53:47Z</time><cmt>4.9 kmh</cmt></trkpt>
<trkpt lat="51.681042" lon="03.845878"><ele>2</ele><time>2021-01-07T12:53:48Z</time><cmt>4.7 kmh</cmt></trkpt>
<trkpt lat="51.681035" lon="03.845894"><ele>2</ele><time>2021-01-07T12:53:49Z</time><cmt>4.8 kmh</cmt></trkpt>
<trkpt lat="51.681028" lon="03.845909"><ele>2</ele><time>2021-01-07T12:53:50Z</time><cmt>4.1 kmh</cmt></trkpt>
<trkpt lat="51.681022" lon="03.845924"><ele>2</ele><time>2021-01-07T12:53:51Z</time><cmt>4.0 kmh</cmt></trkpt>
<trkpt lat="51.681016" lon="03.845938"><ele>2</ele><time>2021-01-07T12:53:52Z</time><cmt>4.7 kmh</cmt></trkpt>
<trkpt lat="51.681009" lon="03.845953"><ele>2</ele><time>2021-01-07T12:53:53Z</time><cmt>4.8 kmh</cmt></trkpt>
<trkpt lat="51.681003" lon="03.845969"><ele>2</ele><time>2021-01-07T12:53:54Z</time><cmt>5.0 kmh</cmt></trkpt>
<trkpt lat="51.680997" lon="03.845982"><ele>2</ele><time>2021-01-07T12:53:55Z</time><cmt>4.7 kmh</cmt></trkpt>
<trkpt lat="51.680991" lon="03.845995"><ele>2</ele><time>2021-01-07T12:53:56Z</time><cmt>3.5 kmh</cmt></trkpt>
<trkpt lat="51.680984" lon="03.846009"><ele>2</ele><time>2021-01-07T12:53:57Z</time><cmt>3.6 kmh</cmt></trkpt>
<trkpt lat="51.680978" lon="03.846023"><ele>2</ele><time>2021-01-07T12:53:58Z</time><cmt>4.6 kmh</cmt></trkpt>
<trkpt lat="51.680972" lon="03.846035"><ele>2</ele><time>2021-01-07T12:53:59Z</time><cmt>4.3 kmh</cmt></trkpt>
<trkpt lat="51.680966" lon="03.846047"><ele>2</ele><time>2021-01-07T12:54:00Z</time><cmt>4.1 kmh</cmt></trkpt>
<trkpt lat="51.680959" lon="03.846060"><ele>2</ele><time>2021-01-07T12:54:01Z</time><cmt>4.3 kmh</cmt></trkpt>
<trkpt lat="51.680953" lon="03.846075"><ele>2</ele><time>2021-01-07T12:54:02Z</time><cmt>3.7 kmh</cmt></trkpt>
<trkpt lat="51.680947" lon="03.846091"><ele>2</ele><time>2021-01-07T12:54:03Z</time><cmt>4.0 kmh</cmt></trkpt>
<trkpt lat="51.680940" lon="03.846107"><ele>2</ele><time>2021-01-07T12:54:04Z</time><cmt>5.0 kmh</cmt></trkpt>
<trkpt lat="51.680933" lon="03.846123"><ele>2</ele><time>2021-01-07T12:54:05Z</time><cmt>5.0 kmh</cmt></trkpt>
<trkpt lat="51.680926" lon="03.846139"><ele>2</ele><time>2021-01-07T12:54:06Z</time><cmt>5.0 kmh</cmt></trkpt>
<trkpt lat="51.680919" lon="03.846152"><ele>2</ele><time>2021-01-07T12:54:07Z</time><cmt>5.0 kmh</cmt></trkpt>
<trkpt lat="51.680911" lon="03.846166"><ele>2</ele><time>2021-01-07T12:54:08Z</time><cmt>4.9 kmh</cmt></trkpt>
<trkpt lat="51.680904" lon="03.846182"><ele>2</ele><time>2021-01-07T12:54:09Z</time><cmt>4.1 kmh</cmt></trkpt>
<trkpt lat="51.680896" lon="03.846198"><ele>2</ele><time>2021-01-07T12:54:10Z</time><cmt>4.2 kmh</cmt></trkpt>
<trkpt lat="51.680890" lon="03.846213"><ele>2</ele><time>2021-01-07T12:54:11Z</time><cmt>5.0 kmh</cmt></trkpt>
<trkpt lat="51.680884" lon="03.846229"><ele>2</ele><time>2021-01-07T12:54:12Z</time><cmt>5.0 kmh</cmt></trkpt>
<trkpt lat="51.680878" lon="03.846246"><ele>2</ele><time>2021-01-07T12:54:13Z</time><cmt>5.0 kmh</cmt></trkpt>
<trkpt lat="51.680871" lon="03.846263"><ele>2</ele><time>2021-01-07T12:54:14Z</time><cmt>5.0 kmh</cmt></trkpt>
<trkpt lat="51.680863" lon="03.846280"><ele>2</ele><time>2021-01-07T12:54:15Z</time><cmt>4.4 kmh</cmt></trkpt>
<trkpt lat="51.680857" lon="03.846297"><ele>2</ele><time>2021-01-07T12:54:16Z</time><cmt>4.3 kmh</cmt></trkpt>
<trkpt lat="51.680850" lon="03.846312"><ele>3</ele><time>2021-01-07T12:54:17Z</time><cmt>5.0 kmh</cmt></trkpt>
<trkpt lat="51.680842" lon="03.846326"><ele>3</ele><time>2021-01-07T12:54:18Z</time><cmt>5.0 kmh</cmt></trkpt>
<trkpt lat="51.680835" lon="03.846340"><ele>3</ele><time>2021-01-07T12:54:19Z</time><cmt>4.9 kmh</cmt></trkpt>
<trkpt lat="51.680829" lon="03.846355"><ele>3</ele><time>2021-01-07T12:54:20Z</time><cmt>4.7 kmh</cmt></trkpt>
<trkpt lat="51.680823" lon="03.846371"><ele>3</ele><time>2021-01-07T12:54:21Z</time><cmt>3.9 kmh</cmt></trkpt>
<trkpt lat="51.680817" lon="03.846387"><ele>3</ele><time>2021-01-07T12:54:22Z</time><cmt>4.0 kmh</cmt></trkpt>
<trkpt lat="51.680811" lon="03.846403"><ele>3</ele><time>2021-01-07T12:54:23Z</time><cmt>5.0 kmh</cmt></trkpt>
<trkpt lat="51.680804" lon="03.846418"><ele>3</ele><time>2021-01-07T12:54:24Z</time><cmt>5.0 kmh</cmt></trkpt>
<trkpt lat="51.680797" lon="03.846432"><ele>3</ele><time>2021-01-07T12:54:25Z</time><cmt>4.9 kmh</cmt></trkpt>
<trkpt lat="51.680790" lon="03.846446"><ele>3</ele><time>2021-01-07T12:54:26Z</time><cmt>4.9 kmh</cmt></trkpt>
<trkpt lat="51.680783" lon="03.846462"><ele>3</ele><time>2021-01-07T12:54:27Z</time><cmt>5.0 kmh</cmt></trkpt>
<trkpt lat="51.680776" lon="03.846478"><ele>3</ele><time>2021-01-07T12:54:28Z</time><cmt>4.2 kmh</cmt></trkpt>
<trkpt lat="51.680769" lon="03.846494"><ele>3</ele><time>2021-01-07T12:54:29Z</time><cmt>4.2 kmh</cmt></trkpt>
<trkpt lat="51.680762" lon="03.846509"><ele>3</ele><time>2021-01-07T12:54:30Z</time><cmt>5.0 kmh</cmt></trkpt>
<trkpt lat="51.680756" lon="03.846524"><ele>3</ele><time>2021-01-07T12:54:31Z</time><cmt>4.9 kmh</cmt></trkpt>
<trkpt lat="51.680750" lon="03.846541"><ele>3</ele><time>2021-01-07T12:54:32Z</time><cmt>5.0 kmh</cmt></trkpt>
<trkpt lat="51.680743" lon="03.846557"><ele>3</ele><time>2021-01-07T12:54:33Z</time><cmt>5.0 kmh</cmt></trkpt>
<trkpt lat="51.680736" lon="03.846572"><ele>3</ele><time>2021-01-07T12:54:34Z</time><cmt>4.2 kmh</cmt></trkpt>
<trkpt lat="51.680728" lon="03.846587"><ele>3</ele><time>2021-01-07T12:54:35Z</time><cmt>4.1 kmh</cmt></trkpt>
<trkpt lat="51.680721" lon="03.846602"><ele>3</ele><time>2021-01-07T12:54:36Z</time><cmt>5.0 kmh</cmt></trkpt>
<trkpt lat="51.680715" lon="03.846617"><ele>3</ele><time>2021-01-07T12:54:37Z</time><cmt>5.0 kmh</cmt></trkpt>
<trkpt lat="51.680708" lon="03.846632"><ele>3</ele><time>2021-01-07T12:54:38Z</time><cmt>5.0 kmh</cmt></trkpt>
<trkpt lat="51.680701" lon="03.846647"><ele>3</ele><time>2021-01-07T12:54:39Z</time><cmt>5.0 kmh</cmt></trkpt>
<trkpt lat="51.680694" lon="03.846663"><ele>3</ele><time>2021-01-07T12:54:40Z</time><cmt>4.1 kmh</cmt></trkpt>
<trkpt lat="51.680687" lon="03.846679"><ele>3</ele><time>2021-01-07T12:54:41Z</time><cmt>4.1 kmh</cmt></trkpt>
<trkpt lat="51.680680" lon="03.846694"><ele>3</ele><time>2021-01-07T12:54:42Z</time><cmt>5.0 kmh</cmt></trkpt>
<trkpt lat="51.680674" lon="03.846709"><ele>3</ele><time>2021-01-07T12:54:43Z</time><cmt>5.0 kmh</cmt></trkpt>
<trkpt lat="51.680667" lon="03.846724"><ele>4</ele><time>2021-01-07T12:54:44Z</time><cmt>4.9 kmh</cmt></trkpt>
<trkpt lat="51.680661" lon="03.846739"><ele>4</ele><time>2021-01-07T12:54:45Z</time><cmt>4.9 kmh</cmt></trkpt>
<trkpt lat="51.680655" lon="03.846754"><ele>4</ele><time>2021-01-07T12:54:46Z</time><cmt>4.8 kmh</cmt></trkpt>
<trkpt lat="51.680649" lon="03.846768"><ele>4</ele><time>2021-01-07T12:54:47Z</time><cmt>3.8 kmh</cmt></trkpt>
<trkpt lat="51.680642" lon="03.846782"><ele>4</ele><time>2021-01-07T12:54:48Z</time><cmt>3.7 kmh</cmt></trkpt>
<trkpt lat="51.680635" lon="03.846797"><ele>4</ele><time>2021-01-07T12:54:49Z</time><cmt>4.8 kmh</cmt></trkpt>
<trkpt lat="51.680628" lon="03.846811"><ele>4</ele><time>2021-01-07T12:54:50Z</time><cmt>4.9 kmh</cmt></trkpt>
<trkpt lat="51.680621" lon="03.846825"><ele>4</ele><time>2021-01-07T12:54:51Z</time><cmt>4.9 kmh</cmt></trkpt>
<trkpt lat="51.680614" lon="03.846839"><ele>4</ele><time>2021-01-07T12:54:52Z</time><cmt>4.7 kmh</cmt></trkpt>
<trkpt lat="51.680608" lon="03.846852"><ele>4</ele><time>2021-01-07T12:54:53Z</time><cmt>3.7 kmh</cmt></trkpt>
<trkpt lat="51.680601" lon="03.846868"><ele>4</ele><time>2021-01-07T12:54:54Z</time><cmt>3.8 kmh</cmt></trkpt>
<trkpt lat="51.680595" lon="03.846883"><ele>4</ele><time>2021-01-07T12:54:55Z</time><cmt>4.9 kmh</cmt></trkpt>
<trkpt lat="51.680588" lon="03.846899"><ele>4</ele><time>2021-01-07T12:54:56Z</time><cmt>5.0 kmh</cmt></trkpt>
<trkpt lat="51.680581" lon="03.846916"><ele>4</ele><time>2021-01-07T12:54:57Z</time><cmt>5.0 kmh</cmt></trkpt>
<trkpt lat="51.680575" lon="03.846931"><ele>4</ele><time>2021-01-07T12:54:58Z</time><cmt>5.0 kmh</cmt></trkpt>
<trkpt lat="51.680568" lon="03.846947"><ele>4</ele><time>2021-01-07T12:54:59Z</time><cmt>4.1 kmh</cmt></trkpt>
<trkpt lat="51.680561" lon="03.846962"><ele>4</ele><time>2021-01-07T12:55:00Z</time><cmt>4.1 kmh</cmt></trkpt>
<trkpt lat="51.680554" lon="03.846978"><ele>4</ele><time>2021-01-07T12:55:01Z</time><cmt>5.0 kmh</cmt></trkpt>
<trkpt lat="51.680548" lon="03.846995"><ele>4</ele><time>2021-01-07T12:55:02Z</time><cmt>5.0 kmh</cmt></trkpt>
<trkpt lat="51.680541" lon="03.847012"><ele>4</ele><time>2021-01-07T12:55:03Z</time><cmt>5.0 kmh</cmt></trkpt>
<trkpt lat="51.680534" lon="03.847029"><ele>4</ele><time>2021-01-07T12:55:04Z</time><cmt>5.0 kmh</cmt></trkpt>
<trkpt lat="51.680527" lon="03.847046"><ele>4</ele><time>2021-01-07T12:55:05Z</time><cmt>5.0 kmh</cmt></trkpt>
<trkpt lat="51.680519" lon="03.847061"><ele>4</ele><time>2021-01-07T12:55:06Z</time><cmt>5.0 kmh</cmt></trkpt>
<trkpt lat="51.680513" lon="03.847076"><ele>4</ele><time>2021-01-07T12:55:07Z</time><cmt>4.1 kmh</cmt></trkpt>
<trkpt lat="51.680506" lon="03.847092"><ele>4</ele><time>2021-01-07T12:55:08Z</time><cmt>5.0 kmh</cmt></trkpt>
<trkpt lat="51.680500" lon="03.847107"><ele>4</ele><time>2021-01-07T12:55:09Z</time><cmt>5.0 kmh</cmt></trkpt>
<trkpt lat="51.680493" lon="03.847122"><ele>4</ele><time>2021-01-07T12:55:10Z</time><cmt>5.0 kmh</cmt></trkpt>
<trkpt lat="51.680486" lon="03.847138"><ele>4</ele><time>2021-01-07T12:55:11Z</time><cmt>5.0 kmh</cmt></trkpt>
<trkpt lat="51.680480" lon="03.847154"><ele>4</ele><time>2021-01-07T12:55:12Z</time><cmt>4.1 kmh</cmt></trkpt>
<trkpt lat="51.680473" lon="03.847169"><ele>4</ele><time>2021-01-07T12:55:13Z</time><cmt>4.0 kmh</cmt></trkpt>
<trkpt lat="51.680466" lon="03.847183"><ele>4</ele><time>2021-01-07T12:55:14Z</time><cmt>4.9 kmh</cmt></trkpt>
<trkpt lat="51.680460" lon="03.847198"><ele>4</ele><time>2021-01-07T12:55:15Z</time><cmt>4.8 kmh</cmt></trkpt>
<trkpt lat="51.680453" lon="03.847213"><ele>4</ele><time>2021-01-07T12:55:16Z</time><cmt>4.9 kmh</cmt></trkpt>
<trkpt lat="51.680446" lon="03.847229"><ele>4</ele><time>2021-01-07T12:55:17Z</time><cmt>5.0 kmh</cmt></trkpt>
<trkpt lat="51.680439" lon="03.847245"><ele>4</ele><time>2021-01-07T12:55:18Z</time><cmt>5.0 kmh</cmt></trkpt>
<trkpt lat="51.680432" lon="03.847261"><ele>4</ele><time>2021-01-07T12:55:19Z</time><cmt>4.2 kmh</cmt></trkpt>
<trkpt lat="51.680425" lon="03.847278"><ele>4</ele><time>2021-01-07T12:55:20Z</time><cmt>4.3 kmh</cmt></trkpt>
<trkpt lat="51.680419" lon="03.847294"><ele>4</ele><time>2021-01-07T12:55:21Z</time><cmt>5.0 kmh</cmt></trkpt>
<trkpt lat="51.680412" lon="03.847310"><ele>4</ele><time>2021-01-07T12:55:22Z</time><cmt>5.0 kmh</cmt></trkpt>
<trkpt lat="51.680404" lon="03.847325"><ele>4</ele><time>2021-01-07T12:55:23Z</time><cmt>5.0 kmh</cmt></trkpt>
<trkpt lat="51.680398" lon="03.847340"><ele>4</ele><time>2021-01-07T12:55:24Z</time><cmt>5.0 kmh</cmt></trkpt>
<trkpt lat="51.680391" lon="03.847355"><ele>4</ele><time>2021-01-07T12:55:25Z</time><cmt>4.0 kmh</cmt></trkpt>
<trkpt lat="51.680384" lon="03.847370"><ele>4</ele><time>2021-01-07T12:55:26Z</time><cmt>3.9 kmh</cmt></trkpt>
<trkpt lat="51.680378" lon="03.847384"><ele>4</ele><time>2021-01-07T12:55:27Z</time><cmt>4.7 kmh</cmt></trkpt>
<trkpt lat="51.680372" lon="03.847398"><ele>4</ele><time>2021-01-07T12:55:28Z</time><cmt>4.6 kmh</cmt></trkpt>
<trkpt lat="51.680367" lon="03.847414"><ele>4</ele><time>2021-01-07T12:55:29Z</time><cmt>4.7 kmh</cmt></trkpt>
<trkpt lat="51.680360" lon="03.847429"><ele>4</ele><time>2021-01-07T12:55:30Z</time><cmt>4.9 kmh</cmt></trkpt>
<trkpt lat="51.680354" lon="03.847445"><ele>4</ele><time>2021-01-07T12:55:31Z</time><cmt>4.0 kmh</cmt></trkpt>
<trkpt lat="51.680346" lon="03.847460"><ele>4</ele><time>2021-01-07T12:55:32Z</time><cmt>4.1 kmh</cmt></trkpt>
<trkpt lat="51.680339" lon="03.847473"><ele>4</ele><time>2021-01-07T12:55:33Z</time><cmt>5.0 kmh</cmt></trkpt>
<trkpt lat="51.680332" lon="03.847487"><ele>4</ele><time>2021-01-07T12:55:34Z</time><cmt>4.8 kmh</cmt></trkpt>
<trkpt lat="51.680324" lon="03.847503"><ele>4</ele><time>2021-01-07T12:55:35Z</time><cmt>5.0 kmh</cmt></trkpt>
<trkpt lat="51.680318" lon="03.847519"><ele>4</ele><time>2021-01-07T12:55:36Z</time><cmt>5.0 kmh</cmt></trkpt>
<trkpt lat="51.680311" lon="03.847535"><ele>4</ele><time>2021-01-07T12:55:37Z</time><cmt>5.0 kmh</cmt></trkpt>
<trkpt lat="51.680303" lon="03.847552"><ele>4</ele><time>2021-01-07T12:55:38Z</time><cmt>4.4 kmh</cmt></trkpt>
<trkpt lat="51.680297" lon="03.847567"><ele>4</ele><time>2021-01-07T12:55:39Z</time><cmt>4.2 kmh</cmt></trkpt>
<trkpt lat="51.680290" lon="03.847583"><ele>4</ele><time>2021-01-07T12:55:40Z</time><cmt>5.0 kmh</cmt></trkpt>
<trkpt lat="51.680283" lon="03.847598"><ele>3</ele><time>2021-01-07T12:55:41Z</time><cmt>5.0 kmh</cmt></trkpt>
<trkpt lat="51.680276" lon="03.847612"><ele>3</ele><time>2021-01-07T12:55:42Z</time><cmt>4.9 kmh</cmt></trkpt>
<trkpt lat="51.680270" lon="03.847627"><ele>3</ele><time>2021-01-07T12:55:43Z</time><cmt>4.9 kmh</cmt></trkpt>
<trkpt lat="51.680263" lon="03.847643"><ele>3</ele><time>2021-01-07T12:55:44Z</time><cmt>3.9 kmh</cmt></trkpt>
<trkpt lat="51.680257" lon="03.847658"><ele>3</ele><time>2021-01-07T12:55:45Z</time><cmt>4.0 kmh</cmt></trkpt>
<trkpt lat="51.680250" lon="03.847675"><ele>3</ele><time>2021-01-07T12:55:46Z</time><cmt>5.0 kmh</cmt></trkpt>
<trkpt lat="51.680243" lon="03.847690"><ele>3</ele><time>2021-01-07T12:55:47Z</time><cmt>5.0 kmh</cmt></trkpt>
<trkpt lat="51.680237" lon="03.847704"><ele>3</ele><time>2021-01-07T12:55:48Z</time><cmt>4.8 kmh</cmt></trkpt>
<trkpt lat="51.680230" lon="03.847719"><ele>3</ele><time>2021-01-07T12:55:49Z</time><cmt>4.8 kmh</cmt></trkpt>
<trkpt lat="51.680223" lon="03.847734"><ele>3</ele><time>2021-01-07T12:55:50Z</time><cmt>4.0 kmh</cmt></trkpt>
<trkpt lat="51.680216" lon="03.847748"><ele>3</ele><time>2021-01-07T12:55:51Z</time><cmt>3.9 kmh</cmt></trkpt>
<trkpt lat="51.680210" lon="03.847762"><ele>3</ele><time>2021-01-07T12:55:52Z</time><cmt>4.6 kmh</cmt></trkpt>
<trkpt lat="51.680204" lon="03.847776"><ele>3</ele><time>2021-01-07T12:55:53Z</time><cmt>4.7 kmh</cmt></trkpt>
<trkpt lat="51.680197" lon="03.847789"><ele>3</ele><time>2021-01-07T12:55:54Z</time><cmt>4.6 kmh</cmt></trkpt>
<trkpt lat="51.680190" lon="03.847802"><ele>3</ele><time>2021-01-07T12:55:55Z</time><cmt>4.6 kmh</cmt></trkpt>
<trkpt lat="51.680183" lon="03.847818"><ele>3</ele><time>2021-01-07T12:55:56Z</time><cmt>4.9 kmh</cmt></trkpt>
<trkpt lat="51.680176" lon="03.847834"><ele>3</ele><time>2021-01-07T12:55:57Z</time><cmt>5.0 kmh</cmt></trkpt>
<trkpt lat="51.680170" lon="03.847851"><ele>3</ele><time>2021-01-07T12:55:58Z</time><cmt>5.0 kmh</cmt></trkpt>
<trkpt lat="51.680164" lon="03.847867"><ele>3</ele><time>2021-01-07T12:55:59Z</time><cmt>5.0 kmh</cmt></trkpt>
<trkpt lat="51.680158" lon="03.847882"><ele>3</ele><time>2021-01-07T12:56:00Z</time><cmt>4.9 kmh</cmt></trkpt>
<trkpt lat="51.680152" lon="03.847898"><ele>3</ele><time>2021-01-07T12:56:01Z</time><cmt>4.9 kmh</cmt></trkpt>
<trkpt lat="51.680146" lon="03.847912"><ele>3</ele><time>2021-01-07T12:56:02Z</time><cmt>4.8 kmh</cmt></trkpt>
<trkpt lat="51.680139" lon="03.847926"><ele>3</ele><time>2021-01-07T12:56:03Z</time><cmt>3.7 kmh</cmt></trkpt>
<trkpt lat="51.680132" lon="03.847939"><ele>3</ele><time>2021-01-07T12:56:04Z</time><cmt>3.7 kmh</cmt></trkpt>
<trkpt lat="51.680126" lon="03.847953"><ele>3</ele><time>2021-01-07T12:56:05Z</time><cmt>4.6 kmh</cmt></trkpt>
<trkpt lat="51.680119" lon="03.847968"><ele>3</ele><time>2021-01-07T12:56:06Z</time><cmt>4.7 kmh</cmt></trkpt>
<trkpt lat="51.680113" lon="03.847983"><ele>3</ele><time>2021-01-07T12:56:07Z</time><cmt>4.9 kmh</cmt></trkpt>
<trkpt lat="51.680106" lon="03.848000"><ele>3</ele><time>2021-01-07T12:56:08Z</time><cmt>5.0 kmh</cmt></trkpt>
<trkpt lat="51.680100" lon="03.848016"><ele>3</ele><time>2021-01-07T12:56:09Z</time><cmt>4.2 kmh</cmt></trkpt>
<trkpt lat="51.680093" lon="03.848032"><ele>3</ele><time>2021-01-07T12:56:10Z</time><cmt>4.2 kmh</cmt></trkpt>
<trkpt lat="51.680086" lon="03.848049"><ele>3</ele><time>2021-01-07T12:56:11Z</time><cmt>5.0 kmh</cmt></trkpt>
<trkpt lat="51.680080" lon="03.848065"><ele>3</ele><time>2021-01-07T12:56:12Z</time><cmt>5.0 kmh</cmt></trkpt>
<trkpt lat="51.680073" lon="03.848079"><ele>3</ele><time>2021-01-07T12:56:13Z</time><cmt>4.9 kmh</cmt></trkpt>
<trkpt lat="51.680067" lon="03.848094"><ele>3</ele><time>2021-01-07T12:56:14Z</time><cmt>4.8 kmh</cmt></trkpt>
<trkpt lat="51.680061" lon="03.848110"><ele>3</ele><time>2021-01-07T12:56:15Z</time><cmt>4.9 kmh</cmt></trkpt>
<trkpt lat="51.680055" lon="03.848125"><ele>3</ele><time>2021-01-07T12:56:16Z</time><cmt>3.9 kmh</cmt></trkpt>
<trkpt lat="51.680048" lon="03.848141"><ele>3</ele><time>2021-01-07T12:56:17Z</time><cmt>4.0 kmh</cmt></trkpt>
<trkpt lat="51.680042" lon="03.848157"><ele>3</ele><time>2021-01-07T12:56:18Z</time><cmt>5.0 kmh</cmt></trkpt>
<trkpt lat="51.680035" lon="03.848172"><ele>3</ele><time>2021-01-07T12:56:19Z</time><cmt>5.0 kmh</cmt></trkpt>
<trkpt lat="51.680028" lon="03.848188"><ele>3</ele><time>2021-01-07T12:56:20Z</time><cmt>5.0 kmh</cmt></trkpt>
<trkpt lat="51.680022" lon="03.848204"><ele>3</ele><time>2021-01-07T12:56:21Z</time><cmt>5.0 kmh</cmt></trkpt>
<trkpt lat="51.680015" lon="03.848219"><ele>3</ele><time>2021-01-07T12:56:22Z</time><cmt>3.9 kmh</cmt></trkpt>
<trkpt lat="51.680009" lon="03.848233"><ele>3</ele><time>2021-01-07T12:56:23Z</time><cmt>3.8 kmh</cmt></trkpt>
<trkpt lat="51.680002" lon="03.848247"><ele>3</ele><time>2021-01-07T12:56:24Z</time><cmt>4.8 kmh</cmt></trkpt>
<trkpt lat="51.679996" lon="03.848260"><ele>3</ele><time>2021-01-07T12:56:25Z</time><cmt>4.6 kmh</cmt></trkpt>
<trkpt lat="51.679991" lon="03.848273"><ele>3</ele><time>2021-01-07T12:56:26Z</time><cmt>4.2 kmh</cmt></trkpt>
<trkpt lat="51.679986" lon="03.848286"><ele>2</ele><time>2021-01-07T12:56:27Z</time><cmt>4.1 kmh</cmt></trkpt>
<trkpt lat="51.679980" lon="03.848302"><ele>2</ele><time>2021-01-07T12:56:28Z</time><cmt>3.7 kmh</cmt></trkpt>
<trkpt lat="51.679974" lon="03.848317"><ele>2</ele><time>2021-01-07T12:56:29Z</time><cmt>4.0 kmh</cmt></trkpt>
<trkpt lat="51.679965" lon="03.848334"><ele>2</ele><time>2021-01-07T12:56:30Z</time><cmt>5.0 kmh</cmt></trkpt>
<trkpt lat="51.679958" lon="03.848350"><ele>2</ele><time>2021-01-07T12:56:31Z</time><cmt>5.0 kmh</cmt></trkpt>
<trkpt lat="51.679950" lon="03.848366"><ele>2</ele><time>2021-01-07T12:56:32Z</time><cmt>5.0 kmh</cmt></trkpt>
<trkpt lat="51.679943" lon="03.848382"><ele>2</ele><time>2021-01-07T12:56:33Z</time><cmt>5.0 kmh</cmt></trkpt>
<trkpt lat="51.679937" lon="03.848397"><ele>2</ele><time>2021-01-07T12:56:34Z</time><cmt>5.0 kmh</cmt></trkpt>
<trkpt lat="51.679931" lon="03.848410"><ele>2</ele><time>2021-01-07T12:56:35Z</time><cmt>3.7 kmh</cmt></trkpt>
<trkpt lat="51.679924" lon="03.848424"><ele>2</ele><time>2021-01-07T12:56:36Z</time><cmt>3.6 kmh</cmt></trkpt>
<trkpt lat="51.679917" lon="03.848437"><ele>2</ele><time>2021-01-07T12:56:37Z</time><cmt>4.6 kmh</cmt></trkpt>
<trkpt lat="51.679910" lon="03.848451"><ele>2</ele><time>2021-01-07T12:56:38Z</time><cmt>4.7 kmh</cmt></trkpt>
<trkpt lat="51.679904" lon="03.848466"><ele>2</ele><time>2021-01-07T12:56:39Z</time><cmt>4.7 kmh</cmt></trkpt>
<trkpt lat="51.679899" lon="03.848480"><ele>2</ele><time>2021-01-07T12:56:40Z</time><cmt>4.6 kmh</cmt></trkpt>
<trkpt lat="51.679894" lon="03.848494"><ele>2</ele><time>2021-01-07T12:56:41Z</time><cmt>3.5 kmh</cmt></trkpt>
<trkpt lat="51.679887" lon="03.848508"><ele>2</ele><time>2021-01-07T12:56:42Z</time><cmt>3.6 kmh</cmt></trkpt>
<trkpt lat="51.679881" lon="03.848523"><ele>2</ele><time>2021-01-07T12:56:43Z</time><cmt>4.8 kmh</cmt></trkpt>
<trkpt lat="51.679875" lon="03.848539"><ele>2</ele><time>2021-01-07T12:56:44Z</time><cmt>4.9 kmh</cmt></trkpt>
<trkpt lat="51.679868" lon="03.848555"><ele>2</ele><time>2021-01-07T12:56:45Z</time><cmt>5.0 kmh</cmt></trkpt>
<trkpt lat="51.679862" lon="03.848571"><ele>2</ele><time>2021-01-07T12:56:46Z</time><cmt>5.0 kmh</cmt></trkpt>
<trkpt lat="51.679855" lon="03.848587"><ele>2</ele><time>2021-01-07T12:56:47Z</time><cmt>4.1 kmh</cmt></trkpt>
<trkpt lat="51.679849" lon="03.848603"><ele>2</ele><time>2021-01-07T12:56:48Z</time><cmt>4.1 kmh</cmt></trkpt>
<trkpt lat="51.679842" lon="03.848619"><ele>2</ele><time>2021-01-07T12:56:49Z</time><cmt>5.0 kmh</cmt></trkpt>
<trkpt lat="51.679836" lon="03.848634"><ele>2</ele><time>2021-01-07T12:56:50Z</time><cmt>5.0 kmh</cmt></trkpt>
<trkpt lat="51.679830" lon="03.848649"><ele>2</ele><time>2021-01-07T12:56:51Z</time><cmt>4.8 kmh</cmt></trkpt>
<trkpt lat="51.679825" lon="03.848663"><ele>2</ele><time>2021-01-07T12:56:52Z</time><cmt>4.6 kmh</cmt></trkpt>
<trkpt lat="51.679820" lon="03.848678"><ele>2</ele><time>2021-01-07T12:56:53Z</time><cmt>4.5 kmh</cmt></trkpt>
<trkpt lat="51.679814" lon="03.848694"><ele>1</ele><time>2021-01-07T12:56:54Z</time><cmt>3.7 kmh</cmt></trkpt>
<trkpt lat="51.679810" lon="03.848709"><ele>1</ele><time>2021-01-07T12:56:55Z</time><cmt>3.7 kmh</cmt></trkpt>
<trkpt lat="51.679804" lon="03.848723"><ele>1</ele><time>2021-01-07T12:56:56Z</time><cmt>4.5 kmh</cmt></trkpt>
<trkpt lat="51.679799" lon="03.848737"><ele>1</ele><time>2021-01-07T12:56:57Z</time><cmt>4.5 kmh</cmt></trkpt>
<trkpt lat="51.679794" lon="03.848750"><ele>1</ele><time>2021-01-07T12:56:58Z</time><cmt>4.2 kmh</cmt></trkpt>
<trkpt lat="51.679789" lon="03.848763"><ele>1</ele><time>2021-01-07T12:56:59Z</time><cmt>4.0 kmh</cmt></trkpt>
<trkpt lat="51.679783" lon="03.848777"><ele>1</ele><time>2021-01-07T12:57:00Z</time><cmt>3.5 kmh</cmt></trkpt>
<trkpt lat="51.679777" lon="03.848793"><ele>1</ele><time>2021-01-07T12:57:01Z</time><cmt>3.8 kmh</cmt></trkpt>
<trkpt lat="51.679772" lon="03.848808"><ele>1</ele><time>2021-01-07T12:57:02Z</time><cmt>4.8 kmh</cmt></trkpt>
<trkpt lat="51.679767" lon="03.848821"><ele>1</ele><time>2021-01-07T12:57:03Z</time><cmt>4.4 kmh</cmt></trkpt>
<trkpt lat="51.679761" lon="03.848836"><ele>1</ele><time>2021-01-07T12:57:04Z</time><cmt>4.3 kmh</cmt></trkpt>
<trkpt lat="51.679756" lon="03.848850"><ele>1</ele><time>2021-01-07T12:57:05Z</time><cmt>4.4 kmh</cmt></trkpt>
<trkpt lat="51.679751" lon="03.848864"><ele>1</ele><time>2021-01-07T12:57:06Z</time><cmt>4.4 kmh</cmt></trkpt>
<trkpt lat="51.679745" lon="03.848878"><ele>1</ele><time>2021-01-07T12:57:07Z</time><cmt>3.6 kmh</cmt></trkpt>
<trkpt lat="51.679739" lon="03.848892"><ele>1</ele><time>2021-01-07T12:57:08Z</time><cmt>3.6 kmh</cmt></trkpt>
<trkpt lat="51.679733" lon="03.848906"><ele>1</ele><time>2021-01-07T12:57:09Z</time><cmt>4.4 kmh</cmt></trkpt>
<trkpt lat="51.679728" lon="03.848918"><ele>1</ele><time>2021-01-07T12:57:10Z</time><cmt>4.2 kmh</cmt></trkpt>
<trkpt lat="51.679722" lon="03.848930"><ele>1</ele><time>2021-01-07T12:57:11Z</time><cmt>4.0 kmh</cmt></trkpt>
<trkpt lat="51.679716" lon="03.848942"><ele>1</ele><time>2021-01-07T12:57:12Z</time><cmt>4.2 kmh</cmt></trkpt>
<trkpt lat="51.679708" lon="03.848954"><ele>1</ele><time>2021-01-07T12:57:13Z</time><cmt>3.6 kmh</cmt></trkpt>
<trkpt lat="51.679701" lon="03.848966"><ele>1</ele><time>2021-01-07T12:57:14Z</time><cmt>3.7 kmh</cmt></trkpt>
<trkpt lat="51.679693" lon="03.848978"><ele>1</ele><time>2021-01-07T12:57:15Z</time><cmt>4.6 kmh</cmt></trkpt>
<trkpt lat="51.679685" lon="03.848990"><ele>1</ele><time>2021-01-07T12:57:16Z</time><cmt>4.6 kmh</cmt></trkpt>
<trkpt lat="51.679677" lon="03.849004"><ele>1</ele><time>2021-01-07T12:57:17Z</time><cmt>4.9 kmh</cmt></trkpt>
<trkpt lat="51.679669" lon="03.849020"><ele>1</ele><time>2021-01-07T12:57:18Z</time><cmt>5.0 kmh</cmt></trkpt>
<trkpt lat="51.679661" lon="03.849035"><ele>1</ele><time>2021-01-07T12:57:19Z</time><cmt>4.4 kmh</cmt></trkpt>
<trkpt lat="51.679653" lon="03.849051"><ele>1</ele><time>2021-01-07T12:57:20Z</time><cmt>4.3 kmh</cmt></trkpt>
<trkpt lat="51.679646" lon="03.849066"><ele>1</ele><time>2021-01-07T12:57:21Z</time><cmt>5.0 kmh</cmt></trkpt>
<trkpt lat="51.679639" lon="03.849079"><ele>1</ele><time>2021-01-07T12:57:22Z</time><cmt>4.8 kmh</cmt></trkpt>
<trkpt lat="51.679633" lon="03.849092"><ele>1</ele><time>2021-01-07T12:57:23Z</time><cmt>4.5 kmh</cmt></trkpt>
<trkpt lat="51.679627" lon="03.849105"><ele>1</ele><time>2021-01-07T12:57:24Z</time><cmt>4.4 kmh</cmt></trkpt>
<trkpt lat="51.679621" lon="03.849120"><ele>1</ele><time>2021-01-07T12:57:25Z</time><cmt>4.5 kmh</cmt></trkpt>
<trkpt lat="51.679615" lon="03.849134"><ele>1</ele><time>2021-01-07T12:57:26Z</time><cmt>3.7 kmh</cmt></trkpt>
<trkpt lat="51.679609" lon="03.849149"><ele>1</ele><time>2021-01-07T12:57:27Z</time><cmt>3.7 kmh</cmt></trkpt>
<trkpt lat="51.679603" lon="03.849164"><ele>1</ele><time>2021-01-07T12:57:28Z</time><cmt>4.8 kmh</cmt></trkpt>
<trkpt lat="51.679596" lon="03.849179"><ele>1</ele><time>2021-01-07T12:57:29Z</time><cmt>5.0 kmh</cmt></trkpt>
<trkpt lat="51.679590" lon="03.849193"><ele>1</ele><time>2021-01-07T12:57:30Z</time><cmt>4.8 kmh</cmt></trkpt>
<trkpt lat="51.679584" lon="03.849207"><ele>1</ele><time>2021-01-07T12:57:31Z</time><cmt>4.5 kmh</cmt></trkpt>
<trkpt lat="51.679577" lon="03.849221"><ele>1</ele><time>2021-01-07T12:57:32Z</time><cmt>3.7 kmh</cmt></trkpt>
<trkpt lat="51.679570" lon="03.849236"><ele>1</ele><time>2021-01-07T12:57:33Z</time><cmt>3.8 kmh</cmt></trkpt>
<trkpt lat="51.679564" lon="03.849251"><ele>1</ele><time>2021-01-07T12:57:34Z</time><cmt>5.0 kmh</cmt></trkpt>
<trkpt lat="51.679556" lon="03.849268"><ele>1</ele><time>2021-01-07T12:57:35Z</time><cmt>5.0 kmh</cmt></trkpt>
<trkpt lat="51.679549" lon="03.849283"><ele>1</ele><time>2021-01-07T12:57:36Z</time><cmt>5.0 kmh</cmt></trkpt>
<trkpt lat="51.679542" lon="03.849299"><ele>1</ele><time>2021-01-07T12:57:37Z</time><cmt>5.0 kmh</cmt></trkpt>
<trkpt lat="51.679535" lon="03.849314"><ele>2</ele><time>2021-01-07T12:57:38Z</time><cmt>4.1 kmh</cmt></trkpt>
<trkpt lat="51.679529" lon="03.849330"><ele>2</ele><time>2021-01-07T12:57:39Z</time><cmt>4.0 kmh</cmt></trkpt>
<trkpt lat="51.679523" lon="03.849344"><ele>2</ele><time>2021-01-07T12:57:40Z</time><cmt>4.7 kmh</cmt></trkpt>
<trkpt lat="51.679517" lon="03.849358"><ele>2</ele><time>2021-01-07T12:57:41Z</time><cmt>4.6 kmh</cmt></trkpt>
<trkpt lat="51.679511" lon="03.849372"><ele>2</ele><time>2021-01-07T12:57:42Z</time><cmt>4.5 kmh</cmt></trkpt>
<trkpt lat="51.679505" lon="03.849386"><ele>2</ele><time>2021-01-07T12:57:43Z</time><cmt>4.6 kmh</cmt></trkpt>
<trkpt lat="51.679499" lon="03.849400"><ele>2</ele><time>2021-01-07T12:57:44Z</time><cmt>4.6 kmh</cmt></trkpt>
<trkpt lat="51.679493" lon="03.849414"><ele>2</ele><time>2021-01-07T12:57:45Z</time><cmt>3.7 kmh</cmt></trkpt>
<trkpt lat="51.679486" lon="03.849428"><ele>2</ele><time>2021-01-07T12:57:46Z</time><cmt>3.7 kmh</cmt></trkpt>
<trkpt lat="51.679480" lon="03.849442"><ele>2</ele><time>2021-01-07T12:57:47Z</time><cmt>4.6 kmh</cmt></trkpt>
<trkpt lat="51.679474" lon="03.849455"><ele>2</ele><time>2021-01-07T12:57:48Z</time><cmt>4.5 kmh</cmt></trkpt>
<trkpt lat="51.679469" lon="03.849469"><ele>2</ele><time>2021-01-07T12:57:49Z</time><cmt>4.4 kmh</cmt></trkpt>
<trkpt lat="51.679463" lon="03.849483"><ele>2</ele><time>2021-01-07T12:57:50Z</time><cmt>4.4 kmh</cmt></trkpt>
<trkpt lat="51.679457" lon="03.849498"><ele>2</ele><time>2021-01-07T12:57:51Z</time><cmt>3.7 kmh</cmt></trkpt>
<trkpt lat="51.679451" lon="03.849512"><ele>2</ele><time>2021-01-07T12:57:52Z</time><cmt>3.7 kmh</cmt></trkpt>
<trkpt lat="51.679445" lon="03.849524"><ele>2</ele><time>2021-01-07T12:57:53Z</time><cmt>4.3 kmh</cmt></trkpt>
<trkpt lat="51.679439" lon="03.849537"><ele>2</ele><time>2021-01-07T12:57:54Z</time><cmt>4.2 kmh</cmt></trkpt>
<trkpt lat="51.679433" lon="03.849551"><ele>2</ele><time>2021-01-07T12:57:55Z</time><cmt>4.4 kmh</cmt></trkpt>
<trkpt lat="51.679427" lon="03.849565"><ele>2</ele><time>2021-01-07T12:57:56Z</time><cmt>4.5 kmh</cmt></trkpt>
<trkpt lat="51.679422" lon="03.849578"><ele>2</ele><time>2021-01-07T12:57:57Z</time><cmt>3.5 kmh</cmt></trkpt>
<trkpt lat="51.679416" lon="03.849592"><ele>2</ele><time>2021-01-07T12:57:58Z</time><cmt>3.5 kmh</cmt></trkpt>
<trkpt lat="51.679410" lon="03.849606"><ele>2</ele><time>2021-01-07T12:57:59Z</time><cmt>4.5 kmh</cmt></trkpt>
<trkpt lat="51.679405" lon="03.849620"><ele>2</ele><time>2021-01-07T12:58:00Z</time><cmt>4.4 kmh</cmt></trkpt>
<trkpt lat="51.679399" lon="03.849634"><ele>2</ele><time>2021-01-07T12:58:01Z</time><cmt>4.4 kmh</cmt></trkpt>
<trkpt lat="51.679392" lon="03.849649"><ele>2</ele><time>2021-01-07T12:58:02Z</time><cmt>4.7 kmh</cmt></trkpt>
<trkpt lat="51.679386" lon="03.849663"><ele>2</ele><time>2021-01-07T12:58:03Z</time><cmt>4.8 kmh</cmt></trkpt>
<trkpt lat="51.679380" lon="03.849677"><ele>2</ele><time>2021-01-07T12:58:04Z</time><cmt>3.7 kmh</cmt></trkpt>
<trkpt lat="51.679374" lon="03.849690"><ele>2</ele><time>2021-01-07T12:58:05Z</time><cmt>3.6 kmh</cmt></trkpt>
<trkpt lat="51.679368" lon="03.849703"><ele>2</ele><time>2021-01-07T12:58:06Z</time><cmt>4.4 kmh</cmt></trkpt>
<trkpt lat="51.679363" lon="03.849716"><ele>2</ele><time>2021-01-07T12:58:07Z</time><cmt>4.2 kmh</cmt></trkpt>
<trkpt lat="51.679358" lon="03.849729"><ele>2</ele><time>2021-01-07T12:58:08Z</time><cmt>4.0 kmh</cmt></trkpt>
<trkpt lat="51.679353" lon="03.849741"><ele>2</ele><time>2021-01-07T12:58:09Z</time><cmt>3.9 kmh</cmt></trkpt>
<trkpt lat="51.679347" lon="03.849754"><ele>2</ele><time>2021-01-07T12:58:10Z</time><cmt>3.3 kmh</cmt></trkpt>
<trkpt lat="51.679341" lon="03.849767"><ele>3</ele><time>2021-01-07T12:58:11Z</time><cmt>3.4 kmh</cmt></trkpt>
<trkpt lat="51.679336" lon="03.849780"><ele>3</ele><time>2021-01-07T12:58:12Z</time><cmt>4.4 kmh</cmt></trkpt>
<trkpt lat="51.679331" lon="03.849794"><ele>3</ele><time>2021-01-07T12:58:13Z</time><cmt>4.2 kmh</cmt></trkpt>
<trkpt lat="51.679326" lon="03.849807"><ele>3</ele><time>2021-01-07T12:58:14Z</time><cmt>4.1 kmh</cmt></trkpt>
<trkpt lat="51.679320" lon="03.849821"><ele>3</ele><time>2021-01-07T12:58:15Z</time><cmt>4.2 kmh</cmt></trkpt>
<trkpt lat="51.679315" lon="03.849834"><ele>3</ele><time>2021-01-07T12:58:16Z</time><cmt>3.5 kmh</cmt></trkpt>
<trkpt lat="51.679311" lon="03.849846"><ele>3</ele><time>2021-01-07T12:58:17Z</time><cmt>3.2 kmh</cmt></trkpt>
<trkpt lat="51.679308" lon="03.849854"><ele>3</ele><time>2021-01-07T12:58:18Z</time><cmt>3.1 kmh</cmt></trkpt>
<trkpt lat="51.679306" lon="03.849858"><ele>3</ele><time>2021-01-07T12:58:19Z</time><cmt>1.8 kmh</cmt></trkpt>
<trkpt lat="51.679305" lon="03.849862"><ele>3</ele><time>2021-01-07T12:58:20Z</time><cmt>1.3 kmh</cmt></trkpt>
<trkpt lat="51.679303" lon="03.849866"><ele>3</ele><time>2021-01-07T12:58:21Z</time><cmt>1.3 kmh</cmt></trkpt>
<trkpt lat="51.679303" lon="03.849870"><ele>3</ele><time>2021-01-07T12:58:22Z</time><cmt>1.2 kmh</cmt></trkpt>
<trkpt lat="51.679301" lon="03.849873"><ele>3</ele><time>2021-01-07T12:58:23Z</time><cmt>0.8 kmh</cmt></trkpt>
<trkpt lat="51.679300" lon="03.849878"><ele>3</ele><time>2021-01-07T12:58:24Z</time><cmt>1.0 kmh</cmt></trkpt>
<trkpt lat="51.679297" lon="03.849884"><ele>3</ele><time>2021-01-07T12:58:25Z</time><cmt>1.7 kmh</cmt></trkpt>
<trkpt lat="51.679294" lon="03.849891"><ele>3</ele><time>2021-01-07T12:58:26Z</time><cmt>2.2 kmh</cmt></trkpt>
<trkpt lat="51.679291" lon="03.849900"><ele>3</ele><time>2021-01-07T12:58:27Z</time><cmt>2.5 kmh</cmt></trkpt>
<trkpt lat="51.679289" lon="03.849910"><ele>3</ele><time>2021-01-07T12:58:28Z</time><cmt>2.8 kmh</cmt></trkpt>
<trkpt lat="51.679285" lon="03.849920"><ele>3</ele><time>2021-01-07T12:58:29Z</time><cmt>2.4 kmh</cmt></trkpt>
<trkpt lat="51.679281" lon="03.849931"><ele>3</ele><time>2021-01-07T12:58:30Z</time><cmt>2.6 kmh</cmt></trkpt>
<trkpt lat="51.679276" lon="03.849942"><ele>3</ele><time>2021-01-07T12:58:31Z</time><cmt>3.5 kmh</cmt></trkpt>
<trkpt lat="51.679271" lon="03.849954"><ele>3</ele><time>2021-01-07T12:58:32Z</time><cmt>3.7 kmh</cmt></trkpt>
<trkpt lat="51.679267" lon="03.849964"><ele>3</ele><time>2021-01-07T12:58:33Z</time><cmt>3.6 kmh</cmt></trkpt>
<trkpt lat="51.679263" lon="03.849975"><ele>3</ele><time>2021-01-07T12:58:34Z</time><cmt>3.4 kmh</cmt></trkpt>
<trkpt lat="51.679258" lon="03.849987"><ele>3</ele><time>2021-01-07T12:58:35Z</time><cmt>2.9 kmh</cmt></trkpt>
<trkpt lat="51.679253" lon="03.850000"><ele>3</ele><time>2021-01-07T12:58:36Z</time><cmt>3.1 kmh</cmt></trkpt>
<trkpt lat="51.679248" lon="03.850012"><ele>3</ele><time>2021-01-07T12:58:37Z</time><cmt>4.0 kmh</cmt></trkpt>
<trkpt lat="51.679244" lon="03.850023"><ele>3</ele><time>2021-01-07T12:58:38Z</time><cmt>3.7 kmh</cmt></trkpt>
<trkpt lat="51.679240" lon="03.850033"><ele>3</ele><time>2021-01-07T12:58:39Z</time><cmt>3.2 kmh</cmt></trkpt>
<trkpt lat="51.679238" lon="03.850041"><ele>3</ele><time>2021-01-07T12:58:40Z</time><cmt>2.8 kmh</cmt></trkpt>
<trkpt lat="51.679236" lon="03.850047"><ele>3</ele><time>2021-01-07T12:58:41Z</time><cmt>2.1 kmh</cmt></trkpt>
<trkpt lat="51.679236" lon="03.850048"><ele>3</ele><time>2021-01-07T12:58:42Z</time><cmt>0.8 kmh</cmt></trkpt>
<trkpt lat="51.679236" lon="03.850049"><ele>3</ele><time>2021-01-07T12:58:43Z</time><cmt>0.2 kmh</cmt></trkpt>
<trkpt lat="51.679236" lon="03.850049"><ele>3</ele><time>2021-01-07T12:58:44Z</time><cmt>0.0 kmh</cmt></trkpt>
<trkpt lat="51.679236" lon="03.850049"><ele>3</ele><time>2021-01-07T12:58:45Z</time><cmt>0.0 kmh</cmt></trkpt>
<trkpt lat="51.679236" lon="03.850050"><ele>3</ele><time>2021-01-07T12:58:46Z</time><cmt>0.0 kmh</cmt></trkpt>
<trkpt lat="51.679236" lon="03.850050"><ele>3</ele><time>2021-01-07T12:58:47Z</time><cmt>0.0 kmh</cmt></trkpt>
<trkpt lat="51.679236" lon="03.850051"><ele>3</ele><time>2021-01-07T12:58:48Z</time><cmt>0.0 kmh</cmt></trkpt>
<trkpt lat="51.679234" lon="03.850054"><ele>3</ele><time>2021-01-07T12:58:49Z</time><cmt>0.4 kmh</cmt></trkpt>
<trkpt lat="51.679232" lon="03.850060"><ele>3</ele><time>2021-01-07T12:58:50Z</time><cmt>1.5 kmh</cmt></trkpt>
<trkpt lat="51.679229" lon="03.850068"><ele>3</ele><time>2021-01-07T12:58:51Z</time><cmt>2.3 kmh</cmt></trkpt>
<trkpt lat="51.679225" lon="03.850078"><ele>3</ele><time>2021-01-07T12:58:52Z</time><cmt>2.9 kmh</cmt></trkpt>
<trkpt lat="51.679221" lon="03.850087"><ele>3</ele><time>2021-01-07T12:58:53Z</time><cmt>2.9 kmh</cmt></trkpt>
<trkpt lat="51.679220" lon="03.850091"><ele>3</ele><time>2021-01-07T12:58:54Z</time><cmt>1.5 kmh</cmt></trkpt>
<trkpt lat="51.679220" lon="03.850093"><ele>3</ele><time>2021-01-07T12:58:55Z</time><cmt>0.7 kmh</cmt></trkpt>
<trkpt lat="51.679220" lon="03.850095"><ele>3</ele><time>2021-01-07T12:58:56Z</time><cmt>0.3 kmh</cmt></trkpt>
<trkpt lat="51.679220" lon="03.850096"><ele>3</ele><time>2021-01-07T12:58:57Z</time><cmt>0.0 kmh</cmt></trkpt>
<trkpt lat="51.679220" lon="03.850096"><ele>3</ele><time>2021-01-07T12:58:58Z</time><cmt>0.0 kmh</cmt></trkpt>
<trkpt lat="51.679220" lon="03.850097"><ele>3</ele><time>2021-01-07T12:58:59Z</time><cmt>0.0 kmh</cmt></trkpt>
<trkpt lat="51.679220" lon="03.850100"><ele>3</ele><time>2021-01-07T12:59:00Z</time><cmt>0.2 kmh</cmt></trkpt>
<trkpt lat="51.679217" lon="03.850105"><ele>3</ele><time>2021-01-07T12:59:01Z</time><cmt>0.7 kmh</cmt></trkpt>
<trkpt lat="51.679214" lon="03.850111"><ele>3</ele><time>2021-01-07T12:59:02Z</time><cmt>1.5 kmh</cmt></trkpt>
<trkpt lat="51.679211" lon="03.850117"><ele>3</ele><time>2021-01-07T12:59:03Z</time><cmt>2.2 kmh</cmt></trkpt>
<trkpt lat="51.679208" lon="03.850124"><ele>3</ele><time>2021-01-07T12:59:04Z</time><cmt>2.1 kmh</cmt></trkpt>
<trkpt lat="51.679205" lon="03.850130"><ele>3</ele><time>2021-01-07T12:59:05Z</time><cmt>2.1 kmh</cmt></trkpt>
<trkpt lat="51.679202" lon="03.850139"><ele>3</ele><time>2021-01-07T12:59:06Z</time><cmt>2.4 kmh</cmt></trkpt>
<trkpt lat="51.679198" lon="03.850151"><ele>3</ele><time>2021-01-07T12:59:07Z</time><cmt>2.5 kmh</cmt></trkpt>
<trkpt lat="51.679193" lon="03.850165"><ele>3</ele><time>2021-01-07T12:59:08Z</time><cmt>3.2 kmh</cmt></trkpt>
<trkpt lat="51.679188" lon="03.850179"><ele>3</ele><time>2021-01-07T12:59:09Z</time><cmt>4.3 kmh</cmt></trkpt>
<trkpt lat="51.679184" lon="03.850193"><ele>3</ele><time>2021-01-07T12:59:10Z</time><cmt>4.3 kmh</cmt></trkpt>
<trkpt lat="51.679179" lon="03.850207"><ele>3</ele><time>2021-01-07T12:59:11Z</time><cmt>4.3 kmh</cmt></trkpt>
<trkpt lat="51.679174" lon="03.850221"><ele>3</ele><time>2021-01-07T12:59:12Z</time><cmt>4.4 kmh</cmt></trkpt>
<trkpt lat="51.679168" lon="03.850235"><ele>4</ele><time>2021-01-07T12:59:13Z</time><cmt>4.5 kmh</cmt></trkpt>
<trkpt lat="51.679162" lon="03.850250"><ele>4</ele><time>2021-01-07T12:59:14Z</time><cmt>3.7 kmh</cmt></trkpt>
<trkpt lat="51.679157" lon="03.850265"><ele>4</ele><time>2021-01-07T12:59:15Z</time><cmt>3.6 kmh</cmt></trkpt>
<trkpt lat="51.679152" lon="03.850279"><ele>4</ele><time>2021-01-07T12:59:16Z</time><cmt>4.5 kmh</cmt></trkpt>
<trkpt lat="51.679147" lon="03.850294"><ele>4</ele><time>2021-01-07T12:59:17Z</time><cmt>4.5 kmh</cmt></trkpt>
<trkpt lat="51.679142" lon="03.850308"><ele>4</ele><time>2021-01-07T12:59:18Z</time><cmt>4.4 kmh</cmt></trkpt>
<trkpt lat="51.679137" lon="03.850321"><ele>4</ele><time>2021-01-07T12:59:19Z</time><cmt>4.2 kmh</cmt></trkpt>
<trkpt lat="51.679131" lon="03.850333"><ele>4</ele><time>2021-01-07T12:59:20Z</time><cmt>3.2 kmh</cmt></trkpt>
<trkpt lat="51.679126" lon="03.850345"><ele>4</ele><time>2021-01-07T12:59:21Z</time><cmt>3.1 kmh</cmt></trkpt>
<trkpt lat="51.679122" lon="03.850357"><ele>4</ele><time>2021-01-07T12:59:22Z</time><cmt>3.8 kmh</cmt></trkpt>
<trkpt lat="51.679119" lon="03.850370"><ele>4</ele><time>2021-01-07T12:59:23Z</time><cmt>3.7 kmh</cmt></trkpt>
<trkpt lat="51.679114" lon="03.850383"><ele>4</ele><time>2021-01-07T12:59:24Z</time><cmt>3.8 kmh</cmt></trkpt>
<trkpt lat="51.679110" lon="03.850396"><ele>4</ele><time>2021-01-07T12:59:25Z</time><cmt>3.9 kmh</cmt></trkpt>
<trkpt lat="51.679105" lon="03.850409"><ele>4</ele><time>2021-01-07T12:59:26Z</time><cmt>3.3 kmh</cmt></trkpt>
<trkpt lat="51.679100" lon="03.850423"><ele>4</ele><time>2021-01-07T12:59:27Z</time><cmt>3.4 kmh</cmt></trkpt>
<trkpt lat="51.679095" lon="03.850437"><ele>4</ele><time>2021-01-07T12:59:28Z</time><cmt>4.3 kmh</cmt></trkpt>
<trkpt lat="51.679089" lon="03.850451"><ele>4</ele><time>2021-01-07T12:59:29Z</time><cmt>4.4 kmh</cmt></trkpt>
<trkpt lat="51.679083" lon="03.850465"><ele>4</ele><time>2021-01-07T12:59:30Z</time><cmt>4.6 kmh</cmt></trkpt>
<trkpt lat="51.679077" lon="03.850480"><ele>4</ele><time>2021-01-07T12:59:31Z</time><cmt>4.6 kmh</cmt></trkpt>
<trkpt lat="51.679071" lon="03.850495"><ele>4</ele><time>2021-01-07T12:59:32Z</time><cmt>4.8 kmh</cmt></trkpt>
<trkpt lat="51.679065" lon="03.850512"><ele>4</ele><time>2021-01-07T12:59:33Z</time><cmt>4.0 kmh</cmt></trkpt>
<trkpt lat="51.679060" lon="03.850528"><ele>4</ele><time>2021-01-07T12:59:34Z</time><cmt>4.0 kmh</cmt></trkpt>
<trkpt lat="51.679055" lon="03.850544"><ele>4</ele><time>2021-01-07T12:59:35Z</time><cmt>4.9 kmh</cmt></trkpt>
<trkpt lat="51.679049" lon="03.850559"><ele>4</ele><time>2021-01-07T12:59:36Z</time><cmt>4.7 kmh</cmt></trkpt>
<trkpt lat="51.679043" lon="03.850574"><ele>4</ele><time>2021-01-07T12:59:37Z</time><cmt>4.8 kmh</cmt></trkpt>
<trkpt lat="51.679036" lon="03.850589"><ele>4</ele><time>2021-01-07T12:59:38Z</time><cmt>4.9 kmh</cmt></trkpt>
<trkpt lat="51.679030" lon="03.850604"><ele>4</ele><time>2021-01-07T12:59:39Z</time><cmt>4.0 kmh</cmt></trkpt>
<trkpt lat="51.679023" lon="03.850620"><ele>4</ele><time>2021-01-07T12:59:40Z</time><cmt>4.0 kmh</cmt></trkpt>
<trkpt lat="51.679017" lon="03.850634"><ele>4</ele><time>2021-01-07T12:59:41Z</time><cmt>4.9 kmh</cmt></trkpt>
<trkpt lat="51.679011" lon="03.850648"><ele>4</ele><time>2021-01-07T12:59:42Z</time><cmt>4.6 kmh</cmt></trkpt>
<trkpt lat="51.679005" lon="03.850662"><ele>4</ele><time>2021-01-07T12:59:43Z</time><cmt>4.5 kmh</cmt></trkpt>
<trkpt lat="51.678999" lon="03.850676"><ele>4</ele><time>2021-01-07T12:59:44Z</time><cmt>4.4 kmh</cmt></trkpt>
<trkpt lat="51.678993" lon="03.850690"><ele>4</ele><time>2021-01-07T12:59:45Z</time><cmt>3.6 kmh</cmt></trkpt>
<trkpt lat="51.678987" lon="03.850706"><ele>4</ele><time>2021-01-07T12:59:46Z</time><cmt>3.9 kmh</cmt></trkpt>
<trkpt lat="51.678980" lon="03.850722"><ele>4</ele><time>2021-01-07T12:59:47Z</time><cmt>5.0 kmh</cmt></trkpt>
<trkpt lat="51.678974" lon="03.850738"><ele>4</ele><time>2021-01-07T12:59:48Z</time><cmt>5.0 kmh</cmt></trkpt>
<trkpt lat="51.678966" lon="03.850752"><ele>4</ele><time>2021-01-07T12:59:49Z</time><cmt>5.0 kmh</cmt></trkpt>
<trkpt lat="51.678959" lon="03.850767"><ele>4</ele><time>2021-01-07T12:59:50Z</time><cmt>5.0 kmh</cmt></trkpt>
<trkpt lat="51.678952" lon="03.850783"><ele>4</ele><time>2021-01-07T12:59:51Z</time><cmt>5.0 kmh</cmt></trkpt>
<trkpt lat="51.678946" lon="03.850798"><ele>4</ele><time>2021-01-07T12:59:52Z</time><cmt>4.0 kmh</cmt></trkpt>
<trkpt lat="51.678939" lon="03.850813"><ele>4</ele><time>2021-01-07T12:59:53Z</time><cmt>4.0 kmh</cmt></trkpt>
<trkpt lat="51.678932" lon="03.850829"><ele>4</ele><time>2021-01-07T12:59:54Z</time><cmt>5.0 kmh</cmt></trkpt>
<trkpt lat="51.678926" lon="03.850844"><ele>4</ele><time>2021-01-07T12:59:55Z</time><cmt>5.0 kmh</cmt></trkpt>
<trkpt lat="51.678920" lon="03.850859"><ele>4</ele><time>2021-01-07T12:59:56Z</time><cmt>4.8 kmh</cmt></trkpt>
<trkpt lat="51.678912" lon="03.850875"><ele>4</ele><time>2021-01-07T12:59:57Z</time><cmt>5.2 kmh</cmt></trkpt>
<trkpt lat="51.678904" lon="03.850892"><ele>4</ele><time>2021-01-07T12:59:58Z</time><cmt>5.1 kmh</cmt></trkpt>
<trkpt lat="51.678896" lon="03.850908"><ele>4</ele><time>2021-01-07T12:59:59Z</time><cmt>5.1 kmh</cmt></trkpt>
<trkpt lat="51.678889" lon="03.850922"><ele>4</ele><time>2021-01-07T13:00:00Z</time><cmt>5.0 kmh</cmt></trkpt>
<trkpt lat="51.678882" lon="03.850937"><ele>4</ele><time>2021-01-07T13:00:01Z</time><cmt>5.0 kmh</cmt></trkpt>
<trkpt lat="51.678874" lon="03.850954"><ele>4</ele><time>2021-01-07T13:00:02Z</time><cmt>5.1 kmh</cmt></trkpt>
<trkpt lat="51.678866" lon="03.850972"><ele>4</ele><time>2021-01-07T13:00:03Z</time><cmt>5.4 kmh</cmt></trkpt>
<trkpt lat="51.678858" lon="03.850990"><ele>4</ele><time>2021-01-07T13:00:04Z</time><cmt>5.4 kmh</cmt></trkpt>
<trkpt lat="51.678850" lon="03.851006"><ele>4</ele><time>2021-01-07T13:00:05Z</time><cmt>4.5 kmh</cmt></trkpt>
<trkpt lat="51.678843" lon="03.851021"><ele>4</ele><time>2021-01-07T13:00:06Z</time><cmt>5.0 kmh</cmt></trkpt>
<trkpt lat="51.678837" lon="03.851037"><ele>4</ele><time>2021-01-07T13:00:07Z</time><cmt>5.0 kmh</cmt></trkpt>
<trkpt lat="51.678830" lon="03.851053"><ele>4</ele><time>2021-01-07T13:00:08Z</time><cmt>5.0 kmh</cmt></trkpt>
<trkpt lat="51.678823" lon="03.851069"><ele>4</ele><time>2021-01-07T13:00:09Z</time><cmt>5.0 kmh</cmt></trkpt>
<trkpt lat="51.678816" lon="03.851084"><ele>4</ele><time>2021-01-07T13:00:10Z</time><cmt>5.0 kmh</cmt></trkpt>
<trkpt lat="51.678808" lon="03.851099"><ele>4</ele><time>2021-01-07T13:00:11Z</time><cmt>4.1 kmh</cmt></trkpt>
<trkpt lat="51.678800" lon="03.851114"><ele>4</ele><time>2021-01-07T13:00:12Z</time><cmt>4.2 kmh</cmt></trkpt>
<trkpt lat="51.678792" lon="03.851129"><ele>4</ele><time>2021-01-07T13:00:13Z</time><cmt>5.0 kmh</cmt></trkpt>
<trkpt lat="51.678785" lon="03.851144"><ele>4</ele><time>2021-01-07T13:00:14Z</time><cmt>5.0 kmh</cmt></trkpt>
<trkpt lat="51.678778" lon="03.851160"><ele>4</ele><time>2021-01-07T13:00:15Z</time><cmt>5.0 kmh</cmt></trkpt>
<trkpt lat="51.678770" lon="03.851175"><ele>4</ele><time>2021-01-07T13:00:16Z</time><cmt>5.0 kmh</cmt></trkpt>
<trkpt lat="51.678763" lon="03.851192"><ele>5</ele><time>2021-01-07T13:00:17Z</time><cmt>5.0 kmh</cmt></trkpt>
<trkpt lat="51.678755" lon="03.851207"><ele>5</ele><time>2021-01-07T13:00:18Z</time><cmt>5.0 kmh</cmt></trkpt>
<trkpt lat="51.678747" lon="03.851224"><ele>5</ele><time>2021-01-07T13:00:19Z</time><cmt>5.3 kmh</cmt></trkpt>
<trkpt lat="51.678739" lon="03.851240"><ele>5</ele><time>2021-01-07T13:00:20Z</time><cmt>5.3 kmh</cmt></trkpt>
<trkpt lat="51.678731" lon="03.851255"><ele>5</ele><time>2021-01-07T13:00:21Z</time><cmt>5.0 kmh</cmt></trkpt>
<trkpt lat="51.678723" lon="03.851270"><ele>5</ele><time>2021-01-07T13:00:22Z</time><cmt>5.0 kmh</cmt></trkpt>
<trkpt lat="51.678715" lon="03.851287"><ele>5</ele><time>2021-01-07T13:00:23Z</time><cmt>4.3 kmh</cmt></trkpt>
<trkpt lat="51.678708" lon="03.851302"><ele>5</ele><time>2021-01-07T13:00:24Z</time><cmt>4.3 kmh</cmt></trkpt>
<trkpt lat="51.678700" lon="03.851316"><ele>5</ele><time>2021-01-07T13:00:25Z</time><cmt>5.0 kmh</cmt></trkpt>
<trkpt lat="51.678694" lon="03.851330"><ele>5</ele><time>2021-01-07T13:00:26Z</time><cmt>4.9 kmh</cmt></trkpt>
<trkpt lat="51.678687" lon="03.851345"><ele>5</ele><time>2021-01-07T13:00:27Z</time><cmt>4.8 kmh</cmt></trkpt>
<trkpt lat="51.678680" lon="03.851360"><ele>5</ele><time>2021-01-07T13:00:28Z</time><cmt>4.9 kmh</cmt></trkpt>
<trkpt lat="51.678673" lon="03.851376"><ele>5</ele><time>2021-01-07T13:00:29Z</time><cmt>5.0 kmh</cmt></trkpt>
<trkpt lat="51.678667" lon="03.851391"><ele>5</ele><time>2021-01-07T13:00:30Z</time><cmt>4.0 kmh</cmt></trkpt>
<trkpt lat="51.678660" lon="03.851406"><ele>5</ele><time>2021-01-07T13:00:31Z</time><cmt>5.3 kmh</cmt></trkpt>
<trkpt lat="51.678651" lon="03.851422"><ele>5</ele><time>2021-01-07T13:00:32Z</time><cmt>5.2 kmh</cmt></trkpt>
<trkpt lat="51.678644" lon="03.851437"><ele>5</ele><time>2021-01-07T13:00:33Z</time><cmt>5.2 kmh</cmt></trkpt>
<trkpt lat="51.678637" lon="03.851452"><ele>5</ele><time>2021-01-07T13:00:34Z</time><cmt>5.0 kmh</cmt></trkpt>
<trkpt lat="51.678630" lon="03.851467"><ele>5</ele><time>2021-01-07T13:00:35Z</time><cmt>4.9 kmh</cmt></trkpt>
<trkpt lat="51.678623" lon="03.851481"><ele>5</ele><time>2021-01-07T13:00:36Z</time><cmt>3.9 kmh</cmt></trkpt>
<trkpt lat="51.678616" lon="03.851495"><ele>5</ele><time>2021-01-07T13:00:37Z</time><cmt>3.9 kmh</cmt></trkpt>
<trkpt lat="51.678609" lon="03.851509"><ele>5</ele><time>2021-01-07T13:00:38Z</time><cmt>4.8 kmh</cmt></trkpt>
<trkpt lat="51.678603" lon="03.851523"><ele>5</ele><time>2021-01-07T13:00:39Z</time><cmt>4.7 kmh</cmt></trkpt>
<trkpt lat="51.678596" lon="03.851536"><ele>5</ele><time>2021-01-07T13:00:40Z</time><cmt>4.7 kmh</cmt></trkpt>
<trkpt lat="51.678590" lon="03.851550"><ele>5</ele><time>2021-01-07T13:00:41Z</time><cmt>4.5 kmh</cmt></trkpt>
<trkpt lat="51.678583" lon="03.851564"><ele>5</ele><time>2021-01-07T13:00:42Z</time><cmt>3.7 kmh</cmt></trkpt>
<trkpt lat="51.678576" lon="03.851577"><ele>5</ele><time>2021-01-07T13:00:43Z</time><cmt>3.8 kmh</cmt></trkpt>
<trkpt lat="51.678569" lon="03.851591"><ele>5</ele><time>2021-01-07T13:00:44Z</time><cmt>4.7 kmh</cmt></trkpt>
<trkpt lat="51.678563" lon="03.851606"><ele>5</ele><time>2021-01-07T13:00:45Z</time><cmt>4.7 kmh</cmt></trkpt>
<trkpt lat="51.678556" lon="03.851621"><ele>5</ele><time>2021-01-07T13:00:46Z</time><cmt>4.9 kmh</cmt></trkpt>
<trkpt lat="51.678549" lon="03.851636"><ele>5</ele><time>2021-01-07T13:00:47Z</time><cmt>5.0 kmh</cmt></trkpt>
<trkpt lat="51.678541" lon="03.851652"><ele>5</ele><time>2021-01-07T13:00:48Z</time><cmt>5.1 kmh</cmt></trkpt>
<trkpt lat="51.678534" lon="03.851667"><ele>5</ele><time>2021-01-07T13:00:49Z</time><cmt>5.1 kmh</cmt></trkpt>
<trkpt lat="51.678527" lon="03.851681"><ele>5</ele><time>2021-01-07T13:00:50Z</time><cmt>4.0 kmh</cmt></trkpt>
<trkpt lat="51.678520" lon="03.851695"><ele>5</ele><time>2021-01-07T13:00:51Z</time><cmt>4.8 kmh</cmt></trkpt>
<trkpt lat="51.678513" lon="03.851707"><ele>5</ele><time>2021-01-07T13:00:52Z</time><cmt>4.6 kmh</cmt></trkpt>
<trkpt lat="51.678506" lon="03.851720"><ele>5</ele><time>2021-01-07T13:00:53Z</time><cmt>4.5 kmh</cmt></trkpt>
<trkpt lat="51.678498" lon="03.851734"><ele>5</ele><time>2021-01-07T13:00:54Z</time><cmt>4.8 kmh</cmt></trkpt>
<trkpt lat="51.678491" lon="03.851748"><ele>5</ele><time>2021-01-07T13:00:55Z</time><cmt>4.0 kmh</cmt></trkpt>
<trkpt lat="51.678483" lon="03.851763"><ele>5</ele><time>2021-01-07T13:00:56Z</time><cmt>4.1 kmh</cmt></trkpt>
<trkpt lat="51.678475" lon="03.851778"><ele>5</ele><time>2021-01-07T13:00:57Z</time><cmt>5.0 kmh</cmt></trkpt>
<trkpt lat="51.678468" lon="03.851794"><ele>5</ele><time>2021-01-07T13:00:58Z</time><cmt>5.0 kmh</cmt></trkpt>
<trkpt lat="51.678462" lon="03.851809"><ele>5</ele><time>2021-01-07T13:00:59Z</time><cmt>5.0 kmh</cmt></trkpt>
<trkpt lat="51.678455" lon="03.851824"><ele>5</ele><time>2021-01-07T13:01:00Z</time><cmt>5.0 kmh</cmt></trkpt>
<trkpt lat="51.678448" lon="03.851837"><ele>5</ele><time>2021-01-07T13:01:01Z</time><cmt>3.8 kmh</cmt></trkpt>
<trkpt lat="51.678442" lon="03.851851"><ele>6</ele><time>2021-01-07T13:01:02Z</time><cmt>3.6 kmh</cmt></trkpt>
<trkpt lat="51.678435" lon="03.851865"><ele>6</ele><time>2021-01-07T13:01:03Z</time><cmt>4.7 kmh</cmt></trkpt>
<trkpt lat="51.678428" lon="03.851880"><ele>6</ele><time>2021-01-07T13:01:04Z</time><cmt>5.0 kmh</cmt></trkpt>
<trkpt lat="51.678421" lon="03.851895"><ele>6</ele><time>2021-01-07T13:01:05Z</time><cmt>5.0 kmh</cmt></trkpt>
<trkpt lat="51.678414" lon="03.851908"><ele>6</ele><time>2021-01-07T13:01:06Z</time><cmt>4.6 kmh</cmt></trkpt>
<trkpt lat="51.678407" lon="03.851920"><ele>6</ele><time>2021-01-07T13:01:07Z</time><cmt>4.5 kmh</cmt></trkpt>
<trkpt lat="51.678400" lon="03.851934"><ele>6</ele><time>2021-01-07T13:01:08Z</time><cmt>3.8 kmh</cmt></trkpt>
<trkpt lat="51.678394" lon="03.851947"><ele>6</ele><time>2021-01-07T13:01:09Z</time><cmt>3.7 kmh</cmt></trkpt>
<trkpt lat="51.678388" lon="03.851960"><ele>6</ele><time>2021-01-07T13:01:10Z</time><cmt>4.4 kmh</cmt></trkpt>
<trkpt lat="51.678381" lon="03.851974"><ele>6</ele><time>2021-01-07T13:01:11Z</time><cmt>4.5 kmh</cmt></trkpt>
<trkpt lat="51.678375" lon="03.851987"><ele>6</ele><time>2021-01-07T13:01:12Z</time><cmt>4.5 kmh</cmt></trkpt>
<trkpt lat="51.678369" lon="03.852000"><ele>6</ele><time>2021-01-07T13:01:13Z</time><cmt>4.3 kmh</cmt></trkpt>
<trkpt lat="51.678363" lon="03.852013"><ele>6</ele><time>2021-01-07T13:01:14Z</time><cmt>3.5 kmh</cmt></trkpt>
<trkpt lat="51.678355" lon="03.852028"><ele>6</ele><time>2021-01-07T13:01:15Z</time><cmt>3.8 kmh</cmt></trkpt>
<trkpt lat="51.678349" lon="03.852041"><ele>6</ele><time>2021-01-07T13:01:16Z</time><cmt>4.8 kmh</cmt></trkpt>
<trkpt lat="51.678342" lon="03.852054"><ele>6</ele><time>2021-01-07T13:01:17Z</time><cmt>4.5 kmh</cmt></trkpt>
<trkpt lat="51.678336" lon="03.852068"><ele>6</ele><time>2021-01-07T13:01:18Z</time><cmt>4.6 kmh</cmt></trkpt>
<trkpt lat="51.678329" lon="03.852083"><ele>6</ele><time>2021-01-07T13:01:19Z</time><cmt>4.8 kmh</cmt></trkpt>
<trkpt lat="51.678322" lon="03.852097"><ele>6</ele><time>2021-01-07T13:01:20Z</time><cmt>3.9 kmh</cmt></trkpt>
<trkpt lat="51.678314" lon="03.852111"><ele>6</ele><time>2021-01-07T13:01:21Z</time><cmt>3.9 kmh</cmt></trkpt>
<trkpt lat="51.678306" lon="03.852124"><ele>6</ele><time>2021-01-07T13:01:22Z</time><cmt>5.0 kmh</cmt></trkpt>
<trkpt lat="51.678299" lon="03.852138"><ele>6</ele><time>2021-01-07T13:01:23Z</time><cmt>4.9 kmh</cmt></trkpt>
<trkpt lat="51.678292" lon="03.852153"><ele>6</ele><time>2021-01-07T13:01:24Z</time><cmt>5.0 kmh</cmt></trkpt>
<trkpt lat="51.678284" lon="03.852170"><ele>6</ele><time>2021-01-07T13:01:25Z</time><cmt>5.0 kmh</cmt></trkpt>
<trkpt lat="51.678277" lon="03.852185"><ele>6</ele><time>2021-01-07T13:01:26Z</time><cmt>5.0 kmh</cmt></trkpt>
<trkpt lat="51.678268" lon="03.852201"><ele>6</ele><time>2021-01-07T13:01:27Z</time><cmt>5.5 kmh</cmt></trkpt>
<trkpt lat="51.678260" lon="03.852218"><ele>6</ele><time>2021-01-07T13:01:28Z</time><cmt>5.5 kmh</cmt></trkpt>
<trkpt lat="51.678251" lon="03.852234"><ele>6</ele><time>2021-01-07T13:01:29Z</time><cmt>5.0 kmh</cmt></trkpt>
<trkpt lat="51.678243" lon="03.852250"><ele>6</ele><time>2021-01-07T13:01:30Z</time><cmt>5.0 kmh</cmt></trkpt>
<trkpt lat="51.678237" lon="03.852265"><ele>6</ele><time>2021-01-07T13:01:31Z</time><cmt>5.0 kmh</cmt></trkpt>
<trkpt lat="51.678230" lon="03.852279"><ele>6</ele><time>2021-01-07T13:01:32Z</time><cmt>4.9 kmh</cmt></trkpt>
<trkpt lat="51.678223" lon="03.852294"><ele>6</ele><time>2021-01-07T13:01:33Z</time><cmt>4.0 kmh</cmt></trkpt>
<trkpt lat="51.678216" lon="03.852308"><ele>6</ele><time>2021-01-07T13:01:34Z</time><cmt>3.9 kmh</cmt></trkpt>
<trkpt lat="51.678208" lon="03.852322"><ele>6</ele><time>2021-01-07T13:01:35Z</time><cmt>4.8 kmh</cmt></trkpt>
<trkpt lat="51.678201" lon="03.852337"><ele>6</ele><time>2021-01-07T13:01:36Z</time><cmt>5.0 kmh</cmt></trkpt>
<trkpt lat="51.678192" lon="03.852353"><ele>6</ele><time>2021-01-07T13:01:37Z</time><cmt>5.5 kmh</cmt></trkpt>
<trkpt lat="51.678184" lon="03.852369"><ele>6</ele><time>2021-01-07T13:01:38Z</time><cmt>5.5 kmh</cmt></trkpt>
<trkpt lat="51.678177" lon="03.852383"><ele>6</ele><time>2021-01-07T13:01:39Z</time><cmt>4.1 kmh</cmt></trkpt>
<trkpt lat="51.678170" lon="03.852397"><ele>6</ele><time>2021-01-07T13:01:40Z</time><cmt>3.9 kmh</cmt></trkpt>
<trkpt lat="51.678163" lon="03.852411"><ele>6</ele><time>2021-01-07T13:01:41Z</time><cmt>4.8 kmh</cmt></trkpt>
<trkpt lat="51.678156" lon="03.852424"><ele>6</ele><time>2021-01-07T13:01:42Z</time><cmt>4.6 kmh</cmt></trkpt>
<trkpt lat="51.678150" lon="03.852438"><ele>6</ele><time>2021-01-07T13:01:43Z</time><cmt>4.6 kmh</cmt></trkpt>
<trkpt lat="51.678143" lon="03.852452"><ele>6</ele><time>2021-01-07T13:01:44Z</time><cmt>4.7 kmh</cmt></trkpt>
<trkpt lat="51.678136" lon="03.852466"><ele>6</ele><time>2021-01-07T13:01:45Z</time><cmt>4.8 kmh</cmt></trkpt>
<trkpt lat="51.678130" lon="03.852480"><ele>6</ele><time>2021-01-07T13:01:46Z</time><cmt>3.8 kmh</cmt></trkpt>
<trkpt lat="51.678124" lon="03.852493"><ele>7</ele><time>2021-01-07T13:01:47Z</time><cmt>3.6 kmh</cmt></trkpt>
<trkpt lat="51.678117" lon="03.852506"><ele>7</ele><time>2021-01-07T13:01:48Z</time><cmt>4.5 kmh</cmt></trkpt>
<trkpt lat="51.678110" lon="03.852520"><ele>7</ele><time>2021-01-07T13:01:49Z</time><cmt>4.6 kmh</cmt></trkpt>
<trkpt lat="51.678103" lon="03.852534"><ele>7</ele><time>2021-01-07T13:01:50Z</time><cmt>4.8 kmh</cmt></trkpt>
<trkpt lat="51.678097" lon="03.852548"><ele>7</ele><time>2021-01-07T13:01:51Z</time><cmt>4.7 kmh</cmt></trkpt>
<trkpt lat="51.678091" lon="03.852561"><ele>7</ele><time>2021-01-07T13:01:52Z</time><cmt>3.6 kmh</cmt></trkpt>
<trkpt lat="51.678085" lon="03.852575"><ele>7</ele><time>2021-01-07T13:01:53Z</time><cmt>3.5 kmh</cmt></trkpt>
<trkpt lat="51.678079" lon="03.852589"><ele>7</ele><time>2021-01-07T13:01:54Z</time><cmt>4.5 kmh</cmt></trkpt>
<trkpt lat="51.678072" lon="03.852603"><ele>7</ele><time>2021-01-07T13:01:55Z</time><cmt>4.7 kmh</cmt></trkpt>
<trkpt lat="51.678066" lon="03.852616"><ele>7</ele><time>2021-01-07T13:01:56Z</time><cmt>4.5 kmh</cmt></trkpt>
<trkpt lat="51.678059" lon="03.852630"><ele>7</ele><time>2021-01-07T13:01:57Z</time><cmt>4.5 kmh</cmt></trkpt>
<trkpt lat="51.678052" lon="03.852644"><ele>7</ele><time>2021-01-07T13:01:58Z</time><cmt>4.9 kmh</cmt></trkpt>
<trkpt lat="51.678044" lon="03.852659"><ele>7</ele><time>2021-01-07T13:01:59Z</time><cmt>4.1 kmh</cmt></trkpt>
<trkpt lat="51.678038" lon="03.852673"><ele>7</ele><time>2021-01-07T13:02:00Z</time><cmt>4.0 kmh</cmt></trkpt>
<trkpt lat="51.678032" lon="03.852686"><ele>7</ele><time>2021-01-07T13:02:01Z</time><cmt>4.4 kmh</cmt></trkpt>
<trkpt lat="51.678027" lon="03.852697"><ele>7</ele><time>2021-01-07T13:02:02Z</time><cmt>3.8 kmh</cmt></trkpt>
<trkpt lat="51.678022" lon="03.852709"><ele>7</ele><time>2021-01-07T13:02:03Z</time><cmt>3.8 kmh</cmt></trkpt>
<trkpt lat="51.678016" lon="03.852721"><ele>7</ele><time>2021-01-07T13:02:04Z</time><cmt>4.1 kmh</cmt></trkpt>
<trkpt lat="51.678009" lon="03.852734"><ele>7</ele><time>2021-01-07T13:02:05Z</time><cmt>3.5 kmh</cmt></trkpt>
<trkpt lat="51.678003" lon="03.852747"><ele>7</ele><time>2021-01-07T13:02:06Z</time><cmt>3.5 kmh</cmt></trkpt>
<trkpt lat="51.677998" lon="03.852760"><ele>7</ele><time>2021-01-07T13:02:07Z</time><cmt>4.3 kmh</cmt></trkpt>
<trkpt lat="51.677992" lon="03.852774"><ele>7</ele><time>2021-01-07T13:02:08Z</time><cmt>4.4 kmh</cmt></trkpt>
<trkpt lat="51.677986" lon="03.852788"><ele>7</ele><time>2021-01-07T13:02:09Z</time><cmt>4.6 kmh</cmt></trkpt>
<trkpt lat="51.677981" lon="03.852802"><ele>7</ele><time>2021-01-07T13:02:10Z</time><cmt>4.4 kmh</cmt></trkpt>
<trkpt lat="51.677975" lon="03.852815"><ele>7</ele><time>2021-01-07T13:02:11Z</time><cmt>3.5 kmh</cmt></trkpt>
<trkpt lat="51.677970" lon="03.852829"><ele>7</ele><time>2021-01-07T13:02:12Z</time><cmt>3.4 kmh</cmt></trkpt>
<trkpt lat="51.677965" lon="03.852842"><ele>7</ele><time>2021-01-07T13:02:13Z</time><cmt>4.2 kmh</cmt></trkpt>
<trkpt lat="51.677960" lon="03.852855"><ele>7</ele><time>2021-01-07T13:02:14Z</time><cmt>4.1 kmh</cmt></trkpt>
<trkpt lat="51.677955" lon="03.852867"><ele>7</ele><time>2021-01-07T13:02:15Z</time><cmt>3.9 kmh</cmt></trkpt>
<trkpt lat="51.677950" lon="03.852879"><ele>7</ele><time>2021-01-07T13:02:16Z</time><cmt>3.8 kmh</cmt></trkpt>
<trkpt lat="51.677946" lon="03.852891"><ele>7</ele><time>2021-01-07T13:02:17Z</time><cmt>3.8 kmh</cmt></trkpt>
<trkpt lat="51.677941" lon="03.852904"><ele>7</ele><time>2021-01-07T13:02:18Z</time><cmt>3.1 kmh</cmt></trkpt>
<trkpt lat="51.677937" lon="03.852917"><ele>7</ele><time>2021-01-07T13:02:19Z</time><cmt>3.1 kmh</cmt></trkpt>
<trkpt lat="51.677934" lon="03.852927"><ele>7</ele><time>2021-01-07T13:02:20Z</time><cmt>3.5 kmh</cmt></trkpt>
<trkpt lat="51.677930" lon="03.852937"><ele>7</ele><time>2021-01-07T13:02:21Z</time><cmt>3.1 kmh</cmt></trkpt>
<trkpt lat="51.677926" lon="03.852947"><ele>7</ele><time>2021-01-07T13:02:22Z</time><cmt>3.1 kmh</cmt></trkpt>
<trkpt lat="51.677922" lon="03.852958"><ele>7</ele><time>2021-01-07T13:02:23Z</time><cmt>3.3 kmh</cmt></trkpt>
<trkpt lat="51.677918" lon="03.852970"><ele>7</ele><time>2021-01-07T13:02:24Z</time><cmt>2.8 kmh</cmt></trkpt>
<trkpt lat="51.677914" lon="03.852981"><ele>7</ele><time>2021-01-07T13:02:25Z</time><cmt>2.8 kmh</cmt></trkpt>
<trkpt lat="51.677909" lon="03.852992"><ele>6</ele><time>2021-01-07T13:02:26Z</time><cmt>3.5 kmh</cmt></trkpt>
<trkpt lat="51.677905" lon="03.853001"><ele>6</ele><time>2021-01-07T13:02:27Z</time><cmt>3.3 kmh</cmt></trkpt>
<trkpt lat="51.677901" lon="03.853011"><ele>6</ele><time>2021-01-07T13:02:28Z</time><cmt>3.1 kmh</cmt></trkpt>
<trkpt lat="51.677897" lon="03.853023"><ele>6</ele><time>2021-01-07T13:02:29Z</time><cmt>3.3 kmh</cmt></trkpt>
<trkpt lat="51.677893" lon="03.853035"><ele>6</ele><time>2021-01-07T13:02:30Z</time><cmt>3.0 kmh</cmt></trkpt>
<trkpt lat="51.677888" lon="03.853047"><ele>6</ele><time>2021-01-07T13:02:31Z</time><cmt>3.0 kmh</cmt></trkpt>
<trkpt lat="51.677884" lon="03.853057"><ele>6</ele><time>2021-01-07T13:02:32Z</time><cmt>3.4 kmh</cmt></trkpt>
<trkpt lat="51.677880" lon="03.853067"><ele>6</ele><time>2021-01-07T13:02:33Z</time><cmt>3.3 kmh</cmt></trkpt>
<trkpt lat="51.677876" lon="03.853077"><ele>6</ele><time>2021-01-07T13:02:34Z</time><cmt>3.1 kmh</cmt></trkpt>
<trkpt lat="51.677873" lon="03.853087"><ele>6</ele><time>2021-01-07T13:02:35Z</time><cmt>3.0 kmh</cmt></trkpt>
<trkpt lat="51.677870" lon="03.853099"><ele>6</ele><time>2021-01-07T13:02:36Z</time><cmt>3.2 kmh</cmt></trkpt>
<trkpt lat="51.677867" lon="03.853111"><ele>6</ele><time>2021-01-07T13:02:37Z</time><cmt>2.7 kmh</cmt></trkpt>
<trkpt lat="51.677864" lon="03.853119"><ele>6</ele><time>2021-01-07T13:02:38Z</time><cmt>2.3 kmh</cmt></trkpt>
<trkpt lat="51.677862" lon="03.853124"><ele>6</ele><time>2021-01-07T13:02:39Z</time><cmt>2.1 kmh</cmt></trkpt>
<trkpt lat="51.677860" lon="03.853130"><ele>5</ele><time>2021-01-07T13:02:40Z</time><cmt>1.8 kmh</cmt></trkpt>
<trkpt lat="51.677857" lon="03.853138"><ele>5</ele><time>2021-01-07T13:02:41Z</time><cmt>2.1 kmh</cmt></trkpt>
<trkpt lat="51.677855" lon="03.853146"><ele>5</ele><time>2021-01-07T13:02:42Z</time><cmt>2.4 kmh</cmt></trkpt>
<trkpt lat="51.677851" lon="03.853155"><ele>5</ele><time>2021-01-07T13:02:43Z</time><cmt>2.2 kmh</cmt></trkpt>
<trkpt lat="51.677846" lon="03.853166"><ele>5</ele><time>2021-01-07T13:02:44Z</time><cmt>2.6 kmh</cmt></trkpt>
<trkpt lat="51.677842" lon="03.853178"><ele>5</ele><time>2021-01-07T13:02:45Z</time><cmt>3.6 kmh</cmt></trkpt>
<trkpt lat="51.677838" lon="03.853189"><ele>5</ele><time>2021-01-07T13:02:46Z</time><cmt>3.6 kmh</cmt></trkpt>
<trkpt lat="51.677834" lon="03.853200"><ele>5</ele><time>2021-01-07T13:02:47Z</time><cmt>3.4 kmh</cmt></trkpt>
<trkpt lat="51.677830" lon="03.853211"><ele>5</ele><time>2021-01-07T13:02:48Z</time><cmt>3.4 kmh</cmt></trkpt>
<trkpt lat="51.677827" lon="03.853221"><ele>5</ele><time>2021-01-07T13:02:49Z</time><cmt>2.6 kmh</cmt></trkpt>
<trkpt lat="51.677823" lon="03.853229"><ele>5</ele><time>2021-01-07T13:02:50Z</time><cmt>2.2 kmh</cmt></trkpt>
<trkpt lat="51.677821" lon="03.853235"><ele>5</ele><time>2021-01-07T13:02:51Z</time><cmt>2.3 kmh</cmt></trkpt>
<trkpt lat="51.677818" lon="03.853242"><ele>5</ele><time>2021-01-07T13:02:52Z</time><cmt>2.0 kmh</cmt></trkpt>
<trkpt lat="51.677817" lon="03.853246"><ele>5</ele><time>2021-01-07T13:02:53Z</time><cmt>1.6 kmh</cmt></trkpt>
<trkpt lat="51.677816" lon="03.853247"><ele>5</ele><time>2021-01-07T13:02:54Z</time><cmt>0.9 kmh</cmt></trkpt>
<trkpt lat="51.677816" lon="03.853248"><ele>5</ele><time>2021-01-07T13:02:55Z</time><cmt>0.3 kmh</cmt></trkpt>
<trkpt lat="51.677816" lon="03.853248"><ele>5</ele><time>2021-01-07T13:02:57Z</time><cmt>0.0 kmh</cmt></trkpt>
<trkpt lat="51.677816" lon="03.853248"><ele>5</ele><time>2021-01-07T13:02:58Z</time><cmt>0.0 kmh</cmt></trkpt>
<trkpt lat="51.677816" lon="03.853247"><ele>5</ele><time>2021-01-07T13:02:59Z</time><cmt>0.0 kmh</cmt></trkpt>
<trkpt lat="51.677817" lon="03.853247"><ele>5</ele><time>2021-01-07T13:03:00Z</time><cmt>0.0 kmh</cmt></trkpt>
<trkpt lat="51.677817" lon="03.853246"><ele>5</ele><time>2021-01-07T13:03:01Z</time><cmt>0.0 kmh</cmt></trkpt>
<trkpt lat="51.677817" lon="03.853246"><ele>5</ele><time>2021-01-07T13:03:02Z</time><cmt>0.0 kmh</cmt></trkpt>
<trkpt lat="51.677818" lon="03.853245"><ele>4</ele><time>2021-01-07T13:03:03Z</time><cmt>0.0 kmh</cmt></trkpt>
<trkpt lat="51.677818" lon="03.853245"><ele>4</ele><time>2021-01-07T13:03:04Z</time><cmt>0.0 kmh</cmt></trkpt>
<trkpt lat="51.677817" lon="03.853247"><ele>4</ele><time>2021-01-07T13:03:05Z</time><cmt>0.2 kmh</cmt></trkpt>
<trkpt lat="51.677814" lon="03.853252"><ele>4</ele><time>2021-01-07T13:03:06Z</time><cmt>0.8 kmh</cmt></trkpt>
<trkpt lat="51.677811" lon="03.853258"><ele>4</ele><time>2021-01-07T13:03:07Z</time><cmt>1.9 kmh</cmt></trkpt>
<trkpt lat="51.677809" lon="03.853263"><ele>4</ele><time>2021-01-07T13:03:08Z</time><cmt>1.6 kmh</cmt></trkpt>
<trkpt lat="51.677807" lon="03.853266"><ele>4</ele><time>2021-01-07T13:03:09Z</time><cmt>1.1 kmh</cmt></trkpt>
<trkpt lat="51.677807" lon="03.853267"><ele>4</ele><time>2021-01-07T13:03:10Z</time><cmt>0.7 kmh</cmt></trkpt>
<trkpt lat="51.677806" lon="03.853268"><ele>4</ele><time>2021-01-07T13:03:11Z</time><cmt>0.4 kmh</cmt></trkpt>
<trkpt lat="51.677806" lon="03.853269"><ele>4</ele><time>2021-01-07T13:03:12Z</time><cmt>0.4 kmh</cmt></trkpt>
<trkpt lat="51.677805" lon="03.853272"><ele>4</ele><time>2021-01-07T13:03:13Z</time><cmt>0.6 kmh</cmt></trkpt>
<trkpt lat="51.677803" lon="03.853278"><ele>4</ele><time>2021-01-07T13:03:14Z</time><cmt>1.4 kmh</cmt></trkpt>
<trkpt lat="51.677800" lon="03.853284"><ele>4</ele><time>2021-01-07T13:03:15Z</time><cmt>1.5 kmh</cmt></trkpt>
<trkpt lat="51.677798" lon="03.853289"><ele>4</ele><time>2021-01-07T13:03:16Z</time><cmt>1.5 kmh</cmt></trkpt>
<trkpt lat="51.677795" lon="03.853294"><ele>4</ele><time>2021-01-07T13:03:17Z</time><cmt>1.7 kmh</cmt></trkpt>
<trkpt lat="51.677792" lon="03.853300"><ele>4</ele><time>2021-01-07T13:03:18Z</time><cmt>1.9 kmh</cmt></trkpt>
<trkpt lat="51.677789" lon="03.853306"><ele>4</ele><time>2021-01-07T13:03:19Z</time><cmt>2.0 kmh</cmt></trkpt>
<trkpt lat="51.677786" lon="03.853315"><ele>4</ele><time>2021-01-07T13:03:20Z</time><cmt>2.5 kmh</cmt></trkpt>
<trkpt lat="51.677782" lon="03.853327"><ele>4</ele><time>2021-01-07T13:03:21Z</time><cmt>2.5 kmh</cmt></trkpt>
<trkpt lat="51.677779" lon="03.853340"><ele>4</ele><time>2021-01-07T13:03:22Z</time><cmt>2.9 kmh</cmt></trkpt>
<trkpt lat="51.677774" lon="03.853353"><ele>4</ele><time>2021-01-07T13:03:23Z</time><cmt>3.9 kmh</cmt></trkpt>
<trkpt lat="51.677770" lon="03.853365"><ele>4</ele><time>2021-01-07T13:03:24Z</time><cmt>3.8 kmh</cmt></trkpt>
<trkpt lat="51.677766" lon="03.853377"><ele>4</ele><time>2021-01-07T13:03:25Z</time><cmt>3.7 kmh</cmt></trkpt>
<trkpt lat="51.677763" lon="03.853391"><ele>4</ele><time>2021-01-07T13:03:26Z</time><cmt>3.8 kmh</cmt></trkpt>
<trkpt lat="51.677759" lon="03.853405"><ele>4</ele><time>2021-01-07T13:03:27Z</time><cmt>3.3 kmh</cmt></trkpt>
<trkpt lat="51.677755" lon="03.853420"><ele>4</ele><time>2021-01-07T13:03:28Z</time><cmt>3.4 kmh</cmt></trkpt>
<trkpt lat="51.677752" lon="03.853434"><ele>4</ele><time>2021-01-07T13:03:29Z</time><cmt>4.1 kmh</cmt></trkpt>
<trkpt lat="51.677749" lon="03.853448"><ele>4</ele><time>2021-01-07T13:03:30Z</time><cmt>4.1 kmh</cmt></trkpt>
<trkpt lat="51.677745" lon="03.853464"><ele>4</ele><time>2021-01-07T13:03:31Z</time><cmt>4.3 kmh</cmt></trkpt>
<trkpt lat="51.677742" lon="03.853480"><ele>4</ele><time>2021-01-07T13:03:32Z</time><cmt>4.5 kmh</cmt></trkpt>
<trkpt lat="51.677740" lon="03.853497"><ele>4</ele><time>2021-01-07T13:03:33Z</time><cmt>4.6 kmh</cmt></trkpt>
<trkpt lat="51.677739" lon="03.853514"><ele>4</ele><time>2021-01-07T13:03:34Z</time><cmt>3.7 kmh</cmt></trkpt>
<trkpt lat="51.677737" lon="03.853531"><ele>4</ele><time>2021-01-07T13:03:35Z</time><cmt>3.6 kmh</cmt></trkpt>
<trkpt lat="51.677735" lon="03.853546"><ele>4</ele><time>2021-01-07T13:03:36Z</time><cmt>4.3 kmh</cmt></trkpt>
<trkpt lat="51.677733" lon="03.853560"><ele>4</ele><time>2021-01-07T13:03:37Z</time><cmt>4.0 kmh</cmt></trkpt>
<trkpt lat="51.677732" lon="03.853575"><ele>4</ele><time>2021-01-07T13:03:38Z</time><cmt>3.9 kmh</cmt></trkpt>
<trkpt lat="51.677731" lon="03.853592"><ele>4</ele><time>2021-01-07T13:03:39Z</time><cmt>4.3 kmh</cmt></trkpt>
<trkpt lat="51.677730" lon="03.853609"><ele>4</ele><time>2021-01-07T13:03:40Z</time><cmt>3.6 kmh</cmt></trkpt>
<trkpt lat="51.677730" lon="03.853626"><ele>4</ele><time>2021-01-07T13:03:41Z</time><cmt>3.7 kmh</cmt></trkpt>
<trkpt lat="51.677725" lon="03.853656"><ele>4</ele><time>2021-01-07T13:03:42Z</time><cmt>5.0 kmh</cmt></trkpt>
<trkpt lat="51.677720" lon="03.853685"><ele>4</ele><time>2021-01-07T13:03:43Z</time><cmt>5.0 kmh</cmt></trkpt>
<trkpt lat="51.677718" lon="03.853711"><ele>4</ele><time>2021-01-07T13:03:44Z</time><cmt>5.0 kmh</cmt></trkpt>
<trkpt lat="51.677716" lon="03.853735"><ele>4</ele><time>2021-01-07T13:03:45Z</time><cmt>5.0 kmh</cmt></trkpt>
<trkpt lat="51.677717" lon="03.853756"><ele>5</ele><time>2021-01-07T13:03:46Z</time><cmt>5.0 kmh</cmt></trkpt>
<trkpt lat="51.677718" lon="03.853774"><ele>5</ele><time>2021-01-07T13:03:47Z</time><cmt>4.1 kmh</cmt></trkpt>
<trkpt lat="51.677720" lon="03.853794"><ele>5</ele><time>2021-01-07T13:03:48Z</time><cmt>4.1 kmh</cmt></trkpt>
<trkpt lat="51.677722" lon="03.853814"><ele>5</ele><time>2021-01-07T13:03:49Z</time><cmt>5.0 kmh</cmt></trkpt>
<trkpt lat="51.677726" lon="03.853831"><ele>5</ele><time>2021-01-07T13:03:50Z</time><cmt>5.0 kmh</cmt></trkpt>
<trkpt lat="51.677729" lon="03.853847"><ele>6</ele><time>2021-01-07T13:03:51Z</time><cmt>4.6 kmh</cmt></trkpt>
<trkpt lat="51.677732" lon="03.853862"><ele>6</ele><time>2021-01-07T13:03:52Z</time><cmt>4.4 kmh</cmt></trkpt>
<trkpt lat="51.677737" lon="03.853876"><ele>6</ele><time>2021-01-07T13:03:53Z</time><cmt>3.4 kmh</cmt></trkpt>
<trkpt lat="51.677741" lon="03.853889"><ele>6</ele><time>2021-01-07T13:03:54Z</time><cmt>3.2 kmh</cmt></trkpt>
<trkpt lat="51.677744" lon="03.853905"><ele>6</ele><time>2021-01-07T13:03:55Z</time><cmt>4.3 kmh</cmt></trkpt>
<trkpt lat="51.677747" lon="03.853923"><ele>6</ele><time>2021-01-07T13:03:56Z</time><cmt>4.7 kmh</cmt></trkpt>
<trkpt lat="51.677751" lon="03.853940"><ele>6</ele><time>2021-01-07T13:03:57Z</time><cmt>4.9 kmh</cmt></trkpt>
<trkpt lat="51.677755" lon="03.853958"><ele>7</ele><time>2021-01-07T13:03:58Z</time><cmt>5.0 kmh</cmt></trkpt>
<trkpt lat="51.677759" lon="03.853975"><ele>7</ele><time>2021-01-07T13:03:59Z</time><cmt>4.1 kmh</cmt></trkpt>
<trkpt lat="51.677762" lon="03.853991"><ele>7</ele><time>2021-01-07T13:04:00Z</time><cmt>3.8 kmh</cmt></trkpt>
<trkpt lat="51.677767" lon="03.854006"><ele>7</ele><time>2021-01-07T13:04:01Z</time><cmt>4.5 kmh</cmt></trkpt>
<trkpt lat="51.677772" lon="03.854022"><ele>7</ele><time>2021-01-07T13:04:02Z</time><cmt>4.6 kmh</cmt></trkpt>
<trkpt lat="51.677777" lon="03.854038"><ele>7</ele><time>2021-01-07T13:04:03Z</time><cmt>4.7 kmh</cmt></trkpt>
<trkpt lat="51.677782" lon="03.854055"><ele>7</ele><time>2021-01-07T13:04:04Z</time><cmt>4.9 kmh</cmt></trkpt>
<trkpt lat="51.677786" lon="03.854074"><ele>7</ele><time>2021-01-07T13:04:05Z</time><cmt>5.0 kmh</cmt></trkpt>
<trkpt lat="51.677791" lon="03.854093"><ele>7</ele><time>2021-01-07T13:04:06Z</time><cmt>4.4 kmh</cmt></trkpt>
<trkpt lat="51.677795" lon="03.854109"><ele>7</ele><time>2021-01-07T13:04:07Z</time><cmt>4.1 kmh</cmt></trkpt>
<trkpt lat="51.677800" lon="03.854125"><ele>6</ele><time>2021-01-07T13:04:08Z</time><cmt>4.7 kmh</cmt></trkpt>
<trkpt lat="51.677804" lon="03.854141"><ele>6</ele><time>2021-01-07T13:04:09Z</time><cmt>4.7 kmh</cmt></trkpt>
<trkpt lat="51.677809" lon="03.854158"><ele>6</ele><time>2021-01-07T13:04:10Z</time><cmt>4.8 kmh</cmt></trkpt>
<trkpt lat="51.677812" lon="03.854173"><ele>6</ele><time>2021-01-07T13:04:11Z</time><cmt>4.6 kmh</cmt></trkpt>
<trkpt lat="51.677816" lon="03.854184"><ele>6</ele><time>2021-01-07T13:04:12Z</time><cmt>3.1 kmh</cmt></trkpt>
<trkpt lat="51.677820" lon="03.854195"><ele>6</ele><time>2021-01-07T13:04:13Z</time><cmt>2.7 kmh</cmt></trkpt>
<trkpt lat="51.677823" lon="03.854212"><ele>6</ele><time>2021-01-07T13:04:14Z</time><cmt>4.0 kmh</cmt></trkpt>
<trkpt lat="51.677828" lon="03.854227"><ele>6</ele><time>2021-01-07T13:04:15Z</time><cmt>4.6 kmh</cmt></trkpt>
<trkpt lat="51.677832" lon="03.854242"><ele>6</ele><time>2021-01-07T13:04:16Z</time><cmt>4.5 kmh</cmt></trkpt>
<trkpt lat="51.677836" lon="03.854258"><ele>6</ele><time>2021-01-07T13:04:17Z</time><cmt>4.5 kmh</cmt></trkpt>
<trkpt lat="51.677840" lon="03.854273"><ele>6</ele><time>2021-01-07T13:04:18Z</time><cmt>3.6 kmh</cmt></trkpt>
<trkpt lat="51.677845" lon="03.854289"><ele>5</ele><time>2021-01-07T13:04:19Z</time><cmt>3.7 kmh</cmt></trkpt>
<trkpt lat="51.677850" lon="03.854307"><ele>5</ele><time>2021-01-07T13:04:20Z</time><cmt>5.0 kmh</cmt></trkpt>
<trkpt lat="51.677855" lon="03.854323"><ele>5</ele><time>2021-01-07T13:04:21Z</time><cmt>4.9 kmh</cmt></trkpt>
<trkpt lat="51.677859" lon="03.854337"><ele>5</ele><time>2021-01-07T13:04:22Z</time><cmt>4.5 kmh</cmt></trkpt>
<trkpt lat="51.677863" lon="03.854352"><ele>5</ele><time>2021-01-07T13:04:23Z</time><cmt>4.3 kmh</cmt></trkpt>
<trkpt lat="51.677868" lon="03.854367"><ele>5</ele><time>2021-01-07T13:04:24Z</time><cmt>4.5 kmh</cmt></trkpt>
<trkpt lat="51.677873" lon="03.854382"><ele>5</ele><time>2021-01-07T13:04:25Z</time><cmt>3.6 kmh</cmt></trkpt>
<trkpt lat="51.677879" lon="03.854395"><ele>5</ele><time>2021-01-07T13:04:26Z</time><cmt>3.5 kmh</cmt></trkpt>
<trkpt lat="51.677884" lon="03.854409"><ele>5</ele><time>2021-01-07T13:04:27Z</time><cmt>4.3 kmh</cmt></trkpt>
<trkpt lat="51.677889" lon="03.854424"><ele>5</ele><time>2021-01-07T13:04:28Z</time><cmt>4.4 kmh</cmt></trkpt>
<trkpt lat="51.677893" lon="03.854440"><ele>4</ele><time>2021-01-07T13:04:29Z</time><cmt>4.6 kmh</cmt></trkpt>
<trkpt lat="51.677898" lon="03.854456"><ele>4</ele><time>2021-01-07T13:04:30Z</time><cmt>4.7 kmh</cmt></trkpt>
<trkpt lat="51.677902" lon="03.854472"><ele>4</ele><time>2021-01-07T13:04:31Z</time><cmt>3.8 kmh</cmt></trkpt>
<trkpt lat="51.677907" lon="03.854487"><ele>4</ele><time>2021-01-07T13:04:32Z</time><cmt>3.8 kmh</cmt></trkpt>
<trkpt lat="51.677912" lon="03.854502"><ele>4</ele><time>2021-01-07T13:04:33Z</time><cmt>4.6 kmh</cmt></trkpt>
<trkpt lat="51.677917" lon="03.854518"><ele>4</ele><time>2021-01-07T13:04:34Z</time><cmt>4.7 kmh</cmt></trkpt>
<trkpt lat="51.677921" lon="03.854534"><ele>4</ele><time>2021-01-07T13:04:35Z</time><cmt>4.7 kmh</cmt></trkpt>
<trkpt lat="51.677926" lon="03.854549"><ele>4</ele><time>2021-01-07T13:04:36Z</time><cmt>4.5 kmh</cmt></trkpt>
<trkpt lat="51.677930" lon="03.854565"><ele>4</ele><time>2021-01-07T13:04:37Z</time><cmt>3.6 kmh</cmt></trkpt>
<trkpt lat="51.677934" lon="03.854580"><ele>4</ele><time>2021-01-07T13:04:38Z</time><cmt>3.6 kmh</cmt></trkpt>
<trkpt lat="51.677938" lon="03.854596"><ele>4</ele><time>2021-01-07T13:04:39Z</time><cmt>4.6 kmh</cmt></trkpt>
<trkpt lat="51.677942" lon="03.854612"><ele>4</ele><time>2021-01-07T13:04:40Z</time><cmt>4.6 kmh</cmt></trkpt>
<trkpt lat="51.677946" lon="03.854629"><ele>4</ele><time>2021-01-07T13:04:41Z</time><cmt>4.7 kmh</cmt></trkpt>
<trkpt lat="51.677947" lon="03.854641"><ele>4</ele><time>2021-01-07T13:04:42Z</time><cmt>3.9 kmh</cmt></trkpt>
<trkpt lat="51.677948" lon="03.854649"><ele>4</ele><time>2021-01-07T13:04:43Z</time><cmt>2.8 kmh</cmt></trkpt>
<trkpt lat="51.677949" lon="03.854654"><ele>4</ele><time>2021-01-07T13:04:44Z</time><cmt>1.4 kmh</cmt></trkpt>
<trkpt lat="51.677951" lon="03.854658"><ele>4</ele><time>2021-01-07T13:04:45Z</time><cmt>1.0 kmh</cmt></trkpt>
<trkpt lat="51.677952" lon="03.854659"><ele>4</ele><time>2021-01-07T13:04:46Z</time><cmt>1.0 kmh</cmt></trkpt>
<trkpt lat="51.677953" lon="03.854661"><ele>4</ele><time>2021-01-07T13:04:47Z</time><cmt>0.7 kmh</cmt></trkpt>
<trkpt lat="51.677954" lon="03.854665"><ele>4</ele><time>2021-01-07T13:04:48Z</time><cmt>1.1 kmh</cmt></trkpt>
<trkpt lat="51.677956" lon="03.854674"><ele>4</ele><time>2021-01-07T13:04:49Z</time><cmt>1.9 kmh</cmt></trkpt>
<trkpt lat="51.677956" lon="03.854685"><ele>4</ele><time>2021-01-07T13:04:50Z</time><cmt>2.1 kmh</cmt></trkpt>
<trkpt lat="51.677956" lon="03.854698"><ele>4</ele><time>2021-01-07T13:04:51Z</time><cmt>2.6 kmh</cmt></trkpt>
<trkpt lat="51.677956" lon="03.854712"><ele>4</ele><time>2021-01-07T13:04:52Z</time><cmt>3.7 kmh</cmt></trkpt>
<trkpt lat="51.677957" lon="03.854728"><ele>4</ele><time>2021-01-07T13:04:53Z</time><cmt>4.1 kmh</cmt></trkpt>
<trkpt lat="51.677958" lon="03.854745"><ele>4</ele><time>2021-01-07T13:04:54Z</time><cmt>4.3 kmh</cmt></trkpt>
<trkpt lat="51.677958" lon="03.854762"><ele>4</ele><time>2021-01-07T13:04:55Z</time><cmt>4.5 kmh</cmt></trkpt>
<trkpt lat="51.677958" lon="03.854779"><ele>4</ele><time>2021-01-07T13:04:56Z</time><cmt>3.6 kmh</cmt></trkpt>
<trkpt lat="51.677958" lon="03.854795"><ele>4</ele><time>2021-01-07T13:04:57Z</time><cmt>3.6 kmh</cmt></trkpt>
<trkpt lat="51.677958" lon="03.854812"><ele>4</ele><time>2021-01-07T13:04:58Z</time><cmt>4.4 kmh</cmt></trkpt>
<trkpt lat="51.677959" lon="03.854828"><ele>4</ele><time>2021-01-07T13:04:59Z</time><cmt>4.4 kmh</cmt></trkpt>
<trkpt lat="51.677961" lon="03.854844"><ele>4</ele><time>2021-01-07T13:05:00Z</time><cmt>4.3 kmh</cmt></trkpt>
<trkpt lat="51.677963" lon="03.854860"><ele>4</ele><time>2021-01-07T13:05:01Z</time><cmt>4.4 kmh</cmt></trkpt>
<trkpt lat="51.677964" lon="03.854876"><ele>4</ele><time>2021-01-07T13:05:02Z</time><cmt>4.4 kmh</cmt></trkpt>
<trkpt lat="51.677965" lon="03.854892"><ele>4</ele><time>2021-01-07T13:05:03Z</time><cmt>3.5 kmh</cmt></trkpt>
<trkpt lat="51.677967" lon="03.854908"><ele>4</ele><time>2021-01-07T13:05:04Z</time><cmt>3.4 kmh</cmt></trkpt>
<trkpt lat="51.677969" lon="03.854923"><ele>4</ele><time>2021-01-07T13:05:05Z</time><cmt>4.2 kmh</cmt></trkpt>
<trkpt lat="51.677972" lon="03.854939"><ele>4</ele><time>2021-01-07T13:05:06Z</time><cmt>4.2 kmh</cmt></trkpt>
<trkpt lat="51.677975" lon="03.854953"><ele>4</ele><time>2021-01-07T13:05:07Z</time><cmt>4.1 kmh</cmt></trkpt>
<trkpt lat="51.677978" lon="03.854967"><ele>4</ele><time>2021-01-07T13:05:08Z</time><cmt>4.0 kmh</cmt></trkpt>
<trkpt lat="51.677981" lon="03.854981"><ele>4</ele><time>2021-01-07T13:05:09Z</time><cmt>3.2 kmh</cmt></trkpt>
<trkpt lat="51.677985" lon="03.854994"><ele>4</ele><time>2021-01-07T13:05:10Z</time><cmt>3.2 kmh</cmt></trkpt>
<trkpt lat="51.677988" lon="03.855007"><ele>4</ele><time>2021-01-07T13:05:11Z</time><cmt>3.8 kmh</cmt></trkpt>
<trkpt lat="51.677991" lon="03.855020"><ele>4</ele><time>2021-01-07T13:05:12Z</time><cmt>3.7 kmh</cmt></trkpt>
<trkpt lat="51.677994" lon="03.855033"><ele>4</ele><time>2021-01-07T13:05:13Z</time><cmt>3.8 kmh</cmt></trkpt>
<trkpt lat="51.677998" lon="03.855048"><ele>4</ele><time>2021-01-07T13:05:14Z</time><cmt>4.0 kmh</cmt></trkpt>
<trkpt lat="51.678000" lon="03.855062"><ele>4</ele><time>2021-01-07T13:05:15Z</time><cmt>3.3 kmh</cmt></trkpt>
<trkpt lat="51.678002" lon="03.855077"><ele>4</ele><time>2021-01-07T13:05:16Z</time><cmt>3.2 kmh</cmt></trkpt>
<trkpt lat="51.678003" lon="03.855090"><ele>4</ele><time>2021-01-07T13:05:17Z</time><cmt>3.8 kmh</cmt></trkpt>
<trkpt lat="51.678005" lon="03.855105"><ele>4</ele><time>2021-01-07T13:05:18Z</time><cmt>3.8 kmh</cmt></trkpt>
<trkpt lat="51.678009" lon="03.855119"><ele>4</ele><time>2021-01-07T13:05:19Z</time><cmt>4.0 kmh</cmt></trkpt>
<trkpt lat="51.678012" lon="03.855134"><ele>4</ele><time>2021-01-07T13:05:20Z</time><cmt>4.1 kmh</cmt></trkpt>
<trkpt lat="51.678016" lon="03.855148"><ele>4</ele><time>2021-01-07T13:05:21Z</time><cmt>4.2 kmh</cmt></trkpt>
<trkpt lat="51.678020" lon="03.855163"><ele>4</ele><time>2021-01-07T13:05:22Z</time><cmt>3.4 kmh</cmt></trkpt>
<trkpt lat="51.678024" lon="03.855177"><ele>4</ele><time>2021-01-07T13:05:23Z</time><cmt>3.4 kmh</cmt></trkpt>
<trkpt lat="51.678027" lon="03.855192"><ele>4</ele><time>2021-01-07T13:05:24Z</time><cmt>4.2 kmh</cmt></trkpt>
<trkpt lat="51.678030" lon="03.855207"><ele>3</ele><time>2021-01-07T13:05:25Z</time><cmt>4.2 kmh</cmt></trkpt>
<trkpt lat="51.678034" lon="03.855223"><ele>3</ele><time>2021-01-07T13:05:26Z</time><cmt>4.3 kmh</cmt></trkpt>
<trkpt lat="51.678037" lon="03.855238"><ele>3</ele><time>2021-01-07T13:05:27Z</time><cmt>4.4 kmh</cmt></trkpt>
<trkpt lat="51.678039" lon="03.855252"><ele>3</ele><time>2021-01-07T13:05:28Z</time><cmt>3.3 kmh</cmt></trkpt>
<trkpt lat="51.678041" lon="03.855265"><ele>3</ele><time>2021-01-07T13:05:29Z</time><cmt>3.0 kmh</cmt></trkpt>
<trkpt lat="51.678043" lon="03.855277"><ele>3</ele><time>2021-01-07T13:05:30Z</time><cmt>3.4 kmh</cmt></trkpt>
<trkpt lat="51.678045" lon="03.855291"><ele>3</ele><time>2021-01-07T13:05:31Z</time><cmt>3.6 kmh</cmt></trkpt>
<trkpt lat="51.678047" lon="03.855306"><ele>3</ele><time>2021-01-07T13:05:32Z</time><cmt>4.0 kmh</cmt></trkpt>
<trkpt lat="51.678049" lon="03.855322"><ele>3</ele><time>2021-01-07T13:05:33Z</time><cmt>4.2 kmh</cmt></trkpt>
<trkpt lat="51.678051" lon="03.855338"><ele>3</ele><time>2021-01-07T13:05:34Z</time><cmt>4.4 kmh</cmt></trkpt>
<trkpt lat="51.678053" lon="03.855353"><ele>3</ele><time>2021-01-07T13:05:35Z</time><cmt>3.4 kmh</cmt></trkpt>
<trkpt lat="51.678055" lon="03.855368"><ele>3</ele><time>2021-01-07T13:05:36Z</time><cmt>3.3 kmh</cmt></trkpt>
<trkpt lat="51.678056" lon="03.855382"><ele>3</ele><time>2021-01-07T13:05:37Z</time><cmt>3.9 kmh</cmt></trkpt>
<trkpt lat="51.678059" lon="03.855396"><ele>3</ele><time>2021-01-07T13:05:38Z</time><cmt>4.0 kmh</cmt></trkpt>
<trkpt lat="51.678061" lon="03.855412"><ele>3</ele><time>2021-01-07T13:05:39Z</time><cmt>4.2 kmh</cmt></trkpt>
<trkpt lat="51.678063" lon="03.855427"><ele>3</ele><time>2021-01-07T13:05:40Z</time><cmt>4.3 kmh</cmt></trkpt>
<trkpt lat="51.678066" lon="03.855444"><ele>3</ele><time>2021-01-07T13:05:41Z</time><cmt>3.5 kmh</cmt></trkpt>
<trkpt lat="51.678068" lon="03.855461"><ele>3</ele><time>2021-01-07T13:05:42Z</time><cmt>3.6 kmh</cmt></trkpt>
<trkpt lat="51.678070" lon="03.855476"><ele>3</ele><time>2021-01-07T13:05:43Z</time><cmt>4.4 kmh</cmt></trkpt>
<trkpt lat="51.678072" lon="03.855491"><ele>3</ele><time>2021-01-07T13:05:44Z</time><cmt>4.2 kmh</cmt></trkpt>
<trkpt lat="51.678075" lon="03.855506"><ele>3</ele><time>2021-01-07T13:05:45Z</time><cmt>4.1 kmh</cmt></trkpt>
<trkpt lat="51.678077" lon="03.855522"><ele>3</ele><time>2021-01-07T13:05:46Z</time><cmt>4.3 kmh</cmt></trkpt>
<trkpt lat="51.678080" lon="03.855538"><ele>3</ele><time>2021-01-07T13:05:47Z</time><cmt>3.6 kmh</cmt></trkpt>
<trkpt lat="51.678082" lon="03.855554"><ele>3</ele><time>2021-01-07T13:05:48Z</time><cmt>3.5 kmh</cmt></trkpt>
<trkpt lat="51.678085" lon="03.855571"><ele>3</ele><time>2021-01-07T13:05:49Z</time><cmt>4.4 kmh</cmt></trkpt>
<trkpt lat="51.678087" lon="03.855588"><ele>3</ele><time>2021-01-07T13:05:50Z</time><cmt>4.6 kmh</cmt></trkpt>
<trkpt lat="51.678090" lon="03.855606"><ele>3</ele><time>2021-01-07T13:05:51Z</time><cmt>4.8 kmh</cmt></trkpt>
<trkpt lat="51.678093" lon="03.855623"><ele>2</ele><time>2021-01-07T13:05:52Z</time><cmt>4.9 kmh</cmt></trkpt>
<trkpt lat="51.678095" lon="03.855641"><ele>2</ele><time>2021-01-07T13:05:53Z</time><cmt>4.8 kmh</cmt></trkpt>
<trkpt lat="51.678097" lon="03.855657"><ele>2</ele><time>2021-01-07T13:05:54Z</time><cmt>3.7 kmh</cmt></trkpt>
<trkpt lat="51.678099" lon="03.855674"><ele>2</ele><time>2021-01-07T13:05:55Z</time><cmt>3.6 kmh</cmt></trkpt>
<trkpt lat="51.678101" lon="03.855690"><ele>2</ele><time>2021-01-07T13:05:56Z</time><cmt>4.4 kmh</cmt></trkpt>
<trkpt lat="51.678104" lon="03.855706"><ele>2</ele><time>2021-01-07T13:05:57Z</time><cmt>4.4 kmh</cmt></trkpt>
<trkpt lat="51.678107" lon="03.855722"><ele>2</ele><time>2021-01-07T13:05:58Z</time><cmt>4.5 kmh</cmt></trkpt>
<trkpt lat="51.678110" lon="03.855739"><ele>2</ele><time>2021-01-07T13:05:59Z</time><cmt>4.6 kmh</cmt></trkpt>
<trkpt lat="51.678113" lon="03.855756"><ele>2</ele><time>2021-01-07T13:06:00Z</time><cmt>3.7 kmh</cmt></trkpt>
<trkpt lat="51.678115" lon="03.855772"><ele>2</ele><time>2021-01-07T13:06:01Z</time><cmt>3.6 kmh</cmt></trkpt>
<trkpt lat="51.678118" lon="03.855789"><ele>2</ele><time>2021-01-07T13:06:02Z</time><cmt>4.6 kmh</cmt></trkpt>
<trkpt lat="51.678120" lon="03.855806"><ele>2</ele><time>2021-01-07T13:06:03Z</time><cmt>4.6 kmh</cmt></trkpt>
<trkpt lat="51.678121" lon="03.855822"><ele>2</ele><time>2021-01-07T13:06:04Z</time><cmt>4.5 kmh</cmt></trkpt>
<trkpt lat="51.678122" lon="03.855838"><ele>2</ele><time>2021-01-07T13:06:05Z</time><cmt>4.4 kmh</cmt></trkpt>
<trkpt lat="51.678125" lon="03.855854"><ele>1</ele><time>2021-01-07T13:06:06Z</time><cmt>3.5 kmh</cmt></trkpt>
<trkpt lat="51.678127" lon="03.855870"><ele>1</ele><time>2021-01-07T13:06:07Z</time><cmt>3.5 kmh</cmt></trkpt>
<trkpt lat="51.678128" lon="03.855885"><ele>1</ele><time>2021-01-07T13:06:08Z</time><cmt>4.2 kmh</cmt></trkpt>
<trkpt lat="51.678129" lon="03.855901"><ele>1</ele><time>2021-01-07T13:06:09Z</time><cmt>4.2 kmh</cmt></trkpt>
<trkpt lat="51.678131" lon="03.855918"><ele>1</ele><time>2021-01-07T13:06:10Z</time><cmt>4.4 kmh</cmt></trkpt>
<trkpt lat="51.678132" lon="03.855934"><ele>1</ele><time>2021-01-07T13:06:11Z</time><cmt>4.4 kmh</cmt></trkpt>
<trkpt lat="51.678133" lon="03.855949"><ele>1</ele><time>2021-01-07T13:06:12Z</time><cmt>4.2 kmh</cmt></trkpt>
<trkpt lat="51.678135" lon="03.855964"><ele>1</ele><time>2021-01-07T13:06:13Z</time><cmt>3.3 kmh</cmt></trkpt>
<trkpt lat="51.678137" lon="03.855979"><ele>1</ele><time>2021-01-07T13:06:14Z</time><cmt>3.3 kmh</cmt></trkpt>
<trkpt lat="51.678138" lon="03.855994"><ele>1</ele><time>2021-01-07T13:06:15Z</time><cmt>4.1 kmh</cmt></trkpt>
<trkpt lat="51.678138" lon="03.856010"><ele>1</ele><time>2021-01-07T13:06:16Z</time><cmt>4.2 kmh</cmt></trkpt>
<trkpt lat="51.678139" lon="03.856027"><ele>1</ele><time>2021-01-07T13:06:17Z</time><cmt>4.4 kmh</cmt></trkpt>
<trkpt lat="51.678139" lon="03.856043"><ele>1</ele><time>2021-01-07T13:06:18Z</time><cmt>4.4 kmh</cmt></trkpt>
<trkpt lat="51.678140" lon="03.856059"><ele>1</ele><time>2021-01-07T13:06:19Z</time><cmt>3.5 kmh</cmt></trkpt>
<trkpt lat="51.678141" lon="03.856076"><ele>1</ele><time>2021-01-07T13:06:20Z</time><cmt>3.5 kmh</cmt></trkpt>
<trkpt lat="51.678142" lon="03.856093"><ele>1</ele><time>2021-01-07T13:06:21Z</time><cmt>4.4 kmh</cmt></trkpt>
<trkpt lat="51.678142" lon="03.856109"><ele>1</ele><time>2021-01-07T13:06:22Z</time><cmt>4.4 kmh</cmt></trkpt>
<trkpt lat="51.678141" lon="03.856121"><ele>1</ele><time>2021-01-07T13:06:23Z</time><cmt>3.9 kmh</cmt></trkpt>
<trkpt lat="51.678138" lon="03.856130"><ele>1</ele><time>2021-01-07T13:06:24Z</time><cmt>3.0 kmh</cmt></trkpt>
<trkpt lat="51.678137" lon="03.856138"><ele>1</ele><time>2021-01-07T13:06:25Z</time><cmt>1.9 kmh</cmt></trkpt>
<trkpt lat="51.678136" lon="03.856148"><ele>1</ele><time>2021-01-07T13:06:26Z</time><cmt>1.9 kmh</cmt></trkpt>
<trkpt lat="51.678136" lon="03.856159"><ele>1</ele><time>2021-01-07T13:06:27Z</time><cmt>2.8 kmh</cmt></trkpt>
<trkpt lat="51.678137" lon="03.856172"><ele>1</ele><time>2021-01-07T13:06:28Z</time><cmt>3.3 kmh</cmt></trkpt>
<trkpt lat="51.678138" lon="03.856186"><ele>1</ele><time>2021-01-07T13:06:29Z</time><cmt>3.6 kmh</cmt></trkpt>
<trkpt lat="51.678140" lon="03.856198"><ele>1</ele><time>2021-01-07T13:06:30Z</time><cmt>3.5 kmh</cmt></trkpt>
<trkpt lat="51.678142" lon="03.856210"><ele>1</ele><time>2021-01-07T13:06:31Z</time><cmt>3.4 kmh</cmt></trkpt>
<trkpt lat="51.678142" lon="03.856231"><ele>1</ele><time>2021-01-07T13:06:32Z</time><cmt>3.5 kmh</cmt></trkpt>
<trkpt lat="51.678140" lon="03.856249"><ele>1</ele><time>2021-01-07T13:06:33Z</time><cmt>4.2 kmh</cmt></trkpt>
<trkpt lat="51.678137" lon="03.856259"><ele>1</ele><time>2021-01-07T13:06:34Z</time><cmt>4.0 kmh</cmt></trkpt>
<trkpt lat="51.678135" lon="03.856264"><ele>1</ele><time>2021-01-07T13:06:35Z</time><cmt>2.3 kmh</cmt></trkpt>
<trkpt lat="51.678132" lon="03.856267"><ele>2</ele><time>2021-01-07T13:06:36Z</time><cmt>1.5 kmh</cmt></trkpt>
<trkpt lat="51.678131" lon="03.856273"><ele>2</ele><time>2021-01-07T13:06:37Z</time><cmt>1.4 kmh</cmt></trkpt>
<trkpt lat="51.678131" lon="03.856281"><ele>2</ele><time>2021-01-07T13:06:38Z</time><cmt>1.5 kmh</cmt></trkpt>
<trkpt lat="51.678130" lon="03.856288"><ele>2</ele><time>2021-01-07T13:06:39Z</time><cmt>1.6 kmh</cmt></trkpt>
<trkpt lat="51.678129" lon="03.856297"><ele>2</ele><time>2021-01-07T13:06:40Z</time><cmt>2.2 kmh</cmt></trkpt>
<trkpt lat="51.678128" lon="03.856307"><ele>3</ele><time>2021-01-07T13:06:41Z</time><cmt>2.5 kmh</cmt></trkpt>
<trkpt lat="51.678129" lon="03.856317"><ele>3</ele><time>2021-01-07T13:06:42Z</time><cmt>2.7 kmh</cmt></trkpt>
<trkpt lat="51.678130" lon="03.856327"><ele>3</ele><time>2021-01-07T13:06:43Z</time><cmt>2.7 kmh</cmt></trkpt>
<trkpt lat="51.678131" lon="03.856339"><ele>3</ele><time>2021-01-07T13:06:44Z</time><cmt>2.3 kmh</cmt></trkpt>
<trkpt lat="51.678132" lon="03.856351"><ele>3</ele><time>2021-01-07T13:06:45Z</time><cmt>2.6 kmh</cmt></trkpt>
<trkpt lat="51.678134" lon="03.856364"><ele>3</ele><time>2021-01-07T13:06:46Z</time><cmt>3.4 kmh</cmt></trkpt>
<trkpt lat="51.678135" lon="03.856376"><ele>3</ele><time>2021-01-07T13:06:47Z</time><cmt>3.4 kmh</cmt></trkpt>
<trkpt lat="51.678136" lon="03.856389"><ele>2</ele><time>2021-01-07T13:06:48Z</time><cmt>3.4 kmh</cmt></trkpt>
<trkpt lat="51.678137" lon="03.856404"><ele>2</ele><time>2021-01-07T13:06:49Z</time><cmt>3.8 kmh</cmt></trkpt>
<trkpt lat="51.678140" lon="03.856418"><ele>2</ele><time>2021-01-07T13:06:50Z</time><cmt>4.0 kmh</cmt></trkpt>
<trkpt lat="51.678142" lon="03.856430"><ele>2</ele><time>2021-01-07T13:06:51Z</time><cmt>2.8 kmh</cmt></trkpt>
<trkpt lat="51.678144" lon="03.856439"><ele>2</ele><time>2021-01-07T13:06:52Z</time><cmt>2.4 kmh</cmt></trkpt>
<trkpt lat="51.678147" lon="03.856449"><ele>2</ele><time>2021-01-07T13:06:53Z</time><cmt>2.8 kmh</cmt></trkpt>
<trkpt lat="51.678151" lon="03.856458"><ele>2</ele><time>2021-01-07T13:06:54Z</time><cmt>2.9 kmh</cmt></trkpt>
<trkpt lat="51.678154" lon="03.856465"><ele>2</ele><time>2021-01-07T13:06:55Z</time><cmt>2.6 kmh</cmt></trkpt>
<trkpt lat="51.678154" lon="03.856481"><ele>2</ele><time>2021-01-07T13:06:56Z</time><cmt>3.2 kmh</cmt></trkpt>
<trkpt lat="51.678154" lon="03.856496"><ele>2</ele><time>2021-01-07T13:06:57Z</time><cmt>3.3 kmh</cmt></trkpt>
<trkpt lat="51.678156" lon="03.856512"><ele>2</ele><time>2021-01-07T13:06:58Z</time><cmt>3.4 kmh</cmt></trkpt>
<trkpt lat="51.678159" lon="03.856528"><ele>2</ele><time>2021-01-07T13:06:59Z</time><cmt>4.4 kmh</cmt></trkpt>
<trkpt lat="51.678164" lon="03.856541"><ele>3</ele><time>2021-01-07T13:07:00Z</time><cmt>4.3 kmh</cmt></trkpt>
<trkpt lat="51.678169" lon="03.856552"><ele>3</ele><time>2021-01-07T13:07:01Z</time><cmt>3.9 kmh</cmt></trkpt>
<trkpt lat="51.678175" lon="03.856555"><ele>3</ele><time>2021-01-07T13:07:02Z</time><cmt>3.2 kmh</cmt></trkpt>
<trkpt lat="51.678177" lon="03.856557"><ele>3</ele><time>2021-01-07T13:07:03Z</time><cmt>1.4 kmh</cmt></trkpt>
<trkpt lat="51.678177" lon="03.856558"><ele>4</ele><time>2021-01-07T13:07:04Z</time><cmt>0.4 kmh</cmt></trkpt>
<trkpt lat="51.678177" lon="03.856558"><ele>4</ele><time>2021-01-07T13:07:05Z</time><cmt>0.3 kmh</cmt></trkpt>
<trkpt lat="51.678178" lon="03.856555"><ele>4</ele><time>2021-01-07T13:07:06Z</time><cmt>0.3 kmh</cmt></trkpt>
<trkpt lat="51.678182" lon="03.856551"><ele>5</ele><time>2021-01-07T13:07:07Z</time><cmt>1.5 kmh</cmt></trkpt>
<trkpt lat="51.678188" lon="03.856546"><ele>5</ele><time>2021-01-07T13:07:08Z</time><cmt>2.5 kmh</cmt></trkpt>
<trkpt lat="51.678194" lon="03.856540"><ele>5</ele><time>2021-01-07T13:07:09Z</time><cmt>3.0 kmh</cmt></trkpt>
<trkpt lat="51.678198" lon="03.856534"><ele>5</ele><time>2021-01-07T13:07:10Z</time><cmt>2.1 kmh</cmt></trkpt>
<trkpt lat="51.678200" lon="03.856528"><ele>5</ele><time>2021-01-07T13:07:11Z</time><cmt>1.6 kmh</cmt></trkpt>
<trkpt lat="51.678203" lon="03.856523"><ele>6</ele><time>2021-01-07T13:07:12Z</time><cmt>1.8 kmh</cmt></trkpt>
<trkpt lat="51.678206" lon="03.856521"><ele>6</ele><time>2021-01-07T13:07:13Z</time><cmt>1.6 kmh</cmt></trkpt>
<trkpt lat="51.678207" lon="03.856520"><ele>6</ele><time>2021-01-07T13:07:14Z</time><cmt>0.7 kmh</cmt></trkpt>
<trkpt lat="51.678206" lon="03.856520"><ele>6</ele><time>2021-01-07T13:07:15Z</time><cmt>0.0 kmh</cmt></trkpt>
<trkpt lat="51.678206" lon="03.856520"><ele>6</ele><time>2021-01-07T13:07:16Z</time><cmt>0.0 kmh</cmt></trkpt>
<trkpt lat="51.678205" lon="03.856522"><ele>6</ele><time>2021-01-07T13:07:17Z</time><cmt>0.0 kmh</cmt></trkpt>
<trkpt lat="51.678205" lon="03.856523"><ele>6</ele><time>2021-01-07T13:07:18Z</time><cmt>0.3 kmh</cmt></trkpt>
<trkpt lat="51.678205" lon="03.856523"><ele>6</ele><time>2021-01-07T13:07:19Z</time><cmt>0.3 kmh</cmt></trkpt>
<trkpt lat="51.678208" lon="03.856526"><ele>6</ele><time>2021-01-07T13:07:20Z</time><cmt>0.7 kmh</cmt></trkpt>
<trkpt lat="51.678211" lon="03.856530"><ele>6</ele><time>2021-01-07T13:07:21Z</time><cmt>1.5 kmh</cmt></trkpt>
<trkpt lat="51.678213" lon="03.856534"><ele>6</ele><time>2021-01-07T13:07:22Z</time><cmt>1.2 kmh</cmt></trkpt>
<trkpt lat="51.678215" lon="03.856538"><ele>6</ele><time>2021-01-07T13:07:23Z</time><cmt>1.1 kmh</cmt></trkpt>
<trkpt lat="51.678217" lon="03.856541"><ele>7</ele><time>2021-01-07T13:07:24Z</time><cmt>1.3 kmh</cmt></trkpt>
<trkpt lat="51.678219" lon="03.856545"><ele>7</ele><time>2021-01-07T13:07:25Z</time><cmt>1.2 kmh</cmt></trkpt>
<trkpt lat="51.678221" lon="03.856548"><ele>7</ele><time>2021-01-07T13:07:26Z</time><cmt>1.2 kmh</cmt></trkpt>
<trkpt lat="51.678223" lon="03.856551"><ele>7</ele><time>2021-01-07T13:07:27Z</time><cmt>1.3 kmh</cmt></trkpt>
<trkpt lat="51.678225" lon="03.856554"><ele>7</ele><time>2021-01-07T13:07:28Z</time><cmt>1.2 kmh</cmt></trkpt>
<trkpt lat="51.678228" lon="03.856557"><ele>7</ele><time>2021-01-07T13:07:29Z</time><cmt>1.0 kmh</cmt></trkpt>
<trkpt lat="51.678230" lon="03.856560"><ele>7</ele><time>2021-01-07T13:07:30Z</time><cmt>1.0 kmh</cmt></trkpt>
<trkpt lat="51.678231" lon="03.856562"><ele>7</ele><time>2021-01-07T13:07:31Z</time><cmt>1.0 kmh</cmt></trkpt>
<trkpt lat="51.678232" lon="03.856563"><ele>7</ele><time>2021-01-07T13:07:32Z</time><cmt>0.6 kmh</cmt></trkpt>
<trkpt lat="51.678232" lon="03.856564"><ele>7</ele><time>2021-01-07T13:07:33Z</time><cmt>0.2 kmh</cmt></trkpt>
<trkpt lat="51.678233" lon="03.856564"><ele>7</ele><time>2021-01-07T13:07:34Z</time><cmt>0.0 kmh</cmt></trkpt>
<trkpt lat="51.678233" lon="03.856565"><ele>7</ele><time>2021-01-07T13:07:35Z</time><cmt>0.0 kmh</cmt></trkpt>
<trkpt lat="51.678234" lon="03.856567"><ele>7</ele><time>2021-01-07T13:07:36Z</time><cmt>0.2 kmh</cmt></trkpt>
<trkpt lat="51.678235" lon="03.856571"><ele>7</ele><time>2021-01-07T13:07:37Z</time><cmt>0.8 kmh</cmt></trkpt>
<trkpt lat="51.678235" lon="03.856577"><ele>7</ele><time>2021-01-07T13:07:38Z</time><cmt>1.3 kmh</cmt></trkpt>
<trkpt lat="51.678235" lon="03.856582"><ele>7</ele><time>2021-01-07T13:07:39Z</time><cmt>1.6 kmh</cmt></trkpt>
<trkpt lat="51.678234" lon="03.856588"><ele>7</ele><time>2021-01-07T13:07:40Z</time><cmt>1.5 kmh</cmt></trkpt>
<trkpt lat="51.678234" lon="03.856592"><ele>7</ele><time>2021-01-07T13:07:41Z</time><cmt>1.0 kmh</cmt></trkpt>
<trkpt lat="51.678234" lon="03.856593"><ele>7</ele><time>2021-01-07T13:07:42Z</time><cmt>0.4 kmh</cmt></trkpt>
<trkpt lat="51.678234" lon="03.856593"><ele>7</ele><time>2021-01-07T13:07:43Z</time><cmt>0.0 kmh</cmt></trkpt>
<trkpt lat="51.678234" lon="03.856593"><ele>7</ele><time>2021-01-07T13:07:44Z</time><cmt>0.0 kmh</cmt></trkpt>
<trkpt lat="51.678234" lon="03.856593"><ele>7</ele><time>2021-01-07T13:07:45Z</time><cmt>0.0 kmh</cmt></trkpt>
<trkpt lat="51.678234" lon="03.856592"><ele>7</ele><time>2021-01-07T13:07:46Z</time><cmt>0.0 kmh</cmt></trkpt>
<trkpt lat="51.678235" lon="03.856592"><ele>7</ele><time>2021-01-07T13:07:47Z</time><cmt>0.0 kmh</cmt></trkpt>
<trkpt lat="51.678235" lon="03.856591"><ele>7</ele><time>2021-01-07T13:07:48Z</time><cmt>0.0 kmh</cmt></trkpt>
<trkpt lat="51.678235" lon="03.856590"><ele>7</ele><time>2021-01-07T13:07:49Z</time><cmt>0.1 kmh</cmt></trkpt>
<trkpt lat="51.678236" lon="03.856588"><ele>7</ele><time>2021-01-07T13:07:50Z</time><cmt>0.2 kmh</cmt></trkpt>
<trkpt lat="51.678236" lon="03.856587"><ele>7</ele><time>2021-01-07T13:07:51Z</time><cmt>0.0 kmh</cmt></trkpt>
<trkpt lat="51.678236" lon="03.856588"><ele>7</ele><time>2021-01-07T13:07:52Z</time><cmt>0.0 kmh</cmt></trkpt>
<trkpt lat="51.678235" lon="03.856590"><ele>7</ele><time>2021-01-07T13:07:53Z</time><cmt>0.3 kmh</cmt></trkpt>
<trkpt lat="51.678234" lon="03.856591"><ele>7</ele><time>2021-01-07T13:07:54Z</time><cmt>0.5 kmh</cmt></trkpt>
<trkpt lat="51.678234" lon="03.856591"><ele>6</ele><time>2021-01-07T13:07:55Z</time><cmt>0.3 kmh</cmt></trkpt>
<trkpt lat="51.678234" lon="03.856593"><ele>6</ele><time>2021-01-07T13:07:56Z</time><cmt>0.0 kmh</cmt></trkpt>
<trkpt lat="51.678232" lon="03.856595"><ele>6</ele><time>2021-01-07T13:07:57Z</time><cmt>0.3 kmh</cmt></trkpt>
<trkpt lat="51.678231" lon="03.856598"><ele>6</ele><time>2021-01-07T13:07:58Z</time><cmt>0.7 kmh</cmt></trkpt>
<trkpt lat="51.678229" lon="03.856602"><ele>6</ele><time>2021-01-07T13:07:59Z</time><cmt>1.1 kmh</cmt></trkpt>
<trkpt lat="51.678227" lon="03.856605"><ele>6</ele><time>2021-01-07T13:08:00Z</time><cmt>1.0 kmh</cmt></trkpt>
<trkpt lat="51.678226" lon="03.856606"><ele>6</ele><time>2021-01-07T13:08:01Z</time><cmt>0.8 kmh</cmt></trkpt>
<trkpt lat="51.678221" lon="03.856610"><ele>6</ele><time>2021-01-07T13:08:02Z</time><cmt>1.3 kmh</cmt></trkpt>
<trkpt lat="51.678217" lon="03.856614"><ele>5</ele><time>2021-01-07T13:08:03Z</time><cmt>2.2 kmh</cmt></trkpt>
<trkpt lat="51.678213" lon="03.856618"><ele>5</ele><time>2021-01-07T13:08:04Z</time><cmt>2.0 kmh</cmt></trkpt>
<trkpt lat="51.678210" lon="03.856619"><ele>5</ele><time>2021-01-07T13:08:05Z</time><cmt>1.6 kmh</cmt></trkpt>
<trkpt lat="51.678207" lon="03.856621"><ele>5</ele><time>2021-01-07T13:08:06Z</time><cmt>1.4 kmh</cmt></trkpt>
<trkpt lat="51.678206" lon="03.856624"><ele>5</ele><time>2021-01-07T13:08:07Z</time><cmt>0.9 kmh</cmt></trkpt>
<trkpt lat="51.678206" lon="03.856629"><ele>5</ele><time>2021-01-07T13:08:08Z</time><cmt>0.8 kmh</cmt></trkpt>
<trkpt lat="51.678208" lon="03.856634"><ele>5</ele><time>2021-01-07T13:08:09Z</time><cmt>1.4 kmh</cmt></trkpt>
<trkpt lat="51.678210" lon="03.856640"><ele>4</ele><time>2021-01-07T13:08:10Z</time><cmt>1.8 kmh</cmt></trkpt>
<trkpt lat="51.678214" lon="03.856645"><ele>4</ele><time>2021-01-07T13:08:11Z</time><cmt>2.0 kmh</cmt></trkpt>
<trkpt lat="51.678217" lon="03.856652"><ele>4</ele><time>2021-01-07T13:08:12Z</time><cmt>2.1 kmh</cmt></trkpt>
<trkpt lat="51.678221" lon="03.856658"><ele>4</ele><time>2021-01-07T13:08:13Z</time><cmt>1.9 kmh</cmt></trkpt>
<trkpt lat="51.678226" lon="03.856666"><ele>4</ele><time>2021-01-07T13:08:14Z</time><cmt>2.1 kmh</cmt></trkpt>
<trkpt lat="51.678230" lon="03.856675"><ele>4</ele><time>2021-01-07T13:08:15Z</time><cmt>2.9 kmh</cmt></trkpt>
<trkpt lat="51.678234" lon="03.856683"><ele>3</ele><time>2021-01-07T13:08:16Z</time><cmt>2.8 kmh</cmt></trkpt>
<trkpt lat="51.678237" lon="03.856691"><ele>3</ele><time>2021-01-07T13:08:17Z</time><cmt>2.6 kmh</cmt></trkpt>
<trkpt lat="51.678240" lon="03.856698"><ele>3</ele><time>2021-01-07T13:08:18Z</time><cmt>2.5 kmh</cmt></trkpt>
<trkpt lat="51.678242" lon="03.856705"><ele>3</ele><time>2021-01-07T13:08:19Z</time><cmt>2.3 kmh</cmt></trkpt>
<trkpt lat="51.678245" lon="03.856712"><ele>3</ele><time>2021-01-07T13:08:20Z</time><cmt>1.6 kmh</cmt></trkpt>
<trkpt lat="51.678246" lon="03.856716"><ele>3</ele><time>2021-01-07T13:08:21Z</time><cmt>1.2 kmh</cmt></trkpt>
<trkpt lat="51.678246" lon="03.856718"><ele>3</ele><time>2021-01-07T13:08:22Z</time><cmt>0.8 kmh</cmt></trkpt>
<trkpt lat="51.678248" lon="03.856722"><ele>3</ele><time>2021-01-07T13:08:23Z</time><cmt>0.9 kmh</cmt></trkpt>
<trkpt lat="51.678251" lon="03.856728"><ele>3</ele><time>2021-01-07T13:08:24Z</time><cmt>1.8 kmh</cmt></trkpt>
<trkpt lat="51.678256" lon="03.856735"><ele>2</ele><time>2021-01-07T13:08:25Z</time><cmt>2.4 kmh</cmt></trkpt>
<trkpt lat="51.678261" lon="03.856742"><ele>2</ele><time>2021-01-07T13:08:26Z</time><cmt>2.2 kmh</cmt></trkpt>
<trkpt lat="51.678266" lon="03.856751"><ele>2</ele><time>2021-01-07T13:08:27Z</time><cmt>2.4 kmh</cmt></trkpt>
<trkpt lat="51.678270" lon="03.856760"><ele>2</ele><time>2021-01-07T13:08:28Z</time><cmt>3.0 kmh</cmt></trkpt>
<trkpt lat="51.678274" lon="03.856769"><ele>2</ele><time>2021-01-07T13:08:29Z</time><cmt>3.0 kmh</cmt></trkpt>
<trkpt lat="51.678278" lon="03.856779"><ele>2</ele><time>2021-01-07T13:08:30Z</time><cmt>3.1 kmh</cmt></trkpt>
<trkpt lat="51.678283" lon="03.856789"><ele>2</ele><time>2021-01-07T13:08:31Z</time><cmt>3.3 kmh</cmt></trkpt>
<trkpt lat="51.678289" lon="03.856798"><ele>2</ele><time>2021-01-07T13:08:32Z</time><cmt>2.7 kmh</cmt></trkpt>
<trkpt lat="51.678294" lon="03.856808"><ele>2</ele><time>2021-01-07T13:08:33Z</time><cmt>2.8 kmh</cmt></trkpt>
<trkpt lat="51.678299" lon="03.856818"><ele>2</ele><time>2021-01-07T13:08:34Z</time><cmt>3.4 kmh</cmt></trkpt>
<trkpt lat="51.678303" lon="03.856827"><ele>2</ele><time>2021-01-07T13:08:35Z</time><cmt>3.2 kmh</cmt></trkpt>
<trkpt lat="51.678306" lon="03.856842"><ele>2</ele><time>2021-01-07T13:08:36Z</time><cmt>3.6 kmh</cmt></trkpt>
<trkpt lat="51.678309" lon="03.856856"><ele>2</ele><time>2021-01-07T13:08:37Z</time><cmt>4.0 kmh</cmt></trkpt>
<trkpt lat="51.678313" lon="03.856867"><ele>2</ele><time>2021-01-07T13:08:38Z</time><cmt>3.7 kmh</cmt></trkpt>
<trkpt lat="51.678319" lon="03.856879"><ele>2</ele><time>2021-01-07T13:08:39Z</time><cmt>3.0 kmh</cmt></trkpt>
<trkpt lat="51.678325" lon="03.856892"><ele>2</ele><time>2021-01-07T13:08:40Z</time><cmt>3.4 kmh</cmt></trkpt>
<trkpt lat="51.678331" lon="03.856905"><ele>2</ele><time>2021-01-07T13:08:41Z</time><cmt>4.3 kmh</cmt></trkpt>
<trkpt lat="51.678337" lon="03.856917"><ele>2</ele><time>2021-01-07T13:08:42Z</time><cmt>4.3 kmh</cmt></trkpt>
<trkpt lat="51.678344" lon="03.856927"><ele>2</ele><time>2021-01-07T13:08:43Z</time><cmt>4.1 kmh</cmt></trkpt>
<trkpt lat="51.678350" lon="03.856938"><ele>2</ele><time>2021-01-07T13:08:44Z</time><cmt>4.0 kmh</cmt></trkpt>
<trkpt lat="51.678357" lon="03.856950"><ele>2</ele><time>2021-01-07T13:08:45Z</time><cmt>3.4 kmh</cmt></trkpt>
<trkpt lat="51.678364" lon="03.856963"><ele>2</ele><time>2021-01-07T13:08:46Z</time><cmt>3.5 kmh</cmt></trkpt>
<trkpt lat="51.678370" lon="03.856976"><ele>2</ele><time>2021-01-07T13:08:47Z</time><cmt>4.3 kmh</cmt></trkpt>
<trkpt lat="51.678375" lon="03.856989"><ele>2</ele><time>2021-01-07T13:08:48Z</time><cmt>4.3 kmh</cmt></trkpt>
<trkpt lat="51.678380" lon="03.857002"><ele>1</ele><time>2021-01-07T13:08:49Z</time><cmt>4.1 kmh</cmt></trkpt>
<trkpt lat="51.678384" lon="03.857014"><ele>1</ele><time>2021-01-07T13:08:50Z</time><cmt>3.8 kmh</cmt></trkpt>
<trkpt lat="51.678387" lon="03.857027"><ele>1</ele><time>2021-01-07T13:08:51Z</time><cmt>3.0 kmh</cmt></trkpt>
<trkpt lat="51.678391" lon="03.857041"><ele>1</ele><time>2021-01-07T13:08:52Z</time><cmt>3.1 kmh</cmt></trkpt>
<trkpt lat="51.678394" lon="03.857055"><ele>1</ele><time>2021-01-07T13:08:53Z</time><cmt>4.0 kmh</cmt></trkpt>
<trkpt lat="51.678397" lon="03.857068"><ele>1</ele><time>2021-01-07T13:08:54Z</time><cmt>3.8 kmh</cmt></trkpt>
<trkpt lat="51.678400" lon="03.857080"><ele>1</ele><time>2021-01-07T13:08:55Z</time><cmt>3.6 kmh</cmt></trkpt>
<trkpt lat="51.678403" lon="03.857093"><ele>1</ele><time>2021-01-07T13:08:56Z</time><cmt>3.6 kmh</cmt></trkpt>
<trkpt lat="51.678406" lon="03.857105"><ele>1</ele><time>2021-01-07T13:08:57Z</time><cmt>3.6 kmh</cmt></trkpt>
<trkpt lat="51.678410" lon="03.857117"><ele>1</ele><time>2021-01-07T13:08:58Z</time><cmt>2.9 kmh</cmt></trkpt>
<trkpt lat="51.678412" lon="03.857130"><ele>0</ele><time>2021-01-07T13:08:59Z</time><cmt>2.9 kmh</cmt></trkpt>
<trkpt lat="51.678414" lon="03.857143"><ele>0</ele><time>2021-01-07T13:09:00Z</time><cmt>3.5 kmh</cmt></trkpt>
<trkpt lat="51.678415" lon="03.857155"><ele>0</ele><time>2021-01-07T13:09:01Z</time><cmt>3.5 kmh</cmt></trkpt>
<trkpt lat="51.678416" lon="03.857169"><ele>0</ele><time>2021-01-07T13:09:02Z</time><cmt>3.6 kmh</cmt></trkpt>
<trkpt lat="51.678416" lon="03.857184"><ele>0</ele><time>2021-01-07T13:09:03Z</time><cmt>3.8 kmh</cmt></trkpt>
<trkpt lat="51.678416" lon="03.857197"><ele>0</ele><time>2021-01-07T13:09:04Z</time><cmt>3.0 kmh</cmt></trkpt>
<trkpt lat="51.678416" lon="03.857209"><ele>0</ele><time>2021-01-07T13:09:05Z</time><cmt>2.8 kmh</cmt></trkpt>
<trkpt lat="51.678416" lon="03.857220"><ele>0</ele><time>2021-01-07T13:09:06Z</time><cmt>3.0 kmh</cmt></trkpt>
<trkpt lat="51.678416" lon="03.857229"><ele>0</ele><time>2021-01-07T13:09:07Z</time><cmt>2.6 kmh</cmt></trkpt>
<trkpt lat="51.678416" lon="03.857239"><ele>0</ele><time>2021-01-07T13:09:08Z</time><cmt>2.6 kmh</cmt></trkpt>
<trkpt lat="51.678415" lon="03.857250"><ele>0</ele><time>2021-01-07T13:09:09Z</time><cmt>2.8 kmh</cmt></trkpt>
<trkpt lat="51.678414" lon="03.857260"><ele>0</ele><time>2021-01-07T13:09:10Z</time><cmt>2.2 kmh</cmt></trkpt>
<trkpt lat="51.678413" lon="03.857267"><ele>0</ele><time>2021-01-07T13:09:11Z</time><cmt>1.8 kmh</cmt></trkpt>
<trkpt lat="51.678412" lon="03.857273"><ele>0</ele><time>2021-01-07T13:09:12Z</time><cmt>1.8 kmh</cmt></trkpt>
<trkpt lat="51.678410" lon="03.857280"><ele>0</ele><time>2021-01-07T13:09:13Z</time><cmt>1.8 kmh</cmt></trkpt>
<trkpt lat="51.678407" lon="03.857285"><ele>0</ele><time>2021-01-07T13:09:14Z</time><cmt>1.9 kmh</cmt></trkpt>
<trkpt lat="51.678404" lon="03.857290"><ele>0</ele><time>2021-01-07T13:09:15Z</time><cmt>1.9 kmh</cmt></trkpt>
<trkpt lat="51.678402" lon="03.857294"><ele>0</ele><time>2021-01-07T13:09:16Z</time><cmt>1.5 kmh</cmt></trkpt>
<trkpt lat="51.678401" lon="03.857296"><ele>0</ele><time>2021-01-07T13:09:17Z</time><cmt>0.8 kmh</cmt></trkpt>
<trkpt lat="51.678401" lon="03.857297"><ele>0</ele><time>2021-01-07T13:09:18Z</time><cmt>0.4 kmh</cmt></trkpt>
<trkpt lat="51.678400" lon="03.857297"><ele>0</ele><time>2021-01-07T13:09:19Z</time><cmt>0.2 kmh</cmt></trkpt>
<trkpt lat="51.678400" lon="03.857297"><ele>0</ele><time>2021-01-07T13:09:20Z</time><cmt>0.0 kmh</cmt></trkpt>
<trkpt lat="51.678399" lon="03.857297"><ele>0</ele><time>2021-01-07T13:09:21Z</time><cmt>0.0 kmh</cmt></trkpt>
<trkpt lat="51.678399" lon="03.857298"><ele>0</ele><time>2021-01-07T13:09:22Z</time><cmt>0.0 kmh</cmt></trkpt>
<trkpt lat="51.678399" lon="03.857299"><ele>0</ele><time>2021-01-07T13:09:23Z</time><cmt>0.0 kmh</cmt></trkpt>
<trkpt lat="51.678398" lon="03.857300"><ele>0</ele><time>2021-01-07T13:09:24Z</time><cmt>0.1 kmh</cmt></trkpt>
<trkpt lat="51.678398" lon="03.857301"><ele>0</ele><time>2021-01-07T13:09:25Z</time><cmt>0.2 kmh</cmt></trkpt>
<trkpt lat="51.678398" lon="03.857300"><ele>0</ele><time>2021-01-07T13:09:26Z</time><cmt>0.3 kmh</cmt></trkpt>
<trkpt lat="51.678395" lon="03.857328"><ele>0</ele><time>2021-01-07T13:09:27Z</time><cmt>4.0 kmh</cmt></trkpt>
<trkpt lat="51.678392" lon="03.857343"><ele>0</ele><time>2021-01-07T13:09:28Z</time><cmt>5.0 kmh</cmt></trkpt>
<trkpt lat="51.678389" lon="03.857353"><ele>1</ele><time>2021-01-07T13:09:29Z</time><cmt>2.9 kmh</cmt></trkpt>
<trkpt lat="51.678387" lon="03.857364"><ele>1</ele><time>2021-01-07T13:09:30Z</time><cmt>2.4 kmh</cmt></trkpt>
<trkpt lat="51.678385" lon="03.857372"><ele>1</ele><time>2021-01-07T13:09:31Z</time><cmt>2.7 kmh</cmt></trkpt>
<trkpt lat="51.678385" lon="03.857378"><ele>2</ele><time>2021-01-07T13:09:32Z</time><cmt>1.9 kmh</cmt></trkpt>
<trkpt lat="51.678383" lon="03.857381"><ele>2</ele><time>2021-01-07T13:09:33Z</time><cmt>1.4 kmh</cmt></trkpt>
<trkpt lat="51.678381" lon="03.857386"><ele>2</ele><time>2021-01-07T13:09:34Z</time><cmt>1.3 kmh</cmt></trkpt>
<trkpt lat="51.678381" lon="03.857392"><ele>2</ele><time>2021-01-07T13:09:35Z</time><cmt>1.6 kmh</cmt></trkpt>
<trkpt lat="51.678381" lon="03.857397"><ele>3</ele><time>2021-01-07T13:09:36Z</time><cmt>1.2 kmh</cmt></trkpt>
<trkpt lat="51.678382" lon="03.857401"><ele>3</ele><time>2021-01-07T13:09:37Z</time><cmt>1.0 kmh</cmt></trkpt>
<trkpt lat="51.678382" lon="03.857404"><ele>3</ele><time>2021-01-07T13:09:38Z</time><cmt>1.0 kmh</cmt></trkpt>
<trkpt lat="51.678382" lon="03.857407"><ele>3</ele><time>2021-01-07T13:09:39Z</time><cmt>0.9 kmh</cmt></trkpt>
<trkpt lat="51.678382" lon="03.857410"><ele>4</ele><time>2021-01-07T13:09:40Z</time><cmt>0.8 kmh</cmt></trkpt>
<trkpt lat="51.678382" lon="03.857412"><ele>4</ele><time>2021-01-07T13:09:41Z</time><cmt>0.6 kmh</cmt></trkpt>
<trkpt lat="51.678381" lon="03.857414"><ele>4</ele><time>2021-01-07T13:09:42Z</time><cmt>0.4 kmh</cmt></trkpt>
<trkpt lat="51.678381" lon="03.857415"><ele>4</ele><time>2021-01-07T13:09:43Z</time><cmt>0.1 kmh</cmt></trkpt>
<trkpt lat="51.678362" lon="03.857420"><ele>3</ele><time>2021-01-07T13:21:59Z</time><cmt>1.2 kmh</cmt></trkpt>
<trkpt lat="51.678362" lon="03.857418"><ele>3</ele><time>2021-01-07T13:22:00Z</time><cmt>0.3 kmh</cmt></trkpt>
<trkpt lat="51.678361" lon="03.857418"><ele>3</ele><time>2021-01-07T13:22:01Z</time><cmt>0.3 kmh</cmt></trkpt>
<trkpt lat="51.678362" lon="03.857420"><ele>2</ele><time>2021-01-07T13:22:02Z</time><cmt>0.2 kmh</cmt></trkpt>
<trkpt lat="51.678362" lon="03.857423"><ele>2</ele><time>2021-01-07T13:22:03Z</time><cmt>0.6 kmh</cmt></trkpt>
<trkpt lat="51.678363" lon="03.857424"><ele>2</ele><time>2021-01-07T13:22:04Z</time><cmt>0.6 kmh</cmt></trkpt>
<trkpt lat="51.678363" lon="03.857425"><ele>2</ele><time>2021-01-07T13:22:05Z</time><cmt>0.3 kmh</cmt></trkpt>
<trkpt lat="51.678365" lon="03.857428"><ele>2</ele><time>2021-01-07T13:22:06Z</time><cmt>0.6 kmh</cmt></trkpt>
<trkpt lat="51.678367" lon="03.857428"><ele>2</ele><time>2021-01-07T13:22:07Z</time><cmt>0.9 kmh</cmt></trkpt>
<trkpt lat="51.678368" lon="03.857427"><ele>2</ele><time>2021-01-07T13:22:08Z</time><cmt>0.8 kmh</cmt></trkpt>
<trkpt lat="51.678370" lon="03.857426"><ele>1</ele><time>2021-01-07T13:22:09Z</time><cmt>0.8 kmh</cmt></trkpt>
<trkpt lat="51.678371" lon="03.857425"><ele>1</ele><time>2021-01-07T13:22:10Z</time><cmt>0.7 kmh</cmt></trkpt>
<trkpt lat="51.678372" lon="03.857424"><ele>1</ele><time>2021-01-07T13:22:11Z</time><cmt>0.6 kmh</cmt></trkpt>
<trkpt lat="51.678374" lon="03.857423"><ele>1</ele><time>2021-01-07T13:22:12Z</time><cmt>0.6 kmh</cmt></trkpt>
<trkpt lat="51.678375" lon="03.857423"><ele>1</ele><time>2021-01-07T13:22:13Z</time><cmt>0.7 kmh</cmt></trkpt>
<trkpt lat="51.678376" lon="03.857423"><ele>1</ele><time>2021-01-07T13:22:14Z</time><cmt>0.6 kmh</cmt></trkpt>
<trkpt lat="51.678377" lon="03.857422"><ele>1</ele><time>2021-01-07T13:22:15Z</time><cmt>0.6 kmh</cmt></trkpt>
<trkpt lat="51.678379" lon="03.857421"><ele>1</ele><time>2021-01-07T13:22:16Z</time><cmt>0.7 kmh</cmt></trkpt>
<trkpt lat="51.678380" lon="03.857421"><ele>1</ele><time>2021-01-07T13:22:17Z</time><cmt>0.5 kmh</cmt></trkpt>
<trkpt lat="51.678381" lon="03.857420"><ele>1</ele><time>2021-01-07T13:22:18Z</time><cmt>0.4 kmh</cmt></trkpt>
<trkpt lat="51.678382" lon="03.857420"><ele>1</ele><time>2021-01-07T13:22:19Z</time><cmt>0.4 kmh</cmt></trkpt>
<trkpt lat="51.678383" lon="03.857420"><ele>1</ele><time>2021-01-07T13:22:20Z</time><cmt>0.2 kmh</cmt></trkpt>
<trkpt lat="51.678383" lon="03.857419"><ele>1</ele><time>2021-01-07T13:22:21Z</time><cmt>0.2 kmh</cmt></trkpt>
<trkpt lat="51.678382" lon="03.857421"><ele>1</ele><time>2021-01-07T13:22:22Z</time><cmt>0.4 kmh</cmt></trkpt>
<trkpt lat="51.678380" lon="03.857431"><ele>1</ele><time>2021-01-07T13:22:23Z</time><cmt>1.8 kmh</cmt></trkpt>
<trkpt lat="51.678375" lon="03.857447"><ele>1</ele><time>2021-01-07T13:22:24Z</time><cmt>3.1 kmh</cmt></trkpt>
<trkpt lat="51.678370" lon="03.857464"><ele>1</ele><time>2021-01-07T13:22:25Z</time><cmt>5.1 kmh</cmt></trkpt>
<trkpt lat="51.678365" lon="03.857483"><ele>1</ele><time>2021-01-07T13:22:26Z</time><cmt>5.1 kmh</cmt></trkpt>
<trkpt lat="51.678359" lon="03.857501"><ele>1</ele><time>2021-01-07T13:22:27Z</time><cmt>5.0 kmh</cmt></trkpt>
<trkpt lat="51.678354" lon="03.857518"><ele>1</ele><time>2021-01-07T13:22:28Z</time><cmt>5.0 kmh</cmt></trkpt>
<trkpt lat="51.678347" lon="03.857535"><ele>1</ele><time>2021-01-07T13:22:29Z</time><cmt>5.0 kmh</cmt></trkpt>
<trkpt lat="51.678341" lon="03.857551"><ele>1</ele><time>2021-01-07T13:22:30Z</time><cmt>4.2 kmh</cmt></trkpt>
<trkpt lat="51.678335" lon="03.857568"><ele>1</ele><time>2021-01-07T13:22:31Z</time><cmt>4.2 kmh</cmt></trkpt>
<trkpt lat="51.678329" lon="03.857585"><ele>1</ele><time>2021-01-07T13:22:32Z</time><cmt>5.0 kmh</cmt></trkpt>
<trkpt lat="51.678322" lon="03.857601"><ele>1</ele><time>2021-01-07T13:22:33Z</time><cmt>5.0 kmh</cmt></trkpt>
<trkpt lat="51.678314" lon="03.857615"><ele>1</ele><time>2021-01-07T13:22:34Z</time><cmt>5.0 kmh</cmt></trkpt>
<trkpt lat="51.678307" lon="03.857630"><ele>1</ele><time>2021-01-07T13:22:35Z</time><cmt>4.9 kmh</cmt></trkpt>
<trkpt lat="51.678300" lon="03.857644"><ele>1</ele><time>2021-01-07T13:22:36Z</time><cmt>3.9 kmh</cmt></trkpt>
<trkpt lat="51.678295" lon="03.857656"><ele>1</ele><time>2021-01-07T13:22:37Z</time><cmt>3.6 kmh</cmt></trkpt>
<trkpt lat="51.678288" lon="03.857671"><ele>1</ele><time>2021-01-07T13:22:38Z</time><cmt>4.5 kmh</cmt></trkpt>
<trkpt lat="51.678280" lon="03.857687"><ele>1</ele><time>2021-01-07T13:22:39Z</time><cmt>5.1 kmh</cmt></trkpt>
<trkpt lat="51.678272" lon="03.857701"><ele>1</ele><time>2021-01-07T13:22:40Z</time><cmt>5.1 kmh</cmt></trkpt>
<trkpt lat="51.678265" lon="03.857717"><ele>1</ele><time>2021-01-07T13:22:41Z</time><cmt>5.2 kmh</cmt></trkpt>
<trkpt lat="51.678257" lon="03.857735"><ele>1</ele><time>2021-01-07T13:22:42Z</time><cmt>5.5 kmh</cmt></trkpt>
<trkpt lat="51.678250" lon="03.857753"><ele>1</ele><time>2021-01-07T13:22:43Z</time><cmt>5.5 kmh</cmt></trkpt>
<trkpt lat="51.678241" lon="03.857773"><ele>1</ele><time>2021-01-07T13:22:44Z</time><cmt>5.4 kmh</cmt></trkpt>
<trkpt lat="51.678234" lon="03.857791"><ele>1</ele><time>2021-01-07T13:22:45Z</time><cmt>5.0 kmh</cmt></trkpt>
<trkpt lat="51.678228" lon="03.857809"><ele>1</ele><time>2021-01-07T13:22:46Z</time><cmt>5.3 kmh</cmt></trkpt>
<trkpt lat="51.678223" lon="03.857829"><ele>1</ele><time>2021-01-07T13:22:47Z</time><cmt>5.0 kmh</cmt></trkpt>
<trkpt lat="51.678218" lon="03.857848"><ele>1</ele><time>2021-01-07T13:22:48Z</time><cmt>5.0 kmh</cmt></trkpt>
<trkpt lat="51.678213" lon="03.857867"><ele>1</ele><time>2021-01-07T13:22:49Z</time><cmt>5.2 kmh</cmt></trkpt>
<trkpt lat="51.678207" lon="03.857886"><ele>1</ele><time>2021-01-07T13:22:50Z</time><cmt>5.1 kmh</cmt></trkpt>
<trkpt lat="51.678202" lon="03.857905"><ele>1</ele><time>2021-01-07T13:22:51Z</time><cmt>5.1 kmh</cmt></trkpt>
<trkpt lat="51.678197" lon="03.857923"><ele>1</ele><time>2021-01-07T13:22:52Z</time><cmt>5.1 kmh</cmt></trkpt>
<trkpt lat="51.678191" lon="03.857942"><ele>1</ele><time>2021-01-07T13:22:53Z</time><cmt>5.3 kmh</cmt></trkpt>
<trkpt lat="51.678185" lon="03.857960"><ele>1</ele><time>2021-01-07T13:22:54Z</time><cmt>5.3 kmh</cmt></trkpt>
<trkpt lat="51.678178" lon="03.857977"><ele>1</ele><time>2021-01-07T13:22:55Z</time><cmt>4.4 kmh</cmt></trkpt>
<trkpt lat="51.678171" lon="03.857994"><ele>1</ele><time>2021-01-07T13:22:56Z</time><cmt>4.4 kmh</cmt></trkpt>
<trkpt lat="51.678163" lon="03.858011"><ele>1</ele><time>2021-01-07T13:22:57Z</time><cmt>5.1 kmh</cmt></trkpt>
<trkpt lat="51.678155" lon="03.858028"><ele>1</ele><time>2021-01-07T13:22:58Z</time><cmt>5.1 kmh</cmt></trkpt>
<trkpt lat="51.678147" lon="03.858044"><ele>1</ele><time>2021-01-07T13:22:59Z</time><cmt>5.3 kmh</cmt></trkpt>
<trkpt lat="51.678138" lon="03.858060"><ele>1</ele><time>2021-01-07T13:23:00Z</time><cmt>5.3 kmh</cmt></trkpt>
<trkpt lat="51.678130" lon="03.858073"><ele>1</ele><time>2021-01-07T13:23:01Z</time><cmt>5.0 kmh</cmt></trkpt>
<trkpt lat="51.678122" lon="03.858089"><ele>1</ele><time>2021-01-07T13:23:02Z</time><cmt>5.0 kmh</cmt></trkpt>
<trkpt lat="51.678115" lon="03.858105"><ele>1</ele><time>2021-01-07T13:23:03Z</time><cmt>4.3 kmh</cmt></trkpt>
<trkpt lat="51.678108" lon="03.858121"><ele>1</ele><time>2021-01-07T13:23:04Z</time><cmt>4.3 kmh</cmt></trkpt>
<trkpt lat="51.678100" lon="03.858139"><ele>1</ele><time>2021-01-07T13:23:05Z</time><cmt>5.0 kmh</cmt></trkpt>
<trkpt lat="51.678092" lon="03.858156"><ele>1</ele><time>2021-01-07T13:23:06Z</time><cmt>5.1 kmh</cmt></trkpt>
<trkpt lat="51.678084" lon="03.858172"><ele>1</ele><time>2021-01-07T13:23:07Z</time><cmt>5.1 kmh</cmt></trkpt>
<trkpt lat="51.678076" lon="03.858190"><ele>1</ele><time>2021-01-07T13:23:08Z</time><cmt>5.1 kmh</cmt></trkpt>
<trkpt lat="51.678067" lon="03.858208"><ele>1</ele><time>2021-01-07T13:23:09Z</time><cmt>5.1 kmh</cmt></trkpt>
<trkpt lat="51.678058" lon="03.858224"><ele>1</ele><time>2021-01-07T13:23:10Z</time><cmt>5.1 kmh</cmt></trkpt>
<trkpt lat="51.678050" lon="03.858239"><ele>1</ele><time>2021-01-07T13:23:11Z</time><cmt>5.0 kmh</cmt></trkpt>
<trkpt lat="51.678041" lon="03.858255"><ele>1</ele><time>2021-01-07T13:23:12Z</time><cmt>5.0 kmh</cmt></trkpt>
<trkpt lat="51.678034" lon="03.858271"><ele>1</ele><time>2021-01-07T13:23:13Z</time><cmt>5.1 kmh</cmt></trkpt>
<trkpt lat="51.678026" lon="03.858287"><ele>1</ele><time>2021-01-07T13:23:14Z</time><cmt>5.1 kmh</cmt></trkpt>
<trkpt lat="51.678018" lon="03.858304"><ele>1</ele><time>2021-01-07T13:23:15Z</time><cmt>5.1 kmh</cmt></trkpt>
<trkpt lat="51.678009" lon="03.858321"><ele>1</ele><time>2021-01-07T13:23:16Z</time><cmt>5.1 kmh</cmt></trkpt>
<trkpt lat="51.678002" lon="03.858337"><ele>1</ele><time>2021-01-07T13:23:17Z</time><cmt>5.0 kmh</cmt></trkpt>
<trkpt lat="51.677993" lon="03.858352"><ele>1</ele><time>2021-01-07T13:23:18Z</time><cmt>5.0 kmh</cmt></trkpt>
<trkpt lat="51.677985" lon="03.858368"><ele>1</ele><time>2021-01-07T13:23:19Z</time><cmt>5.0 kmh</cmt></trkpt>
<trkpt lat="51.677977" lon="03.858383"><ele>1</ele><time>2021-01-07T13:23:20Z</time><cmt>5.0 kmh</cmt></trkpt>
<trkpt lat="51.677969" lon="03.858397"><ele>1</ele><time>2021-01-07T13:23:21Z</time><cmt>4.1 kmh</cmt></trkpt>
<trkpt lat="51.677961" lon="03.858413"><ele>1</ele><time>2021-01-07T13:23:22Z</time><cmt>5.1 kmh</cmt></trkpt>
<trkpt lat="51.677953" lon="03.858427"><ele>1</ele><time>2021-01-07T13:23:23Z</time><cmt>5.1 kmh</cmt></trkpt>
<trkpt lat="51.677945" lon="03.858442"><ele>1</ele><time>2021-01-07T13:23:24Z</time><cmt>5.0 kmh</cmt></trkpt>
<trkpt lat="51.677937" lon="03.858458"><ele>1</ele><time>2021-01-07T13:23:25Z</time><cmt>5.0 kmh</cmt></trkpt>
<trkpt lat="51.677929" lon="03.858474"><ele>1</ele><time>2021-01-07T13:23:26Z</time><cmt>5.0 kmh</cmt></trkpt>
<trkpt lat="51.677920" lon="03.858489"><ele>1</ele><time>2021-01-07T13:23:27Z</time><cmt>5.0 kmh</cmt></trkpt>
<trkpt lat="51.677913" lon="03.858505"><ele>1</ele><time>2021-01-07T13:23:28Z</time><cmt>4.3 kmh</cmt></trkpt>
<trkpt lat="51.677905" lon="03.858520"><ele>1</ele><time>2021-01-07T13:23:29Z</time><cmt>4.2 kmh</cmt></trkpt>
<trkpt lat="51.677898" lon="03.858535"><ele>2</ele><time>2021-01-07T13:23:30Z</time><cmt>5.0 kmh</cmt></trkpt>
<trkpt lat="51.677890" lon="03.858549"><ele>2</ele><time>2021-01-07T13:23:31Z</time><cmt>5.0 kmh</cmt></trkpt>
<trkpt lat="51.677882" lon="03.858563"><ele>2</ele><time>2021-01-07T13:23:32Z</time><cmt>5.0 kmh</cmt></trkpt>
<trkpt lat="51.677874" lon="03.858578"><ele>2</ele><time>2021-01-07T13:23:33Z</time><cmt>5.0 kmh</cmt></trkpt>
<trkpt lat="51.677866" lon="03.858593"><ele>2</ele><time>2021-01-07T13:23:34Z</time><cmt>4.2 kmh</cmt></trkpt>
<trkpt lat="51.677858" lon="03.858608"><ele>2</ele><time>2021-01-07T13:23:35Z</time><cmt>5.0 kmh</cmt></trkpt>
<trkpt lat="51.677850" lon="03.858624"><ele>2</ele><time>2021-01-07T13:23:36Z</time><cmt>5.0 kmh</cmt></trkpt>
<trkpt lat="51.677842" lon="03.858639"><ele>2</ele><time>2021-01-07T13:23:37Z</time><cmt>5.0 kmh</cmt></trkpt>
<trkpt lat="51.677835" lon="03.858656"><ele>2</ele><time>2021-01-07T13:23:38Z</time><cmt>5.0 kmh</cmt></trkpt>
<trkpt lat="51.677827" lon="03.858672"><ele>2</ele><time>2021-01-07T13:23:39Z</time><cmt>5.1 kmh</cmt></trkpt>
<trkpt lat="51.677819" lon="03.858689"><ele>2</ele><time>2021-01-07T13:23:40Z</time><cmt>5.0 kmh</cmt></trkpt>
<trkpt lat="51.677811" lon="03.858705"><ele>3</ele><time>2021-01-07T13:23:41Z</time><cmt>5.0 kmh</cmt></trkpt>
<trkpt lat="51.677803" lon="03.858721"><ele>3</ele><time>2021-01-07T13:23:42Z</time><cmt>5.0 kmh</cmt></trkpt>
<trkpt lat="51.677795" lon="03.858737"><ele>3</ele><time>2021-01-07T13:23:43Z</time><cmt>5.1 kmh</cmt></trkpt>
<trkpt lat="51.677786" lon="03.858754"><ele>3</ele><time>2021-01-07T13:23:44Z</time><cmt>5.2 kmh</cmt></trkpt>
<trkpt lat="51.677778" lon="03.858771"><ele>3</ele><time>2021-01-07T13:23:45Z</time><cmt>5.2 kmh</cmt></trkpt>
<trkpt lat="51.677769" lon="03.858785"><ele>3</ele><time>2021-01-07T13:23:46Z</time><cmt>5.0 kmh</cmt></trkpt>
<trkpt lat="51.677760" lon="03.858800"><ele>3</ele><time>2021-01-07T13:23:47Z</time><cmt>5.0 kmh</cmt></trkpt>
<trkpt lat="51.677752" lon="03.858814"><ele>3</ele><time>2021-01-07T13:23:48Z</time><cmt>4.3 kmh</cmt></trkpt>
<trkpt lat="51.677744" lon="03.858830"><ele>3</ele><time>2021-01-07T13:23:49Z</time><cmt>5.2 kmh</cmt></trkpt>
<trkpt lat="51.677736" lon="03.858847"><ele>3</ele><time>2021-01-07T13:23:50Z</time><cmt>5.2 kmh</cmt></trkpt>
<trkpt lat="51.677728" lon="03.858863"><ele>3</ele><time>2021-01-07T13:23:51Z</time><cmt>5.0 kmh</cmt></trkpt>
<trkpt lat="51.677720" lon="03.858878"><ele>3</ele><time>2021-01-07T13:23:52Z</time><cmt>5.0 kmh</cmt></trkpt>
<trkpt lat="51.677712" lon="03.858895"><ele>3</ele><time>2021-01-07T13:23:53Z</time><cmt>5.0 kmh</cmt></trkpt>
<trkpt lat="51.677703" lon="03.858912"><ele>3</ele><time>2021-01-07T13:23:54Z</time><cmt>4.7 kmh</cmt></trkpt>
<trkpt lat="51.677693" lon="03.858928"><ele>3</ele><time>2021-01-07T13:23:55Z</time><cmt>5.0 kmh</cmt></trkpt>
<trkpt lat="51.677684" lon="03.858944"><ele>3</ele><time>2021-01-07T13:23:56Z</time><cmt>5.0 kmh</cmt></trkpt>
<trkpt lat="51.677676" lon="03.858961"><ele>3</ele><time>2021-01-07T13:23:57Z</time><cmt>5.0 kmh</cmt></trkpt>
<trkpt lat="51.677669" lon="03.858978"><ele>3</ele><time>2021-01-07T13:23:58Z</time><cmt>5.0 kmh</cmt></trkpt>
<trkpt lat="51.677662" lon="03.858994"><ele>3</ele><time>2021-01-07T13:23:59Z</time><cmt>5.0 kmh</cmt></trkpt>
<trkpt lat="51.677654" lon="03.859009"><ele>3</ele><time>2021-01-07T13:24:00Z</time><cmt>4.2 kmh</cmt></trkpt>
<trkpt lat="51.677647" lon="03.859025"><ele>3</ele><time>2021-01-07T13:24:01Z</time><cmt>5.1 kmh</cmt></trkpt>
<trkpt lat="51.677640" lon="03.859042"><ele>3</ele><time>2021-01-07T13:24:02Z</time><cmt>5.1 kmh</cmt></trkpt>
<trkpt lat="51.677633" lon="03.859058"><ele>3</ele><time>2021-01-07T13:24:03Z</time><cmt>5.0 kmh</cmt></trkpt>
<trkpt lat="51.677627" lon="03.859074"><ele>3</ele><time>2021-01-07T13:24:04Z</time><cmt>5.0 kmh</cmt></trkpt>
<trkpt lat="51.677620" lon="03.859089"><ele>3</ele><time>2021-01-07T13:24:05Z</time><cmt>4.1 kmh</cmt></trkpt>
<trkpt lat="51.677612" lon="03.859105"><ele>3</ele><time>2021-01-07T13:24:06Z</time><cmt>5.0 kmh</cmt></trkpt>
<trkpt lat="51.677605" lon="03.859118"><ele>3</ele><time>2021-01-07T13:24:07Z</time><cmt>5.0 kmh</cmt></trkpt>
<trkpt lat="51.677598" lon="03.859131"><ele>3</ele><time>2021-01-07T13:24:08Z</time><cmt>3.8 kmh</cmt></trkpt>
<trkpt lat="51.677591" lon="03.859145"><ele>3</ele><time>2021-01-07T13:24:09Z</time><cmt>4.8 kmh</cmt></trkpt>
<trkpt lat="51.677584" lon="03.859161"><ele>3</ele><time>2021-01-07T13:24:10Z</time><cmt>5.0 kmh</cmt></trkpt>
<trkpt lat="51.677575" lon="03.859177"><ele>3</ele><time>2021-01-07T13:24:11Z</time><cmt>5.0 kmh</cmt></trkpt>
<trkpt lat="51.677567" lon="03.859194"><ele>3</ele><time>2021-01-07T13:24:12Z</time><cmt>5.2 kmh</cmt></trkpt>
<trkpt lat="51.677559" lon="03.859211"><ele>3</ele><time>2021-01-07T13:24:13Z</time><cmt>5.2 kmh</cmt></trkpt>
<trkpt lat="51.677552" lon="03.859228"><ele>3</ele><time>2021-01-07T13:24:14Z</time><cmt>4.5 kmh</cmt></trkpt>
<trkpt lat="51.677545" lon="03.859245"><ele>3</ele><time>2021-01-07T13:24:15Z</time><cmt>5.0 kmh</cmt></trkpt>
<trkpt lat="51.677537" lon="03.859260"><ele>3</ele><time>2021-01-07T13:24:16Z</time><cmt>5.0 kmh</cmt></trkpt>
<trkpt lat="51.677529" lon="03.859276"><ele>3</ele><time>2021-01-07T13:24:17Z</time><cmt>5.0 kmh</cmt></trkpt>
<trkpt lat="51.677521" lon="03.859291"><ele>3</ele><time>2021-01-07T13:24:18Z</time><cmt>5.0 kmh</cmt></trkpt>
<trkpt lat="51.677513" lon="03.859306"><ele>3</ele><time>2021-01-07T13:24:19Z</time><cmt>4.2 kmh</cmt></trkpt>
<trkpt lat="51.677505" lon="03.859321"><ele>3</ele><time>2021-01-07T13:24:20Z</time><cmt>4.2 kmh</cmt></trkpt>
<trkpt lat="51.677497" lon="03.859335"><ele>3</ele><time>2021-01-07T13:24:21Z</time><cmt>5.0 kmh</cmt></trkpt>
<trkpt lat="51.677489" lon="03.859349"><ele>3</ele><time>2021-01-07T13:24:22Z</time><cmt>5.0 kmh</cmt></trkpt>
<trkpt lat="51.677482" lon="03.859363"><ele>3</ele><time>2021-01-07T13:24:23Z</time><cmt>5.0 kmh</cmt></trkpt>
<trkpt lat="51.677475" lon="03.859378"><ele>3</ele><time>2021-01-07T13:24:24Z</time><cmt>5.0 kmh</cmt></trkpt>
<trkpt lat="51.677467" lon="03.859392"><ele>3</ele><time>2021-01-07T13:24:25Z</time><cmt>5.0 kmh</cmt></trkpt>
<trkpt lat="51.677459" lon="03.859407"><ele>3</ele><time>2021-01-07T13:24:26Z</time><cmt>5.0 kmh</cmt></trkpt>
<trkpt lat="51.677451" lon="03.859422"><ele>3</ele><time>2021-01-07T13:24:27Z</time><cmt>4.2 kmh</cmt></trkpt>
<trkpt lat="51.677443" lon="03.859437"><ele>3</ele><time>2021-01-07T13:24:28Z</time><cmt>5.0 kmh</cmt></trkpt>
<trkpt lat="51.677435" lon="03.859451"><ele>3</ele><time>2021-01-07T13:24:29Z</time><cmt>5.0 kmh</cmt></trkpt>
<trkpt lat="51.677427" lon="03.859465"><ele>3</ele><time>2021-01-07T13:24:30Z</time><cmt>5.0 kmh</cmt></trkpt>
<trkpt lat="51.677420" lon="03.859478"><ele>3</ele><time>2021-01-07T13:24:31Z</time><cmt>4.8 kmh</cmt></trkpt>
<trkpt lat="51.677412" lon="03.859494"><ele>3</ele><time>2021-01-07T13:24:32Z</time><cmt>4.0 kmh</cmt></trkpt>
<trkpt lat="51.677405" lon="03.859508"><ele>3</ele><time>2021-01-07T13:24:33Z</time><cmt>4.0 kmh</cmt></trkpt>
<trkpt lat="51.677398" lon="03.859522"><ele>3</ele><time>2021-01-07T13:24:34Z</time><cmt>4.9 kmh</cmt></trkpt>
<trkpt lat="51.677391" lon="03.859537"><ele>3</ele><time>2021-01-07T13:24:35Z</time><cmt>5.0 kmh</cmt></trkpt>
<trkpt lat="51.677384" lon="03.859553"><ele>3</ele><time>2021-01-07T13:24:36Z</time><cmt>5.0 kmh</cmt></trkpt>
<trkpt lat="51.677377" lon="03.859568"><ele>3</ele><time>2021-01-07T13:24:37Z</time><cmt>5.0 kmh</cmt></trkpt>
<trkpt lat="51.677370" lon="03.859583"><ele>3</ele><time>2021-01-07T13:24:38Z</time><cmt>4.1 kmh</cmt></trkpt>
<trkpt lat="51.677362" lon="03.859597"><ele>3</ele><time>2021-01-07T13:24:39Z</time><cmt>4.0 kmh</cmt></trkpt>
<trkpt lat="51.677354" lon="03.859612"><ele>3</ele><time>2021-01-07T13:24:40Z</time><cmt>5.0 kmh</cmt></trkpt>
<trkpt lat="51.677346" lon="03.859626"><ele>3</ele><time>2021-01-07T13:24:41Z</time><cmt>5.0 kmh</cmt></trkpt>
<trkpt lat="51.677339" lon="03.859639"><ele>3</ele><time>2021-01-07T13:24:42Z</time><cmt>4.8 kmh</cmt></trkpt>
<trkpt lat="51.677331" lon="03.859655"><ele>3</ele><time>2021-01-07T13:24:43Z</time><cmt>5.4 kmh</cmt></trkpt>
<trkpt lat="51.677321" lon="03.859674"><ele>3</ele><time>2021-01-07T13:24:44Z</time><cmt>5.1 kmh</cmt></trkpt>
<trkpt lat="51.677312" lon="03.859690"><ele>3</ele><time>2021-01-07T13:24:45Z</time><cmt>5.1 kmh</cmt></trkpt>
<trkpt lat="51.677305" lon="03.859706"><ele>3</ele><time>2021-01-07T13:24:46Z</time><cmt>4.4 kmh</cmt></trkpt>
<trkpt lat="51.677297" lon="03.859721"><ele>3</ele><time>2021-01-07T13:24:47Z</time><cmt>5.0 kmh</cmt></trkpt>
<trkpt lat="51.677289" lon="03.859736"><ele>3</ele><time>2021-01-07T13:24:48Z</time><cmt>5.0 kmh</cmt></trkpt>
<trkpt lat="51.677281" lon="03.859751"><ele>3</ele><time>2021-01-07T13:24:49Z</time><cmt>5.0 kmh</cmt></trkpt>
<trkpt lat="51.677274" lon="03.859767"><ele>3</ele><time>2021-01-07T13:24:50Z</time><cmt>5.0 kmh</cmt></trkpt>
<trkpt lat="51.677267" lon="03.859784"><ele>3</ele><time>2021-01-07T13:24:51Z</time><cmt>4.3 kmh</cmt></trkpt>
<trkpt lat="51.677258" lon="03.859800"><ele>3</ele><time>2021-01-07T13:24:52Z</time><cmt>5.1 kmh</cmt></trkpt>
<trkpt lat="51.677250" lon="03.859815"><ele>3</ele><time>2021-01-07T13:24:53Z</time><cmt>5.1 kmh</cmt></trkpt>
<trkpt lat="51.677242" lon="03.859830"><ele>3</ele><time>2021-01-07T13:24:54Z</time><cmt>5.0 kmh</cmt></trkpt>
<trkpt lat="51.677235" lon="03.859846"><ele>3</ele><time>2021-01-07T13:24:55Z</time><cmt>5.0 kmh</cmt></trkpt>
<trkpt lat="51.677228" lon="03.859862"><ele>3</ele><time>2021-01-07T13:24:56Z</time><cmt>5.0 kmh</cmt></trkpt>
<trkpt lat="51.677221" lon="03.859877"><ele>3</ele><time>2021-01-07T13:24:57Z</time><cmt>4.1 kmh</cmt></trkpt>
<trkpt lat="51.677213" lon="03.859891"><ele>3</ele><time>2021-01-07T13:24:58Z</time><cmt>4.1 kmh</cmt></trkpt>
<trkpt lat="51.677205" lon="03.859906"><ele>3</ele><time>2021-01-07T13:24:59Z</time><cmt>5.0 kmh</cmt></trkpt>
<trkpt lat="51.677198" lon="03.859920"><ele>3</ele><time>2021-01-07T13:25:00Z</time><cmt>5.0 kmh</cmt></trkpt>
<trkpt lat="51.677191" lon="03.859935"><ele>3</ele><time>2021-01-07T13:25:01Z</time><cmt>5.0 kmh</cmt></trkpt>
<trkpt lat="51.677183" lon="03.859950"><ele>3</ele><time>2021-01-07T13:25:02Z</time><cmt>5.0 kmh</cmt></trkpt>
<trkpt lat="51.677176" lon="03.859964"><ele>3</ele><time>2021-01-07T13:25:03Z</time><cmt>5.0 kmh</cmt></trkpt>
<trkpt lat="51.677169" lon="03.859977"><ele>3</ele><time>2021-01-07T13:25:04Z</time><cmt>3.9 kmh</cmt></trkpt>
<trkpt lat="51.677162" lon="03.859991"><ele>3</ele><time>2021-01-07T13:25:05Z</time><cmt>3.9 kmh</cmt></trkpt>
<trkpt lat="51.677154" lon="03.860006"><ele>3</ele><time>2021-01-07T13:25:06Z</time><cmt>5.0 kmh</cmt></trkpt>
<trkpt lat="51.677146" lon="03.860020"><ele>3</ele><time>2021-01-07T13:25:07Z</time><cmt>5.0 kmh</cmt></trkpt>
<trkpt lat="51.677139" lon="03.860036"><ele>3</ele><time>2021-01-07T13:25:08Z</time><cmt>5.0 kmh</cmt></trkpt>
<trkpt lat="51.677131" lon="03.860052"><ele>3</ele><time>2021-01-07T13:25:09Z</time><cmt>5.0 kmh</cmt></trkpt>
<trkpt lat="51.677124" lon="03.860068"><ele>3</ele><time>2021-01-07T13:25:10Z</time><cmt>4.4 kmh</cmt></trkpt>
<trkpt lat="51.677117" lon="03.860085"><ele>3</ele><time>2021-01-07T13:25:11Z</time><cmt>4.3 kmh</cmt></trkpt>
<trkpt lat="51.677110" lon="03.860100"><ele>3</ele><time>2021-01-07T13:25:12Z</time><cmt>5.0 kmh</cmt></trkpt>
<trkpt lat="51.677102" lon="03.860116"><ele>3</ele><time>2021-01-07T13:25:13Z</time><cmt>5.0 kmh</cmt></trkpt>
<trkpt lat="51.677094" lon="03.860132"><ele>3</ele><time>2021-01-07T13:25:14Z</time><cmt>5.0 kmh</cmt></trkpt>
<trkpt lat="51.677087" lon="03.860146"><ele>3</ele><time>2021-01-07T13:25:15Z</time><cmt>5.0 kmh</cmt></trkpt>
<trkpt lat="51.677079" lon="03.860161"><ele>3</ele><time>2021-01-07T13:25:16Z</time><cmt>4.2 kmh</cmt></trkpt>
<trkpt lat="51.677070" lon="03.860176"><ele>3</ele><time>2021-01-07T13:25:17Z</time><cmt>5.0 kmh</cmt></trkpt>
<trkpt lat="51.677062" lon="03.860193"><ele>3</ele><time>2021-01-07T13:25:18Z</time><cmt>5.1 kmh</cmt></trkpt>
<trkpt lat="51.677054" lon="03.860210"><ele>3</ele><time>2021-01-07T13:25:19Z</time><cmt>5.1 kmh</cmt></trkpt>
<trkpt lat="51.677045" lon="03.860228"><ele>3</ele><time>2021-01-07T13:25:20Z</time><cmt>5.0 kmh</cmt></trkpt>
<trkpt lat="51.677037" lon="03.860248"><ele>3</ele><time>2021-01-07T13:25:21Z</time><cmt>5.0 kmh</cmt></trkpt>
<trkpt lat="51.677028" lon="03.860267"><ele>3</ele><time>2021-01-07T13:25:22Z</time><cmt>5.0 kmh</cmt></trkpt>
<trkpt lat="51.677020" lon="03.860286"><ele>3</ele><time>2021-01-07T13:25:23Z</time><cmt>5.0 kmh</cmt></trkpt>
<trkpt lat="51.677011" lon="03.860303"><ele>3</ele><time>2021-01-07T13:25:24Z</time><cmt>4.9 kmh</cmt></trkpt>
<trkpt lat="51.677002" lon="03.860320"><ele>3</ele><time>2021-01-07T13:25:25Z</time><cmt>5.0 kmh</cmt></trkpt>
<trkpt lat="51.676994" lon="03.860338"><ele>3</ele><time>2021-01-07T13:25:26Z</time><cmt>5.0 kmh</cmt></trkpt>
<trkpt lat="51.676986" lon="03.860355"><ele>3</ele><time>2021-01-07T13:25:27Z</time><cmt>5.0 kmh</cmt></trkpt>
<trkpt lat="51.676979" lon="03.860372"><ele>3</ele><time>2021-01-07T13:25:28Z</time><cmt>5.0 kmh</cmt></trkpt>
<trkpt lat="51.676972" lon="03.860389"><ele>3</ele><time>2021-01-07T13:25:29Z</time><cmt>5.1 kmh</cmt></trkpt>
<trkpt lat="51.676965" lon="03.860406"><ele>3</ele><time>2021-01-07T13:25:30Z</time><cmt>5.1 kmh</cmt></trkpt>
<trkpt lat="51.676957" lon="03.860423"><ele>3</ele><time>2021-01-07T13:25:31Z</time><cmt>5.0 kmh</cmt></trkpt>
<trkpt lat="51.676950" lon="03.860439"><ele>3</ele><time>2021-01-07T13:25:32Z</time><cmt>5.0 kmh</cmt></trkpt>
<trkpt lat="51.676942" lon="03.860455"><ele>3</ele><time>2021-01-07T13:25:33Z</time><cmt>5.0 kmh</cmt></trkpt>
<trkpt lat="51.676935" lon="03.860472"><ele>3</ele><time>2021-01-07T13:25:34Z</time><cmt>5.0 kmh</cmt></trkpt>
<trkpt lat="51.676927" lon="03.860488"><ele>3</ele><time>2021-01-07T13:25:35Z</time><cmt>5.0 kmh</cmt></trkpt>
<trkpt lat="51.676919" lon="03.860503"><ele>3</ele><time>2021-01-07T13:25:36Z</time><cmt>4.3 kmh</cmt></trkpt>
<trkpt lat="51.676912" lon="03.860518"><ele>3</ele><time>2021-01-07T13:25:37Z</time><cmt>4.2 kmh</cmt></trkpt>
<trkpt lat="51.676905" lon="03.860533"><ele>3</ele><time>2021-01-07T13:25:38Z</time><cmt>5.0 kmh</cmt></trkpt>
<trkpt lat="51.676898" lon="03.860548"><ele>3</ele><time>2021-01-07T13:25:39Z</time><cmt>5.0 kmh</cmt></trkpt>
<trkpt lat="51.676891" lon="03.860564"><ele>3</ele><time>2021-01-07T13:25:40Z</time><cmt>5.0 kmh</cmt></trkpt>
<trkpt lat="51.676883" lon="03.860579"><ele>3</ele><time>2021-01-07T13:25:41Z</time><cmt>5.0 kmh</cmt></trkpt>
<trkpt lat="51.676874" lon="03.860595"><ele>3</ele><time>2021-01-07T13:25:42Z</time><cmt>5.4 kmh</cmt></trkpt>
<trkpt lat="51.676866" lon="03.860612"><ele>4</ele><time>2021-01-07T13:25:43Z</time><cmt>5.4 kmh</cmt></trkpt>
<trkpt lat="51.676858" lon="03.860627"><ele>4</ele><time>2021-01-07T13:25:44Z</time><cmt>5.0 kmh</cmt></trkpt>
<trkpt lat="51.676851" lon="03.860642"><ele>4</ele><time>2021-01-07T13:25:45Z</time><cmt>5.0 kmh</cmt></trkpt>
<trkpt lat="51.676843" lon="03.860657"><ele>4</ele><time>2021-01-07T13:25:46Z</time><cmt>5.0 kmh</cmt></trkpt>
<trkpt lat="51.676836" lon="03.860672"><ele>4</ele><time>2021-01-07T13:25:47Z</time><cmt>5.0 kmh</cmt></trkpt>
<trkpt lat="51.676829" lon="03.860689"><ele>4</ele><time>2021-01-07T13:25:48Z</time><cmt>4.2 kmh</cmt></trkpt>
<trkpt lat="51.676822" lon="03.860706"><ele>4</ele><time>2021-01-07T13:25:49Z</time><cmt>4.4 kmh</cmt></trkpt>
<trkpt lat="51.676814" lon="03.860722"><ele>4</ele><time>2021-01-07T13:25:50Z</time><cmt>5.0 kmh</cmt></trkpt>
<trkpt lat="51.676806" lon="03.860737"><ele>4</ele><time>2021-01-07T13:25:51Z</time><cmt>5.0 kmh</cmt></trkpt>
<trkpt lat="51.676798" lon="03.860753"><ele>4</ele><time>2021-01-07T13:25:52Z</time><cmt>5.0 kmh</cmt></trkpt>
<trkpt lat="51.676791" lon="03.860768"><ele>4</ele><time>2021-01-07T13:25:53Z</time><cmt>5.0 kmh</cmt></trkpt>
<trkpt lat="51.676784" lon="03.860783"><ele>4</ele><time>2021-01-07T13:25:54Z</time><cmt>5.0 kmh</cmt></trkpt>
<trkpt lat="51.676776" lon="03.860798"><ele>4</ele><time>2021-01-07T13:25:55Z</time><cmt>4.2 kmh</cmt></trkpt>
<trkpt lat="51.676768" lon="03.860813"><ele>5</ele><time>2021-01-07T13:25:56Z</time><cmt>4.2 kmh</cmt></trkpt>
<trkpt lat="51.676761" lon="03.860829"><ele>5</ele><time>2021-01-07T13:25:57Z</time><cmt>5.0 kmh</cmt></trkpt>
<trkpt lat="51.676753" lon="03.860845"><ele>5</ele><time>2021-01-07T13:25:58Z</time><cmt>5.0 kmh</cmt></trkpt>
<trkpt lat="51.676746" lon="03.860861"><ele>5</ele><time>2021-01-07T13:25:59Z</time><cmt>5.0 kmh</cmt></trkpt>
<trkpt lat="51.676739" lon="03.860875"><ele>5</ele><time>2021-01-07T13:26:00Z</time><cmt>5.0 kmh</cmt></trkpt>
<trkpt lat="51.676732" lon="03.860891"><ele>5</ele><time>2021-01-07T13:26:01Z</time><cmt>4.1 kmh</cmt></trkpt>
<trkpt lat="51.676724" lon="03.860906"><ele>5</ele><time>2021-01-07T13:26:02Z</time><cmt>4.1 kmh</cmt></trkpt>
<trkpt lat="51.676717" lon="03.860921"><ele>5</ele><time>2021-01-07T13:26:03Z</time><cmt>5.0 kmh</cmt></trkpt>
<trkpt lat="51.676709" lon="03.860935"><ele>5</ele><time>2021-01-07T13:26:04Z</time><cmt>5.0 kmh</cmt></trkpt>
<trkpt lat="51.676701" lon="03.860950"><ele>5</ele><time>2021-01-07T13:26:05Z</time><cmt>5.0 kmh</cmt></trkpt>
<trkpt lat="51.676693" lon="03.860966"><ele>5</ele><time>2021-01-07T13:26:06Z</time><cmt>5.0 kmh</cmt></trkpt>
<trkpt lat="51.676685" lon="03.860982"><ele>5</ele><time>2021-01-07T13:26:07Z</time><cmt>4.4 kmh</cmt></trkpt>
<trkpt lat="51.676676" lon="03.860998"><ele>6</ele><time>2021-01-07T13:26:08Z</time><cmt>4.5 kmh</cmt></trkpt>
<trkpt lat="51.676668" lon="03.861013"><ele>6</ele><time>2021-01-07T13:26:09Z</time><cmt>5.0 kmh</cmt></trkpt>
<trkpt lat="51.676660" lon="03.861028"><ele>6</ele><time>2021-01-07T13:26:10Z</time><cmt>5.0 kmh</cmt></trkpt>
<trkpt lat="51.676653" lon="03.861044"><ele>6</ele><time>2021-01-07T13:26:11Z</time><cmt>5.0 kmh</cmt></trkpt>
<trkpt lat="51.676645" lon="03.861060"><ele>6</ele><time>2021-01-07T13:26:12Z</time><cmt>5.0 kmh</cmt></trkpt>
<trkpt lat="51.676637" lon="03.861076"><ele>6</ele><time>2021-01-07T13:26:13Z</time><cmt>5.0 kmh</cmt></trkpt>
<trkpt lat="51.676629" lon="03.861092"><ele>6</ele><time>2021-01-07T13:26:14Z</time><cmt>4.4 kmh</cmt></trkpt>
<trkpt lat="51.676622" lon="03.861108"><ele>6</ele><time>2021-01-07T13:26:15Z</time><cmt>4.3 kmh</cmt></trkpt>
<trkpt lat="51.676614" lon="03.861124"><ele>6</ele><time>2021-01-07T13:26:16Z</time><cmt>5.0 kmh</cmt></trkpt>
<trkpt lat="51.676607" lon="03.861140"><ele>6</ele><time>2021-01-07T13:26:17Z</time><cmt>5.0 kmh</cmt></trkpt>
<trkpt lat="51.676600" lon="03.861156"><ele>6</ele><time>2021-01-07T13:26:18Z</time><cmt>5.0 kmh</cmt></trkpt>
<trkpt lat="51.676592" lon="03.861172"><ele>6</ele><time>2021-01-07T13:26:19Z</time><cmt>5.1 kmh</cmt></trkpt>
<trkpt lat="51.676584" lon="03.861189"><ele>6</ele><time>2021-01-07T13:26:20Z</time><cmt>5.1 kmh</cmt></trkpt>
<trkpt lat="51.676576" lon="03.861204"><ele>6</ele><time>2021-01-07T13:26:21Z</time><cmt>5.1 kmh</cmt></trkpt>
<trkpt lat="51.676569" lon="03.861219"><ele>6</ele><time>2021-01-07T13:26:22Z</time><cmt>5.0 kmh</cmt></trkpt>
<trkpt lat="51.676562" lon="03.861234"><ele>6</ele><time>2021-01-07T13:26:23Z</time><cmt>5.0 kmh</cmt></trkpt>
<trkpt lat="51.676554" lon="03.861250"><ele>6</ele><time>2021-01-07T13:26:24Z</time><cmt>5.0 kmh</cmt></trkpt>
<trkpt lat="51.676546" lon="03.861266"><ele>6</ele><time>2021-01-07T13:26:25Z</time><cmt>5.0 kmh</cmt></trkpt>
<trkpt lat="51.676539" lon="03.861281"><ele>6</ele><time>2021-01-07T13:26:26Z</time><cmt>4.3 kmh</cmt></trkpt>
<trkpt lat="51.676532" lon="03.861296"><ele>6</ele><time>2021-01-07T13:26:27Z</time><cmt>4.1 kmh</cmt></trkpt>
<trkpt lat="51.676524" lon="03.861312"><ele>6</ele><time>2021-01-07T13:26:28Z</time><cmt>5.0 kmh</cmt></trkpt>
<trkpt lat="51.676517" lon="03.861326"><ele>6</ele><time>2021-01-07T13:26:29Z</time><cmt>5.0 kmh</cmt></trkpt>
<trkpt lat="51.676510" lon="03.861342"><ele>6</ele><time>2021-01-07T13:26:30Z</time><cmt>5.0 kmh</cmt></trkpt>
<trkpt lat="51.676503" lon="03.861359"><ele>6</ele><time>2021-01-07T13:26:31Z</time><cmt>5.4 kmh</cmt></trkpt>
<trkpt lat="51.676494" lon="03.861375"><ele>6</ele><time>2021-01-07T13:26:32Z</time><cmt>5.4 kmh</cmt></trkpt>
<trkpt lat="51.676486" lon="03.861391"><ele>6</ele><time>2021-01-07T13:26:33Z</time><cmt>5.0 kmh</cmt></trkpt>
<trkpt lat="51.676478" lon="03.861408"><ele>6</ele><time>2021-01-07T13:26:34Z</time><cmt>5.0 kmh</cmt></trkpt>
<trkpt lat="51.676471" lon="03.861424"><ele>6</ele><time>2021-01-07T13:26:35Z</time><cmt>5.0 kmh</cmt></trkpt>
<trkpt lat="51.676464" lon="03.861438"><ele>6</ele><time>2021-01-07T13:26:36Z</time><cmt>5.0 kmh</cmt></trkpt>
<trkpt lat="51.676456" lon="03.861453"><ele>6</ele><time>2021-01-07T13:26:37Z</time><cmt>5.0 kmh</cmt></trkpt>
<trkpt lat="51.676449" lon="03.861468"><ele>6</ele><time>2021-01-07T13:26:38Z</time><cmt>5.0 kmh</cmt></trkpt>
<trkpt lat="51.676441" lon="03.861483"><ele>6</ele><time>2021-01-07T13:26:39Z</time><cmt>4.2 kmh</cmt></trkpt>
<trkpt lat="51.676433" lon="03.861499"><ele>6</ele><time>2021-01-07T13:26:40Z</time><cmt>4.3 kmh</cmt></trkpt>
<trkpt lat="51.676425" lon="03.861516"><ele>6</ele><time>2021-01-07T13:26:41Z</time><cmt>5.0 kmh</cmt></trkpt>
<trkpt lat="51.676418" lon="03.861533"><ele>6</ele><time>2021-01-07T13:26:42Z</time><cmt>5.0 kmh</cmt></trkpt>
<trkpt lat="51.676411" lon="03.861550"><ele>6</ele><time>2021-01-07T13:26:43Z</time><cmt>5.0 kmh</cmt></trkpt>
<trkpt lat="51.676404" lon="03.861567"><ele>6</ele><time>2021-01-07T13:26:44Z</time><cmt>5.0 kmh</cmt></trkpt>
<trkpt lat="51.676397" lon="03.861583"><ele>6</ele><time>2021-01-07T13:26:45Z</time><cmt>4.3 kmh</cmt></trkpt>
<trkpt lat="51.676390" lon="03.861599"><ele>6</ele><time>2021-01-07T13:26:46Z</time><cmt>4.2 kmh</cmt></trkpt>
<trkpt lat="51.676382" lon="03.861614"><ele>6</ele><time>2021-01-07T13:26:47Z</time><cmt>5.0 kmh</cmt></trkpt>
<trkpt lat="51.676374" lon="03.861630"><ele>6</ele><time>2021-01-07T13:26:48Z</time><cmt>5.0 kmh</cmt></trkpt>
<trkpt lat="51.676366" lon="03.861647"><ele>6</ele><time>2021-01-07T13:26:49Z</time><cmt>5.0 kmh</cmt></trkpt>
<trkpt lat="51.676359" lon="03.861663"><ele>6</ele><time>2021-01-07T13:26:50Z</time><cmt>5.0 kmh</cmt></trkpt>
<trkpt lat="51.676352" lon="03.861679"><ele>6</ele><time>2021-01-07T13:26:51Z</time><cmt>5.0 kmh</cmt></trkpt>
<trkpt lat="51.676345" lon="03.861694"><ele>5</ele><time>2021-01-07T13:26:52Z</time><cmt>4.1 kmh</cmt></trkpt>
<trkpt lat="51.676339" lon="03.861709"><ele>5</ele><time>2021-01-07T13:26:53Z</time><cmt>4.0 kmh</cmt></trkpt>
<trkpt lat="51.676332" lon="03.861722"><ele>5</ele><time>2021-01-07T13:26:54Z</time><cmt>4.8 kmh</cmt></trkpt>
<trkpt lat="51.676324" lon="03.861736"><ele>5</ele><time>2021-01-07T13:26:55Z</time><cmt>4.9 kmh</cmt></trkpt>
<trkpt lat="51.676317" lon="03.861752"><ele>5</ele><time>2021-01-07T13:26:56Z</time><cmt>5.0 kmh</cmt></trkpt>
<trkpt lat="51.676310" lon="03.861767"><ele>5</ele><time>2021-01-07T13:26:57Z</time><cmt>5.0 kmh</cmt></trkpt>
<trkpt lat="51.676302" lon="03.861781"><ele>5</ele><time>2021-01-07T13:26:58Z</time><cmt>4.1 kmh</cmt></trkpt>
<trkpt lat="51.676294" lon="03.861796"><ele>5</ele><time>2021-01-07T13:26:59Z</time><cmt>4.1 kmh</cmt></trkpt>
<trkpt lat="51.676287" lon="03.861810"><ele>5</ele><time>2021-01-07T13:27:00Z</time><cmt>5.0 kmh</cmt></trkpt>
<trkpt lat="51.676280" lon="03.861825"><ele>5</ele><time>2021-01-07T13:27:01Z</time><cmt>4.9 kmh</cmt></trkpt>
<trkpt lat="51.676273" lon="03.861841"><ele>5</ele><time>2021-01-07T13:27:02Z</time><cmt>5.0 kmh</cmt></trkpt>
<trkpt lat="51.676266" lon="03.861856"><ele>5</ele><time>2021-01-07T13:27:03Z</time><cmt>5.0 kmh</cmt></trkpt>
<trkpt lat="51.676259" lon="03.861872"><ele>5</ele><time>2021-01-07T13:27:04Z</time><cmt>5.0 kmh</cmt></trkpt>
<trkpt lat="51.676251" lon="03.861888"><ele>5</ele><time>2021-01-07T13:27:05Z</time><cmt>4.3 kmh</cmt></trkpt>
<trkpt lat="51.676244" lon="03.861904"><ele>5</ele><time>2021-01-07T13:27:06Z</time><cmt>4.3 kmh</cmt></trkpt>
<trkpt lat="51.676238" lon="03.861921"><ele>5</ele><time>2021-01-07T13:27:07Z</time><cmt>5.0 kmh</cmt></trkpt>
<trkpt lat="51.676231" lon="03.861938"><ele>5</ele><time>2021-01-07T13:27:08Z</time><cmt>5.3 kmh</cmt></trkpt>
<trkpt lat="51.676222" lon="03.861954"><ele>5</ele><time>2021-01-07T13:27:09Z</time><cmt>5.0 kmh</cmt></trkpt>
<trkpt lat="51.676214" lon="03.861970"><ele>6</ele><time>2021-01-07T13:27:10Z</time><cmt>5.0 kmh</cmt></trkpt>
<trkpt lat="51.676206" lon="03.861986"><ele>6</ele><time>2021-01-07T13:27:11Z</time><cmt>4.4 kmh</cmt></trkpt>
<trkpt lat="51.676198" lon="03.862001"><ele>6</ele><time>2021-01-07T13:27:12Z</time><cmt>4.4 kmh</cmt></trkpt>
<trkpt lat="51.676190" lon="03.862017"><ele>6</ele><time>2021-01-07T13:27:13Z</time><cmt>5.0 kmh</cmt></trkpt>
<trkpt lat="51.676182" lon="03.862032"><ele>6</ele><time>2021-01-07T13:27:14Z</time><cmt>5.0 kmh</cmt></trkpt>
<trkpt lat="51.676175" lon="03.862048"><ele>6</ele><time>2021-01-07T13:27:15Z</time><cmt>5.0 kmh</cmt></trkpt>
<trkpt lat="51.676168" lon="03.862064"><ele>6</ele><time>2021-01-07T13:27:16Z</time><cmt>5.0 kmh</cmt></trkpt>
<trkpt lat="51.676161" lon="03.862080"><ele>6</ele><time>2021-01-07T13:27:17Z</time><cmt>4.2 kmh</cmt></trkpt>
<trkpt lat="51.676153" lon="03.862096"><ele>6</ele><time>2021-01-07T13:27:18Z</time><cmt>4.3 kmh</cmt></trkpt>
<trkpt lat="51.676145" lon="03.862111"><ele>6</ele><time>2021-01-07T13:27:19Z</time><cmt>5.0 kmh</cmt></trkpt>
<trkpt lat="51.676137" lon="03.862125"><ele>6</ele><time>2021-01-07T13:27:20Z</time><cmt>5.0 kmh</cmt></trkpt>
<trkpt lat="51.676129" lon="03.862140"><ele>6</ele><time>2021-01-07T13:27:21Z</time><cmt>5.0 kmh</cmt></trkpt>
<trkpt lat="51.676122" lon="03.862156"><ele>6</ele><time>2021-01-07T13:27:22Z</time><cmt>5.1 kmh</cmt></trkpt>
<trkpt lat="51.676115" lon="03.862173"><ele>6</ele><time>2021-01-07T13:27:23Z</time><cmt>5.1 kmh</cmt></trkpt>
<trkpt lat="51.676109" lon="03.862190"><ele>6</ele><time>2021-01-07T13:27:24Z</time><cmt>4.3 kmh</cmt></trkpt>
<trkpt lat="51.676102" lon="03.862206"><ele>6</ele><time>2021-01-07T13:27:25Z</time><cmt>4.2 kmh</cmt></trkpt>
<trkpt lat="51.676094" lon="03.862222"><ele>6</ele><time>2021-01-07T13:27:26Z</time><cmt>5.0 kmh</cmt></trkpt>
<trkpt lat="51.676087" lon="03.862238"><ele>6</ele><time>2021-01-07T13:27:27Z</time><cmt>5.0 kmh</cmt></trkpt>
<trkpt lat="51.676079" lon="03.862253"><ele>6</ele><time>2021-01-07T13:27:28Z</time><cmt>5.0 kmh</cmt></trkpt>
<trkpt lat="51.676070" lon="03.862269"><ele>6</ele><time>2021-01-07T13:27:29Z</time><cmt>5.0 kmh</cmt></trkpt>
<trkpt lat="51.676062" lon="03.862284"><ele>6</ele><time>2021-01-07T13:27:30Z</time><cmt>4.3 kmh</cmt></trkpt>
<trkpt lat="51.676055" lon="03.862299"><ele>6</ele><time>2021-01-07T13:27:31Z</time><cmt>4.2 kmh</cmt></trkpt>
<trkpt lat="51.676048" lon="03.862313"><ele>6</ele><time>2021-01-07T13:27:32Z</time><cmt>5.0 kmh</cmt></trkpt>
<trkpt lat="51.676041" lon="03.862329"><ele>6</ele><time>2021-01-07T13:27:33Z</time><cmt>5.0 kmh</cmt></trkpt>
<trkpt lat="51.676034" lon="03.862344"><ele>6</ele><time>2021-01-07T13:27:34Z</time><cmt>5.0 kmh</cmt></trkpt>
<trkpt lat="51.676027" lon="03.862359"><ele>6</ele><time>2021-01-07T13:27:35Z</time><cmt>5.0 kmh</cmt></trkpt>
<trkpt lat="51.676020" lon="03.862375"><ele>6</ele><time>2021-01-07T13:27:36Z</time><cmt>4.2 kmh</cmt></trkpt>
<trkpt lat="51.676013" lon="03.862390"><ele>6</ele><time>2021-01-07T13:27:37Z</time><cmt>4.2 kmh</cmt></trkpt>
<trkpt lat="51.676006" lon="03.862406"><ele>6</ele><time>2021-01-07T13:27:38Z</time><cmt>5.0 kmh</cmt></trkpt>
<trkpt lat="51.675998" lon="03.862422"><ele>6</ele><time>2021-01-07T13:27:39Z</time><cmt>5.0 kmh</cmt></trkpt>
<trkpt lat="51.675991" lon="03.862438"><ele>6</ele><time>2021-01-07T13:27:40Z</time><cmt>5.0 kmh</cmt></trkpt>
<trkpt lat="51.675983" lon="03.862455"><ele>6</ele><time>2021-01-07T13:27:41Z</time><cmt>5.0 kmh</cmt></trkpt>
<trkpt lat="51.675976" lon="03.862470"><ele>6</ele><time>2021-01-07T13:27:42Z</time><cmt>5.0 kmh</cmt></trkpt>
<trkpt lat="51.675968" lon="03.862486"><ele>6</ele><time>2021-01-07T13:27:43Z</time><cmt>4.3 kmh</cmt></trkpt>
<trkpt lat="51.675960" lon="03.862501"><ele>6</ele><time>2021-01-07T13:27:44Z</time><cmt>4.2 kmh</cmt></trkpt>
<trkpt lat="51.675953" lon="03.862517"><ele>6</ele><time>2021-01-07T13:27:45Z</time><cmt>5.0 kmh</cmt></trkpt>
<trkpt lat="51.675945" lon="03.862532"><ele>6</ele><time>2021-01-07T13:27:46Z</time><cmt>5.0 kmh</cmt></trkpt>
<trkpt lat="51.675938" lon="03.862547"><ele>6</ele><time>2021-01-07T13:27:47Z</time><cmt>5.0 kmh</cmt></trkpt>
<trkpt lat="51.675931" lon="03.862562"><ele>6</ele><time>2021-01-07T13:27:48Z</time><cmt>5.0 kmh</cmt></trkpt>
<trkpt lat="51.675923" lon="03.862578"><ele>6</ele><time>2021-01-07T13:27:49Z</time><cmt>4.1 kmh</cmt></trkpt>
<trkpt lat="51.675916" lon="03.862594"><ele>6</ele><time>2021-01-07T13:27:50Z</time><cmt>4.2 kmh</cmt></trkpt>
<trkpt lat="51.675909" lon="03.862610"><ele>6</ele><time>2021-01-07T13:27:51Z</time><cmt>5.0 kmh</cmt></trkpt>
<trkpt lat="51.675902" lon="03.862626"><ele>6</ele><time>2021-01-07T13:27:52Z</time><cmt>5.0 kmh</cmt></trkpt>
<trkpt lat="51.675894" lon="03.862641"><ele>6</ele><time>2021-01-07T13:27:53Z</time><cmt>5.0 kmh</cmt></trkpt>
<trkpt lat="51.675887" lon="03.862657"><ele>6</ele><time>2021-01-07T13:27:54Z</time><cmt>5.0 kmh</cmt></trkpt>
<trkpt lat="51.675879" lon="03.862672"><ele>6</ele><time>2021-01-07T13:27:55Z</time><cmt>4.2 kmh</cmt></trkpt>
<trkpt lat="51.675872" lon="03.862687"><ele>6</ele><time>2021-01-07T13:27:56Z</time><cmt>4.1 kmh</cmt></trkpt>
<trkpt lat="51.675865" lon="03.862702"><ele>6</ele><time>2021-01-07T13:27:57Z</time><cmt>5.0 kmh</cmt></trkpt>
<trkpt lat="51.675857" lon="03.862718"><ele>6</ele><time>2021-01-07T13:27:58Z</time><cmt>5.0 kmh</cmt></trkpt>
<trkpt lat="51.675849" lon="03.862734"><ele>6</ele><time>2021-01-07T13:27:59Z</time><cmt>5.0 kmh</cmt></trkpt>
<trkpt lat="51.675841" lon="03.862750"><ele>6</ele><time>2021-01-07T13:28:00Z</time><cmt>5.0 kmh</cmt></trkpt>
<trkpt lat="51.675834" lon="03.862765"><ele>6</ele><time>2021-01-07T13:28:01Z</time><cmt>5.0 kmh</cmt></trkpt>
<trkpt lat="51.675826" lon="03.862780"><ele>6</ele><time>2021-01-07T13:28:02Z</time><cmt>4.1 kmh</cmt></trkpt>
<trkpt lat="51.675819" lon="03.862794"><ele>6</ele><time>2021-01-07T13:28:03Z</time><cmt>4.0 kmh</cmt></trkpt>
<trkpt lat="51.675813" lon="03.862809"><ele>6</ele><time>2021-01-07T13:28:04Z</time><cmt>4.9 kmh</cmt></trkpt>
<trkpt lat="51.675805" lon="03.862823"><ele>6</ele><time>2021-01-07T13:28:05Z</time><cmt>5.0 kmh</cmt></trkpt>
<trkpt lat="51.675798" lon="03.862839"><ele>6</ele><time>2021-01-07T13:28:06Z</time><cmt>5.0 kmh</cmt></trkpt>
<trkpt lat="51.675790" lon="03.862854"><ele>6</ele><time>2021-01-07T13:28:07Z</time><cmt>5.0 kmh</cmt></trkpt>
<trkpt lat="51.675783" lon="03.862870"><ele>6</ele><time>2021-01-07T13:28:08Z</time><cmt>4.2 kmh</cmt></trkpt>
<trkpt lat="51.675776" lon="03.862886"><ele>6</ele><time>2021-01-07T13:28:09Z</time><cmt>4.3 kmh</cmt></trkpt>
<trkpt lat="51.675768" lon="03.862902"><ele>6</ele><time>2021-01-07T13:28:10Z</time><cmt>5.0 kmh</cmt></trkpt>
<trkpt lat="51.675761" lon="03.862917"><ele>6</ele><time>2021-01-07T13:28:11Z</time><cmt>5.0 kmh</cmt></trkpt>
<trkpt lat="51.675753" lon="03.862931"><ele>6</ele><time>2021-01-07T13:28:12Z</time><cmt>5.0 kmh</cmt></trkpt>
<trkpt lat="51.675746" lon="03.862947"><ele>6</ele><time>2021-01-07T13:28:13Z</time><cmt>5.0 kmh</cmt></trkpt>
<trkpt lat="51.675738" lon="03.862963"><ele>6</ele><time>2021-01-07T13:28:14Z</time><cmt>5.0 kmh</cmt></trkpt>
<trkpt lat="51.675731" lon="03.862978"><ele>6</ele><time>2021-01-07T13:28:15Z</time><cmt>4.3 kmh</cmt></trkpt>
<trkpt lat="51.675723" lon="03.862993"><ele>6</ele><time>2021-01-07T13:28:16Z</time><cmt>4.2 kmh</cmt></trkpt>
<trkpt lat="51.675716" lon="03.863007"><ele>6</ele><time>2021-01-07T13:28:17Z</time><cmt>5.0 kmh</cmt></trkpt>
<trkpt lat="51.675708" lon="03.863022"><ele>6</ele><time>2021-01-07T13:28:18Z</time><cmt>5.0 kmh</cmt></trkpt>
<trkpt lat="51.675701" lon="03.863038"><ele>6</ele><time>2021-01-07T13:28:19Z</time><cmt>5.0 kmh</cmt></trkpt>
<trkpt lat="51.675693" lon="03.863052"><ele>6</ele><time>2021-01-07T13:28:20Z</time><cmt>5.0 kmh</cmt></trkpt>
<trkpt lat="51.675685" lon="03.863066"><ele>6</ele><time>2021-01-07T13:28:21Z</time><cmt>4.1 kmh</cmt></trkpt>
<trkpt lat="51.675677" lon="03.863080"><ele>6</ele><time>2021-01-07T13:28:22Z</time><cmt>4.1 kmh</cmt></trkpt>
<trkpt lat="51.675669" lon="03.863095"><ele>6</ele><time>2021-01-07T13:28:23Z</time><cmt>5.0 kmh</cmt></trkpt>
<trkpt lat="51.675662" lon="03.863109"><ele>6</ele><time>2021-01-07T13:28:24Z</time><cmt>5.0 kmh</cmt></trkpt>
<trkpt lat="51.675656" lon="03.863125"><ele>6</ele><time>2021-01-07T13:28:25Z</time><cmt>5.0 kmh</cmt></trkpt>
<trkpt lat="51.675648" lon="03.863141"><ele>6</ele><time>2021-01-07T13:28:26Z</time><cmt>5.0 kmh</cmt></trkpt>
<trkpt lat="51.675641" lon="03.863156"><ele>6</ele><time>2021-01-07T13:28:27Z</time><cmt>4.1 kmh</cmt></trkpt>
<trkpt lat="51.675634" lon="03.863170"><ele>6</ele><time>2021-01-07T13:28:28Z</time><cmt>4.0 kmh</cmt></trkpt>
<trkpt lat="51.675627" lon="03.863185"><ele>6</ele><time>2021-01-07T13:28:29Z</time><cmt>5.0 kmh</cmt></trkpt>
<trkpt lat="51.675620" lon="03.863200"><ele>6</ele><time>2021-01-07T13:28:30Z</time><cmt>5.0 kmh</cmt></trkpt>
<trkpt lat="51.675613" lon="03.863216"><ele>6</ele><time>2021-01-07T13:28:31Z</time><cmt>5.0 kmh</cmt></trkpt>
<trkpt lat="51.675606" lon="03.863231"><ele>6</ele><time>2021-01-07T13:28:32Z</time><cmt>5.0 kmh</cmt></trkpt>
<trkpt lat="51.675599" lon="03.863246"><ele>6</ele><time>2021-01-07T13:28:33Z</time><cmt>5.0 kmh</cmt></trkpt>
<trkpt lat="51.675592" lon="03.863262"><ele>6</ele><time>2021-01-07T13:28:34Z</time><cmt>4.1 kmh</cmt></trkpt>
<trkpt lat="51.675586" lon="03.863277"><ele>6</ele><time>2021-01-07T13:28:35Z</time><cmt>4.0 kmh</cmt></trkpt>
<trkpt lat="51.675578" lon="03.863292"><ele>5</ele><time>2021-01-07T13:28:36Z</time><cmt>5.0 kmh</cmt></trkpt>
<trkpt lat="51.675572" lon="03.863304"><ele>5</ele><time>2021-01-07T13:28:37Z</time><cmt>4.6 kmh</cmt></trkpt>
<trkpt lat="51.675569" lon="03.863310"><ele>5</ele><time>2021-01-07T13:28:38Z</time><cmt>3.2 kmh</cmt></trkpt>
<trkpt lat="51.675566" lon="03.863312"><ele>5</ele><time>2021-01-07T13:28:39Z</time><cmt>1.7 kmh</cmt></trkpt>
<trkpt lat="51.675561" lon="03.863320"><ele>5</ele><time>2021-01-07T13:28:40Z</time><cmt>1.8 kmh</cmt></trkpt>
<trkpt lat="51.675555" lon="03.863333"><ele>5</ele><time>2021-01-07T13:28:41Z</time><cmt>3.0 kmh</cmt></trkpt>
<trkpt lat="51.675548" lon="03.863347"><ele>5</ele><time>2021-01-07T13:28:42Z</time><cmt>4.6 kmh</cmt></trkpt>
<trkpt lat="51.675541" lon="03.863361"><ele>5</ele><time>2021-01-07T13:28:43Z</time><cmt>4.8 kmh</cmt></trkpt>
<trkpt lat="51.675534" lon="03.863375"><ele>5</ele><time>2021-01-07T13:28:44Z</time><cmt>4.8 kmh</cmt></trkpt>
<trkpt lat="51.675527" lon="03.863388"><ele>5</ele><time>2021-01-07T13:28:45Z</time><cmt>4.7 kmh</cmt></trkpt>
<trkpt lat="51.675521" lon="03.863401"><ele>5</ele><time>2021-01-07T13:28:46Z</time><cmt>3.6 kmh</cmt></trkpt>
<trkpt lat="51.675515" lon="03.863415"><ele>5</ele><time>2021-01-07T13:28:47Z</time><cmt>3.6 kmh</cmt></trkpt>
<trkpt lat="51.675508" lon="03.863430"><ele>5</ele><time>2021-01-07T13:28:48Z</time><cmt>4.8 kmh</cmt></trkpt>
<trkpt lat="51.675500" lon="03.863445"><ele>5</ele><time>2021-01-07T13:28:49Z</time><cmt>5.0 kmh</cmt></trkpt>
<trkpt lat="51.675493" lon="03.863459"><ele>5</ele><time>2021-01-07T13:28:50Z</time><cmt>5.0 kmh</cmt></trkpt>
<trkpt lat="51.675485" lon="03.863474"><ele>5</ele><time>2021-01-07T13:28:51Z</time><cmt>5.0 kmh</cmt></trkpt>
<trkpt lat="51.675479" lon="03.863490"><ele>5</ele><time>2021-01-07T13:28:52Z</time><cmt>5.0 kmh</cmt></trkpt>
<trkpt lat="51.675471" lon="03.863504"><ele>5</ele><time>2021-01-07T13:28:53Z</time><cmt>4.0 kmh</cmt></trkpt>
<trkpt lat="51.675464" lon="03.863519"><ele>5</ele><time>2021-01-07T13:28:54Z</time><cmt>4.1 kmh</cmt></trkpt>
<trkpt lat="51.675457" lon="03.863535"><ele>5</ele><time>2021-01-07T13:28:55Z</time><cmt>5.0 kmh</cmt></trkpt>
<trkpt lat="51.675449" lon="03.863550"><ele>5</ele><time>2021-01-07T13:28:56Z</time><cmt>5.0 kmh</cmt></trkpt>
<trkpt lat="51.675442" lon="03.863565"><ele>5</ele><time>2021-01-07T13:28:57Z</time><cmt>5.0 kmh</cmt></trkpt>
<trkpt lat="51.675435" lon="03.863580"><ele>5</ele><time>2021-01-07T13:28:58Z</time><cmt>5.0 kmh</cmt></trkpt>
<trkpt lat="51.675427" lon="03.863595"><ele>5</ele><time>2021-01-07T13:28:59Z</time><cmt>4.2 kmh</cmt></trkpt>
<trkpt lat="51.675420" lon="03.863611"><ele>5</ele><time>2021-01-07T13:29:00Z</time><cmt>4.2 kmh</cmt></trkpt>
<trkpt lat="51.675412" lon="03.863625"><ele>4</ele><time>2021-01-07T13:29:01Z</time><cmt>5.0 kmh</cmt></trkpt>
<trkpt lat="51.675404" lon="03.863641"><ele>4</ele><time>2021-01-07T13:29:02Z</time><cmt>5.0 kmh</cmt></trkpt>
<trkpt lat="51.675396" lon="03.863656"><ele>4</ele><time>2021-01-07T13:29:03Z</time><cmt>5.0 kmh</cmt></trkpt>
<trkpt lat="51.675388" lon="03.863672"><ele>4</ele><time>2021-01-07T13:29:04Z</time><cmt>5.0 kmh</cmt></trkpt>
<trkpt lat="51.675381" lon="03.863687"><ele>4</ele><time>2021-01-07T13:29:05Z</time><cmt>4.2 kmh</cmt></trkpt>
<trkpt lat="51.675374" lon="03.863703"><ele>4</ele><time>2021-01-07T13:29:06Z</time><cmt>4.2 kmh</cmt></trkpt>
<trkpt lat="51.675367" lon="03.863718"><ele>4</ele><time>2021-01-07T13:29:07Z</time><cmt>5.0 kmh</cmt></trkpt>
<trkpt lat="51.675359" lon="03.863734"><ele>4</ele><time>2021-01-07T13:29:08Z</time><cmt>5.0 kmh</cmt></trkpt>
<trkpt lat="51.675351" lon="03.863749"><ele>4</ele><time>2021-01-07T13:29:09Z</time><cmt>5.0 kmh</cmt></trkpt>
<trkpt lat="51.675344" lon="03.863764"><ele>4</ele><time>2021-01-07T13:29:10Z</time><cmt>5.0 kmh</cmt></trkpt>
<trkpt lat="51.675337" lon="03.863778"><ele>4</ele><time>2021-01-07T13:29:11Z</time><cmt>5.0 kmh</cmt></trkpt>
<trkpt lat="51.675329" lon="03.863793"><ele>4</ele><time>2021-01-07T13:29:12Z</time><cmt>4.0 kmh</cmt></trkpt>
<trkpt lat="51.675322" lon="03.863808"><ele>4</ele><time>2021-01-07T13:29:13Z</time><cmt>4.1 kmh</cmt></trkpt>
<trkpt lat="51.675314" lon="03.863824"><ele>4</ele><time>2021-01-07T13:29:14Z</time><cmt>5.0 kmh</cmt></trkpt>
<trkpt lat="51.675306" lon="03.863839"><ele>4</ele><time>2021-01-07T13:29:15Z</time><cmt>5.0 kmh</cmt></trkpt>
<trkpt lat="51.675298" lon="03.863855"><ele>4</ele><time>2021-01-07T13:29:16Z</time><cmt>5.0 kmh</cmt></trkpt>
<trkpt lat="51.675291" lon="03.863871"><ele>4</ele><time>2021-01-07T13:29:17Z</time><cmt>5.0 kmh</cmt></trkpt>
<trkpt lat="51.675283" lon="03.863886"><ele>4</ele><time>2021-01-07T13:29:18Z</time><cmt>4.2 kmh</cmt></trkpt>
<trkpt lat="51.675276" lon="03.863901"><ele>4</ele><time>2021-01-07T13:29:19Z</time><cmt>4.2 kmh</cmt></trkpt>
<trkpt lat="51.675268" lon="03.863916"><ele>4</ele><time>2021-01-07T13:29:20Z</time><cmt>5.0 kmh</cmt></trkpt>
<trkpt lat="51.675261" lon="03.863929"><ele>4</ele><time>2021-01-07T13:29:21Z</time><cmt>5.0 kmh</cmt></trkpt>
<trkpt lat="51.675253" lon="03.863943"><ele>4</ele><time>2021-01-07T13:29:22Z</time><cmt>4.8 kmh</cmt></trkpt>
<trkpt lat="51.675247" lon="03.863955"><ele>4</ele><time>2021-01-07T13:29:23Z</time><cmt>4.6 kmh</cmt></trkpt>
<trkpt lat="51.675240" lon="03.863966"><ele>4</ele><time>2021-01-07T13:29:24Z</time><cmt>3.3 kmh</cmt></trkpt>
<trkpt lat="51.675235" lon="03.863974"><ele>4</ele><time>2021-01-07T13:29:25Z</time><cmt>2.8 kmh</cmt></trkpt>
<trkpt lat="51.675232" lon="03.863981"><ele>4</ele><time>2021-01-07T13:29:26Z</time><cmt>2.7 kmh</cmt></trkpt>
<trkpt lat="51.675230" lon="03.863984"><ele>4</ele><time>2021-01-07T13:29:27Z</time><cmt>1.7 kmh</cmt></trkpt>
<trkpt lat="51.675229" lon="03.863986"><ele>4</ele><time>2021-01-07T13:29:28Z</time><cmt>0.8 kmh</cmt></trkpt>
<trkpt lat="51.675229" lon="03.863986"><ele>4</ele><time>2021-01-07T13:29:29Z</time><cmt>0.3 kmh</cmt></trkpt>
<trkpt lat="51.675229" lon="03.863986"><ele>4</ele><time>2021-01-07T13:29:30Z</time><cmt>0.0 kmh</cmt></trkpt>
<trkpt lat="51.675229" lon="03.863986"><ele>4</ele><time>2021-01-07T13:29:31Z</time><cmt>0.0 kmh</cmt></trkpt>
<trkpt lat="51.675229" lon="03.863987"><ele>4</ele><time>2021-01-07T13:29:32Z</time><cmt>0.0 kmh</cmt></trkpt>
<trkpt lat="51.675227" lon="03.863990"><ele>4</ele><time>2021-01-07T13:29:33Z</time><cmt>0.5 kmh</cmt></trkpt>
<trkpt lat="51.675227" lon="03.863992"><ele>4</ele><time>2021-01-07T13:29:34Z</time><cmt>0.7 kmh</cmt></trkpt>
<trkpt lat="51.675228" lon="03.863993"><ele>4</ele><time>2021-01-07T13:29:35Z</time><cmt>0.3 kmh</cmt></trkpt>
<trkpt lat="51.675228" lon="03.863993"><ele>4</ele><time>2021-01-07T13:29:36Z</time><cmt>0.0 kmh</cmt></trkpt>
<trkpt lat="51.675228" lon="03.863994"><ele>4</ele><time>2021-01-07T13:29:37Z</time><cmt>0.0 kmh</cmt></trkpt>
<trkpt lat="51.675229" lon="03.863997"><ele>4</ele><time>2021-01-07T13:29:38Z</time><cmt>0.3 kmh</cmt></trkpt>
<trkpt lat="51.675228" lon="03.863998"><ele>4</ele><time>2021-01-07T13:29:39Z</time><cmt>0.6 kmh</cmt></trkpt>
<trkpt lat="51.675228" lon="03.863999"><ele>4</ele><time>2021-01-07T13:29:40Z</time><cmt>0.4 kmh</cmt></trkpt>
<trkpt lat="51.675227" lon="03.864000"><ele>4</ele><time>2021-01-07T13:29:41Z</time><cmt>0.2 kmh</cmt></trkpt>
<trkpt lat="51.675226" lon="03.863999"><ele>4</ele><time>2021-01-07T13:29:42Z</time><cmt>0.2 kmh</cmt></trkpt>
<trkpt lat="51.675226" lon="03.863999"><ele>4</ele><time>2021-01-07T13:29:43Z</time><cmt>0.1 kmh</cmt></trkpt>
<trkpt lat="51.675225" lon="03.864000"><ele>4</ele><time>2021-01-07T13:29:44Z</time><cmt>0.0 kmh</cmt></trkpt>
<trkpt lat="51.675225" lon="03.864000"><ele>4</ele><time>2021-01-07T13:29:45Z</time><cmt>0.0 kmh</cmt></trkpt>
<trkpt lat="51.675225" lon="03.864000"><ele>4</ele><time>2021-01-07T13:29:46Z</time><cmt>0.0 kmh</cmt></trkpt>
<trkpt lat="51.675224" lon="03.864000"><ele>4</ele><time>2021-01-07T13:29:47Z</time><cmt>0.0 kmh</cmt></trkpt>
<trkpt lat="51.675224" lon="03.864000"><ele>4</ele><time>2021-01-07T13:29:48Z</time><cmt>0.0 kmh</cmt></trkpt>
<trkpt lat="51.675224" lon="03.864001"><ele>4</ele><time>2021-01-07T13:29:49Z</time><cmt>0.2 kmh</cmt></trkpt>
<trkpt lat="51.675223" lon="03.864002"><ele>4</ele><time>2021-01-07T13:29:50Z</time><cmt>0.1 kmh</cmt></trkpt>
<trkpt lat="51.675223" lon="03.864002"><ele>4</ele><time>2021-01-07T13:29:51Z</time><cmt>0.0 kmh</cmt></trkpt>
<trkpt lat="51.675222" lon="03.864003"><ele>4</ele><time>2021-01-07T13:29:52Z</time><cmt>0.3 kmh</cmt></trkpt>
<trkpt lat="51.675220" lon="03.864006"><ele>4</ele><time>2021-01-07T13:29:53Z</time><cmt>0.7 kmh</cmt></trkpt>
<trkpt lat="51.675219" lon="03.864008"><ele>5</ele><time>2021-01-07T13:29:54Z</time><cmt>0.9 kmh</cmt></trkpt>
<trkpt lat="51.675218" lon="03.864010"><ele>5</ele><time>2021-01-07T13:29:55Z</time><cmt>0.7 kmh</cmt></trkpt>
<trkpt lat="51.675217" lon="03.864011"><ele>5</ele><time>2021-01-07T13:29:56Z</time><cmt>0.4 kmh</cmt></trkpt>
<trkpt lat="51.675217" lon="03.864011"><ele>5</ele><time>2021-01-07T13:29:57Z</time><cmt>0.1 kmh</cmt></trkpt>
<trkpt lat="51.675216" lon="03.864011"><ele>5</ele><time>2021-01-07T13:29:58Z</time><cmt>0.0 kmh</cmt></trkpt>
<trkpt lat="51.675216" lon="03.864012"><ele>5</ele><time>2021-01-07T13:29:59Z</time><cmt>0.3 kmh</cmt></trkpt>
<trkpt lat="51.675215" lon="03.864016"><ele>5</ele><time>2021-01-07T13:30:00Z</time><cmt>0.7 kmh</cmt></trkpt>
<trkpt lat="51.675214" lon="03.864018"><ele>5</ele><time>2021-01-07T13:30:01Z</time><cmt>0.9 kmh</cmt></trkpt>
<trkpt lat="51.675214" lon="03.864020"><ele>5</ele><time>2021-01-07T13:30:02Z</time><cmt>0.7 kmh</cmt></trkpt>
<trkpt lat="51.675214" lon="03.864020"><ele>5</ele><time>2021-01-07T13:30:03Z</time><cmt>0.2 kmh</cmt></trkpt>
<trkpt lat="51.675214" lon="03.864019"><ele>6</ele><time>2021-01-07T13:30:04Z</time><cmt>0.0 kmh</cmt></trkpt>
<trkpt lat="51.675214" lon="03.864019"><ele>6</ele><time>2021-01-07T13:30:05Z</time><cmt>0.0 kmh</cmt></trkpt>
<trkpt lat="51.675214" lon="03.864018"><ele>6</ele><time>2021-01-07T13:30:06Z</time><cmt>0.0 kmh</cmt></trkpt>
<trkpt lat="51.675214" lon="03.864017"><ele>6</ele><time>2021-01-07T13:30:07Z</time><cmt>0.0 kmh</cmt></trkpt>
<trkpt lat="51.675215" lon="03.864017"><ele>6</ele><time>2021-01-07T13:30:08Z</time><cmt>0.0 kmh</cmt></trkpt>
<trkpt lat="51.675215" lon="03.864016"><ele>6</ele><time>2021-01-07T13:30:09Z</time><cmt>0.0 kmh</cmt></trkpt>
<trkpt lat="51.675215" lon="03.864017"><ele>6</ele><time>2021-01-07T13:30:10Z</time><cmt>0.0 kmh</cmt></trkpt>
<trkpt lat="51.675215" lon="03.864019"><ele>6</ele><time>2021-01-07T13:30:11Z</time><cmt>0.2 kmh</cmt></trkpt>
<trkpt lat="51.675215" lon="03.864021"><ele>6</ele><time>2021-01-07T13:30:12Z</time><cmt>0.6 kmh</cmt></trkpt>
<trkpt lat="51.675215" lon="03.864023"><ele>6</ele><time>2021-01-07T13:30:13Z</time><cmt>0.6 kmh</cmt></trkpt>
<trkpt lat="51.675215" lon="03.864023"><ele>6</ele><time>2021-01-07T13:30:14Z</time><cmt>0.2 kmh</cmt></trkpt>
<trkpt lat="51.675214" lon="03.864022"><ele>6</ele><time>2021-01-07T13:30:15Z</time><cmt>0.0 kmh</cmt></trkpt>
<trkpt lat="51.675214" lon="03.864023"><ele>7</ele><time>2021-01-07T13:30:16Z</time><cmt>0.0 kmh</cmt></trkpt>
<trkpt lat="51.675214" lon="03.864024"><ele>7</ele><time>2021-01-07T13:30:17Z</time><cmt>0.0 kmh</cmt></trkpt>
<trkpt lat="51.675213" lon="03.864025"><ele>7</ele><time>2021-01-07T13:30:18Z</time><cmt>0.0 kmh</cmt></trkpt>
<trkpt lat="51.675213" lon="03.864025"><ele>7</ele><time>2021-01-07T13:30:19Z</time><cmt>0.0 kmh</cmt></trkpt>
<trkpt lat="51.675213" lon="03.864025"><ele>7</ele><time>2021-01-07T13:30:20Z</time><cmt>0.0 kmh</cmt></trkpt>
<trkpt lat="51.675213" lon="03.864024"><ele>7</ele><time>2021-01-07T13:30:21Z</time><cmt>0.0 kmh</cmt></trkpt>
<trkpt lat="51.675213" lon="03.864024"><ele>7</ele><time>2021-01-07T13:30:22Z</time><cmt>0.0 kmh</cmt></trkpt>
<trkpt lat="51.675213" lon="03.864024"><ele>7</ele><time>2021-01-07T13:30:23Z</time><cmt>0.0 kmh</cmt></trkpt>
<trkpt lat="51.675214" lon="03.864024"><ele>7</ele><time>2021-01-07T13:30:24Z</time><cmt>0.0 kmh</cmt></trkpt>
<trkpt lat="51.675213" lon="03.864026"><ele>7</ele><time>2021-01-07T13:30:25Z</time><cmt>0.2 kmh</cmt></trkpt>
<trkpt lat="51.675212" lon="03.864031"><ele>7</ele><time>2021-01-07T13:30:26Z</time><cmt>0.6 kmh</cmt></trkpt>
<trkpt lat="51.675210" lon="03.864035"><ele>7</ele><time>2021-01-07T13:30:27Z</time><cmt>1.3 kmh</cmt></trkpt>
<trkpt lat="51.675210" lon="03.864038"><ele>7</ele><time>2021-01-07T13:30:28Z</time><cmt>0.7 kmh</cmt></trkpt>
<trkpt lat="51.675210" lon="03.864039"><ele>7</ele><time>2021-01-07T13:30:29Z</time><cmt>0.2 kmh</cmt></trkpt>
<trkpt lat="51.675210" lon="03.864041"><ele>7</ele><time>2021-01-07T13:30:30Z</time><cmt>0.2 kmh</cmt></trkpt>
<trkpt lat="51.675210" lon="03.864041"><ele>7</ele><time>2021-01-07T13:30:31Z</time><cmt>0.2 kmh</cmt></trkpt>
<trkpt lat="51.675209" lon="03.864043"><ele>7</ele><time>2021-01-07T13:30:32Z</time><cmt>0.0 kmh</cmt></trkpt>
<trkpt lat="51.675209" lon="03.864044"><ele>7</ele><time>2021-01-07T13:30:33Z</time><cmt>0.0 kmh</cmt></trkpt>
<trkpt lat="51.675209" lon="03.864044"><ele>7</ele><time>2021-01-07T13:30:34Z</time><cmt>0.0 kmh</cmt></trkpt>
<trkpt lat="51.675210" lon="03.864043"><ele>7</ele><time>2021-01-07T13:30:35Z</time><cmt>0.2 kmh</cmt></trkpt>
<trkpt lat="51.675210" lon="03.864042"><ele>6</ele><time>2021-01-07T13:30:36Z</time><cmt>0.3 kmh</cmt></trkpt>
<trkpt lat="51.675211" lon="03.864041"><ele>6</ele><time>2021-01-07T13:30:37Z</time><cmt>0.0 kmh</cmt></trkpt>
<trkpt lat="51.675211" lon="03.864041"><ele>6</ele><time>2021-01-07T13:30:38Z</time><cmt>0.0 kmh</cmt></trkpt>
<trkpt lat="51.675211" lon="03.864040"><ele>6</ele><time>2021-01-07T13:30:39Z</time><cmt>0.0 kmh</cmt></trkpt>
<trkpt lat="51.675211" lon="03.864040"><ele>6</ele><time>2021-01-07T13:30:40Z</time><cmt>0.0 kmh</cmt></trkpt>
<trkpt lat="51.675211" lon="03.864039"><ele>6</ele><time>2021-01-07T13:30:41Z</time><cmt>0.0 kmh</cmt></trkpt>
<trkpt lat="51.675211" lon="03.864039"><ele>6</ele><time>2021-01-07T13:30:42Z</time><cmt>0.0 kmh</cmt></trkpt>
<trkpt lat="51.675211" lon="03.864039"><ele>6</ele><time>2021-01-07T13:30:43Z</time><cmt>0.0 kmh</cmt></trkpt>
<trkpt lat="51.675211" lon="03.864039"><ele>6</ele><time>2021-01-07T13:30:44Z</time><cmt>0.0 kmh</cmt></trkpt>
<trkpt lat="51.675210" lon="03.864039"><ele>6</ele><time>2021-01-07T13:30:45Z</time><cmt>0.0 kmh</cmt></trkpt>
<trkpt lat="51.675210" lon="03.864037"><ele>6</ele><time>2021-01-07T13:30:46Z</time><cmt>0.0 kmh</cmt></trkpt>
<trkpt lat="51.675210" lon="03.864036"><ele>6</ele><time>2021-01-07T13:30:47Z</time><cmt>0.0 kmh</cmt></trkpt>
<trkpt lat="51.675211" lon="03.864036"><ele>6</ele><time>2021-01-07T13:30:48Z</time><cmt>0.0 kmh</cmt></trkpt>
<trkpt lat="51.675211" lon="03.864035"><ele>6</ele><time>2021-01-07T13:30:49Z</time><cmt>0.0 kmh</cmt></trkpt>
<trkpt lat="51.675212" lon="03.864035"><ele>6</ele><time>2021-01-07T13:30:50Z</time><cmt>0.0 kmh</cmt></trkpt>
<trkpt lat="51.675213" lon="03.864035"><ele>5</ele><time>2021-01-07T13:30:51Z</time><cmt>0.0 kmh</cmt></trkpt>
<trkpt lat="51.675213" lon="03.864034"><ele>5</ele><time>2021-01-07T13:30:52Z</time><cmt>0.0 kmh</cmt></trkpt>
<trkpt lat="51.675214" lon="03.864034"><ele>5</ele><time>2021-01-07T13:30:53Z</time><cmt>0.2 kmh</cmt></trkpt>
<trkpt lat="51.675214" lon="03.864034"><ele>5</ele><time>2021-01-07T13:30:54Z</time><cmt>0.4 kmh</cmt></trkpt>
<trkpt lat="51.675214" lon="03.864034"><ele>5</ele><time>2021-01-07T13:30:55Z</time><cmt>0.2 kmh</cmt></trkpt>
<trkpt lat="51.675215" lon="03.864034"><ele>5</ele><time>2021-01-07T13:30:56Z</time><cmt>0.2 kmh</cmt></trkpt>
<trkpt lat="51.675215" lon="03.864034"><ele>5</ele><time>2021-01-07T13:30:57Z</time><cmt>0.2 kmh</cmt></trkpt>
<trkpt lat="51.675215" lon="03.864034"><ele>4</ele><time>2021-01-07T13:30:58Z</time><cmt>0.0 kmh</cmt></trkpt>
<trkpt lat="51.675216" lon="03.864035"><ele>4</ele><time>2021-01-07T13:30:59Z</time><cmt>0.0 kmh</cmt></trkpt>
<trkpt lat="51.675216" lon="03.864035"><ele>4</ele><time>2021-01-07T13:31:00Z</time><cmt>0.0 kmh</cmt></trkpt>
<trkpt lat="51.675216" lon="03.864034"><ele>4</ele><time>2021-01-07T13:31:01Z</time><cmt>0.2 kmh</cmt></trkpt>
<trkpt lat="51.675217" lon="03.864034"><ele>4</ele><time>2021-01-07T13:31:02Z</time><cmt>0.4 kmh</cmt></trkpt>
<trkpt lat="51.675216" lon="03.864033"><ele>4</ele><time>2021-01-07T13:31:03Z</time><cmt>0.2 kmh</cmt></trkpt>
<trkpt lat="51.675216" lon="03.864033"><ele>4</ele><time>2021-01-07T13:31:04Z</time><cmt>0.0 kmh</cmt></trkpt>
<trkpt lat="51.675216" lon="03.864032"><ele>4</ele><time>2021-01-07T13:31:05Z</time><cmt>0.0 kmh</cmt></trkpt>
<trkpt lat="51.675216" lon="03.864032"><ele>4</ele><time>2021-01-07T13:31:06Z</time><cmt>0.0 kmh</cmt></trkpt>
<trkpt lat="51.675216" lon="03.864031"><ele>4</ele><time>2021-01-07T13:31:07Z</time><cmt>0.0 kmh</cmt></trkpt>
<trkpt lat="51.675217" lon="03.864031"><ele>4</ele><time>2021-01-07T13:31:08Z</time><cmt>0.0 kmh</cmt></trkpt>
<trkpt lat="51.675217" lon="03.864031"><ele>4</ele><time>2021-01-07T13:31:09Z</time><cmt>0.0 kmh</cmt></trkpt>
<trkpt lat="51.675217" lon="03.864031"><ele>4</ele><time>2021-01-07T13:31:10Z</time><cmt>0.0 kmh</cmt></trkpt>
<trkpt lat="51.675217" lon="03.864030"><ele>4</ele><time>2021-01-07T13:31:11Z</time><cmt>0.0 kmh</cmt></trkpt>
<trkpt lat="51.675217" lon="03.864031"><ele>4</ele><time>2021-01-07T13:31:12Z</time><cmt>0.0 kmh</cmt></trkpt>
<trkpt lat="51.675217" lon="03.864032"><ele>4</ele><time>2021-01-07T13:31:13Z</time><cmt>0.0 kmh</cmt></trkpt>
<trkpt lat="51.675217" lon="03.864033"><ele>4</ele><time>2021-01-07T13:31:14Z</time><cmt>0.0 kmh</cmt></trkpt>
<trkpt lat="51.675217" lon="03.864033"><ele>4</ele><time>2021-01-07T13:31:15Z</time><cmt>0.2 kmh</cmt></trkpt>
<trkpt lat="51.675218" lon="03.864033"><ele>4</ele><time>2021-01-07T13:31:16Z</time><cmt>0.2 kmh</cmt></trkpt>
<trkpt lat="51.675218" lon="03.864032"><ele>4</ele><time>2021-01-07T13:31:17Z</time><cmt>0.0 kmh</cmt></trkpt>
<trkpt lat="51.675218" lon="03.864032"><ele>4</ele><time>2021-01-07T13:31:18Z</time><cmt>0.0 kmh</cmt></trkpt>
<trkpt lat="51.675217" lon="03.864031"><ele>4</ele><time>2021-01-07T13:31:19Z</time><cmt>0.0 kmh</cmt></trkpt>
<trkpt lat="51.675217" lon="03.864031"><ele>4</ele><time>2021-01-07T13:31:20Z</time><cmt>0.0 kmh</cmt></trkpt>
<trkpt lat="51.675217" lon="03.864031"><ele>4</ele><time>2021-01-07T13:31:21Z</time><cmt>0.0 kmh</cmt></trkpt>
<trkpt lat="51.675216" lon="03.864031"><ele>4</ele><time>2021-01-07T13:31:22Z</time><cmt>0.3 kmh</cmt></trkpt>
<trkpt lat="51.675215" lon="03.864032"><ele>4</ele><time>2021-01-07T13:31:23Z</time><cmt>0.4 kmh</cmt></trkpt>
<trkpt lat="51.675215" lon="03.864032"><ele>4</ele><time>2021-01-07T13:31:24Z</time><cmt>0.2 kmh</cmt></trkpt>
<trkpt lat="51.675215" lon="03.864033"><ele>4</ele><time>2021-01-07T13:31:25Z</time><cmt>0.0 kmh</cmt></trkpt>
<trkpt lat="51.675215" lon="03.864033"><ele>4</ele><time>2021-01-07T13:31:26Z</time><cmt>0.0 kmh</cmt></trkpt>
<trkpt lat="51.675215" lon="03.864033"><ele>4</ele><time>2021-01-07T13:31:27Z</time><cmt>0.0 kmh</cmt></trkpt>
<trkpt lat="51.675215" lon="03.864033"><ele>4</ele><time>2021-01-07T13:31:28Z</time><cmt>0.0 kmh</cmt></trkpt>
<trkpt lat="51.675215" lon="03.864033"><ele>4</ele><time>2021-01-07T13:31:29Z</time><cmt>0.0 kmh</cmt></trkpt>
<trkpt lat="51.675214" lon="03.864033"><ele>3</ele><time>2021-01-07T13:31:30Z</time><cmt>0.0 kmh</cmt></trkpt>
<trkpt lat="51.675214" lon="03.864033"><ele>3</ele><time>2021-01-07T13:31:31Z</time><cmt>0.0 kmh</cmt></trkpt>
<trkpt lat="51.675214" lon="03.864032"><ele>3</ele><time>2021-01-07T13:31:32Z</time><cmt>0.0 kmh</cmt></trkpt>
<trkpt lat="51.675214" lon="03.864032"><ele>3</ele><time>2021-01-07T13:31:33Z</time><cmt>0.0 kmh</cmt></trkpt>
<trkpt lat="51.675214" lon="03.864031"><ele>3</ele><time>2021-01-07T13:31:34Z</time><cmt>0.0 kmh</cmt></trkpt>
<trkpt lat="51.675215" lon="03.864031"><ele>3</ele><time>2021-01-07T13:31:35Z</time><cmt>0.0 kmh</cmt></trkpt>
<trkpt lat="51.675215" lon="03.864031"><ele>3</ele><time>2021-01-07T13:31:36Z</time><cmt>0.0 kmh</cmt></trkpt>
<trkpt lat="51.675216" lon="03.864031"><ele>3</ele><time>2021-01-07T13:31:37Z</time><cmt>0.0 kmh</cmt></trkpt>
<trkpt lat="51.675217" lon="03.864031"><ele>3</ele><time>2021-01-07T13:31:38Z</time><cmt>0.2 kmh</cmt></trkpt>
<trkpt lat="51.675218" lon="03.864030"><ele>3</ele><time>2021-01-07T13:31:39Z</time><cmt>0.2 kmh</cmt></trkpt>
<trkpt lat="51.675218" lon="03.864030"><ele>3</ele><time>2021-01-07T13:31:40Z</time><cmt>0.0 kmh</cmt></trkpt>
<trkpt lat="51.675218" lon="03.864030"><ele>3</ele><time>2021-01-07T13:31:41Z</time><cmt>0.0 kmh</cmt></trkpt>
<trkpt lat="51.675217" lon="03.864030"><ele>4</ele><time>2021-01-07T13:31:42Z</time><cmt>0.0 kmh</cmt></trkpt>
<trkpt lat="51.675217" lon="03.864030"><ele>4</ele><time>2021-01-07T13:31:43Z</time><cmt>0.0 kmh</cmt></trkpt>
<trkpt lat="51.675217" lon="03.864030"><ele>4</ele><time>2021-01-07T13:31:45Z</time><cmt>0.0 kmh</cmt></trkpt>
<trkpt lat="51.675217" lon="03.864029"><ele>4</ele><time>2021-01-07T13:31:46Z</time><cmt>0.0 kmh</cmt></trkpt>
<trkpt lat="51.675217" lon="03.864029"><ele>4</ele><time>2021-01-07T13:31:47Z</time><cmt>0.0 kmh</cmt></trkpt>
<trkpt lat="51.675217" lon="03.864029"><ele>4</ele><time>2021-01-07T13:31:48Z</time><cmt>0.0 kmh</cmt></trkpt>
<trkpt lat="51.675217" lon="03.864029"><ele>4</ele><time>2021-01-07T13:31:49Z</time><cmt>0.0 kmh</cmt></trkpt>
<trkpt lat="51.675216" lon="03.864029"><ele>4</ele><time>2021-01-07T13:31:50Z</time><cmt>0.0 kmh</cmt></trkpt>
<trkpt lat="51.675217" lon="03.864029"><ele>4</ele><time>2021-01-07T13:31:51Z</time><cmt>0.0 kmh</cmt></trkpt>
<trkpt lat="51.675217" lon="03.864029"><ele>4</ele><time>2021-01-07T13:31:52Z</time><cmt>0.0 kmh</cmt></trkpt>
<trkpt lat="51.675217" lon="03.864029"><ele>4</ele><time>2021-01-07T13:31:53Z</time><cmt>0.0 kmh</cmt></trkpt>
<trkpt lat="51.675217" lon="03.864028"><ele>4</ele><time>2021-01-07T13:31:54Z</time><cmt>0.0 kmh</cmt></trkpt>
<trkpt lat="51.675217" lon="03.864028"><ele>5</ele><time>2021-01-07T13:31:55Z</time><cmt>0.0 kmh</cmt></trkpt>
<trkpt lat="51.675217" lon="03.864027"><ele>5</ele><time>2021-01-07T13:31:56Z</time><cmt>0.0 kmh</cmt></trkpt>
<trkpt lat="51.675217" lon="03.864027"><ele>5</ele><time>2021-01-07T13:31:57Z</time><cmt>0.0 kmh</cmt></trkpt>
<trkpt lat="51.675217" lon="03.864028"><ele>5</ele><time>2021-01-07T13:31:58Z</time><cmt>0.0 kmh</cmt></trkpt>
<trkpt lat="51.675216" lon="03.864028"><ele>5</ele><time>2021-01-07T13:31:59Z</time><cmt>0.0 kmh</cmt></trkpt>
<trkpt lat="51.675216" lon="03.864027"><ele>5</ele><time>2021-01-07T13:32:00Z</time><cmt>0.0 kmh</cmt></trkpt>
<trkpt lat="51.675215" lon="03.864027"><ele>5</ele><time>2021-01-07T13:32:01Z</time><cmt>0.0 kmh</cmt></trkpt>
<trkpt lat="51.675215" lon="03.864027"><ele>5</ele><time>2021-01-07T13:32:02Z</time><cmt>0.0 kmh</cmt></trkpt>
<trkpt lat="51.675215" lon="03.864027"><ele>5</ele><time>2021-01-07T13:32:03Z</time><cmt>0.0 kmh</cmt></trkpt>
<trkpt lat="51.675216" lon="03.864026"><ele>5</ele><time>2021-01-07T13:32:04Z</time><cmt>0.0 kmh</cmt></trkpt>
<trkpt lat="51.675216" lon="03.864026"><ele>5</ele><time>2021-01-07T13:32:05Z</time><cmt>0.0 kmh</cmt></trkpt>
<trkpt lat="51.675216" lon="03.864026"><ele>5</ele><time>2021-01-07T13:32:06Z</time><cmt>0.0 kmh</cmt></trkpt>
<trkpt lat="51.675216" lon="03.864025"><ele>5</ele><time>2021-01-07T13:32:07Z</time><cmt>0.0 kmh</cmt></trkpt>
<trkpt lat="51.675215" lon="03.864025"><ele>5</ele><time>2021-01-07T13:32:08Z</time><cmt>0.0 kmh</cmt></trkpt>
<trkpt lat="51.675215" lon="03.864024"><ele>5</ele><time>2021-01-07T13:32:09Z</time><cmt>0.2 kmh</cmt></trkpt>
<trkpt lat="51.675215" lon="03.864024"><ele>5</ele><time>2021-01-07T13:32:10Z</time><cmt>0.1 kmh</cmt></trkpt>
<trkpt lat="51.675216" lon="03.864025"><ele>4</ele><time>2021-01-07T13:32:11Z</time><cmt>0.0 kmh</cmt></trkpt>
<trkpt lat="51.675216" lon="03.864025"><ele>4</ele><time>2021-01-07T13:32:12Z</time><cmt>0.0 kmh</cmt></trkpt>
<trkpt lat="51.675216" lon="03.864025"><ele>4</ele><time>2021-01-07T13:32:13Z</time><cmt>0.0 kmh</cmt></trkpt>
<trkpt lat="51.675215" lon="03.864023"><ele>4</ele><time>2021-01-07T13:32:14Z</time><cmt>0.2 kmh</cmt></trkpt>
<trkpt lat="51.675214" lon="03.864022"><ele>4</ele><time>2021-01-07T13:32:15Z</time><cmt>0.4 kmh</cmt></trkpt>
<trkpt lat="51.675214" lon="03.864021"><ele>4</ele><time>2021-01-07T13:32:16Z</time><cmt>0.4 kmh</cmt></trkpt>
<trkpt lat="51.675214" lon="03.864020"><ele>4</ele><time>2021-01-07T13:32:17Z</time><cmt>0.4 kmh</cmt></trkpt>
<trkpt lat="51.675213" lon="03.864019"><ele>3</ele><time>2021-01-07T13:32:18Z</time><cmt>0.5 kmh</cmt></trkpt>
<trkpt lat="51.675213" lon="03.864018"><ele>3</ele><time>2021-01-07T13:32:19Z</time><cmt>0.4 kmh</cmt></trkpt>
<trkpt lat="51.675213" lon="03.864017"><ele>3</ele><time>2021-01-07T13:32:20Z</time><cmt>0.4 kmh</cmt></trkpt>
<trkpt lat="51.675213" lon="03.864017"><ele>3</ele><time>2021-01-07T13:32:21Z</time><cmt>0.2 kmh</cmt></trkpt>
<trkpt lat="51.675212" lon="03.864016"><ele>3</ele><time>2021-01-07T13:32:22Z</time><cmt>0.1 kmh</cmt></trkpt>
<trkpt lat="51.675212" lon="03.864015"><ele>3</ele><time>2021-01-07T13:32:23Z</time><cmt>0.3 kmh</cmt></trkpt>
<trkpt lat="51.675211" lon="03.864015"><ele>3</ele><time>2021-01-07T13:32:24Z</time><cmt>0.4 kmh</cmt></trkpt>
<trkpt lat="51.675211" lon="03.864014"><ele>2</ele><time>2021-01-07T13:32:25Z</time><cmt>0.2 kmh</cmt></trkpt>
<trkpt lat="51.675211" lon="03.864013"><ele>2</ele><time>2021-01-07T13:32:26Z</time><cmt>0.0 kmh</cmt></trkpt>
<trkpt lat="51.675211" lon="03.864013"><ele>2</ele><time>2021-01-07T13:32:27Z</time><cmt>0.0 kmh</cmt></trkpt>
<trkpt lat="51.675210" lon="03.864012"><ele>2</ele><time>2021-01-07T13:32:28Z</time><cmt>0.3 kmh</cmt></trkpt>
<trkpt lat="51.675208" lon="03.864009"><ele>2</ele><time>2021-01-07T13:32:29Z</time><cmt>0.7 kmh</cmt></trkpt>
<trkpt lat="51.675206" lon="03.864007"><ele>2</ele><time>2021-01-07T13:32:30Z</time><cmt>0.9 kmh</cmt></trkpt>
<trkpt lat="51.675204" lon="03.864011"><ele>2</ele><time>2021-01-07T13:32:31Z</time><cmt>1.0 kmh</cmt></trkpt>
<trkpt lat="51.675203" lon="03.864013"><ele>2</ele><time>2021-01-07T13:32:32Z</time><cmt>1.0 kmh</cmt></trkpt>
<trkpt lat="51.675202" lon="03.864016"><ele>2</ele><time>2021-01-07T13:32:33Z</time><cmt>1.0 kmh</cmt></trkpt>
<trkpt lat="51.675201" lon="03.864018"><ele>2</ele><time>2021-01-07T13:32:34Z</time><cmt>0.9 kmh</cmt></trkpt>
<trkpt lat="51.675200" lon="03.864021"><ele>2</ele><time>2021-01-07T13:32:35Z</time><cmt>0.6 kmh</cmt></trkpt>
<trkpt lat="51.675199" lon="03.864023"><ele>3</ele><time>2021-01-07T13:32:36Z</time><cmt>0.6 kmh</cmt></trkpt>
<trkpt lat="51.675199" lon="03.864025"><ele>3</ele><time>2021-01-07T13:32:37Z</time><cmt>0.7 kmh</cmt></trkpt>
<trkpt lat="51.675199" lon="03.864029"><ele>3</ele><time>2021-01-07T13:32:38Z</time><cmt>0.8 kmh</cmt></trkpt>
<trkpt lat="51.675199" lon="03.864029"><ele>3</ele><time>2021-01-07T13:32:39Z</time><cmt>0.5 kmh</cmt></trkpt>
<trkpt lat="51.675200" lon="03.864029"><ele>3</ele><time>2021-01-07T13:32:40Z</time><cmt>0.0 kmh</cmt></trkpt>
<trkpt lat="51.675200" lon="03.864028"><ele>3</ele><time>2021-01-07T13:32:41Z</time><cmt>0.1 kmh</cmt></trkpt>
<trkpt lat="51.675200" lon="03.864026"><ele>4</ele><time>2021-01-07T13:32:42Z</time><cmt>0.4 kmh</cmt></trkpt>
<trkpt lat="51.675201" lon="03.864025"><ele>4</ele><time>2021-01-07T13:32:43Z</time><cmt>0.3 kmh</cmt></trkpt>
<trkpt lat="51.675201" lon="03.864024"><ele>4</ele><time>2021-01-07T13:32:44Z</time><cmt>0.0 kmh</cmt></trkpt>
<trkpt lat="51.675202" lon="03.864024"><ele>4</ele><time>2021-01-07T13:32:45Z</time><cmt>0.0 kmh</cmt></trkpt>
<trkpt lat="51.675202" lon="03.864023"><ele>4</ele><time>2021-01-07T13:32:46Z</time><cmt>0.0 kmh</cmt></trkpt>
<trkpt lat="51.675202" lon="03.864020"><ele>4</ele><time>2021-01-07T13:32:47Z</time><cmt>0.3 kmh</cmt></trkpt>
<trkpt lat="51.675201" lon="03.864019"><ele>4</ele><time>2021-01-07T13:32:48Z</time><cmt>0.4 kmh</cmt></trkpt>
<trkpt lat="51.675201" lon="03.864019"><ele>4</ele><time>2021-01-07T13:32:49Z</time><cmt>0.2 kmh</cmt></trkpt>
<trkpt lat="51.675201" lon="03.864018"><ele>4</ele><time>2021-01-07T13:32:50Z</time><cmt>0.0 kmh</cmt></trkpt>
<trkpt lat="51.675201" lon="03.864018"><ele>4</ele><time>2021-01-07T13:32:51Z</time><cmt>0.0 kmh</cmt></trkpt>
<trkpt lat="51.675200" lon="03.864018"><ele>4</ele><time>2021-01-07T13:32:52Z</time><cmt>0.0 kmh</cmt></trkpt>
<trkpt lat="51.675201" lon="03.864017"><ele>4</ele><time>2021-01-07T13:32:53Z</time><cmt>0.0 kmh</cmt></trkpt>
<trkpt lat="51.675202" lon="03.864018"><ele>4</ele><time>2021-01-07T13:32:54Z</time><cmt>0.1 kmh</cmt></trkpt>
<trkpt lat="51.675202" lon="03.864019"><ele>4</ele><time>2021-01-07T13:32:55Z</time><cmt>0.2 kmh</cmt></trkpt>
<trkpt lat="51.675203" lon="03.864018"><ele>4</ele><time>2021-01-07T13:32:56Z</time><cmt>0.0 kmh</cmt></trkpt>
<trkpt lat="51.675203" lon="03.864017"><ele>4</ele><time>2021-01-07T13:32:57Z</time><cmt>0.3 kmh</cmt></trkpt>
<trkpt lat="51.675202" lon="03.864017"><ele>4</ele><time>2021-01-07T13:32:58Z</time><cmt>0.4 kmh</cmt></trkpt>
<trkpt lat="51.675200" lon="03.864020"><ele>4</ele><time>2021-01-07T13:32:59Z</time><cmt>0.7 kmh</cmt></trkpt>
<trkpt lat="51.675197" lon="03.864024"><ele>4</ele><time>2021-01-07T13:33:00Z</time><cmt>1.1 kmh</cmt></trkpt>
<trkpt lat="51.675193" lon="03.864030"><ele>4</ele><time>2021-01-07T13:33:01Z</time><cmt>1.6 kmh</cmt></trkpt>
<trkpt lat="51.675189" lon="03.864037"><ele>4</ele><time>2021-01-07T13:33:02Z</time><cmt>2.3 kmh</cmt></trkpt>
<trkpt lat="51.675187" lon="03.864041"><ele>4</ele><time>2021-01-07T13:33:03Z</time><cmt>1.9 kmh</cmt></trkpt>
<trkpt lat="51.675186" lon="03.864042"><ele>4</ele><time>2021-01-07T13:33:04Z</time><cmt>1.0 kmh</cmt></trkpt>
<trkpt lat="51.675185" lon="03.864042"><ele>4</ele><time>2021-01-07T13:33:05Z</time><cmt>0.3 kmh</cmt></trkpt>
<trkpt lat="51.675184" lon="03.864042"><ele>4</ele><time>2021-01-07T13:33:06Z</time><cmt>0.0 kmh</cmt></trkpt>
<trkpt lat="51.675184" lon="03.864043"><ele>4</ele><time>2021-01-07T13:33:07Z</time><cmt>0.0 kmh</cmt></trkpt>
<trkpt lat="51.675184" lon="03.864043"><ele>4</ele><time>2021-01-07T13:33:08Z</time><cmt>0.0 kmh</cmt></trkpt>
<trkpt lat="51.675184" lon="03.864043"><ele>4</ele><time>2021-01-07T13:33:09Z</time><cmt>0.0 kmh</cmt></trkpt>
<trkpt lat="51.675183" lon="03.864043"><ele>4</ele><time>2021-01-07T13:33:10Z</time><cmt>0.0 kmh</cmt></trkpt>
<trkpt lat="51.675183" lon="03.864043"><ele>4</ele><time>2021-01-07T13:33:11Z</time><cmt>0.0 kmh</cmt></trkpt>
<trkpt lat="51.675183" lon="03.864043"><ele>4</ele><time>2021-01-07T13:33:12Z</time><cmt>0.0 kmh</cmt></trkpt>
<trkpt lat="51.675184" lon="03.864043"><ele>4</ele><time>2021-01-07T13:33:13Z</time><cmt>0.0 kmh</cmt></trkpt>
<trkpt lat="51.675184" lon="03.864043"><ele>4</ele><time>2021-01-07T13:33:14Z</time><cmt>0.0 kmh</cmt></trkpt>
<trkpt lat="51.675185" lon="03.864043"><ele>4</ele><time>2021-01-07T13:33:15Z</time><cmt>0.0 kmh</cmt></trkpt>
<trkpt lat="51.675185" lon="03.864042"><ele>4</ele><time>2021-01-07T13:33:16Z</time><cmt>0.0 kmh</cmt></trkpt>
<trkpt lat="51.675185" lon="03.864042"><ele>4</ele><time>2021-01-07T13:33:17Z</time><cmt>0.0 kmh</cmt></trkpt>
<trkpt lat="51.675185" lon="03.864042"><ele>4</ele><time>2021-01-07T13:33:18Z</time><cmt>0.0 kmh</cmt></trkpt>
<trkpt lat="51.675184" lon="03.864041"><ele>4</ele><time>2021-01-07T13:33:19Z</time><cmt>0.1 kmh</cmt></trkpt>
<trkpt lat="51.675184" lon="03.864042"><ele>4</ele><time>2021-01-07T13:33:20Z</time><cmt>0.1 kmh</cmt></trkpt>
<trkpt lat="51.675184" lon="03.864043"><ele>4</ele><time>2021-01-07T13:33:21Z</time><cmt>0.0 kmh</cmt></trkpt>
<trkpt lat="51.675184" lon="03.864043"><ele>4</ele><time>2021-01-07T13:33:22Z</time><cmt>0.0 kmh</cmt></trkpt>
<trkpt lat="51.675184" lon="03.864042"><ele>4</ele><time>2021-01-07T13:33:23Z</time><cmt>0.0 kmh</cmt></trkpt>
<trkpt lat="51.675184" lon="03.864042"><ele>4</ele><time>2021-01-07T13:33:24Z</time><cmt>0.0 kmh</cmt></trkpt>
<trkpt lat="51.675184" lon="03.864042"><ele>4</ele><time>2021-01-07T13:33:25Z</time><cmt>0.0 kmh</cmt></trkpt>
<trkpt lat="51.675183" lon="03.864042"><ele>4</ele><time>2021-01-07T13:33:26Z</time><cmt>0.0 kmh</cmt></trkpt>
<trkpt lat="51.675183" lon="03.864042"><ele>4</ele><time>2021-01-07T13:33:27Z</time><cmt>0.0 kmh</cmt></trkpt>
<trkpt lat="51.675183" lon="03.864041"><ele>4</ele><time>2021-01-07T13:33:28Z</time><cmt>0.0 kmh</cmt></trkpt>
<trkpt lat="51.675184" lon="03.864041"><ele>4</ele><time>2021-01-07T13:33:29Z</time><cmt>0.0 kmh</cmt></trkpt>
<trkpt lat="51.675184" lon="03.864040"><ele>4</ele><time>2021-01-07T13:33:30Z</time><cmt>0.0 kmh</cmt></trkpt>
<trkpt lat="51.675184" lon="03.864039"><ele>4</ele><time>2021-01-07T13:33:31Z</time><cmt>0.0 kmh</cmt></trkpt>
<trkpt lat="51.675184" lon="03.864039"><ele>4</ele><time>2021-01-07T13:33:32Z</time><cmt>0.0 kmh</cmt></trkpt>
<trkpt lat="51.675184" lon="03.864039"><ele>4</ele><time>2021-01-07T13:33:33Z</time><cmt>0.0 kmh</cmt></trkpt>
<trkpt lat="51.675184" lon="03.864039"><ele>4</ele><time>2021-01-07T13:33:34Z</time><cmt>0.0 kmh</cmt></trkpt>
<trkpt lat="51.675184" lon="03.864039"><ele>5</ele><time>2021-01-07T13:33:35Z</time><cmt>0.0 kmh</cmt></trkpt>
<trkpt lat="51.675184" lon="03.864039"><ele>5</ele><time>2021-01-07T13:33:36Z</time><cmt>0.0 kmh</cmt></trkpt>
<trkpt lat="51.675184" lon="03.864039"><ele>5</ele><time>2021-01-07T13:33:37Z</time><cmt>0.0 kmh</cmt></trkpt>
<trkpt lat="51.675184" lon="03.864038"><ele>5</ele><time>2021-01-07T13:33:38Z</time><cmt>0.0 kmh</cmt></trkpt>
<trkpt lat="51.675184" lon="03.864037"><ele>5</ele><time>2021-01-07T13:33:39Z</time><cmt>0.0 kmh</cmt></trkpt>
<trkpt lat="51.675185" lon="03.864037"><ele>5</ele><time>2021-01-07T13:33:40Z</time><cmt>0.0 kmh</cmt></trkpt>
<trkpt lat="51.675185" lon="03.864036"><ele>5</ele><time>2021-01-07T13:33:41Z</time><cmt>0.0 kmh</cmt></trkpt>
<trkpt lat="51.675185" lon="03.864035"><ele>5</ele><time>2021-01-07T13:33:42Z</time><cmt>0.0 kmh</cmt></trkpt>
<trkpt lat="51.675185" lon="03.864035"><ele>5</ele><time>2021-01-07T13:33:43Z</time><cmt>0.0 kmh</cmt></trkpt>
<trkpt lat="51.675185" lon="03.864034"><ele>5</ele><time>2021-01-07T13:33:44Z</time><cmt>0.0 kmh</cmt></trkpt>
<trkpt lat="51.675185" lon="03.864033"><ele>5</ele><time>2021-01-07T13:33:45Z</time><cmt>0.0 kmh</cmt></trkpt>
<trkpt lat="51.675185" lon="03.864032"><ele>5</ele><time>2021-01-07T13:33:46Z</time><cmt>0.0 kmh</cmt></trkpt>
<trkpt lat="51.675184" lon="03.864031"><ele>5</ele><time>2021-01-07T13:33:47Z</time><cmt>0.0 kmh</cmt></trkpt>
<trkpt lat="51.675184" lon="03.864031"><ele>5</ele><time>2021-01-07T13:33:48Z</time><cmt>0.0 kmh</cmt></trkpt>
<trkpt lat="51.675183" lon="03.864030"><ele>5</ele><time>2021-01-07T13:33:49Z</time><cmt>0.0 kmh</cmt></trkpt>
<trkpt lat="51.675183" lon="03.864030"><ele>5</ele><time>2021-01-07T13:33:50Z</time><cmt>0.0 kmh</cmt></trkpt>
<trkpt lat="51.675183" lon="03.864028"><ele>5</ele><time>2021-01-07T13:33:51Z</time><cmt>0.2 kmh</cmt></trkpt>
<trkpt lat="51.675184" lon="03.864027"><ele>5</ele><time>2021-01-07T13:33:52Z</time><cmt>0.2 kmh</cmt></trkpt>
<trkpt lat="51.675184" lon="03.864027"><ele>5</ele><time>2021-01-07T13:33:53Z</time><cmt>0.0 kmh</cmt></trkpt>
<trkpt lat="51.675184" lon="03.864027"><ele>5</ele><time>2021-01-07T13:33:54Z</time><cmt>0.0 kmh</cmt></trkpt>
<trkpt lat="51.675184" lon="03.864027"><ele>5</ele><time>2021-01-07T13:33:55Z</time><cmt>0.0 kmh</cmt></trkpt>
<trkpt lat="51.675184" lon="03.864027"><ele>5</ele><time>2021-01-07T13:33:56Z</time><cmt>0.0 kmh</cmt></trkpt>
<trkpt lat="51.675184" lon="03.864027"><ele>5</ele><time>2021-01-07T13:33:57Z</time><cmt>0.0 kmh</cmt></trkpt>
<trkpt lat="51.675184" lon="03.864027"><ele>5</ele><time>2021-01-07T13:33:58Z</time><cmt>0.0 kmh</cmt></trkpt>
<trkpt lat="51.675184" lon="03.864027"><ele>5</ele><time>2021-01-07T13:33:59Z</time><cmt>0.0 kmh</cmt></trkpt>
<trkpt lat="51.675184" lon="03.864027"><ele>5</ele><time>2021-01-07T13:34:00Z</time><cmt>0.0 kmh</cmt></trkpt>
<trkpt lat="51.675184" lon="03.864026"><ele>5</ele><time>2021-01-07T13:34:01Z</time><cmt>0.0 kmh</cmt></trkpt>
<trkpt lat="51.675185" lon="03.864026"><ele>5</ele><time>2021-01-07T13:34:02Z</time><cmt>0.0 kmh</cmt></trkpt>
<trkpt lat="51.675185" lon="03.864027"><ele>5</ele><time>2021-01-07T13:34:03Z</time><cmt>0.0 kmh</cmt></trkpt>
<trkpt lat="51.675184" lon="03.864027"><ele>5</ele><time>2021-01-07T13:34:04Z</time><cmt>0.0 kmh</cmt></trkpt>
<trkpt lat="51.675184" lon="03.864027"><ele>5</ele><time>2021-01-07T13:34:05Z</time><cmt>0.0 kmh</cmt></trkpt>
<trkpt lat="51.675183" lon="03.864027"><ele>5</ele><time>2021-01-07T13:34:06Z</time><cmt>0.0 kmh</cmt></trkpt>
<trkpt lat="51.675184" lon="03.864027"><ele>5</ele><time>2021-01-07T13:34:07Z</time><cmt>0.0 kmh</cmt></trkpt>
<trkpt lat="51.675184" lon="03.864027"><ele>5</ele><time>2021-01-07T13:34:08Z</time><cmt>0.0 kmh</cmt></trkpt>
<trkpt lat="51.675184" lon="03.864028"><ele>4</ele><time>2021-01-07T13:34:09Z</time><cmt>0.0 kmh</cmt></trkpt>
<trkpt lat="51.675184" lon="03.864029"><ele>4</ele><time>2021-01-07T13:34:10Z</time><cmt>0.0 kmh</cmt></trkpt>
<trkpt lat="51.675184" lon="03.864031"><ele>4</ele><time>2021-01-07T13:34:11Z</time><cmt>0.0 kmh</cmt></trkpt>
<trkpt lat="51.675184" lon="03.864031"><ele>4</ele><time>2021-01-07T13:34:12Z</time><cmt>0.0 kmh</cmt></trkpt>
<trkpt lat="51.675184" lon="03.864030"><ele>4</ele><time>2021-01-07T13:34:13Z</time><cmt>0.0 kmh</cmt></trkpt>
<trkpt lat="51.675183" lon="03.864030"><ele>4</ele><time>2021-01-07T13:34:14Z</time><cmt>0.0 kmh</cmt></trkpt>
<trkpt lat="51.675183" lon="03.864030"><ele>4</ele><time>2021-01-07T13:34:15Z</time><cmt>0.0 kmh</cmt></trkpt>
<trkpt lat="51.675183" lon="03.864029"><ele>4</ele><time>2021-01-07T13:34:16Z</time><cmt>0.0 kmh</cmt></trkpt>
<trkpt lat="51.675183" lon="03.864028"><ele>4</ele><time>2021-01-07T13:34:17Z</time><cmt>0.0 kmh</cmt></trkpt>
<trkpt lat="51.675183" lon="03.864028"><ele>4</ele><time>2021-01-07T13:34:18Z</time><cmt>0.0 kmh</cmt></trkpt>
<trkpt lat="51.675183" lon="03.864028"><ele>4</ele><time>2021-01-07T13:34:19Z</time><cmt>0.0 kmh</cmt></trkpt>
<trkpt lat="51.675184" lon="03.864028"><ele>4</ele><time>2021-01-07T13:34:20Z</time><cmt>0.0 kmh</cmt></trkpt>
<trkpt lat="51.675184" lon="03.864028"><ele>4</ele><time>2021-01-07T13:34:21Z</time><cmt>0.0 kmh</cmt></trkpt>
<trkpt lat="51.675184" lon="03.864028"><ele>4</ele><time>2021-01-07T13:34:23Z</time><cmt>0.0 kmh</cmt></trkpt>
<trkpt lat="51.675183" lon="03.864028"><ele>4</ele><time>2021-01-07T13:34:24Z</time><cmt>0.0 kmh</cmt></trkpt>
<trkpt lat="51.675183" lon="03.864030"><ele>3</ele><time>2021-01-07T13:34:25Z</time><cmt>0.3 kmh</cmt></trkpt>
<trkpt lat="51.675184" lon="03.864032"><ele>3</ele><time>2021-01-07T13:34:26Z</time><cmt>0.5 kmh</cmt></trkpt>
<trkpt lat="51.675183" lon="03.864034"><ele>3</ele><time>2021-01-07T13:34:27Z</time><cmt>0.5 kmh</cmt></trkpt>
<trkpt lat="51.675183" lon="03.864035"><ele>3</ele><time>2021-01-07T13:34:28Z</time><cmt>0.3 kmh</cmt></trkpt>
<trkpt lat="51.675183" lon="03.864036"><ele>3</ele><time>2021-01-07T13:34:29Z</time><cmt>0.0 kmh</cmt></trkpt>
<trkpt lat="51.675183" lon="03.864037"><ele>3</ele><time>2021-01-07T13:34:30Z</time><cmt>0.0 kmh</cmt></trkpt>
<trkpt lat="51.675183" lon="03.864038"><ele>4</ele><time>2021-01-07T13:34:31Z</time><cmt>0.0 kmh</cmt></trkpt>
<trkpt lat="51.675183" lon="03.864038"><ele>4</ele><time>2021-01-07T13:34:32Z</time><cmt>0.0 kmh</cmt></trkpt>
<trkpt lat="51.675183" lon="03.864039"><ele>4</ele><time>2021-01-07T13:34:33Z</time><cmt>0.0 kmh</cmt></trkpt>
<trkpt lat="51.675183" lon="03.864040"><ele>4</ele><time>2021-01-07T13:34:34Z</time><cmt>0.2 kmh</cmt></trkpt>
<trkpt lat="51.675182" lon="03.864044"><ele>4</ele><time>2021-01-07T13:34:35Z</time><cmt>0.7 kmh</cmt></trkpt>
<trkpt lat="51.675181" lon="03.864047"><ele>4</ele><time>2021-01-07T13:34:36Z</time><cmt>0.8 kmh</cmt></trkpt>
<trkpt lat="51.675181" lon="03.864048"><ele>4</ele><time>2021-01-07T13:34:37Z</time><cmt>0.4 kmh</cmt></trkpt>
<trkpt lat="51.675181" lon="03.864049"><ele>4</ele><time>2021-01-07T13:34:38Z</time><cmt>0.0 kmh</cmt></trkpt>
<trkpt lat="51.675179" lon="03.864051"><ele>4</ele><time>2021-01-07T13:34:39Z</time><cmt>0.3 kmh</cmt></trkpt>
<trkpt lat="51.675176" lon="03.864056"><ele>4</ele><time>2021-01-07T13:34:40Z</time><cmt>0.9 kmh</cmt></trkpt>
<trkpt lat="51.675171" lon="03.864061"><ele>4</ele><time>2021-01-07T13:34:41Z</time><cmt>2.2 kmh</cmt></trkpt>
<trkpt lat="51.675166" lon="03.864068"><ele>4</ele><time>2021-01-07T13:34:42Z</time><cmt>2.1 kmh</cmt></trkpt>
<trkpt lat="51.675161" lon="03.864077"><ele>4</ele><time>2021-01-07T13:34:43Z</time><cmt>2.5 kmh</cmt></trkpt>
<trkpt lat="51.675155" lon="03.864088"><ele>4</ele><time>2021-01-07T13:34:44Z</time><cmt>3.6 kmh</cmt></trkpt>
<trkpt lat="51.675151" lon="03.864100"><ele>4</ele><time>2021-01-07T13:34:45Z</time><cmt>3.8 kmh</cmt></trkpt>
<trkpt lat="51.675146" lon="03.864111"><ele>4</ele><time>2021-01-07T13:34:46Z</time><cmt>3.7 kmh</cmt></trkpt>
<trkpt lat="51.675141" lon="03.864122"><ele>4</ele><time>2021-01-07T13:34:47Z</time><cmt>3.6 kmh</cmt></trkpt>
<trkpt lat="51.675136" lon="03.864131"><ele>4</ele><time>2021-01-07T13:34:48Z</time><cmt>2.8 kmh</cmt></trkpt>
<trkpt lat="51.675133" lon="03.864138"><ele>4</ele><time>2021-01-07T13:34:49Z</time><cmt>2.3 kmh</cmt></trkpt>
<trkpt lat="51.675130" lon="03.864144"><ele>4</ele><time>2021-01-07T13:34:50Z</time><cmt>2.1 kmh</cmt></trkpt>
<trkpt lat="51.675128" lon="03.864149"><ele>4</ele><time>2021-01-07T13:34:51Z</time><cmt>1.8 kmh</cmt></trkpt>
<trkpt lat="51.675124" lon="03.864157"><ele>4</ele><time>2021-01-07T13:34:52Z</time><cmt>2.2 kmh</cmt></trkpt>
<trkpt lat="51.675119" lon="03.864168"><ele>4</ele><time>2021-01-07T13:34:53Z</time><cmt>3.0 kmh</cmt></trkpt>
<trkpt lat="51.675114" lon="03.864179"><ele>4</ele><time>2021-01-07T13:34:54Z</time><cmt>3.7 kmh</cmt></trkpt>
<trkpt lat="51.675109" lon="03.864191"><ele>4</ele><time>2021-01-07T13:34:55Z</time><cmt>3.1 kmh</cmt></trkpt>
<trkpt lat="51.675103" lon="03.864203"><ele>4</ele><time>2021-01-07T13:34:56Z</time><cmt>3.2 kmh</cmt></trkpt>
<trkpt lat="51.675097" lon="03.864214"><ele>3</ele><time>2021-01-07T13:34:57Z</time><cmt>4.0 kmh</cmt></trkpt>
<trkpt lat="51.675091" lon="03.864225"><ele>3</ele><time>2021-01-07T13:34:58Z</time><cmt>3.9 kmh</cmt></trkpt>
<trkpt lat="51.675086" lon="03.864236"><ele>3</ele><time>2021-01-07T13:34:59Z</time><cmt>3.7 kmh</cmt></trkpt>
<trkpt lat="51.675082" lon="03.864246"><ele>3</ele><time>2021-01-07T13:35:00Z</time><cmt>3.4 kmh</cmt></trkpt>
<trkpt lat="51.675079" lon="03.864253"><ele>3</ele><time>2021-01-07T13:35:01Z</time><cmt>2.2 kmh</cmt></trkpt>
<trkpt lat="51.675075" lon="03.864260"><ele>3</ele><time>2021-01-07T13:35:02Z</time><cmt>2.0 kmh</cmt></trkpt>
<trkpt lat="51.675069" lon="03.864271"><ele>3</ele><time>2021-01-07T13:35:03Z</time><cmt>3.3 kmh</cmt></trkpt>
<trkpt lat="51.675063" lon="03.864283"><ele>3</ele><time>2021-01-07T13:35:04Z</time><cmt>3.9 kmh</cmt></trkpt>
<trkpt lat="51.675058" lon="03.864299"><ele>3</ele><time>2021-01-07T13:35:05Z</time><cmt>4.4 kmh</cmt></trkpt>
<trkpt lat="51.675053" lon="03.864314"><ele>3</ele><time>2021-01-07T13:35:06Z</time><cmt>4.7 kmh</cmt></trkpt>
<trkpt lat="51.675047" lon="03.864326"><ele>2</ele><time>2021-01-07T13:35:07Z</time><cmt>3.6 kmh</cmt></trkpt>
<trkpt lat="51.675041" lon="03.864338"><ele>2</ele><time>2021-01-07T13:35:08Z</time><cmt>3.2 kmh</cmt></trkpt>
<trkpt lat="51.675034" lon="03.864350"><ele>2</ele><time>2021-01-07T13:35:09Z</time><cmt>4.1 kmh</cmt></trkpt>
<trkpt lat="51.675027" lon="03.864362"><ele>2</ele><time>2021-01-07T13:35:10Z</time><cmt>4.4 kmh</cmt></trkpt>
<trkpt lat="51.675020" lon="03.864375"><ele>2</ele><time>2021-01-07T13:35:11Z</time><cmt>4.6 kmh</cmt></trkpt>
<trkpt lat="51.675014" lon="03.864389"><ele>2</ele><time>2021-01-07T13:35:12Z</time><cmt>4.6 kmh</cmt></trkpt>
<trkpt lat="51.675008" lon="03.864404"><ele>2</ele><time>2021-01-07T13:35:13Z</time><cmt>4.6 kmh</cmt></trkpt>
<trkpt lat="51.675003" lon="03.864417"><ele>2</ele><time>2021-01-07T13:35:14Z</time><cmt>3.6 kmh</cmt></trkpt>
<trkpt lat="51.674997" lon="03.864431"><ele>2</ele><time>2021-01-07T13:35:15Z</time><cmt>3.5 kmh</cmt></trkpt>
<trkpt lat="51.674990" lon="03.864446"><ele>2</ele><time>2021-01-07T13:35:16Z</time><cmt>4.8 kmh</cmt></trkpt>
<trkpt lat="51.674983" lon="03.864460"><ele>2</ele><time>2021-01-07T13:35:17Z</time><cmt>4.8 kmh</cmt></trkpt>
<trkpt lat="51.674976" lon="03.864474"><ele>2</ele><time>2021-01-07T13:35:18Z</time><cmt>4.7 kmh</cmt></trkpt>
<trkpt lat="51.674969" lon="03.864488"><ele>2</ele><time>2021-01-07T13:35:19Z</time><cmt>4.8 kmh</cmt></trkpt>
<trkpt lat="51.674962" lon="03.864502"><ele>2</ele><time>2021-01-07T13:35:20Z</time><cmt>3.9 kmh</cmt></trkpt>
<trkpt lat="51.674956" lon="03.864516"><ele>3</ele><time>2021-01-07T13:35:21Z</time><cmt>3.8 kmh</cmt></trkpt>
<trkpt lat="51.674949" lon="03.864530"><ele>3</ele><time>2021-01-07T13:35:22Z</time><cmt>4.7 kmh</cmt></trkpt>
<trkpt lat="51.674942" lon="03.864543"><ele>3</ele><time>2021-01-07T13:35:23Z</time><cmt>4.7 kmh</cmt></trkpt>
<trkpt lat="51.674935" lon="03.864557"><ele>3</ele><time>2021-01-07T13:35:24Z</time><cmt>4.6 kmh</cmt></trkpt>
<trkpt lat="51.674929" lon="03.864570"><ele>3</ele><time>2021-01-07T13:35:25Z</time><cmt>4.6 kmh</cmt></trkpt>
<trkpt lat="51.674922" lon="03.864584"><ele>3</ele><time>2021-01-07T13:35:26Z</time><cmt>4.7 kmh</cmt></trkpt>
<trkpt lat="51.674916" lon="03.864598"><ele>3</ele><time>2021-01-07T13:35:27Z</time><cmt>3.7 kmh</cmt></trkpt>
<trkpt lat="51.674911" lon="03.864610"><ele>3</ele><time>2021-01-07T13:35:28Z</time><cmt>3.4 kmh</cmt></trkpt>
<trkpt lat="51.674902" lon="03.864624"><ele>3</ele><time>2021-01-07T13:35:29Z</time><cmt>5.2 kmh</cmt></trkpt>
<trkpt lat="51.674894" lon="03.864640"><ele>3</ele><time>2021-01-07T13:35:30Z</time><cmt>5.2 kmh</cmt></trkpt>
<trkpt lat="51.674886" lon="03.864656"><ele>3</ele><time>2021-01-07T13:35:31Z</time><cmt>5.0 kmh</cmt></trkpt>
<trkpt lat="51.674878" lon="03.864668"><ele>3</ele><time>2021-01-07T13:35:32Z</time><cmt>5.0 kmh</cmt></trkpt>
<trkpt lat="51.674870" lon="03.864682"><ele>3</ele><time>2021-01-07T13:35:33Z</time><cmt>3.9 kmh</cmt></trkpt>
<trkpt lat="51.674863" lon="03.864697"><ele>3</ele><time>2021-01-07T13:35:34Z</time><cmt>4.1 kmh</cmt></trkpt>
<trkpt lat="51.674856" lon="03.864711"><ele>3</ele><time>2021-01-07T13:35:35Z</time><cmt>5.0 kmh</cmt></trkpt>
<trkpt lat="51.674851" lon="03.864725"><ele>3</ele><time>2021-01-07T13:35:36Z</time><cmt>4.7 kmh</cmt></trkpt>
<trkpt lat="51.674845" lon="03.864739"><ele>3</ele><time>2021-01-07T13:35:37Z</time><cmt>4.5 kmh</cmt></trkpt>
<trkpt lat="51.674840" lon="03.864752"><ele>3</ele><time>2021-01-07T13:35:38Z</time><cmt>4.3 kmh</cmt></trkpt>
<trkpt lat="51.674830" lon="03.864768"><ele>3</ele><time>2021-01-07T13:35:39Z</time><cmt>4.0 kmh</cmt></trkpt>
<trkpt lat="51.674822" lon="03.864782"><ele>3</ele><time>2021-01-07T13:35:40Z</time><cmt>4.4 kmh</cmt></trkpt>
<trkpt lat="51.674815" lon="03.864796"><ele>3</ele><time>2021-01-07T13:35:41Z</time><cmt>4.9 kmh</cmt></trkpt>
<trkpt lat="51.674808" lon="03.864814"><ele>3</ele><time>2021-01-07T13:35:42Z</time><cmt>5.0 kmh</cmt></trkpt>
<trkpt lat="51.674804" lon="03.864829"><ele>3</ele><time>2021-01-07T13:35:43Z</time><cmt>5.0 kmh</cmt></trkpt>
<trkpt lat="51.674798" lon="03.864847"><ele>3</ele><time>2021-01-07T13:35:44Z</time><cmt>4.9 kmh</cmt></trkpt>
<trkpt lat="51.674791" lon="03.864864"><ele>3</ele><time>2021-01-07T13:35:45Z</time><cmt>5.0 kmh</cmt></trkpt>
<trkpt lat="51.674783" lon="03.864882"><ele>3</ele><time>2021-01-07T13:35:46Z</time><cmt>4.5 kmh</cmt></trkpt>
<trkpt lat="51.674776" lon="03.864899"><ele>3</ele><time>2021-01-07T13:35:47Z</time><cmt>4.5 kmh</cmt></trkpt>
<trkpt lat="51.674770" lon="03.864919"><ele>3</ele><time>2021-01-07T13:35:48Z</time><cmt>5.0 kmh</cmt></trkpt>
<trkpt lat="51.674762" lon="03.864937"><ele>4</ele><time>2021-01-07T13:35:49Z</time><cmt>5.0 kmh</cmt></trkpt>
<trkpt lat="51.674755" lon="03.864955"><ele>4</ele><time>2021-01-07T13:35:50Z</time><cmt>5.0 kmh</cmt></trkpt>
<trkpt lat="51.674748" lon="03.864971"><ele>4</ele><time>2021-01-07T13:35:51Z</time><cmt>5.0 kmh</cmt></trkpt>
<trkpt lat="51.674742" lon="03.864988"><ele>4</ele><time>2021-01-07T13:35:52Z</time><cmt>4.3 kmh</cmt></trkpt>
<trkpt lat="51.674735" lon="03.865004"><ele>4</ele><time>2021-01-07T13:35:53Z</time><cmt>4.2 kmh</cmt></trkpt>
<trkpt lat="51.674728" lon="03.865019"><ele>4</ele><time>2021-01-07T13:35:54Z</time><cmt>5.0 kmh</cmt></trkpt>
<trkpt lat="51.674721" lon="03.865035"><ele>4</ele><time>2021-01-07T13:35:55Z</time><cmt>5.0 kmh</cmt></trkpt>
<trkpt lat="51.674714" lon="03.865051"><ele>4</ele><time>2021-01-07T13:35:56Z</time><cmt>5.0 kmh</cmt></trkpt>
<trkpt lat="51.674707" lon="03.865068"><ele>4</ele><time>2021-01-07T13:35:57Z</time><cmt>5.0 kmh</cmt></trkpt>
<trkpt lat="51.674701" lon="03.865084"><ele>4</ele><time>2021-01-07T13:35:58Z</time><cmt>4.2 kmh</cmt></trkpt>
<trkpt lat="51.674694" lon="03.865100"><ele>4</ele><time>2021-01-07T13:35:59Z</time><cmt>4.2 kmh</cmt></trkpt>
<trkpt lat="51.674687" lon="03.865115"><ele>4</ele><time>2021-01-07T13:36:00Z</time><cmt>5.0 kmh</cmt></trkpt>
<trkpt lat="51.674681" lon="03.865130"><ele>4</ele><time>2021-01-07T13:36:01Z</time><cmt>5.0 kmh</cmt></trkpt>
<trkpt lat="51.674674" lon="03.865144"><ele>4</ele><time>2021-01-07T13:36:02Z</time><cmt>4.7 kmh</cmt></trkpt>
<trkpt lat="51.674668" lon="03.865157"><ele>4</ele><time>2021-01-07T13:36:03Z</time><cmt>4.6 kmh</cmt></trkpt>
<trkpt lat="51.674660" lon="03.865168"><ele>4</ele><time>2021-01-07T13:36:04Z</time><cmt>4.5 kmh</cmt></trkpt>
<trkpt lat="51.674651" lon="03.865178"><ele>4</ele><time>2021-01-07T13:36:05Z</time><cmt>3.7 kmh</cmt></trkpt>
<trkpt lat="51.674641" lon="03.865188"><ele>4</ele><time>2021-01-07T13:36:06Z</time><cmt>3.9 kmh</cmt></trkpt>
<trkpt lat="51.674632" lon="03.865198"><ele>3</ele><time>2021-01-07T13:36:07Z</time><cmt>4.8 kmh</cmt></trkpt>
<trkpt lat="51.674623" lon="03.865208"><ele>3</ele><time>2021-01-07T13:36:08Z</time><cmt>4.6 kmh</cmt></trkpt>
<trkpt lat="51.674614" lon="03.865218"><ele>3</ele><time>2021-01-07T13:36:09Z</time><cmt>4.7 kmh</cmt></trkpt>
<trkpt lat="51.674604" lon="03.865227"><ele>3</ele><time>2021-01-07T13:36:10Z</time><cmt>4.8 kmh</cmt></trkpt>
<trkpt lat="51.674595" lon="03.865237"><ele>3</ele><time>2021-01-07T13:36:11Z</time><cmt>3.9 kmh</cmt></trkpt>
<trkpt lat="51.674586" lon="03.865246"><ele>3</ele><time>2021-01-07T13:36:12Z</time><cmt>3.8 kmh</cmt></trkpt>
<trkpt lat="51.674576" lon="03.865256"><ele>3</ele><time>2021-01-07T13:36:13Z</time><cmt>4.7 kmh</cmt></trkpt>
<trkpt lat="51.674565" lon="03.865264"><ele>3</ele><time>2021-01-07T13:36:14Z</time><cmt>5.0 kmh</cmt></trkpt>
<trkpt lat="51.674555" lon="03.865272"><ele>3</ele><time>2021-01-07T13:36:15Z</time><cmt>5.0 kmh</cmt></trkpt>
<trkpt lat="51.674545" lon="03.865278"><ele>3</ele><time>2021-01-07T13:36:16Z</time><cmt>4.8 kmh</cmt></trkpt>
<trkpt lat="51.674534" lon="03.865282"><ele>3</ele><time>2021-01-07T13:36:17Z</time><cmt>3.9 kmh</cmt></trkpt>
<trkpt lat="51.674522" lon="03.865287"><ele>3</ele><time>2021-01-07T13:36:18Z</time><cmt>4.1 kmh</cmt></trkpt>
<trkpt lat="51.674511" lon="03.865292"><ele>3</ele><time>2021-01-07T13:36:19Z</time><cmt>5.0 kmh</cmt></trkpt>
<trkpt lat="51.674499" lon="03.865297"><ele>3</ele><time>2021-01-07T13:36:20Z</time><cmt>5.0 kmh</cmt></trkpt>
<trkpt lat="51.674487" lon="03.865301"><ele>3</ele><time>2021-01-07T13:36:21Z</time><cmt>5.0 kmh</cmt></trkpt>
<trkpt lat="51.674475" lon="03.865305"><ele>3</ele><time>2021-01-07T13:36:22Z</time><cmt>5.0 kmh</cmt></trkpt>
<trkpt lat="51.674464" lon="03.865310"><ele>3</ele><time>2021-01-07T13:36:23Z</time><cmt>5.0 kmh</cmt></trkpt>
<trkpt lat="51.674452" lon="03.865315"><ele>3</ele><time>2021-01-07T13:36:24Z</time><cmt>4.2 kmh</cmt></trkpt>
<trkpt lat="51.674440" lon="03.865319"><ele>3</ele><time>2021-01-07T13:36:25Z</time><cmt>4.2 kmh</cmt></trkpt>
<trkpt lat="51.674428" lon="03.865323"><ele>3</ele><time>2021-01-07T13:36:26Z</time><cmt>5.0 kmh</cmt></trkpt>
<trkpt lat="51.674415" lon="03.865327"><ele>3</ele><time>2021-01-07T13:36:27Z</time><cmt>5.0 kmh</cmt></trkpt>
<trkpt lat="51.674403" lon="03.865331"><ele>3</ele><time>2021-01-07T13:36:28Z</time><cmt>5.0 kmh</cmt></trkpt>
<trkpt lat="51.674390" lon="03.865337"><ele>2</ele><time>2021-01-07T13:36:29Z</time><cmt>5.0 kmh</cmt></trkpt>
<trkpt lat="51.674378" lon="03.865343"><ele>2</ele><time>2021-01-07T13:36:30Z</time><cmt>4.4 kmh</cmt></trkpt>
<trkpt lat="51.674367" lon="03.865349"><ele>2</ele><time>2021-01-07T13:36:31Z</time><cmt>4.3 kmh</cmt></trkpt>
<trkpt lat="51.674355" lon="03.865353"><ele>2</ele><time>2021-01-07T13:36:32Z</time><cmt>5.0 kmh</cmt></trkpt>
<trkpt lat="51.674343" lon="03.865358"><ele>2</ele><time>2021-01-07T13:36:33Z</time><cmt>5.0 kmh</cmt></trkpt>
<trkpt lat="51.674332" lon="03.865365"><ele>2</ele><time>2021-01-07T13:36:34Z</time><cmt>5.0 kmh</cmt></trkpt>
<trkpt lat="51.674320" lon="03.865374"><ele>2</ele><time>2021-01-07T13:36:35Z</time><cmt>5.0 kmh</cmt></trkpt>
<trkpt lat="51.674309" lon="03.865384"><ele>2</ele><time>2021-01-07T13:36:36Z</time><cmt>5.0 kmh</cmt></trkpt>
<trkpt lat="51.674299" lon="03.865394"><ele>2</ele><time>2021-01-07T13:36:37Z</time><cmt>4.3 kmh</cmt></trkpt>
<trkpt lat="51.674288" lon="03.865402"><ele>2</ele><time>2021-01-07T13:36:38Z</time><cmt>4.2 kmh</cmt></trkpt>
<trkpt lat="51.674277" lon="03.865410"><ele>1</ele><time>2021-01-07T13:36:39Z</time><cmt>5.0 kmh</cmt></trkpt>
<trkpt lat="51.674267" lon="03.865418"><ele>1</ele><time>2021-01-07T13:36:40Z</time><cmt>5.0 kmh</cmt></trkpt>
<trkpt lat="51.674257" lon="03.865427"><ele>1</ele><time>2021-01-07T13:36:41Z</time><cmt>4.9 kmh</cmt></trkpt>
<trkpt lat="51.674248" lon="03.865438"><ele>1</ele><time>2021-01-07T13:36:42Z</time><cmt>4.8 kmh</cmt></trkpt>
<trkpt lat="51.674239" lon="03.865448"><ele>1</ele><time>2021-01-07T13:36:43Z</time><cmt>3.9 kmh</cmt></trkpt>
<trkpt lat="51.674230" lon="03.865459"><ele>1</ele><time>2021-01-07T13:36:44Z</time><cmt>3.8 kmh</cmt></trkpt>
<trkpt lat="51.674222" lon="03.865470"><ele>1</ele><time>2021-01-07T13:36:45Z</time><cmt>4.8 kmh</cmt></trkpt>
<trkpt lat="51.674213" lon="03.865481"><ele>0</ele><time>2021-01-07T13:36:46Z</time><cmt>4.8 kmh</cmt></trkpt>
<trkpt lat="51.674204" lon="03.865493"><ele>0</ele><time>2021-01-07T13:36:47Z</time><cmt>4.9 kmh</cmt></trkpt>
<trkpt lat="51.674196" lon="03.865507"><ele>0</ele><time>2021-01-07T13:36:48Z</time><cmt>5.0 kmh</cmt></trkpt>
<trkpt lat="51.674188" lon="03.865521"><ele>0</ele><time>2021-01-07T13:36:49Z</time><cmt>4.1 kmh</cmt></trkpt>
<trkpt lat="51.674180" lon="03.865535"><ele>0</ele><time>2021-01-07T13:36:50Z</time><cmt>4.0 kmh</cmt></trkpt>
<trkpt lat="51.674173" lon="03.865549"><ele>0</ele><time>2021-01-07T13:36:51Z</time><cmt>4.9 kmh</cmt></trkpt>
<trkpt lat="51.674165" lon="03.865563"><ele>0</ele><time>2021-01-07T13:36:52Z</time><cmt>4.9 kmh</cmt></trkpt>
<trkpt lat="51.674158" lon="03.865577"><ele>0</ele><time>2021-01-07T13:36:53Z</time><cmt>4.9 kmh</cmt></trkpt>
<trkpt lat="51.674152" lon="03.865592"><ele>0</ele><time>2021-01-07T13:36:54Z</time><cmt>4.8 kmh</cmt></trkpt>
<trkpt lat="51.674147" lon="03.865607"><ele>0</ele><time>2021-01-07T13:36:55Z</time><cmt>4.7 kmh</cmt></trkpt>
<trkpt lat="51.674141" lon="03.865622"><ele>0</ele><time>2021-01-07T13:36:56Z</time><cmt>3.7 kmh</cmt></trkpt>
<trkpt lat="51.674136" lon="03.865637"><ele>0</ele><time>2021-01-07T13:36:57Z</time><cmt>3.7 kmh</cmt></trkpt>
<trkpt lat="51.674131" lon="03.865651"><ele>0</ele><time>2021-01-07T13:36:58Z</time><cmt>4.5 kmh</cmt></trkpt>
<trkpt lat="51.674126" lon="03.865667"><ele>0</ele><time>2021-01-07T13:36:59Z</time><cmt>4.6 kmh</cmt></trkpt>
<trkpt lat="51.674121" lon="03.865681"><ele>0</ele><time>2021-01-07T13:37:00Z</time><cmt>4.6 kmh</cmt></trkpt>
<trkpt lat="51.674115" lon="03.865697"><ele>0</ele><time>2021-01-07T13:37:01Z</time><cmt>4.7 kmh</cmt></trkpt>
<trkpt lat="51.674111" lon="03.865712"><ele>0</ele><time>2021-01-07T13:37:02Z</time><cmt>3.7 kmh</cmt></trkpt>
<trkpt lat="51.674106" lon="03.865727"><ele>0</ele><time>2021-01-07T13:37:03Z</time><cmt>3.6 kmh</cmt></trkpt>
<trkpt lat="51.674102" lon="03.865740"><ele>0</ele><time>2021-01-07T13:37:04Z</time><cmt>4.3 kmh</cmt></trkpt>
<trkpt lat="51.674097" lon="03.865755"><ele>0</ele><time>2021-01-07T13:37:05Z</time><cmt>4.2 kmh</cmt></trkpt>
<trkpt lat="51.674093" lon="03.865769"><ele>0</ele><time>2021-01-07T13:37:06Z</time><cmt>4.3 kmh</cmt></trkpt>
<trkpt lat="51.674090" lon="03.865784"><ele>0</ele><time>2021-01-07T13:37:07Z</time><cmt>4.1 kmh</cmt></trkpt>
<trkpt lat="51.674089" lon="03.865792"><ele>0</ele><time>2021-01-07T13:37:08Z</time><cmt>2.6 kmh</cmt></trkpt>
<trkpt lat="51.674088" lon="03.865795"><ele>0</ele><time>2021-01-07T13:37:09Z</time><cmt>1.3 kmh</cmt></trkpt>
<trkpt lat="51.674088" lon="03.865795"><ele>0</ele><time>2021-01-07T13:37:10Z</time><cmt>0.5 kmh</cmt></trkpt>
<trkpt lat="51.674088" lon="03.865797"><ele>0</ele><time>2021-01-07T13:37:11Z</time><cmt>0.0 kmh</cmt></trkpt>
<trkpt lat="51.674088" lon="03.865799"><ele>0</ele><time>2021-01-07T13:37:12Z</time><cmt>0.4 kmh</cmt></trkpt>
<trkpt lat="51.674089" lon="03.865801"><ele>0</ele><time>2021-01-07T13:37:13Z</time><cmt>0.4 kmh</cmt></trkpt>
<trkpt lat="51.674090" lon="03.865801"><ele>0</ele><time>2021-01-07T13:37:14Z</time><cmt>0.2 kmh</cmt></trkpt>
<trkpt lat="51.674091" lon="03.865801"><ele>0</ele><time>2021-01-07T13:37:15Z</time><cmt>0.4 kmh</cmt></trkpt>
<trkpt lat="51.674092" lon="03.865801"><ele>0</ele><time>2021-01-07T13:37:16Z</time><cmt>0.4 kmh</cmt></trkpt>
<trkpt lat="51.674092" lon="03.865803"><ele>0</ele><time>2021-01-07T13:37:17Z</time><cmt>0.6 kmh</cmt></trkpt>
<trkpt lat="51.674091" lon="03.865810"><ele>0</ele><time>2021-01-07T13:37:18Z</time><cmt>1.2 kmh</cmt></trkpt>
<trkpt lat="51.674090" lon="03.865819"><ele>0</ele><time>2021-01-07T13:37:19Z</time><cmt>2.1 kmh</cmt></trkpt>
<trkpt lat="51.674089" lon="03.865831"><ele>0</ele><time>2021-01-07T13:37:20Z</time><cmt>2.8 kmh</cmt></trkpt>
<trkpt lat="51.674088" lon="03.865845"><ele>0</ele><time>2021-01-07T13:37:21Z</time><cmt>2.7 kmh</cmt></trkpt>
<trkpt lat="51.674087" lon="03.865857"><ele>0</ele><time>2021-01-07T13:37:22Z</time><cmt>2.9 kmh</cmt></trkpt>
<trkpt lat="51.674086" lon="03.865871"><ele>0</ele><time>2021-01-07T13:37:23Z</time><cmt>3.6 kmh</cmt></trkpt>
<trkpt lat="51.674086" lon="03.865887"><ele>0</ele><time>2021-01-07T13:37:24Z</time><cmt>4.0 kmh</cmt></trkpt>
<trkpt lat="51.674085" lon="03.865904"><ele>0</ele><time>2021-01-07T13:37:25Z</time><cmt>4.4 kmh</cmt></trkpt>
<trkpt lat="51.674085" lon="03.865919"><ele>0</ele><time>2021-01-07T13:37:26Z</time><cmt>4.3 kmh</cmt></trkpt>
<trkpt lat="51.674084" lon="03.865934"><ele>0</ele><time>2021-01-07T13:37:27Z</time><cmt>3.3 kmh</cmt></trkpt>
<trkpt lat="51.674084" lon="03.865953"><ele>0</ele><time>2021-01-07T13:37:28Z</time><cmt>3.6 kmh</cmt></trkpt>
<trkpt lat="51.674084" lon="03.865972"><ele>0</ele><time>2021-01-07T13:37:29Z</time><cmt>5.0 kmh</cmt></trkpt>
<trkpt lat="51.674084" lon="03.865991"><ele>0</ele><time>2021-01-07T13:37:30Z</time><cmt>5.0 kmh</cmt></trkpt>
<trkpt lat="51.674085" lon="03.866011"><ele>0</ele><time>2021-01-07T13:37:31Z</time><cmt>5.0 kmh</cmt></trkpt>
<trkpt lat="51.674085" lon="03.866028"><ele>0</ele><time>2021-01-07T13:37:32Z</time><cmt>5.0 kmh</cmt></trkpt>
<trkpt lat="51.674086" lon="03.866047"><ele>0</ele><time>2021-01-07T13:37:33Z</time><cmt>4.9 kmh</cmt></trkpt>
<trkpt lat="51.674088" lon="03.866066"><ele>0</ele><time>2021-01-07T13:37:34Z</time><cmt>4.1 kmh</cmt></trkpt>
<trkpt lat="51.674089" lon="03.866086"><ele>0</ele><time>2021-01-07T13:37:35Z</time><cmt>4.2 kmh</cmt></trkpt>
<trkpt lat="51.674090" lon="03.866105"><ele>0</ele><time>2021-01-07T13:37:36Z</time><cmt>5.0 kmh</cmt></trkpt>
<trkpt lat="51.674091" lon="03.866125"><ele>0</ele><time>2021-01-07T13:37:37Z</time><cmt>5.0 kmh</cmt></trkpt>
<trkpt lat="51.674092" lon="03.866144"><ele>0</ele><time>2021-01-07T13:37:38Z</time><cmt>5.0 kmh</cmt></trkpt>
<trkpt lat="51.674094" lon="03.866164"><ele>0</ele><time>2021-01-07T13:37:39Z</time><cmt>5.0 kmh</cmt></trkpt>
<trkpt lat="51.674095" lon="03.866183"><ele>0</ele><time>2021-01-07T13:37:40Z</time><cmt>4.3 kmh</cmt></trkpt>
<trkpt lat="51.674096" lon="03.866201"><ele>0</ele><time>2021-01-07T13:37:41Z</time><cmt>4.1 kmh</cmt></trkpt>
<trkpt lat="51.674097" lon="03.866217"><ele>0</ele><time>2021-01-07T13:37:42Z</time><cmt>4.6 kmh</cmt></trkpt>
<trkpt lat="51.674097" lon="03.866231"><ele>0</ele><time>2021-01-07T13:37:43Z</time><cmt>4.0 kmh</cmt></trkpt>
<trkpt lat="51.674098" lon="03.866240"><ele>0</ele><time>2021-01-07T13:37:44Z</time><cmt>3.1 kmh</cmt></trkpt>
<trkpt lat="51.674098" lon="03.866246"><ele>0</ele><time>2021-01-07T13:37:45Z</time><cmt>2.0 kmh</cmt></trkpt>
<trkpt lat="51.674098" lon="03.866248"><ele>0</ele><time>2021-01-07T13:37:46Z</time><cmt>0.8 kmh</cmt></trkpt>
<trkpt lat="51.674098" lon="03.866248"><ele>0</ele><time>2021-01-07T13:37:47Z</time><cmt>0.2 kmh</cmt></trkpt>
<trkpt lat="51.674098" lon="03.866248"><ele>0</ele><time>2021-01-07T13:37:48Z</time><cmt>0.0 kmh</cmt></trkpt>
<trkpt lat="51.674098" lon="03.866247"><ele>0</ele><time>2021-01-07T13:37:49Z</time><cmt>0.0 kmh</cmt></trkpt>
<trkpt lat="51.674096" lon="03.866245"><ele>0</ele><time>2021-01-07T13:37:50Z</time><cmt>0.4 kmh</cmt></trkpt>
<trkpt lat="51.674096" lon="03.866245"><ele>0</ele><time>2021-01-07T13:37:51Z</time><cmt>0.6 kmh</cmt></trkpt>
<trkpt lat="51.674096" lon="03.866247"><ele>0</ele><time>2021-01-07T13:37:52Z</time><cmt>0.4 kmh</cmt></trkpt>
<trkpt lat="51.674095" lon="03.866249"><ele>0</ele><time>2021-01-07T13:37:53Z</time><cmt>0.4 kmh</cmt></trkpt>
<trkpt lat="51.674094" lon="03.866250"><ele>0</ele><time>2021-01-07T13:37:54Z</time><cmt>0.4 kmh</cmt></trkpt>
<trkpt lat="51.674093" lon="03.866250"><ele>0</ele><time>2021-01-07T13:37:55Z</time><cmt>0.4 kmh</cmt></trkpt>
<trkpt lat="51.674093" lon="03.866251"><ele>0</ele><time>2021-01-07T13:37:56Z</time><cmt>0.4 kmh</cmt></trkpt>
<trkpt lat="51.674092" lon="03.866251"><ele>0</ele><time>2021-01-07T13:37:57Z</time><cmt>0.2 kmh</cmt></trkpt>
<trkpt lat="51.674091" lon="03.866252"><ele>0</ele><time>2021-01-07T13:37:58Z</time><cmt>0.0 kmh</cmt></trkpt>
<trkpt lat="51.674091" lon="03.866252"><ele>0</ele><time>2021-01-07T13:37:59Z</time><cmt>0.0 kmh</cmt></trkpt>
<trkpt lat="51.674092" lon="03.866253"><ele>0</ele><time>2021-01-07T13:38:00Z</time><cmt>0.2 kmh</cmt></trkpt>
<trkpt lat="51.674092" lon="03.866255"><ele>0</ele><time>2021-01-07T13:38:01Z</time><cmt>0.5 kmh</cmt></trkpt>
<trkpt lat="51.674092" lon="03.866255"><ele>0</ele><time>2021-01-07T13:38:02Z</time><cmt>0.3 kmh</cmt></trkpt>
<trkpt lat="51.674091" lon="03.866256"><ele>0</ele><time>2021-01-07T13:38:03Z</time><cmt>0.4 kmh</cmt></trkpt>
<trkpt lat="51.674089" lon="03.866261"><ele>0</ele><time>2021-01-07T13:38:04Z</time><cmt>0.8 kmh</cmt></trkpt>
<trkpt lat="51.674088" lon="03.866271"><ele>0</ele><time>2021-01-07T13:38:05Z</time><cmt>1.7 kmh</cmt></trkpt>
<trkpt lat="51.674087" lon="03.866279"><ele>0</ele><time>2021-01-07T13:38:06Z</time><cmt>2.0 kmh</cmt></trkpt>
<trkpt lat="51.674086" lon="03.866284"><ele>0</ele><time>2021-01-07T13:38:07Z</time><cmt>1.9 kmh</cmt></trkpt>
<trkpt lat="51.674084" lon="03.866287"><ele>0</ele><time>2021-01-07T13:38:08Z</time><cmt>1.1 kmh</cmt></trkpt>
<trkpt lat="51.674083" lon="03.866287"><ele>0</ele><time>2021-01-07T13:38:09Z</time><cmt>0.5 kmh</cmt></trkpt>
<trkpt lat="51.674083" lon="03.866287"><ele>0</ele><time>2021-01-07T13:38:10Z</time><cmt>0.0 kmh</cmt></trkpt>
<trkpt lat="51.674082" lon="03.866288"><ele>0</ele><time>2021-01-07T13:38:11Z</time><cmt>0.0 kmh</cmt></trkpt>
<trkpt lat="51.674082" lon="03.866288"><ele>0</ele><time>2021-01-07T13:38:12Z</time><cmt>0.2 kmh</cmt></trkpt>
<trkpt lat="51.674081" lon="03.866288"><ele>0</ele><time>2021-01-07T13:38:13Z</time><cmt>0.4 kmh</cmt></trkpt>
<trkpt lat="51.674080" lon="03.866288"><ele>0</ele><time>2021-01-07T13:38:14Z</time><cmt>0.3 kmh</cmt></trkpt>
<trkpt lat="51.674079" lon="03.866288"><ele>0</ele><time>2021-01-07T13:38:15Z</time><cmt>0.2 kmh</cmt></trkpt>
<trkpt lat="51.674078" lon="03.866289"><ele>0</ele><time>2021-01-07T13:38:16Z</time><cmt>0.6 kmh</cmt></trkpt>
<trkpt lat="51.674077" lon="03.866289"><ele>0</ele><time>2021-01-07T13:38:17Z</time><cmt>0.4 kmh</cmt></trkpt>
<trkpt lat="51.674077" lon="03.866289"><ele>0</ele><time>2021-01-07T13:38:18Z</time><cmt>0.0 kmh</cmt></trkpt>
<trkpt lat="51.674076" lon="03.866290"><ele>0</ele><time>2021-01-07T13:38:19Z</time><cmt>0.0 kmh</cmt></trkpt>
<trkpt lat="51.674076" lon="03.866290"><ele>0</ele><time>2021-01-07T13:38:20Z</time><cmt>0.0 kmh</cmt></trkpt>
<trkpt lat="51.674076" lon="03.866290"><ele>0</ele><time>2021-01-07T13:38:21Z</time><cmt>0.2 kmh</cmt></trkpt>
<trkpt lat="51.674075" lon="03.866291"><ele>0</ele><time>2021-01-07T13:38:22Z</time><cmt>0.2 kmh</cmt></trkpt>
<trkpt lat="51.674075" lon="03.866291"><ele>0</ele><time>2021-01-07T13:38:23Z</time><cmt>0.0 kmh</cmt></trkpt>
<trkpt lat="51.674075" lon="03.866291"><ele>0</ele><time>2021-01-07T13:38:24Z</time><cmt>0.0 kmh</cmt></trkpt>
<trkpt lat="51.674075" lon="03.866292"><ele>0</ele><time>2021-01-07T13:38:25Z</time><cmt>0.0 kmh</cmt></trkpt>
<trkpt lat="51.674075" lon="03.866292"><ele>0</ele><time>2021-01-07T13:38:26Z</time><cmt>0.2 kmh</cmt></trkpt>
<trkpt lat="51.674074" lon="03.866292"><ele>0</ele><time>2021-01-07T13:38:27Z</time><cmt>0.2 kmh</cmt></trkpt>
<trkpt lat="51.674074" lon="03.866292"><ele>0</ele><time>2021-01-07T13:38:28Z</time><cmt>0.0 kmh</cmt></trkpt>
<trkpt lat="51.674074" lon="03.866292"><ele>0</ele><time>2021-01-07T13:38:29Z</time><cmt>0.0 kmh</cmt></trkpt>
<trkpt lat="51.674073" lon="03.866292"><ele>0</ele><time>2021-01-07T13:38:30Z</time><cmt>0.0 kmh</cmt></trkpt>
<trkpt lat="51.674073" lon="03.866292"><ele>0</ele><time>2021-01-07T13:38:31Z</time><cmt>0.0 kmh</cmt></trkpt>
<trkpt lat="51.674073" lon="03.866292"><ele>0</ele><time>2021-01-07T13:38:32Z</time><cmt>0.0 kmh</cmt></trkpt>
<trkpt lat="51.674074" lon="03.866293"><ele>0</ele><time>2021-01-07T13:38:33Z</time><cmt>0.0 kmh</cmt></trkpt>
<trkpt lat="51.674074" lon="03.866293"><ele>0</ele><time>2021-01-07T13:38:34Z</time><cmt>0.0 kmh</cmt></trkpt>
<trkpt lat="51.674074" lon="03.866293"><ele>0</ele><time>2021-01-07T13:38:35Z</time><cmt>0.0 kmh</cmt></trkpt>
<trkpt lat="51.674074" lon="03.866293"><ele>0</ele><time>2021-01-07T13:38:36Z</time><cmt>0.0 kmh</cmt></trkpt>
<trkpt lat="51.674074" lon="03.866293"><ele>0</ele><time>2021-01-07T13:38:37Z</time><cmt>0.0 kmh</cmt></trkpt>
<trkpt lat="51.674074" lon="03.866293"><ele>0</ele><time>2021-01-07T13:38:38Z</time><cmt>0.0 kmh</cmt></trkpt>
<trkpt lat="51.674074" lon="03.866294"><ele>0</ele><time>2021-01-07T13:38:39Z</time><cmt>0.0 kmh</cmt></trkpt>
<trkpt lat="51.674074" lon="03.866294"><ele>0</ele><time>2021-01-07T13:38:40Z</time><cmt>0.0 kmh</cmt></trkpt>
<trkpt lat="51.674074" lon="03.866293"><ele>0</ele><time>2021-01-07T13:38:41Z</time><cmt>0.0 kmh</cmt></trkpt>
<trkpt lat="51.674074" lon="03.866293"><ele>0</ele><time>2021-01-07T13:38:42Z</time><cmt>0.0 kmh</cmt></trkpt>
<trkpt lat="51.674075" lon="03.866292"><ele>0</ele><time>2021-01-07T13:38:43Z</time><cmt>0.0 kmh</cmt></trkpt>
<trkpt lat="51.674075" lon="03.866292"><ele>0</ele><time>2021-01-07T13:38:44Z</time><cmt>0.0 kmh</cmt></trkpt>
<trkpt lat="51.674075" lon="03.866292"><ele>0</ele><time>2021-01-07T13:38:45Z</time><cmt>0.0 kmh</cmt></trkpt>
<trkpt lat="51.674075" lon="03.866292"><ele>0</ele><time>2021-01-07T13:38:46Z</time><cmt>0.0 kmh</cmt></trkpt>
<trkpt lat="51.674075" lon="03.866292"><ele>0</ele><time>2021-01-07T13:38:47Z</time><cmt>0.0 kmh</cmt></trkpt>
<trkpt lat="51.674075" lon="03.866293"><ele>0</ele><time>2021-01-07T13:38:48Z</time><cmt>0.0 kmh</cmt></trkpt>
<trkpt lat="51.674074" lon="03.866293"><ele>0</ele><time>2021-01-07T13:38:49Z</time><cmt>0.0 kmh</cmt></trkpt>
<trkpt lat="51.674074" lon="03.866294"><ele>0</ele><time>2021-01-07T13:38:50Z</time><cmt>0.0 kmh</cmt></trkpt>
<trkpt lat="51.674074" lon="03.866294"><ele>0</ele><time>2021-01-07T13:38:51Z</time><cmt>0.0 kmh</cmt></trkpt>
<trkpt lat="51.674073" lon="03.866294"><ele>0</ele><time>2021-01-07T13:38:52Z</time><cmt>0.0 kmh</cmt></trkpt>
<trkpt lat="51.674073" lon="03.866294"><ele>0</ele><time>2021-01-07T13:38:53Z</time><cmt>0.0 kmh</cmt></trkpt>
<trkpt lat="51.674073" lon="03.866295"><ele>0</ele><time>2021-01-07T13:38:54Z</time><cmt>0.0 kmh</cmt></trkpt>
<trkpt lat="51.674073" lon="03.866295"><ele>0</ele><time>2021-01-07T13:38:55Z</time><cmt>0.0 kmh</cmt></trkpt>
<trkpt lat="51.674072" lon="03.866295"><ele>0</ele><time>2021-01-07T13:38:56Z</time><cmt>0.0 kmh</cmt></trkpt>
<trkpt lat="51.674072" lon="03.866295"><ele>0</ele><time>2021-01-07T13:38:57Z</time><cmt>0.0 kmh</cmt></trkpt>
<trkpt lat="51.674072" lon="03.866296"><ele>0</ele><time>2021-01-07T13:38:58Z</time><cmt>0.0 kmh</cmt></trkpt>
<trkpt lat="51.674073" lon="03.866298"><ele>0</ele><time>2021-01-07T13:38:59Z</time><cmt>0.3 kmh</cmt></trkpt>
<trkpt lat="51.674073" lon="03.866299"><ele>0</ele><time>2021-01-07T13:39:00Z</time><cmt>0.4 kmh</cmt></trkpt>
<trkpt lat="51.674074" lon="03.866300"><ele>0</ele><time>2021-01-07T13:39:01Z</time><cmt>0.4 kmh</cmt></trkpt>
<trkpt lat="51.674075" lon="03.866301"><ele>0</ele><time>2021-01-07T13:39:02Z</time><cmt>0.2 kmh</cmt></trkpt>
<trkpt lat="51.674074" lon="03.866302"><ele>0</ele><time>2021-01-07T13:39:03Z</time><cmt>0.0 kmh</cmt></trkpt>
<trkpt lat="51.674075" lon="03.866301"><ele>0</ele><time>2021-01-07T13:39:04Z</time><cmt>0.2 kmh</cmt></trkpt>
<trkpt lat="51.674075" lon="03.866299"><ele>0</ele><time>2021-01-07T13:39:05Z</time><cmt>0.4 kmh</cmt></trkpt>
<trkpt lat="51.674075" lon="03.866300"><ele>0</ele><time>2021-01-07T13:39:06Z</time><cmt>0.3 kmh</cmt></trkpt>
<trkpt lat="51.674075" lon="03.866300"><ele>0</ele><time>2021-01-07T13:39:07Z</time><cmt>0.0 kmh</cmt></trkpt>
<trkpt lat="51.674075" lon="03.866301"><ele>0</ele><time>2021-01-07T13:39:08Z</time><cmt>0.0 kmh</cmt></trkpt>
<trkpt lat="51.674077" lon="03.866303"><ele>0</ele><time>2021-01-07T13:39:09Z</time><cmt>0.4 kmh</cmt></trkpt>
<trkpt lat="51.674078" lon="03.866310"><ele>0</ele><time>2021-01-07T13:39:10Z</time><cmt>1.1 kmh</cmt></trkpt>
<trkpt lat="51.674079" lon="03.866320"><ele>0</ele><time>2021-01-07T13:39:11Z</time><cmt>2.3 kmh</cmt></trkpt>
<trkpt lat="51.674079" lon="03.866330"><ele>0</ele><time>2021-01-07T13:39:12Z</time><cmt>2.7 kmh</cmt></trkpt>
<trkpt lat="51.674079" lon="03.866337"><ele>0</ele><time>2021-01-07T13:39:13Z</time><cmt>2.2 kmh</cmt></trkpt>
<trkpt lat="51.674078" lon="03.866339"><ele>0</ele><time>2021-01-07T13:39:14Z</time><cmt>1.2 kmh</cmt></trkpt>
<trkpt lat="51.674078" lon="03.866340"><ele>0</ele><time>2021-01-07T13:39:15Z</time><cmt>0.2 kmh</cmt></trkpt>
<trkpt lat="51.674080" lon="03.866340"><ele>0</ele><time>2021-01-07T13:39:16Z</time><cmt>0.2 kmh</cmt></trkpt>
<trkpt lat="51.674080" lon="03.866340"><ele>0</ele><time>2021-01-07T13:39:17Z</time><cmt>0.3 kmh</cmt></trkpt>
<trkpt lat="51.674080" lon="03.866341"><ele>0</ele><time>2021-01-07T13:39:18Z</time><cmt>0.0 kmh</cmt></trkpt>
<trkpt lat="51.674082" lon="03.866342"><ele>0</ele><time>2021-01-07T13:39:19Z</time><cmt>0.3 kmh</cmt></trkpt>
<trkpt lat="51.674083" lon="03.866342"><ele>0</ele><time>2021-01-07T13:39:20Z</time><cmt>0.5 kmh</cmt></trkpt>
<trkpt lat="51.674084" lon="03.866339"><ele>0</ele><time>2021-01-07T13:39:21Z</time><cmt>0.4 kmh</cmt></trkpt>
<trkpt lat="51.674086" lon="03.866339"><ele>0</ele><time>2021-01-07T13:39:22Z</time><cmt>0.7 kmh</cmt></trkpt>
<trkpt lat="51.674091" lon="03.866343"><ele>0</ele><time>2021-01-07T13:39:23Z</time><cmt>1.6 kmh</cmt></trkpt>
<trkpt lat="51.674097" lon="03.866349"><ele>0</ele><time>2021-01-07T13:39:24Z</time><cmt>2.6 kmh</cmt></trkpt>
<trkpt lat="51.674102" lon="03.866355"><ele>0</ele><time>2021-01-07T13:39:25Z</time><cmt>2.8 kmh</cmt></trkpt>
<trkpt lat="51.674107" lon="03.866360"><ele>0</ele><time>2021-01-07T13:39:26Z</time><cmt>2.6 kmh</cmt></trkpt>
<trkpt lat="51.674112" lon="03.866365"><ele>0</ele><time>2021-01-07T13:39:27Z</time><cmt>2.6 kmh</cmt></trkpt>
<trkpt lat="51.674115" lon="03.866367"><ele>0</ele><time>2021-01-07T13:39:28Z</time><cmt>1.7 kmh</cmt></trkpt>
<trkpt lat="51.674119" lon="03.866369"><ele>0</ele><time>2021-01-07T13:39:29Z</time><cmt>1.2 kmh</cmt></trkpt>
<trkpt lat="51.674123" lon="03.866371"><ele>0</ele><time>2021-01-07T13:39:30Z</time><cmt>1.7 kmh</cmt></trkpt>
<trkpt lat="51.674128" lon="03.866374"><ele>0</ele><time>2021-01-07T13:39:31Z</time><cmt>2.2 kmh</cmt></trkpt>
<trkpt lat="51.674132" lon="03.866379"><ele>0</ele><time>2021-01-07T13:39:32Z</time><cmt>2.2 kmh</cmt></trkpt>
<trkpt lat="51.674136" lon="03.866384"><ele>0</ele><time>2021-01-07T13:39:33Z</time><cmt>2.2 kmh</cmt></trkpt>
<trkpt lat="51.674140" lon="03.866389"><ele>0</ele><time>2021-01-07T13:39:34Z</time><cmt>1.7 kmh</cmt></trkpt>
<trkpt lat="51.674144" lon="03.866394"><ele>0</ele><time>2021-01-07T13:39:35Z</time><cmt>1.7 kmh</cmt></trkpt>
<trkpt lat="51.674148" lon="03.866398"><ele>0</ele><time>2021-01-07T13:39:36Z</time><cmt>2.1 kmh</cmt></trkpt>
<trkpt lat="51.674152" lon="03.866401"><ele>0</ele><time>2021-01-07T13:39:37Z</time><cmt>2.0 kmh</cmt></trkpt>
<trkpt lat="51.674157" lon="03.866405"><ele>0</ele><time>2021-01-07T13:39:38Z</time><cmt>2.1 kmh</cmt></trkpt>
<trkpt lat="51.674161" lon="03.866408"><ele>0</ele><time>2021-01-07T13:39:39Z</time><cmt>2.2 kmh</cmt></trkpt>
<trkpt lat="51.674164" lon="03.866412"><ele>0</ele><time>2021-01-07T13:39:40Z</time><cmt>1.8 kmh</cmt></trkpt>
<trkpt lat="51.674167" lon="03.866416"><ele>0</ele><time>2021-01-07T13:39:41Z</time><cmt>1.3 kmh</cmt></trkpt>
<trkpt lat="51.674170" lon="03.866421"><ele>0</ele><time>2021-01-07T13:39:42Z</time><cmt>1.4 kmh</cmt></trkpt>
<trkpt lat="51.674174" lon="03.866426"><ele>0</ele><time>2021-01-07T13:39:43Z</time><cmt>1.9 kmh</cmt></trkpt>
<trkpt lat="51.674178" lon="03.866431"><ele>0</ele><time>2021-01-07T13:39:44Z</time><cmt>2.1 kmh</cmt></trkpt>
<trkpt lat="51.674183" lon="03.866436"><ele>0</ele><time>2021-01-07T13:39:45Z</time><cmt>2.3 kmh</cmt></trkpt>
<trkpt lat="51.674187" lon="03.866440"><ele>1</ele><time>2021-01-07T13:39:46Z</time><cmt>2.3 kmh</cmt></trkpt>
<trkpt lat="51.674192" lon="03.866445"><ele>1</ele><time>2021-01-07T13:39:47Z</time><cmt>2.0 kmh</cmt></trkpt>
<trkpt lat="51.674198" lon="03.866450"><ele>1</ele><time>2021-01-07T13:39:48Z</time><cmt>2.1 kmh</cmt></trkpt>
<trkpt lat="51.674202" lon="03.866456"><ele>1</ele><time>2021-01-07T13:39:49Z</time><cmt>2.7 kmh</cmt></trkpt>
<trkpt lat="51.674206" lon="03.866461"><ele>1</ele><time>2021-01-07T13:39:50Z</time><cmt>2.3 kmh</cmt></trkpt>
<trkpt lat="51.674208" lon="03.866461"><ele>1</ele><time>2021-01-07T13:39:51Z</time><cmt>1.4 kmh</cmt></trkpt>
<trkpt lat="51.674209" lon="03.866461"><ele>1</ele><time>2021-01-07T13:39:52Z</time><cmt>0.7 kmh</cmt></trkpt>
<trkpt lat="51.674210" lon="03.866461"><ele>1</ele><time>2021-01-07T13:39:53Z</time><cmt>0.4 kmh</cmt></trkpt>
<trkpt lat="51.674212" lon="03.866462"><ele>1</ele><time>2021-01-07T13:39:54Z</time><cmt>0.6 kmh</cmt></trkpt>
<trkpt lat="51.674214" lon="03.866465"><ele>2</ele><time>2021-01-07T13:39:55Z</time><cmt>0.9 kmh</cmt></trkpt>
<trkpt lat="51.674215" lon="03.866467"><ele>2</ele><time>2021-01-07T13:39:56Z</time><cmt>0.9 kmh</cmt></trkpt>
<trkpt lat="51.674215" lon="03.866469"><ele>2</ele><time>2021-01-07T13:39:57Z</time><cmt>0.6 kmh</cmt></trkpt>
<trkpt lat="51.674215" lon="03.866470"><ele>2</ele><time>2021-01-07T13:39:58Z</time><cmt>0.5 kmh</cmt></trkpt>
<trkpt lat="51.674217" lon="03.866471"><ele>2</ele><time>2021-01-07T13:39:59Z</time><cmt>0.5 kmh</cmt></trkpt>
<trkpt lat="51.674218" lon="03.866473"><ele>2</ele><time>2021-01-07T13:40:00Z</time><cmt>0.6 kmh</cmt></trkpt>
<trkpt lat="51.674218" lon="03.866475"><ele>2</ele><time>2021-01-07T13:40:01Z</time><cmt>0.5 kmh</cmt></trkpt>
<trkpt lat="51.674220" lon="03.866475"><ele>2</ele><time>2021-01-07T13:40:02Z</time><cmt>0.4 kmh</cmt></trkpt>
<trkpt lat="51.674221" lon="03.866476"><ele>2</ele><time>2021-01-07T13:40:03Z</time><cmt>0.5 kmh</cmt></trkpt>
<trkpt lat="51.674222" lon="03.866477"><ele>2</ele><time>2021-01-07T13:40:04Z</time><cmt>0.5 kmh</cmt></trkpt>
<trkpt lat="51.674223" lon="03.866478"><ele>2</ele><time>2021-01-07T13:40:05Z</time><cmt>0.5 kmh</cmt></trkpt>
<trkpt lat="51.674224" lon="03.866478"><ele>2</ele><time>2021-01-07T13:40:06Z</time><cmt>0.2 kmh</cmt></trkpt>
<trkpt lat="51.674225" lon="03.866478"><ele>2</ele><time>2021-01-07T13:40:07Z</time><cmt>0.0 kmh</cmt></trkpt>
<trkpt lat="51.674226" lon="03.866480"><ele>2</ele><time>2021-01-07T13:40:08Z</time><cmt>0.2 kmh</cmt></trkpt>
<trkpt lat="51.674227" lon="03.866480"><ele>2</ele><time>2021-01-07T13:40:09Z</time><cmt>0.2 kmh</cmt></trkpt>
<trkpt lat="51.674228" lon="03.866480"><ele>2</ele><time>2021-01-07T13:40:10Z</time><cmt>0.3 kmh</cmt></trkpt>
<trkpt lat="51.674229" lon="03.866481"><ele>2</ele><time>2021-01-07T13:40:11Z</time><cmt>0.6 kmh</cmt></trkpt>
<trkpt lat="51.674230" lon="03.866482"><ele>2</ele><time>2021-01-07T13:40:12Z</time><cmt>0.5 kmh</cmt></trkpt>
<trkpt lat="51.674231" lon="03.866483"><ele>2</ele><time>2021-01-07T13:40:13Z</time><cmt>0.4 kmh</cmt></trkpt>
<trkpt lat="51.674232" lon="03.866483"><ele>2</ele><time>2021-01-07T13:40:14Z</time><cmt>0.3 kmh</cmt></trkpt>
<trkpt lat="51.674233" lon="03.866483"><ele>2</ele><time>2021-01-07T13:40:15Z</time><cmt>0.0 kmh</cmt></trkpt>
<trkpt lat="51.674234" lon="03.866484"><ele>2</ele><time>2021-01-07T13:40:16Z</time><cmt>0.2 kmh</cmt></trkpt>
<trkpt lat="51.674236" lon="03.866485"><ele>2</ele><time>2021-01-07T13:40:17Z</time><cmt>0.4 kmh</cmt></trkpt>
<trkpt lat="51.674237" lon="03.866486"><ele>2</ele><time>2021-01-07T13:40:18Z</time><cmt>0.5 kmh</cmt></trkpt>
<trkpt lat="51.674239" lon="03.866488"><ele>2</ele><time>2021-01-07T13:40:19Z</time><cmt>0.5 kmh</cmt></trkpt>
<trkpt lat="51.674239" lon="03.866490"><ele>2</ele><time>2021-01-07T13:40:20Z</time><cmt>0.7 kmh</cmt></trkpt>
<trkpt lat="51.674241" lon="03.866492"><ele>2</ele><time>2021-01-07T13:40:21Z</time><cmt>0.9 kmh</cmt></trkpt>
<trkpt lat="51.674242" lon="03.866494"><ele>2</ele><time>2021-01-07T13:40:22Z</time><cmt>0.9 kmh</cmt></trkpt>
<trkpt lat="51.674244" lon="03.866495"><ele>2</ele><time>2021-01-07T13:40:23Z</time><cmt>0.8 kmh</cmt></trkpt>
<trkpt lat="51.674245" lon="03.866495"><ele>2</ele><time>2021-01-07T13:40:24Z</time><cmt>0.7 kmh</cmt></trkpt>
<trkpt lat="51.674247" lon="03.866497"><ele>2</ele><time>2021-01-07T13:40:25Z</time><cmt>0.4 kmh</cmt></trkpt>
<trkpt lat="51.674247" lon="03.866499"><ele>2</ele><time>2021-01-07T13:40:26Z</time><cmt>0.2 kmh</cmt></trkpt>
<trkpt lat="51.674245" lon="03.866497"><ele>2</ele><time>2021-01-07T13:40:27Z</time><cmt>0.5 kmh</cmt></trkpt>
<trkpt lat="51.674245" lon="03.866497"><ele>2</ele><time>2021-01-07T13:40:28Z</time><cmt>0.7 kmh</cmt></trkpt>
<trkpt lat="51.674246" lon="03.866497"><ele>2</ele><time>2021-01-07T13:40:29Z</time><cmt>0.4 kmh</cmt></trkpt>
<trkpt lat="51.674247" lon="03.866496"><ele>2</ele><time>2021-01-07T13:40:30Z</time><cmt>0.5 kmh</cmt></trkpt>
<trkpt lat="51.674247" lon="03.866497"><ele>2</ele><time>2021-01-07T13:40:31Z</time><cmt>0.2 kmh</cmt></trkpt>
<trkpt lat="51.674248" lon="03.866499"><ele>2</ele><time>2021-01-07T13:40:32Z</time><cmt>0.1 kmh</cmt></trkpt>
<trkpt lat="51.674250" lon="03.866501"><ele>2</ele><time>2021-01-07T13:40:33Z</time><cmt>0.6 kmh</cmt></trkpt>
<trkpt lat="51.674252" lon="03.866503"><ele>2</ele><time>2021-01-07T13:40:34Z</time><cmt>1.0 kmh</cmt></trkpt>
<trkpt lat="51.674254" lon="03.866505"><ele>2</ele><time>2021-01-07T13:40:35Z</time><cmt>1.0 kmh</cmt></trkpt>
<trkpt lat="51.674257" lon="03.866507"><ele>2</ele><time>2021-01-07T13:40:36Z</time><cmt>1.0 kmh</cmt></trkpt>
<trkpt lat="51.674259" lon="03.866509"><ele>1</ele><time>2021-01-07T13:40:37Z</time><cmt>0.8 kmh</cmt></trkpt>
<trkpt lat="51.674259" lon="03.866512"><ele>1</ele><time>2021-01-07T13:40:38Z</time><cmt>0.7 kmh</cmt></trkpt>
<trkpt lat="51.674261" lon="03.866514"><ele>1</ele><time>2021-01-07T13:40:39Z</time><cmt>0.8 kmh</cmt></trkpt>
<trkpt lat="51.674262" lon="03.866516"><ele>1</ele><time>2021-01-07T13:40:40Z</time><cmt>0.8 kmh</cmt></trkpt>
<trkpt lat="51.674263" lon="03.866517"><ele>1</ele><time>2021-01-07T13:40:41Z</time><cmt>0.6 kmh</cmt></trkpt>
<trkpt lat="51.674263" lon="03.866519"><ele>1</ele><time>2021-01-07T13:40:42Z</time><cmt>0.5 kmh</cmt></trkpt>
<trkpt lat="51.674264" lon="03.866520"><ele>1</ele><time>2021-01-07T13:40:43Z</time><cmt>0.5 kmh</cmt></trkpt>
<trkpt lat="51.674266" lon="03.866521"><ele>1</ele><time>2021-01-07T13:40:44Z</time><cmt>0.5 kmh</cmt></trkpt>
<trkpt lat="51.674267" lon="03.866523"><ele>1</ele><time>2021-01-07T13:40:45Z</time><cmt>0.6 kmh</cmt></trkpt>
<trkpt lat="51.674269" lon="03.866525"><ele>1</ele><time>2021-01-07T13:40:46Z</time><cmt>0.8 kmh</cmt></trkpt>
<trkpt lat="51.674270" lon="03.866527"><ele>1</ele><time>2021-01-07T13:40:47Z</time><cmt>0.8 kmh</cmt></trkpt>
<trkpt lat="51.674271" lon="03.866528"><ele>1</ele><time>2021-01-07T13:40:48Z</time><cmt>0.6 kmh</cmt></trkpt>
<trkpt lat="51.674271" lon="03.866529"><ele>1</ele><time>2021-01-07T13:40:49Z</time><cmt>0.4 kmh</cmt></trkpt>
<trkpt lat="51.674273" lon="03.866531"><ele>1</ele><time>2021-01-07T13:40:50Z</time><cmt>0.5 kmh</cmt></trkpt>
<trkpt lat="51.674274" lon="03.866532"><ele>1</ele><time>2021-01-07T13:40:51Z</time><cmt>0.6 kmh</cmt></trkpt>
<trkpt lat="51.674277" lon="03.866534"><ele>0</ele><time>2021-01-07T13:40:52Z</time><cmt>0.8 kmh</cmt></trkpt>
<trkpt lat="51.674278" lon="03.866537"><ele>0</ele><time>2021-01-07T13:40:53Z</time><cmt>1.0 kmh</cmt></trkpt>
<trkpt lat="51.674280" lon="03.866538"><ele>0</ele><time>2021-01-07T13:40:54Z</time><cmt>0.9 kmh</cmt></trkpt>
<trkpt lat="51.674281" lon="03.866539"><ele>0</ele><time>2021-01-07T13:40:55Z</time><cmt>0.8 kmh</cmt></trkpt>
<trkpt lat="51.674282" lon="03.866541"><ele>0</ele><time>2021-01-07T13:40:56Z</time><cmt>0.6 kmh</cmt></trkpt>
<trkpt lat="51.674284" lon="03.866543"><ele>0</ele><time>2021-01-07T13:40:57Z</time><cmt>0.7 kmh</cmt></trkpt>
<trkpt lat="51.674285" lon="03.866545"><ele>0</ele><time>2021-01-07T13:40:58Z</time><cmt>1.0 kmh</cmt></trkpt>
<trkpt lat="51.674287" lon="03.866546"><ele>0</ele><time>2021-01-07T13:40:59Z</time><cmt>0.9 kmh</cmt></trkpt>
<trkpt lat="51.674288" lon="03.866548"><ele>0</ele><time>2021-01-07T13:41:00Z</time><cmt>0.7 kmh</cmt></trkpt>
<trkpt lat="51.674289" lon="03.866549"><ele>0</ele><time>2021-01-07T13:41:01Z</time><cmt>0.5 kmh</cmt></trkpt>
<trkpt lat="51.674291" lon="03.866551"><ele>0</ele><time>2021-01-07T13:41:02Z</time><cmt>0.7 kmh</cmt></trkpt>
<trkpt lat="51.674293" lon="03.866553"><ele>0</ele><time>2021-01-07T13:41:03Z</time><cmt>0.8 kmh</cmt></trkpt>
<trkpt lat="51.674293" lon="03.866556"><ele>0</ele><time>2021-01-07T13:41:04Z</time><cmt>0.7 kmh</cmt></trkpt>
<trkpt lat="51.674294" lon="03.866557"><ele>0</ele><time>2021-01-07T13:41:05Z</time><cmt>0.8 kmh</cmt></trkpt>
<trkpt lat="51.674295" lon="03.866559"><ele>0</ele><time>2021-01-07T13:41:06Z</time><cmt>0.7 kmh</cmt></trkpt>
<trkpt lat="51.674296" lon="03.866561"><ele>0</ele><time>2021-01-07T13:41:07Z</time><cmt>0.7 kmh</cmt></trkpt>
<trkpt lat="51.674297" lon="03.866562"><ele>0</ele><time>2021-01-07T13:41:08Z</time><cmt>0.6 kmh</cmt></trkpt>
<trkpt lat="51.674298" lon="03.866564"><ele>0</ele><time>2021-01-07T13:41:09Z</time><cmt>0.6 kmh</cmt></trkpt>
<trkpt lat="51.674298" lon="03.866566"><ele>0</ele><time>2021-01-07T13:41:10Z</time><cmt>0.5 kmh</cmt></trkpt>
<trkpt lat="51.674300" lon="03.866568"><ele>0</ele><time>2021-01-07T13:41:11Z</time><cmt>0.6 kmh</cmt></trkpt>
<trkpt lat="51.674300" lon="03.866570"><ele>0</ele><time>2021-01-07T13:41:12Z</time><cmt>0.6 kmh</cmt></trkpt>
<trkpt lat="51.674301" lon="03.866572"><ele>0</ele><time>2021-01-07T13:41:13Z</time><cmt>0.6 kmh</cmt></trkpt>
<trkpt lat="51.674302" lon="03.866574"><ele>0</ele><time>2021-01-07T13:41:14Z</time><cmt>0.7 kmh</cmt></trkpt>
<trkpt lat="51.674303" lon="03.866575"><ele>0</ele><time>2021-01-07T13:41:15Z</time><cmt>0.6 kmh</cmt></trkpt>
<trkpt lat="51.674304" lon="03.866576"><ele>0</ele><time>2021-01-07T13:41:16Z</time><cmt>0.4 kmh</cmt></trkpt>
<trkpt lat="51.674305" lon="03.866576"><ele>0</ele><time>2021-01-07T13:41:17Z</time><cmt>0.4 kmh</cmt></trkpt>
<trkpt lat="51.674306" lon="03.866577"><ele>0</ele><time>2021-01-07T13:41:18Z</time><cmt>0.5 kmh</cmt></trkpt>
<trkpt lat="51.674308" lon="03.866578"><ele>0</ele><time>2021-01-07T13:41:19Z</time><cmt>0.6 kmh</cmt></trkpt>
<trkpt lat="51.674309" lon="03.866579"><ele>0</ele><time>2021-01-07T13:41:20Z</time><cmt>0.6 kmh</cmt></trkpt>
<trkpt lat="51.674309" lon="03.866580"><ele>0</ele><time>2021-01-07T13:41:21Z</time><cmt>0.5 kmh</cmt></trkpt>
<trkpt lat="51.674311" lon="03.866582"><ele>0</ele><time>2021-01-07T13:41:22Z</time><cmt>0.6 kmh</cmt></trkpt>
<trkpt lat="51.674313" lon="03.866583"><ele>0</ele><time>2021-01-07T13:41:23Z</time><cmt>0.6 kmh</cmt></trkpt>
<trkpt lat="51.674313" lon="03.866583"><ele>0</ele><time>2021-01-07T13:41:24Z</time><cmt>0.3 kmh</cmt></trkpt>
<trkpt lat="51.674312" lon="03.866584"><ele>0</ele><time>2021-01-07T13:41:25Z</time><cmt>0.2 kmh</cmt></trkpt>
<trkpt lat="51.674312" lon="03.866585"><ele>0</ele><time>2021-01-07T13:41:26Z</time><cmt>0.2 kmh</cmt></trkpt>
<trkpt lat="51.674313" lon="03.866586"><ele>0</ele><time>2021-01-07T13:41:27Z</time><cmt>0.0 kmh</cmt></trkpt>
<trkpt lat="51.674314" lon="03.866587"><ele>0</ele><time>2021-01-07T13:41:28Z</time><cmt>0.2 kmh</cmt></trkpt>
<trkpt lat="51.674315" lon="03.866588"><ele>0</ele><time>2021-01-07T13:41:29Z</time><cmt>0.4 kmh</cmt></trkpt>
<trkpt lat="51.674315" lon="03.866589"><ele>0</ele><time>2021-01-07T13:41:30Z</time><cmt>0.2 kmh</cmt></trkpt>
<trkpt lat="51.674316" lon="03.866590"><ele>0</ele><time>2021-01-07T13:41:31Z</time><cmt>0.3 kmh</cmt></trkpt>
<trkpt lat="51.674317" lon="03.866591"><ele>0</ele><time>2021-01-07T13:41:32Z</time><cmt>0.4 kmh</cmt></trkpt>
<trkpt lat="51.674318" lon="03.866591"><ele>0</ele><time>2021-01-07T13:41:33Z</time><cmt>0.2 kmh</cmt></trkpt>
<trkpt lat="51.674318" lon="03.866592"><ele>0</ele><time>2021-01-07T13:41:34Z</time><cmt>0.0 kmh</cmt></trkpt>
<trkpt lat="51.674318" lon="03.866593"><ele>0</ele><time>2021-01-07T13:41:35Z</time><cmt>0.0 kmh</cmt></trkpt>
<trkpt lat="51.674320" lon="03.866594"><ele>0</ele><time>2021-01-07T13:41:36Z</time><cmt>0.3 kmh</cmt></trkpt>
<trkpt lat="51.674324" lon="03.866594"><ele>0</ele><time>2021-01-07T13:41:37Z</time><cmt>0.9 kmh</cmt></trkpt>
<trkpt lat="51.674328" lon="03.866596"><ele>0</ele><time>2021-01-07T13:41:38Z</time><cmt>1.7 kmh</cmt></trkpt>
<trkpt lat="51.674333" lon="03.866600"><ele>0</ele><time>2021-01-07T13:41:39Z</time><cmt>2.0 kmh</cmt></trkpt>
<trkpt lat="51.674338" lon="03.866603"><ele>0</ele><time>2021-01-07T13:41:40Z</time><cmt>2.4 kmh</cmt></trkpt>
<trkpt lat="51.674347" lon="03.866608"><ele>0</ele><time>2021-01-07T13:41:41Z</time><cmt>2.7 kmh</cmt></trkpt>
<trkpt lat="51.674357" lon="03.866615"><ele>0</ele><time>2021-01-07T13:41:42Z</time><cmt>3.5 kmh</cmt></trkpt>
<trkpt lat="51.674365" lon="03.866624"><ele>0</ele><time>2021-01-07T13:41:43Z</time><cmt>4.5 kmh</cmt></trkpt>
<trkpt lat="51.674373" lon="03.866636"><ele>0</ele><time>2021-01-07T13:41:44Z</time><cmt>4.3 kmh</cmt></trkpt>
<trkpt lat="51.674380" lon="03.866646"><ele>0</ele><time>2021-01-07T13:41:45Z</time><cmt>4.1 kmh</cmt></trkpt>
<trkpt lat="51.674387" lon="03.866655"><ele>0</ele><time>2021-01-07T13:41:46Z</time><cmt>4.0 kmh</cmt></trkpt>
<trkpt lat="51.674395" lon="03.866664"><ele>0</ele><time>2021-01-07T13:41:47Z</time><cmt>3.3 kmh</cmt></trkpt>
<trkpt lat="51.674403" lon="03.866675"><ele>0</ele><time>2021-01-07T13:41:48Z</time><cmt>3.4 kmh</cmt></trkpt>
<trkpt lat="51.674410" lon="03.866687"><ele>0</ele><time>2021-01-07T13:41:49Z</time><cmt>4.5 kmh</cmt></trkpt>
<trkpt lat="51.674416" lon="03.866701"><ele>0</ele><time>2021-01-07T13:41:50Z</time><cmt>4.5 kmh</cmt></trkpt>
<trkpt lat="51.674421" lon="03.866714"><ele>0</ele><time>2021-01-07T13:41:51Z</time><cmt>4.3 kmh</cmt></trkpt>
<trkpt lat="51.674426" lon="03.866727"><ele>0</ele><time>2021-01-07T13:41:52Z</time><cmt>4.0 kmh</cmt></trkpt>
<trkpt lat="51.674431" lon="03.866739"><ele>0</ele><time>2021-01-07T13:41:53Z</time><cmt>3.2 kmh</cmt></trkpt>
<trkpt lat="51.674437" lon="03.866751"><ele>0</ele><time>2021-01-07T13:41:54Z</time><cmt>3.4 kmh</cmt></trkpt>
<trkpt lat="51.674445" lon="03.866762"><ele>0</ele><time>2021-01-07T13:41:55Z</time><cmt>4.4 kmh</cmt></trkpt>
<trkpt lat="51.674453" lon="03.866773"><ele>0</ele><time>2021-01-07T13:41:56Z</time><cmt>4.5 kmh</cmt></trkpt>
<trkpt lat="51.674462" lon="03.866783"><ele>0</ele><time>2021-01-07T13:41:57Z</time><cmt>4.6 kmh</cmt></trkpt>
<trkpt lat="51.674472" lon="03.866794"><ele>0</ele><time>2021-01-07T13:41:58Z</time><cmt>4.9 kmh</cmt></trkpt>
<trkpt lat="51.674481" lon="03.866806"><ele>0</ele><time>2021-01-07T13:41:59Z</time><cmt>5.0 kmh</cmt></trkpt>
<trkpt lat="51.674488" lon="03.866817"><ele>0</ele><time>2021-01-07T13:42:00Z</time><cmt>3.7 kmh</cmt></trkpt>
<trkpt lat="51.674494" lon="03.866828"><ele>0</ele><time>2021-01-07T13:42:01Z</time><cmt>3.3 kmh</cmt></trkpt>
<trkpt lat="51.674502" lon="03.866837"><ele>0</ele><time>2021-01-07T13:42:02Z</time><cmt>4.1 kmh</cmt></trkpt>
<trkpt lat="51.674509" lon="03.866846"><ele>0</ele><time>2021-01-07T13:42:03Z</time><cmt>4.1 kmh</cmt></trkpt>
<trkpt lat="51.674517" lon="03.866853"><ele>0</ele><time>2021-01-07T13:42:04Z</time><cmt>3.9 kmh</cmt></trkpt>
<trkpt lat="51.674523" lon="03.866859"><ele>0</ele><time>2021-01-07T13:42:05Z</time><cmt>3.4 kmh</cmt></trkpt>
<trkpt lat="51.674526" lon="03.866862"><ele>0</ele><time>2021-01-07T13:42:06Z</time><cmt>1.9 kmh</cmt></trkpt>
<trkpt lat="51.674527" lon="03.866864"><ele>0</ele><time>2021-01-07T13:42:07Z</time><cmt>0.8 kmh</cmt></trkpt>
<trkpt lat="51.674529" lon="03.866864"><ele>0</ele><time>2021-01-07T13:42:08Z</time><cmt>0.7 kmh</cmt></trkpt>
<trkpt lat="51.674533" lon="03.866868"><ele>0</ele><time>2021-01-07T13:42:09Z</time><cmt>1.5 kmh</cmt></trkpt>
<trkpt lat="51.674540" lon="03.866875"><ele>0</ele><time>2021-01-07T13:42:10Z</time><cmt>2.7 kmh</cmt></trkpt>
<trkpt lat="51.674546" lon="03.866885"><ele>0</ele><time>2021-01-07T13:42:11Z</time><cmt>3.7 kmh</cmt></trkpt>
<trkpt lat="51.674553" lon="03.866895"><ele>0</ele><time>2021-01-07T13:42:12Z</time><cmt>3.1 kmh</cmt></trkpt>
<trkpt lat="51.674560" lon="03.866906"><ele>0</ele><time>2021-01-07T13:42:13Z</time><cmt>3.2 kmh</cmt></trkpt>
<trkpt lat="51.674567" lon="03.866917"><ele>0</ele><time>2021-01-07T13:42:14Z</time><cmt>4.2 kmh</cmt></trkpt>
<trkpt lat="51.674575" lon="03.866930"><ele>0</ele><time>2021-01-07T13:42:15Z</time><cmt>4.6 kmh</cmt></trkpt>
<trkpt lat="51.674583" lon="03.866943"><ele>0</ele><time>2021-01-07T13:42:16Z</time><cmt>4.8 kmh</cmt></trkpt>
<trkpt lat="51.674591" lon="03.866953"><ele>0</ele><time>2021-01-07T13:42:17Z</time><cmt>4.7 kmh</cmt></trkpt>
<trkpt lat="51.674598" lon="03.866964"><ele>0</ele><time>2021-01-07T13:42:18Z</time><cmt>4.4 kmh</cmt></trkpt>
<trkpt lat="51.674605" lon="03.866974"><ele>0</ele><time>2021-01-07T13:42:19Z</time><cmt>3.3 kmh</cmt></trkpt>
<trkpt lat="51.674613" lon="03.866985"><ele>0</ele><time>2021-01-07T13:42:20Z</time><cmt>3.3 kmh</cmt></trkpt>
<trkpt lat="51.674621" lon="03.866997"><ele>0</ele><time>2021-01-07T13:42:21Z</time><cmt>4.5 kmh</cmt></trkpt>
<trkpt lat="51.674629" lon="03.867009"><ele>0</ele><time>2021-01-07T13:42:22Z</time><cmt>4.7 kmh</cmt></trkpt>
<trkpt lat="51.674636" lon="03.867018"><ele>0</ele><time>2021-01-07T13:42:23Z</time><cmt>4.4 kmh</cmt></trkpt>
<trkpt lat="51.674643" lon="03.867025"><ele>0</ele><time>2021-01-07T13:42:24Z</time><cmt>3.9 kmh</cmt></trkpt>
<trkpt lat="51.674651" lon="03.867035"><ele>0</ele><time>2021-01-07T13:42:25Z</time><cmt>3.2 kmh</cmt></trkpt>
<trkpt lat="51.674658" lon="03.867046"><ele>0</ele><time>2021-01-07T13:42:26Z</time><cmt>3.4 kmh</cmt></trkpt>
<trkpt lat="51.674664" lon="03.867059"><ele>0</ele><time>2021-01-07T13:42:27Z</time><cmt>4.1 kmh</cmt></trkpt>
<trkpt lat="51.674671" lon="03.867068"><ele>0</ele><time>2021-01-07T13:42:28Z</time><cmt>4.1 kmh</cmt></trkpt>
<trkpt lat="51.674679" lon="03.867077"><ele>0</ele><time>2021-01-07T13:42:29Z</time><cmt>4.0 kmh</cmt></trkpt>
<trkpt lat="51.674688" lon="03.867085"><ele>0</ele><time>2021-01-07T13:42:30Z</time><cmt>4.3 kmh</cmt></trkpt>
<trkpt lat="51.674696" lon="03.867092"><ele>0</ele><time>2021-01-07T13:42:31Z</time><cmt>4.3 kmh</cmt></trkpt>
<trkpt lat="51.674704" lon="03.867096"><ele>0</ele><time>2021-01-07T13:42:32Z</time><cmt>3.1 kmh</cmt></trkpt>
<trkpt lat="51.674712" lon="03.867103"><ele>0</ele><time>2021-01-07T13:42:33Z</time><cmt>3.0 kmh</cmt></trkpt>
<trkpt lat="51.674719" lon="03.867110"><ele>0</ele><time>2021-01-07T13:42:34Z</time><cmt>3.6 kmh</cmt></trkpt>
<trkpt lat="51.674724" lon="03.867116"><ele>0</ele><time>2021-01-07T13:42:35Z</time><cmt>3.1 kmh</cmt></trkpt>
<trkpt lat="51.674729" lon="03.867123"><ele>0</ele><time>2021-01-07T13:42:36Z</time><cmt>2.9 kmh</cmt></trkpt>
<trkpt lat="51.674735" lon="03.867130"><ele>0</ele><time>2021-01-07T13:42:37Z</time><cmt>3.0 kmh</cmt></trkpt>
<trkpt lat="51.674741" lon="03.867136"><ele>0</ele><time>2021-01-07T13:42:38Z</time><cmt>2.6 kmh</cmt></trkpt>
<trkpt lat="51.674746" lon="03.867143"><ele>0</ele><time>2021-01-07T13:42:39Z</time><cmt>2.4 kmh</cmt></trkpt>
<trkpt lat="51.674750" lon="03.867150"><ele>0</ele><time>2021-01-07T13:42:40Z</time><cmt>2.6 kmh</cmt></trkpt>
<trkpt lat="51.674753" lon="03.867156"><ele>0</ele><time>2021-01-07T13:42:41Z</time><cmt>2.3 kmh</cmt></trkpt>
<trkpt lat="51.674756" lon="03.867162"><ele>0</ele><time>2021-01-07T13:42:42Z</time><cmt>2.1 kmh</cmt></trkpt>
<trkpt lat="51.674758" lon="03.867171"><ele>0</ele><time>2021-01-07T13:42:43Z</time><cmt>2.3 kmh</cmt></trkpt>
<trkpt lat="51.674758" lon="03.867181"><ele>0</ele><time>2021-01-07T13:42:44Z</time><cmt>2.1 kmh</cmt></trkpt>
<trkpt lat="51.674759" lon="03.867189"><ele>0</ele><time>2021-01-07T13:42:45Z</time><cmt>1.9 kmh</cmt></trkpt>
<trkpt lat="51.674759" lon="03.867196"><ele>0</ele><time>2021-01-07T13:42:46Z</time><cmt>2.0 kmh</cmt></trkpt>
<trkpt lat="51.674761" lon="03.867202"><ele>0</ele><time>2021-01-07T13:42:47Z</time><cmt>1.9 kmh</cmt></trkpt>
<trkpt lat="51.674761" lon="03.867207"><ele>0</ele><time>2021-01-07T13:42:48Z</time><cmt>1.6 kmh</cmt></trkpt>
<trkpt lat="51.674761" lon="03.867208"><ele>0</ele><time>2021-01-07T13:42:49Z</time><cmt>0.6 kmh</cmt></trkpt>
<trkpt lat="51.674760" lon="03.867208"><ele>0</ele><time>2021-01-07T13:42:50Z</time><cmt>0.0 kmh</cmt></trkpt>
<trkpt lat="51.674759" lon="03.867208"><ele>0</ele><time>2021-01-07T13:42:51Z</time><cmt>0.1 kmh</cmt></trkpt>
<trkpt lat="51.674757" lon="03.867208"><ele>0</ele><time>2021-01-07T13:42:52Z</time><cmt>0.6 kmh</cmt></trkpt>
<trkpt lat="51.674756" lon="03.867208"><ele>0</ele><time>2021-01-07T13:42:53Z</time><cmt>0.6 kmh</cmt></trkpt>
<trkpt lat="51.674755" lon="03.867209"><ele>0</ele><time>2021-01-07T13:42:54Z</time><cmt>0.5 kmh</cmt></trkpt>
<trkpt lat="51.674754" lon="03.867208"><ele>0</ele><time>2021-01-07T13:42:55Z</time><cmt>0.5 kmh</cmt></trkpt>
<trkpt lat="51.674753" lon="03.867207"><ele>0</ele><time>2021-01-07T13:42:56Z</time><cmt>0.3 kmh</cmt></trkpt>
<trkpt lat="51.674753" lon="03.867207"><ele>0</ele><time>2021-01-07T13:42:57Z</time><cmt>0.0 kmh</cmt></trkpt>
<trkpt lat="51.674752" lon="03.867210"><ele>0</ele><time>2021-01-07T13:42:58Z</time><cmt>0.4 kmh</cmt></trkpt>
<trkpt lat="51.674754" lon="03.867212"><ele>0</ele><time>2021-01-07T13:42:59Z</time><cmt>0.9 kmh</cmt></trkpt>
<trkpt lat="51.674755" lon="03.867213"><ele>0</ele><time>2021-01-07T13:43:00Z</time><cmt>0.9 kmh</cmt></trkpt>
<trkpt lat="51.674756" lon="03.867213"><ele>0</ele><time>2021-01-07T13:43:01Z</time><cmt>0.7 kmh</cmt></trkpt>
<trkpt lat="51.674757" lon="03.867213"><ele>0</ele><time>2021-01-07T13:43:02Z</time><cmt>0.5 kmh</cmt></trkpt>
<trkpt lat="51.674760" lon="03.867214"><ele>0</ele><time>2021-01-07T13:43:03Z</time><cmt>0.6 kmh</cmt></trkpt>
<trkpt lat="51.674763" lon="03.867216"><ele>0</ele><time>2021-01-07T13:43:04Z</time><cmt>0.9 kmh</cmt></trkpt>
<trkpt lat="51.674765" lon="03.867216"><ele>0</ele><time>2021-01-07T13:43:05Z</time><cmt>1.3 kmh</cmt></trkpt>
<trkpt lat="51.674767" lon="03.867217"><ele>0</ele><time>2021-01-07T13:43:06Z</time><cmt>0.8 kmh</cmt></trkpt>
<trkpt lat="51.674768" lon="03.867218"><ele>0</ele><time>2021-01-07T13:43:07Z</time><cmt>0.6 kmh</cmt></trkpt>
<trkpt lat="51.674771" lon="03.867221"><ele>0</ele><time>2021-01-07T13:43:08Z</time><cmt>1.1 kmh</cmt></trkpt>
<trkpt lat="51.674774" lon="03.867227"><ele>0</ele><time>2021-01-07T13:43:09Z</time><cmt>1.4 kmh</cmt></trkpt>
<trkpt lat="51.674776" lon="03.867235"><ele>0</ele><time>2021-01-07T13:43:10Z</time><cmt>1.7 kmh</cmt></trkpt>
<trkpt lat="51.674778" lon="03.867242"><ele>0</ele><time>2021-01-07T13:43:11Z</time><cmt>2.2 kmh</cmt></trkpt>
<trkpt lat="51.674782" lon="03.867249"><ele>0</ele><time>2021-01-07T13:43:12Z</time><cmt>2.5 kmh</cmt></trkpt>
<trkpt lat="51.674787" lon="03.867256"><ele>0</ele><time>2021-01-07T13:43:13Z</time><cmt>2.6 kmh</cmt></trkpt>
<trkpt lat="51.674789" lon="03.867256"><ele>0</ele><time>2021-01-07T13:43:14Z</time><cmt>1.8 kmh</cmt></trkpt>
<trkpt lat="51.674792" lon="03.867256"><ele>0</ele><time>2021-01-07T13:43:15Z</time><cmt>1.2 kmh</cmt></trkpt>
<trkpt lat="51.674796" lon="03.867260"><ele>0</ele><time>2021-01-07T13:43:16Z</time><cmt>1.3 kmh</cmt></trkpt>
<trkpt lat="51.674799" lon="03.867268"><ele>0</ele><time>2021-01-07T13:43:17Z</time><cmt>1.7 kmh</cmt></trkpt>
<trkpt lat="51.674804" lon="03.867276"><ele>0</ele><time>2021-01-07T13:43:18Z</time><cmt>2.7 kmh</cmt></trkpt>
<trkpt lat="51.674809" lon="03.867285"><ele>0</ele><time>2021-01-07T13:43:19Z</time><cmt>3.1 kmh</cmt></trkpt>
<trkpt lat="51.674816" lon="03.867296"><ele>0</ele><time>2021-01-07T13:43:20Z</time><cmt>3.8 kmh</cmt></trkpt>
<trkpt lat="51.674823" lon="03.867310"><ele>0</ele><time>2021-01-07T13:43:21Z</time><cmt>4.5 kmh</cmt></trkpt>
<trkpt lat="51.674829" lon="03.867325"><ele>0</ele><time>2021-01-07T13:43:22Z</time><cmt>3.8 kmh</cmt></trkpt>
<trkpt lat="51.674835" lon="03.867340"><ele>0</ele><time>2021-01-07T13:43:23Z</time><cmt>3.8 kmh</cmt></trkpt>
<trkpt lat="51.674842" lon="03.867354"><ele>0</ele><time>2021-01-07T13:43:24Z</time><cmt>4.8 kmh</cmt></trkpt>
<trkpt lat="51.674848" lon="03.867368"><ele>0</ele><time>2021-01-07T13:43:25Z</time><cmt>4.7 kmh</cmt></trkpt>
<trkpt lat="51.674853" lon="03.867385"><ele>0</ele><time>2021-01-07T13:43:26Z</time><cmt>4.8 kmh</cmt></trkpt>
<trkpt lat="51.674857" lon="03.867400"><ele>0</ele><time>2021-01-07T13:43:27Z</time><cmt>4.7 kmh</cmt></trkpt>
<trkpt lat="51.674861" lon="03.867415"><ele>0</ele><time>2021-01-07T13:43:28Z</time><cmt>3.5 kmh</cmt></trkpt>
<trkpt lat="51.674865" lon="03.867429"><ele>0</ele><time>2021-01-07T13:43:29Z</time><cmt>3.4 kmh</cmt></trkpt>
<trkpt lat="51.674868" lon="03.867440"><ele>0</ele><time>2021-01-07T13:43:30Z</time><cmt>3.8 kmh</cmt></trkpt>
<trkpt lat="51.674871" lon="03.867448"><ele>0</ele><time>2021-01-07T13:43:31Z</time><cmt>2.8 kmh</cmt></trkpt>
<trkpt lat="51.674873" lon="03.867453"><ele>0</ele><time>2021-01-07T13:43:32Z</time><cmt>2.0 kmh</cmt></trkpt>
<trkpt lat="51.674876" lon="03.867457"><ele>0</ele><time>2021-01-07T13:43:33Z</time><cmt>1.5 kmh</cmt></trkpt>
<trkpt lat="51.674878" lon="03.867459"><ele>0</ele><time>2021-01-07T13:43:34Z</time><cmt>1.2 kmh</cmt></trkpt>
<trkpt lat="51.674878" lon="03.867461"><ele>0</ele><time>2021-01-07T13:43:35Z</time><cmt>0.7 kmh</cmt></trkpt>
<trkpt lat="51.674878" lon="03.867463"><ele>0</ele><time>2021-01-07T13:43:36Z</time><cmt>0.4 kmh</cmt></trkpt>
<trkpt lat="51.674877" lon="03.867465"><ele>0</ele><time>2021-01-07T13:43:37Z</time><cmt>0.5 kmh</cmt></trkpt>
<trkpt lat="51.674874" lon="03.867469"><ele>0</ele><time>2021-01-07T13:43:38Z</time><cmt>1.0 kmh</cmt></trkpt>
<trkpt lat="51.674873" lon="03.867472"><ele>0</ele><time>2021-01-07T13:43:39Z</time><cmt>1.3 kmh</cmt></trkpt>
<trkpt lat="51.674872" lon="03.867472"><ele>0</ele><time>2021-01-07T13:43:40Z</time><cmt>0.8 kmh</cmt></trkpt>
<trkpt lat="51.674872" lon="03.867470"><ele>0</ele><time>2021-01-07T13:43:41Z</time><cmt>0.4 kmh</cmt></trkpt>
<trkpt lat="51.674872" lon="03.867469"><ele>0</ele><time>2021-01-07T13:43:42Z</time><cmt>0.4 kmh</cmt></trkpt>
<trkpt lat="51.674873" lon="03.867468"><ele>0</ele><time>2021-01-07T13:43:43Z</time><cmt>0.4 kmh</cmt></trkpt>
<trkpt lat="51.674874" lon="03.867468"><ele>0</ele><time>2021-01-07T13:43:44Z</time><cmt>0.2 kmh</cmt></trkpt>
<trkpt lat="51.674874" lon="03.867468"><ele>0</ele><time>2021-01-07T13:43:45Z</time><cmt>0.0 kmh</cmt></trkpt>
<trkpt lat="51.674874" lon="03.867467"><ele>0</ele><time>2021-01-07T13:43:46Z</time><cmt>0.3 kmh</cmt></trkpt>
<trkpt lat="51.674875" lon="03.867465"><ele>0</ele><time>2021-01-07T13:43:47Z</time><cmt>0.4 kmh</cmt></trkpt>
<trkpt lat="51.674875" lon="03.867464"><ele>0</ele><time>2021-01-07T13:43:48Z</time><cmt>0.2 kmh</cmt></trkpt>
<trkpt lat="51.674874" lon="03.867463"><ele>0</ele><time>2021-01-07T13:43:49Z</time><cmt>0.0 kmh</cmt></trkpt>
<trkpt lat="51.674874" lon="03.867461"><ele>0</ele><time>2021-01-07T13:43:50Z</time><cmt>0.3 kmh</cmt></trkpt>
<trkpt lat="51.674874" lon="03.867460"><ele>0</ele><time>2021-01-07T13:43:51Z</time><cmt>0.6 kmh</cmt></trkpt>
<trkpt lat="51.674874" lon="03.867460"><ele>0</ele><time>2021-01-07T13:43:52Z</time><cmt>0.4 kmh</cmt></trkpt>
<trkpt lat="51.674874" lon="03.867460"><ele>0</ele><time>2021-01-07T13:43:53Z</time><cmt>0.2 kmh</cmt></trkpt>
<trkpt lat="51.674874" lon="03.867459"><ele>0</ele><time>2021-01-07T13:43:54Z</time><cmt>0.0 kmh</cmt></trkpt>
<trkpt lat="51.674874" lon="03.867458"><ele>0</ele><time>2021-01-07T13:43:55Z</time><cmt>0.0 kmh</cmt></trkpt>
<trkpt lat="51.674874" lon="03.867458"><ele>0</ele><time>2021-01-07T13:43:56Z</time><cmt>0.0 kmh</cmt></trkpt>
<trkpt lat="51.674873" lon="03.867458"><ele>0</ele><time>2021-01-07T13:43:57Z</time><cmt>0.0 kmh</cmt></trkpt>
<trkpt lat="51.674873" lon="03.867457"><ele>0</ele><time>2021-01-07T13:43:58Z</time><cmt>0.0 kmh</cmt></trkpt>
<trkpt lat="51.674873" lon="03.867457"><ele>0</ele><time>2021-01-07T13:43:59Z</time><cmt>0.0 kmh</cmt></trkpt>
<trkpt lat="51.674873" lon="03.867458"><ele>0</ele><time>2021-01-07T13:44:00Z</time><cmt>0.0 kmh</cmt></trkpt>
<trkpt lat="51.674874" lon="03.867457"><ele>0</ele><time>2021-01-07T13:44:01Z</time><cmt>0.0 kmh</cmt></trkpt>
<trkpt lat="51.674875" lon="03.867454"><ele>0</ele><time>2021-01-07T13:44:02Z</time><cmt>0.3 kmh</cmt></trkpt>
<trkpt lat="51.674876" lon="03.867451"><ele>0</ele><time>2021-01-07T13:44:03Z</time><cmt>0.6 kmh</cmt></trkpt>
<trkpt lat="51.674878" lon="03.867448"><ele>0</ele><time>2021-01-07T13:44:04Z</time><cmt>1.0 kmh</cmt></trkpt>
<trkpt lat="51.674882" lon="03.867443"><ele>0</ele><time>2021-01-07T13:44:05Z</time><cmt>1.6 kmh</cmt></trkpt>
<trkpt lat="51.674887" lon="03.867437"><ele>0</ele><time>2021-01-07T13:44:06Z</time><cmt>2.0 kmh</cmt></trkpt>
<trkpt lat="51.674893" lon="03.867430"><ele>0</ele><time>2021-01-07T13:44:07Z</time><cmt>2.3 kmh</cmt></trkpt>
<trkpt lat="51.674898" lon="03.867424"><ele>0</ele><time>2021-01-07T13:44:08Z</time><cmt>3.0 kmh</cmt></trkpt>
<trkpt lat="51.674903" lon="03.867418"><ele>0</ele><time>2021-01-07T13:44:09Z</time><cmt>2.9 kmh</cmt></trkpt>
<trkpt lat="51.674908" lon="03.867411"><ele>0</ele><time>2021-01-07T13:44:10Z</time><cmt>2.8 kmh</cmt></trkpt>
<trkpt lat="51.674914" lon="03.867406"><ele>0</ele><time>2021-01-07T13:44:11Z</time><cmt>2.8 kmh</cmt></trkpt>
<trkpt lat="51.674918" lon="03.867402"><ele>0</ele><time>2021-01-07T13:44:12Z</time><cmt>2.4 kmh</cmt></trkpt>
<trkpt lat="51.674920" lon="03.867400"><ele>0</ele><time>2021-01-07T13:44:13Z</time><cmt>1.2 kmh</cmt></trkpt>
<trkpt lat="51.674921" lon="03.867398"><ele>0</ele><time>2021-01-07T13:44:14Z</time><cmt>0.7 kmh</cmt></trkpt>
<trkpt lat="51.674922" lon="03.867398"><ele>0</ele><time>2021-01-07T13:44:15Z</time><cmt>0.3 kmh</cmt></trkpt>
<trkpt lat="51.674922" lon="03.867399"><ele>0</ele><time>2021-01-07T13:44:16Z</time><cmt>0.0 kmh</cmt></trkpt>
<trkpt lat="51.674923" lon="03.867400"><ele>0</ele><time>2021-01-07T13:44:17Z</time><cmt>0.0 kmh</cmt></trkpt>
<trkpt lat="51.674923" lon="03.867401"><ele>0</ele><time>2021-01-07T13:44:18Z</time><cmt>0.0 kmh</cmt></trkpt>
<trkpt lat="51.674921" lon="03.867405"><ele>0</ele><time>2021-01-07T13:44:19Z</time><cmt>0.5 kmh</cmt></trkpt>
<trkpt lat="51.674920" lon="03.867407"><ele>0</ele><time>2021-01-07T13:44:20Z</time><cmt>0.8 kmh</cmt></trkpt>
<trkpt lat="51.674919" lon="03.867410"><ele>0</ele><time>2021-01-07T13:44:21Z</time><cmt>0.9 kmh</cmt></trkpt>
<trkpt lat="51.674917" lon="03.867413"><ele>0</ele><time>2021-01-07T13:44:22Z</time><cmt>0.9 kmh</cmt></trkpt>
<trkpt lat="51.674916" lon="03.867414"><ele>0</ele><time>2021-01-07T13:44:23Z</time><cmt>0.7 kmh</cmt></trkpt>
<trkpt lat="51.674915" lon="03.867415"><ele>0</ele><time>2021-01-07T13:44:24Z</time><cmt>0.3 kmh</cmt></trkpt>
<trkpt lat="51.674915" lon="03.867415"><ele>0</ele><time>2021-01-07T13:44:25Z</time><cmt>0.0 kmh</cmt></trkpt>
<trkpt lat="51.674915" lon="03.867414"><ele>0</ele><time>2021-01-07T13:44:26Z</time><cmt>0.0 kmh</cmt></trkpt>
<trkpt lat="51.674914" lon="03.867415"><ele>0</ele><time>2021-01-07T13:44:27Z</time><cmt>0.0 kmh</cmt></trkpt>
<trkpt lat="51.674913" lon="03.867415"><ele>0</ele><time>2021-01-07T13:44:28Z</time><cmt>0.3 kmh</cmt></trkpt>
<trkpt lat="51.674912" lon="03.867416"><ele>0</ele><time>2021-01-07T13:44:29Z</time><cmt>0.3 kmh</cmt></trkpt>
<trkpt lat="51.674911" lon="03.867416"><ele>0</ele><time>2021-01-07T13:44:30Z</time><cmt>0.0 kmh</cmt></trkpt>
<trkpt lat="51.674911" lon="03.867417"><ele>0</ele><time>2021-01-07T13:44:31Z</time><cmt>0.0 kmh</cmt></trkpt>
<trkpt lat="51.674911" lon="03.867417"><ele>0</ele><time>2021-01-07T13:44:32Z</time><cmt>0.0 kmh</cmt></trkpt>
<trkpt lat="51.674910" lon="03.867417"><ele>0</ele><time>2021-01-07T13:44:33Z</time><cmt>0.1 kmh</cmt></trkpt>
<trkpt lat="51.674910" lon="03.867418"><ele>0</ele><time>2021-01-07T13:44:34Z</time><cmt>0.4 kmh</cmt></trkpt>
<trkpt lat="51.674910" lon="03.867418"><ele>0</ele><time>2021-01-07T13:44:35Z</time><cmt>0.2 kmh</cmt></trkpt>
<trkpt lat="51.674910" lon="03.867418"><ele>0</ele><time>2021-01-07T13:44:36Z</time><cmt>0.0 kmh</cmt></trkpt>
<trkpt lat="51.674911" lon="03.867418"><ele>0</ele><time>2021-01-07T13:44:37Z</time><cmt>0.0 kmh</cmt></trkpt>
<trkpt lat="51.674911" lon="03.867418"><ele>0</ele><time>2021-01-07T13:44:38Z</time><cmt>0.0 kmh</cmt></trkpt>
<trkpt lat="51.674912" lon="03.867418"><ele>0</ele><time>2021-01-07T13:44:39Z</time><cmt>0.0 kmh</cmt></trkpt></trkseg></trk></gpx>